<?xml version="1.0" encoding="UTF-8" standalone="no" ?>
<gpx xmlns="http://www.topografix.com/GPX/1/1" xmlns:xsi="http://www.w3.org/2001/XMLSchema-instance" xsi:schemaLocation="http://www.topografix.com/GPX/1/1 http://www.topografix.com/GPX/1/1/gpx.xsd" version="1.1" creator="VisuGPX - https://www.visugpx.com">
  <metadata>
    <name>TrailRunning</name>
    <desc><![CDATA[Départ de VENTENAC-CABARDES en direction d'ARAGON et retour.]]></desc>
  </metadata>
  <trk>
    <name><![CDATA[TrailRunning]]></name>
    <trkseg>
      <trkpt lat="43.26407" lon="2.28773">
        <ele>123.5</ele>
        <time>2022-04-17T06:15:21.000Z</time>
      </trkpt>
      <trkpt lat="43.26406" lon="2.28774">
        <ele>123.5</ele>
        <time>2022-04-17T06:15:22.000Z</time>
      </trkpt>
      <trkpt lat="43.26406" lon="2.28774">
        <ele>123.5</ele>
        <time>2022-04-17T06:15:23.000Z</time>
      </trkpt>
      <trkpt lat="43.26406" lon="2.28773">
        <ele>123.5</ele>
        <time>2022-04-17T06:15:24.000Z</time>
      </trkpt>
      <trkpt lat="43.26406" lon="2.28772">
        <ele>123.5</ele>
        <time>2022-04-17T06:15:25.000Z</time>
      </trkpt>
      <trkpt lat="43.26406" lon="2.28771">
        <ele>123.6</ele>
        <time>2022-04-17T06:15:26.000Z</time>
      </trkpt>
      <trkpt lat="43.26406" lon="2.2877">
        <ele>123.6</ele>
        <time>2022-04-17T06:15:27.000Z</time>
      </trkpt>
      <trkpt lat="43.26407" lon="2.28769">
        <ele>123.6</ele>
        <time>2022-04-17T06:15:28.000Z</time>
      </trkpt>
      <trkpt lat="43.26407" lon="2.28768">
        <ele>123.6</ele>
        <time>2022-04-17T06:15:29.000Z</time>
      </trkpt>
      <trkpt lat="43.26407" lon="2.28767">
        <ele>123.6</ele>
        <time>2022-04-17T06:15:30.000Z</time>
      </trkpt>
      <trkpt lat="43.26408" lon="2.28766">
        <ele>123.6</ele>
        <time>2022-04-17T06:15:31.000Z</time>
      </trkpt>
      <trkpt lat="43.26408" lon="2.28764">
        <ele>123.7</ele>
        <time>2022-04-17T06:15:32.000Z</time>
      </trkpt>
      <trkpt lat="43.26409" lon="2.28763">
        <ele>123.7</ele>
        <time>2022-04-17T06:15:33.000Z</time>
      </trkpt>
      <trkpt lat="43.26409" lon="2.28762">
        <ele>123.7</ele>
        <time>2022-04-17T06:15:34.000Z</time>
      </trkpt>
      <trkpt lat="43.2641" lon="2.2876">
        <ele>123.7</ele>
        <time>2022-04-17T06:15:35.000Z</time>
      </trkpt>
      <trkpt lat="43.26411" lon="2.28758">
        <ele>123.8</ele>
        <time>2022-04-17T06:15:36.000Z</time>
      </trkpt>
      <trkpt lat="43.26412" lon="2.28756">
        <ele>123.8</ele>
        <time>2022-04-17T06:15:37.000Z</time>
      </trkpt>
      <trkpt lat="43.26413" lon="2.28754">
        <ele>123.9</ele>
        <time>2022-04-17T06:15:38.000Z</time>
      </trkpt>
      <trkpt lat="43.26414" lon="2.28752">
        <ele>123.9</ele>
        <time>2022-04-17T06:15:39.000Z</time>
      </trkpt>
      <trkpt lat="43.26415" lon="2.2875">
        <ele>123.9</ele>
        <time>2022-04-17T06:15:40.000Z</time>
      </trkpt>
      <trkpt lat="43.26415" lon="2.28747">
        <ele>124</ele>
        <time>2022-04-17T06:15:41.000Z</time>
      </trkpt>
      <trkpt lat="43.26417" lon="2.28745">
        <ele>124</ele>
        <time>2022-04-17T06:15:42.000Z</time>
      </trkpt>
      <trkpt lat="43.26418" lon="2.28744">
        <ele>124</ele>
        <time>2022-04-17T06:15:43.000Z</time>
      </trkpt>
      <trkpt lat="43.26419" lon="2.28742">
        <ele>124</ele>
        <time>2022-04-17T06:15:44.000Z</time>
      </trkpt>
      <trkpt lat="43.2642" lon="2.2874">
        <ele>124</ele>
        <time>2022-04-17T06:15:45.000Z</time>
      </trkpt>
      <trkpt lat="43.26421" lon="2.28739">
        <ele>124</ele>
        <time>2022-04-17T06:15:46.000Z</time>
      </trkpt>
      <trkpt lat="43.26422" lon="2.28737">
        <ele>124.1</ele>
        <time>2022-04-17T06:15:47.000Z</time>
      </trkpt>
      <trkpt lat="43.26423" lon="2.28735">
        <ele>124.1</ele>
        <time>2022-04-17T06:15:48.000Z</time>
      </trkpt>
      <trkpt lat="43.26424" lon="2.28733">
        <ele>124.1</ele>
        <time>2022-04-17T06:15:49.000Z</time>
      </trkpt>
      <trkpt lat="43.26425" lon="2.2873">
        <ele>124.1</ele>
        <time>2022-04-17T06:15:50.000Z</time>
      </trkpt>
      <trkpt lat="43.26426" lon="2.28728">
        <ele>124.1</ele>
        <time>2022-04-17T06:15:51.000Z</time>
      </trkpt>
      <trkpt lat="43.26427" lon="2.28725">
        <ele>124.1</ele>
        <time>2022-04-17T06:15:52.000Z</time>
      </trkpt>
      <trkpt lat="43.26428" lon="2.28722">
        <ele>124.1</ele>
        <time>2022-04-17T06:15:53.000Z</time>
      </trkpt>
      <trkpt lat="43.26429" lon="2.2872">
        <ele>124.1</ele>
        <time>2022-04-17T06:15:54.000Z</time>
      </trkpt>
      <trkpt lat="43.2643" lon="2.28717">
        <ele>124.2</ele>
        <time>2022-04-17T06:15:55.000Z</time>
      </trkpt>
      <trkpt lat="43.26431" lon="2.28714">
        <ele>124.2</ele>
        <time>2022-04-17T06:15:56.000Z</time>
      </trkpt>
      <trkpt lat="43.26432" lon="2.28712">
        <ele>124.2</ele>
        <time>2022-04-17T06:15:57.000Z</time>
      </trkpt>
      <trkpt lat="43.26433" lon="2.28709">
        <ele>124.2</ele>
        <time>2022-04-17T06:15:58.000Z</time>
      </trkpt>
      <trkpt lat="43.26434" lon="2.28707">
        <ele>124.2</ele>
        <time>2022-04-17T06:15:59.000Z</time>
      </trkpt>
      <trkpt lat="43.26436" lon="2.28705">
        <ele>124.2</ele>
        <time>2022-04-17T06:16:00.000Z</time>
      </trkpt>
      <trkpt lat="43.26437" lon="2.28702">
        <ele>124.2</ele>
        <time>2022-04-17T06:16:01.000Z</time>
      </trkpt>
      <trkpt lat="43.26438" lon="2.287">
        <ele>124.3</ele>
        <time>2022-04-17T06:16:02.000Z</time>
      </trkpt>
      <trkpt lat="43.2644" lon="2.28698">
        <ele>124.3</ele>
        <time>2022-04-17T06:16:03.000Z</time>
      </trkpt>
      <trkpt lat="43.26441" lon="2.28696">
        <ele>124.3</ele>
        <time>2022-04-17T06:16:04.000Z</time>
      </trkpt>
      <trkpt lat="43.26443" lon="2.28695">
        <ele>124.3</ele>
        <time>2022-04-17T06:16:05.000Z</time>
      </trkpt>
      <trkpt lat="43.26445" lon="2.28694">
        <ele>124.3</ele>
        <time>2022-04-17T06:16:06.000Z</time>
      </trkpt>
      <trkpt lat="43.26446" lon="2.28694">
        <ele>124.4</ele>
        <time>2022-04-17T06:16:07.000Z</time>
      </trkpt>
      <trkpt lat="43.26448" lon="2.28693">
        <ele>124.4</ele>
        <time>2022-04-17T06:16:08.000Z</time>
      </trkpt>
      <trkpt lat="43.2645" lon="2.28692">
        <ele>124.4</ele>
        <time>2022-04-17T06:16:09.000Z</time>
      </trkpt>
      <trkpt lat="43.26451" lon="2.28691">
        <ele>124.4</ele>
        <time>2022-04-17T06:16:10.000Z</time>
      </trkpt>
      <trkpt lat="43.26453" lon="2.2869">
        <ele>124.4</ele>
        <time>2022-04-17T06:16:11.000Z</time>
      </trkpt>
      <trkpt lat="43.26455" lon="2.28688">
        <ele>124.5</ele>
        <time>2022-04-17T06:16:12.000Z</time>
      </trkpt>
      <trkpt lat="43.26456" lon="2.28687">
        <ele>124.5</ele>
        <time>2022-04-17T06:16:13.000Z</time>
      </trkpt>
      <trkpt lat="43.26458" lon="2.28686">
        <ele>124.5</ele>
        <time>2022-04-17T06:16:14.000Z</time>
      </trkpt>
      <trkpt lat="43.2646" lon="2.28684">
        <ele>124.5</ele>
        <time>2022-04-17T06:16:15.000Z</time>
      </trkpt>
      <trkpt lat="43.26462" lon="2.28683">
        <ele>124.5</ele>
        <time>2022-04-17T06:16:16.000Z</time>
      </trkpt>
      <trkpt lat="43.26463" lon="2.28683">
        <ele>124.6</ele>
        <time>2022-04-17T06:16:17.000Z</time>
      </trkpt>
      <trkpt lat="43.26465" lon="2.28682">
        <ele>124.6</ele>
        <time>2022-04-17T06:16:18.000Z</time>
      </trkpt>
      <trkpt lat="43.26467" lon="2.28682">
        <ele>124.6</ele>
        <time>2022-04-17T06:16:19.000Z</time>
      </trkpt>
      <trkpt lat="43.26469" lon="2.28683">
        <ele>124.6</ele>
        <time>2022-04-17T06:16:20.000Z</time>
      </trkpt>
      <trkpt lat="43.26471" lon="2.28683">
        <ele>124.7</ele>
        <time>2022-04-17T06:16:21.000Z</time>
      </trkpt>
      <trkpt lat="43.26473" lon="2.28684">
        <ele>124.7</ele>
        <time>2022-04-17T06:16:22.000Z</time>
      </trkpt>
      <trkpt lat="43.26475" lon="2.28685">
        <ele>124.7</ele>
        <time>2022-04-17T06:16:23.000Z</time>
      </trkpt>
      <trkpt lat="43.26477" lon="2.28687">
        <ele>124.7</ele>
        <time>2022-04-17T06:16:24.000Z</time>
      </trkpt>
      <trkpt lat="43.26479" lon="2.28689">
        <ele>124.7</ele>
        <time>2022-04-17T06:16:25.000Z</time>
      </trkpt>
      <trkpt lat="43.26481" lon="2.2869">
        <ele>124.8</ele>
        <time>2022-04-17T06:16:26.000Z</time>
      </trkpt>
      <trkpt lat="43.26483" lon="2.28692">
        <ele>124.8</ele>
        <time>2022-04-17T06:16:27.000Z</time>
      </trkpt>
      <trkpt lat="43.26485" lon="2.28694">
        <ele>124.8</ele>
        <time>2022-04-17T06:16:28.000Z</time>
      </trkpt>
      <trkpt lat="43.26487" lon="2.28695">
        <ele>124.8</ele>
        <time>2022-04-17T06:16:29.000Z</time>
      </trkpt>
      <trkpt lat="43.26489" lon="2.28697">
        <ele>124.9</ele>
        <time>2022-04-17T06:16:30.000Z</time>
      </trkpt>
      <trkpt lat="43.26491" lon="2.28698">
        <ele>124.9</ele>
        <time>2022-04-17T06:16:31.000Z</time>
      </trkpt>
      <trkpt lat="43.26494" lon="2.287">
        <ele>124.9</ele>
        <time>2022-04-17T06:16:32.000Z</time>
      </trkpt>
      <trkpt lat="43.26496" lon="2.28701">
        <ele>124.9</ele>
        <time>2022-04-17T06:16:33.000Z</time>
      </trkpt>
      <trkpt lat="43.26498" lon="2.28703">
        <ele>125</ele>
        <time>2022-04-17T06:16:34.000Z</time>
      </trkpt>
      <trkpt lat="43.265" lon="2.28704">
        <ele>125</ele>
        <time>2022-04-17T06:16:35.000Z</time>
      </trkpt>
      <trkpt lat="43.26502" lon="2.28705">
        <ele>125.1</ele>
        <time>2022-04-17T06:16:36.000Z</time>
      </trkpt>
      <trkpt lat="43.26504" lon="2.28707">
        <ele>125.2</ele>
        <time>2022-04-17T06:16:37.000Z</time>
      </trkpt>
      <trkpt lat="43.26506" lon="2.28708">
        <ele>125.3</ele>
        <time>2022-04-17T06:16:38.000Z</time>
      </trkpt>
      <trkpt lat="43.26508" lon="2.28709">
        <ele>125.4</ele>
        <time>2022-04-17T06:16:39.000Z</time>
      </trkpt>
      <trkpt lat="43.2651" lon="2.28711">
        <ele>125.5</ele>
        <time>2022-04-17T06:16:40.000Z</time>
      </trkpt>
      <trkpt lat="43.26511" lon="2.28712">
        <ele>125.5</ele>
        <time>2022-04-17T06:16:41.000Z</time>
      </trkpt>
      <trkpt lat="43.26513" lon="2.28713">
        <ele>125.6</ele>
        <time>2022-04-17T06:16:42.000Z</time>
      </trkpt>
      <trkpt lat="43.26515" lon="2.28715">
        <ele>125.7</ele>
        <time>2022-04-17T06:16:43.000Z</time>
      </trkpt>
      <trkpt lat="43.26517" lon="2.28716">
        <ele>125.8</ele>
        <time>2022-04-17T06:16:44.000Z</time>
      </trkpt>
      <trkpt lat="43.26519" lon="2.28717">
        <ele>125.9</ele>
        <time>2022-04-17T06:16:45.000Z</time>
      </trkpt>
      <trkpt lat="43.26521" lon="2.28719">
        <ele>126</ele>
        <time>2022-04-17T06:16:46.000Z</time>
      </trkpt>
      <trkpt lat="43.26523" lon="2.2872">
        <ele>126.1</ele>
        <time>2022-04-17T06:16:47.000Z</time>
      </trkpt>
      <trkpt lat="43.26524" lon="2.28722">
        <ele>126.2</ele>
        <time>2022-04-17T06:16:48.000Z</time>
      </trkpt>
      <trkpt lat="43.26526" lon="2.28723">
        <ele>126.3</ele>
        <time>2022-04-17T06:16:49.000Z</time>
      </trkpt>
      <trkpt lat="43.26528" lon="2.28724">
        <ele>126.3</ele>
        <time>2022-04-17T06:16:50.000Z</time>
      </trkpt>
      <trkpt lat="43.2653" lon="2.28726">
        <ele>126.4</ele>
        <time>2022-04-17T06:16:51.000Z</time>
      </trkpt>
      <trkpt lat="43.26532" lon="2.28727">
        <ele>126.5</ele>
        <time>2022-04-17T06:16:52.000Z</time>
      </trkpt>
      <trkpt lat="43.26534" lon="2.28728">
        <ele>126.6</ele>
        <time>2022-04-17T06:16:53.000Z</time>
      </trkpt>
      <trkpt lat="43.26536" lon="2.28729">
        <ele>126.7</ele>
        <time>2022-04-17T06:16:54.000Z</time>
      </trkpt>
      <trkpt lat="43.26537" lon="2.28731">
        <ele>126.8</ele>
        <time>2022-04-17T06:16:55.000Z</time>
      </trkpt>
      <trkpt lat="43.26539" lon="2.28732">
        <ele>126.9</ele>
        <time>2022-04-17T06:16:56.000Z</time>
      </trkpt>
      <trkpt lat="43.26541" lon="2.28733">
        <ele>127</ele>
        <time>2022-04-17T06:16:57.000Z</time>
      </trkpt>
      <trkpt lat="43.26543" lon="2.28734">
        <ele>127.1</ele>
        <time>2022-04-17T06:16:58.000Z</time>
      </trkpt>
      <trkpt lat="43.26545" lon="2.28735">
        <ele>127.2</ele>
        <time>2022-04-17T06:16:59.000Z</time>
      </trkpt>
      <trkpt lat="43.26547" lon="2.28737">
        <ele>127.3</ele>
        <time>2022-04-17T06:17:00.000Z</time>
      </trkpt>
      <trkpt lat="43.26549" lon="2.28738">
        <ele>127.4</ele>
        <time>2022-04-17T06:17:01.000Z</time>
      </trkpt>
      <trkpt lat="43.26551" lon="2.28739">
        <ele>127.4</ele>
        <time>2022-04-17T06:17:02.000Z</time>
      </trkpt>
      <trkpt lat="43.26553" lon="2.28741">
        <ele>127.5</ele>
        <time>2022-04-17T06:17:03.000Z</time>
      </trkpt>
      <trkpt lat="43.26555" lon="2.28742">
        <ele>127.6</ele>
        <time>2022-04-17T06:17:04.000Z</time>
      </trkpt>
      <trkpt lat="43.26557" lon="2.28744">
        <ele>127.7</ele>
        <time>2022-04-17T06:17:05.000Z</time>
      </trkpt>
      <trkpt lat="43.26559" lon="2.28745">
        <ele>127.8</ele>
        <time>2022-04-17T06:17:06.000Z</time>
      </trkpt>
      <trkpt lat="43.26561" lon="2.28747">
        <ele>127.9</ele>
        <time>2022-04-17T06:17:07.000Z</time>
      </trkpt>
      <trkpt lat="43.26563" lon="2.28749">
        <ele>128</ele>
        <time>2022-04-17T06:17:08.000Z</time>
      </trkpt>
      <trkpt lat="43.26565" lon="2.2875">
        <ele>128.1</ele>
        <time>2022-04-17T06:17:09.000Z</time>
      </trkpt>
      <trkpt lat="43.26567" lon="2.28752">
        <ele>128.2</ele>
        <time>2022-04-17T06:17:10.000Z</time>
      </trkpt>
      <trkpt lat="43.26569" lon="2.28754">
        <ele>128.3</ele>
        <time>2022-04-17T06:17:11.000Z</time>
      </trkpt>
      <trkpt lat="43.26571" lon="2.28756">
        <ele>128.4</ele>
        <time>2022-04-17T06:17:12.000Z</time>
      </trkpt>
      <trkpt lat="43.26573" lon="2.28758">
        <ele>128.4</ele>
        <time>2022-04-17T06:17:13.000Z</time>
      </trkpt>
      <trkpt lat="43.26575" lon="2.2876">
        <ele>128.5</ele>
        <time>2022-04-17T06:17:14.000Z</time>
      </trkpt>
      <trkpt lat="43.26577" lon="2.28762">
        <ele>128.6</ele>
        <time>2022-04-17T06:17:15.000Z</time>
      </trkpt>
      <trkpt lat="43.26579" lon="2.28764">
        <ele>128.7</ele>
        <time>2022-04-17T06:17:16.000Z</time>
      </trkpt>
      <trkpt lat="43.26581" lon="2.28765">
        <ele>128.7</ele>
        <time>2022-04-17T06:17:17.000Z</time>
      </trkpt>
      <trkpt lat="43.26583" lon="2.28767">
        <ele>128.8</ele>
        <time>2022-04-17T06:17:18.000Z</time>
      </trkpt>
      <trkpt lat="43.26585" lon="2.28769">
        <ele>128.9</ele>
        <time>2022-04-17T06:17:19.000Z</time>
      </trkpt>
      <trkpt lat="43.26588" lon="2.2877">
        <ele>128.9</ele>
        <time>2022-04-17T06:17:20.000Z</time>
      </trkpt>
      <trkpt lat="43.2659" lon="2.28772">
        <ele>129</ele>
        <time>2022-04-17T06:17:21.000Z</time>
      </trkpt>
      <trkpt lat="43.26592" lon="2.28773">
        <ele>129</ele>
        <time>2022-04-17T06:17:22.000Z</time>
      </trkpt>
      <trkpt lat="43.26594" lon="2.28774">
        <ele>129.1</ele>
        <time>2022-04-17T06:17:23.000Z</time>
      </trkpt>
      <trkpt lat="43.26596" lon="2.28776">
        <ele>129.2</ele>
        <time>2022-04-17T06:17:24.000Z</time>
      </trkpt>
      <trkpt lat="43.26598" lon="2.28777">
        <ele>129.3</ele>
        <time>2022-04-17T06:17:25.000Z</time>
      </trkpt>
      <trkpt lat="43.266" lon="2.28778">
        <ele>129.3</ele>
        <time>2022-04-17T06:17:26.000Z</time>
      </trkpt>
      <trkpt lat="43.26602" lon="2.28779">
        <ele>129.4</ele>
        <time>2022-04-17T06:17:27.000Z</time>
      </trkpt>
      <trkpt lat="43.26604" lon="2.2878">
        <ele>129.5</ele>
        <time>2022-04-17T06:17:28.000Z</time>
      </trkpt>
      <trkpt lat="43.26606" lon="2.28781">
        <ele>129.5</ele>
        <time>2022-04-17T06:17:29.000Z</time>
      </trkpt>
      <trkpt lat="43.26608" lon="2.28782">
        <ele>129.6</ele>
        <time>2022-04-17T06:17:30.000Z</time>
      </trkpt>
      <trkpt lat="43.2661" lon="2.28783">
        <ele>129.7</ele>
        <time>2022-04-17T06:17:31.000Z</time>
      </trkpt>
      <trkpt lat="43.26612" lon="2.28785">
        <ele>129.7</ele>
        <time>2022-04-17T06:17:32.000Z</time>
      </trkpt>
      <trkpt lat="43.26614" lon="2.28786">
        <ele>129.8</ele>
        <time>2022-04-17T06:17:33.000Z</time>
      </trkpt>
      <trkpt lat="43.26616" lon="2.28787">
        <ele>129.9</ele>
        <time>2022-04-17T06:17:34.000Z</time>
      </trkpt>
      <trkpt lat="43.26617" lon="2.28789">
        <ele>130</ele>
        <time>2022-04-17T06:17:35.000Z</time>
      </trkpt>
      <trkpt lat="43.26619" lon="2.2879">
        <ele>130</ele>
        <time>2022-04-17T06:17:36.000Z</time>
      </trkpt>
      <trkpt lat="43.26621" lon="2.28791">
        <ele>130.1</ele>
        <time>2022-04-17T06:17:37.000Z</time>
      </trkpt>
      <trkpt lat="43.26623" lon="2.28793">
        <ele>130.2</ele>
        <time>2022-04-17T06:17:38.000Z</time>
      </trkpt>
      <trkpt lat="43.26625" lon="2.28794">
        <ele>130.2</ele>
        <time>2022-04-17T06:17:39.000Z</time>
      </trkpt>
      <trkpt lat="43.26627" lon="2.28796">
        <ele>130.3</ele>
        <time>2022-04-17T06:17:40.000Z</time>
      </trkpt>
      <trkpt lat="43.26629" lon="2.28797">
        <ele>130.4</ele>
        <time>2022-04-17T06:17:41.000Z</time>
      </trkpt>
      <trkpt lat="43.2663" lon="2.28799">
        <ele>130.4</ele>
        <time>2022-04-17T06:17:42.000Z</time>
      </trkpt>
      <trkpt lat="43.26632" lon="2.288">
        <ele>130.5</ele>
        <time>2022-04-17T06:17:43.000Z</time>
      </trkpt>
      <trkpt lat="43.26634" lon="2.28802">
        <ele>130.6</ele>
        <time>2022-04-17T06:17:44.000Z</time>
      </trkpt>
      <trkpt lat="43.26636" lon="2.28803">
        <ele>130.7</ele>
        <time>2022-04-17T06:17:45.000Z</time>
      </trkpt>
      <trkpt lat="43.26638" lon="2.28805">
        <ele>130.7</ele>
        <time>2022-04-17T06:17:46.000Z</time>
      </trkpt>
      <trkpt lat="43.2664" lon="2.28806">
        <ele>130.8</ele>
        <time>2022-04-17T06:17:47.000Z</time>
      </trkpt>
      <trkpt lat="43.26642" lon="2.28808">
        <ele>130.9</ele>
        <time>2022-04-17T06:17:48.000Z</time>
      </trkpt>
      <trkpt lat="43.26643" lon="2.28809">
        <ele>131</ele>
        <time>2022-04-17T06:17:49.000Z</time>
      </trkpt>
      <trkpt lat="43.26645" lon="2.28811">
        <ele>131</ele>
        <time>2022-04-17T06:17:50.000Z</time>
      </trkpt>
      <trkpt lat="43.26647" lon="2.28812">
        <ele>131.1</ele>
        <time>2022-04-17T06:17:51.000Z</time>
      </trkpt>
      <trkpt lat="43.26649" lon="2.28813">
        <ele>131.2</ele>
        <time>2022-04-17T06:17:52.000Z</time>
      </trkpt>
      <trkpt lat="43.26651" lon="2.28815">
        <ele>131.3</ele>
        <time>2022-04-17T06:17:53.000Z</time>
      </trkpt>
      <trkpt lat="43.26653" lon="2.28816">
        <ele>131.4</ele>
        <time>2022-04-17T06:17:54.000Z</time>
      </trkpt>
      <trkpt lat="43.26655" lon="2.28817">
        <ele>131.5</ele>
        <time>2022-04-17T06:17:55.000Z</time>
      </trkpt>
      <trkpt lat="43.26657" lon="2.28819">
        <ele>131.5</ele>
        <time>2022-04-17T06:17:56.000Z</time>
      </trkpt>
      <trkpt lat="43.26659" lon="2.2882">
        <ele>131.6</ele>
        <time>2022-04-17T06:17:57.000Z</time>
      </trkpt>
      <trkpt lat="43.26661" lon="2.28821">
        <ele>131.7</ele>
        <time>2022-04-17T06:17:58.000Z</time>
      </trkpt>
      <trkpt lat="43.26663" lon="2.28822">
        <ele>131.8</ele>
        <time>2022-04-17T06:17:59.000Z</time>
      </trkpt>
      <trkpt lat="43.26664" lon="2.28824">
        <ele>131.9</ele>
        <time>2022-04-17T06:18:00.000Z</time>
      </trkpt>
      <trkpt lat="43.26666" lon="2.28825">
        <ele>132</ele>
        <time>2022-04-17T06:18:01.000Z</time>
      </trkpt>
      <trkpt lat="43.26668" lon="2.28826">
        <ele>132.1</ele>
        <time>2022-04-17T06:18:02.000Z</time>
      </trkpt>
      <trkpt lat="43.2667" lon="2.28828">
        <ele>132.2</ele>
        <time>2022-04-17T06:18:03.000Z</time>
      </trkpt>
      <trkpt lat="43.26672" lon="2.28829">
        <ele>132.4</ele>
        <time>2022-04-17T06:18:04.000Z</time>
      </trkpt>
      <trkpt lat="43.26674" lon="2.2883">
        <ele>132.5</ele>
        <time>2022-04-17T06:18:05.000Z</time>
      </trkpt>
      <trkpt lat="43.26676" lon="2.28831">
        <ele>132.6</ele>
        <time>2022-04-17T06:18:06.000Z</time>
      </trkpt>
      <trkpt lat="43.26678" lon="2.28833">
        <ele>132.8</ele>
        <time>2022-04-17T06:18:07.000Z</time>
      </trkpt>
      <trkpt lat="43.26679" lon="2.28834">
        <ele>132.9</ele>
        <time>2022-04-17T06:18:08.000Z</time>
      </trkpt>
      <trkpt lat="43.26681" lon="2.28835">
        <ele>133.1</ele>
        <time>2022-04-17T06:18:09.000Z</time>
      </trkpt>
      <trkpt lat="43.26683" lon="2.28837">
        <ele>133.3</ele>
        <time>2022-04-17T06:18:10.000Z</time>
      </trkpt>
      <trkpt lat="43.26685" lon="2.28838">
        <ele>133.5</ele>
        <time>2022-04-17T06:18:11.000Z</time>
      </trkpt>
      <trkpt lat="43.26687" lon="2.28839">
        <ele>133.7</ele>
        <time>2022-04-17T06:18:12.000Z</time>
      </trkpt>
      <trkpt lat="43.26689" lon="2.28841">
        <ele>133.9</ele>
        <time>2022-04-17T06:18:13.000Z</time>
      </trkpt>
      <trkpt lat="43.2669" lon="2.28842">
        <ele>134.1</ele>
        <time>2022-04-17T06:18:14.000Z</time>
      </trkpt>
      <trkpt lat="43.26692" lon="2.28843">
        <ele>134.3</ele>
        <time>2022-04-17T06:18:15.000Z</time>
      </trkpt>
      <trkpt lat="43.26694" lon="2.28844">
        <ele>134.5</ele>
        <time>2022-04-17T06:18:16.000Z</time>
      </trkpt>
      <trkpt lat="43.26696" lon="2.28846">
        <ele>134.7</ele>
        <time>2022-04-17T06:18:17.000Z</time>
      </trkpt>
      <trkpt lat="43.26698" lon="2.28847">
        <ele>134.9</ele>
        <time>2022-04-17T06:18:18.000Z</time>
      </trkpt>
      <trkpt lat="43.267" lon="2.28848">
        <ele>135.1</ele>
        <time>2022-04-17T06:18:19.000Z</time>
      </trkpt>
      <trkpt lat="43.26701" lon="2.2885">
        <ele>135.3</ele>
        <time>2022-04-17T06:18:20.000Z</time>
      </trkpt>
      <trkpt lat="43.26703" lon="2.28851">
        <ele>135.5</ele>
        <time>2022-04-17T06:18:21.000Z</time>
      </trkpt>
      <trkpt lat="43.26705" lon="2.28852">
        <ele>135.7</ele>
        <time>2022-04-17T06:18:22.000Z</time>
      </trkpt>
      <trkpt lat="43.26707" lon="2.28854">
        <ele>135.9</ele>
        <time>2022-04-17T06:18:23.000Z</time>
      </trkpt>
      <trkpt lat="43.26709" lon="2.28855">
        <ele>136.1</ele>
        <time>2022-04-17T06:18:24.000Z</time>
      </trkpt>
      <trkpt lat="43.26711" lon="2.28856">
        <ele>136.3</ele>
        <time>2022-04-17T06:18:25.000Z</time>
      </trkpt>
      <trkpt lat="43.26712" lon="2.28858">
        <ele>136.5</ele>
        <time>2022-04-17T06:18:26.000Z</time>
      </trkpt>
      <trkpt lat="43.26714" lon="2.28859">
        <ele>136.6</ele>
        <time>2022-04-17T06:18:27.000Z</time>
      </trkpt>
      <trkpt lat="43.26716" lon="2.2886">
        <ele>136.8</ele>
        <time>2022-04-17T06:18:28.000Z</time>
      </trkpt>
      <trkpt lat="43.26718" lon="2.28861">
        <ele>137</ele>
        <time>2022-04-17T06:18:29.000Z</time>
      </trkpt>
      <trkpt lat="43.2672" lon="2.28863">
        <ele>137.2</ele>
        <time>2022-04-17T06:18:30.000Z</time>
      </trkpt>
      <trkpt lat="43.26722" lon="2.28864">
        <ele>137.4</ele>
        <time>2022-04-17T06:18:31.000Z</time>
      </trkpt>
      <trkpt lat="43.26724" lon="2.28865">
        <ele>137.6</ele>
        <time>2022-04-17T06:18:32.000Z</time>
      </trkpt>
      <trkpt lat="43.26725" lon="2.28867">
        <ele>137.8</ele>
        <time>2022-04-17T06:18:33.000Z</time>
      </trkpt>
      <trkpt lat="43.26727" lon="2.28868">
        <ele>138</ele>
        <time>2022-04-17T06:18:34.000Z</time>
      </trkpt>
      <trkpt lat="43.26729" lon="2.28869">
        <ele>138.2</ele>
        <time>2022-04-17T06:18:35.000Z</time>
      </trkpt>
      <trkpt lat="43.26731" lon="2.2887">
        <ele>138.4</ele>
        <time>2022-04-17T06:18:36.000Z</time>
      </trkpt>
      <trkpt lat="43.26733" lon="2.28872">
        <ele>138.6</ele>
        <time>2022-04-17T06:18:37.000Z</time>
      </trkpt>
      <trkpt lat="43.26735" lon="2.28873">
        <ele>138.8</ele>
        <time>2022-04-17T06:18:38.000Z</time>
      </trkpt>
      <trkpt lat="43.26737" lon="2.28874">
        <ele>139</ele>
        <time>2022-04-17T06:18:39.000Z</time>
      </trkpt>
      <trkpt lat="43.26739" lon="2.28875">
        <ele>139.2</ele>
        <time>2022-04-17T06:18:40.000Z</time>
      </trkpt>
      <trkpt lat="43.26741" lon="2.28876">
        <ele>139.4</ele>
        <time>2022-04-17T06:18:41.000Z</time>
      </trkpt>
      <trkpt lat="43.26742" lon="2.28877">
        <ele>139.6</ele>
        <time>2022-04-17T06:18:42.000Z</time>
      </trkpt>
      <trkpt lat="43.26744" lon="2.28878">
        <ele>139.7</ele>
        <time>2022-04-17T06:18:43.000Z</time>
      </trkpt>
      <trkpt lat="43.26746" lon="2.28879">
        <ele>139.9</ele>
        <time>2022-04-17T06:18:44.000Z</time>
      </trkpt>
      <trkpt lat="43.26748" lon="2.28879">
        <ele>140.1</ele>
        <time>2022-04-17T06:18:45.000Z</time>
      </trkpt>
      <trkpt lat="43.26751" lon="2.28878">
        <ele>140.2</ele>
        <time>2022-04-17T06:18:46.000Z</time>
      </trkpt>
      <trkpt lat="43.26753" lon="2.28878">
        <ele>140.4</ele>
        <time>2022-04-17T06:18:47.000Z</time>
      </trkpt>
      <trkpt lat="43.26755" lon="2.28877">
        <ele>140.5</ele>
        <time>2022-04-17T06:18:48.000Z</time>
      </trkpt>
      <trkpt lat="43.26757" lon="2.28876">
        <ele>140.6</ele>
        <time>2022-04-17T06:18:49.000Z</time>
      </trkpt>
      <trkpt lat="43.26759" lon="2.28874">
        <ele>140.7</ele>
        <time>2022-04-17T06:18:50.000Z</time>
      </trkpt>
      <trkpt lat="43.26761" lon="2.28873">
        <ele>140.8</ele>
        <time>2022-04-17T06:18:51.000Z</time>
      </trkpt>
      <trkpt lat="43.26762" lon="2.28871">
        <ele>140.8</ele>
        <time>2022-04-17T06:18:52.000Z</time>
      </trkpt>
      <trkpt lat="43.26764" lon="2.28869">
        <ele>140.8</ele>
        <time>2022-04-17T06:18:53.000Z</time>
      </trkpt>
      <trkpt lat="43.26765" lon="2.28866">
        <ele>140.8</ele>
        <time>2022-04-17T06:18:54.000Z</time>
      </trkpt>
      <trkpt lat="43.26766" lon="2.28864">
        <ele>140.8</ele>
        <time>2022-04-17T06:18:55.000Z</time>
      </trkpt>
      <trkpt lat="43.26767" lon="2.28862">
        <ele>140.8</ele>
        <time>2022-04-17T06:18:56.000Z</time>
      </trkpt>
      <trkpt lat="43.26768" lon="2.2886">
        <ele>140.7</ele>
        <time>2022-04-17T06:18:57.000Z</time>
      </trkpt>
      <trkpt lat="43.26769" lon="2.28857">
        <ele>140.7</ele>
        <time>2022-04-17T06:18:58.000Z</time>
      </trkpt>
      <trkpt lat="43.2677" lon="2.28855">
        <ele>140.6</ele>
        <time>2022-04-17T06:18:59.000Z</time>
      </trkpt>
      <trkpt lat="43.2677" lon="2.28854">
        <ele>140.5</ele>
        <time>2022-04-17T06:19:00.000Z</time>
      </trkpt>
      <trkpt lat="43.26771" lon="2.28852">
        <ele>140.5</ele>
        <time>2022-04-17T06:19:01.000Z</time>
      </trkpt>
      <trkpt lat="43.26771" lon="2.2885">
        <ele>140.4</ele>
        <time>2022-04-17T06:19:02.000Z</time>
      </trkpt>
      <trkpt lat="43.26772" lon="2.28848">
        <ele>140.3</ele>
        <time>2022-04-17T06:19:03.000Z</time>
      </trkpt>
      <trkpt lat="43.26772" lon="2.28846">
        <ele>140.3</ele>
        <time>2022-04-17T06:19:04.000Z</time>
      </trkpt>
      <trkpt lat="43.26773" lon="2.28846">
        <ele>140.3</ele>
        <time>2022-04-17T06:19:05.000Z</time>
      </trkpt>
      <trkpt lat="43.26773" lon="2.28847">
        <ele>140.4</ele>
        <time>2022-04-17T06:19:06.000Z</time>
      </trkpt>
      <trkpt lat="43.26774" lon="2.28849">
        <ele>140.5</ele>
        <time>2022-04-17T06:19:07.000Z</time>
      </trkpt>
      <trkpt lat="43.26774" lon="2.28851">
        <ele>140.7</ele>
        <time>2022-04-17T06:19:08.000Z</time>
      </trkpt>
      <trkpt lat="43.26773" lon="2.28854">
        <ele>140.8</ele>
        <time>2022-04-17T06:19:09.000Z</time>
      </trkpt>
      <trkpt lat="43.26773" lon="2.28856">
        <ele>140.9</ele>
        <time>2022-04-17T06:19:10.000Z</time>
      </trkpt>
      <trkpt lat="43.26771" lon="2.28859">
        <ele>140.9</ele>
        <time>2022-04-17T06:19:11.000Z</time>
      </trkpt>
      <trkpt lat="43.2677" lon="2.28861">
        <ele>140.9</ele>
        <time>2022-04-17T06:19:12.000Z</time>
      </trkpt>
      <trkpt lat="43.26769" lon="2.28864">
        <ele>141</ele>
        <time>2022-04-17T06:19:13.000Z</time>
      </trkpt>
      <trkpt lat="43.26768" lon="2.28867">
        <ele>141</ele>
        <time>2022-04-17T06:19:14.000Z</time>
      </trkpt>
      <trkpt lat="43.26767" lon="2.28869">
        <ele>141.1</ele>
        <time>2022-04-17T06:19:15.000Z</time>
      </trkpt>
      <trkpt lat="43.26766" lon="2.28872">
        <ele>141.2</ele>
        <time>2022-04-17T06:19:16.000Z</time>
      </trkpt>
      <trkpt lat="43.26765" lon="2.28874">
        <ele>141.2</ele>
        <time>2022-04-17T06:19:17.000Z</time>
      </trkpt>
      <trkpt lat="43.26764" lon="2.28877">
        <ele>141.3</ele>
        <time>2022-04-17T06:19:18.000Z</time>
      </trkpt>
      <trkpt lat="43.26763" lon="2.28879">
        <ele>141.3</ele>
        <time>2022-04-17T06:19:19.000Z</time>
      </trkpt>
      <trkpt lat="43.26762" lon="2.28882">
        <ele>141.4</ele>
        <time>2022-04-17T06:19:20.000Z</time>
      </trkpt>
      <trkpt lat="43.26761" lon="2.28884">
        <ele>141.4</ele>
        <time>2022-04-17T06:19:21.000Z</time>
      </trkpt>
      <trkpt lat="43.2676" lon="2.28887">
        <ele>141.4</ele>
        <time>2022-04-17T06:19:22.000Z</time>
      </trkpt>
      <trkpt lat="43.26759" lon="2.28889">
        <ele>141.4</ele>
        <time>2022-04-17T06:19:23.000Z</time>
      </trkpt>
      <trkpt lat="43.26757" lon="2.28892">
        <ele>141.4</ele>
        <time>2022-04-17T06:19:24.000Z</time>
      </trkpt>
      <trkpt lat="43.26756" lon="2.28894">
        <ele>141.4</ele>
        <time>2022-04-17T06:19:25.000Z</time>
      </trkpt>
      <trkpt lat="43.26754" lon="2.28896">
        <ele>141.4</ele>
        <time>2022-04-17T06:19:26.000Z</time>
      </trkpt>
      <trkpt lat="43.26753" lon="2.28899">
        <ele>141.4</ele>
        <time>2022-04-17T06:19:27.000Z</time>
      </trkpt>
      <trkpt lat="43.26751" lon="2.28901">
        <ele>141.4</ele>
        <time>2022-04-17T06:19:28.000Z</time>
      </trkpt>
      <trkpt lat="43.2675" lon="2.28904">
        <ele>141.4</ele>
        <time>2022-04-17T06:19:29.000Z</time>
      </trkpt>
      <trkpt lat="43.26748" lon="2.28906">
        <ele>141.4</ele>
        <time>2022-04-17T06:19:30.000Z</time>
      </trkpt>
      <trkpt lat="43.26747" lon="2.28908">
        <ele>141.4</ele>
        <time>2022-04-17T06:19:31.000Z</time>
      </trkpt>
      <trkpt lat="43.26745" lon="2.28911">
        <ele>141.4</ele>
        <time>2022-04-17T06:19:32.000Z</time>
      </trkpt>
      <trkpt lat="43.26743" lon="2.28913">
        <ele>141.4</ele>
        <time>2022-04-17T06:19:33.000Z</time>
      </trkpt>
      <trkpt lat="43.26742" lon="2.28916">
        <ele>141.4</ele>
        <time>2022-04-17T06:19:34.000Z</time>
      </trkpt>
      <trkpt lat="43.2674" lon="2.28918">
        <ele>141.3</ele>
        <time>2022-04-17T06:19:35.000Z</time>
      </trkpt>
      <trkpt lat="43.26738" lon="2.28921">
        <ele>141.3</ele>
        <time>2022-04-17T06:19:36.000Z</time>
      </trkpt>
      <trkpt lat="43.26737" lon="2.28923">
        <ele>141.2</ele>
        <time>2022-04-17T06:19:37.000Z</time>
      </trkpt>
      <trkpt lat="43.26735" lon="2.28926">
        <ele>141.2</ele>
        <time>2022-04-17T06:19:38.000Z</time>
      </trkpt>
      <trkpt lat="43.26734" lon="2.28929">
        <ele>141.1</ele>
        <time>2022-04-17T06:19:39.000Z</time>
      </trkpt>
      <trkpt lat="43.26732" lon="2.28931">
        <ele>141.1</ele>
        <time>2022-04-17T06:19:40.000Z</time>
      </trkpt>
      <trkpt lat="43.26731" lon="2.28934">
        <ele>141</ele>
        <time>2022-04-17T06:19:41.000Z</time>
      </trkpt>
      <trkpt lat="43.2673" lon="2.28937">
        <ele>141</ele>
        <time>2022-04-17T06:19:42.000Z</time>
      </trkpt>
      <trkpt lat="43.26728" lon="2.2894">
        <ele>141</ele>
        <time>2022-04-17T06:19:43.000Z</time>
      </trkpt>
      <trkpt lat="43.26727" lon="2.28943">
        <ele>141</ele>
        <time>2022-04-17T06:19:44.000Z</time>
      </trkpt>
      <trkpt lat="43.26726" lon="2.28946">
        <ele>141</ele>
        <time>2022-04-17T06:19:45.000Z</time>
      </trkpt>
      <trkpt lat="43.26725" lon="2.28949">
        <ele>141</ele>
        <time>2022-04-17T06:19:46.000Z</time>
      </trkpt>
      <trkpt lat="43.26725" lon="2.28952">
        <ele>141</ele>
        <time>2022-04-17T06:19:47.000Z</time>
      </trkpt>
      <trkpt lat="43.26724" lon="2.28955">
        <ele>141</ele>
        <time>2022-04-17T06:19:48.000Z</time>
      </trkpt>
      <trkpt lat="43.26723" lon="2.28958">
        <ele>141.1</ele>
        <time>2022-04-17T06:19:49.000Z</time>
      </trkpt>
      <trkpt lat="43.26723" lon="2.28962">
        <ele>141.1</ele>
        <time>2022-04-17T06:19:50.000Z</time>
      </trkpt>
      <trkpt lat="43.26722" lon="2.28965">
        <ele>141.1</ele>
        <time>2022-04-17T06:19:51.000Z</time>
      </trkpt>
      <trkpt lat="43.26722" lon="2.28968">
        <ele>141.2</ele>
        <time>2022-04-17T06:19:52.000Z</time>
      </trkpt>
      <trkpt lat="43.26721" lon="2.28971">
        <ele>141.2</ele>
        <time>2022-04-17T06:19:53.000Z</time>
      </trkpt>
      <trkpt lat="43.26721" lon="2.28975">
        <ele>141.3</ele>
        <time>2022-04-17T06:19:54.000Z</time>
      </trkpt>
      <trkpt lat="43.2672" lon="2.28978">
        <ele>141.3</ele>
        <time>2022-04-17T06:19:55.000Z</time>
      </trkpt>
      <trkpt lat="43.2672" lon="2.28981">
        <ele>141.4</ele>
        <time>2022-04-17T06:19:56.000Z</time>
      </trkpt>
      <trkpt lat="43.2672" lon="2.28984">
        <ele>141.4</ele>
        <time>2022-04-17T06:19:57.000Z</time>
      </trkpt>
      <trkpt lat="43.26719" lon="2.28987">
        <ele>141.5</ele>
        <time>2022-04-17T06:19:58.000Z</time>
      </trkpt>
      <trkpt lat="43.26719" lon="2.28991">
        <ele>141.5</ele>
        <time>2022-04-17T06:19:59.000Z</time>
      </trkpt>
      <trkpt lat="43.26719" lon="2.28994">
        <ele>141.6</ele>
        <time>2022-04-17T06:20:00.000Z</time>
      </trkpt>
      <trkpt lat="43.26718" lon="2.28997">
        <ele>141.7</ele>
        <time>2022-04-17T06:20:01.000Z</time>
      </trkpt>
      <trkpt lat="43.26718" lon="2.29">
        <ele>141.7</ele>
        <time>2022-04-17T06:20:02.000Z</time>
      </trkpt>
      <trkpt lat="43.26718" lon="2.29003">
        <ele>141.8</ele>
        <time>2022-04-17T06:20:03.000Z</time>
      </trkpt>
      <trkpt lat="43.26718" lon="2.29007">
        <ele>141.9</ele>
        <time>2022-04-17T06:20:04.000Z</time>
      </trkpt>
      <trkpt lat="43.26718" lon="2.2901">
        <ele>142</ele>
        <time>2022-04-17T06:20:05.000Z</time>
      </trkpt>
      <trkpt lat="43.26718" lon="2.29013">
        <ele>142.1</ele>
        <time>2022-04-17T06:20:06.000Z</time>
      </trkpt>
      <trkpt lat="43.26717" lon="2.29017">
        <ele>142.2</ele>
        <time>2022-04-17T06:20:07.000Z</time>
      </trkpt>
      <trkpt lat="43.26717" lon="2.2902">
        <ele>142.3</ele>
        <time>2022-04-17T06:20:08.000Z</time>
      </trkpt>
      <trkpt lat="43.26717" lon="2.29023">
        <ele>142.4</ele>
        <time>2022-04-17T06:20:09.000Z</time>
      </trkpt>
      <trkpt lat="43.26717" lon="2.29027">
        <ele>142.5</ele>
        <time>2022-04-17T06:20:10.000Z</time>
      </trkpt>
      <trkpt lat="43.26717" lon="2.2903">
        <ele>142.5</ele>
        <time>2022-04-17T06:20:11.000Z</time>
      </trkpt>
      <trkpt lat="43.26716" lon="2.29033">
        <ele>142.6</ele>
        <time>2022-04-17T06:20:12.000Z</time>
      </trkpt>
      <trkpt lat="43.26716" lon="2.29037">
        <ele>142.7</ele>
        <time>2022-04-17T06:20:13.000Z</time>
      </trkpt>
      <trkpt lat="43.26715" lon="2.2904">
        <ele>142.7</ele>
        <time>2022-04-17T06:20:14.000Z</time>
      </trkpt>
      <trkpt lat="43.26715" lon="2.29043">
        <ele>142.8</ele>
        <time>2022-04-17T06:20:15.000Z</time>
      </trkpt>
      <trkpt lat="43.26714" lon="2.29046">
        <ele>142.8</ele>
        <time>2022-04-17T06:20:16.000Z</time>
      </trkpt>
      <trkpt lat="43.26713" lon="2.29049">
        <ele>142.9</ele>
        <time>2022-04-17T06:20:17.000Z</time>
      </trkpt>
      <trkpt lat="43.26713" lon="2.29053">
        <ele>142.9</ele>
        <time>2022-04-17T06:20:18.000Z</time>
      </trkpt>
      <trkpt lat="43.26712" lon="2.29056">
        <ele>142.9</ele>
        <time>2022-04-17T06:20:19.000Z</time>
      </trkpt>
      <trkpt lat="43.26711" lon="2.29059">
        <ele>143</ele>
        <time>2022-04-17T06:20:20.000Z</time>
      </trkpt>
      <trkpt lat="43.2671" lon="2.29062">
        <ele>143</ele>
        <time>2022-04-17T06:20:21.000Z</time>
      </trkpt>
      <trkpt lat="43.26709" lon="2.29065">
        <ele>143</ele>
        <time>2022-04-17T06:20:22.000Z</time>
      </trkpt>
      <trkpt lat="43.26708" lon="2.29068">
        <ele>143</ele>
        <time>2022-04-17T06:20:23.000Z</time>
      </trkpt>
      <trkpt lat="43.26707" lon="2.29071">
        <ele>143</ele>
        <time>2022-04-17T06:20:24.000Z</time>
      </trkpt>
      <trkpt lat="43.26706" lon="2.29075">
        <ele>143</ele>
        <time>2022-04-17T06:20:25.000Z</time>
      </trkpt>
      <trkpt lat="43.26705" lon="2.29078">
        <ele>143</ele>
        <time>2022-04-17T06:20:26.000Z</time>
      </trkpt>
      <trkpt lat="43.26703" lon="2.29081">
        <ele>143</ele>
        <time>2022-04-17T06:20:27.000Z</time>
      </trkpt>
      <trkpt lat="43.26702" lon="2.29084">
        <ele>143</ele>
        <time>2022-04-17T06:20:28.000Z</time>
      </trkpt>
      <trkpt lat="43.26701" lon="2.29087">
        <ele>143</ele>
        <time>2022-04-17T06:20:29.000Z</time>
      </trkpt>
      <trkpt lat="43.267" lon="2.2909">
        <ele>143</ele>
        <time>2022-04-17T06:20:30.000Z</time>
      </trkpt>
      <trkpt lat="43.26699" lon="2.29093">
        <ele>143</ele>
        <time>2022-04-17T06:20:31.000Z</time>
      </trkpt>
      <trkpt lat="43.26697" lon="2.29097">
        <ele>143</ele>
        <time>2022-04-17T06:20:32.000Z</time>
      </trkpt>
      <trkpt lat="43.26696" lon="2.291">
        <ele>143.1</ele>
        <time>2022-04-17T06:20:33.000Z</time>
      </trkpt>
      <trkpt lat="43.26695" lon="2.29103">
        <ele>143.1</ele>
        <time>2022-04-17T06:20:34.000Z</time>
      </trkpt>
      <trkpt lat="43.26694" lon="2.29106">
        <ele>143.1</ele>
        <time>2022-04-17T06:20:35.000Z</time>
      </trkpt>
      <trkpt lat="43.26693" lon="2.29109">
        <ele>143.1</ele>
        <time>2022-04-17T06:20:36.000Z</time>
      </trkpt>
      <trkpt lat="43.26691" lon="2.29113">
        <ele>143.1</ele>
        <time>2022-04-17T06:20:37.000Z</time>
      </trkpt>
      <trkpt lat="43.2669" lon="2.29116">
        <ele>143.2</ele>
        <time>2022-04-17T06:20:38.000Z</time>
      </trkpt>
      <trkpt lat="43.26689" lon="2.29119">
        <ele>143.2</ele>
        <time>2022-04-17T06:20:39.000Z</time>
      </trkpt>
      <trkpt lat="43.26688" lon="2.29122">
        <ele>143.2</ele>
        <time>2022-04-17T06:20:40.000Z</time>
      </trkpt>
      <trkpt lat="43.26687" lon="2.29126">
        <ele>143.2</ele>
        <time>2022-04-17T06:20:41.000Z</time>
      </trkpt>
      <trkpt lat="43.26686" lon="2.29129">
        <ele>143.2</ele>
        <time>2022-04-17T06:20:42.000Z</time>
      </trkpt>
      <trkpt lat="43.26685" lon="2.29131">
        <ele>143.3</ele>
        <time>2022-04-17T06:20:43.000Z</time>
      </trkpt>
      <trkpt lat="43.26684" lon="2.29134">
        <ele>143.3</ele>
        <time>2022-04-17T06:20:44.000Z</time>
      </trkpt>
      <trkpt lat="43.26683" lon="2.29137">
        <ele>143.3</ele>
        <time>2022-04-17T06:20:45.000Z</time>
      </trkpt>
      <trkpt lat="43.26682" lon="2.29139">
        <ele>143.3</ele>
        <time>2022-04-17T06:20:46.000Z</time>
      </trkpt>
      <trkpt lat="43.26681" lon="2.29142">
        <ele>143.3</ele>
        <time>2022-04-17T06:20:47.000Z</time>
      </trkpt>
      <trkpt lat="43.2668" lon="2.29144">
        <ele>143.3</ele>
        <time>2022-04-17T06:20:48.000Z</time>
      </trkpt>
      <trkpt lat="43.2668" lon="2.29146">
        <ele>143.4</ele>
        <time>2022-04-17T06:20:49.000Z</time>
      </trkpt>
      <trkpt lat="43.26679" lon="2.29149">
        <ele>143.4</ele>
        <time>2022-04-17T06:20:50.000Z</time>
      </trkpt>
      <trkpt lat="43.26678" lon="2.29152">
        <ele>143.4</ele>
        <time>2022-04-17T06:20:51.000Z</time>
      </trkpt>
      <trkpt lat="43.26677" lon="2.29154">
        <ele>143.4</ele>
        <time>2022-04-17T06:20:52.000Z</time>
      </trkpt>
      <trkpt lat="43.26676" lon="2.29157">
        <ele>143.5</ele>
        <time>2022-04-17T06:20:53.000Z</time>
      </trkpt>
      <trkpt lat="43.26675" lon="2.2916">
        <ele>143.5</ele>
        <time>2022-04-17T06:20:54.000Z</time>
      </trkpt>
      <trkpt lat="43.26675" lon="2.29162">
        <ele>143.5</ele>
        <time>2022-04-17T06:20:55.000Z</time>
      </trkpt>
      <trkpt lat="43.26674" lon="2.29165">
        <ele>143.5</ele>
        <time>2022-04-17T06:20:56.000Z</time>
      </trkpt>
      <trkpt lat="43.26673" lon="2.29167">
        <ele>143.6</ele>
        <time>2022-04-17T06:20:57.000Z</time>
      </trkpt>
      <trkpt lat="43.26673" lon="2.29169">
        <ele>143.6</ele>
        <time>2022-04-17T06:20:58.000Z</time>
      </trkpt>
      <trkpt lat="43.26672" lon="2.29171">
        <ele>143.6</ele>
        <time>2022-04-17T06:20:59.000Z</time>
      </trkpt>
      <trkpt lat="43.26672" lon="2.29172">
        <ele>143.7</ele>
        <time>2022-04-17T06:21:00.000Z</time>
      </trkpt>
      <trkpt lat="43.26672" lon="2.29174">
        <ele>143.7</ele>
        <time>2022-04-17T06:21:01.000Z</time>
      </trkpt>
      <trkpt lat="43.26672" lon="2.29175">
        <ele>143.8</ele>
        <time>2022-04-17T06:21:02.000Z</time>
      </trkpt>
      <trkpt lat="43.26673" lon="2.29177">
        <ele>143.9</ele>
        <time>2022-04-17T06:21:03.000Z</time>
      </trkpt>
      <trkpt lat="43.26673" lon="2.29178">
        <ele>144</ele>
        <time>2022-04-17T06:21:04.000Z</time>
      </trkpt>
      <trkpt lat="43.26674" lon="2.2918">
        <ele>144.1</ele>
        <time>2022-04-17T06:21:05.000Z</time>
      </trkpt>
      <trkpt lat="43.26675" lon="2.29181">
        <ele>144.2</ele>
        <time>2022-04-17T06:21:06.000Z</time>
      </trkpt>
      <trkpt lat="43.26677" lon="2.29182">
        <ele>144.4</ele>
        <time>2022-04-17T06:21:07.000Z</time>
      </trkpt>
      <trkpt lat="43.26678" lon="2.29183">
        <ele>144.5</ele>
        <time>2022-04-17T06:21:08.000Z</time>
      </trkpt>
      <trkpt lat="43.26679" lon="2.29184">
        <ele>144.7</ele>
        <time>2022-04-17T06:21:09.000Z</time>
      </trkpt>
      <trkpt lat="43.2668" lon="2.29185">
        <ele>144.8</ele>
        <time>2022-04-17T06:21:10.000Z</time>
      </trkpt>
      <trkpt lat="43.26681" lon="2.29186">
        <ele>144.9</ele>
        <time>2022-04-17T06:21:11.000Z</time>
      </trkpt>
      <trkpt lat="43.26682" lon="2.29187">
        <ele>145</ele>
        <time>2022-04-17T06:21:12.000Z</time>
      </trkpt>
      <trkpt lat="43.26683" lon="2.29188">
        <ele>145.1</ele>
        <time>2022-04-17T06:21:13.000Z</time>
      </trkpt>
      <trkpt lat="43.26685" lon="2.29189">
        <ele>145.3</ele>
        <time>2022-04-17T06:21:14.000Z</time>
      </trkpt>
      <trkpt lat="43.26686" lon="2.2919">
        <ele>145.5</ele>
        <time>2022-04-17T06:21:15.000Z</time>
      </trkpt>
      <trkpt lat="43.26688" lon="2.29191">
        <ele>145.7</ele>
        <time>2022-04-17T06:21:16.000Z</time>
      </trkpt>
      <trkpt lat="43.2669" lon="2.29192">
        <ele>145.9</ele>
        <time>2022-04-17T06:21:17.000Z</time>
      </trkpt>
      <trkpt lat="43.26692" lon="2.29193">
        <ele>146.1</ele>
        <time>2022-04-17T06:21:18.000Z</time>
      </trkpt>
      <trkpt lat="43.26695" lon="2.29194">
        <ele>146.3</ele>
        <time>2022-04-17T06:21:19.000Z</time>
      </trkpt>
      <trkpt lat="43.26696" lon="2.29195">
        <ele>146.5</ele>
        <time>2022-04-17T06:21:20.000Z</time>
      </trkpt>
      <trkpt lat="43.26698" lon="2.29196">
        <ele>146.7</ele>
        <time>2022-04-17T06:21:21.000Z</time>
      </trkpt>
      <trkpt lat="43.26699" lon="2.29196">
        <ele>146.8</ele>
        <time>2022-04-17T06:21:22.000Z</time>
      </trkpt>
      <trkpt lat="43.267" lon="2.29197">
        <ele>146.9</ele>
        <time>2022-04-17T06:21:23.000Z</time>
      </trkpt>
      <trkpt lat="43.26702" lon="2.29198">
        <ele>147.1</ele>
        <time>2022-04-17T06:21:24.000Z</time>
      </trkpt>
      <trkpt lat="43.26703" lon="2.29199">
        <ele>147.2</ele>
        <time>2022-04-17T06:21:25.000Z</time>
      </trkpt>
      <trkpt lat="43.26705" lon="2.29201">
        <ele>147.4</ele>
        <time>2022-04-17T06:21:26.000Z</time>
      </trkpt>
      <trkpt lat="43.26706" lon="2.29202">
        <ele>147.6</ele>
        <time>2022-04-17T06:21:27.000Z</time>
      </trkpt>
      <trkpt lat="43.26708" lon="2.29204">
        <ele>147.8</ele>
        <time>2022-04-17T06:21:28.000Z</time>
      </trkpt>
      <trkpt lat="43.26709" lon="2.29205">
        <ele>148</ele>
        <time>2022-04-17T06:21:29.000Z</time>
      </trkpt>
      <trkpt lat="43.26711" lon="2.29207">
        <ele>148.1</ele>
        <time>2022-04-17T06:21:30.000Z</time>
      </trkpt>
      <trkpt lat="43.26712" lon="2.29208">
        <ele>148.3</ele>
        <time>2022-04-17T06:21:31.000Z</time>
      </trkpt>
      <trkpt lat="43.26713" lon="2.2921">
        <ele>148.5</ele>
        <time>2022-04-17T06:21:32.000Z</time>
      </trkpt>
      <trkpt lat="43.26715" lon="2.29211">
        <ele>148.6</ele>
        <time>2022-04-17T06:21:33.000Z</time>
      </trkpt>
      <trkpt lat="43.26716" lon="2.29213">
        <ele>148.8</ele>
        <time>2022-04-17T06:21:34.000Z</time>
      </trkpt>
      <trkpt lat="43.26717" lon="2.29214">
        <ele>148.9</ele>
        <time>2022-04-17T06:21:35.000Z</time>
      </trkpt>
      <trkpt lat="43.26718" lon="2.29215">
        <ele>149</ele>
        <time>2022-04-17T06:21:36.000Z</time>
      </trkpt>
      <trkpt lat="43.26719" lon="2.29217">
        <ele>149.2</ele>
        <time>2022-04-17T06:21:37.000Z</time>
      </trkpt>
      <trkpt lat="43.26719" lon="2.29218">
        <ele>149.3</ele>
        <time>2022-04-17T06:21:38.000Z</time>
      </trkpt>
      <trkpt lat="43.2672" lon="2.2922">
        <ele>149.4</ele>
        <time>2022-04-17T06:21:39.000Z</time>
      </trkpt>
      <trkpt lat="43.26721" lon="2.29222">
        <ele>149.5</ele>
        <time>2022-04-17T06:21:40.000Z</time>
      </trkpt>
      <trkpt lat="43.26721" lon="2.29224">
        <ele>149.6</ele>
        <time>2022-04-17T06:21:41.000Z</time>
      </trkpt>
      <trkpt lat="43.26722" lon="2.29226">
        <ele>149.8</ele>
        <time>2022-04-17T06:21:42.000Z</time>
      </trkpt>
      <trkpt lat="43.26722" lon="2.29229">
        <ele>149.9</ele>
        <time>2022-04-17T06:21:43.000Z</time>
      </trkpt>
      <trkpt lat="43.26723" lon="2.29232">
        <ele>150</ele>
        <time>2022-04-17T06:21:44.000Z</time>
      </trkpt>
      <trkpt lat="43.26723" lon="2.29235">
        <ele>150.2</ele>
        <time>2022-04-17T06:21:45.000Z</time>
      </trkpt>
      <trkpt lat="43.26724" lon="2.29237">
        <ele>150.3</ele>
        <time>2022-04-17T06:21:46.000Z</time>
      </trkpt>
      <trkpt lat="43.26725" lon="2.2924">
        <ele>150.5</ele>
        <time>2022-04-17T06:21:47.000Z</time>
      </trkpt>
      <trkpt lat="43.26726" lon="2.29242">
        <ele>150.7</ele>
        <time>2022-04-17T06:21:48.000Z</time>
      </trkpt>
      <trkpt lat="43.26727" lon="2.29244">
        <ele>150.8</ele>
        <time>2022-04-17T06:21:49.000Z</time>
      </trkpt>
      <trkpt lat="43.26728" lon="2.29246">
        <ele>151</ele>
        <time>2022-04-17T06:21:50.000Z</time>
      </trkpt>
      <trkpt lat="43.26728" lon="2.29249">
        <ele>151.1</ele>
        <time>2022-04-17T06:21:51.000Z</time>
      </trkpt>
      <trkpt lat="43.26729" lon="2.29251">
        <ele>151.3</ele>
        <time>2022-04-17T06:21:52.000Z</time>
      </trkpt>
      <trkpt lat="43.2673" lon="2.29253">
        <ele>151.4</ele>
        <time>2022-04-17T06:21:53.000Z</time>
      </trkpt>
      <trkpt lat="43.2673" lon="2.29255">
        <ele>151.5</ele>
        <time>2022-04-17T06:21:54.000Z</time>
      </trkpt>
      <trkpt lat="43.2673" lon="2.29257">
        <ele>151.6</ele>
        <time>2022-04-17T06:21:55.000Z</time>
      </trkpt>
      <trkpt lat="43.26731" lon="2.29259">
        <ele>151.6</ele>
        <time>2022-04-17T06:21:56.000Z</time>
      </trkpt>
      <trkpt lat="43.26731" lon="2.2926">
        <ele>151.7</ele>
        <time>2022-04-17T06:21:57.000Z</time>
      </trkpt>
      <trkpt lat="43.26731" lon="2.29262">
        <ele>151.7</ele>
        <time>2022-04-17T06:21:58.000Z</time>
      </trkpt>
      <trkpt lat="43.26731" lon="2.29263">
        <ele>151.8</ele>
        <time>2022-04-17T06:21:59.000Z</time>
      </trkpt>
      <trkpt lat="43.26731" lon="2.29265">
        <ele>151.8</ele>
        <time>2022-04-17T06:22:00.000Z</time>
      </trkpt>
      <trkpt lat="43.26731" lon="2.29266">
        <ele>151.9</ele>
        <time>2022-04-17T06:22:01.000Z</time>
      </trkpt>
      <trkpt lat="43.26731" lon="2.29268">
        <ele>151.9</ele>
        <time>2022-04-17T06:22:02.000Z</time>
      </trkpt>
      <trkpt lat="43.26731" lon="2.2927">
        <ele>152</ele>
        <time>2022-04-17T06:22:03.000Z</time>
      </trkpt>
      <trkpt lat="43.26731" lon="2.29272">
        <ele>152.1</ele>
        <time>2022-04-17T06:22:04.000Z</time>
      </trkpt>
      <trkpt lat="43.26731" lon="2.29274">
        <ele>152.1</ele>
        <time>2022-04-17T06:22:05.000Z</time>
      </trkpt>
      <trkpt lat="43.26731" lon="2.29276">
        <ele>152.2</ele>
        <time>2022-04-17T06:22:06.000Z</time>
      </trkpt>
      <trkpt lat="43.26731" lon="2.29279">
        <ele>152.3</ele>
        <time>2022-04-17T06:22:07.000Z</time>
      </trkpt>
      <trkpt lat="43.26731" lon="2.29281">
        <ele>152.3</ele>
        <time>2022-04-17T06:22:08.000Z</time>
      </trkpt>
      <trkpt lat="43.26731" lon="2.29283">
        <ele>152.4</ele>
        <time>2022-04-17T06:22:09.000Z</time>
      </trkpt>
      <trkpt lat="43.26731" lon="2.29286">
        <ele>152.4</ele>
        <time>2022-04-17T06:22:10.000Z</time>
      </trkpt>
      <trkpt lat="43.2673" lon="2.29288">
        <ele>152.5</ele>
        <time>2022-04-17T06:22:11.000Z</time>
      </trkpt>
      <trkpt lat="43.2673" lon="2.2929">
        <ele>152.5</ele>
        <time>2022-04-17T06:22:12.000Z</time>
      </trkpt>
      <trkpt lat="43.26729" lon="2.29292">
        <ele>152.5</ele>
        <time>2022-04-17T06:22:13.000Z</time>
      </trkpt>
      <trkpt lat="43.26729" lon="2.29294">
        <ele>152.6</ele>
        <time>2022-04-17T06:22:14.000Z</time>
      </trkpt>
      <trkpt lat="43.26728" lon="2.29296">
        <ele>152.6</ele>
        <time>2022-04-17T06:22:15.000Z</time>
      </trkpt>
      <trkpt lat="43.26728" lon="2.29299">
        <ele>152.6</ele>
        <time>2022-04-17T06:22:16.000Z</time>
      </trkpt>
      <trkpt lat="43.26727" lon="2.29301">
        <ele>152.6</ele>
        <time>2022-04-17T06:22:17.000Z</time>
      </trkpt>
      <trkpt lat="43.26727" lon="2.29303">
        <ele>152.7</ele>
        <time>2022-04-17T06:22:18.000Z</time>
      </trkpt>
      <trkpt lat="43.26726" lon="2.29305">
        <ele>152.7</ele>
        <time>2022-04-17T06:22:19.000Z</time>
      </trkpt>
      <trkpt lat="43.26726" lon="2.29308">
        <ele>152.7</ele>
        <time>2022-04-17T06:22:20.000Z</time>
      </trkpt>
      <trkpt lat="43.26725" lon="2.2931">
        <ele>152.8</ele>
        <time>2022-04-17T06:22:21.000Z</time>
      </trkpt>
      <trkpt lat="43.26725" lon="2.29312">
        <ele>152.8</ele>
        <time>2022-04-17T06:22:22.000Z</time>
      </trkpt>
      <trkpt lat="43.26724" lon="2.29315">
        <ele>152.9</ele>
        <time>2022-04-17T06:22:23.000Z</time>
      </trkpt>
      <trkpt lat="43.26724" lon="2.29317">
        <ele>152.9</ele>
        <time>2022-04-17T06:22:24.000Z</time>
      </trkpt>
      <trkpt lat="43.26724" lon="2.2932">
        <ele>153</ele>
        <time>2022-04-17T06:22:25.000Z</time>
      </trkpt>
      <trkpt lat="43.26724" lon="2.29323">
        <ele>153.1</ele>
        <time>2022-04-17T06:22:26.000Z</time>
      </trkpt>
      <trkpt lat="43.26724" lon="2.29325">
        <ele>153.2</ele>
        <time>2022-04-17T06:22:27.000Z</time>
      </trkpt>
      <trkpt lat="43.26724" lon="2.29328">
        <ele>153.2</ele>
        <time>2022-04-17T06:22:28.000Z</time>
      </trkpt>
      <trkpt lat="43.26724" lon="2.29331">
        <ele>153.3</ele>
        <time>2022-04-17T06:22:29.000Z</time>
      </trkpt>
      <trkpt lat="43.26724" lon="2.29334">
        <ele>153.4</ele>
        <time>2022-04-17T06:22:30.000Z</time>
      </trkpt>
      <trkpt lat="43.26724" lon="2.29337">
        <ele>153.5</ele>
        <time>2022-04-17T06:22:31.000Z</time>
      </trkpt>
      <trkpt lat="43.26724" lon="2.29339">
        <ele>153.6</ele>
        <time>2022-04-17T06:22:32.000Z</time>
      </trkpt>
      <trkpt lat="43.26724" lon="2.29342">
        <ele>153.8</ele>
        <time>2022-04-17T06:22:33.000Z</time>
      </trkpt>
      <trkpt lat="43.26724" lon="2.29345">
        <ele>153.9</ele>
        <time>2022-04-17T06:22:34.000Z</time>
      </trkpt>
      <trkpt lat="43.26725" lon="2.29348">
        <ele>154</ele>
        <time>2022-04-17T06:22:35.000Z</time>
      </trkpt>
      <trkpt lat="43.26725" lon="2.29351">
        <ele>154.1</ele>
        <time>2022-04-17T06:22:36.000Z</time>
      </trkpt>
      <trkpt lat="43.26725" lon="2.29354">
        <ele>154.2</ele>
        <time>2022-04-17T06:22:37.000Z</time>
      </trkpt>
      <trkpt lat="43.26726" lon="2.29357">
        <ele>154.4</ele>
        <time>2022-04-17T06:22:38.000Z</time>
      </trkpt>
      <trkpt lat="43.26726" lon="2.29359">
        <ele>154.5</ele>
        <time>2022-04-17T06:22:39.000Z</time>
      </trkpt>
      <trkpt lat="43.26727" lon="2.29362">
        <ele>154.6</ele>
        <time>2022-04-17T06:22:40.000Z</time>
      </trkpt>
      <trkpt lat="43.26727" lon="2.29365">
        <ele>154.8</ele>
        <time>2022-04-17T06:22:41.000Z</time>
      </trkpt>
      <trkpt lat="43.26728" lon="2.29367">
        <ele>154.9</ele>
        <time>2022-04-17T06:22:42.000Z</time>
      </trkpt>
      <trkpt lat="43.26728" lon="2.2937">
        <ele>155</ele>
        <time>2022-04-17T06:22:43.000Z</time>
      </trkpt>
      <trkpt lat="43.26729" lon="2.29373">
        <ele>155.2</ele>
        <time>2022-04-17T06:22:44.000Z</time>
      </trkpt>
      <trkpt lat="43.2673" lon="2.29375">
        <ele>155.3</ele>
        <time>2022-04-17T06:22:45.000Z</time>
      </trkpt>
      <trkpt lat="43.2673" lon="2.29377">
        <ele>155.4</ele>
        <time>2022-04-17T06:22:46.000Z</time>
      </trkpt>
      <trkpt lat="43.26731" lon="2.2938">
        <ele>155.5</ele>
        <time>2022-04-17T06:22:47.000Z</time>
      </trkpt>
      <trkpt lat="43.26732" lon="2.29382">
        <ele>155.7</ele>
        <time>2022-04-17T06:22:48.000Z</time>
      </trkpt>
      <trkpt lat="43.26733" lon="2.29384">
        <ele>155.8</ele>
        <time>2022-04-17T06:22:49.000Z</time>
      </trkpt>
      <trkpt lat="43.26734" lon="2.29386">
        <ele>155.9</ele>
        <time>2022-04-17T06:22:50.000Z</time>
      </trkpt>
      <trkpt lat="43.26735" lon="2.29388">
        <ele>156.1</ele>
        <time>2022-04-17T06:22:51.000Z</time>
      </trkpt>
      <trkpt lat="43.26736" lon="2.2939">
        <ele>156.2</ele>
        <time>2022-04-17T06:22:52.000Z</time>
      </trkpt>
      <trkpt lat="43.26737" lon="2.29392">
        <ele>156.3</ele>
        <time>2022-04-17T06:22:53.000Z</time>
      </trkpt>
      <trkpt lat="43.26738" lon="2.29394">
        <ele>156.5</ele>
        <time>2022-04-17T06:22:54.000Z</time>
      </trkpt>
      <trkpt lat="43.26739" lon="2.29396">
        <ele>156.6</ele>
        <time>2022-04-17T06:22:55.000Z</time>
      </trkpt>
      <trkpt lat="43.2674" lon="2.29399">
        <ele>156.8</ele>
        <time>2022-04-17T06:22:56.000Z</time>
      </trkpt>
      <trkpt lat="43.26741" lon="2.29401">
        <ele>156.9</ele>
        <time>2022-04-17T06:22:57.000Z</time>
      </trkpt>
      <trkpt lat="43.26742" lon="2.29404">
        <ele>157.1</ele>
        <time>2022-04-17T06:22:58.000Z</time>
      </trkpt>
      <trkpt lat="43.26743" lon="2.29407">
        <ele>157.2</ele>
        <time>2022-04-17T06:22:59.000Z</time>
      </trkpt>
      <trkpt lat="43.26744" lon="2.29409">
        <ele>157.4</ele>
        <time>2022-04-17T06:23:00.000Z</time>
      </trkpt>
      <trkpt lat="43.26745" lon="2.29412">
        <ele>157.5</ele>
        <time>2022-04-17T06:23:01.000Z</time>
      </trkpt>
      <trkpt lat="43.26746" lon="2.29414">
        <ele>157.7</ele>
        <time>2022-04-17T06:23:02.000Z</time>
      </trkpt>
      <trkpt lat="43.26746" lon="2.29417">
        <ele>157.8</ele>
        <time>2022-04-17T06:23:03.000Z</time>
      </trkpt>
      <trkpt lat="43.26747" lon="2.2942">
        <ele>157.7</ele>
        <time>2022-04-17T06:23:04.000Z</time>
      </trkpt>
      <trkpt lat="43.26747" lon="2.29422">
        <ele>157.6</ele>
        <time>2022-04-17T06:23:05.000Z</time>
      </trkpt>
      <trkpt lat="43.26748" lon="2.29425">
        <ele>157.5</ele>
        <time>2022-04-17T06:23:06.000Z</time>
      </trkpt>
      <trkpt lat="43.26749" lon="2.29428">
        <ele>157.4</ele>
        <time>2022-04-17T06:23:07.000Z</time>
      </trkpt>
      <trkpt lat="43.2675" lon="2.29431">
        <ele>157.3</ele>
        <time>2022-04-17T06:23:08.000Z</time>
      </trkpt>
      <trkpt lat="43.26752" lon="2.29435">
        <ele>157.2</ele>
        <time>2022-04-17T06:23:09.000Z</time>
      </trkpt>
      <trkpt lat="43.26753" lon="2.29439">
        <ele>157.1</ele>
        <time>2022-04-17T06:23:10.000Z</time>
      </trkpt>
      <trkpt lat="43.26755" lon="2.29442">
        <ele>157.1</ele>
        <time>2022-04-17T06:23:11.000Z</time>
      </trkpt>
      <trkpt lat="43.26756" lon="2.29445">
        <ele>157</ele>
        <time>2022-04-17T06:23:12.000Z</time>
      </trkpt>
      <trkpt lat="43.26757" lon="2.29447">
        <ele>157</ele>
        <time>2022-04-17T06:23:13.000Z</time>
      </trkpt>
      <trkpt lat="43.26759" lon="2.29449">
        <ele>157</ele>
        <time>2022-04-17T06:23:14.000Z</time>
      </trkpt>
      <trkpt lat="43.2676" lon="2.29451">
        <ele>157</ele>
        <time>2022-04-17T06:23:15.000Z</time>
      </trkpt>
      <trkpt lat="43.26761" lon="2.29453">
        <ele>157</ele>
        <time>2022-04-17T06:23:16.000Z</time>
      </trkpt>
      <trkpt lat="43.26762" lon="2.29455">
        <ele>156.9</ele>
        <time>2022-04-17T06:23:17.000Z</time>
      </trkpt>
      <trkpt lat="43.26763" lon="2.29456">
        <ele>156.9</ele>
        <time>2022-04-17T06:23:18.000Z</time>
      </trkpt>
      <trkpt lat="43.26764" lon="2.29458">
        <ele>156.9</ele>
        <time>2022-04-17T06:23:19.000Z</time>
      </trkpt>
      <trkpt lat="43.26765" lon="2.2946">
        <ele>156.9</ele>
        <time>2022-04-17T06:23:20.000Z</time>
      </trkpt>
      <trkpt lat="43.26766" lon="2.29461">
        <ele>156.9</ele>
        <time>2022-04-17T06:23:21.000Z</time>
      </trkpt>
      <trkpt lat="43.26768" lon="2.29463">
        <ele>157</ele>
        <time>2022-04-17T06:23:22.000Z</time>
      </trkpt>
      <trkpt lat="43.2677" lon="2.29465">
        <ele>157</ele>
        <time>2022-04-17T06:23:23.000Z</time>
      </trkpt>
      <trkpt lat="43.26772" lon="2.29467">
        <ele>157.1</ele>
        <time>2022-04-17T06:23:24.000Z</time>
      </trkpt>
      <trkpt lat="43.26774" lon="2.29469">
        <ele>157.2</ele>
        <time>2022-04-17T06:23:25.000Z</time>
      </trkpt>
      <trkpt lat="43.26776" lon="2.29471">
        <ele>157.2</ele>
        <time>2022-04-17T06:23:26.000Z</time>
      </trkpt>
      <trkpt lat="43.26778" lon="2.29473">
        <ele>157.2</ele>
        <time>2022-04-17T06:23:27.000Z</time>
      </trkpt>
      <trkpt lat="43.2678" lon="2.29475">
        <ele>157.2</ele>
        <time>2022-04-17T06:23:28.000Z</time>
      </trkpt>
      <trkpt lat="43.26781" lon="2.29478">
        <ele>157.2</ele>
        <time>2022-04-17T06:23:29.000Z</time>
      </trkpt>
      <trkpt lat="43.26782" lon="2.2948">
        <ele>157.2</ele>
        <time>2022-04-17T06:23:30.000Z</time>
      </trkpt>
      <trkpt lat="43.26782" lon="2.29482">
        <ele>157.1</ele>
        <time>2022-04-17T06:23:31.000Z</time>
      </trkpt>
      <trkpt lat="43.26783" lon="2.29485">
        <ele>157</ele>
        <time>2022-04-17T06:23:32.000Z</time>
      </trkpt>
      <trkpt lat="43.26784" lon="2.29487">
        <ele>157</ele>
        <time>2022-04-17T06:23:33.000Z</time>
      </trkpt>
      <trkpt lat="43.26784" lon="2.29488">
        <ele>157</ele>
        <time>2022-04-17T06:23:34.000Z</time>
      </trkpt>
      <trkpt lat="43.26785" lon="2.2949">
        <ele>156.9</ele>
        <time>2022-04-17T06:23:35.000Z</time>
      </trkpt>
      <trkpt lat="43.26785" lon="2.29491">
        <ele>156.9</ele>
        <time>2022-04-17T06:23:36.000Z</time>
      </trkpt>
      <trkpt lat="43.26786" lon="2.29491">
        <ele>157</ele>
        <time>2022-04-17T06:23:37.000Z</time>
      </trkpt>
      <trkpt lat="43.26787" lon="2.29492">
        <ele>157</ele>
        <time>2022-04-17T06:23:38.000Z</time>
      </trkpt>
      <trkpt lat="43.26788" lon="2.29492">
        <ele>157.1</ele>
        <time>2022-04-17T06:23:39.000Z</time>
      </trkpt>
      <trkpt lat="43.26789" lon="2.29492">
        <ele>157.1</ele>
        <time>2022-04-17T06:23:40.000Z</time>
      </trkpt>
      <trkpt lat="43.2679" lon="2.29492">
        <ele>157.2</ele>
        <time>2022-04-17T06:23:41.000Z</time>
      </trkpt>
      <trkpt lat="43.26792" lon="2.29492">
        <ele>157.3</ele>
        <time>2022-04-17T06:23:42.000Z</time>
      </trkpt>
      <trkpt lat="43.26794" lon="2.29492">
        <ele>157.5</ele>
        <time>2022-04-17T06:23:43.000Z</time>
      </trkpt>
      <trkpt lat="43.26796" lon="2.29492">
        <ele>157.6</ele>
        <time>2022-04-17T06:23:44.000Z</time>
      </trkpt>
      <trkpt lat="43.26798" lon="2.29492">
        <ele>157.7</ele>
        <time>2022-04-17T06:23:45.000Z</time>
      </trkpt>
      <trkpt lat="43.268" lon="2.29493">
        <ele>157.9</ele>
        <time>2022-04-17T06:23:46.000Z</time>
      </trkpt>
      <trkpt lat="43.26802" lon="2.29493">
        <ele>158</ele>
        <time>2022-04-17T06:23:47.000Z</time>
      </trkpt>
      <trkpt lat="43.26804" lon="2.29493">
        <ele>158.2</ele>
        <time>2022-04-17T06:23:48.000Z</time>
      </trkpt>
      <trkpt lat="43.26806" lon="2.29494">
        <ele>158.3</ele>
        <time>2022-04-17T06:23:49.000Z</time>
      </trkpt>
      <trkpt lat="43.26808" lon="2.29494">
        <ele>158.4</ele>
        <time>2022-04-17T06:23:50.000Z</time>
      </trkpt>
      <trkpt lat="43.26811" lon="2.29495">
        <ele>158.6</ele>
        <time>2022-04-17T06:23:51.000Z</time>
      </trkpt>
      <trkpt lat="43.26813" lon="2.29496">
        <ele>158.7</ele>
        <time>2022-04-17T06:23:52.000Z</time>
      </trkpt>
      <trkpt lat="43.26814" lon="2.29497">
        <ele>158.8</ele>
        <time>2022-04-17T06:23:53.000Z</time>
      </trkpt>
      <trkpt lat="43.26816" lon="2.29498">
        <ele>158.8</ele>
        <time>2022-04-17T06:23:54.000Z</time>
      </trkpt>
      <trkpt lat="43.26818" lon="2.295">
        <ele>158.9</ele>
        <time>2022-04-17T06:23:55.000Z</time>
      </trkpt>
      <trkpt lat="43.26819" lon="2.29502">
        <ele>158.9</ele>
        <time>2022-04-17T06:23:56.000Z</time>
      </trkpt>
      <trkpt lat="43.26821" lon="2.29504">
        <ele>158.9</ele>
        <time>2022-04-17T06:23:57.000Z</time>
      </trkpt>
      <trkpt lat="43.26822" lon="2.29506">
        <ele>159</ele>
        <time>2022-04-17T06:23:58.000Z</time>
      </trkpt>
      <trkpt lat="43.26823" lon="2.29508">
        <ele>158.9</ele>
        <time>2022-04-17T06:23:59.000Z</time>
      </trkpt>
      <trkpt lat="43.26824" lon="2.2951">
        <ele>158.9</ele>
        <time>2022-04-17T06:24:00.000Z</time>
      </trkpt>
      <trkpt lat="43.26824" lon="2.29513">
        <ele>158.9</ele>
        <time>2022-04-17T06:24:01.000Z</time>
      </trkpt>
      <trkpt lat="43.26825" lon="2.29515">
        <ele>158.8</ele>
        <time>2022-04-17T06:24:02.000Z</time>
      </trkpt>
      <trkpt lat="43.26826" lon="2.29518">
        <ele>158.8</ele>
        <time>2022-04-17T06:24:03.000Z</time>
      </trkpt>
      <trkpt lat="43.26826" lon="2.29521">
        <ele>158.7</ele>
        <time>2022-04-17T06:24:04.000Z</time>
      </trkpt>
      <trkpt lat="43.26826" lon="2.29523">
        <ele>158.6</ele>
        <time>2022-04-17T06:24:05.000Z</time>
      </trkpt>
      <trkpt lat="43.26826" lon="2.29526">
        <ele>158.5</ele>
        <time>2022-04-17T06:24:06.000Z</time>
      </trkpt>
      <trkpt lat="43.26826" lon="2.29529">
        <ele>158.4</ele>
        <time>2022-04-17T06:24:07.000Z</time>
      </trkpt>
      <trkpt lat="43.26826" lon="2.29532">
        <ele>158.3</ele>
        <time>2022-04-17T06:24:08.000Z</time>
      </trkpt>
      <trkpt lat="43.26826" lon="2.29535">
        <ele>158.2</ele>
        <time>2022-04-17T06:24:09.000Z</time>
      </trkpt>
      <trkpt lat="43.26826" lon="2.29538">
        <ele>158.1</ele>
        <time>2022-04-17T06:24:10.000Z</time>
      </trkpt>
      <trkpt lat="43.26826" lon="2.29541">
        <ele>157.9</ele>
        <time>2022-04-17T06:24:11.000Z</time>
      </trkpt>
      <trkpt lat="43.26825" lon="2.29544">
        <ele>157.8</ele>
        <time>2022-04-17T06:24:12.000Z</time>
      </trkpt>
      <trkpt lat="43.26825" lon="2.29547">
        <ele>157.6</ele>
        <time>2022-04-17T06:24:13.000Z</time>
      </trkpt>
      <trkpt lat="43.26824" lon="2.2955">
        <ele>157.4</ele>
        <time>2022-04-17T06:24:14.000Z</time>
      </trkpt>
      <trkpt lat="43.26823" lon="2.29553">
        <ele>157.3</ele>
        <time>2022-04-17T06:24:15.000Z</time>
      </trkpt>
      <trkpt lat="43.26822" lon="2.29556">
        <ele>157.1</ele>
        <time>2022-04-17T06:24:16.000Z</time>
      </trkpt>
      <trkpt lat="43.26821" lon="2.29559">
        <ele>156.9</ele>
        <time>2022-04-17T06:24:17.000Z</time>
      </trkpt>
      <trkpt lat="43.2682" lon="2.29562">
        <ele>156.7</ele>
        <time>2022-04-17T06:24:18.000Z</time>
      </trkpt>
      <trkpt lat="43.26819" lon="2.29565">
        <ele>156.5</ele>
        <time>2022-04-17T06:24:19.000Z</time>
      </trkpt>
      <trkpt lat="43.26818" lon="2.29568">
        <ele>156.3</ele>
        <time>2022-04-17T06:24:20.000Z</time>
      </trkpt>
      <trkpt lat="43.26817" lon="2.2957">
        <ele>156.1</ele>
        <time>2022-04-17T06:24:21.000Z</time>
      </trkpt>
      <trkpt lat="43.26816" lon="2.29573">
        <ele>155.9</ele>
        <time>2022-04-17T06:24:22.000Z</time>
      </trkpt>
      <trkpt lat="43.26815" lon="2.29576">
        <ele>155.7</ele>
        <time>2022-04-17T06:24:23.000Z</time>
      </trkpt>
      <trkpt lat="43.26813" lon="2.29578">
        <ele>155.5</ele>
        <time>2022-04-17T06:24:24.000Z</time>
      </trkpt>
      <trkpt lat="43.26812" lon="2.29581">
        <ele>155.3</ele>
        <time>2022-04-17T06:24:25.000Z</time>
      </trkpt>
      <trkpt lat="43.26811" lon="2.29584">
        <ele>155.1</ele>
        <time>2022-04-17T06:24:26.000Z</time>
      </trkpt>
      <trkpt lat="43.2681" lon="2.29587">
        <ele>154.8</ele>
        <time>2022-04-17T06:24:27.000Z</time>
      </trkpt>
      <trkpt lat="43.26808" lon="2.2959">
        <ele>154.6</ele>
        <time>2022-04-17T06:24:28.000Z</time>
      </trkpt>
      <trkpt lat="43.26807" lon="2.29592">
        <ele>154.3</ele>
        <time>2022-04-17T06:24:29.000Z</time>
      </trkpt>
      <trkpt lat="43.26806" lon="2.29595">
        <ele>154.1</ele>
        <time>2022-04-17T06:24:30.000Z</time>
      </trkpt>
      <trkpt lat="43.26805" lon="2.29598">
        <ele>153.9</ele>
        <time>2022-04-17T06:24:31.000Z</time>
      </trkpt>
      <trkpt lat="43.26804" lon="2.29601">
        <ele>153.6</ele>
        <time>2022-04-17T06:24:32.000Z</time>
      </trkpt>
      <trkpt lat="43.26802" lon="2.29604">
        <ele>153.3</ele>
        <time>2022-04-17T06:24:33.000Z</time>
      </trkpt>
      <trkpt lat="43.26801" lon="2.29607">
        <ele>153.1</ele>
        <time>2022-04-17T06:24:34.000Z</time>
      </trkpt>
      <trkpt lat="43.26799" lon="2.29609">
        <ele>152.8</ele>
        <time>2022-04-17T06:24:35.000Z</time>
      </trkpt>
      <trkpt lat="43.26798" lon="2.29612">
        <ele>152.6</ele>
        <time>2022-04-17T06:24:36.000Z</time>
      </trkpt>
      <trkpt lat="43.26796" lon="2.29615">
        <ele>152.3</ele>
        <time>2022-04-17T06:24:37.000Z</time>
      </trkpt>
      <trkpt lat="43.26794" lon="2.29617">
        <ele>152.1</ele>
        <time>2022-04-17T06:24:38.000Z</time>
      </trkpt>
      <trkpt lat="43.26793" lon="2.2962">
        <ele>151.9</ele>
        <time>2022-04-17T06:24:39.000Z</time>
      </trkpt>
      <trkpt lat="43.26792" lon="2.29622">
        <ele>151.7</ele>
        <time>2022-04-17T06:24:40.000Z</time>
      </trkpt>
      <trkpt lat="43.26791" lon="2.29624">
        <ele>151.5</ele>
        <time>2022-04-17T06:24:41.000Z</time>
      </trkpt>
      <trkpt lat="43.2679" lon="2.29626">
        <ele>151.3</ele>
        <time>2022-04-17T06:24:42.000Z</time>
      </trkpt>
      <trkpt lat="43.2679" lon="2.29627">
        <ele>151.2</ele>
        <time>2022-04-17T06:24:43.000Z</time>
      </trkpt>
      <trkpt lat="43.26789" lon="2.29628">
        <ele>151.2</ele>
        <time>2022-04-17T06:24:44.000Z</time>
      </trkpt>
      <trkpt lat="43.26789" lon="2.29628">
        <ele>151.2</ele>
        <time>2022-04-17T06:24:45.000Z</time>
      </trkpt>
      <trkpt lat="43.26789" lon="2.29629">
        <ele>151.2</ele>
        <time>2022-04-17T06:24:46.000Z</time>
      </trkpt>
      <trkpt lat="43.2679" lon="2.29629">
        <ele>151.1</ele>
        <time>2022-04-17T06:24:47.000Z</time>
      </trkpt>
      <trkpt lat="43.2679" lon="2.2963">
        <ele>151.1</ele>
        <time>2022-04-17T06:24:48.000Z</time>
      </trkpt>
      <trkpt lat="43.2679" lon="2.29631">
        <ele>151.1</ele>
        <time>2022-04-17T06:24:49.000Z</time>
      </trkpt>
      <trkpt lat="43.26791" lon="2.29632">
        <ele>151.1</ele>
        <time>2022-04-17T06:24:50.000Z</time>
      </trkpt>
      <trkpt lat="43.26793" lon="2.29631">
        <ele>151.3</ele>
        <time>2022-04-17T06:24:51.000Z</time>
      </trkpt>
      <trkpt lat="43.26794" lon="2.2963">
        <ele>151.4</ele>
        <time>2022-04-17T06:24:52.000Z</time>
      </trkpt>
      <trkpt lat="43.26796" lon="2.29629">
        <ele>151.6</ele>
        <time>2022-04-17T06:24:53.000Z</time>
      </trkpt>
      <trkpt lat="43.26798" lon="2.29627">
        <ele>151.8</ele>
        <time>2022-04-17T06:24:54.000Z</time>
      </trkpt>
      <trkpt lat="43.268" lon="2.29626">
        <ele>152</ele>
        <time>2022-04-17T06:24:55.000Z</time>
      </trkpt>
      <trkpt lat="43.26802" lon="2.29625">
        <ele>152.2</ele>
        <time>2022-04-17T06:24:56.000Z</time>
      </trkpt>
      <trkpt lat="43.26803" lon="2.29623">
        <ele>152.4</ele>
        <time>2022-04-17T06:24:57.000Z</time>
      </trkpt>
      <trkpt lat="43.26805" lon="2.29622">
        <ele>152.6</ele>
        <time>2022-04-17T06:24:58.000Z</time>
      </trkpt>
      <trkpt lat="43.26807" lon="2.29621">
        <ele>152.8</ele>
        <time>2022-04-17T06:24:59.000Z</time>
      </trkpt>
      <trkpt lat="43.26809" lon="2.2962">
        <ele>153</ele>
        <time>2022-04-17T06:25:00.000Z</time>
      </trkpt>
      <trkpt lat="43.26811" lon="2.29619">
        <ele>153.2</ele>
        <time>2022-04-17T06:25:01.000Z</time>
      </trkpt>
      <trkpt lat="43.26813" lon="2.29618">
        <ele>153.4</ele>
        <time>2022-04-17T06:25:02.000Z</time>
      </trkpt>
      <trkpt lat="43.26815" lon="2.29618">
        <ele>153.6</ele>
        <time>2022-04-17T06:25:03.000Z</time>
      </trkpt>
      <trkpt lat="43.26817" lon="2.29617">
        <ele>153.8</ele>
        <time>2022-04-17T06:25:04.000Z</time>
      </trkpt>
      <trkpt lat="43.26819" lon="2.29615">
        <ele>154</ele>
        <time>2022-04-17T06:25:05.000Z</time>
      </trkpt>
      <trkpt lat="43.26821" lon="2.29614">
        <ele>154.2</ele>
        <time>2022-04-17T06:25:06.000Z</time>
      </trkpt>
      <trkpt lat="43.26823" lon="2.29613">
        <ele>154.4</ele>
        <time>2022-04-17T06:25:07.000Z</time>
      </trkpt>
      <trkpt lat="43.26825" lon="2.29611">
        <ele>154.7</ele>
        <time>2022-04-17T06:25:08.000Z</time>
      </trkpt>
      <trkpt lat="43.26826" lon="2.29609">
        <ele>154.9</ele>
        <time>2022-04-17T06:25:09.000Z</time>
      </trkpt>
      <trkpt lat="43.26828" lon="2.29607">
        <ele>155.2</ele>
        <time>2022-04-17T06:25:10.000Z</time>
      </trkpt>
      <trkpt lat="43.2683" lon="2.29605">
        <ele>155.4</ele>
        <time>2022-04-17T06:25:11.000Z</time>
      </trkpt>
      <trkpt lat="43.26832" lon="2.29604">
        <ele>155.6</ele>
        <time>2022-04-17T06:25:12.000Z</time>
      </trkpt>
      <trkpt lat="43.26834" lon="2.29603">
        <ele>155.8</ele>
        <time>2022-04-17T06:25:13.000Z</time>
      </trkpt>
      <trkpt lat="43.26835" lon="2.29602">
        <ele>156</ele>
        <time>2022-04-17T06:25:14.000Z</time>
      </trkpt>
      <trkpt lat="43.26837" lon="2.29601">
        <ele>156.2</ele>
        <time>2022-04-17T06:25:15.000Z</time>
      </trkpt>
      <trkpt lat="43.26839" lon="2.29601">
        <ele>156.3</ele>
        <time>2022-04-17T06:25:16.000Z</time>
      </trkpt>
      <trkpt lat="43.26841" lon="2.29601">
        <ele>156.4</ele>
        <time>2022-04-17T06:25:17.000Z</time>
      </trkpt>
      <trkpt lat="43.26842" lon="2.29601">
        <ele>156.5</ele>
        <time>2022-04-17T06:25:18.000Z</time>
      </trkpt>
      <trkpt lat="43.26844" lon="2.29602">
        <ele>156.6</ele>
        <time>2022-04-17T06:25:19.000Z</time>
      </trkpt>
      <trkpt lat="43.26846" lon="2.29603">
        <ele>156.6</ele>
        <time>2022-04-17T06:25:20.000Z</time>
      </trkpt>
      <trkpt lat="43.26847" lon="2.29604">
        <ele>156.7</ele>
        <time>2022-04-17T06:25:21.000Z</time>
      </trkpt>
      <trkpt lat="43.26849" lon="2.29605">
        <ele>156.7</ele>
        <time>2022-04-17T06:25:22.000Z</time>
      </trkpt>
      <trkpt lat="43.26851" lon="2.29606">
        <ele>156.8</ele>
        <time>2022-04-17T06:25:23.000Z</time>
      </trkpt>
      <trkpt lat="43.26853" lon="2.29607">
        <ele>156.9</ele>
        <time>2022-04-17T06:25:24.000Z</time>
      </trkpt>
      <trkpt lat="43.26854" lon="2.29608">
        <ele>156.9</ele>
        <time>2022-04-17T06:25:25.000Z</time>
      </trkpt>
      <trkpt lat="43.26856" lon="2.29608">
        <ele>157.1</ele>
        <time>2022-04-17T06:25:26.000Z</time>
      </trkpt>
      <trkpt lat="43.26858" lon="2.29608">
        <ele>157.2</ele>
        <time>2022-04-17T06:25:27.000Z</time>
      </trkpt>
      <trkpt lat="43.2686" lon="2.29609">
        <ele>157.3</ele>
        <time>2022-04-17T06:25:28.000Z</time>
      </trkpt>
      <trkpt lat="43.26863" lon="2.29609">
        <ele>157.5</ele>
        <time>2022-04-17T06:25:29.000Z</time>
      </trkpt>
      <trkpt lat="43.26865" lon="2.29608">
        <ele>157.6</ele>
        <time>2022-04-17T06:25:30.000Z</time>
      </trkpt>
      <trkpt lat="43.26867" lon="2.29608">
        <ele>157.8</ele>
        <time>2022-04-17T06:25:31.000Z</time>
      </trkpt>
      <trkpt lat="43.26869" lon="2.29608">
        <ele>157.9</ele>
        <time>2022-04-17T06:25:32.000Z</time>
      </trkpt>
      <trkpt lat="43.26872" lon="2.29608">
        <ele>158.1</ele>
        <time>2022-04-17T06:25:33.000Z</time>
      </trkpt>
      <trkpt lat="43.26874" lon="2.29608">
        <ele>158.2</ele>
        <time>2022-04-17T06:25:34.000Z</time>
      </trkpt>
      <trkpt lat="43.26876" lon="2.29608">
        <ele>158.4</ele>
        <time>2022-04-17T06:25:35.000Z</time>
      </trkpt>
      <trkpt lat="43.26878" lon="2.29608">
        <ele>158.5</ele>
        <time>2022-04-17T06:25:36.000Z</time>
      </trkpt>
      <trkpt lat="43.2688" lon="2.29608">
        <ele>158.6</ele>
        <time>2022-04-17T06:25:37.000Z</time>
      </trkpt>
      <trkpt lat="43.26882" lon="2.29609">
        <ele>158.8</ele>
        <time>2022-04-17T06:25:38.000Z</time>
      </trkpt>
      <trkpt lat="43.26885" lon="2.2961">
        <ele>158.9</ele>
        <time>2022-04-17T06:25:39.000Z</time>
      </trkpt>
      <trkpt lat="43.26887" lon="2.29611">
        <ele>159</ele>
        <time>2022-04-17T06:25:40.000Z</time>
      </trkpt>
      <trkpt lat="43.26888" lon="2.29612">
        <ele>159</ele>
        <time>2022-04-17T06:25:41.000Z</time>
      </trkpt>
      <trkpt lat="43.2689" lon="2.29613">
        <ele>159.1</ele>
        <time>2022-04-17T06:25:42.000Z</time>
      </trkpt>
      <trkpt lat="43.26891" lon="2.29613">
        <ele>159.1</ele>
        <time>2022-04-17T06:25:43.000Z</time>
      </trkpt>
      <trkpt lat="43.26892" lon="2.29614">
        <ele>159.2</ele>
        <time>2022-04-17T06:25:44.000Z</time>
      </trkpt>
      <trkpt lat="43.26893" lon="2.29615">
        <ele>159.2</ele>
        <time>2022-04-17T06:25:45.000Z</time>
      </trkpt>
      <trkpt lat="43.26894" lon="2.29616">
        <ele>159.2</ele>
        <time>2022-04-17T06:25:46.000Z</time>
      </trkpt>
      <trkpt lat="43.26895" lon="2.29616">
        <ele>159.3</ele>
        <time>2022-04-17T06:25:47.000Z</time>
      </trkpt>
      <trkpt lat="43.26896" lon="2.29617">
        <ele>159.4</ele>
        <time>2022-04-17T06:25:48.000Z</time>
      </trkpt>
      <trkpt lat="43.26897" lon="2.29617">
        <ele>159.4</ele>
        <time>2022-04-17T06:25:49.000Z</time>
      </trkpt>
      <trkpt lat="43.26899" lon="2.29618">
        <ele>159.5</ele>
        <time>2022-04-17T06:25:50.000Z</time>
      </trkpt>
      <trkpt lat="43.269" lon="2.29619">
        <ele>159.5</ele>
        <time>2022-04-17T06:25:51.000Z</time>
      </trkpt>
      <trkpt lat="43.269" lon="2.2962">
        <ele>159.5</ele>
        <time>2022-04-17T06:25:52.000Z</time>
      </trkpt>
      <trkpt lat="43.26901" lon="2.29621">
        <ele>159.5</ele>
        <time>2022-04-17T06:25:53.000Z</time>
      </trkpt>
      <trkpt lat="43.26901" lon="2.29623">
        <ele>159.5</ele>
        <time>2022-04-17T06:25:54.000Z</time>
      </trkpt>
      <trkpt lat="43.26902" lon="2.29624">
        <ele>159.5</ele>
        <time>2022-04-17T06:25:55.000Z</time>
      </trkpt>
      <trkpt lat="43.26902" lon="2.29625">
        <ele>159.4</ele>
        <time>2022-04-17T06:25:56.000Z</time>
      </trkpt>
      <trkpt lat="43.26902" lon="2.29627">
        <ele>159.4</ele>
        <time>2022-04-17T06:25:57.000Z</time>
      </trkpt>
      <trkpt lat="43.26902" lon="2.29628">
        <ele>159.3</ele>
        <time>2022-04-17T06:25:58.000Z</time>
      </trkpt>
      <trkpt lat="43.26901" lon="2.29629">
        <ele>159.2</ele>
        <time>2022-04-17T06:25:59.000Z</time>
      </trkpt>
      <trkpt lat="43.26901" lon="2.2963">
        <ele>159.2</ele>
        <time>2022-04-17T06:26:00.000Z</time>
      </trkpt>
      <trkpt lat="43.26901" lon="2.29632">
        <ele>159.1</ele>
        <time>2022-04-17T06:26:01.000Z</time>
      </trkpt>
      <trkpt lat="43.269" lon="2.29632">
        <ele>159</ele>
        <time>2022-04-17T06:26:02.000Z</time>
      </trkpt>
      <trkpt lat="43.269" lon="2.29633">
        <ele>159</ele>
        <time>2022-04-17T06:26:03.000Z</time>
      </trkpt>
      <trkpt lat="43.269" lon="2.29634">
        <ele>158.9</ele>
        <time>2022-04-17T06:26:04.000Z</time>
      </trkpt>
      <trkpt lat="43.269" lon="2.29635">
        <ele>158.9</ele>
        <time>2022-04-17T06:26:05.000Z</time>
      </trkpt>
      <trkpt lat="43.269" lon="2.29635">
        <ele>158.9</ele>
        <time>2022-04-17T06:26:06.000Z</time>
      </trkpt>
      <trkpt lat="43.26899" lon="2.29635">
        <ele>158.8</ele>
        <time>2022-04-17T06:26:07.000Z</time>
      </trkpt>
      <trkpt lat="43.26899" lon="2.29635">
        <ele>158.8</ele>
        <time>2022-04-17T06:26:08.000Z</time>
      </trkpt>
      <trkpt lat="43.26899" lon="2.29636">
        <ele>158.8</ele>
        <time>2022-04-17T06:26:09.000Z</time>
      </trkpt>
      <trkpt lat="43.26899" lon="2.29636">
        <ele>158.8</ele>
        <time>2022-04-17T06:26:10.000Z</time>
      </trkpt>
      <trkpt lat="43.26898" lon="2.29636">
        <ele>158.7</ele>
        <time>2022-04-17T06:26:11.000Z</time>
      </trkpt>
      <trkpt lat="43.26898" lon="2.29637">
        <ele>158.7</ele>
        <time>2022-04-17T06:26:12.000Z</time>
      </trkpt>
      <trkpt lat="43.26897" lon="2.29637">
        <ele>158.6</ele>
        <time>2022-04-17T06:26:13.000Z</time>
      </trkpt>
      <trkpt lat="43.26896" lon="2.29637">
        <ele>158.5</ele>
        <time>2022-04-17T06:26:14.000Z</time>
      </trkpt>
      <trkpt lat="43.26895" lon="2.29637">
        <ele>158.4</ele>
        <time>2022-04-17T06:26:15.000Z</time>
      </trkpt>
      <trkpt lat="43.26894" lon="2.29637">
        <ele>158.4</ele>
        <time>2022-04-17T06:26:16.000Z</time>
      </trkpt>
      <trkpt lat="43.26894" lon="2.29638">
        <ele>158.3</ele>
        <time>2022-04-17T06:26:17.000Z</time>
      </trkpt>
      <trkpt lat="43.26894" lon="2.29638">
        <ele>158.3</ele>
        <time>2022-04-17T06:26:18.000Z</time>
      </trkpt>
      <trkpt lat="43.26894" lon="2.29638">
        <ele>158.3</ele>
        <time>2022-04-17T06:26:19.000Z</time>
      </trkpt>
      <trkpt lat="43.26893" lon="2.29639">
        <ele>158.2</ele>
        <time>2022-04-17T06:26:20.000Z</time>
      </trkpt>
      <trkpt lat="43.26893" lon="2.2964">
        <ele>158.2</ele>
        <time>2022-04-17T06:26:21.000Z</time>
      </trkpt>
      <trkpt lat="43.26893" lon="2.2964">
        <ele>158.1</ele>
        <time>2022-04-17T06:26:22.000Z</time>
      </trkpt>
      <trkpt lat="43.26892" lon="2.29641">
        <ele>158</ele>
        <time>2022-04-17T06:26:23.000Z</time>
      </trkpt>
      <trkpt lat="43.26892" lon="2.29642">
        <ele>158</ele>
        <time>2022-04-17T06:26:24.000Z</time>
      </trkpt>
      <trkpt lat="43.26891" lon="2.29643">
        <ele>157.9</ele>
        <time>2022-04-17T06:26:25.000Z</time>
      </trkpt>
      <trkpt lat="43.2689" lon="2.29645">
        <ele>157.8</ele>
        <time>2022-04-17T06:26:26.000Z</time>
      </trkpt>
      <trkpt lat="43.2689" lon="2.29646">
        <ele>157.6</ele>
        <time>2022-04-17T06:26:27.000Z</time>
      </trkpt>
      <trkpt lat="43.26889" lon="2.29648">
        <ele>157.5</ele>
        <time>2022-04-17T06:26:28.000Z</time>
      </trkpt>
      <trkpt lat="43.26888" lon="2.29649">
        <ele>157.3</ele>
        <time>2022-04-17T06:26:29.000Z</time>
      </trkpt>
      <trkpt lat="43.26887" lon="2.29651">
        <ele>157.2</ele>
        <time>2022-04-17T06:26:30.000Z</time>
      </trkpt>
      <trkpt lat="43.26886" lon="2.29653">
        <ele>157</ele>
        <time>2022-04-17T06:26:31.000Z</time>
      </trkpt>
      <trkpt lat="43.26884" lon="2.29656">
        <ele>156.8</ele>
        <time>2022-04-17T06:26:32.000Z</time>
      </trkpt>
      <trkpt lat="43.26883" lon="2.29658">
        <ele>156.6</ele>
        <time>2022-04-17T06:26:33.000Z</time>
      </trkpt>
      <trkpt lat="43.26881" lon="2.2966">
        <ele>156.3</ele>
        <time>2022-04-17T06:26:34.000Z</time>
      </trkpt>
      <trkpt lat="43.2688" lon="2.29663">
        <ele>156.1</ele>
        <time>2022-04-17T06:26:35.000Z</time>
      </trkpt>
      <trkpt lat="43.26879" lon="2.29665">
        <ele>155.9</ele>
        <time>2022-04-17T06:26:36.000Z</time>
      </trkpt>
      <trkpt lat="43.26877" lon="2.29667">
        <ele>155.7</ele>
        <time>2022-04-17T06:26:37.000Z</time>
      </trkpt>
      <trkpt lat="43.26876" lon="2.29668">
        <ele>155.6</ele>
        <time>2022-04-17T06:26:38.000Z</time>
      </trkpt>
      <trkpt lat="43.26875" lon="2.29669">
        <ele>155.6</ele>
        <time>2022-04-17T06:26:39.000Z</time>
      </trkpt>
      <trkpt lat="43.26874" lon="2.2967">
        <ele>155.5</ele>
        <time>2022-04-17T06:26:40.000Z</time>
      </trkpt>
      <trkpt lat="43.26873" lon="2.2967">
        <ele>155.4</ele>
        <time>2022-04-17T06:26:41.000Z</time>
      </trkpt>
      <trkpt lat="43.26873" lon="2.2967">
        <ele>155.3</ele>
        <time>2022-04-17T06:26:42.000Z</time>
      </trkpt>
      <trkpt lat="43.26872" lon="2.29669">
        <ele>155.2</ele>
        <time>2022-04-17T06:26:43.000Z</time>
      </trkpt>
      <trkpt lat="43.26871" lon="2.29668">
        <ele>155.1</ele>
        <time>2022-04-17T06:26:44.000Z</time>
      </trkpt>
      <trkpt lat="43.26869" lon="2.29667">
        <ele>155</ele>
        <time>2022-04-17T06:26:45.000Z</time>
      </trkpt>
      <trkpt lat="43.26868" lon="2.29666">
        <ele>154.9</ele>
        <time>2022-04-17T06:26:46.000Z</time>
      </trkpt>
      <trkpt lat="43.26866" lon="2.29664">
        <ele>154.9</ele>
        <time>2022-04-17T06:26:47.000Z</time>
      </trkpt>
      <trkpt lat="43.26864" lon="2.29663">
        <ele>154.8</ele>
        <time>2022-04-17T06:26:48.000Z</time>
      </trkpt>
      <trkpt lat="43.26863" lon="2.29661">
        <ele>154.8</ele>
        <time>2022-04-17T06:26:49.000Z</time>
      </trkpt>
      <trkpt lat="43.26861" lon="2.29659">
        <ele>154.7</ele>
        <time>2022-04-17T06:26:50.000Z</time>
      </trkpt>
      <trkpt lat="43.26859" lon="2.29658">
        <ele>154.6</ele>
        <time>2022-04-17T06:26:51.000Z</time>
      </trkpt>
      <trkpt lat="43.26857" lon="2.29657">
        <ele>154.5</ele>
        <time>2022-04-17T06:26:52.000Z</time>
      </trkpt>
      <trkpt lat="43.26856" lon="2.29656">
        <ele>154.5</ele>
        <time>2022-04-17T06:26:53.000Z</time>
      </trkpt>
      <trkpt lat="43.26854" lon="2.29655">
        <ele>154.4</ele>
        <time>2022-04-17T06:26:54.000Z</time>
      </trkpt>
      <trkpt lat="43.26853" lon="2.29654">
        <ele>154.3</ele>
        <time>2022-04-17T06:26:55.000Z</time>
      </trkpt>
      <trkpt lat="43.26851" lon="2.29653">
        <ele>154.2</ele>
        <time>2022-04-17T06:26:56.000Z</time>
      </trkpt>
      <trkpt lat="43.2685" lon="2.29653">
        <ele>154.1</ele>
        <time>2022-04-17T06:26:57.000Z</time>
      </trkpt>
      <trkpt lat="43.26849" lon="2.29653">
        <ele>154.1</ele>
        <time>2022-04-17T06:26:58.000Z</time>
      </trkpt>
      <trkpt lat="43.26848" lon="2.29653">
        <ele>154</ele>
        <time>2022-04-17T06:26:59.000Z</time>
      </trkpt>
      <trkpt lat="43.26847" lon="2.29653">
        <ele>153.9</ele>
        <time>2022-04-17T06:27:00.000Z</time>
      </trkpt>
      <trkpt lat="43.26846" lon="2.29653">
        <ele>153.9</ele>
        <time>2022-04-17T06:27:01.000Z</time>
      </trkpt>
      <trkpt lat="43.26846" lon="2.29653">
        <ele>153.8</ele>
        <time>2022-04-17T06:27:02.000Z</time>
      </trkpt>
      <trkpt lat="43.26845" lon="2.29654">
        <ele>153.8</ele>
        <time>2022-04-17T06:27:03.000Z</time>
      </trkpt>
      <trkpt lat="43.26845" lon="2.29654">
        <ele>153.7</ele>
        <time>2022-04-17T06:27:04.000Z</time>
      </trkpt>
      <trkpt lat="43.26845" lon="2.29654">
        <ele>153.7</ele>
        <time>2022-04-17T06:27:05.000Z</time>
      </trkpt>
      <trkpt lat="43.26845" lon="2.29654">
        <ele>153.7</ele>
        <time>2022-04-17T06:27:06.000Z</time>
      </trkpt>
      <trkpt lat="43.26845" lon="2.29654">
        <ele>153.7</ele>
        <time>2022-04-17T06:27:07.000Z</time>
      </trkpt>
      <trkpt lat="43.26845" lon="2.29654">
        <ele>153.7</ele>
        <time>2022-04-17T06:27:08.000Z</time>
      </trkpt>
      <trkpt lat="43.26845" lon="2.29654">
        <ele>153.7</ele>
        <time>2022-04-17T06:27:09.000Z</time>
      </trkpt>
      <trkpt lat="43.26845" lon="2.29654">
        <ele>153.7</ele>
        <time>2022-04-17T06:27:10.000Z</time>
      </trkpt>
      <trkpt lat="43.26845" lon="2.29654">
        <ele>153.7</ele>
        <time>2022-04-17T06:27:11.000Z</time>
      </trkpt>
      <trkpt lat="43.26845" lon="2.29654">
        <ele>153.7</ele>
        <time>2022-04-17T06:27:12.000Z</time>
      </trkpt>
      <trkpt lat="43.26845" lon="2.29654">
        <ele>153.6</ele>
        <time>2022-04-17T06:27:13.000Z</time>
      </trkpt>
      <trkpt lat="43.26845" lon="2.29655">
        <ele>153.6</ele>
        <time>2022-04-17T06:27:14.000Z</time>
      </trkpt>
      <trkpt lat="43.26845" lon="2.29655">
        <ele>153.6</ele>
        <time>2022-04-17T06:27:15.000Z</time>
      </trkpt>
      <trkpt lat="43.26846" lon="2.29656">
        <ele>153.6</ele>
        <time>2022-04-17T06:27:16.000Z</time>
      </trkpt>
      <trkpt lat="43.26846" lon="2.29658">
        <ele>153.6</ele>
        <time>2022-04-17T06:27:17.000Z</time>
      </trkpt>
      <trkpt lat="43.26848" lon="2.2966">
        <ele>153.6</ele>
        <time>2022-04-17T06:27:18.000Z</time>
      </trkpt>
      <trkpt lat="43.26849" lon="2.29662">
        <ele>153.6</ele>
        <time>2022-04-17T06:27:19.000Z</time>
      </trkpt>
      <trkpt lat="43.26851" lon="2.29664">
        <ele>153.6</ele>
        <time>2022-04-17T06:27:20.000Z</time>
      </trkpt>
      <trkpt lat="43.26853" lon="2.29666">
        <ele>153.7</ele>
        <time>2022-04-17T06:27:21.000Z</time>
      </trkpt>
      <trkpt lat="43.26855" lon="2.29669">
        <ele>153.9</ele>
        <time>2022-04-17T06:27:22.000Z</time>
      </trkpt>
      <trkpt lat="43.26857" lon="2.29671">
        <ele>154.1</ele>
        <time>2022-04-17T06:27:23.000Z</time>
      </trkpt>
      <trkpt lat="43.26859" lon="2.29673">
        <ele>154.3</ele>
        <time>2022-04-17T06:27:24.000Z</time>
      </trkpt>
      <trkpt lat="43.26862" lon="2.29674">
        <ele>154.5</ele>
        <time>2022-04-17T06:27:25.000Z</time>
      </trkpt>
      <trkpt lat="43.26864" lon="2.29676">
        <ele>154.7</ele>
        <time>2022-04-17T06:27:26.000Z</time>
      </trkpt>
      <trkpt lat="43.26866" lon="2.29677">
        <ele>154.9</ele>
        <time>2022-04-17T06:27:27.000Z</time>
      </trkpt>
      <trkpt lat="43.26868" lon="2.29678">
        <ele>155.2</ele>
        <time>2022-04-17T06:27:28.000Z</time>
      </trkpt>
      <trkpt lat="43.2687" lon="2.2968">
        <ele>155.4</ele>
        <time>2022-04-17T06:27:29.000Z</time>
      </trkpt>
      <trkpt lat="43.26873" lon="2.29681">
        <ele>155.6</ele>
        <time>2022-04-17T06:27:30.000Z</time>
      </trkpt>
      <trkpt lat="43.26875" lon="2.29682">
        <ele>155.8</ele>
        <time>2022-04-17T06:27:31.000Z</time>
      </trkpt>
      <trkpt lat="43.26877" lon="2.29683">
        <ele>156</ele>
        <time>2022-04-17T06:27:32.000Z</time>
      </trkpt>
      <trkpt lat="43.26879" lon="2.29685">
        <ele>156.2</ele>
        <time>2022-04-17T06:27:33.000Z</time>
      </trkpt>
      <trkpt lat="43.26882" lon="2.29686">
        <ele>156.4</ele>
        <time>2022-04-17T06:27:34.000Z</time>
      </trkpt>
      <trkpt lat="43.26884" lon="2.29687">
        <ele>156.6</ele>
        <time>2022-04-17T06:27:35.000Z</time>
      </trkpt>
      <trkpt lat="43.26886" lon="2.29689">
        <ele>156.8</ele>
        <time>2022-04-17T06:27:36.000Z</time>
      </trkpt>
      <trkpt lat="43.26888" lon="2.2969">
        <ele>157</ele>
        <time>2022-04-17T06:27:37.000Z</time>
      </trkpt>
      <trkpt lat="43.2689" lon="2.29691">
        <ele>157.2</ele>
        <time>2022-04-17T06:27:38.000Z</time>
      </trkpt>
      <trkpt lat="43.26892" lon="2.29693">
        <ele>157.3</ele>
        <time>2022-04-17T06:27:39.000Z</time>
      </trkpt>
      <trkpt lat="43.26894" lon="2.29694">
        <ele>157.5</ele>
        <time>2022-04-17T06:27:40.000Z</time>
      </trkpt>
      <trkpt lat="43.26896" lon="2.29695">
        <ele>157.7</ele>
        <time>2022-04-17T06:27:41.000Z</time>
      </trkpt>
      <trkpt lat="43.26898" lon="2.29696">
        <ele>157.9</ele>
        <time>2022-04-17T06:27:42.000Z</time>
      </trkpt>
      <trkpt lat="43.269" lon="2.29697">
        <ele>158.1</ele>
        <time>2022-04-17T06:27:43.000Z</time>
      </trkpt>
      <trkpt lat="43.26903" lon="2.29698">
        <ele>158.3</ele>
        <time>2022-04-17T06:27:44.000Z</time>
      </trkpt>
      <trkpt lat="43.26904" lon="2.29699">
        <ele>158.4</ele>
        <time>2022-04-17T06:27:45.000Z</time>
      </trkpt>
      <trkpt lat="43.26906" lon="2.297">
        <ele>158.5</ele>
        <time>2022-04-17T06:27:46.000Z</time>
      </trkpt>
      <trkpt lat="43.26907" lon="2.29701">
        <ele>158.6</ele>
        <time>2022-04-17T06:27:47.000Z</time>
      </trkpt>
      <trkpt lat="43.26907" lon="2.29701">
        <ele>158.7</ele>
        <time>2022-04-17T06:27:48.000Z</time>
      </trkpt>
      <trkpt lat="43.26907" lon="2.29701">
        <ele>158.7</ele>
        <time>2022-04-17T06:27:49.000Z</time>
      </trkpt>
      <trkpt lat="43.26907" lon="2.29701">
        <ele>158.7</ele>
        <time>2022-04-17T06:27:50.000Z</time>
      </trkpt>
      <trkpt lat="43.26908" lon="2.29701">
        <ele>158.7</ele>
        <time>2022-04-17T06:27:51.000Z</time>
      </trkpt>
      <trkpt lat="43.26908" lon="2.29702">
        <ele>158.7</ele>
        <time>2022-04-17T06:27:52.000Z</time>
      </trkpt>
      <trkpt lat="43.26909" lon="2.29702">
        <ele>158.8</ele>
        <time>2022-04-17T06:27:53.000Z</time>
      </trkpt>
      <trkpt lat="43.26909" lon="2.29703">
        <ele>158.9</ele>
        <time>2022-04-17T06:27:54.000Z</time>
      </trkpt>
      <trkpt lat="43.2691" lon="2.29704">
        <ele>158.9</ele>
        <time>2022-04-17T06:27:55.000Z</time>
      </trkpt>
      <trkpt lat="43.2691" lon="2.29706">
        <ele>159</ele>
        <time>2022-04-17T06:27:56.000Z</time>
      </trkpt>
      <trkpt lat="43.2691" lon="2.29707">
        <ele>159</ele>
        <time>2022-04-17T06:27:57.000Z</time>
      </trkpt>
      <trkpt lat="43.2691" lon="2.29709">
        <ele>159</ele>
        <time>2022-04-17T06:27:58.000Z</time>
      </trkpt>
      <trkpt lat="43.26909" lon="2.29712">
        <ele>159</ele>
        <time>2022-04-17T06:27:59.000Z</time>
      </trkpt>
      <trkpt lat="43.26909" lon="2.29714">
        <ele>158.9</ele>
        <time>2022-04-17T06:28:00.000Z</time>
      </trkpt>
      <trkpt lat="43.26908" lon="2.29716">
        <ele>158.9</ele>
        <time>2022-04-17T06:28:01.000Z</time>
      </trkpt>
      <trkpt lat="43.26907" lon="2.29719">
        <ele>158.9</ele>
        <time>2022-04-17T06:28:02.000Z</time>
      </trkpt>
      <trkpt lat="43.26907" lon="2.29721">
        <ele>158.9</ele>
        <time>2022-04-17T06:28:03.000Z</time>
      </trkpt>
      <trkpt lat="43.26906" lon="2.29723">
        <ele>158.9</ele>
        <time>2022-04-17T06:28:04.000Z</time>
      </trkpt>
      <trkpt lat="43.26907" lon="2.29725">
        <ele>158.9</ele>
        <time>2022-04-17T06:28:05.000Z</time>
      </trkpt>
      <trkpt lat="43.26907" lon="2.29727">
        <ele>159</ele>
        <time>2022-04-17T06:28:06.000Z</time>
      </trkpt>
      <trkpt lat="43.26908" lon="2.29728">
        <ele>159.1</ele>
        <time>2022-04-17T06:28:07.000Z</time>
      </trkpt>
      <trkpt lat="43.26909" lon="2.2973">
        <ele>159.2</ele>
        <time>2022-04-17T06:28:08.000Z</time>
      </trkpt>
      <trkpt lat="43.2691" lon="2.29731">
        <ele>159.3</ele>
        <time>2022-04-17T06:28:09.000Z</time>
      </trkpt>
      <trkpt lat="43.26911" lon="2.29733">
        <ele>159.4</ele>
        <time>2022-04-17T06:28:10.000Z</time>
      </trkpt>
      <trkpt lat="43.26913" lon="2.29734">
        <ele>159.5</ele>
        <time>2022-04-17T06:28:11.000Z</time>
      </trkpt>
      <trkpt lat="43.26914" lon="2.29735">
        <ele>159.6</ele>
        <time>2022-04-17T06:28:12.000Z</time>
      </trkpt>
      <trkpt lat="43.26916" lon="2.29737">
        <ele>159.8</ele>
        <time>2022-04-17T06:28:13.000Z</time>
      </trkpt>
      <trkpt lat="43.26917" lon="2.29738">
        <ele>159.9</ele>
        <time>2022-04-17T06:28:14.000Z</time>
      </trkpt>
      <trkpt lat="43.26919" lon="2.29739">
        <ele>160</ele>
        <time>2022-04-17T06:28:15.000Z</time>
      </trkpt>
      <trkpt lat="43.26921" lon="2.29741">
        <ele>160.1</ele>
        <time>2022-04-17T06:28:16.000Z</time>
      </trkpt>
      <trkpt lat="43.26922" lon="2.29743">
        <ele>160.2</ele>
        <time>2022-04-17T06:28:17.000Z</time>
      </trkpt>
      <trkpt lat="43.26923" lon="2.29745">
        <ele>160.3</ele>
        <time>2022-04-17T06:28:18.000Z</time>
      </trkpt>
      <trkpt lat="43.26925" lon="2.29746">
        <ele>160.4</ele>
        <time>2022-04-17T06:28:19.000Z</time>
      </trkpt>
      <trkpt lat="43.26926" lon="2.29748">
        <ele>160.4</ele>
        <time>2022-04-17T06:28:20.000Z</time>
      </trkpt>
      <trkpt lat="43.26927" lon="2.2975">
        <ele>160.5</ele>
        <time>2022-04-17T06:28:21.000Z</time>
      </trkpt>
      <trkpt lat="43.26929" lon="2.29752">
        <ele>160.7</ele>
        <time>2022-04-17T06:28:22.000Z</time>
      </trkpt>
      <trkpt lat="43.2693" lon="2.29754">
        <ele>160.8</ele>
        <time>2022-04-17T06:28:23.000Z</time>
      </trkpt>
      <trkpt lat="43.26931" lon="2.29755">
        <ele>160.9</ele>
        <time>2022-04-17T06:28:24.000Z</time>
      </trkpt>
      <trkpt lat="43.26932" lon="2.29757">
        <ele>161.1</ele>
        <time>2022-04-17T06:28:25.000Z</time>
      </trkpt>
      <trkpt lat="43.26933" lon="2.29758">
        <ele>161.2</ele>
        <time>2022-04-17T06:28:26.000Z</time>
      </trkpt>
      <trkpt lat="43.26934" lon="2.2976">
        <ele>161.3</ele>
        <time>2022-04-17T06:28:27.000Z</time>
      </trkpt>
      <trkpt lat="43.26936" lon="2.29761">
        <ele>161.4</ele>
        <time>2022-04-17T06:28:28.000Z</time>
      </trkpt>
      <trkpt lat="43.26937" lon="2.29763">
        <ele>161.5</ele>
        <time>2022-04-17T06:28:29.000Z</time>
      </trkpt>
      <trkpt lat="43.26938" lon="2.29764">
        <ele>161.6</ele>
        <time>2022-04-17T06:28:30.000Z</time>
      </trkpt>
      <trkpt lat="43.26939" lon="2.29766">
        <ele>161.8</ele>
        <time>2022-04-17T06:28:31.000Z</time>
      </trkpt>
      <trkpt lat="43.2694" lon="2.29767">
        <ele>161.9</ele>
        <time>2022-04-17T06:28:32.000Z</time>
      </trkpt>
      <trkpt lat="43.26942" lon="2.29769">
        <ele>162</ele>
        <time>2022-04-17T06:28:33.000Z</time>
      </trkpt>
      <trkpt lat="43.26944" lon="2.29769">
        <ele>162.1</ele>
        <time>2022-04-17T06:28:34.000Z</time>
      </trkpt>
      <trkpt lat="43.26946" lon="2.2977">
        <ele>162.3</ele>
        <time>2022-04-17T06:28:35.000Z</time>
      </trkpt>
      <trkpt lat="43.26949" lon="2.29771">
        <ele>162.4</ele>
        <time>2022-04-17T06:28:36.000Z</time>
      </trkpt>
      <trkpt lat="43.26951" lon="2.29772">
        <ele>162.6</ele>
        <time>2022-04-17T06:28:37.000Z</time>
      </trkpt>
      <trkpt lat="43.26953" lon="2.29773">
        <ele>162.7</ele>
        <time>2022-04-17T06:28:38.000Z</time>
      </trkpt>
      <trkpt lat="43.26955" lon="2.29774">
        <ele>162.9</ele>
        <time>2022-04-17T06:28:39.000Z</time>
      </trkpt>
      <trkpt lat="43.26956" lon="2.29776">
        <ele>163</ele>
        <time>2022-04-17T06:28:40.000Z</time>
      </trkpt>
      <trkpt lat="43.26958" lon="2.29778">
        <ele>163.1</ele>
        <time>2022-04-17T06:28:41.000Z</time>
      </trkpt>
      <trkpt lat="43.26959" lon="2.29779">
        <ele>163.3</ele>
        <time>2022-04-17T06:28:42.000Z</time>
      </trkpt>
      <trkpt lat="43.26961" lon="2.29781">
        <ele>163.4</ele>
        <time>2022-04-17T06:28:43.000Z</time>
      </trkpt>
      <trkpt lat="43.26962" lon="2.29783">
        <ele>163.5</ele>
        <time>2022-04-17T06:28:44.000Z</time>
      </trkpt>
      <trkpt lat="43.26963" lon="2.29784">
        <ele>163.7</ele>
        <time>2022-04-17T06:28:45.000Z</time>
      </trkpt>
      <trkpt lat="43.26965" lon="2.29786">
        <ele>163.8</ele>
        <time>2022-04-17T06:28:46.000Z</time>
      </trkpt>
      <trkpt lat="43.26966" lon="2.29787">
        <ele>163.9</ele>
        <time>2022-04-17T06:28:47.000Z</time>
      </trkpt>
      <trkpt lat="43.26968" lon="2.29789">
        <ele>164</ele>
        <time>2022-04-17T06:28:48.000Z</time>
      </trkpt>
      <trkpt lat="43.26969" lon="2.2979">
        <ele>164.1</ele>
        <time>2022-04-17T06:28:49.000Z</time>
      </trkpt>
      <trkpt lat="43.26971" lon="2.29791">
        <ele>164.3</ele>
        <time>2022-04-17T06:28:50.000Z</time>
      </trkpt>
      <trkpt lat="43.26972" lon="2.29793">
        <ele>164.4</ele>
        <time>2022-04-17T06:28:51.000Z</time>
      </trkpt>
      <trkpt lat="43.26974" lon="2.29794">
        <ele>164.5</ele>
        <time>2022-04-17T06:28:52.000Z</time>
      </trkpt>
      <trkpt lat="43.26976" lon="2.29795">
        <ele>164.6</ele>
        <time>2022-04-17T06:28:53.000Z</time>
      </trkpt>
      <trkpt lat="43.26977" lon="2.29795">
        <ele>164.7</ele>
        <time>2022-04-17T06:28:54.000Z</time>
      </trkpt>
      <trkpt lat="43.26979" lon="2.29796">
        <ele>164.8</ele>
        <time>2022-04-17T06:28:55.000Z</time>
      </trkpt>
      <trkpt lat="43.2698" lon="2.29797">
        <ele>164.9</ele>
        <time>2022-04-17T06:28:56.000Z</time>
      </trkpt>
      <trkpt lat="43.26982" lon="2.29797">
        <ele>164.9</ele>
        <time>2022-04-17T06:28:57.000Z</time>
      </trkpt>
      <trkpt lat="43.26983" lon="2.29797">
        <ele>165</ele>
        <time>2022-04-17T06:28:58.000Z</time>
      </trkpt>
      <trkpt lat="43.26985" lon="2.29797">
        <ele>165.1</ele>
        <time>2022-04-17T06:28:59.000Z</time>
      </trkpt>
      <trkpt lat="43.26986" lon="2.29798">
        <ele>165.1</ele>
        <time>2022-04-17T06:29:00.000Z</time>
      </trkpt>
      <trkpt lat="43.26988" lon="2.29798">
        <ele>165.2</ele>
        <time>2022-04-17T06:29:01.000Z</time>
      </trkpt>
      <trkpt lat="43.26989" lon="2.29799">
        <ele>165.3</ele>
        <time>2022-04-17T06:29:02.000Z</time>
      </trkpt>
      <trkpt lat="43.26991" lon="2.298">
        <ele>165.4</ele>
        <time>2022-04-17T06:29:03.000Z</time>
      </trkpt>
      <trkpt lat="43.26993" lon="2.29801">
        <ele>165.5</ele>
        <time>2022-04-17T06:29:04.000Z</time>
      </trkpt>
      <trkpt lat="43.26994" lon="2.29802">
        <ele>165.6</ele>
        <time>2022-04-17T06:29:05.000Z</time>
      </trkpt>
      <trkpt lat="43.26996" lon="2.29803">
        <ele>165.7</ele>
        <time>2022-04-17T06:29:06.000Z</time>
      </trkpt>
      <trkpt lat="43.26998" lon="2.29804">
        <ele>165.9</ele>
        <time>2022-04-17T06:29:07.000Z</time>
      </trkpt>
      <trkpt lat="43.26999" lon="2.29805">
        <ele>166</ele>
        <time>2022-04-17T06:29:08.000Z</time>
      </trkpt>
      <trkpt lat="43.27001" lon="2.29806">
        <ele>166.1</ele>
        <time>2022-04-17T06:29:09.000Z</time>
      </trkpt>
      <trkpt lat="43.27003" lon="2.29807">
        <ele>166.2</ele>
        <time>2022-04-17T06:29:10.000Z</time>
      </trkpt>
      <trkpt lat="43.27004" lon="2.29808">
        <ele>166.2</ele>
        <time>2022-04-17T06:29:11.000Z</time>
      </trkpt>
      <trkpt lat="43.27006" lon="2.29809">
        <ele>166.3</ele>
        <time>2022-04-17T06:29:12.000Z</time>
      </trkpt>
      <trkpt lat="43.27007" lon="2.2981">
        <ele>166.4</ele>
        <time>2022-04-17T06:29:13.000Z</time>
      </trkpt>
      <trkpt lat="43.27008" lon="2.29812">
        <ele>166.5</ele>
        <time>2022-04-17T06:29:14.000Z</time>
      </trkpt>
      <trkpt lat="43.2701" lon="2.29813">
        <ele>166.6</ele>
        <time>2022-04-17T06:29:15.000Z</time>
      </trkpt>
      <trkpt lat="43.27011" lon="2.29814">
        <ele>166.6</ele>
        <time>2022-04-17T06:29:16.000Z</time>
      </trkpt>
      <trkpt lat="43.27012" lon="2.29815">
        <ele>166.7</ele>
        <time>2022-04-17T06:29:17.000Z</time>
      </trkpt>
      <trkpt lat="43.27013" lon="2.29816">
        <ele>166.8</ele>
        <time>2022-04-17T06:29:18.000Z</time>
      </trkpt>
      <trkpt lat="43.27014" lon="2.29817">
        <ele>166.9</ele>
        <time>2022-04-17T06:29:19.000Z</time>
      </trkpt>
      <trkpt lat="43.27015" lon="2.29819">
        <ele>166.9</ele>
        <time>2022-04-17T06:29:20.000Z</time>
      </trkpt>
      <trkpt lat="43.27016" lon="2.2982">
        <ele>167</ele>
        <time>2022-04-17T06:29:21.000Z</time>
      </trkpt>
      <trkpt lat="43.27017" lon="2.29822">
        <ele>167.1</ele>
        <time>2022-04-17T06:29:22.000Z</time>
      </trkpt>
      <trkpt lat="43.27018" lon="2.29823">
        <ele>167.1</ele>
        <time>2022-04-17T06:29:23.000Z</time>
      </trkpt>
      <trkpt lat="43.27019" lon="2.29825">
        <ele>167.2</ele>
        <time>2022-04-17T06:29:24.000Z</time>
      </trkpt>
      <trkpt lat="43.27019" lon="2.29827">
        <ele>167.3</ele>
        <time>2022-04-17T06:29:25.000Z</time>
      </trkpt>
      <trkpt lat="43.2702" lon="2.29829">
        <ele>167.4</ele>
        <time>2022-04-17T06:29:26.000Z</time>
      </trkpt>
      <trkpt lat="43.2702" lon="2.29831">
        <ele>167.4</ele>
        <time>2022-04-17T06:29:27.000Z</time>
      </trkpt>
      <trkpt lat="43.2702" lon="2.29834">
        <ele>167.5</ele>
        <time>2022-04-17T06:29:28.000Z</time>
      </trkpt>
      <trkpt lat="43.2702" lon="2.29836">
        <ele>167.5</ele>
        <time>2022-04-17T06:29:29.000Z</time>
      </trkpt>
      <trkpt lat="43.2702" lon="2.29838">
        <ele>167.6</ele>
        <time>2022-04-17T06:29:30.000Z</time>
      </trkpt>
      <trkpt lat="43.2702" lon="2.2984">
        <ele>167.7</ele>
        <time>2022-04-17T06:29:31.000Z</time>
      </trkpt>
      <trkpt lat="43.27019" lon="2.29842">
        <ele>167.7</ele>
        <time>2022-04-17T06:29:32.000Z</time>
      </trkpt>
      <trkpt lat="43.27019" lon="2.29844">
        <ele>167.7</ele>
        <time>2022-04-17T06:29:33.000Z</time>
      </trkpt>
      <trkpt lat="43.27018" lon="2.29847">
        <ele>167.8</ele>
        <time>2022-04-17T06:29:34.000Z</time>
      </trkpt>
      <trkpt lat="43.27017" lon="2.29848">
        <ele>167.8</ele>
        <time>2022-04-17T06:29:35.000Z</time>
      </trkpt>
      <trkpt lat="43.27016" lon="2.2985">
        <ele>167.8</ele>
        <time>2022-04-17T06:29:36.000Z</time>
      </trkpt>
      <trkpt lat="43.27014" lon="2.29852">
        <ele>167.8</ele>
        <time>2022-04-17T06:29:37.000Z</time>
      </trkpt>
      <trkpt lat="43.27013" lon="2.29853">
        <ele>167.8</ele>
        <time>2022-04-17T06:29:38.000Z</time>
      </trkpt>
      <trkpt lat="43.27012" lon="2.29855">
        <ele>167.8</ele>
        <time>2022-04-17T06:29:39.000Z</time>
      </trkpt>
      <trkpt lat="43.27011" lon="2.29857">
        <ele>167.9</ele>
        <time>2022-04-17T06:29:40.000Z</time>
      </trkpt>
      <trkpt lat="43.2701" lon="2.29858">
        <ele>167.9</ele>
        <time>2022-04-17T06:29:41.000Z</time>
      </trkpt>
      <trkpt lat="43.27009" lon="2.2986">
        <ele>167.9</ele>
        <time>2022-04-17T06:29:42.000Z</time>
      </trkpt>
      <trkpt lat="43.27009" lon="2.29863">
        <ele>167.9</ele>
        <time>2022-04-17T06:29:43.000Z</time>
      </trkpt>
      <trkpt lat="43.27009" lon="2.29865">
        <ele>168</ele>
        <time>2022-04-17T06:29:44.000Z</time>
      </trkpt>
      <trkpt lat="43.27008" lon="2.29868">
        <ele>168.1</ele>
        <time>2022-04-17T06:29:45.000Z</time>
      </trkpt>
      <trkpt lat="43.27008" lon="2.29871">
        <ele>168.1</ele>
        <time>2022-04-17T06:29:46.000Z</time>
      </trkpt>
      <trkpt lat="43.27008" lon="2.29873">
        <ele>168.2</ele>
        <time>2022-04-17T06:29:47.000Z</time>
      </trkpt>
      <trkpt lat="43.27008" lon="2.29876">
        <ele>168.3</ele>
        <time>2022-04-17T06:29:48.000Z</time>
      </trkpt>
      <trkpt lat="43.27008" lon="2.29879">
        <ele>168.3</ele>
        <time>2022-04-17T06:29:49.000Z</time>
      </trkpt>
      <trkpt lat="43.27007" lon="2.29882">
        <ele>168.4</ele>
        <time>2022-04-17T06:29:50.000Z</time>
      </trkpt>
      <trkpt lat="43.27006" lon="2.29885">
        <ele>168.4</ele>
        <time>2022-04-17T06:29:51.000Z</time>
      </trkpt>
      <trkpt lat="43.27005" lon="2.29888">
        <ele>168.5</ele>
        <time>2022-04-17T06:29:52.000Z</time>
      </trkpt>
      <trkpt lat="43.27004" lon="2.29891">
        <ele>168.5</ele>
        <time>2022-04-17T06:29:53.000Z</time>
      </trkpt>
      <trkpt lat="43.27003" lon="2.29894">
        <ele>168.5</ele>
        <time>2022-04-17T06:29:54.000Z</time>
      </trkpt>
      <trkpt lat="43.27002" lon="2.29896">
        <ele>168.6</ele>
        <time>2022-04-17T06:29:55.000Z</time>
      </trkpt>
      <trkpt lat="43.27001" lon="2.29899">
        <ele>168.6</ele>
        <time>2022-04-17T06:29:56.000Z</time>
      </trkpt>
      <trkpt lat="43.27" lon="2.29901">
        <ele>168.6</ele>
        <time>2022-04-17T06:29:57.000Z</time>
      </trkpt>
      <trkpt lat="43.26999" lon="2.29904">
        <ele>168.6</ele>
        <time>2022-04-17T06:29:58.000Z</time>
      </trkpt>
      <trkpt lat="43.26998" lon="2.29906">
        <ele>168.6</ele>
        <time>2022-04-17T06:29:59.000Z</time>
      </trkpt>
      <trkpt lat="43.26997" lon="2.29909">
        <ele>168.6</ele>
        <time>2022-04-17T06:30:00.000Z</time>
      </trkpt>
      <trkpt lat="43.26997" lon="2.29912">
        <ele>168.6</ele>
        <time>2022-04-17T06:30:01.000Z</time>
      </trkpt>
      <trkpt lat="43.26997" lon="2.29915">
        <ele>168.7</ele>
        <time>2022-04-17T06:30:02.000Z</time>
      </trkpt>
      <trkpt lat="43.26997" lon="2.29918">
        <ele>168.7</ele>
        <time>2022-04-17T06:30:03.000Z</time>
      </trkpt>
      <trkpt lat="43.26998" lon="2.29921">
        <ele>168.7</ele>
        <time>2022-04-17T06:30:04.000Z</time>
      </trkpt>
      <trkpt lat="43.26999" lon="2.29924">
        <ele>168.7</ele>
        <time>2022-04-17T06:30:05.000Z</time>
      </trkpt>
      <trkpt lat="43.27" lon="2.29928">
        <ele>168.7</ele>
        <time>2022-04-17T06:30:06.000Z</time>
      </trkpt>
      <trkpt lat="43.27001" lon="2.29931">
        <ele>168.7</ele>
        <time>2022-04-17T06:30:07.000Z</time>
      </trkpt>
      <trkpt lat="43.27002" lon="2.29934">
        <ele>168.7</ele>
        <time>2022-04-17T06:30:08.000Z</time>
      </trkpt>
      <trkpt lat="43.27003" lon="2.29936">
        <ele>168.7</ele>
        <time>2022-04-17T06:30:09.000Z</time>
      </trkpt>
      <trkpt lat="43.27005" lon="2.29938">
        <ele>168.7</ele>
        <time>2022-04-17T06:30:10.000Z</time>
      </trkpt>
      <trkpt lat="43.27006" lon="2.29941">
        <ele>168.7</ele>
        <time>2022-04-17T06:30:11.000Z</time>
      </trkpt>
      <trkpt lat="43.27007" lon="2.29943">
        <ele>168.7</ele>
        <time>2022-04-17T06:30:12.000Z</time>
      </trkpt>
      <trkpt lat="43.27008" lon="2.29945">
        <ele>168.7</ele>
        <time>2022-04-17T06:30:13.000Z</time>
      </trkpt>
      <trkpt lat="43.2701" lon="2.29947">
        <ele>168.8</ele>
        <time>2022-04-17T06:30:14.000Z</time>
      </trkpt>
      <trkpt lat="43.27011" lon="2.29949">
        <ele>168.8</ele>
        <time>2022-04-17T06:30:15.000Z</time>
      </trkpt>
      <trkpt lat="43.27013" lon="2.29951">
        <ele>168.8</ele>
        <time>2022-04-17T06:30:16.000Z</time>
      </trkpt>
      <trkpt lat="43.27014" lon="2.29954">
        <ele>168.8</ele>
        <time>2022-04-17T06:30:17.000Z</time>
      </trkpt>
      <trkpt lat="43.27015" lon="2.29956">
        <ele>168.9</ele>
        <time>2022-04-17T06:30:18.000Z</time>
      </trkpt>
      <trkpt lat="43.27017" lon="2.29959">
        <ele>168.9</ele>
        <time>2022-04-17T06:30:19.000Z</time>
      </trkpt>
      <trkpt lat="43.27018" lon="2.29961">
        <ele>168.9</ele>
        <time>2022-04-17T06:30:20.000Z</time>
      </trkpt>
      <trkpt lat="43.27019" lon="2.29964">
        <ele>168.9</ele>
        <time>2022-04-17T06:30:21.000Z</time>
      </trkpt>
      <trkpt lat="43.2702" lon="2.29967">
        <ele>169</ele>
        <time>2022-04-17T06:30:22.000Z</time>
      </trkpt>
      <trkpt lat="43.27021" lon="2.2997">
        <ele>169</ele>
        <time>2022-04-17T06:30:23.000Z</time>
      </trkpt>
      <trkpt lat="43.27023" lon="2.29972">
        <ele>169</ele>
        <time>2022-04-17T06:30:24.000Z</time>
      </trkpt>
      <trkpt lat="43.27024" lon="2.29975">
        <ele>169</ele>
        <time>2022-04-17T06:30:25.000Z</time>
      </trkpt>
      <trkpt lat="43.27025" lon="2.29978">
        <ele>169.1</ele>
        <time>2022-04-17T06:30:26.000Z</time>
      </trkpt>
      <trkpt lat="43.27025" lon="2.29982">
        <ele>169.1</ele>
        <time>2022-04-17T06:30:27.000Z</time>
      </trkpt>
      <trkpt lat="43.27026" lon="2.29985">
        <ele>169.1</ele>
        <time>2022-04-17T06:30:28.000Z</time>
      </trkpt>
      <trkpt lat="43.27027" lon="2.29988">
        <ele>169.1</ele>
        <time>2022-04-17T06:30:29.000Z</time>
      </trkpt>
      <trkpt lat="43.27027" lon="2.29991">
        <ele>169.1</ele>
        <time>2022-04-17T06:30:30.000Z</time>
      </trkpt>
      <trkpt lat="43.27028" lon="2.29994">
        <ele>169.1</ele>
        <time>2022-04-17T06:30:31.000Z</time>
      </trkpt>
      <trkpt lat="43.27028" lon="2.29997">
        <ele>169</ele>
        <time>2022-04-17T06:30:32.000Z</time>
      </trkpt>
      <trkpt lat="43.27028" lon="2.3">
        <ele>169</ele>
        <time>2022-04-17T06:30:33.000Z</time>
      </trkpt>
      <trkpt lat="43.27028" lon="2.30003">
        <ele>169</ele>
        <time>2022-04-17T06:30:34.000Z</time>
      </trkpt>
      <trkpt lat="43.27028" lon="2.30005">
        <ele>169</ele>
        <time>2022-04-17T06:30:35.000Z</time>
      </trkpt>
      <trkpt lat="43.27029" lon="2.30008">
        <ele>168.9</ele>
        <time>2022-04-17T06:30:36.000Z</time>
      </trkpt>
      <trkpt lat="43.27029" lon="2.3001">
        <ele>168.9</ele>
        <time>2022-04-17T06:30:37.000Z</time>
      </trkpt>
      <trkpt lat="43.27029" lon="2.30013">
        <ele>168.9</ele>
        <time>2022-04-17T06:30:38.000Z</time>
      </trkpt>
      <trkpt lat="43.27029" lon="2.30015">
        <ele>168.9</ele>
        <time>2022-04-17T06:30:39.000Z</time>
      </trkpt>
      <trkpt lat="43.2703" lon="2.30017">
        <ele>168.9</ele>
        <time>2022-04-17T06:30:40.000Z</time>
      </trkpt>
      <trkpt lat="43.27031" lon="2.30019">
        <ele>168.9</ele>
        <time>2022-04-17T06:30:41.000Z</time>
      </trkpt>
      <trkpt lat="43.27032" lon="2.30021">
        <ele>168.9</ele>
        <time>2022-04-17T06:30:42.000Z</time>
      </trkpt>
      <trkpt lat="43.27033" lon="2.30022">
        <ele>169</ele>
        <time>2022-04-17T06:30:43.000Z</time>
      </trkpt>
      <trkpt lat="43.27035" lon="2.30023">
        <ele>169.1</ele>
        <time>2022-04-17T06:30:44.000Z</time>
      </trkpt>
      <trkpt lat="43.27036" lon="2.30025">
        <ele>169.2</ele>
        <time>2022-04-17T06:30:45.000Z</time>
      </trkpt>
      <trkpt lat="43.27038" lon="2.30025">
        <ele>169.3</ele>
        <time>2022-04-17T06:30:46.000Z</time>
      </trkpt>
      <trkpt lat="43.2704" lon="2.30026">
        <ele>169.4</ele>
        <time>2022-04-17T06:30:47.000Z</time>
      </trkpt>
      <trkpt lat="43.27042" lon="2.30026">
        <ele>169.5</ele>
        <time>2022-04-17T06:30:48.000Z</time>
      </trkpt>
      <trkpt lat="43.27044" lon="2.30026">
        <ele>169.7</ele>
        <time>2022-04-17T06:30:49.000Z</time>
      </trkpt>
      <trkpt lat="43.27046" lon="2.30026">
        <ele>169.8</ele>
        <time>2022-04-17T06:30:50.000Z</time>
      </trkpt>
      <trkpt lat="43.27048" lon="2.30026">
        <ele>170</ele>
        <time>2022-04-17T06:30:51.000Z</time>
      </trkpt>
      <trkpt lat="43.2705" lon="2.30025">
        <ele>170.1</ele>
        <time>2022-04-17T06:30:52.000Z</time>
      </trkpt>
      <trkpt lat="43.27052" lon="2.30024">
        <ele>170.3</ele>
        <time>2022-04-17T06:30:53.000Z</time>
      </trkpt>
      <trkpt lat="43.27054" lon="2.30024">
        <ele>170.4</ele>
        <time>2022-04-17T06:30:54.000Z</time>
      </trkpt>
      <trkpt lat="43.27056" lon="2.30023">
        <ele>170.6</ele>
        <time>2022-04-17T06:30:55.000Z</time>
      </trkpt>
      <trkpt lat="43.27058" lon="2.30023">
        <ele>170.7</ele>
        <time>2022-04-17T06:30:56.000Z</time>
      </trkpt>
      <trkpt lat="43.2706" lon="2.30022">
        <ele>170.9</ele>
        <time>2022-04-17T06:30:57.000Z</time>
      </trkpt>
      <trkpt lat="43.27062" lon="2.30022">
        <ele>171</ele>
        <time>2022-04-17T06:30:58.000Z</time>
      </trkpt>
      <trkpt lat="43.27064" lon="2.30021">
        <ele>171.1</ele>
        <time>2022-04-17T06:30:59.000Z</time>
      </trkpt>
      <trkpt lat="43.27066" lon="2.30021">
        <ele>171.3</ele>
        <time>2022-04-17T06:31:00.000Z</time>
      </trkpt>
      <trkpt lat="43.27068" lon="2.30021">
        <ele>171.4</ele>
        <time>2022-04-17T06:31:01.000Z</time>
      </trkpt>
      <trkpt lat="43.2707" lon="2.3002">
        <ele>171.6</ele>
        <time>2022-04-17T06:31:02.000Z</time>
      </trkpt>
      <trkpt lat="43.27072" lon="2.3002">
        <ele>171.7</ele>
        <time>2022-04-17T06:31:03.000Z</time>
      </trkpt>
      <trkpt lat="43.27074" lon="2.30019">
        <ele>171.9</ele>
        <time>2022-04-17T06:31:04.000Z</time>
      </trkpt>
      <trkpt lat="43.27076" lon="2.30019">
        <ele>172.1</ele>
        <time>2022-04-17T06:31:05.000Z</time>
      </trkpt>
      <trkpt lat="43.27079" lon="2.30018">
        <ele>172.2</ele>
        <time>2022-04-17T06:31:06.000Z</time>
      </trkpt>
      <trkpt lat="43.27081" lon="2.30018">
        <ele>172.4</ele>
        <time>2022-04-17T06:31:07.000Z</time>
      </trkpt>
      <trkpt lat="43.27083" lon="2.30017">
        <ele>172.6</ele>
        <time>2022-04-17T06:31:08.000Z</time>
      </trkpt>
      <trkpt lat="43.27086" lon="2.30017">
        <ele>172.8</ele>
        <time>2022-04-17T06:31:09.000Z</time>
      </trkpt>
      <trkpt lat="43.27088" lon="2.30016">
        <ele>173</ele>
        <time>2022-04-17T06:31:10.000Z</time>
      </trkpt>
      <trkpt lat="43.27091" lon="2.30016">
        <ele>173.2</ele>
        <time>2022-04-17T06:31:11.000Z</time>
      </trkpt>
      <trkpt lat="43.27093" lon="2.30016">
        <ele>173.4</ele>
        <time>2022-04-17T06:31:12.000Z</time>
      </trkpt>
      <trkpt lat="43.27096" lon="2.30015">
        <ele>173.5</ele>
        <time>2022-04-17T06:31:13.000Z</time>
      </trkpt>
      <trkpt lat="43.27098" lon="2.30015">
        <ele>173.7</ele>
        <time>2022-04-17T06:31:14.000Z</time>
      </trkpt>
      <trkpt lat="43.271" lon="2.30014">
        <ele>173.9</ele>
        <time>2022-04-17T06:31:15.000Z</time>
      </trkpt>
      <trkpt lat="43.27102" lon="2.30014">
        <ele>174.1</ele>
        <time>2022-04-17T06:31:16.000Z</time>
      </trkpt>
      <trkpt lat="43.27104" lon="2.30014">
        <ele>174.2</ele>
        <time>2022-04-17T06:31:17.000Z</time>
      </trkpt>
      <trkpt lat="43.27106" lon="2.30013">
        <ele>174.4</ele>
        <time>2022-04-17T06:31:18.000Z</time>
      </trkpt>
      <trkpt lat="43.27108" lon="2.30013">
        <ele>174.5</ele>
        <time>2022-04-17T06:31:19.000Z</time>
      </trkpt>
      <trkpt lat="43.2711" lon="2.30013">
        <ele>174.6</ele>
        <time>2022-04-17T06:31:20.000Z</time>
      </trkpt>
      <trkpt lat="43.27111" lon="2.30012">
        <ele>174.8</ele>
        <time>2022-04-17T06:31:21.000Z</time>
      </trkpt>
      <trkpt lat="43.27113" lon="2.30012">
        <ele>174.9</ele>
        <time>2022-04-17T06:31:22.000Z</time>
      </trkpt>
      <trkpt lat="43.27114" lon="2.30012">
        <ele>174.9</ele>
        <time>2022-04-17T06:31:23.000Z</time>
      </trkpt>
      <trkpt lat="43.27115" lon="2.30012">
        <ele>175</ele>
        <time>2022-04-17T06:31:24.000Z</time>
      </trkpt>
      <trkpt lat="43.27116" lon="2.30013">
        <ele>175.1</ele>
        <time>2022-04-17T06:31:25.000Z</time>
      </trkpt>
      <trkpt lat="43.27117" lon="2.30013">
        <ele>175.1</ele>
        <time>2022-04-17T06:31:26.000Z</time>
      </trkpt>
      <trkpt lat="43.27117" lon="2.30014">
        <ele>175.2</ele>
        <time>2022-04-17T06:31:27.000Z</time>
      </trkpt>
      <trkpt lat="43.27118" lon="2.30015">
        <ele>175.2</ele>
        <time>2022-04-17T06:31:28.000Z</time>
      </trkpt>
      <trkpt lat="43.27119" lon="2.30016">
        <ele>175.2</ele>
        <time>2022-04-17T06:31:29.000Z</time>
      </trkpt>
      <trkpt lat="43.27119" lon="2.30017">
        <ele>175.3</ele>
        <time>2022-04-17T06:31:30.000Z</time>
      </trkpt>
      <trkpt lat="43.2712" lon="2.30018">
        <ele>175.3</ele>
        <time>2022-04-17T06:31:31.000Z</time>
      </trkpt>
      <trkpt lat="43.2712" lon="2.3002">
        <ele>175.3</ele>
        <time>2022-04-17T06:31:32.000Z</time>
      </trkpt>
      <trkpt lat="43.27121" lon="2.30021">
        <ele>175.3</ele>
        <time>2022-04-17T06:31:33.000Z</time>
      </trkpt>
      <trkpt lat="43.27121" lon="2.30022">
        <ele>175.3</ele>
        <time>2022-04-17T06:31:34.000Z</time>
      </trkpt>
      <trkpt lat="43.27122" lon="2.30023">
        <ele>175.3</ele>
        <time>2022-04-17T06:31:35.000Z</time>
      </trkpt>
      <trkpt lat="43.27122" lon="2.30024">
        <ele>175.3</ele>
        <time>2022-04-17T06:31:36.000Z</time>
      </trkpt>
      <trkpt lat="43.27123" lon="2.30026">
        <ele>175.4</ele>
        <time>2022-04-17T06:31:37.000Z</time>
      </trkpt>
      <trkpt lat="43.27123" lon="2.30027">
        <ele>175.4</ele>
        <time>2022-04-17T06:31:38.000Z</time>
      </trkpt>
      <trkpt lat="43.27124" lon="2.30028">
        <ele>175.4</ele>
        <time>2022-04-17T06:31:39.000Z</time>
      </trkpt>
      <trkpt lat="43.27124" lon="2.3003">
        <ele>175.4</ele>
        <time>2022-04-17T06:31:40.000Z</time>
      </trkpt>
      <trkpt lat="43.27124" lon="2.30032">
        <ele>175.4</ele>
        <time>2022-04-17T06:31:41.000Z</time>
      </trkpt>
      <trkpt lat="43.27125" lon="2.30034">
        <ele>175.4</ele>
        <time>2022-04-17T06:31:42.000Z</time>
      </trkpt>
      <trkpt lat="43.27125" lon="2.30036">
        <ele>175.4</ele>
        <time>2022-04-17T06:31:43.000Z</time>
      </trkpt>
      <trkpt lat="43.27126" lon="2.30039">
        <ele>175.4</ele>
        <time>2022-04-17T06:31:44.000Z</time>
      </trkpt>
      <trkpt lat="43.27127" lon="2.30042">
        <ele>175.4</ele>
        <time>2022-04-17T06:31:45.000Z</time>
      </trkpt>
      <trkpt lat="43.27127" lon="2.30044">
        <ele>175.4</ele>
        <time>2022-04-17T06:31:46.000Z</time>
      </trkpt>
      <trkpt lat="43.27128" lon="2.30047">
        <ele>175.4</ele>
        <time>2022-04-17T06:31:47.000Z</time>
      </trkpt>
      <trkpt lat="43.27129" lon="2.3005">
        <ele>175.4</ele>
        <time>2022-04-17T06:31:48.000Z</time>
      </trkpt>
      <trkpt lat="43.2713" lon="2.30053">
        <ele>175.4</ele>
        <time>2022-04-17T06:31:49.000Z</time>
      </trkpt>
      <trkpt lat="43.27131" lon="2.30056">
        <ele>175.5</ele>
        <time>2022-04-17T06:31:50.000Z</time>
      </trkpt>
      <trkpt lat="43.27132" lon="2.30059">
        <ele>175.5</ele>
        <time>2022-04-17T06:31:51.000Z</time>
      </trkpt>
      <trkpt lat="43.27133" lon="2.30062">
        <ele>175.6</ele>
        <time>2022-04-17T06:31:52.000Z</time>
      </trkpt>
      <trkpt lat="43.27135" lon="2.30065">
        <ele>175.6</ele>
        <time>2022-04-17T06:31:53.000Z</time>
      </trkpt>
      <trkpt lat="43.27136" lon="2.30068">
        <ele>175.7</ele>
        <time>2022-04-17T06:31:54.000Z</time>
      </trkpt>
      <trkpt lat="43.27138" lon="2.3007">
        <ele>175.8</ele>
        <time>2022-04-17T06:31:55.000Z</time>
      </trkpt>
      <trkpt lat="43.27139" lon="2.30073">
        <ele>175.9</ele>
        <time>2022-04-17T06:31:56.000Z</time>
      </trkpt>
      <trkpt lat="43.27141" lon="2.30075">
        <ele>175.9</ele>
        <time>2022-04-17T06:31:57.000Z</time>
      </trkpt>
      <trkpt lat="43.27142" lon="2.30078">
        <ele>176</ele>
        <time>2022-04-17T06:31:58.000Z</time>
      </trkpt>
      <trkpt lat="43.27143" lon="2.30081">
        <ele>176.1</ele>
        <time>2022-04-17T06:31:59.000Z</time>
      </trkpt>
      <trkpt lat="43.27145" lon="2.30084">
        <ele>176.1</ele>
        <time>2022-04-17T06:32:00.000Z</time>
      </trkpt>
      <trkpt lat="43.27146" lon="2.30087">
        <ele>176.2</ele>
        <time>2022-04-17T06:32:01.000Z</time>
      </trkpt>
      <trkpt lat="43.27147" lon="2.3009">
        <ele>176.2</ele>
        <time>2022-04-17T06:32:02.000Z</time>
      </trkpt>
      <trkpt lat="43.27148" lon="2.30093">
        <ele>176.2</ele>
        <time>2022-04-17T06:32:03.000Z</time>
      </trkpt>
      <trkpt lat="43.27149" lon="2.30096">
        <ele>176.2</ele>
        <time>2022-04-17T06:32:04.000Z</time>
      </trkpt>
      <trkpt lat="43.2715" lon="2.30099">
        <ele>176.2</ele>
        <time>2022-04-17T06:32:05.000Z</time>
      </trkpt>
      <trkpt lat="43.2715" lon="2.30103">
        <ele>176.2</ele>
        <time>2022-04-17T06:32:06.000Z</time>
      </trkpt>
      <trkpt lat="43.27151" lon="2.30106">
        <ele>176.2</ele>
        <time>2022-04-17T06:32:07.000Z</time>
      </trkpt>
      <trkpt lat="43.27152" lon="2.3011">
        <ele>176.2</ele>
        <time>2022-04-17T06:32:08.000Z</time>
      </trkpt>
      <trkpt lat="43.27152" lon="2.30113">
        <ele>176.2</ele>
        <time>2022-04-17T06:32:09.000Z</time>
      </trkpt>
      <trkpt lat="43.27153" lon="2.30117">
        <ele>176.1</ele>
        <time>2022-04-17T06:32:10.000Z</time>
      </trkpt>
      <trkpt lat="43.27154" lon="2.3012">
        <ele>176.1</ele>
        <time>2022-04-17T06:32:11.000Z</time>
      </trkpt>
      <trkpt lat="43.27154" lon="2.30124">
        <ele>176.1</ele>
        <time>2022-04-17T06:32:12.000Z</time>
      </trkpt>
      <trkpt lat="43.27155" lon="2.30127">
        <ele>176</ele>
        <time>2022-04-17T06:32:13.000Z</time>
      </trkpt>
      <trkpt lat="43.27155" lon="2.3013">
        <ele>176</ele>
        <time>2022-04-17T06:32:14.000Z</time>
      </trkpt>
      <trkpt lat="43.27156" lon="2.30134">
        <ele>176</ele>
        <time>2022-04-17T06:32:15.000Z</time>
      </trkpt>
      <trkpt lat="43.27157" lon="2.30137">
        <ele>175.9</ele>
        <time>2022-04-17T06:32:16.000Z</time>
      </trkpt>
      <trkpt lat="43.27157" lon="2.3014">
        <ele>175.9</ele>
        <time>2022-04-17T06:32:17.000Z</time>
      </trkpt>
      <trkpt lat="43.27158" lon="2.30143">
        <ele>175.9</ele>
        <time>2022-04-17T06:32:18.000Z</time>
      </trkpt>
      <trkpt lat="43.27159" lon="2.30146">
        <ele>175.9</ele>
        <time>2022-04-17T06:32:19.000Z</time>
      </trkpt>
      <trkpt lat="43.2716" lon="2.30148">
        <ele>176</ele>
        <time>2022-04-17T06:32:20.000Z</time>
      </trkpt>
      <trkpt lat="43.27162" lon="2.30151">
        <ele>176</ele>
        <time>2022-04-17T06:32:21.000Z</time>
      </trkpt>
      <trkpt lat="43.27163" lon="2.30153">
        <ele>176.1</ele>
        <time>2022-04-17T06:32:22.000Z</time>
      </trkpt>
      <trkpt lat="43.27165" lon="2.30155">
        <ele>176.2</ele>
        <time>2022-04-17T06:32:23.000Z</time>
      </trkpt>
      <trkpt lat="43.27167" lon="2.30156">
        <ele>176.3</ele>
        <time>2022-04-17T06:32:24.000Z</time>
      </trkpt>
      <trkpt lat="43.27169" lon="2.30157">
        <ele>176.3</ele>
        <time>2022-04-17T06:32:25.000Z</time>
      </trkpt>
      <trkpt lat="43.27171" lon="2.30158">
        <ele>176.4</ele>
        <time>2022-04-17T06:32:26.000Z</time>
      </trkpt>
      <trkpt lat="43.27174" lon="2.30158">
        <ele>176.5</ele>
        <time>2022-04-17T06:32:27.000Z</time>
      </trkpt>
      <trkpt lat="43.27176" lon="2.30157">
        <ele>176.7</ele>
        <time>2022-04-17T06:32:28.000Z</time>
      </trkpt>
      <trkpt lat="43.27179" lon="2.30157">
        <ele>176.8</ele>
        <time>2022-04-17T06:32:29.000Z</time>
      </trkpt>
      <trkpt lat="43.27181" lon="2.30156">
        <ele>176.9</ele>
        <time>2022-04-17T06:32:30.000Z</time>
      </trkpt>
      <trkpt lat="43.27184" lon="2.30156">
        <ele>177</ele>
        <time>2022-04-17T06:32:31.000Z</time>
      </trkpt>
      <trkpt lat="43.27186" lon="2.30156">
        <ele>177.2</ele>
        <time>2022-04-17T06:32:32.000Z</time>
      </trkpt>
      <trkpt lat="43.27189" lon="2.30155">
        <ele>177.3</ele>
        <time>2022-04-17T06:32:33.000Z</time>
      </trkpt>
      <trkpt lat="43.27191" lon="2.30155">
        <ele>177.4</ele>
        <time>2022-04-17T06:32:34.000Z</time>
      </trkpt>
      <trkpt lat="43.27193" lon="2.30155">
        <ele>177.5</ele>
        <time>2022-04-17T06:32:35.000Z</time>
      </trkpt>
      <trkpt lat="43.27196" lon="2.30156">
        <ele>177.6</ele>
        <time>2022-04-17T06:32:36.000Z</time>
      </trkpt>
      <trkpt lat="43.27198" lon="2.30156">
        <ele>177.7</ele>
        <time>2022-04-17T06:32:37.000Z</time>
      </trkpt>
      <trkpt lat="43.272" lon="2.30156">
        <ele>177.8</ele>
        <time>2022-04-17T06:32:38.000Z</time>
      </trkpt>
      <trkpt lat="43.27203" lon="2.30156">
        <ele>177.9</ele>
        <time>2022-04-17T06:32:39.000Z</time>
      </trkpt>
      <trkpt lat="43.27205" lon="2.30157">
        <ele>178</ele>
        <time>2022-04-17T06:32:40.000Z</time>
      </trkpt>
      <trkpt lat="43.27207" lon="2.30157">
        <ele>178.1</ele>
        <time>2022-04-17T06:32:41.000Z</time>
      </trkpt>
      <trkpt lat="43.27209" lon="2.30157">
        <ele>178.2</ele>
        <time>2022-04-17T06:32:42.000Z</time>
      </trkpt>
      <trkpt lat="43.27212" lon="2.30158">
        <ele>178.3</ele>
        <time>2022-04-17T06:32:43.000Z</time>
      </trkpt>
      <trkpt lat="43.27214" lon="2.30158">
        <ele>178.4</ele>
        <time>2022-04-17T06:32:44.000Z</time>
      </trkpt>
      <trkpt lat="43.27216" lon="2.30158">
        <ele>178.5</ele>
        <time>2022-04-17T06:32:45.000Z</time>
      </trkpt>
      <trkpt lat="43.27218" lon="2.30159">
        <ele>178.6</ele>
        <time>2022-04-17T06:32:46.000Z</time>
      </trkpt>
      <trkpt lat="43.2722" lon="2.30159">
        <ele>178.7</ele>
        <time>2022-04-17T06:32:47.000Z</time>
      </trkpt>
      <trkpt lat="43.27223" lon="2.30159">
        <ele>178.8</ele>
        <time>2022-04-17T06:32:48.000Z</time>
      </trkpt>
      <trkpt lat="43.27225" lon="2.3016">
        <ele>178.9</ele>
        <time>2022-04-17T06:32:49.000Z</time>
      </trkpt>
      <trkpt lat="43.27227" lon="2.3016">
        <ele>179</ele>
        <time>2022-04-17T06:32:50.000Z</time>
      </trkpt>
      <trkpt lat="43.27229" lon="2.30161">
        <ele>179.1</ele>
        <time>2022-04-17T06:32:51.000Z</time>
      </trkpt>
      <trkpt lat="43.27231" lon="2.30162">
        <ele>179.2</ele>
        <time>2022-04-17T06:32:52.000Z</time>
      </trkpt>
      <trkpt lat="43.27233" lon="2.30162">
        <ele>179.3</ele>
        <time>2022-04-17T06:32:53.000Z</time>
      </trkpt>
      <trkpt lat="43.27235" lon="2.30163">
        <ele>179.3</ele>
        <time>2022-04-17T06:32:54.000Z</time>
      </trkpt>
      <trkpt lat="43.27237" lon="2.30164">
        <ele>179.4</ele>
        <time>2022-04-17T06:32:55.000Z</time>
      </trkpt>
      <trkpt lat="43.27239" lon="2.30164">
        <ele>179.5</ele>
        <time>2022-04-17T06:32:56.000Z</time>
      </trkpt>
      <trkpt lat="43.27241" lon="2.30165">
        <ele>179.6</ele>
        <time>2022-04-17T06:32:57.000Z</time>
      </trkpt>
      <trkpt lat="43.27244" lon="2.30165">
        <ele>179.7</ele>
        <time>2022-04-17T06:32:58.000Z</time>
      </trkpt>
      <trkpt lat="43.27246" lon="2.30165">
        <ele>179.8</ele>
        <time>2022-04-17T06:32:59.000Z</time>
      </trkpt>
      <trkpt lat="43.27248" lon="2.30165">
        <ele>179.9</ele>
        <time>2022-04-17T06:33:00.000Z</time>
      </trkpt>
      <trkpt lat="43.2725" lon="2.30166">
        <ele>180</ele>
        <time>2022-04-17T06:33:01.000Z</time>
      </trkpt>
      <trkpt lat="43.27252" lon="2.30166">
        <ele>180.1</ele>
        <time>2022-04-17T06:33:02.000Z</time>
      </trkpt>
      <trkpt lat="43.27254" lon="2.30166">
        <ele>180.3</ele>
        <time>2022-04-17T06:33:03.000Z</time>
      </trkpt>
      <trkpt lat="43.27256" lon="2.30166">
        <ele>180.4</ele>
        <time>2022-04-17T06:33:04.000Z</time>
      </trkpt>
      <trkpt lat="43.27258" lon="2.30166">
        <ele>180.6</ele>
        <time>2022-04-17T06:33:05.000Z</time>
      </trkpt>
      <trkpt lat="43.2726" lon="2.30166">
        <ele>180.8</ele>
        <time>2022-04-17T06:33:06.000Z</time>
      </trkpt>
      <trkpt lat="43.27262" lon="2.30166">
        <ele>180.9</ele>
        <time>2022-04-17T06:33:07.000Z</time>
      </trkpt>
      <trkpt lat="43.27265" lon="2.30166">
        <ele>181.1</ele>
        <time>2022-04-17T06:33:08.000Z</time>
      </trkpt>
      <trkpt lat="43.27267" lon="2.30166">
        <ele>181.2</ele>
        <time>2022-04-17T06:33:09.000Z</time>
      </trkpt>
      <trkpt lat="43.27269" lon="2.30166">
        <ele>181.4</ele>
        <time>2022-04-17T06:33:10.000Z</time>
      </trkpt>
      <trkpt lat="43.27271" lon="2.30166">
        <ele>181.5</ele>
        <time>2022-04-17T06:33:11.000Z</time>
      </trkpt>
      <trkpt lat="43.27273" lon="2.30166">
        <ele>181.7</ele>
        <time>2022-04-17T06:33:12.000Z</time>
      </trkpt>
      <trkpt lat="43.27275" lon="2.30166">
        <ele>181.8</ele>
        <time>2022-04-17T06:33:13.000Z</time>
      </trkpt>
      <trkpt lat="43.27277" lon="2.30166">
        <ele>182</ele>
        <time>2022-04-17T06:33:14.000Z</time>
      </trkpt>
      <trkpt lat="43.27279" lon="2.30165">
        <ele>182.1</ele>
        <time>2022-04-17T06:33:15.000Z</time>
      </trkpt>
      <trkpt lat="43.27282" lon="2.30165">
        <ele>182.3</ele>
        <time>2022-04-17T06:33:16.000Z</time>
      </trkpt>
      <trkpt lat="43.27284" lon="2.30165">
        <ele>182.4</ele>
        <time>2022-04-17T06:33:17.000Z</time>
      </trkpt>
      <trkpt lat="43.27286" lon="2.30164">
        <ele>182.6</ele>
        <time>2022-04-17T06:33:18.000Z</time>
      </trkpt>
      <trkpt lat="43.27288" lon="2.30163">
        <ele>182.7</ele>
        <time>2022-04-17T06:33:19.000Z</time>
      </trkpt>
      <trkpt lat="43.2729" lon="2.30162">
        <ele>182.9</ele>
        <time>2022-04-17T06:33:20.000Z</time>
      </trkpt>
      <trkpt lat="43.27292" lon="2.3016">
        <ele>183</ele>
        <time>2022-04-17T06:33:21.000Z</time>
      </trkpt>
      <trkpt lat="43.27295" lon="2.30159">
        <ele>183.2</ele>
        <time>2022-04-17T06:33:22.000Z</time>
      </trkpt>
      <trkpt lat="43.27297" lon="2.30157">
        <ele>183.3</ele>
        <time>2022-04-17T06:33:23.000Z</time>
      </trkpt>
      <trkpt lat="43.27299" lon="2.30155">
        <ele>183.4</ele>
        <time>2022-04-17T06:33:24.000Z</time>
      </trkpt>
      <trkpt lat="43.27301" lon="2.30154">
        <ele>183.5</ele>
        <time>2022-04-17T06:33:25.000Z</time>
      </trkpt>
      <trkpt lat="43.27303" lon="2.30152">
        <ele>183.7</ele>
        <time>2022-04-17T06:33:26.000Z</time>
      </trkpt>
      <trkpt lat="43.27305" lon="2.3015">
        <ele>183.8</ele>
        <time>2022-04-17T06:33:27.000Z</time>
      </trkpt>
      <trkpt lat="43.27308" lon="2.30149">
        <ele>183.9</ele>
        <time>2022-04-17T06:33:28.000Z</time>
      </trkpt>
      <trkpt lat="43.2731" lon="2.30147">
        <ele>184</ele>
        <time>2022-04-17T06:33:29.000Z</time>
      </trkpt>
      <trkpt lat="43.27312" lon="2.30145">
        <ele>184.1</ele>
        <time>2022-04-17T06:33:30.000Z</time>
      </trkpt>
      <trkpt lat="43.27314" lon="2.30144">
        <ele>184.2</ele>
        <time>2022-04-17T06:33:31.000Z</time>
      </trkpt>
      <trkpt lat="43.27315" lon="2.30142">
        <ele>184.3</ele>
        <time>2022-04-17T06:33:32.000Z</time>
      </trkpt>
      <trkpt lat="43.27317" lon="2.3014">
        <ele>184.4</ele>
        <time>2022-04-17T06:33:33.000Z</time>
      </trkpt>
      <trkpt lat="43.27319" lon="2.30139">
        <ele>184.5</ele>
        <time>2022-04-17T06:33:34.000Z</time>
      </trkpt>
      <trkpt lat="43.27321" lon="2.30137">
        <ele>184.5</ele>
        <time>2022-04-17T06:33:35.000Z</time>
      </trkpt>
      <trkpt lat="43.27323" lon="2.30135">
        <ele>184.6</ele>
        <time>2022-04-17T06:33:36.000Z</time>
      </trkpt>
      <trkpt lat="43.27324" lon="2.30133">
        <ele>184.7</ele>
        <time>2022-04-17T06:33:37.000Z</time>
      </trkpt>
      <trkpt lat="43.27326" lon="2.30131">
        <ele>184.7</ele>
        <time>2022-04-17T06:33:38.000Z</time>
      </trkpt>
      <trkpt lat="43.27328" lon="2.3013">
        <ele>184.8</ele>
        <time>2022-04-17T06:33:39.000Z</time>
      </trkpt>
      <trkpt lat="43.27329" lon="2.30128">
        <ele>184.8</ele>
        <time>2022-04-17T06:33:40.000Z</time>
      </trkpt>
      <trkpt lat="43.27331" lon="2.30126">
        <ele>184.9</ele>
        <time>2022-04-17T06:33:41.000Z</time>
      </trkpt>
      <trkpt lat="43.27333" lon="2.30124">
        <ele>184.9</ele>
        <time>2022-04-17T06:33:42.000Z</time>
      </trkpt>
      <trkpt lat="43.27334" lon="2.30123">
        <ele>185</ele>
        <time>2022-04-17T06:33:43.000Z</time>
      </trkpt>
      <trkpt lat="43.27336" lon="2.30121">
        <ele>185.1</ele>
        <time>2022-04-17T06:33:44.000Z</time>
      </trkpt>
      <trkpt lat="43.27338" lon="2.3012">
        <ele>185.2</ele>
        <time>2022-04-17T06:33:45.000Z</time>
      </trkpt>
      <trkpt lat="43.2734" lon="2.30118">
        <ele>185.3</ele>
        <time>2022-04-17T06:33:46.000Z</time>
      </trkpt>
      <trkpt lat="43.27342" lon="2.30117">
        <ele>185.4</ele>
        <time>2022-04-17T06:33:47.000Z</time>
      </trkpt>
      <trkpt lat="43.27344" lon="2.30115">
        <ele>185.5</ele>
        <time>2022-04-17T06:33:48.000Z</time>
      </trkpt>
      <trkpt lat="43.27346" lon="2.30114">
        <ele>185.6</ele>
        <time>2022-04-17T06:33:49.000Z</time>
      </trkpt>
      <trkpt lat="43.27347" lon="2.30113">
        <ele>185.7</ele>
        <time>2022-04-17T06:33:50.000Z</time>
      </trkpt>
      <trkpt lat="43.27349" lon="2.30112">
        <ele>185.8</ele>
        <time>2022-04-17T06:33:51.000Z</time>
      </trkpt>
      <trkpt lat="43.27351" lon="2.30111">
        <ele>185.9</ele>
        <time>2022-04-17T06:33:52.000Z</time>
      </trkpt>
      <trkpt lat="43.27352" lon="2.3011">
        <ele>186</ele>
        <time>2022-04-17T06:33:53.000Z</time>
      </trkpt>
      <trkpt lat="43.27354" lon="2.30109">
        <ele>186.1</ele>
        <time>2022-04-17T06:33:54.000Z</time>
      </trkpt>
      <trkpt lat="43.27355" lon="2.30108">
        <ele>186.1</ele>
        <time>2022-04-17T06:33:55.000Z</time>
      </trkpt>
      <trkpt lat="43.27356" lon="2.30108">
        <ele>186.2</ele>
        <time>2022-04-17T06:33:56.000Z</time>
      </trkpt>
      <trkpt lat="43.27357" lon="2.30107">
        <ele>186.2</ele>
        <time>2022-04-17T06:33:57.000Z</time>
      </trkpt>
      <trkpt lat="43.27357" lon="2.30107">
        <ele>186.3</ele>
        <time>2022-04-17T06:33:58.000Z</time>
      </trkpt>
      <trkpt lat="43.27357" lon="2.30107">
        <ele>186.3</ele>
        <time>2022-04-17T06:33:59.000Z</time>
      </trkpt>
      <trkpt lat="43.27357" lon="2.30107">
        <ele>186.3</ele>
        <time>2022-04-17T06:34:00.000Z</time>
      </trkpt>
      <trkpt lat="43.27357" lon="2.30108">
        <ele>186.3</ele>
        <time>2022-04-17T06:34:01.000Z</time>
      </trkpt>
      <trkpt lat="43.27357" lon="2.30108">
        <ele>186.3</ele>
        <time>2022-04-17T06:34:02.000Z</time>
      </trkpt>
      <trkpt lat="43.27357" lon="2.30109">
        <ele>186.3</ele>
        <time>2022-04-17T06:34:03.000Z</time>
      </trkpt>
      <trkpt lat="43.27357" lon="2.30111">
        <ele>186.4</ele>
        <time>2022-04-17T06:34:04.000Z</time>
      </trkpt>
      <trkpt lat="43.27357" lon="2.30112">
        <ele>186.4</ele>
        <time>2022-04-17T06:34:05.000Z</time>
      </trkpt>
      <trkpt lat="43.27358" lon="2.30114">
        <ele>186.5</ele>
        <time>2022-04-17T06:34:06.000Z</time>
      </trkpt>
      <trkpt lat="43.27358" lon="2.30115">
        <ele>186.5</ele>
        <time>2022-04-17T06:34:07.000Z</time>
      </trkpt>
      <trkpt lat="43.27358" lon="2.30117">
        <ele>186.6</ele>
        <time>2022-04-17T06:34:08.000Z</time>
      </trkpt>
      <trkpt lat="43.27359" lon="2.30119">
        <ele>186.7</ele>
        <time>2022-04-17T06:34:09.000Z</time>
      </trkpt>
      <trkpt lat="43.27359" lon="2.30121">
        <ele>186.8</ele>
        <time>2022-04-17T06:34:10.000Z</time>
      </trkpt>
      <trkpt lat="43.2736" lon="2.30122">
        <ele>186.8</ele>
        <time>2022-04-17T06:34:11.000Z</time>
      </trkpt>
      <trkpt lat="43.2736" lon="2.30124">
        <ele>186.9</ele>
        <time>2022-04-17T06:34:12.000Z</time>
      </trkpt>
      <trkpt lat="43.27361" lon="2.30125">
        <ele>186.9</ele>
        <time>2022-04-17T06:34:13.000Z</time>
      </trkpt>
      <trkpt lat="43.27361" lon="2.30126">
        <ele>187</ele>
        <time>2022-04-17T06:34:14.000Z</time>
      </trkpt>
      <trkpt lat="43.27361" lon="2.30127">
        <ele>187.1</ele>
        <time>2022-04-17T06:34:15.000Z</time>
      </trkpt>
      <trkpt lat="43.27362" lon="2.30129">
        <ele>187.1</ele>
        <time>2022-04-17T06:34:16.000Z</time>
      </trkpt>
      <trkpt lat="43.27362" lon="2.3013">
        <ele>187.2</ele>
        <time>2022-04-17T06:34:17.000Z</time>
      </trkpt>
      <trkpt lat="43.27362" lon="2.30132">
        <ele>187.2</ele>
        <time>2022-04-17T06:34:18.000Z</time>
      </trkpt>
      <trkpt lat="43.27362" lon="2.30134">
        <ele>187.3</ele>
        <time>2022-04-17T06:34:19.000Z</time>
      </trkpt>
      <trkpt lat="43.27363" lon="2.30136">
        <ele>187.4</ele>
        <time>2022-04-17T06:34:20.000Z</time>
      </trkpt>
      <trkpt lat="43.27363" lon="2.30139">
        <ele>187.4</ele>
        <time>2022-04-17T06:34:21.000Z</time>
      </trkpt>
      <trkpt lat="43.27363" lon="2.30141">
        <ele>187.5</ele>
        <time>2022-04-17T06:34:22.000Z</time>
      </trkpt>
      <trkpt lat="43.27363" lon="2.30143">
        <ele>187.6</ele>
        <time>2022-04-17T06:34:23.000Z</time>
      </trkpt>
      <trkpt lat="43.27364" lon="2.30146">
        <ele>187.7</ele>
        <time>2022-04-17T06:34:24.000Z</time>
      </trkpt>
      <trkpt lat="43.27364" lon="2.30148">
        <ele>187.8</ele>
        <time>2022-04-17T06:34:25.000Z</time>
      </trkpt>
      <trkpt lat="43.27365" lon="2.30151">
        <ele>187.9</ele>
        <time>2022-04-17T06:34:26.000Z</time>
      </trkpt>
      <trkpt lat="43.27365" lon="2.30153">
        <ele>188</ele>
        <time>2022-04-17T06:34:27.000Z</time>
      </trkpt>
      <trkpt lat="43.27366" lon="2.30156">
        <ele>188.1</ele>
        <time>2022-04-17T06:34:28.000Z</time>
      </trkpt>
      <trkpt lat="43.27366" lon="2.30159">
        <ele>188.2</ele>
        <time>2022-04-17T06:34:29.000Z</time>
      </trkpt>
      <trkpt lat="43.27367" lon="2.30162">
        <ele>188.3</ele>
        <time>2022-04-17T06:34:30.000Z</time>
      </trkpt>
      <trkpt lat="43.27367" lon="2.30165">
        <ele>188.4</ele>
        <time>2022-04-17T06:34:31.000Z</time>
      </trkpt>
      <trkpt lat="43.27368" lon="2.30167">
        <ele>188.5</ele>
        <time>2022-04-17T06:34:32.000Z</time>
      </trkpt>
      <trkpt lat="43.27369" lon="2.3017">
        <ele>188.6</ele>
        <time>2022-04-17T06:34:33.000Z</time>
      </trkpt>
      <trkpt lat="43.2737" lon="2.30173">
        <ele>188.8</ele>
        <time>2022-04-17T06:34:34.000Z</time>
      </trkpt>
      <trkpt lat="43.27371" lon="2.30176">
        <ele>188.9</ele>
        <time>2022-04-17T06:34:35.000Z</time>
      </trkpt>
      <trkpt lat="43.27373" lon="2.30178">
        <ele>189</ele>
        <time>2022-04-17T06:34:36.000Z</time>
      </trkpt>
      <trkpt lat="43.27374" lon="2.3018">
        <ele>189.2</ele>
        <time>2022-04-17T06:34:37.000Z</time>
      </trkpt>
      <trkpt lat="43.27376" lon="2.30181">
        <ele>189.3</ele>
        <time>2022-04-17T06:34:38.000Z</time>
      </trkpt>
      <trkpt lat="43.27378" lon="2.30182">
        <ele>189.5</ele>
        <time>2022-04-17T06:34:39.000Z</time>
      </trkpt>
      <trkpt lat="43.2738" lon="2.30183">
        <ele>189.6</ele>
        <time>2022-04-17T06:34:40.000Z</time>
      </trkpt>
      <trkpt lat="43.27382" lon="2.30184">
        <ele>189.8</ele>
        <time>2022-04-17T06:34:41.000Z</time>
      </trkpt>
      <trkpt lat="43.27384" lon="2.30185">
        <ele>189.9</ele>
        <time>2022-04-17T06:34:42.000Z</time>
      </trkpt>
      <trkpt lat="43.27387" lon="2.30186">
        <ele>190.1</ele>
        <time>2022-04-17T06:34:43.000Z</time>
      </trkpt>
      <trkpt lat="43.27389" lon="2.30187">
        <ele>190.2</ele>
        <time>2022-04-17T06:34:44.000Z</time>
      </trkpt>
      <trkpt lat="43.27391" lon="2.30189">
        <ele>190.4</ele>
        <time>2022-04-17T06:34:45.000Z</time>
      </trkpt>
      <trkpt lat="43.27393" lon="2.3019">
        <ele>190.6</ele>
        <time>2022-04-17T06:34:46.000Z</time>
      </trkpt>
      <trkpt lat="43.27396" lon="2.30192">
        <ele>190.7</ele>
        <time>2022-04-17T06:34:47.000Z</time>
      </trkpt>
      <trkpt lat="43.27398" lon="2.30193">
        <ele>190.9</ele>
        <time>2022-04-17T06:34:48.000Z</time>
      </trkpt>
      <trkpt lat="43.274" lon="2.30195">
        <ele>191</ele>
        <time>2022-04-17T06:34:49.000Z</time>
      </trkpt>
      <trkpt lat="43.27402" lon="2.30196">
        <ele>191.1</ele>
        <time>2022-04-17T06:34:50.000Z</time>
      </trkpt>
      <trkpt lat="43.27404" lon="2.30197">
        <ele>191.3</ele>
        <time>2022-04-17T06:34:51.000Z</time>
      </trkpt>
      <trkpt lat="43.27406" lon="2.30198">
        <ele>191.4</ele>
        <time>2022-04-17T06:34:52.000Z</time>
      </trkpt>
      <trkpt lat="43.27409" lon="2.30198">
        <ele>191.5</ele>
        <time>2022-04-17T06:34:53.000Z</time>
      </trkpt>
      <trkpt lat="43.27411" lon="2.30199">
        <ele>191.6</ele>
        <time>2022-04-17T06:34:54.000Z</time>
      </trkpt>
      <trkpt lat="43.27413" lon="2.302">
        <ele>191.8</ele>
        <time>2022-04-17T06:34:55.000Z</time>
      </trkpt>
      <trkpt lat="43.27415" lon="2.302">
        <ele>191.9</ele>
        <time>2022-04-17T06:34:56.000Z</time>
      </trkpt>
      <trkpt lat="43.27416" lon="2.30201">
        <ele>192</ele>
        <time>2022-04-17T06:34:57.000Z</time>
      </trkpt>
      <trkpt lat="43.27418" lon="2.30203">
        <ele>192.1</ele>
        <time>2022-04-17T06:34:58.000Z</time>
      </trkpt>
      <trkpt lat="43.2742" lon="2.30204">
        <ele>192.3</ele>
        <time>2022-04-17T06:34:59.000Z</time>
      </trkpt>
      <trkpt lat="43.27422" lon="2.30206">
        <ele>192.5</ele>
        <time>2022-04-17T06:35:00.000Z</time>
      </trkpt>
      <trkpt lat="43.27424" lon="2.30207">
        <ele>192.7</ele>
        <time>2022-04-17T06:35:01.000Z</time>
      </trkpt>
      <trkpt lat="43.27426" lon="2.30209">
        <ele>192.8</ele>
        <time>2022-04-17T06:35:02.000Z</time>
      </trkpt>
      <trkpt lat="43.27428" lon="2.3021">
        <ele>193</ele>
        <time>2022-04-17T06:35:03.000Z</time>
      </trkpt>
      <trkpt lat="43.2743" lon="2.30212">
        <ele>193.1</ele>
        <time>2022-04-17T06:35:04.000Z</time>
      </trkpt>
      <trkpt lat="43.27431" lon="2.30213">
        <ele>193.3</ele>
        <time>2022-04-17T06:35:05.000Z</time>
      </trkpt>
      <trkpt lat="43.27433" lon="2.30214">
        <ele>193.5</ele>
        <time>2022-04-17T06:35:06.000Z</time>
      </trkpt>
      <trkpt lat="43.27435" lon="2.30216">
        <ele>193.7</ele>
        <time>2022-04-17T06:35:07.000Z</time>
      </trkpt>
      <trkpt lat="43.27437" lon="2.30217">
        <ele>193.8</ele>
        <time>2022-04-17T06:35:08.000Z</time>
      </trkpt>
      <trkpt lat="43.27439" lon="2.30218">
        <ele>194</ele>
        <time>2022-04-17T06:35:09.000Z</time>
      </trkpt>
      <trkpt lat="43.27441" lon="2.30219">
        <ele>194.2</ele>
        <time>2022-04-17T06:35:10.000Z</time>
      </trkpt>
      <trkpt lat="43.27443" lon="2.3022">
        <ele>194.4</ele>
        <time>2022-04-17T06:35:11.000Z</time>
      </trkpt>
      <trkpt lat="43.27446" lon="2.30221">
        <ele>194.5</ele>
        <time>2022-04-17T06:35:12.000Z</time>
      </trkpt>
      <trkpt lat="43.27448" lon="2.30222">
        <ele>194.7</ele>
        <time>2022-04-17T06:35:13.000Z</time>
      </trkpt>
      <trkpt lat="43.2745" lon="2.30223">
        <ele>194.9</ele>
        <time>2022-04-17T06:35:14.000Z</time>
      </trkpt>
      <trkpt lat="43.27452" lon="2.30223">
        <ele>195.1</ele>
        <time>2022-04-17T06:35:15.000Z</time>
      </trkpt>
      <trkpt lat="43.27454" lon="2.30224">
        <ele>195.2</ele>
        <time>2022-04-17T06:35:16.000Z</time>
      </trkpt>
      <trkpt lat="43.27456" lon="2.30225">
        <ele>195.4</ele>
        <time>2022-04-17T06:35:17.000Z</time>
      </trkpt>
      <trkpt lat="43.27457" lon="2.30226">
        <ele>195.6</ele>
        <time>2022-04-17T06:35:18.000Z</time>
      </trkpt>
      <trkpt lat="43.27459" lon="2.30227">
        <ele>195.7</ele>
        <time>2022-04-17T06:35:19.000Z</time>
      </trkpt>
      <trkpt lat="43.27461" lon="2.30228">
        <ele>195.9</ele>
        <time>2022-04-17T06:35:20.000Z</time>
      </trkpt>
      <trkpt lat="43.27463" lon="2.30229">
        <ele>196.1</ele>
        <time>2022-04-17T06:35:21.000Z</time>
      </trkpt>
      <trkpt lat="43.27465" lon="2.3023">
        <ele>196.2</ele>
        <time>2022-04-17T06:35:22.000Z</time>
      </trkpt>
      <trkpt lat="43.27467" lon="2.30232">
        <ele>196.4</ele>
        <time>2022-04-17T06:35:23.000Z</time>
      </trkpt>
      <trkpt lat="43.27469" lon="2.30233">
        <ele>196.6</ele>
        <time>2022-04-17T06:35:24.000Z</time>
      </trkpt>
      <trkpt lat="43.27471" lon="2.30234">
        <ele>196.7</ele>
        <time>2022-04-17T06:35:25.000Z</time>
      </trkpt>
      <trkpt lat="43.27473" lon="2.30236">
        <ele>196.9</ele>
        <time>2022-04-17T06:35:26.000Z</time>
      </trkpt>
      <trkpt lat="43.27475" lon="2.30237">
        <ele>197</ele>
        <time>2022-04-17T06:35:27.000Z</time>
      </trkpt>
      <trkpt lat="43.27477" lon="2.30239">
        <ele>197.2</ele>
        <time>2022-04-17T06:35:28.000Z</time>
      </trkpt>
      <trkpt lat="43.27479" lon="2.30241">
        <ele>197.3</ele>
        <time>2022-04-17T06:35:29.000Z</time>
      </trkpt>
      <trkpt lat="43.2748" lon="2.30242">
        <ele>197.4</ele>
        <time>2022-04-17T06:35:30.000Z</time>
      </trkpt>
      <trkpt lat="43.27482" lon="2.30244">
        <ele>197.5</ele>
        <time>2022-04-17T06:35:31.000Z</time>
      </trkpt>
      <trkpt lat="43.27483" lon="2.30246">
        <ele>197.6</ele>
        <time>2022-04-17T06:35:32.000Z</time>
      </trkpt>
      <trkpt lat="43.27484" lon="2.30248">
        <ele>197.7</ele>
        <time>2022-04-17T06:35:33.000Z</time>
      </trkpt>
      <trkpt lat="43.27485" lon="2.30249">
        <ele>197.8</ele>
        <time>2022-04-17T06:35:34.000Z</time>
      </trkpt>
      <trkpt lat="43.27486" lon="2.30251">
        <ele>197.8</ele>
        <time>2022-04-17T06:35:35.000Z</time>
      </trkpt>
      <trkpt lat="43.27488" lon="2.30252">
        <ele>197.9</ele>
        <time>2022-04-17T06:35:36.000Z</time>
      </trkpt>
      <trkpt lat="43.27489" lon="2.30252">
        <ele>198</ele>
        <time>2022-04-17T06:35:37.000Z</time>
      </trkpt>
      <trkpt lat="43.27491" lon="2.30253">
        <ele>198.1</ele>
        <time>2022-04-17T06:35:38.000Z</time>
      </trkpt>
      <trkpt lat="43.27492" lon="2.30253">
        <ele>198.3</ele>
        <time>2022-04-17T06:35:39.000Z</time>
      </trkpt>
      <trkpt lat="43.27494" lon="2.30253">
        <ele>198.4</ele>
        <time>2022-04-17T06:35:40.000Z</time>
      </trkpt>
      <trkpt lat="43.27496" lon="2.30253">
        <ele>198.6</ele>
        <time>2022-04-17T06:35:41.000Z</time>
      </trkpt>
      <trkpt lat="43.27498" lon="2.30253">
        <ele>198.7</ele>
        <time>2022-04-17T06:35:42.000Z</time>
      </trkpt>
      <trkpt lat="43.275" lon="2.30253">
        <ele>198.9</ele>
        <time>2022-04-17T06:35:43.000Z</time>
      </trkpt>
      <trkpt lat="43.27502" lon="2.30252">
        <ele>199</ele>
        <time>2022-04-17T06:35:44.000Z</time>
      </trkpt>
      <trkpt lat="43.27504" lon="2.30252">
        <ele>199</ele>
        <time>2022-04-17T06:35:45.000Z</time>
      </trkpt>
      <trkpt lat="43.27506" lon="2.30252">
        <ele>199.1</ele>
        <time>2022-04-17T06:35:46.000Z</time>
      </trkpt>
      <trkpt lat="43.27508" lon="2.30251">
        <ele>199.2</ele>
        <time>2022-04-17T06:35:47.000Z</time>
      </trkpt>
      <trkpt lat="43.2751" lon="2.30251">
        <ele>199.2</ele>
        <time>2022-04-17T06:35:48.000Z</time>
      </trkpt>
      <trkpt lat="43.27512" lon="2.3025">
        <ele>199.3</ele>
        <time>2022-04-17T06:35:49.000Z</time>
      </trkpt>
      <trkpt lat="43.27515" lon="2.3025">
        <ele>199.3</ele>
        <time>2022-04-17T06:35:50.000Z</time>
      </trkpt>
      <trkpt lat="43.27517" lon="2.3025">
        <ele>199.4</ele>
        <time>2022-04-17T06:35:51.000Z</time>
      </trkpt>
      <trkpt lat="43.27519" lon="2.30249">
        <ele>199.5</ele>
        <time>2022-04-17T06:35:52.000Z</time>
      </trkpt>
      <trkpt lat="43.27521" lon="2.30249">
        <ele>199.5</ele>
        <time>2022-04-17T06:35:53.000Z</time>
      </trkpt>
      <trkpt lat="43.27523" lon="2.30248">
        <ele>199.6</ele>
        <time>2022-04-17T06:35:54.000Z</time>
      </trkpt>
      <trkpt lat="43.27525" lon="2.30248">
        <ele>199.6</ele>
        <time>2022-04-17T06:35:55.000Z</time>
      </trkpt>
      <trkpt lat="43.27527" lon="2.30247">
        <ele>199.7</ele>
        <time>2022-04-17T06:35:56.000Z</time>
      </trkpt>
      <trkpt lat="43.27529" lon="2.30246">
        <ele>199.7</ele>
        <time>2022-04-17T06:35:57.000Z</time>
      </trkpt>
      <trkpt lat="43.27531" lon="2.30246">
        <ele>199.8</ele>
        <time>2022-04-17T06:35:58.000Z</time>
      </trkpt>
      <trkpt lat="43.27534" lon="2.30245">
        <ele>199.9</ele>
        <time>2022-04-17T06:35:59.000Z</time>
      </trkpt>
      <trkpt lat="43.27536" lon="2.30245">
        <ele>199.9</ele>
        <time>2022-04-17T06:36:00.000Z</time>
      </trkpt>
      <trkpt lat="43.27538" lon="2.30245">
        <ele>200</ele>
        <time>2022-04-17T06:36:01.000Z</time>
      </trkpt>
      <trkpt lat="43.2754" lon="2.30244">
        <ele>200</ele>
        <time>2022-04-17T06:36:02.000Z</time>
      </trkpt>
      <trkpt lat="43.27542" lon="2.30244">
        <ele>200.1</ele>
        <time>2022-04-17T06:36:03.000Z</time>
      </trkpt>
      <trkpt lat="43.27545" lon="2.30244">
        <ele>200.1</ele>
        <time>2022-04-17T06:36:04.000Z</time>
      </trkpt>
      <trkpt lat="43.27547" lon="2.30244">
        <ele>200.2</ele>
        <time>2022-04-17T06:36:05.000Z</time>
      </trkpt>
      <trkpt lat="43.27549" lon="2.30245">
        <ele>200.2</ele>
        <time>2022-04-17T06:36:06.000Z</time>
      </trkpt>
      <trkpt lat="43.27551" lon="2.30245">
        <ele>200.3</ele>
        <time>2022-04-17T06:36:07.000Z</time>
      </trkpt>
      <trkpt lat="43.27553" lon="2.30246">
        <ele>200.3</ele>
        <time>2022-04-17T06:36:08.000Z</time>
      </trkpt>
      <trkpt lat="43.27555" lon="2.30247">
        <ele>200.4</ele>
        <time>2022-04-17T06:36:09.000Z</time>
      </trkpt>
      <trkpt lat="43.27557" lon="2.30248">
        <ele>200.4</ele>
        <time>2022-04-17T06:36:10.000Z</time>
      </trkpt>
      <trkpt lat="43.27558" lon="2.30249">
        <ele>200.4</ele>
        <time>2022-04-17T06:36:11.000Z</time>
      </trkpt>
      <trkpt lat="43.2756" lon="2.30251">
        <ele>200.4</ele>
        <time>2022-04-17T06:36:12.000Z</time>
      </trkpt>
      <trkpt lat="43.27562" lon="2.30252">
        <ele>200.5</ele>
        <time>2022-04-17T06:36:13.000Z</time>
      </trkpt>
      <trkpt lat="43.27564" lon="2.30253">
        <ele>200.5</ele>
        <time>2022-04-17T06:36:14.000Z</time>
      </trkpt>
      <trkpt lat="43.27566" lon="2.30255">
        <ele>200.5</ele>
        <time>2022-04-17T06:36:15.000Z</time>
      </trkpt>
      <trkpt lat="43.27568" lon="2.30256">
        <ele>200.5</ele>
        <time>2022-04-17T06:36:16.000Z</time>
      </trkpt>
      <trkpt lat="43.2757" lon="2.30258">
        <ele>200.6</ele>
        <time>2022-04-17T06:36:17.000Z</time>
      </trkpt>
      <trkpt lat="43.27571" lon="2.30259">
        <ele>200.6</ele>
        <time>2022-04-17T06:36:18.000Z</time>
      </trkpt>
      <trkpt lat="43.27573" lon="2.30261">
        <ele>200.6</ele>
        <time>2022-04-17T06:36:19.000Z</time>
      </trkpt>
      <trkpt lat="43.27575" lon="2.30262">
        <ele>200.6</ele>
        <time>2022-04-17T06:36:20.000Z</time>
      </trkpt>
      <trkpt lat="43.27577" lon="2.30264">
        <ele>200.7</ele>
        <time>2022-04-17T06:36:21.000Z</time>
      </trkpt>
      <trkpt lat="43.27578" lon="2.30266">
        <ele>200.7</ele>
        <time>2022-04-17T06:36:22.000Z</time>
      </trkpt>
      <trkpt lat="43.2758" lon="2.30268">
        <ele>200.7</ele>
        <time>2022-04-17T06:36:23.000Z</time>
      </trkpt>
      <trkpt lat="43.27581" lon="2.3027">
        <ele>200.7</ele>
        <time>2022-04-17T06:36:24.000Z</time>
      </trkpt>
      <trkpt lat="43.27582" lon="2.30272">
        <ele>200.7</ele>
        <time>2022-04-17T06:36:25.000Z</time>
      </trkpt>
      <trkpt lat="43.27583" lon="2.30274">
        <ele>200.7</ele>
        <time>2022-04-17T06:36:26.000Z</time>
      </trkpt>
      <trkpt lat="43.27584" lon="2.30277">
        <ele>200.7</ele>
        <time>2022-04-17T06:36:27.000Z</time>
      </trkpt>
      <trkpt lat="43.27585" lon="2.30279">
        <ele>200.7</ele>
        <time>2022-04-17T06:36:28.000Z</time>
      </trkpt>
      <trkpt lat="43.27585" lon="2.30281">
        <ele>200.7</ele>
        <time>2022-04-17T06:36:29.000Z</time>
      </trkpt>
      <trkpt lat="43.27586" lon="2.30284">
        <ele>200.7</ele>
        <time>2022-04-17T06:36:30.000Z</time>
      </trkpt>
      <trkpt lat="43.27586" lon="2.30286">
        <ele>200.7</ele>
        <time>2022-04-17T06:36:31.000Z</time>
      </trkpt>
      <trkpt lat="43.27586" lon="2.30289">
        <ele>200.7</ele>
        <time>2022-04-17T06:36:32.000Z</time>
      </trkpt>
      <trkpt lat="43.27586" lon="2.30292">
        <ele>200.6</ele>
        <time>2022-04-17T06:36:33.000Z</time>
      </trkpt>
      <trkpt lat="43.27586" lon="2.30294">
        <ele>200.6</ele>
        <time>2022-04-17T06:36:34.000Z</time>
      </trkpt>
      <trkpt lat="43.27585" lon="2.30297">
        <ele>200.5</ele>
        <time>2022-04-17T06:36:35.000Z</time>
      </trkpt>
      <trkpt lat="43.27585" lon="2.303">
        <ele>200.5</ele>
        <time>2022-04-17T06:36:36.000Z</time>
      </trkpt>
      <trkpt lat="43.27584" lon="2.30303">
        <ele>200.4</ele>
        <time>2022-04-17T06:36:37.000Z</time>
      </trkpt>
      <trkpt lat="43.27584" lon="2.30306">
        <ele>200.4</ele>
        <time>2022-04-17T06:36:38.000Z</time>
      </trkpt>
      <trkpt lat="43.27583" lon="2.30309">
        <ele>200.3</ele>
        <time>2022-04-17T06:36:39.000Z</time>
      </trkpt>
      <trkpt lat="43.27583" lon="2.30312">
        <ele>200.2</ele>
        <time>2022-04-17T06:36:40.000Z</time>
      </trkpt>
      <trkpt lat="43.27582" lon="2.30314">
        <ele>200.2</ele>
        <time>2022-04-17T06:36:41.000Z</time>
      </trkpt>
      <trkpt lat="43.27581" lon="2.30317">
        <ele>200.1</ele>
        <time>2022-04-17T06:36:42.000Z</time>
      </trkpt>
      <trkpt lat="43.27581" lon="2.3032">
        <ele>200.1</ele>
        <time>2022-04-17T06:36:43.000Z</time>
      </trkpt>
      <trkpt lat="43.2758" lon="2.30323">
        <ele>200</ele>
        <time>2022-04-17T06:36:44.000Z</time>
      </trkpt>
      <trkpt lat="43.27579" lon="2.30326">
        <ele>200</ele>
        <time>2022-04-17T06:36:45.000Z</time>
      </trkpt>
      <trkpt lat="43.27579" lon="2.30328">
        <ele>199.9</ele>
        <time>2022-04-17T06:36:46.000Z</time>
      </trkpt>
      <trkpt lat="43.27578" lon="2.30331">
        <ele>199.8</ele>
        <time>2022-04-17T06:36:47.000Z</time>
      </trkpt>
      <trkpt lat="43.27577" lon="2.30333">
        <ele>199.8</ele>
        <time>2022-04-17T06:36:48.000Z</time>
      </trkpt>
      <trkpt lat="43.27577" lon="2.30335">
        <ele>199.7</ele>
        <time>2022-04-17T06:36:49.000Z</time>
      </trkpt>
      <trkpt lat="43.27576" lon="2.30338">
        <ele>199.6</ele>
        <time>2022-04-17T06:36:50.000Z</time>
      </trkpt>
      <trkpt lat="43.27575" lon="2.3034">
        <ele>199.6</ele>
        <time>2022-04-17T06:36:51.000Z</time>
      </trkpt>
      <trkpt lat="43.27575" lon="2.30342">
        <ele>199.5</ele>
        <time>2022-04-17T06:36:52.000Z</time>
      </trkpt>
      <trkpt lat="43.27574" lon="2.30344">
        <ele>199.4</ele>
        <time>2022-04-17T06:36:53.000Z</time>
      </trkpt>
      <trkpt lat="43.27573" lon="2.30346">
        <ele>199.3</ele>
        <time>2022-04-17T06:36:54.000Z</time>
      </trkpt>
      <trkpt lat="43.27572" lon="2.30349">
        <ele>199.2</ele>
        <time>2022-04-17T06:36:55.000Z</time>
      </trkpt>
      <trkpt lat="43.27572" lon="2.30351">
        <ele>199.1</ele>
        <time>2022-04-17T06:36:56.000Z</time>
      </trkpt>
      <trkpt lat="43.27571" lon="2.30354">
        <ele>199</ele>
        <time>2022-04-17T06:36:57.000Z</time>
      </trkpt>
      <trkpt lat="43.2757" lon="2.30357">
        <ele>198.9</ele>
        <time>2022-04-17T06:36:58.000Z</time>
      </trkpt>
      <trkpt lat="43.27568" lon="2.3036">
        <ele>198.8</ele>
        <time>2022-04-17T06:36:59.000Z</time>
      </trkpt>
      <trkpt lat="43.27567" lon="2.30362">
        <ele>198.7</ele>
        <time>2022-04-17T06:37:00.000Z</time>
      </trkpt>
      <trkpt lat="43.27566" lon="2.30365">
        <ele>198.6</ele>
        <time>2022-04-17T06:37:01.000Z</time>
      </trkpt>
      <trkpt lat="43.27565" lon="2.30367">
        <ele>198.5</ele>
        <time>2022-04-17T06:37:02.000Z</time>
      </trkpt>
      <trkpt lat="43.27564" lon="2.30369">
        <ele>198.5</ele>
        <time>2022-04-17T06:37:03.000Z</time>
      </trkpt>
      <trkpt lat="43.27563" lon="2.30371">
        <ele>198.4</ele>
        <time>2022-04-17T06:37:04.000Z</time>
      </trkpt>
      <trkpt lat="43.27562" lon="2.30373">
        <ele>198.3</ele>
        <time>2022-04-17T06:37:05.000Z</time>
      </trkpt>
      <trkpt lat="43.27561" lon="2.30375">
        <ele>198.2</ele>
        <time>2022-04-17T06:37:06.000Z</time>
      </trkpt>
      <trkpt lat="43.2756" lon="2.30378">
        <ele>198.1</ele>
        <time>2022-04-17T06:37:07.000Z</time>
      </trkpt>
      <trkpt lat="43.2756" lon="2.3038">
        <ele>198</ele>
        <time>2022-04-17T06:37:08.000Z</time>
      </trkpt>
      <trkpt lat="43.27559" lon="2.30383">
        <ele>197.9</ele>
        <time>2022-04-17T06:37:09.000Z</time>
      </trkpt>
      <trkpt lat="43.27559" lon="2.30387">
        <ele>197.8</ele>
        <time>2022-04-17T06:37:10.000Z</time>
      </trkpt>
      <trkpt lat="43.27558" lon="2.3039">
        <ele>197.7</ele>
        <time>2022-04-17T06:37:11.000Z</time>
      </trkpt>
      <trkpt lat="43.27558" lon="2.30393">
        <ele>197.7</ele>
        <time>2022-04-17T06:37:12.000Z</time>
      </trkpt>
      <trkpt lat="43.27558" lon="2.30396">
        <ele>197.6</ele>
        <time>2022-04-17T06:37:13.000Z</time>
      </trkpt>
      <trkpt lat="43.27558" lon="2.30398">
        <ele>197.6</ele>
        <time>2022-04-17T06:37:14.000Z</time>
      </trkpt>
      <trkpt lat="43.27558" lon="2.30399">
        <ele>197.5</ele>
        <time>2022-04-17T06:37:15.000Z</time>
      </trkpt>
      <trkpt lat="43.27558" lon="2.304">
        <ele>197.5</ele>
        <time>2022-04-17T06:37:16.000Z</time>
      </trkpt>
      <trkpt lat="43.27559" lon="2.304">
        <ele>197.5</ele>
        <time>2022-04-17T06:37:17.000Z</time>
      </trkpt>
      <trkpt lat="43.27559" lon="2.304">
        <ele>197.5</ele>
        <time>2022-04-17T06:37:18.000Z</time>
      </trkpt>
      <trkpt lat="43.2756" lon="2.30401">
        <ele>197.5</ele>
        <time>2022-04-17T06:37:19.000Z</time>
      </trkpt>
      <trkpt lat="43.2756" lon="2.30402">
        <ele>197.5</ele>
        <time>2022-04-17T06:37:20.000Z</time>
      </trkpt>
      <trkpt lat="43.27561" lon="2.30403">
        <ele>197.5</ele>
        <time>2022-04-17T06:37:21.000Z</time>
      </trkpt>
      <trkpt lat="43.2756" lon="2.30405">
        <ele>197.5</ele>
        <time>2022-04-17T06:37:22.000Z</time>
      </trkpt>
      <trkpt lat="43.2756" lon="2.30407">
        <ele>197.4</ele>
        <time>2022-04-17T06:37:23.000Z</time>
      </trkpt>
      <trkpt lat="43.2756" lon="2.30409">
        <ele>197.3</ele>
        <time>2022-04-17T06:37:24.000Z</time>
      </trkpt>
      <trkpt lat="43.2756" lon="2.30412">
        <ele>197.3</ele>
        <time>2022-04-17T06:37:25.000Z</time>
      </trkpt>
      <trkpt lat="43.2756" lon="2.30414">
        <ele>197.2</ele>
        <time>2022-04-17T06:37:26.000Z</time>
      </trkpt>
      <trkpt lat="43.27561" lon="2.30417">
        <ele>197.2</ele>
        <time>2022-04-17T06:37:27.000Z</time>
      </trkpt>
      <trkpt lat="43.27562" lon="2.30421">
        <ele>197.1</ele>
        <time>2022-04-17T06:37:28.000Z</time>
      </trkpt>
      <trkpt lat="43.27563" lon="2.30424">
        <ele>197</ele>
        <time>2022-04-17T06:37:29.000Z</time>
      </trkpt>
      <trkpt lat="43.27563" lon="2.30427">
        <ele>196.9</ele>
        <time>2022-04-17T06:37:30.000Z</time>
      </trkpt>
      <trkpt lat="43.27564" lon="2.3043">
        <ele>196.8</ele>
        <time>2022-04-17T06:37:31.000Z</time>
      </trkpt>
      <trkpt lat="43.27566" lon="2.30433">
        <ele>196.7</ele>
        <time>2022-04-17T06:37:32.000Z</time>
      </trkpt>
      <trkpt lat="43.27567" lon="2.30436">
        <ele>196.7</ele>
        <time>2022-04-17T06:37:33.000Z</time>
      </trkpt>
      <trkpt lat="43.27568" lon="2.30438">
        <ele>196.6</ele>
        <time>2022-04-17T06:37:34.000Z</time>
      </trkpt>
      <trkpt lat="43.27569" lon="2.3044">
        <ele>196.6</ele>
        <time>2022-04-17T06:37:35.000Z</time>
      </trkpt>
      <trkpt lat="43.27571" lon="2.30442">
        <ele>196.6</ele>
        <time>2022-04-17T06:37:36.000Z</time>
      </trkpt>
      <trkpt lat="43.27572" lon="2.30443">
        <ele>196.6</ele>
        <time>2022-04-17T06:37:37.000Z</time>
      </trkpt>
      <trkpt lat="43.27574" lon="2.30444">
        <ele>196.6</ele>
        <time>2022-04-17T06:37:38.000Z</time>
      </trkpt>
      <trkpt lat="43.27575" lon="2.30446">
        <ele>196.6</ele>
        <time>2022-04-17T06:37:39.000Z</time>
      </trkpt>
      <trkpt lat="43.27577" lon="2.30447">
        <ele>196.7</ele>
        <time>2022-04-17T06:37:40.000Z</time>
      </trkpt>
      <trkpt lat="43.27579" lon="2.30448">
        <ele>196.7</ele>
        <time>2022-04-17T06:37:41.000Z</time>
      </trkpt>
      <trkpt lat="43.27581" lon="2.3045">
        <ele>196.7</ele>
        <time>2022-04-17T06:37:42.000Z</time>
      </trkpt>
      <trkpt lat="43.27583" lon="2.30451">
        <ele>196.7</ele>
        <time>2022-04-17T06:37:43.000Z</time>
      </trkpt>
      <trkpt lat="43.27585" lon="2.30453">
        <ele>196.8</ele>
        <time>2022-04-17T06:37:44.000Z</time>
      </trkpt>
      <trkpt lat="43.27587" lon="2.30455">
        <ele>196.8</ele>
        <time>2022-04-17T06:37:45.000Z</time>
      </trkpt>
      <trkpt lat="43.27589" lon="2.30457">
        <ele>196.8</ele>
        <time>2022-04-17T06:37:46.000Z</time>
      </trkpt>
      <trkpt lat="43.27591" lon="2.30459">
        <ele>196.9</ele>
        <time>2022-04-17T06:37:47.000Z</time>
      </trkpt>
      <trkpt lat="43.27593" lon="2.30461">
        <ele>196.9</ele>
        <time>2022-04-17T06:37:48.000Z</time>
      </trkpt>
      <trkpt lat="43.27595" lon="2.30463">
        <ele>196.9</ele>
        <time>2022-04-17T06:37:49.000Z</time>
      </trkpt>
      <trkpt lat="43.27597" lon="2.30465">
        <ele>196.9</ele>
        <time>2022-04-17T06:37:50.000Z</time>
      </trkpt>
      <trkpt lat="43.27599" lon="2.30467">
        <ele>196.9</ele>
        <time>2022-04-17T06:37:51.000Z</time>
      </trkpt>
      <trkpt lat="43.276" lon="2.30469">
        <ele>196.9</ele>
        <time>2022-04-17T06:37:52.000Z</time>
      </trkpt>
      <trkpt lat="43.27602" lon="2.30471">
        <ele>196.9</ele>
        <time>2022-04-17T06:37:53.000Z</time>
      </trkpt>
      <trkpt lat="43.27604" lon="2.30473">
        <ele>196.9</ele>
        <time>2022-04-17T06:37:54.000Z</time>
      </trkpt>
      <trkpt lat="43.27606" lon="2.30474">
        <ele>196.9</ele>
        <time>2022-04-17T06:37:55.000Z</time>
      </trkpt>
      <trkpt lat="43.27608" lon="2.30475">
        <ele>197</ele>
        <time>2022-04-17T06:37:56.000Z</time>
      </trkpt>
      <trkpt lat="43.2761" lon="2.30476">
        <ele>197</ele>
        <time>2022-04-17T06:37:57.000Z</time>
      </trkpt>
      <trkpt lat="43.27612" lon="2.30477">
        <ele>197</ele>
        <time>2022-04-17T06:37:58.000Z</time>
      </trkpt>
      <trkpt lat="43.27613" lon="2.30479">
        <ele>197</ele>
        <time>2022-04-17T06:37:59.000Z</time>
      </trkpt>
      <trkpt lat="43.27615" lon="2.30481">
        <ele>197</ele>
        <time>2022-04-17T06:38:00.000Z</time>
      </trkpt>
      <trkpt lat="43.27617" lon="2.30483">
        <ele>197</ele>
        <time>2022-04-17T06:38:01.000Z</time>
      </trkpt>
      <trkpt lat="43.27619" lon="2.30485">
        <ele>197</ele>
        <time>2022-04-17T06:38:02.000Z</time>
      </trkpt>
      <trkpt lat="43.27621" lon="2.30488">
        <ele>196.9</ele>
        <time>2022-04-17T06:38:03.000Z</time>
      </trkpt>
      <trkpt lat="43.27622" lon="2.3049">
        <ele>196.9</ele>
        <time>2022-04-17T06:38:04.000Z</time>
      </trkpt>
      <trkpt lat="43.27624" lon="2.30493">
        <ele>196.8</ele>
        <time>2022-04-17T06:38:05.000Z</time>
      </trkpt>
      <trkpt lat="43.27625" lon="2.30496">
        <ele>196.7</ele>
        <time>2022-04-17T06:38:06.000Z</time>
      </trkpt>
      <trkpt lat="43.27627" lon="2.30498">
        <ele>196.7</ele>
        <time>2022-04-17T06:38:07.000Z</time>
      </trkpt>
      <trkpt lat="43.27628" lon="2.30501">
        <ele>196.6</ele>
        <time>2022-04-17T06:38:08.000Z</time>
      </trkpt>
      <trkpt lat="43.2763" lon="2.30503">
        <ele>196.6</ele>
        <time>2022-04-17T06:38:09.000Z</time>
      </trkpt>
      <trkpt lat="43.27631" lon="2.30505">
        <ele>196.6</ele>
        <time>2022-04-17T06:38:10.000Z</time>
      </trkpt>
      <trkpt lat="43.27632" lon="2.30507">
        <ele>196.6</ele>
        <time>2022-04-17T06:38:11.000Z</time>
      </trkpt>
      <trkpt lat="43.27634" lon="2.30509">
        <ele>196.6</ele>
        <time>2022-04-17T06:38:12.000Z</time>
      </trkpt>
      <trkpt lat="43.27636" lon="2.30511">
        <ele>196.6</ele>
        <time>2022-04-17T06:38:13.000Z</time>
      </trkpt>
      <trkpt lat="43.27637" lon="2.30512">
        <ele>196.7</ele>
        <time>2022-04-17T06:38:14.000Z</time>
      </trkpt>
      <trkpt lat="43.27639" lon="2.30514">
        <ele>196.7</ele>
        <time>2022-04-17T06:38:15.000Z</time>
      </trkpt>
      <trkpt lat="43.27641" lon="2.30515">
        <ele>196.7</ele>
        <time>2022-04-17T06:38:16.000Z</time>
      </trkpt>
      <trkpt lat="43.27643" lon="2.30517">
        <ele>196.7</ele>
        <time>2022-04-17T06:38:17.000Z</time>
      </trkpt>
      <trkpt lat="43.27645" lon="2.3052">
        <ele>196.7</ele>
        <time>2022-04-17T06:38:18.000Z</time>
      </trkpt>
      <trkpt lat="43.27646" lon="2.30523">
        <ele>196.7</ele>
        <time>2022-04-17T06:38:19.000Z</time>
      </trkpt>
      <trkpt lat="43.27647" lon="2.30525">
        <ele>196.7</ele>
        <time>2022-04-17T06:38:20.000Z</time>
      </trkpt>
      <trkpt lat="43.27649" lon="2.30527">
        <ele>196.7</ele>
        <time>2022-04-17T06:38:21.000Z</time>
      </trkpt>
      <trkpt lat="43.2765" lon="2.30528">
        <ele>196.7</ele>
        <time>2022-04-17T06:38:22.000Z</time>
      </trkpt>
      <trkpt lat="43.27651" lon="2.30528">
        <ele>196.8</ele>
        <time>2022-04-17T06:38:23.000Z</time>
      </trkpt>
      <trkpt lat="43.27652" lon="2.30529">
        <ele>196.8</ele>
        <time>2022-04-17T06:38:24.000Z</time>
      </trkpt>
      <trkpt lat="43.27652" lon="2.30529">
        <ele>196.8</ele>
        <time>2022-04-17T06:38:25.000Z</time>
      </trkpt>
      <trkpt lat="43.27652" lon="2.30529">
        <ele>196.8</ele>
        <time>2022-04-17T06:38:26.000Z</time>
      </trkpt>
      <trkpt lat="43.27652" lon="2.30529">
        <ele>196.8</ele>
        <time>2022-04-17T06:38:27.000Z</time>
      </trkpt>
      <trkpt lat="43.27652" lon="2.30529">
        <ele>196.8</ele>
        <time>2022-04-17T06:38:28.000Z</time>
      </trkpt>
      <trkpt lat="43.27652" lon="2.30529">
        <ele>196.8</ele>
        <time>2022-04-17T06:38:29.000Z</time>
      </trkpt>
      <trkpt lat="43.27652" lon="2.30529">
        <ele>196.8</ele>
        <time>2022-04-17T06:38:30.000Z</time>
      </trkpt>
      <trkpt lat="43.27652" lon="2.30529">
        <ele>196.8</ele>
        <time>2022-04-17T06:38:31.000Z</time>
      </trkpt>
      <trkpt lat="43.27652" lon="2.30529">
        <ele>196.8</ele>
        <time>2022-04-17T06:38:32.000Z</time>
      </trkpt>
      <trkpt lat="43.27652" lon="2.30529">
        <ele>196.8</ele>
        <time>2022-04-17T06:38:33.000Z</time>
      </trkpt>
      <trkpt lat="43.27652" lon="2.30529">
        <ele>196.8</ele>
        <time>2022-04-17T06:38:34.000Z</time>
      </trkpt>
      <trkpt lat="43.27652" lon="2.30529">
        <ele>196.8</ele>
        <time>2022-04-17T06:38:35.000Z</time>
      </trkpt>
      <trkpt lat="43.27652" lon="2.30529">
        <ele>196.8</ele>
        <time>2022-04-17T06:38:36.000Z</time>
      </trkpt>
      <trkpt lat="43.27652" lon="2.30529">
        <ele>196.8</ele>
        <time>2022-04-17T06:38:37.000Z</time>
      </trkpt>
      <trkpt lat="43.27652" lon="2.30529">
        <ele>196.8</ele>
        <time>2022-04-17T06:38:38.000Z</time>
      </trkpt>
      <trkpt lat="43.27652" lon="2.30529">
        <ele>196.8</ele>
        <time>2022-04-17T06:38:39.000Z</time>
      </trkpt>
      <trkpt lat="43.27652" lon="2.30529">
        <ele>196.8</ele>
        <time>2022-04-17T06:38:40.000Z</time>
      </trkpt>
      <trkpt lat="43.27652" lon="2.3053">
        <ele>196.8</ele>
        <time>2022-04-17T06:38:41.000Z</time>
      </trkpt>
      <trkpt lat="43.27653" lon="2.3053">
        <ele>196.8</ele>
        <time>2022-04-17T06:38:42.000Z</time>
      </trkpt>
      <trkpt lat="43.27653" lon="2.30531">
        <ele>196.8</ele>
        <time>2022-04-17T06:38:43.000Z</time>
      </trkpt>
      <trkpt lat="43.27654" lon="2.30531">
        <ele>196.8</ele>
        <time>2022-04-17T06:38:44.000Z</time>
      </trkpt>
      <trkpt lat="43.27655" lon="2.30532">
        <ele>196.8</ele>
        <time>2022-04-17T06:38:45.000Z</time>
      </trkpt>
      <trkpt lat="43.27656" lon="2.30533">
        <ele>196.9</ele>
        <time>2022-04-17T06:38:46.000Z</time>
      </trkpt>
      <trkpt lat="43.27658" lon="2.30534">
        <ele>196.9</ele>
        <time>2022-04-17T06:38:47.000Z</time>
      </trkpt>
      <trkpt lat="43.27659" lon="2.30535">
        <ele>196.9</ele>
        <time>2022-04-17T06:38:48.000Z</time>
      </trkpt>
      <trkpt lat="43.2766" lon="2.30537">
        <ele>196.9</ele>
        <time>2022-04-17T06:38:49.000Z</time>
      </trkpt>
      <trkpt lat="43.2766" lon="2.30539">
        <ele>196.8</ele>
        <time>2022-04-17T06:38:50.000Z</time>
      </trkpt>
      <trkpt lat="43.27661" lon="2.30541">
        <ele>196.8</ele>
        <time>2022-04-17T06:38:51.000Z</time>
      </trkpt>
      <trkpt lat="43.27662" lon="2.30543">
        <ele>196.8</ele>
        <time>2022-04-17T06:38:52.000Z</time>
      </trkpt>
      <trkpt lat="43.27662" lon="2.30545">
        <ele>196.8</ele>
        <time>2022-04-17T06:38:53.000Z</time>
      </trkpt>
      <trkpt lat="43.27663" lon="2.30547">
        <ele>196.7</ele>
        <time>2022-04-17T06:38:54.000Z</time>
      </trkpt>
      <trkpt lat="43.27663" lon="2.30549">
        <ele>196.7</ele>
        <time>2022-04-17T06:38:55.000Z</time>
      </trkpt>
      <trkpt lat="43.27663" lon="2.30552">
        <ele>196.6</ele>
        <time>2022-04-17T06:38:56.000Z</time>
      </trkpt>
      <trkpt lat="43.27664" lon="2.30554">
        <ele>196.6</ele>
        <time>2022-04-17T06:38:57.000Z</time>
      </trkpt>
      <trkpt lat="43.27664" lon="2.30556">
        <ele>196.6</ele>
        <time>2022-04-17T06:38:58.000Z</time>
      </trkpt>
      <trkpt lat="43.27664" lon="2.30558">
        <ele>196.5</ele>
        <time>2022-04-17T06:38:59.000Z</time>
      </trkpt>
      <trkpt lat="43.27664" lon="2.3056">
        <ele>196.5</ele>
        <time>2022-04-17T06:39:00.000Z</time>
      </trkpt>
      <trkpt lat="43.27665" lon="2.30562">
        <ele>196.4</ele>
        <time>2022-04-17T06:39:01.000Z</time>
      </trkpt>
      <trkpt lat="43.27665" lon="2.30563">
        <ele>196.4</ele>
        <time>2022-04-17T06:39:02.000Z</time>
      </trkpt>
      <trkpt lat="43.27665" lon="2.30565">
        <ele>196.4</ele>
        <time>2022-04-17T06:39:03.000Z</time>
      </trkpt>
      <trkpt lat="43.27665" lon="2.30567">
        <ele>196.3</ele>
        <time>2022-04-17T06:39:04.000Z</time>
      </trkpt>
      <trkpt lat="43.27665" lon="2.30569">
        <ele>196.3</ele>
        <time>2022-04-17T06:39:05.000Z</time>
      </trkpt>
      <trkpt lat="43.27664" lon="2.30571">
        <ele>196.2</ele>
        <time>2022-04-17T06:39:06.000Z</time>
      </trkpt>
      <trkpt lat="43.27664" lon="2.30573">
        <ele>196.2</ele>
        <time>2022-04-17T06:39:07.000Z</time>
      </trkpt>
      <trkpt lat="43.27664" lon="2.30575">
        <ele>196.1</ele>
        <time>2022-04-17T06:39:08.000Z</time>
      </trkpt>
      <trkpt lat="43.27663" lon="2.30577">
        <ele>196</ele>
        <time>2022-04-17T06:39:09.000Z</time>
      </trkpt>
      <trkpt lat="43.27663" lon="2.30578">
        <ele>196</ele>
        <time>2022-04-17T06:39:10.000Z</time>
      </trkpt>
      <trkpt lat="43.27663" lon="2.3058">
        <ele>195.9</ele>
        <time>2022-04-17T06:39:11.000Z</time>
      </trkpt>
      <trkpt lat="43.27663" lon="2.30582">
        <ele>195.9</ele>
        <time>2022-04-17T06:39:12.000Z</time>
      </trkpt>
      <trkpt lat="43.27662" lon="2.30584">
        <ele>195.8</ele>
        <time>2022-04-17T06:39:13.000Z</time>
      </trkpt>
      <trkpt lat="43.27662" lon="2.30586">
        <ele>195.8</ele>
        <time>2022-04-17T06:39:14.000Z</time>
      </trkpt>
      <trkpt lat="43.27662" lon="2.30587">
        <ele>195.8</ele>
        <time>2022-04-17T06:39:15.000Z</time>
      </trkpt>
      <trkpt lat="43.27663" lon="2.30589">
        <ele>195.8</ele>
        <time>2022-04-17T06:39:16.000Z</time>
      </trkpt>
      <trkpt lat="43.27663" lon="2.30591">
        <ele>195.8</ele>
        <time>2022-04-17T06:39:17.000Z</time>
      </trkpt>
      <trkpt lat="43.27663" lon="2.30593">
        <ele>195.7</ele>
        <time>2022-04-17T06:39:18.000Z</time>
      </trkpt>
      <trkpt lat="43.27663" lon="2.30594">
        <ele>195.7</ele>
        <time>2022-04-17T06:39:19.000Z</time>
      </trkpt>
      <trkpt lat="43.27663" lon="2.30596">
        <ele>195.7</ele>
        <time>2022-04-17T06:39:20.000Z</time>
      </trkpt>
      <trkpt lat="43.27663" lon="2.30598">
        <ele>195.7</ele>
        <time>2022-04-17T06:39:21.000Z</time>
      </trkpt>
      <trkpt lat="43.27663" lon="2.30599">
        <ele>195.7</ele>
        <time>2022-04-17T06:39:22.000Z</time>
      </trkpt>
      <trkpt lat="43.27663" lon="2.30601">
        <ele>195.7</ele>
        <time>2022-04-17T06:39:23.000Z</time>
      </trkpt>
      <trkpt lat="43.27663" lon="2.30602">
        <ele>195.6</ele>
        <time>2022-04-17T06:39:24.000Z</time>
      </trkpt>
      <trkpt lat="43.27663" lon="2.30604">
        <ele>195.6</ele>
        <time>2022-04-17T06:39:25.000Z</time>
      </trkpt>
      <trkpt lat="43.27663" lon="2.30606">
        <ele>195.6</ele>
        <time>2022-04-17T06:39:26.000Z</time>
      </trkpt>
      <trkpt lat="43.27663" lon="2.30607">
        <ele>195.5</ele>
        <time>2022-04-17T06:39:27.000Z</time>
      </trkpt>
      <trkpt lat="43.27662" lon="2.30609">
        <ele>195.5</ele>
        <time>2022-04-17T06:39:28.000Z</time>
      </trkpt>
      <trkpt lat="43.27662" lon="2.3061">
        <ele>195.5</ele>
        <time>2022-04-17T06:39:29.000Z</time>
      </trkpt>
      <trkpt lat="43.27661" lon="2.30612">
        <ele>195.4</ele>
        <time>2022-04-17T06:39:30.000Z</time>
      </trkpt>
      <trkpt lat="43.27661" lon="2.30613">
        <ele>195.4</ele>
        <time>2022-04-17T06:39:31.000Z</time>
      </trkpt>
      <trkpt lat="43.27661" lon="2.30615">
        <ele>195.3</ele>
        <time>2022-04-17T06:39:32.000Z</time>
      </trkpt>
      <trkpt lat="43.2766" lon="2.30617">
        <ele>195.3</ele>
        <time>2022-04-17T06:39:33.000Z</time>
      </trkpt>
      <trkpt lat="43.2766" lon="2.30618">
        <ele>195.3</ele>
        <time>2022-04-17T06:39:34.000Z</time>
      </trkpt>
      <trkpt lat="43.2766" lon="2.3062">
        <ele>195.2</ele>
        <time>2022-04-17T06:39:35.000Z</time>
      </trkpt>
      <trkpt lat="43.27659" lon="2.30622">
        <ele>195.2</ele>
        <time>2022-04-17T06:39:36.000Z</time>
      </trkpt>
      <trkpt lat="43.27659" lon="2.30623">
        <ele>195.2</ele>
        <time>2022-04-17T06:39:37.000Z</time>
      </trkpt>
      <trkpt lat="43.27659" lon="2.30625">
        <ele>195.1</ele>
        <time>2022-04-17T06:39:38.000Z</time>
      </trkpt>
      <trkpt lat="43.27659" lon="2.30627">
        <ele>195.1</ele>
        <time>2022-04-17T06:39:39.000Z</time>
      </trkpt>
      <trkpt lat="43.27659" lon="2.30628">
        <ele>195.1</ele>
        <time>2022-04-17T06:39:40.000Z</time>
      </trkpt>
      <trkpt lat="43.27658" lon="2.3063">
        <ele>195</ele>
        <time>2022-04-17T06:39:41.000Z</time>
      </trkpt>
      <trkpt lat="43.27658" lon="2.30632">
        <ele>195</ele>
        <time>2022-04-17T06:39:42.000Z</time>
      </trkpt>
      <trkpt lat="43.27658" lon="2.30633">
        <ele>195</ele>
        <time>2022-04-17T06:39:43.000Z</time>
      </trkpt>
      <trkpt lat="43.27658" lon="2.30635">
        <ele>194.9</ele>
        <time>2022-04-17T06:39:44.000Z</time>
      </trkpt>
      <trkpt lat="43.27658" lon="2.30637">
        <ele>194.9</ele>
        <time>2022-04-17T06:39:45.000Z</time>
      </trkpt>
      <trkpt lat="43.27658" lon="2.30639">
        <ele>194.9</ele>
        <time>2022-04-17T06:39:46.000Z</time>
      </trkpt>
      <trkpt lat="43.27658" lon="2.3064">
        <ele>194.8</ele>
        <time>2022-04-17T06:39:47.000Z</time>
      </trkpt>
      <trkpt lat="43.27658" lon="2.30642">
        <ele>194.8</ele>
        <time>2022-04-17T06:39:48.000Z</time>
      </trkpt>
      <trkpt lat="43.27657" lon="2.30644">
        <ele>194.8</ele>
        <time>2022-04-17T06:39:49.000Z</time>
      </trkpt>
      <trkpt lat="43.27657" lon="2.30645">
        <ele>194.7</ele>
        <time>2022-04-17T06:39:50.000Z</time>
      </trkpt>
      <trkpt lat="43.27657" lon="2.30647">
        <ele>194.7</ele>
        <time>2022-04-17T06:39:51.000Z</time>
      </trkpt>
      <trkpt lat="43.27657" lon="2.30649">
        <ele>194.7</ele>
        <time>2022-04-17T06:39:52.000Z</time>
      </trkpt>
      <trkpt lat="43.27656" lon="2.30651">
        <ele>194.6</ele>
        <time>2022-04-17T06:39:53.000Z</time>
      </trkpt>
      <trkpt lat="43.27656" lon="2.30652">
        <ele>194.6</ele>
        <time>2022-04-17T06:39:54.000Z</time>
      </trkpt>
      <trkpt lat="43.27656" lon="2.30655">
        <ele>194.5</ele>
        <time>2022-04-17T06:39:55.000Z</time>
      </trkpt>
      <trkpt lat="43.27655" lon="2.30657">
        <ele>194.5</ele>
        <time>2022-04-17T06:39:56.000Z</time>
      </trkpt>
      <trkpt lat="43.27655" lon="2.30659">
        <ele>194.4</ele>
        <time>2022-04-17T06:39:57.000Z</time>
      </trkpt>
      <trkpt lat="43.27655" lon="2.30662">
        <ele>194.4</ele>
        <time>2022-04-17T06:39:58.000Z</time>
      </trkpt>
      <trkpt lat="43.27655" lon="2.30665">
        <ele>194.3</ele>
        <time>2022-04-17T06:39:59.000Z</time>
      </trkpt>
      <trkpt lat="43.27655" lon="2.30669">
        <ele>194.2</ele>
        <time>2022-04-17T06:40:00.000Z</time>
      </trkpt>
      <trkpt lat="43.27655" lon="2.30672">
        <ele>193.9</ele>
        <time>2022-04-17T06:40:01.000Z</time>
      </trkpt>
      <trkpt lat="43.27655" lon="2.30676">
        <ele>193.7</ele>
        <time>2022-04-17T06:40:02.000Z</time>
      </trkpt>
      <trkpt lat="43.27656" lon="2.30679">
        <ele>193.5</ele>
        <time>2022-04-17T06:40:03.000Z</time>
      </trkpt>
      <trkpt lat="43.27657" lon="2.30682">
        <ele>193.3</ele>
        <time>2022-04-17T06:40:04.000Z</time>
      </trkpt>
      <trkpt lat="43.27658" lon="2.30685">
        <ele>193.1</ele>
        <time>2022-04-17T06:40:05.000Z</time>
      </trkpt>
      <trkpt lat="43.27659" lon="2.30688">
        <ele>193</ele>
        <time>2022-04-17T06:40:06.000Z</time>
      </trkpt>
      <trkpt lat="43.27661" lon="2.3069">
        <ele>193</ele>
        <time>2022-04-17T06:40:07.000Z</time>
      </trkpt>
      <trkpt lat="43.27663" lon="2.30692">
        <ele>193</ele>
        <time>2022-04-17T06:40:08.000Z</time>
      </trkpt>
      <trkpt lat="43.27665" lon="2.30693">
        <ele>193</ele>
        <time>2022-04-17T06:40:09.000Z</time>
      </trkpt>
      <trkpt lat="43.27667" lon="2.30695">
        <ele>193</ele>
        <time>2022-04-17T06:40:10.000Z</time>
      </trkpt>
      <trkpt lat="43.27669" lon="2.30696">
        <ele>193</ele>
        <time>2022-04-17T06:40:11.000Z</time>
      </trkpt>
      <trkpt lat="43.27671" lon="2.30697">
        <ele>193</ele>
        <time>2022-04-17T06:40:12.000Z</time>
      </trkpt>
      <trkpt lat="43.27674" lon="2.30698">
        <ele>193</ele>
        <time>2022-04-17T06:40:13.000Z</time>
      </trkpt>
      <trkpt lat="43.27676" lon="2.30698">
        <ele>193.1</ele>
        <time>2022-04-17T06:40:14.000Z</time>
      </trkpt>
      <trkpt lat="43.27678" lon="2.30699">
        <ele>193.1</ele>
        <time>2022-04-17T06:40:15.000Z</time>
      </trkpt>
      <trkpt lat="43.2768" lon="2.30701">
        <ele>193.1</ele>
        <time>2022-04-17T06:40:16.000Z</time>
      </trkpt>
      <trkpt lat="43.27682" lon="2.30702">
        <ele>193.1</ele>
        <time>2022-04-17T06:40:17.000Z</time>
      </trkpt>
      <trkpt lat="43.27684" lon="2.30704">
        <ele>193</ele>
        <time>2022-04-17T06:40:18.000Z</time>
      </trkpt>
      <trkpt lat="43.27686" lon="2.30707">
        <ele>192.9</ele>
        <time>2022-04-17T06:40:19.000Z</time>
      </trkpt>
      <trkpt lat="43.27687" lon="2.3071">
        <ele>192.8</ele>
        <time>2022-04-17T06:40:20.000Z</time>
      </trkpt>
      <trkpt lat="43.27688" lon="2.30713">
        <ele>192.6</ele>
        <time>2022-04-17T06:40:21.000Z</time>
      </trkpt>
      <trkpt lat="43.27689" lon="2.30716">
        <ele>192.5</ele>
        <time>2022-04-17T06:40:22.000Z</time>
      </trkpt>
      <trkpt lat="43.2769" lon="2.30719">
        <ele>192.3</ele>
        <time>2022-04-17T06:40:23.000Z</time>
      </trkpt>
      <trkpt lat="43.27691" lon="2.30722">
        <ele>192.2</ele>
        <time>2022-04-17T06:40:24.000Z</time>
      </trkpt>
      <trkpt lat="43.27693" lon="2.30725">
        <ele>192.1</ele>
        <time>2022-04-17T06:40:25.000Z</time>
      </trkpt>
      <trkpt lat="43.27694" lon="2.30726">
        <ele>192.1</ele>
        <time>2022-04-17T06:40:26.000Z</time>
      </trkpt>
      <trkpt lat="43.27696" lon="2.30728">
        <ele>192.1</ele>
        <time>2022-04-17T06:40:27.000Z</time>
      </trkpt>
      <trkpt lat="43.27698" lon="2.30729">
        <ele>192.1</ele>
        <time>2022-04-17T06:40:28.000Z</time>
      </trkpt>
      <trkpt lat="43.277" lon="2.3073">
        <ele>192.2</ele>
        <time>2022-04-17T06:40:29.000Z</time>
      </trkpt>
      <trkpt lat="43.27702" lon="2.3073">
        <ele>192.3</ele>
        <time>2022-04-17T06:40:30.000Z</time>
      </trkpt>
      <trkpt lat="43.27704" lon="2.3073">
        <ele>192.4</ele>
        <time>2022-04-17T06:40:31.000Z</time>
      </trkpt>
      <trkpt lat="43.27707" lon="2.3073">
        <ele>192.5</ele>
        <time>2022-04-17T06:40:32.000Z</time>
      </trkpt>
      <trkpt lat="43.27709" lon="2.30729">
        <ele>192.7</ele>
        <time>2022-04-17T06:40:33.000Z</time>
      </trkpt>
      <trkpt lat="43.27712" lon="2.30729">
        <ele>192.8</ele>
        <time>2022-04-17T06:40:34.000Z</time>
      </trkpt>
      <trkpt lat="43.27714" lon="2.30728">
        <ele>193</ele>
        <time>2022-04-17T06:40:35.000Z</time>
      </trkpt>
      <trkpt lat="43.27716" lon="2.30728">
        <ele>193.1</ele>
        <time>2022-04-17T06:40:36.000Z</time>
      </trkpt>
      <trkpt lat="43.27719" lon="2.30728">
        <ele>193.2</ele>
        <time>2022-04-17T06:40:37.000Z</time>
      </trkpt>
      <trkpt lat="43.27721" lon="2.30728">
        <ele>193.4</ele>
        <time>2022-04-17T06:40:38.000Z</time>
      </trkpt>
      <trkpt lat="43.27724" lon="2.30728">
        <ele>193.5</ele>
        <time>2022-04-17T06:40:39.000Z</time>
      </trkpt>
      <trkpt lat="43.27726" lon="2.30728">
        <ele>193.6</ele>
        <time>2022-04-17T06:40:40.000Z</time>
      </trkpt>
      <trkpt lat="43.27729" lon="2.30728">
        <ele>193.7</ele>
        <time>2022-04-17T06:40:41.000Z</time>
      </trkpt>
      <trkpt lat="43.27731" lon="2.30728">
        <ele>193.8</ele>
        <time>2022-04-17T06:40:42.000Z</time>
      </trkpt>
      <trkpt lat="43.27733" lon="2.30728">
        <ele>193.9</ele>
        <time>2022-04-17T06:40:43.000Z</time>
      </trkpt>
      <trkpt lat="43.27736" lon="2.30728">
        <ele>194</ele>
        <time>2022-04-17T06:40:44.000Z</time>
      </trkpt>
      <trkpt lat="43.27738" lon="2.30728">
        <ele>194.2</ele>
        <time>2022-04-17T06:40:45.000Z</time>
      </trkpt>
      <trkpt lat="43.2774" lon="2.30728">
        <ele>194.3</ele>
        <time>2022-04-17T06:40:46.000Z</time>
      </trkpt>
      <trkpt lat="43.27743" lon="2.30728">
        <ele>194.4</ele>
        <time>2022-04-17T06:40:47.000Z</time>
      </trkpt>
      <trkpt lat="43.27745" lon="2.30729">
        <ele>194.5</ele>
        <time>2022-04-17T06:40:48.000Z</time>
      </trkpt>
      <trkpt lat="43.27747" lon="2.30729">
        <ele>194.6</ele>
        <time>2022-04-17T06:40:49.000Z</time>
      </trkpt>
      <trkpt lat="43.27749" lon="2.30729">
        <ele>194.7</ele>
        <time>2022-04-17T06:40:50.000Z</time>
      </trkpt>
      <trkpt lat="43.27751" lon="2.30731">
        <ele>194.8</ele>
        <time>2022-04-17T06:40:51.000Z</time>
      </trkpt>
      <trkpt lat="43.27753" lon="2.30732">
        <ele>194.9</ele>
        <time>2022-04-17T06:40:52.000Z</time>
      </trkpt>
      <trkpt lat="43.27754" lon="2.30734">
        <ele>195</ele>
        <time>2022-04-17T06:40:53.000Z</time>
      </trkpt>
      <trkpt lat="43.27756" lon="2.30736">
        <ele>195.1</ele>
        <time>2022-04-17T06:40:54.000Z</time>
      </trkpt>
      <trkpt lat="43.27757" lon="2.30739">
        <ele>195.2</ele>
        <time>2022-04-17T06:40:55.000Z</time>
      </trkpt>
      <trkpt lat="43.27758" lon="2.30742">
        <ele>195.2</ele>
        <time>2022-04-17T06:40:56.000Z</time>
      </trkpt>
      <trkpt lat="43.27759" lon="2.30745">
        <ele>195.2</ele>
        <time>2022-04-17T06:40:57.000Z</time>
      </trkpt>
      <trkpt lat="43.2776" lon="2.30748">
        <ele>195.2</ele>
        <time>2022-04-17T06:40:58.000Z</time>
      </trkpt>
      <trkpt lat="43.27761" lon="2.30751">
        <ele>195.1</ele>
        <time>2022-04-17T06:40:59.000Z</time>
      </trkpt>
      <trkpt lat="43.27761" lon="2.30754">
        <ele>195.1</ele>
        <time>2022-04-17T06:41:00.000Z</time>
      </trkpt>
      <trkpt lat="43.27761" lon="2.30757">
        <ele>195</ele>
        <time>2022-04-17T06:41:01.000Z</time>
      </trkpt>
      <trkpt lat="43.27762" lon="2.30761">
        <ele>194.9</ele>
        <time>2022-04-17T06:41:02.000Z</time>
      </trkpt>
      <trkpt lat="43.27762" lon="2.30764">
        <ele>194.8</ele>
        <time>2022-04-17T06:41:03.000Z</time>
      </trkpt>
      <trkpt lat="43.27762" lon="2.30768">
        <ele>194.7</ele>
        <time>2022-04-17T06:41:04.000Z</time>
      </trkpt>
      <trkpt lat="43.27762" lon="2.30771">
        <ele>194.6</ele>
        <time>2022-04-17T06:41:05.000Z</time>
      </trkpt>
      <trkpt lat="43.27762" lon="2.30775">
        <ele>194.5</ele>
        <time>2022-04-17T06:41:06.000Z</time>
      </trkpt>
      <trkpt lat="43.27762" lon="2.30778">
        <ele>194.4</ele>
        <time>2022-04-17T06:41:07.000Z</time>
      </trkpt>
      <trkpt lat="43.27762" lon="2.30782">
        <ele>194.3</ele>
        <time>2022-04-17T06:41:08.000Z</time>
      </trkpt>
      <trkpt lat="43.27762" lon="2.30785">
        <ele>194.2</ele>
        <time>2022-04-17T06:41:09.000Z</time>
      </trkpt>
      <trkpt lat="43.27763" lon="2.30788">
        <ele>194.2</ele>
        <time>2022-04-17T06:41:10.000Z</time>
      </trkpt>
      <trkpt lat="43.27763" lon="2.30792">
        <ele>194.1</ele>
        <time>2022-04-17T06:41:11.000Z</time>
      </trkpt>
      <trkpt lat="43.27763" lon="2.30795">
        <ele>194</ele>
        <time>2022-04-17T06:41:12.000Z</time>
      </trkpt>
      <trkpt lat="43.27763" lon="2.30798">
        <ele>193.9</ele>
        <time>2022-04-17T06:41:13.000Z</time>
      </trkpt>
      <trkpt lat="43.27763" lon="2.30802">
        <ele>193.8</ele>
        <time>2022-04-17T06:41:14.000Z</time>
      </trkpt>
      <trkpt lat="43.27763" lon="2.30805">
        <ele>193.7</ele>
        <time>2022-04-17T06:41:15.000Z</time>
      </trkpt>
      <trkpt lat="43.27764" lon="2.30808">
        <ele>193.6</ele>
        <time>2022-04-17T06:41:16.000Z</time>
      </trkpt>
      <trkpt lat="43.27764" lon="2.30812">
        <ele>193.5</ele>
        <time>2022-04-17T06:41:17.000Z</time>
      </trkpt>
      <trkpt lat="43.27764" lon="2.30815">
        <ele>193.4</ele>
        <time>2022-04-17T06:41:18.000Z</time>
      </trkpt>
      <trkpt lat="43.27764" lon="2.30818">
        <ele>193.3</ele>
        <time>2022-04-17T06:41:19.000Z</time>
      </trkpt>
      <trkpt lat="43.27764" lon="2.30821">
        <ele>193.2</ele>
        <time>2022-04-17T06:41:20.000Z</time>
      </trkpt>
      <trkpt lat="43.27765" lon="2.30825">
        <ele>193.2</ele>
        <time>2022-04-17T06:41:21.000Z</time>
      </trkpt>
      <trkpt lat="43.27765" lon="2.30828">
        <ele>193.1</ele>
        <time>2022-04-17T06:41:22.000Z</time>
      </trkpt>
      <trkpt lat="43.27765" lon="2.30831">
        <ele>193</ele>
        <time>2022-04-17T06:41:23.000Z</time>
      </trkpt>
      <trkpt lat="43.27766" lon="2.30835">
        <ele>192.8</ele>
        <time>2022-04-17T06:41:24.000Z</time>
      </trkpt>
      <trkpt lat="43.27766" lon="2.30838">
        <ele>192.6</ele>
        <time>2022-04-17T06:41:25.000Z</time>
      </trkpt>
      <trkpt lat="43.27766" lon="2.30842">
        <ele>192.3</ele>
        <time>2022-04-17T06:41:26.000Z</time>
      </trkpt>
      <trkpt lat="43.27767" lon="2.30845">
        <ele>192.1</ele>
        <time>2022-04-17T06:41:27.000Z</time>
      </trkpt>
      <trkpt lat="43.27767" lon="2.30849">
        <ele>191.8</ele>
        <time>2022-04-17T06:41:28.000Z</time>
      </trkpt>
      <trkpt lat="43.27768" lon="2.30852">
        <ele>191.6</ele>
        <time>2022-04-17T06:41:29.000Z</time>
      </trkpt>
      <trkpt lat="43.27768" lon="2.30856">
        <ele>191.3</ele>
        <time>2022-04-17T06:41:30.000Z</time>
      </trkpt>
      <trkpt lat="43.27768" lon="2.30859">
        <ele>191</ele>
        <time>2022-04-17T06:41:31.000Z</time>
      </trkpt>
      <trkpt lat="43.27769" lon="2.30863">
        <ele>190.8</ele>
        <time>2022-04-17T06:41:32.000Z</time>
      </trkpt>
      <trkpt lat="43.27769" lon="2.30866">
        <ele>190.5</ele>
        <time>2022-04-17T06:41:33.000Z</time>
      </trkpt>
      <trkpt lat="43.27769" lon="2.3087">
        <ele>190.2</ele>
        <time>2022-04-17T06:41:34.000Z</time>
      </trkpt>
      <trkpt lat="43.2777" lon="2.30873">
        <ele>190</ele>
        <time>2022-04-17T06:41:35.000Z</time>
      </trkpt>
      <trkpt lat="43.2777" lon="2.30877">
        <ele>189.7</ele>
        <time>2022-04-17T06:41:36.000Z</time>
      </trkpt>
      <trkpt lat="43.2777" lon="2.3088">
        <ele>189.4</ele>
        <time>2022-04-17T06:41:37.000Z</time>
      </trkpt>
      <trkpt lat="43.27771" lon="2.30884">
        <ele>189.2</ele>
        <time>2022-04-17T06:41:38.000Z</time>
      </trkpt>
      <trkpt lat="43.27771" lon="2.30887">
        <ele>188.9</ele>
        <time>2022-04-17T06:41:39.000Z</time>
      </trkpt>
      <trkpt lat="43.27771" lon="2.30891">
        <ele>188.6</ele>
        <time>2022-04-17T06:41:40.000Z</time>
      </trkpt>
      <trkpt lat="43.27771" lon="2.30894">
        <ele>188.3</ele>
        <time>2022-04-17T06:41:41.000Z</time>
      </trkpt>
      <trkpt lat="43.27772" lon="2.30898">
        <ele>188.1</ele>
        <time>2022-04-17T06:41:42.000Z</time>
      </trkpt>
      <trkpt lat="43.27772" lon="2.30901">
        <ele>187.8</ele>
        <time>2022-04-17T06:41:43.000Z</time>
      </trkpt>
      <trkpt lat="43.27772" lon="2.30904">
        <ele>187.5</ele>
        <time>2022-04-17T06:41:44.000Z</time>
      </trkpt>
      <trkpt lat="43.27772" lon="2.30908">
        <ele>187.3</ele>
        <time>2022-04-17T06:41:45.000Z</time>
      </trkpt>
      <trkpt lat="43.27773" lon="2.30911">
        <ele>187</ele>
        <time>2022-04-17T06:41:46.000Z</time>
      </trkpt>
      <trkpt lat="43.27773" lon="2.30914">
        <ele>186.8</ele>
        <time>2022-04-17T06:41:47.000Z</time>
      </trkpt>
      <trkpt lat="43.27773" lon="2.30917">
        <ele>186.5</ele>
        <time>2022-04-17T06:41:48.000Z</time>
      </trkpt>
      <trkpt lat="43.27773" lon="2.30921">
        <ele>186.3</ele>
        <time>2022-04-17T06:41:49.000Z</time>
      </trkpt>
      <trkpt lat="43.27774" lon="2.30924">
        <ele>186.1</ele>
        <time>2022-04-17T06:41:50.000Z</time>
      </trkpt>
      <trkpt lat="43.27774" lon="2.30927">
        <ele>185.8</ele>
        <time>2022-04-17T06:41:51.000Z</time>
      </trkpt>
      <trkpt lat="43.27774" lon="2.30931">
        <ele>185.6</ele>
        <time>2022-04-17T06:41:52.000Z</time>
      </trkpt>
      <trkpt lat="43.27774" lon="2.30934">
        <ele>185.4</ele>
        <time>2022-04-17T06:41:53.000Z</time>
      </trkpt>
      <trkpt lat="43.27774" lon="2.30937">
        <ele>185.2</ele>
        <time>2022-04-17T06:41:54.000Z</time>
      </trkpt>
      <trkpt lat="43.27774" lon="2.30941">
        <ele>184.9</ele>
        <time>2022-04-17T06:41:55.000Z</time>
      </trkpt>
      <trkpt lat="43.27773" lon="2.30944">
        <ele>184.7</ele>
        <time>2022-04-17T06:41:56.000Z</time>
      </trkpt>
      <trkpt lat="43.27773" lon="2.30948">
        <ele>184.4</ele>
        <time>2022-04-17T06:41:57.000Z</time>
      </trkpt>
      <trkpt lat="43.27773" lon="2.30951">
        <ele>184.2</ele>
        <time>2022-04-17T06:41:58.000Z</time>
      </trkpt>
      <trkpt lat="43.27773" lon="2.30955">
        <ele>183.9</ele>
        <time>2022-04-17T06:41:59.000Z</time>
      </trkpt>
      <trkpt lat="43.27772" lon="2.30958">
        <ele>183.7</ele>
        <time>2022-04-17T06:42:00.000Z</time>
      </trkpt>
      <trkpt lat="43.27772" lon="2.30962">
        <ele>183.4</ele>
        <time>2022-04-17T06:42:01.000Z</time>
      </trkpt>
      <trkpt lat="43.27772" lon="2.30966">
        <ele>183.1</ele>
        <time>2022-04-17T06:42:02.000Z</time>
      </trkpt>
      <trkpt lat="43.27771" lon="2.30969">
        <ele>182.9</ele>
        <time>2022-04-17T06:42:03.000Z</time>
      </trkpt>
      <trkpt lat="43.27771" lon="2.30973">
        <ele>182.6</ele>
        <time>2022-04-17T06:42:04.000Z</time>
      </trkpt>
      <trkpt lat="43.27771" lon="2.30977">
        <ele>182.4</ele>
        <time>2022-04-17T06:42:05.000Z</time>
      </trkpt>
      <trkpt lat="43.27771" lon="2.3098">
        <ele>182.1</ele>
        <time>2022-04-17T06:42:06.000Z</time>
      </trkpt>
      <trkpt lat="43.27771" lon="2.30984">
        <ele>181.9</ele>
        <time>2022-04-17T06:42:07.000Z</time>
      </trkpt>
      <trkpt lat="43.2777" lon="2.30987">
        <ele>181.6</ele>
        <time>2022-04-17T06:42:08.000Z</time>
      </trkpt>
      <trkpt lat="43.2777" lon="2.30991">
        <ele>181.4</ele>
        <time>2022-04-17T06:42:09.000Z</time>
      </trkpt>
      <trkpt lat="43.2777" lon="2.30994">
        <ele>181.1</ele>
        <time>2022-04-17T06:42:10.000Z</time>
      </trkpt>
      <trkpt lat="43.2777" lon="2.30998">
        <ele>180.9</ele>
        <time>2022-04-17T06:42:11.000Z</time>
      </trkpt>
      <trkpt lat="43.2777" lon="2.31002">
        <ele>180.6</ele>
        <time>2022-04-17T06:42:12.000Z</time>
      </trkpt>
      <trkpt lat="43.2777" lon="2.31005">
        <ele>180.3</ele>
        <time>2022-04-17T06:42:13.000Z</time>
      </trkpt>
      <trkpt lat="43.2777" lon="2.31009">
        <ele>180</ele>
        <time>2022-04-17T06:42:14.000Z</time>
      </trkpt>
      <trkpt lat="43.2777" lon="2.31012">
        <ele>179.7</ele>
        <time>2022-04-17T06:42:15.000Z</time>
      </trkpt>
      <trkpt lat="43.2777" lon="2.31016">
        <ele>179.4</ele>
        <time>2022-04-17T06:42:16.000Z</time>
      </trkpt>
      <trkpt lat="43.2777" lon="2.3102">
        <ele>179.1</ele>
        <time>2022-04-17T06:42:17.000Z</time>
      </trkpt>
      <trkpt lat="43.27769" lon="2.31023">
        <ele>178.8</ele>
        <time>2022-04-17T06:42:18.000Z</time>
      </trkpt>
      <trkpt lat="43.27769" lon="2.31027">
        <ele>178.4</ele>
        <time>2022-04-17T06:42:19.000Z</time>
      </trkpt>
      <trkpt lat="43.27769" lon="2.31031">
        <ele>178.1</ele>
        <time>2022-04-17T06:42:20.000Z</time>
      </trkpt>
      <trkpt lat="43.27769" lon="2.31034">
        <ele>177.8</ele>
        <time>2022-04-17T06:42:21.000Z</time>
      </trkpt>
      <trkpt lat="43.27768" lon="2.31038">
        <ele>177.5</ele>
        <time>2022-04-17T06:42:22.000Z</time>
      </trkpt>
      <trkpt lat="43.27768" lon="2.31042">
        <ele>177.1</ele>
        <time>2022-04-17T06:42:23.000Z</time>
      </trkpt>
      <trkpt lat="43.27767" lon="2.31045">
        <ele>176.8</ele>
        <time>2022-04-17T06:42:24.000Z</time>
      </trkpt>
      <trkpt lat="43.27767" lon="2.31049">
        <ele>176.5</ele>
        <time>2022-04-17T06:42:25.000Z</time>
      </trkpt>
      <trkpt lat="43.27767" lon="2.31053">
        <ele>176.2</ele>
        <time>2022-04-17T06:42:26.000Z</time>
      </trkpt>
      <trkpt lat="43.27766" lon="2.31057">
        <ele>175.8</ele>
        <time>2022-04-17T06:42:27.000Z</time>
      </trkpt>
      <trkpt lat="43.27766" lon="2.3106">
        <ele>175.5</ele>
        <time>2022-04-17T06:42:28.000Z</time>
      </trkpt>
      <trkpt lat="43.27766" lon="2.31064">
        <ele>175.2</ele>
        <time>2022-04-17T06:42:29.000Z</time>
      </trkpt>
      <trkpt lat="43.27765" lon="2.31068">
        <ele>174.9</ele>
        <time>2022-04-17T06:42:30.000Z</time>
      </trkpt>
      <trkpt lat="43.27765" lon="2.31071">
        <ele>174.5</ele>
        <time>2022-04-17T06:42:31.000Z</time>
      </trkpt>
      <trkpt lat="43.27765" lon="2.31075">
        <ele>174.2</ele>
        <time>2022-04-17T06:42:32.000Z</time>
      </trkpt>
      <trkpt lat="43.27764" lon="2.31079">
        <ele>173.9</ele>
        <time>2022-04-17T06:42:33.000Z</time>
      </trkpt>
      <trkpt lat="43.27764" lon="2.31083">
        <ele>173.6</ele>
        <time>2022-04-17T06:42:34.000Z</time>
      </trkpt>
      <trkpt lat="43.27764" lon="2.31086">
        <ele>173.4</ele>
        <time>2022-04-17T06:42:35.000Z</time>
      </trkpt>
      <trkpt lat="43.27764" lon="2.3109">
        <ele>173.2</ele>
        <time>2022-04-17T06:42:36.000Z</time>
      </trkpt>
      <trkpt lat="43.27763" lon="2.31094">
        <ele>173.1</ele>
        <time>2022-04-17T06:42:37.000Z</time>
      </trkpt>
      <trkpt lat="43.27763" lon="2.31098">
        <ele>172.9</ele>
        <time>2022-04-17T06:42:38.000Z</time>
      </trkpt>
      <trkpt lat="43.27763" lon="2.31102">
        <ele>172.8</ele>
        <time>2022-04-17T06:42:39.000Z</time>
      </trkpt>
      <trkpt lat="43.27763" lon="2.31105">
        <ele>172.6</ele>
        <time>2022-04-17T06:42:40.000Z</time>
      </trkpt>
      <trkpt lat="43.27763" lon="2.31109">
        <ele>172.5</ele>
        <time>2022-04-17T06:42:41.000Z</time>
      </trkpt>
      <trkpt lat="43.27762" lon="2.31113">
        <ele>172.3</ele>
        <time>2022-04-17T06:42:42.000Z</time>
      </trkpt>
      <trkpt lat="43.27762" lon="2.31117">
        <ele>172.2</ele>
        <time>2022-04-17T06:42:43.000Z</time>
      </trkpt>
      <trkpt lat="43.27762" lon="2.31121">
        <ele>172</ele>
        <time>2022-04-17T06:42:44.000Z</time>
      </trkpt>
      <trkpt lat="43.27761" lon="2.31124">
        <ele>171.9</ele>
        <time>2022-04-17T06:42:45.000Z</time>
      </trkpt>
      <trkpt lat="43.2776" lon="2.31128">
        <ele>171.7</ele>
        <time>2022-04-17T06:42:46.000Z</time>
      </trkpt>
      <trkpt lat="43.2776" lon="2.31131">
        <ele>171.6</ele>
        <time>2022-04-17T06:42:47.000Z</time>
      </trkpt>
      <trkpt lat="43.27759" lon="2.31134">
        <ele>171.4</ele>
        <time>2022-04-17T06:42:48.000Z</time>
      </trkpt>
      <trkpt lat="43.27757" lon="2.31137">
        <ele>171.3</ele>
        <time>2022-04-17T06:42:49.000Z</time>
      </trkpt>
      <trkpt lat="43.27756" lon="2.31139">
        <ele>171.2</ele>
        <time>2022-04-17T06:42:50.000Z</time>
      </trkpt>
      <trkpt lat="43.27754" lon="2.31141">
        <ele>171</ele>
        <time>2022-04-17T06:42:51.000Z</time>
      </trkpt>
      <trkpt lat="43.27753" lon="2.31143">
        <ele>170.9</ele>
        <time>2022-04-17T06:42:52.000Z</time>
      </trkpt>
      <trkpt lat="43.27751" lon="2.31144">
        <ele>170.8</ele>
        <time>2022-04-17T06:42:53.000Z</time>
      </trkpt>
      <trkpt lat="43.2775" lon="2.31146">
        <ele>170.7</ele>
        <time>2022-04-17T06:42:54.000Z</time>
      </trkpt>
      <trkpt lat="43.27748" lon="2.31147">
        <ele>170.6</ele>
        <time>2022-04-17T06:42:55.000Z</time>
      </trkpt>
      <trkpt lat="43.27748" lon="2.31148">
        <ele>170.6</ele>
        <time>2022-04-17T06:42:56.000Z</time>
      </trkpt>
      <trkpt lat="43.27747" lon="2.31149">
        <ele>170.5</ele>
        <time>2022-04-17T06:42:57.000Z</time>
      </trkpt>
      <trkpt lat="43.27747" lon="2.3115">
        <ele>170.5</ele>
        <time>2022-04-17T06:42:58.000Z</time>
      </trkpt>
      <trkpt lat="43.27747" lon="2.31151">
        <ele>170.5</ele>
        <time>2022-04-17T06:42:59.000Z</time>
      </trkpt>
      <trkpt lat="43.27748" lon="2.31152">
        <ele>170.4</ele>
        <time>2022-04-17T06:43:00.000Z</time>
      </trkpt>
      <trkpt lat="43.27748" lon="2.31153">
        <ele>170.4</ele>
        <time>2022-04-17T06:43:01.000Z</time>
      </trkpt>
      <trkpt lat="43.27748" lon="2.31154">
        <ele>170.4</ele>
        <time>2022-04-17T06:43:02.000Z</time>
      </trkpt>
      <trkpt lat="43.27749" lon="2.31155">
        <ele>170.3</ele>
        <time>2022-04-17T06:43:03.000Z</time>
      </trkpt>
      <trkpt lat="43.27749" lon="2.31157">
        <ele>170.3</ele>
        <time>2022-04-17T06:43:04.000Z</time>
      </trkpt>
      <trkpt lat="43.27749" lon="2.31159">
        <ele>170.2</ele>
        <time>2022-04-17T06:43:05.000Z</time>
      </trkpt>
      <trkpt lat="43.27749" lon="2.3116">
        <ele>170.2</ele>
        <time>2022-04-17T06:43:06.000Z</time>
      </trkpt>
      <trkpt lat="43.27749" lon="2.31162">
        <ele>170.1</ele>
        <time>2022-04-17T06:43:07.000Z</time>
      </trkpt>
      <trkpt lat="43.27749" lon="2.31164">
        <ele>170.1</ele>
        <time>2022-04-17T06:43:08.000Z</time>
      </trkpt>
      <trkpt lat="43.27749" lon="2.31165">
        <ele>170</ele>
        <time>2022-04-17T06:43:09.000Z</time>
      </trkpt>
      <trkpt lat="43.27749" lon="2.31167">
        <ele>170</ele>
        <time>2022-04-17T06:43:10.000Z</time>
      </trkpt>
      <trkpt lat="43.27749" lon="2.31168">
        <ele>170</ele>
        <time>2022-04-17T06:43:11.000Z</time>
      </trkpt>
      <trkpt lat="43.27749" lon="2.3117">
        <ele>170</ele>
        <time>2022-04-17T06:43:12.000Z</time>
      </trkpt>
      <trkpt lat="43.27749" lon="2.31172">
        <ele>170.1</ele>
        <time>2022-04-17T06:43:13.000Z</time>
      </trkpt>
      <trkpt lat="43.27749" lon="2.31173">
        <ele>170.1</ele>
        <time>2022-04-17T06:43:14.000Z</time>
      </trkpt>
      <trkpt lat="43.27749" lon="2.31175">
        <ele>170.1</ele>
        <time>2022-04-17T06:43:15.000Z</time>
      </trkpt>
      <trkpt lat="43.27748" lon="2.31178">
        <ele>170.2</ele>
        <time>2022-04-17T06:43:16.000Z</time>
      </trkpt>
      <trkpt lat="43.27748" lon="2.3118">
        <ele>170.2</ele>
        <time>2022-04-17T06:43:17.000Z</time>
      </trkpt>
      <trkpt lat="43.27747" lon="2.31182">
        <ele>170.2</ele>
        <time>2022-04-17T06:43:18.000Z</time>
      </trkpt>
      <trkpt lat="43.27747" lon="2.31185">
        <ele>170.3</ele>
        <time>2022-04-17T06:43:19.000Z</time>
      </trkpt>
      <trkpt lat="43.27746" lon="2.31188">
        <ele>170.3</ele>
        <time>2022-04-17T06:43:20.000Z</time>
      </trkpt>
      <trkpt lat="43.27746" lon="2.31191">
        <ele>170.3</ele>
        <time>2022-04-17T06:43:21.000Z</time>
      </trkpt>
      <trkpt lat="43.27745" lon="2.31194">
        <ele>170.4</ele>
        <time>2022-04-17T06:43:22.000Z</time>
      </trkpt>
      <trkpt lat="43.27744" lon="2.31197">
        <ele>170.4</ele>
        <time>2022-04-17T06:43:23.000Z</time>
      </trkpt>
      <trkpt lat="43.27743" lon="2.312">
        <ele>170.4</ele>
        <time>2022-04-17T06:43:24.000Z</time>
      </trkpt>
      <trkpt lat="43.27742" lon="2.31203">
        <ele>170.4</ele>
        <time>2022-04-17T06:43:25.000Z</time>
      </trkpt>
      <trkpt lat="43.27741" lon="2.31206">
        <ele>170.4</ele>
        <time>2022-04-17T06:43:26.000Z</time>
      </trkpt>
      <trkpt lat="43.2774" lon="2.31209">
        <ele>170.4</ele>
        <time>2022-04-17T06:43:27.000Z</time>
      </trkpt>
      <trkpt lat="43.27739" lon="2.31211">
        <ele>170.4</ele>
        <time>2022-04-17T06:43:28.000Z</time>
      </trkpt>
      <trkpt lat="43.27739" lon="2.31213">
        <ele>170.4</ele>
        <time>2022-04-17T06:43:29.000Z</time>
      </trkpt>
      <trkpt lat="43.27738" lon="2.31215">
        <ele>170.4</ele>
        <time>2022-04-17T06:43:30.000Z</time>
      </trkpt>
      <trkpt lat="43.27738" lon="2.31216">
        <ele>170.4</ele>
        <time>2022-04-17T06:43:31.000Z</time>
      </trkpt>
      <trkpt lat="43.27738" lon="2.31218">
        <ele>170.4</ele>
        <time>2022-04-17T06:43:32.000Z</time>
      </trkpt>
      <trkpt lat="43.27737" lon="2.31219">
        <ele>170.5</ele>
        <time>2022-04-17T06:43:33.000Z</time>
      </trkpt>
      <trkpt lat="43.27737" lon="2.31221">
        <ele>170.5</ele>
        <time>2022-04-17T06:43:34.000Z</time>
      </trkpt>
      <trkpt lat="43.27738" lon="2.31222">
        <ele>170.5</ele>
        <time>2022-04-17T06:43:35.000Z</time>
      </trkpt>
      <trkpt lat="43.27738" lon="2.31223">
        <ele>170.6</ele>
        <time>2022-04-17T06:43:36.000Z</time>
      </trkpt>
      <trkpt lat="43.27738" lon="2.31224">
        <ele>170.6</ele>
        <time>2022-04-17T06:43:37.000Z</time>
      </trkpt>
      <trkpt lat="43.27739" lon="2.31225">
        <ele>170.7</ele>
        <time>2022-04-17T06:43:38.000Z</time>
      </trkpt>
      <trkpt lat="43.27739" lon="2.31226">
        <ele>170.7</ele>
        <time>2022-04-17T06:43:39.000Z</time>
      </trkpt>
      <trkpt lat="43.2774" lon="2.31227">
        <ele>170.8</ele>
        <time>2022-04-17T06:43:40.000Z</time>
      </trkpt>
      <trkpt lat="43.27741" lon="2.31227">
        <ele>170.8</ele>
        <time>2022-04-17T06:43:41.000Z</time>
      </trkpt>
      <trkpt lat="43.27741" lon="2.31228">
        <ele>170.9</ele>
        <time>2022-04-17T06:43:42.000Z</time>
      </trkpt>
      <trkpt lat="43.27742" lon="2.31228">
        <ele>171</ele>
        <time>2022-04-17T06:43:43.000Z</time>
      </trkpt>
      <trkpt lat="43.27743" lon="2.31229">
        <ele>171.1</ele>
        <time>2022-04-17T06:43:44.000Z</time>
      </trkpt>
      <trkpt lat="43.27744" lon="2.3123">
        <ele>171.1</ele>
        <time>2022-04-17T06:43:45.000Z</time>
      </trkpt>
      <trkpt lat="43.27745" lon="2.3123">
        <ele>171.2</ele>
        <time>2022-04-17T06:43:46.000Z</time>
      </trkpt>
      <trkpt lat="43.27746" lon="2.31231">
        <ele>171.3</ele>
        <time>2022-04-17T06:43:47.000Z</time>
      </trkpt>
      <trkpt lat="43.27747" lon="2.31232">
        <ele>171.4</ele>
        <time>2022-04-17T06:43:48.000Z</time>
      </trkpt>
      <trkpt lat="43.27748" lon="2.31233">
        <ele>171.4</ele>
        <time>2022-04-17T06:43:49.000Z</time>
      </trkpt>
      <trkpt lat="43.27748" lon="2.31234">
        <ele>171.5</ele>
        <time>2022-04-17T06:43:50.000Z</time>
      </trkpt>
      <trkpt lat="43.27749" lon="2.31236">
        <ele>171.6</ele>
        <time>2022-04-17T06:43:51.000Z</time>
      </trkpt>
      <trkpt lat="43.27749" lon="2.31238">
        <ele>171.6</ele>
        <time>2022-04-17T06:43:52.000Z</time>
      </trkpt>
      <trkpt lat="43.27749" lon="2.31239">
        <ele>171.7</ele>
        <time>2022-04-17T06:43:53.000Z</time>
      </trkpt>
      <trkpt lat="43.27749" lon="2.31241">
        <ele>171.7</ele>
        <time>2022-04-17T06:43:54.000Z</time>
      </trkpt>
      <trkpt lat="43.27749" lon="2.31243">
        <ele>171.7</ele>
        <time>2022-04-17T06:43:55.000Z</time>
      </trkpt>
      <trkpt lat="43.27749" lon="2.31244">
        <ele>171.8</ele>
        <time>2022-04-17T06:43:56.000Z</time>
      </trkpt>
      <trkpt lat="43.27749" lon="2.31246">
        <ele>171.8</ele>
        <time>2022-04-17T06:43:57.000Z</time>
      </trkpt>
      <trkpt lat="43.27749" lon="2.31247">
        <ele>171.8</ele>
        <time>2022-04-17T06:43:58.000Z</time>
      </trkpt>
      <trkpt lat="43.27749" lon="2.31249">
        <ele>171.9</ele>
        <time>2022-04-17T06:43:59.000Z</time>
      </trkpt>
      <trkpt lat="43.27749" lon="2.31251">
        <ele>171.9</ele>
        <time>2022-04-17T06:44:00.000Z</time>
      </trkpt>
      <trkpt lat="43.27749" lon="2.31253">
        <ele>172</ele>
        <time>2022-04-17T06:44:01.000Z</time>
      </trkpt>
      <trkpt lat="43.27749" lon="2.31255">
        <ele>172.1</ele>
        <time>2022-04-17T06:44:02.000Z</time>
      </trkpt>
      <trkpt lat="43.2775" lon="2.31257">
        <ele>172.2</ele>
        <time>2022-04-17T06:44:03.000Z</time>
      </trkpt>
      <trkpt lat="43.2775" lon="2.31259">
        <ele>172.3</ele>
        <time>2022-04-17T06:44:04.000Z</time>
      </trkpt>
      <trkpt lat="43.27751" lon="2.31262">
        <ele>172.4</ele>
        <time>2022-04-17T06:44:05.000Z</time>
      </trkpt>
      <trkpt lat="43.27752" lon="2.31265">
        <ele>172.6</ele>
        <time>2022-04-17T06:44:06.000Z</time>
      </trkpt>
      <trkpt lat="43.27753" lon="2.31267">
        <ele>172.7</ele>
        <time>2022-04-17T06:44:07.000Z</time>
      </trkpt>
      <trkpt lat="43.27753" lon="2.3127">
        <ele>172.7</ele>
        <time>2022-04-17T06:44:08.000Z</time>
      </trkpt>
      <trkpt lat="43.27754" lon="2.31272">
        <ele>172.8</ele>
        <time>2022-04-17T06:44:09.000Z</time>
      </trkpt>
      <trkpt lat="43.27755" lon="2.31274">
        <ele>172.9</ele>
        <time>2022-04-17T06:44:10.000Z</time>
      </trkpt>
      <trkpt lat="43.27756" lon="2.31276">
        <ele>173</ele>
        <time>2022-04-17T06:44:11.000Z</time>
      </trkpt>
      <trkpt lat="43.27756" lon="2.31279">
        <ele>173.1</ele>
        <time>2022-04-17T06:44:12.000Z</time>
      </trkpt>
      <trkpt lat="43.27757" lon="2.31281">
        <ele>173.2</ele>
        <time>2022-04-17T06:44:13.000Z</time>
      </trkpt>
      <trkpt lat="43.27758" lon="2.31284">
        <ele>173.3</ele>
        <time>2022-04-17T06:44:14.000Z</time>
      </trkpt>
      <trkpt lat="43.27758" lon="2.31286">
        <ele>173.4</ele>
        <time>2022-04-17T06:44:15.000Z</time>
      </trkpt>
      <trkpt lat="43.27759" lon="2.31289">
        <ele>173.6</ele>
        <time>2022-04-17T06:44:16.000Z</time>
      </trkpt>
      <trkpt lat="43.27759" lon="2.31292">
        <ele>173.7</ele>
        <time>2022-04-17T06:44:17.000Z</time>
      </trkpt>
      <trkpt lat="43.2776" lon="2.31295">
        <ele>173.8</ele>
        <time>2022-04-17T06:44:18.000Z</time>
      </trkpt>
      <trkpt lat="43.27761" lon="2.31298">
        <ele>173.9</ele>
        <time>2022-04-17T06:44:19.000Z</time>
      </trkpt>
      <trkpt lat="43.27761" lon="2.31301">
        <ele>174.1</ele>
        <time>2022-04-17T06:44:20.000Z</time>
      </trkpt>
      <trkpt lat="43.27762" lon="2.31304">
        <ele>174.2</ele>
        <time>2022-04-17T06:44:21.000Z</time>
      </trkpt>
      <trkpt lat="43.27762" lon="2.31307">
        <ele>174.3</ele>
        <time>2022-04-17T06:44:22.000Z</time>
      </trkpt>
      <trkpt lat="43.27763" lon="2.3131">
        <ele>174.4</ele>
        <time>2022-04-17T06:44:23.000Z</time>
      </trkpt>
      <trkpt lat="43.27763" lon="2.31313">
        <ele>174.5</ele>
        <time>2022-04-17T06:44:24.000Z</time>
      </trkpt>
      <trkpt lat="43.27764" lon="2.31315">
        <ele>174.6</ele>
        <time>2022-04-17T06:44:25.000Z</time>
      </trkpt>
      <trkpt lat="43.27764" lon="2.31318">
        <ele>174.8</ele>
        <time>2022-04-17T06:44:26.000Z</time>
      </trkpt>
      <trkpt lat="43.27765" lon="2.31321">
        <ele>174.9</ele>
        <time>2022-04-17T06:44:27.000Z</time>
      </trkpt>
      <trkpt lat="43.27766" lon="2.31324">
        <ele>175</ele>
        <time>2022-04-17T06:44:28.000Z</time>
      </trkpt>
      <trkpt lat="43.27766" lon="2.31327">
        <ele>175.2</ele>
        <time>2022-04-17T06:44:29.000Z</time>
      </trkpt>
      <trkpt lat="43.27767" lon="2.3133">
        <ele>175.3</ele>
        <time>2022-04-17T06:44:30.000Z</time>
      </trkpt>
      <trkpt lat="43.27768" lon="2.31333">
        <ele>175.4</ele>
        <time>2022-04-17T06:44:31.000Z</time>
      </trkpt>
      <trkpt lat="43.27769" lon="2.31336">
        <ele>175.3</ele>
        <time>2022-04-17T06:44:32.000Z</time>
      </trkpt>
      <trkpt lat="43.2777" lon="2.31338">
        <ele>175.2</ele>
        <time>2022-04-17T06:44:33.000Z</time>
      </trkpt>
      <trkpt lat="43.27771" lon="2.31341">
        <ele>175.1</ele>
        <time>2022-04-17T06:44:34.000Z</time>
      </trkpt>
      <trkpt lat="43.27772" lon="2.31342">
        <ele>175</ele>
        <time>2022-04-17T06:44:35.000Z</time>
      </trkpt>
      <trkpt lat="43.27773" lon="2.31344">
        <ele>175</ele>
        <time>2022-04-17T06:44:36.000Z</time>
      </trkpt>
      <trkpt lat="43.27774" lon="2.31345">
        <ele>175</ele>
        <time>2022-04-17T06:44:37.000Z</time>
      </trkpt>
      <trkpt lat="43.27776" lon="2.31346">
        <ele>174.9</ele>
        <time>2022-04-17T06:44:38.000Z</time>
      </trkpt>
      <trkpt lat="43.27777" lon="2.31347">
        <ele>174.9</ele>
        <time>2022-04-17T06:44:39.000Z</time>
      </trkpt>
      <trkpt lat="43.27779" lon="2.31348">
        <ele>175</ele>
        <time>2022-04-17T06:44:40.000Z</time>
      </trkpt>
      <trkpt lat="43.27781" lon="2.31349">
        <ele>175</ele>
        <time>2022-04-17T06:44:41.000Z</time>
      </trkpt>
      <trkpt lat="43.27784" lon="2.3135">
        <ele>175</ele>
        <time>2022-04-17T06:44:42.000Z</time>
      </trkpt>
      <trkpt lat="43.27786" lon="2.3135">
        <ele>175</ele>
        <time>2022-04-17T06:44:43.000Z</time>
      </trkpt>
      <trkpt lat="43.27788" lon="2.31351">
        <ele>175</ele>
        <time>2022-04-17T06:44:44.000Z</time>
      </trkpt>
      <trkpt lat="43.2779" lon="2.31352">
        <ele>175.1</ele>
        <time>2022-04-17T06:44:45.000Z</time>
      </trkpt>
      <trkpt lat="43.27792" lon="2.31353">
        <ele>175.1</ele>
        <time>2022-04-17T06:44:46.000Z</time>
      </trkpt>
      <trkpt lat="43.27793" lon="2.31353">
        <ele>175.1</ele>
        <time>2022-04-17T06:44:47.000Z</time>
      </trkpt>
      <trkpt lat="43.27793" lon="2.31353">
        <ele>175.1</ele>
        <time>2022-04-17T06:44:48.000Z</time>
      </trkpt>
      <trkpt lat="43.27793" lon="2.31353">
        <ele>175.1</ele>
        <time>2022-04-17T06:44:49.000Z</time>
      </trkpt>
      <trkpt lat="43.27793" lon="2.31353">
        <ele>175.1</ele>
        <time>2022-04-17T06:44:50.000Z</time>
      </trkpt>
      <trkpt lat="43.27794" lon="2.31353">
        <ele>175.1</ele>
        <time>2022-04-17T06:44:51.000Z</time>
      </trkpt>
      <trkpt lat="43.27796" lon="2.31353">
        <ele>175.2</ele>
        <time>2022-04-17T06:44:52.000Z</time>
      </trkpt>
      <trkpt lat="43.27798" lon="2.31352">
        <ele>175.3</ele>
        <time>2022-04-17T06:44:53.000Z</time>
      </trkpt>
      <trkpt lat="43.278" lon="2.31352">
        <ele>175.3</ele>
        <time>2022-04-17T06:44:54.000Z</time>
      </trkpt>
      <trkpt lat="43.27802" lon="2.31352">
        <ele>175.4</ele>
        <time>2022-04-17T06:44:55.000Z</time>
      </trkpt>
      <trkpt lat="43.27804" lon="2.31351">
        <ele>175.5</ele>
        <time>2022-04-17T06:44:56.000Z</time>
      </trkpt>
      <trkpt lat="43.27806" lon="2.3135">
        <ele>175.6</ele>
        <time>2022-04-17T06:44:57.000Z</time>
      </trkpt>
      <trkpt lat="43.27808" lon="2.31349">
        <ele>175.7</ele>
        <time>2022-04-17T06:44:58.000Z</time>
      </trkpt>
      <trkpt lat="43.27811" lon="2.31348">
        <ele>175.8</ele>
        <time>2022-04-17T06:44:59.000Z</time>
      </trkpt>
      <trkpt lat="43.27813" lon="2.31347">
        <ele>176</ele>
        <time>2022-04-17T06:45:00.000Z</time>
      </trkpt>
      <trkpt lat="43.27816" lon="2.31346">
        <ele>176.1</ele>
        <time>2022-04-17T06:45:01.000Z</time>
      </trkpt>
      <trkpt lat="43.27818" lon="2.31344">
        <ele>176.2</ele>
        <time>2022-04-17T06:45:02.000Z</time>
      </trkpt>
      <trkpt lat="43.27821" lon="2.31343">
        <ele>176.3</ele>
        <time>2022-04-17T06:45:03.000Z</time>
      </trkpt>
      <trkpt lat="43.27823" lon="2.31342">
        <ele>176.4</ele>
        <time>2022-04-17T06:45:04.000Z</time>
      </trkpt>
      <trkpt lat="43.27826" lon="2.3134">
        <ele>176.5</ele>
        <time>2022-04-17T06:45:05.000Z</time>
      </trkpt>
      <trkpt lat="43.27828" lon="2.31339">
        <ele>176.7</ele>
        <time>2022-04-17T06:45:06.000Z</time>
      </trkpt>
      <trkpt lat="43.27831" lon="2.31338">
        <ele>176.8</ele>
        <time>2022-04-17T06:45:07.000Z</time>
      </trkpt>
      <trkpt lat="43.27833" lon="2.31337">
        <ele>176.9</ele>
        <time>2022-04-17T06:45:08.000Z</time>
      </trkpt>
      <trkpt lat="43.27835" lon="2.31335">
        <ele>177</ele>
        <time>2022-04-17T06:45:09.000Z</time>
      </trkpt>
      <trkpt lat="43.27838" lon="2.31334">
        <ele>177</ele>
        <time>2022-04-17T06:45:10.000Z</time>
      </trkpt>
      <trkpt lat="43.2784" lon="2.31333">
        <ele>177.1</ele>
        <time>2022-04-17T06:45:11.000Z</time>
      </trkpt>
      <trkpt lat="43.27842" lon="2.31332">
        <ele>177</ele>
        <time>2022-04-17T06:45:12.000Z</time>
      </trkpt>
      <trkpt lat="43.27844" lon="2.31331">
        <ele>177</ele>
        <time>2022-04-17T06:45:13.000Z</time>
      </trkpt>
      <trkpt lat="43.27846" lon="2.31331">
        <ele>177</ele>
        <time>2022-04-17T06:45:14.000Z</time>
      </trkpt>
      <trkpt lat="43.27848" lon="2.3133">
        <ele>177</ele>
        <time>2022-04-17T06:45:15.000Z</time>
      </trkpt>
      <trkpt lat="43.2785" lon="2.3133">
        <ele>177.1</ele>
        <time>2022-04-17T06:45:16.000Z</time>
      </trkpt>
      <trkpt lat="43.27852" lon="2.31329">
        <ele>177.1</ele>
        <time>2022-04-17T06:45:17.000Z</time>
      </trkpt>
      <trkpt lat="43.27855" lon="2.31329">
        <ele>177.1</ele>
        <time>2022-04-17T06:45:18.000Z</time>
      </trkpt>
      <trkpt lat="43.27857" lon="2.31328">
        <ele>177.1</ele>
        <time>2022-04-17T06:45:19.000Z</time>
      </trkpt>
      <trkpt lat="43.27859" lon="2.31327">
        <ele>177.1</ele>
        <time>2022-04-17T06:45:20.000Z</time>
      </trkpt>
      <trkpt lat="43.27861" lon="2.31326">
        <ele>177.1</ele>
        <time>2022-04-17T06:45:21.000Z</time>
      </trkpt>
      <trkpt lat="43.27864" lon="2.31325">
        <ele>177.1</ele>
        <time>2022-04-17T06:45:22.000Z</time>
      </trkpt>
      <trkpt lat="43.27866" lon="2.31323">
        <ele>177.1</ele>
        <time>2022-04-17T06:45:23.000Z</time>
      </trkpt>
      <trkpt lat="43.27868" lon="2.31322">
        <ele>177</ele>
        <time>2022-04-17T06:45:24.000Z</time>
      </trkpt>
      <trkpt lat="43.27871" lon="2.31321">
        <ele>177.1</ele>
        <time>2022-04-17T06:45:25.000Z</time>
      </trkpt>
      <trkpt lat="43.27873" lon="2.3132">
        <ele>177.1</ele>
        <time>2022-04-17T06:45:26.000Z</time>
      </trkpt>
      <trkpt lat="43.27875" lon="2.31319">
        <ele>177.1</ele>
        <time>2022-04-17T06:45:27.000Z</time>
      </trkpt>
      <trkpt lat="43.27878" lon="2.31318">
        <ele>177.1</ele>
        <time>2022-04-17T06:45:28.000Z</time>
      </trkpt>
      <trkpt lat="43.2788" lon="2.31318">
        <ele>177.1</ele>
        <time>2022-04-17T06:45:29.000Z</time>
      </trkpt>
      <trkpt lat="43.27882" lon="2.31318">
        <ele>177.2</ele>
        <time>2022-04-17T06:45:30.000Z</time>
      </trkpt>
      <trkpt lat="43.27884" lon="2.31318">
        <ele>177.2</ele>
        <time>2022-04-17T06:45:31.000Z</time>
      </trkpt>
      <trkpt lat="43.27887" lon="2.31318">
        <ele>177.3</ele>
        <time>2022-04-17T06:45:32.000Z</time>
      </trkpt>
      <trkpt lat="43.27889" lon="2.31318">
        <ele>177.3</ele>
        <time>2022-04-17T06:45:33.000Z</time>
      </trkpt>
      <trkpt lat="43.27891" lon="2.31318">
        <ele>177.3</ele>
        <time>2022-04-17T06:45:34.000Z</time>
      </trkpt>
      <trkpt lat="43.27894" lon="2.31318">
        <ele>177.4</ele>
        <time>2022-04-17T06:45:35.000Z</time>
      </trkpt>
      <trkpt lat="43.27896" lon="2.31317">
        <ele>177.4</ele>
        <time>2022-04-17T06:45:36.000Z</time>
      </trkpt>
      <trkpt lat="43.27898" lon="2.31317">
        <ele>177.5</ele>
        <time>2022-04-17T06:45:37.000Z</time>
      </trkpt>
      <trkpt lat="43.27901" lon="2.31317">
        <ele>177.5</ele>
        <time>2022-04-17T06:45:38.000Z</time>
      </trkpt>
      <trkpt lat="43.27903" lon="2.31316">
        <ele>177.5</ele>
        <time>2022-04-17T06:45:39.000Z</time>
      </trkpt>
      <trkpt lat="43.27905" lon="2.31315">
        <ele>177.5</ele>
        <time>2022-04-17T06:45:40.000Z</time>
      </trkpt>
      <trkpt lat="43.27907" lon="2.31314">
        <ele>177.6</ele>
        <time>2022-04-17T06:45:41.000Z</time>
      </trkpt>
      <trkpt lat="43.27909" lon="2.31313">
        <ele>177.6</ele>
        <time>2022-04-17T06:45:42.000Z</time>
      </trkpt>
      <trkpt lat="43.27911" lon="2.31311">
        <ele>177.6</ele>
        <time>2022-04-17T06:45:43.000Z</time>
      </trkpt>
      <trkpt lat="43.27913" lon="2.3131">
        <ele>177.6</ele>
        <time>2022-04-17T06:45:44.000Z</time>
      </trkpt>
      <trkpt lat="43.27915" lon="2.31309">
        <ele>177.7</ele>
        <time>2022-04-17T06:45:45.000Z</time>
      </trkpt>
      <trkpt lat="43.27917" lon="2.31308">
        <ele>177.7</ele>
        <time>2022-04-17T06:45:46.000Z</time>
      </trkpt>
      <trkpt lat="43.2792" lon="2.31307">
        <ele>177.8</ele>
        <time>2022-04-17T06:45:47.000Z</time>
      </trkpt>
      <trkpt lat="43.27922" lon="2.31307">
        <ele>177.9</ele>
        <time>2022-04-17T06:45:48.000Z</time>
      </trkpt>
      <trkpt lat="43.27924" lon="2.31306">
        <ele>178</ele>
        <time>2022-04-17T06:45:49.000Z</time>
      </trkpt>
      <trkpt lat="43.27926" lon="2.31306">
        <ele>178.2</ele>
        <time>2022-04-17T06:45:50.000Z</time>
      </trkpt>
      <trkpt lat="43.27928" lon="2.31305">
        <ele>178.3</ele>
        <time>2022-04-17T06:45:51.000Z</time>
      </trkpt>
      <trkpt lat="43.2793" lon="2.31305">
        <ele>178.4</ele>
        <time>2022-04-17T06:45:52.000Z</time>
      </trkpt>
      <trkpt lat="43.27933" lon="2.31304">
        <ele>178.5</ele>
        <time>2022-04-17T06:45:53.000Z</time>
      </trkpt>
      <trkpt lat="43.27935" lon="2.31303">
        <ele>178.6</ele>
        <time>2022-04-17T06:45:54.000Z</time>
      </trkpt>
      <trkpt lat="43.27937" lon="2.31302">
        <ele>178.7</ele>
        <time>2022-04-17T06:45:55.000Z</time>
      </trkpt>
      <trkpt lat="43.27939" lon="2.31301">
        <ele>178.8</ele>
        <time>2022-04-17T06:45:56.000Z</time>
      </trkpt>
      <trkpt lat="43.2794" lon="2.313">
        <ele>178.9</ele>
        <time>2022-04-17T06:45:57.000Z</time>
      </trkpt>
      <trkpt lat="43.27942" lon="2.31298">
        <ele>179</ele>
        <time>2022-04-17T06:45:58.000Z</time>
      </trkpt>
      <trkpt lat="43.27945" lon="2.31296">
        <ele>179.2</ele>
        <time>2022-04-17T06:45:59.000Z</time>
      </trkpt>
      <trkpt lat="43.27947" lon="2.31295">
        <ele>179.3</ele>
        <time>2022-04-17T06:46:00.000Z</time>
      </trkpt>
      <trkpt lat="43.27949" lon="2.31293">
        <ele>179.4</ele>
        <time>2022-04-17T06:46:01.000Z</time>
      </trkpt>
      <trkpt lat="43.27951" lon="2.31291">
        <ele>179.6</ele>
        <time>2022-04-17T06:46:02.000Z</time>
      </trkpt>
      <trkpt lat="43.27953" lon="2.3129">
        <ele>179.7</ele>
        <time>2022-04-17T06:46:03.000Z</time>
      </trkpt>
      <trkpt lat="43.27955" lon="2.31288">
        <ele>179.9</ele>
        <time>2022-04-17T06:46:04.000Z</time>
      </trkpt>
      <trkpt lat="43.27957" lon="2.31286">
        <ele>180</ele>
        <time>2022-04-17T06:46:05.000Z</time>
      </trkpt>
      <trkpt lat="43.27959" lon="2.31285">
        <ele>180.1</ele>
        <time>2022-04-17T06:46:06.000Z</time>
      </trkpt>
      <trkpt lat="43.27961" lon="2.31283">
        <ele>180.3</ele>
        <time>2022-04-17T06:46:07.000Z</time>
      </trkpt>
      <trkpt lat="43.27963" lon="2.31282">
        <ele>180.4</ele>
        <time>2022-04-17T06:46:08.000Z</time>
      </trkpt>
      <trkpt lat="43.27965" lon="2.31281">
        <ele>180.6</ele>
        <time>2022-04-17T06:46:09.000Z</time>
      </trkpt>
      <trkpt lat="43.27967" lon="2.31279">
        <ele>180.7</ele>
        <time>2022-04-17T06:46:10.000Z</time>
      </trkpt>
      <trkpt lat="43.27968" lon="2.31277">
        <ele>180.9</ele>
        <time>2022-04-17T06:46:11.000Z</time>
      </trkpt>
      <trkpt lat="43.2797" lon="2.31276">
        <ele>181</ele>
        <time>2022-04-17T06:46:12.000Z</time>
      </trkpt>
      <trkpt lat="43.27972" lon="2.31274">
        <ele>181.2</ele>
        <time>2022-04-17T06:46:13.000Z</time>
      </trkpt>
      <trkpt lat="43.27974" lon="2.31272">
        <ele>181.3</ele>
        <time>2022-04-17T06:46:14.000Z</time>
      </trkpt>
      <trkpt lat="43.27976" lon="2.3127">
        <ele>181.5</ele>
        <time>2022-04-17T06:46:15.000Z</time>
      </trkpt>
      <trkpt lat="43.27978" lon="2.31268">
        <ele>181.7</ele>
        <time>2022-04-17T06:46:16.000Z</time>
      </trkpt>
      <trkpt lat="43.2798" lon="2.31265">
        <ele>181.9</ele>
        <time>2022-04-17T06:46:17.000Z</time>
      </trkpt>
      <trkpt lat="43.27982" lon="2.31263">
        <ele>182.1</ele>
        <time>2022-04-17T06:46:18.000Z</time>
      </trkpt>
      <trkpt lat="43.27984" lon="2.31261">
        <ele>182.3</ele>
        <time>2022-04-17T06:46:19.000Z</time>
      </trkpt>
      <trkpt lat="43.27986" lon="2.3126">
        <ele>182.5</ele>
        <time>2022-04-17T06:46:20.000Z</time>
      </trkpt>
      <trkpt lat="43.27988" lon="2.31258">
        <ele>182.7</ele>
        <time>2022-04-17T06:46:21.000Z</time>
      </trkpt>
      <trkpt lat="43.2799" lon="2.31257">
        <ele>182.9</ele>
        <time>2022-04-17T06:46:22.000Z</time>
      </trkpt>
      <trkpt lat="43.27992" lon="2.31255">
        <ele>183.1</ele>
        <time>2022-04-17T06:46:23.000Z</time>
      </trkpt>
      <trkpt lat="43.27994" lon="2.31254">
        <ele>183.3</ele>
        <time>2022-04-17T06:46:24.000Z</time>
      </trkpt>
      <trkpt lat="43.27996" lon="2.31253">
        <ele>183.5</ele>
        <time>2022-04-17T06:46:25.000Z</time>
      </trkpt>
      <trkpt lat="43.27998" lon="2.31252">
        <ele>183.7</ele>
        <time>2022-04-17T06:46:26.000Z</time>
      </trkpt>
      <trkpt lat="43.28" lon="2.31252">
        <ele>183.9</ele>
        <time>2022-04-17T06:46:27.000Z</time>
      </trkpt>
      <trkpt lat="43.28002" lon="2.31251">
        <ele>184</ele>
        <time>2022-04-17T06:46:28.000Z</time>
      </trkpt>
      <trkpt lat="43.28003" lon="2.3125">
        <ele>184.1</ele>
        <time>2022-04-17T06:46:29.000Z</time>
      </trkpt>
      <trkpt lat="43.28005" lon="2.31248">
        <ele>184.1</ele>
        <time>2022-04-17T06:46:30.000Z</time>
      </trkpt>
      <trkpt lat="43.28007" lon="2.31247">
        <ele>184.1</ele>
        <time>2022-04-17T06:46:31.000Z</time>
      </trkpt>
      <trkpt lat="43.28008" lon="2.31246">
        <ele>184.2</ele>
        <time>2022-04-17T06:46:32.000Z</time>
      </trkpt>
      <trkpt lat="43.2801" lon="2.31245">
        <ele>184.2</ele>
        <time>2022-04-17T06:46:33.000Z</time>
      </trkpt>
      <trkpt lat="43.28012" lon="2.31245">
        <ele>184.3</ele>
        <time>2022-04-17T06:46:34.000Z</time>
      </trkpt>
      <trkpt lat="43.28014" lon="2.31245">
        <ele>184.3</ele>
        <time>2022-04-17T06:46:35.000Z</time>
      </trkpt>
      <trkpt lat="43.28016" lon="2.31245">
        <ele>184.4</ele>
        <time>2022-04-17T06:46:36.000Z</time>
      </trkpt>
      <trkpt lat="43.28018" lon="2.31246">
        <ele>184.5</ele>
        <time>2022-04-17T06:46:37.000Z</time>
      </trkpt>
      <trkpt lat="43.2802" lon="2.31246">
        <ele>184.6</ele>
        <time>2022-04-17T06:46:38.000Z</time>
      </trkpt>
      <trkpt lat="43.28022" lon="2.31246">
        <ele>184.7</ele>
        <time>2022-04-17T06:46:39.000Z</time>
      </trkpt>
      <trkpt lat="43.28024" lon="2.31247">
        <ele>184.7</ele>
        <time>2022-04-17T06:46:40.000Z</time>
      </trkpt>
      <trkpt lat="43.28026" lon="2.31247">
        <ele>184.8</ele>
        <time>2022-04-17T06:46:41.000Z</time>
      </trkpt>
      <trkpt lat="43.28028" lon="2.31247">
        <ele>184.9</ele>
        <time>2022-04-17T06:46:42.000Z</time>
      </trkpt>
      <trkpt lat="43.28029" lon="2.31247">
        <ele>185</ele>
        <time>2022-04-17T06:46:43.000Z</time>
      </trkpt>
      <trkpt lat="43.28031" lon="2.31247">
        <ele>185</ele>
        <time>2022-04-17T06:46:44.000Z</time>
      </trkpt>
      <trkpt lat="43.28033" lon="2.31247">
        <ele>185.1</ele>
        <time>2022-04-17T06:46:45.000Z</time>
      </trkpt>
      <trkpt lat="43.28035" lon="2.31247">
        <ele>185.2</ele>
        <time>2022-04-17T06:46:46.000Z</time>
      </trkpt>
      <trkpt lat="43.28037" lon="2.31247">
        <ele>185.2</ele>
        <time>2022-04-17T06:46:47.000Z</time>
      </trkpt>
      <trkpt lat="43.28039" lon="2.31246">
        <ele>185.3</ele>
        <time>2022-04-17T06:46:48.000Z</time>
      </trkpt>
      <trkpt lat="43.28041" lon="2.31246">
        <ele>185.4</ele>
        <time>2022-04-17T06:46:49.000Z</time>
      </trkpt>
      <trkpt lat="43.28043" lon="2.31246">
        <ele>185.4</ele>
        <time>2022-04-17T06:46:50.000Z</time>
      </trkpt>
      <trkpt lat="43.28045" lon="2.31245">
        <ele>185.5</ele>
        <time>2022-04-17T06:46:51.000Z</time>
      </trkpt>
      <trkpt lat="43.28047" lon="2.31245">
        <ele>185.5</ele>
        <time>2022-04-17T06:46:52.000Z</time>
      </trkpt>
      <trkpt lat="43.28049" lon="2.31244">
        <ele>185.6</ele>
        <time>2022-04-17T06:46:53.000Z</time>
      </trkpt>
      <trkpt lat="43.28051" lon="2.31243">
        <ele>185.6</ele>
        <time>2022-04-17T06:46:54.000Z</time>
      </trkpt>
      <trkpt lat="43.28053" lon="2.31242">
        <ele>185.7</ele>
        <time>2022-04-17T06:46:55.000Z</time>
      </trkpt>
      <trkpt lat="43.28054" lon="2.3124">
        <ele>185.7</ele>
        <time>2022-04-17T06:46:56.000Z</time>
      </trkpt>
      <trkpt lat="43.28056" lon="2.31239">
        <ele>185.7</ele>
        <time>2022-04-17T06:46:57.000Z</time>
      </trkpt>
      <trkpt lat="43.28057" lon="2.31237">
        <ele>185.7</ele>
        <time>2022-04-17T06:46:58.000Z</time>
      </trkpt>
      <trkpt lat="43.28058" lon="2.31234">
        <ele>185.7</ele>
        <time>2022-04-17T06:46:59.000Z</time>
      </trkpt>
      <trkpt lat="43.28059" lon="2.31232">
        <ele>185.6</ele>
        <time>2022-04-17T06:47:00.000Z</time>
      </trkpt>
      <trkpt lat="43.2806" lon="2.31229">
        <ele>185.6</ele>
        <time>2022-04-17T06:47:01.000Z</time>
      </trkpt>
      <trkpt lat="43.28062" lon="2.31227">
        <ele>185.6</ele>
        <time>2022-04-17T06:47:02.000Z</time>
      </trkpt>
      <trkpt lat="43.28064" lon="2.31225">
        <ele>185.6</ele>
        <time>2022-04-17T06:47:03.000Z</time>
      </trkpt>
      <trkpt lat="43.28065" lon="2.31224">
        <ele>185.7</ele>
        <time>2022-04-17T06:47:04.000Z</time>
      </trkpt>
      <trkpt lat="43.28067" lon="2.31223">
        <ele>185.7</ele>
        <time>2022-04-17T06:47:05.000Z</time>
      </trkpt>
      <trkpt lat="43.28069" lon="2.31221">
        <ele>185.7</ele>
        <time>2022-04-17T06:47:06.000Z</time>
      </trkpt>
      <trkpt lat="43.28071" lon="2.3122">
        <ele>185.8</ele>
        <time>2022-04-17T06:47:07.000Z</time>
      </trkpt>
      <trkpt lat="43.28073" lon="2.31219">
        <ele>185.8</ele>
        <time>2022-04-17T06:47:08.000Z</time>
      </trkpt>
      <trkpt lat="43.28075" lon="2.31217">
        <ele>185.9</ele>
        <time>2022-04-17T06:47:09.000Z</time>
      </trkpt>
      <trkpt lat="43.28077" lon="2.31216">
        <ele>185.9</ele>
        <time>2022-04-17T06:47:10.000Z</time>
      </trkpt>
      <trkpt lat="43.28079" lon="2.31214">
        <ele>186</ele>
        <time>2022-04-17T06:47:11.000Z</time>
      </trkpt>
      <trkpt lat="43.28081" lon="2.31213">
        <ele>186</ele>
        <time>2022-04-17T06:47:12.000Z</time>
      </trkpt>
      <trkpt lat="43.28084" lon="2.31212">
        <ele>186.1</ele>
        <time>2022-04-17T06:47:13.000Z</time>
      </trkpt>
      <trkpt lat="43.28086" lon="2.31211">
        <ele>186.1</ele>
        <time>2022-04-17T06:47:14.000Z</time>
      </trkpt>
      <trkpt lat="43.28089" lon="2.3121">
        <ele>186.1</ele>
        <time>2022-04-17T06:47:15.000Z</time>
      </trkpt>
      <trkpt lat="43.28092" lon="2.31209">
        <ele>186.2</ele>
        <time>2022-04-17T06:47:16.000Z</time>
      </trkpt>
      <trkpt lat="43.28094" lon="2.31209">
        <ele>186.2</ele>
        <time>2022-04-17T06:47:17.000Z</time>
      </trkpt>
      <trkpt lat="43.28097" lon="2.31209">
        <ele>186.3</ele>
        <time>2022-04-17T06:47:18.000Z</time>
      </trkpt>
      <trkpt lat="43.28099" lon="2.3121">
        <ele>186.3</ele>
        <time>2022-04-17T06:47:19.000Z</time>
      </trkpt>
      <trkpt lat="43.28102" lon="2.31211">
        <ele>186.4</ele>
        <time>2022-04-17T06:47:20.000Z</time>
      </trkpt>
      <trkpt lat="43.28104" lon="2.31211">
        <ele>186.5</ele>
        <time>2022-04-17T06:47:21.000Z</time>
      </trkpt>
      <trkpt lat="43.28106" lon="2.31212">
        <ele>186.5</ele>
        <time>2022-04-17T06:47:22.000Z</time>
      </trkpt>
      <trkpt lat="43.28109" lon="2.31212">
        <ele>186.6</ele>
        <time>2022-04-17T06:47:23.000Z</time>
      </trkpt>
      <trkpt lat="43.28111" lon="2.31211">
        <ele>186.6</ele>
        <time>2022-04-17T06:47:24.000Z</time>
      </trkpt>
      <trkpt lat="43.28114" lon="2.31211">
        <ele>186.6</ele>
        <time>2022-04-17T06:47:25.000Z</time>
      </trkpt>
      <trkpt lat="43.28115" lon="2.31212">
        <ele>186.7</ele>
        <time>2022-04-17T06:47:26.000Z</time>
      </trkpt>
      <trkpt lat="43.28117" lon="2.31213">
        <ele>186.7</ele>
        <time>2022-04-17T06:47:27.000Z</time>
      </trkpt>
      <trkpt lat="43.28119" lon="2.31215">
        <ele>186.8</ele>
        <time>2022-04-17T06:47:28.000Z</time>
      </trkpt>
      <trkpt lat="43.2812" lon="2.31217">
        <ele>186.9</ele>
        <time>2022-04-17T06:47:29.000Z</time>
      </trkpt>
      <trkpt lat="43.28122" lon="2.31219">
        <ele>187</ele>
        <time>2022-04-17T06:47:30.000Z</time>
      </trkpt>
      <trkpt lat="43.28124" lon="2.31222">
        <ele>187.1</ele>
        <time>2022-04-17T06:47:31.000Z</time>
      </trkpt>
      <trkpt lat="43.28126" lon="2.31224">
        <ele>187.2</ele>
        <time>2022-04-17T06:47:32.000Z</time>
      </trkpt>
      <trkpt lat="43.28128" lon="2.31226">
        <ele>187.4</ele>
        <time>2022-04-17T06:47:33.000Z</time>
      </trkpt>
      <trkpt lat="43.2813" lon="2.31229">
        <ele>187.5</ele>
        <time>2022-04-17T06:47:34.000Z</time>
      </trkpt>
      <trkpt lat="43.28132" lon="2.31231">
        <ele>187.6</ele>
        <time>2022-04-17T06:47:35.000Z</time>
      </trkpt>
      <trkpt lat="43.28134" lon="2.31233">
        <ele>187.7</ele>
        <time>2022-04-17T06:47:36.000Z</time>
      </trkpt>
      <trkpt lat="43.28137" lon="2.31235">
        <ele>187.8</ele>
        <time>2022-04-17T06:47:37.000Z</time>
      </trkpt>
      <trkpt lat="43.28139" lon="2.31237">
        <ele>187.9</ele>
        <time>2022-04-17T06:47:38.000Z</time>
      </trkpt>
      <trkpt lat="43.2814" lon="2.31239">
        <ele>188</ele>
        <time>2022-04-17T06:47:39.000Z</time>
      </trkpt>
      <trkpt lat="43.28142" lon="2.31241">
        <ele>188.1</ele>
        <time>2022-04-17T06:47:40.000Z</time>
      </trkpt>
      <trkpt lat="43.28144" lon="2.31243">
        <ele>188.2</ele>
        <time>2022-04-17T06:47:41.000Z</time>
      </trkpt>
      <trkpt lat="43.28146" lon="2.31244">
        <ele>188.3</ele>
        <time>2022-04-17T06:47:42.000Z</time>
      </trkpt>
      <trkpt lat="43.28147" lon="2.31246">
        <ele>188.4</ele>
        <time>2022-04-17T06:47:43.000Z</time>
      </trkpt>
      <trkpt lat="43.28149" lon="2.31247">
        <ele>188.5</ele>
        <time>2022-04-17T06:47:44.000Z</time>
      </trkpt>
      <trkpt lat="43.2815" lon="2.31248">
        <ele>188.5</ele>
        <time>2022-04-17T06:47:45.000Z</time>
      </trkpt>
      <trkpt lat="43.28152" lon="2.31249">
        <ele>188.6</ele>
        <time>2022-04-17T06:47:46.000Z</time>
      </trkpt>
      <trkpt lat="43.28153" lon="2.31251">
        <ele>188.7</ele>
        <time>2022-04-17T06:47:47.000Z</time>
      </trkpt>
      <trkpt lat="43.28154" lon="2.31252">
        <ele>188.7</ele>
        <time>2022-04-17T06:47:48.000Z</time>
      </trkpt>
      <trkpt lat="43.28156" lon="2.31253">
        <ele>188.8</ele>
        <time>2022-04-17T06:47:49.000Z</time>
      </trkpt>
      <trkpt lat="43.28157" lon="2.31254">
        <ele>188.8</ele>
        <time>2022-04-17T06:47:50.000Z</time>
      </trkpt>
      <trkpt lat="43.28158" lon="2.31256">
        <ele>188.9</ele>
        <time>2022-04-17T06:47:51.000Z</time>
      </trkpt>
      <trkpt lat="43.28159" lon="2.31257">
        <ele>188.9</ele>
        <time>2022-04-17T06:47:52.000Z</time>
      </trkpt>
      <trkpt lat="43.28159" lon="2.31259">
        <ele>189</ele>
        <time>2022-04-17T06:47:53.000Z</time>
      </trkpt>
      <trkpt lat="43.2816" lon="2.3126">
        <ele>189</ele>
        <time>2022-04-17T06:47:54.000Z</time>
      </trkpt>
      <trkpt lat="43.28161" lon="2.31262">
        <ele>189.1</ele>
        <time>2022-04-17T06:47:55.000Z</time>
      </trkpt>
      <trkpt lat="43.28161" lon="2.31264">
        <ele>189.1</ele>
        <time>2022-04-17T06:47:56.000Z</time>
      </trkpt>
      <trkpt lat="43.28162" lon="2.31266">
        <ele>189.2</ele>
        <time>2022-04-17T06:47:57.000Z</time>
      </trkpt>
      <trkpt lat="43.28162" lon="2.31268">
        <ele>189.3</ele>
        <time>2022-04-17T06:47:58.000Z</time>
      </trkpt>
      <trkpt lat="43.28162" lon="2.31271">
        <ele>189.3</ele>
        <time>2022-04-17T06:47:59.000Z</time>
      </trkpt>
      <trkpt lat="43.28162" lon="2.31273">
        <ele>189.3</ele>
        <time>2022-04-17T06:48:00.000Z</time>
      </trkpt>
      <trkpt lat="43.28162" lon="2.31275">
        <ele>189.4</ele>
        <time>2022-04-17T06:48:01.000Z</time>
      </trkpt>
      <trkpt lat="43.28161" lon="2.31278">
        <ele>189.4</ele>
        <time>2022-04-17T06:48:02.000Z</time>
      </trkpt>
      <trkpt lat="43.28161" lon="2.3128">
        <ele>189.4</ele>
        <time>2022-04-17T06:48:03.000Z</time>
      </trkpt>
      <trkpt lat="43.2816" lon="2.31282">
        <ele>189.4</ele>
        <time>2022-04-17T06:48:04.000Z</time>
      </trkpt>
      <trkpt lat="43.28159" lon="2.31284">
        <ele>189.4</ele>
        <time>2022-04-17T06:48:05.000Z</time>
      </trkpt>
      <trkpt lat="43.28158" lon="2.31286">
        <ele>189.4</ele>
        <time>2022-04-17T06:48:06.000Z</time>
      </trkpt>
      <trkpt lat="43.28157" lon="2.31287">
        <ele>189.4</ele>
        <time>2022-04-17T06:48:07.000Z</time>
      </trkpt>
      <trkpt lat="43.28156" lon="2.31289">
        <ele>189.4</ele>
        <time>2022-04-17T06:48:08.000Z</time>
      </trkpt>
      <trkpt lat="43.28154" lon="2.31291">
        <ele>189.3</ele>
        <time>2022-04-17T06:48:09.000Z</time>
      </trkpt>
      <trkpt lat="43.28153" lon="2.31292">
        <ele>189.3</ele>
        <time>2022-04-17T06:48:10.000Z</time>
      </trkpt>
      <trkpt lat="43.28152" lon="2.31294">
        <ele>189.3</ele>
        <time>2022-04-17T06:48:11.000Z</time>
      </trkpt>
      <trkpt lat="43.28151" lon="2.31296">
        <ele>189.2</ele>
        <time>2022-04-17T06:48:12.000Z</time>
      </trkpt>
      <trkpt lat="43.28151" lon="2.31298">
        <ele>189.2</ele>
        <time>2022-04-17T06:48:13.000Z</time>
      </trkpt>
      <trkpt lat="43.2815" lon="2.31301">
        <ele>189.2</ele>
        <time>2022-04-17T06:48:14.000Z</time>
      </trkpt>
      <trkpt lat="43.28149" lon="2.31303">
        <ele>189.2</ele>
        <time>2022-04-17T06:48:15.000Z</time>
      </trkpt>
      <trkpt lat="43.28148" lon="2.31306">
        <ele>189.2</ele>
        <time>2022-04-17T06:48:16.000Z</time>
      </trkpt>
      <trkpt lat="43.28148" lon="2.31308">
        <ele>189.1</ele>
        <time>2022-04-17T06:48:17.000Z</time>
      </trkpt>
      <trkpt lat="43.28147" lon="2.31311">
        <ele>189.1</ele>
        <time>2022-04-17T06:48:18.000Z</time>
      </trkpt>
      <trkpt lat="43.28146" lon="2.31313">
        <ele>189.1</ele>
        <time>2022-04-17T06:48:19.000Z</time>
      </trkpt>
      <trkpt lat="43.28146" lon="2.31316">
        <ele>189.1</ele>
        <time>2022-04-17T06:48:20.000Z</time>
      </trkpt>
      <trkpt lat="43.28145" lon="2.31319">
        <ele>189.1</ele>
        <time>2022-04-17T06:48:21.000Z</time>
      </trkpt>
      <trkpt lat="43.28144" lon="2.31322">
        <ele>189</ele>
        <time>2022-04-17T06:48:22.000Z</time>
      </trkpt>
      <trkpt lat="43.28143" lon="2.31325">
        <ele>189</ele>
        <time>2022-04-17T06:48:23.000Z</time>
      </trkpt>
      <trkpt lat="43.28143" lon="2.31328">
        <ele>188.9</ele>
        <time>2022-04-17T06:48:24.000Z</time>
      </trkpt>
      <trkpt lat="43.28142" lon="2.3133">
        <ele>188.9</ele>
        <time>2022-04-17T06:48:25.000Z</time>
      </trkpt>
      <trkpt lat="43.28141" lon="2.31333">
        <ele>188.8</ele>
        <time>2022-04-17T06:48:26.000Z</time>
      </trkpt>
      <trkpt lat="43.2814" lon="2.31336">
        <ele>188.8</ele>
        <time>2022-04-17T06:48:27.000Z</time>
      </trkpt>
      <trkpt lat="43.28139" lon="2.31339">
        <ele>188.7</ele>
        <time>2022-04-17T06:48:28.000Z</time>
      </trkpt>
      <trkpt lat="43.28138" lon="2.31341">
        <ele>188.7</ele>
        <time>2022-04-17T06:48:29.000Z</time>
      </trkpt>
      <trkpt lat="43.28137" lon="2.31344">
        <ele>188.7</ele>
        <time>2022-04-17T06:48:30.000Z</time>
      </trkpt>
      <trkpt lat="43.28136" lon="2.31346">
        <ele>188.7</ele>
        <time>2022-04-17T06:48:31.000Z</time>
      </trkpt>
      <trkpt lat="43.28136" lon="2.31348">
        <ele>188.7</ele>
        <time>2022-04-17T06:48:32.000Z</time>
      </trkpt>
      <trkpt lat="43.28135" lon="2.3135">
        <ele>188.6</ele>
        <time>2022-04-17T06:48:33.000Z</time>
      </trkpt>
      <trkpt lat="43.28135" lon="2.31352">
        <ele>188.7</ele>
        <time>2022-04-17T06:48:34.000Z</time>
      </trkpt>
      <trkpt lat="43.28135" lon="2.31354">
        <ele>188.7</ele>
        <time>2022-04-17T06:48:35.000Z</time>
      </trkpt>
      <trkpt lat="43.28135" lon="2.31357">
        <ele>188.7</ele>
        <time>2022-04-17T06:48:36.000Z</time>
      </trkpt>
      <trkpt lat="43.28135" lon="2.3136">
        <ele>188.7</ele>
        <time>2022-04-17T06:48:37.000Z</time>
      </trkpt>
      <trkpt lat="43.28135" lon="2.31363">
        <ele>188.8</ele>
        <time>2022-04-17T06:48:38.000Z</time>
      </trkpt>
      <trkpt lat="43.28135" lon="2.31366">
        <ele>188.9</ele>
        <time>2022-04-17T06:48:39.000Z</time>
      </trkpt>
      <trkpt lat="43.28135" lon="2.3137">
        <ele>188.9</ele>
        <time>2022-04-17T06:48:40.000Z</time>
      </trkpt>
      <trkpt lat="43.28134" lon="2.31373">
        <ele>188.9</ele>
        <time>2022-04-17T06:48:41.000Z</time>
      </trkpt>
      <trkpt lat="43.28134" lon="2.31376">
        <ele>189</ele>
        <time>2022-04-17T06:48:42.000Z</time>
      </trkpt>
      <trkpt lat="43.28133" lon="2.31379">
        <ele>188.9</ele>
        <time>2022-04-17T06:48:43.000Z</time>
      </trkpt>
      <trkpt lat="43.28132" lon="2.31381">
        <ele>188.9</ele>
        <time>2022-04-17T06:48:44.000Z</time>
      </trkpt>
      <trkpt lat="43.28131" lon="2.31383">
        <ele>188.8</ele>
        <time>2022-04-17T06:48:45.000Z</time>
      </trkpt>
      <trkpt lat="43.28129" lon="2.31385">
        <ele>188.8</ele>
        <time>2022-04-17T06:48:46.000Z</time>
      </trkpt>
      <trkpt lat="43.28128" lon="2.31387">
        <ele>188.7</ele>
        <time>2022-04-17T06:48:47.000Z</time>
      </trkpt>
      <trkpt lat="43.28126" lon="2.31388">
        <ele>188.6</ele>
        <time>2022-04-17T06:48:48.000Z</time>
      </trkpt>
      <trkpt lat="43.28125" lon="2.3139">
        <ele>188.5</ele>
        <time>2022-04-17T06:48:49.000Z</time>
      </trkpt>
      <trkpt lat="43.28123" lon="2.31392">
        <ele>188.4</ele>
        <time>2022-04-17T06:48:50.000Z</time>
      </trkpt>
      <trkpt lat="43.28122" lon="2.31394">
        <ele>188.4</ele>
        <time>2022-04-17T06:48:51.000Z</time>
      </trkpt>
      <trkpt lat="43.28121" lon="2.31396">
        <ele>188.3</ele>
        <time>2022-04-17T06:48:52.000Z</time>
      </trkpt>
      <trkpt lat="43.2812" lon="2.31399">
        <ele>188.3</ele>
        <time>2022-04-17T06:48:53.000Z</time>
      </trkpt>
      <trkpt lat="43.2812" lon="2.31401">
        <ele>188.3</ele>
        <time>2022-04-17T06:48:54.000Z</time>
      </trkpt>
      <trkpt lat="43.28119" lon="2.31404">
        <ele>188.4</ele>
        <time>2022-04-17T06:48:55.000Z</time>
      </trkpt>
      <trkpt lat="43.28119" lon="2.31407">
        <ele>188.4</ele>
        <time>2022-04-17T06:48:56.000Z</time>
      </trkpt>
      <trkpt lat="43.28119" lon="2.31409">
        <ele>188.4</ele>
        <time>2022-04-17T06:48:57.000Z</time>
      </trkpt>
      <trkpt lat="43.28119" lon="2.31412">
        <ele>188.5</ele>
        <time>2022-04-17T06:48:58.000Z</time>
      </trkpt>
      <trkpt lat="43.2812" lon="2.31415">
        <ele>188.6</ele>
        <time>2022-04-17T06:48:59.000Z</time>
      </trkpt>
      <trkpt lat="43.2812" lon="2.31417">
        <ele>188.7</ele>
        <time>2022-04-17T06:49:00.000Z</time>
      </trkpt>
      <trkpt lat="43.28121" lon="2.3142">
        <ele>188.7</ele>
        <time>2022-04-17T06:49:01.000Z</time>
      </trkpt>
      <trkpt lat="43.28121" lon="2.31422">
        <ele>188.7</ele>
        <time>2022-04-17T06:49:02.000Z</time>
      </trkpt>
      <trkpt lat="43.28122" lon="2.31425">
        <ele>188.7</ele>
        <time>2022-04-17T06:49:03.000Z</time>
      </trkpt>
      <trkpt lat="43.28122" lon="2.31427">
        <ele>188.7</ele>
        <time>2022-04-17T06:49:04.000Z</time>
      </trkpt>
      <trkpt lat="43.28123" lon="2.31429">
        <ele>188.8</ele>
        <time>2022-04-17T06:49:05.000Z</time>
      </trkpt>
      <trkpt lat="43.28123" lon="2.31432">
        <ele>188.8</ele>
        <time>2022-04-17T06:49:06.000Z</time>
      </trkpt>
      <trkpt lat="43.28124" lon="2.31434">
        <ele>188.8</ele>
        <time>2022-04-17T06:49:07.000Z</time>
      </trkpt>
      <trkpt lat="43.28125" lon="2.31437">
        <ele>188.9</ele>
        <time>2022-04-17T06:49:08.000Z</time>
      </trkpt>
      <trkpt lat="43.28125" lon="2.31439">
        <ele>188.9</ele>
        <time>2022-04-17T06:49:09.000Z</time>
      </trkpt>
      <trkpt lat="43.28126" lon="2.31442">
        <ele>188.9</ele>
        <time>2022-04-17T06:49:10.000Z</time>
      </trkpt>
      <trkpt lat="43.28127" lon="2.31444">
        <ele>189</ele>
        <time>2022-04-17T06:49:11.000Z</time>
      </trkpt>
      <trkpt lat="43.28127" lon="2.31446">
        <ele>189</ele>
        <time>2022-04-17T06:49:12.000Z</time>
      </trkpt>
      <trkpt lat="43.28128" lon="2.31448">
        <ele>189</ele>
        <time>2022-04-17T06:49:13.000Z</time>
      </trkpt>
      <trkpt lat="43.28128" lon="2.3145">
        <ele>189.1</ele>
        <time>2022-04-17T06:49:14.000Z</time>
      </trkpt>
      <trkpt lat="43.28129" lon="2.31452">
        <ele>189.1</ele>
        <time>2022-04-17T06:49:15.000Z</time>
      </trkpt>
      <trkpt lat="43.28129" lon="2.31454">
        <ele>189.1</ele>
        <time>2022-04-17T06:49:16.000Z</time>
      </trkpt>
      <trkpt lat="43.28129" lon="2.31456">
        <ele>189.1</ele>
        <time>2022-04-17T06:49:17.000Z</time>
      </trkpt>
      <trkpt lat="43.28129" lon="2.31458">
        <ele>189</ele>
        <time>2022-04-17T06:49:18.000Z</time>
      </trkpt>
      <trkpt lat="43.28128" lon="2.3146">
        <ele>189</ele>
        <time>2022-04-17T06:49:19.000Z</time>
      </trkpt>
      <trkpt lat="43.28128" lon="2.31462">
        <ele>189</ele>
        <time>2022-04-17T06:49:20.000Z</time>
      </trkpt>
      <trkpt lat="43.28128" lon="2.31464">
        <ele>188.9</ele>
        <time>2022-04-17T06:49:21.000Z</time>
      </trkpt>
      <trkpt lat="43.28128" lon="2.31466">
        <ele>188.9</ele>
        <time>2022-04-17T06:49:22.000Z</time>
      </trkpt>
      <trkpt lat="43.28128" lon="2.31468">
        <ele>188.9</ele>
        <time>2022-04-17T06:49:23.000Z</time>
      </trkpt>
      <trkpt lat="43.28128" lon="2.3147">
        <ele>188.9</ele>
        <time>2022-04-17T06:49:24.000Z</time>
      </trkpt>
      <trkpt lat="43.28128" lon="2.31472">
        <ele>188.9</ele>
        <time>2022-04-17T06:49:25.000Z</time>
      </trkpt>
      <trkpt lat="43.28128" lon="2.31474">
        <ele>188.9</ele>
        <time>2022-04-17T06:49:26.000Z</time>
      </trkpt>
      <trkpt lat="43.28128" lon="2.31476">
        <ele>188.9</ele>
        <time>2022-04-17T06:49:27.000Z</time>
      </trkpt>
      <trkpt lat="43.28129" lon="2.31478">
        <ele>188.9</ele>
        <time>2022-04-17T06:49:28.000Z</time>
      </trkpt>
      <trkpt lat="43.28129" lon="2.31479">
        <ele>188.9</ele>
        <time>2022-04-17T06:49:29.000Z</time>
      </trkpt>
      <trkpt lat="43.28129" lon="2.31481">
        <ele>189</ele>
        <time>2022-04-17T06:49:30.000Z</time>
      </trkpt>
      <trkpt lat="43.2813" lon="2.31483">
        <ele>189</ele>
        <time>2022-04-17T06:49:31.000Z</time>
      </trkpt>
      <trkpt lat="43.2813" lon="2.31485">
        <ele>189</ele>
        <time>2022-04-17T06:49:32.000Z</time>
      </trkpt>
      <trkpt lat="43.28131" lon="2.31486">
        <ele>189</ele>
        <time>2022-04-17T06:49:33.000Z</time>
      </trkpt>
      <trkpt lat="43.28131" lon="2.31488">
        <ele>189.1</ele>
        <time>2022-04-17T06:49:34.000Z</time>
      </trkpt>
      <trkpt lat="43.28131" lon="2.31489">
        <ele>189.1</ele>
        <time>2022-04-17T06:49:35.000Z</time>
      </trkpt>
      <trkpt lat="43.28132" lon="2.3149">
        <ele>189.1</ele>
        <time>2022-04-17T06:49:36.000Z</time>
      </trkpt>
      <trkpt lat="43.28132" lon="2.31491">
        <ele>189.1</ele>
        <time>2022-04-17T06:49:37.000Z</time>
      </trkpt>
      <trkpt lat="43.28132" lon="2.31491">
        <ele>189.1</ele>
        <time>2022-04-17T06:49:38.000Z</time>
      </trkpt>
      <trkpt lat="43.28132" lon="2.31492">
        <ele>189.1</ele>
        <time>2022-04-17T06:49:39.000Z</time>
      </trkpt>
      <trkpt lat="43.28132" lon="2.31492">
        <ele>189.2</ele>
        <time>2022-04-17T06:49:40.000Z</time>
      </trkpt>
      <trkpt lat="43.28133" lon="2.31492">
        <ele>189.2</ele>
        <time>2022-04-17T06:49:41.000Z</time>
      </trkpt>
      <trkpt lat="43.28133" lon="2.31492">
        <ele>189.2</ele>
        <time>2022-04-17T06:49:42.000Z</time>
      </trkpt>
      <trkpt lat="43.28133" lon="2.31492">
        <ele>189.2</ele>
        <time>2022-04-17T06:49:43.000Z</time>
      </trkpt>
      <trkpt lat="43.28133" lon="2.31492">
        <ele>189.2</ele>
        <time>2022-04-17T06:49:44.000Z</time>
      </trkpt>
      <trkpt lat="43.28133" lon="2.31492">
        <ele>189.2</ele>
        <time>2022-04-17T06:49:45.000Z</time>
      </trkpt>
      <trkpt lat="43.28133" lon="2.31492">
        <ele>189.2</ele>
        <time>2022-04-17T06:49:46.000Z</time>
      </trkpt>
      <trkpt lat="43.28133" lon="2.31492">
        <ele>189.2</ele>
        <time>2022-04-17T06:49:47.000Z</time>
      </trkpt>
      <trkpt lat="43.28133" lon="2.31492">
        <ele>189.2</ele>
        <time>2022-04-17T06:49:48.000Z</time>
      </trkpt>
      <trkpt lat="43.28133" lon="2.31492">
        <ele>189.2</ele>
        <time>2022-04-17T06:49:49.000Z</time>
      </trkpt>
      <trkpt lat="43.28133" lon="2.31492">
        <ele>189.2</ele>
        <time>2022-04-17T06:49:50.000Z</time>
      </trkpt>
      <trkpt lat="43.28133" lon="2.31492">
        <ele>189.2</ele>
        <time>2022-04-17T06:49:51.000Z</time>
      </trkpt>
      <trkpt lat="43.28133" lon="2.31492">
        <ele>189.2</ele>
        <time>2022-04-17T06:49:52.000Z</time>
      </trkpt>
      <trkpt lat="43.28133" lon="2.31492">
        <ele>189.2</ele>
        <time>2022-04-17T06:49:53.000Z</time>
      </trkpt>
      <trkpt lat="43.28133" lon="2.31492">
        <ele>189.2</ele>
        <time>2022-04-17T06:49:54.000Z</time>
      </trkpt>
      <trkpt lat="43.28133" lon="2.31492">
        <ele>189.2</ele>
        <time>2022-04-17T06:49:55.000Z</time>
      </trkpt>
      <trkpt lat="43.28133" lon="2.31492">
        <ele>189.2</ele>
        <time>2022-04-17T06:49:56.000Z</time>
      </trkpt>
      <trkpt lat="43.28133" lon="2.31492">
        <ele>189.2</ele>
        <time>2022-04-17T06:49:57.000Z</time>
      </trkpt>
      <trkpt lat="43.28133" lon="2.31492">
        <ele>189.2</ele>
        <time>2022-04-17T06:49:58.000Z</time>
      </trkpt>
      <trkpt lat="43.28133" lon="2.31492">
        <ele>189.2</ele>
        <time>2022-04-17T06:49:59.000Z</time>
      </trkpt>
      <trkpt lat="43.28133" lon="2.31492">
        <ele>189.2</ele>
        <time>2022-04-17T06:50:00.000Z</time>
      </trkpt>
      <trkpt lat="43.28133" lon="2.31492">
        <ele>189.2</ele>
        <time>2022-04-17T06:50:01.000Z</time>
      </trkpt>
      <trkpt lat="43.28133" lon="2.31492">
        <ele>189.2</ele>
        <time>2022-04-17T06:50:02.000Z</time>
      </trkpt>
      <trkpt lat="43.28133" lon="2.31492">
        <ele>189.2</ele>
        <time>2022-04-17T06:50:03.000Z</time>
      </trkpt>
      <trkpt lat="43.28133" lon="2.31492">
        <ele>189.2</ele>
        <time>2022-04-17T06:50:04.000Z</time>
      </trkpt>
      <trkpt lat="43.28133" lon="2.31492">
        <ele>189.2</ele>
        <time>2022-04-17T06:50:05.000Z</time>
      </trkpt>
      <trkpt lat="43.28133" lon="2.31492">
        <ele>189.2</ele>
        <time>2022-04-17T06:50:06.000Z</time>
      </trkpt>
      <trkpt lat="43.28133" lon="2.31492">
        <ele>189.2</ele>
        <time>2022-04-17T06:50:07.000Z</time>
      </trkpt>
      <trkpt lat="43.28133" lon="2.31492">
        <ele>189.2</ele>
        <time>2022-04-17T06:50:08.000Z</time>
      </trkpt>
      <trkpt lat="43.28133" lon="2.31492">
        <ele>189.2</ele>
        <time>2022-04-17T06:50:09.000Z</time>
      </trkpt>
      <trkpt lat="43.28133" lon="2.31492">
        <ele>189.2</ele>
        <time>2022-04-17T06:50:10.000Z</time>
      </trkpt>
      <trkpt lat="43.28133" lon="2.31492">
        <ele>189.2</ele>
        <time>2022-04-17T06:50:11.000Z</time>
      </trkpt>
      <trkpt lat="43.28134" lon="2.31492">
        <ele>189.3</ele>
        <time>2022-04-17T06:50:12.000Z</time>
      </trkpt>
      <trkpt lat="43.28134" lon="2.31492">
        <ele>189.3</ele>
        <time>2022-04-17T06:50:13.000Z</time>
      </trkpt>
      <trkpt lat="43.28135" lon="2.31492">
        <ele>189.3</ele>
        <time>2022-04-17T06:50:14.000Z</time>
      </trkpt>
      <trkpt lat="43.28135" lon="2.31492">
        <ele>189.4</ele>
        <time>2022-04-17T06:50:15.000Z</time>
      </trkpt>
      <trkpt lat="43.28137" lon="2.31492">
        <ele>189.5</ele>
        <time>2022-04-17T06:50:16.000Z</time>
      </trkpt>
      <trkpt lat="43.28138" lon="2.31492">
        <ele>189.6</ele>
        <time>2022-04-17T06:50:17.000Z</time>
      </trkpt>
      <trkpt lat="43.28139" lon="2.31492">
        <ele>189.7</ele>
        <time>2022-04-17T06:50:18.000Z</time>
      </trkpt>
      <trkpt lat="43.2814" lon="2.31492">
        <ele>189.8</ele>
        <time>2022-04-17T06:50:19.000Z</time>
      </trkpt>
      <trkpt lat="43.28142" lon="2.31492">
        <ele>189.9</ele>
        <time>2022-04-17T06:50:20.000Z</time>
      </trkpt>
      <trkpt lat="43.28143" lon="2.31492">
        <ele>190</ele>
        <time>2022-04-17T06:50:21.000Z</time>
      </trkpt>
      <trkpt lat="43.28144" lon="2.31492">
        <ele>190.1</ele>
        <time>2022-04-17T06:50:22.000Z</time>
      </trkpt>
      <trkpt lat="43.28145" lon="2.31492">
        <ele>190.2</ele>
        <time>2022-04-17T06:50:23.000Z</time>
      </trkpt>
      <trkpt lat="43.28146" lon="2.31492">
        <ele>190.2</ele>
        <time>2022-04-17T06:50:24.000Z</time>
      </trkpt>
      <trkpt lat="43.28146" lon="2.31492">
        <ele>190.3</ele>
        <time>2022-04-17T06:50:25.000Z</time>
      </trkpt>
      <trkpt lat="43.28147" lon="2.31492">
        <ele>190.4</ele>
        <time>2022-04-17T06:50:26.000Z</time>
      </trkpt>
      <trkpt lat="43.28148" lon="2.31493">
        <ele>190.4</ele>
        <time>2022-04-17T06:50:27.000Z</time>
      </trkpt>
      <trkpt lat="43.28149" lon="2.31493">
        <ele>190.5</ele>
        <time>2022-04-17T06:50:28.000Z</time>
      </trkpt>
      <trkpt lat="43.2815" lon="2.31494">
        <ele>190.6</ele>
        <time>2022-04-17T06:50:29.000Z</time>
      </trkpt>
      <trkpt lat="43.28151" lon="2.31496">
        <ele>190.7</ele>
        <time>2022-04-17T06:50:30.000Z</time>
      </trkpt>
      <trkpt lat="43.28152" lon="2.31497">
        <ele>190.7</ele>
        <time>2022-04-17T06:50:31.000Z</time>
      </trkpt>
      <trkpt lat="43.28153" lon="2.31499">
        <ele>190.8</ele>
        <time>2022-04-17T06:50:32.000Z</time>
      </trkpt>
      <trkpt lat="43.28154" lon="2.315">
        <ele>190.9</ele>
        <time>2022-04-17T06:50:33.000Z</time>
      </trkpt>
      <trkpt lat="43.28155" lon="2.31502">
        <ele>191</ele>
        <time>2022-04-17T06:50:34.000Z</time>
      </trkpt>
      <trkpt lat="43.28156" lon="2.31504">
        <ele>191.2</ele>
        <time>2022-04-17T06:50:35.000Z</time>
      </trkpt>
      <trkpt lat="43.28156" lon="2.31505">
        <ele>191.2</ele>
        <time>2022-04-17T06:50:36.000Z</time>
      </trkpt>
      <trkpt lat="43.28157" lon="2.31507">
        <ele>191.3</ele>
        <time>2022-04-17T06:50:37.000Z</time>
      </trkpt>
      <trkpt lat="43.28157" lon="2.31508">
        <ele>191.4</ele>
        <time>2022-04-17T06:50:38.000Z</time>
      </trkpt>
      <trkpt lat="43.28158" lon="2.3151">
        <ele>191.5</ele>
        <time>2022-04-17T06:50:39.000Z</time>
      </trkpt>
      <trkpt lat="43.28158" lon="2.31511">
        <ele>191.5</ele>
        <time>2022-04-17T06:50:40.000Z</time>
      </trkpt>
      <trkpt lat="43.28159" lon="2.31513">
        <ele>191.6</ele>
        <time>2022-04-17T06:50:41.000Z</time>
      </trkpt>
      <trkpt lat="43.2816" lon="2.31514">
        <ele>191.7</ele>
        <time>2022-04-17T06:50:42.000Z</time>
      </trkpt>
      <trkpt lat="43.2816" lon="2.31516">
        <ele>191.8</ele>
        <time>2022-04-17T06:50:43.000Z</time>
      </trkpt>
      <trkpt lat="43.28162" lon="2.31517">
        <ele>192</ele>
        <time>2022-04-17T06:50:44.000Z</time>
      </trkpt>
      <trkpt lat="43.28163" lon="2.31519">
        <ele>192.1</ele>
        <time>2022-04-17T06:50:45.000Z</time>
      </trkpt>
      <trkpt lat="43.28164" lon="2.3152">
        <ele>192.2</ele>
        <time>2022-04-17T06:50:46.000Z</time>
      </trkpt>
      <trkpt lat="43.28165" lon="2.31522">
        <ele>192.4</ele>
        <time>2022-04-17T06:50:47.000Z</time>
      </trkpt>
      <trkpt lat="43.28167" lon="2.31523">
        <ele>192.5</ele>
        <time>2022-04-17T06:50:48.000Z</time>
      </trkpt>
      <trkpt lat="43.28168" lon="2.31524">
        <ele>192.7</ele>
        <time>2022-04-17T06:50:49.000Z</time>
      </trkpt>
      <trkpt lat="43.28169" lon="2.31525">
        <ele>192.8</ele>
        <time>2022-04-17T06:50:50.000Z</time>
      </trkpt>
      <trkpt lat="43.28171" lon="2.31526">
        <ele>192.9</ele>
        <time>2022-04-17T06:50:51.000Z</time>
      </trkpt>
      <trkpt lat="43.28172" lon="2.31526">
        <ele>192.9</ele>
        <time>2022-04-17T06:50:52.000Z</time>
      </trkpt>
      <trkpt lat="43.28173" lon="2.31526">
        <ele>193</ele>
        <time>2022-04-17T06:50:53.000Z</time>
      </trkpt>
      <trkpt lat="43.28174" lon="2.31526">
        <ele>193.1</ele>
        <time>2022-04-17T06:50:54.000Z</time>
      </trkpt>
      <trkpt lat="43.28176" lon="2.31525">
        <ele>193.1</ele>
        <time>2022-04-17T06:50:55.000Z</time>
      </trkpt>
      <trkpt lat="43.28177" lon="2.31524">
        <ele>193.2</ele>
        <time>2022-04-17T06:50:56.000Z</time>
      </trkpt>
      <trkpt lat="43.28179" lon="2.31523">
        <ele>193.3</ele>
        <time>2022-04-17T06:50:57.000Z</time>
      </trkpt>
      <trkpt lat="43.2818" lon="2.31522">
        <ele>193.4</ele>
        <time>2022-04-17T06:50:58.000Z</time>
      </trkpt>
      <trkpt lat="43.28182" lon="2.31521">
        <ele>193.5</ele>
        <time>2022-04-17T06:50:59.000Z</time>
      </trkpt>
      <trkpt lat="43.28184" lon="2.31521">
        <ele>193.6</ele>
        <time>2022-04-17T06:51:00.000Z</time>
      </trkpt>
      <trkpt lat="43.28185" lon="2.3152">
        <ele>193.7</ele>
        <time>2022-04-17T06:51:01.000Z</time>
      </trkpt>
      <trkpt lat="43.28187" lon="2.3152">
        <ele>193.8</ele>
        <time>2022-04-17T06:51:02.000Z</time>
      </trkpt>
      <trkpt lat="43.28189" lon="2.31518">
        <ele>193.9</ele>
        <time>2022-04-17T06:51:03.000Z</time>
      </trkpt>
      <trkpt lat="43.28191" lon="2.31517">
        <ele>194</ele>
        <time>2022-04-17T06:51:04.000Z</time>
      </trkpt>
      <trkpt lat="43.28193" lon="2.31516">
        <ele>194.1</ele>
        <time>2022-04-17T06:51:05.000Z</time>
      </trkpt>
      <trkpt lat="43.28195" lon="2.31514">
        <ele>194.2</ele>
        <time>2022-04-17T06:51:06.000Z</time>
      </trkpt>
      <trkpt lat="43.28197" lon="2.31512">
        <ele>194.3</ele>
        <time>2022-04-17T06:51:07.000Z</time>
      </trkpt>
      <trkpt lat="43.28199" lon="2.3151">
        <ele>194.4</ele>
        <time>2022-04-17T06:51:08.000Z</time>
      </trkpt>
      <trkpt lat="43.28201" lon="2.31508">
        <ele>194.5</ele>
        <time>2022-04-17T06:51:09.000Z</time>
      </trkpt>
      <trkpt lat="43.28203" lon="2.31506">
        <ele>194.6</ele>
        <time>2022-04-17T06:51:10.000Z</time>
      </trkpt>
      <trkpt lat="43.28205" lon="2.31504">
        <ele>194.8</ele>
        <time>2022-04-17T06:51:11.000Z</time>
      </trkpt>
      <trkpt lat="43.28206" lon="2.31501">
        <ele>194.9</ele>
        <time>2022-04-17T06:51:12.000Z</time>
      </trkpt>
      <trkpt lat="43.28208" lon="2.31499">
        <ele>195</ele>
        <time>2022-04-17T06:51:13.000Z</time>
      </trkpt>
      <trkpt lat="43.2821" lon="2.31497">
        <ele>195</ele>
        <time>2022-04-17T06:51:14.000Z</time>
      </trkpt>
      <trkpt lat="43.28212" lon="2.31495">
        <ele>195.1</ele>
        <time>2022-04-17T06:51:15.000Z</time>
      </trkpt>
      <trkpt lat="43.28213" lon="2.31492">
        <ele>195.2</ele>
        <time>2022-04-17T06:51:16.000Z</time>
      </trkpt>
      <trkpt lat="43.28215" lon="2.3149">
        <ele>195.2</ele>
        <time>2022-04-17T06:51:17.000Z</time>
      </trkpt>
      <trkpt lat="43.28216" lon="2.31488">
        <ele>195.3</ele>
        <time>2022-04-17T06:51:18.000Z</time>
      </trkpt>
      <trkpt lat="43.28217" lon="2.31485">
        <ele>195.3</ele>
        <time>2022-04-17T06:51:19.000Z</time>
      </trkpt>
      <trkpt lat="43.28219" lon="2.31483">
        <ele>195.4</ele>
        <time>2022-04-17T06:51:20.000Z</time>
      </trkpt>
      <trkpt lat="43.2822" lon="2.3148">
        <ele>195.4</ele>
        <time>2022-04-17T06:51:21.000Z</time>
      </trkpt>
      <trkpt lat="43.28221" lon="2.31477">
        <ele>195.4</ele>
        <time>2022-04-17T06:51:22.000Z</time>
      </trkpt>
      <trkpt lat="43.28222" lon="2.31474">
        <ele>195.4</ele>
        <time>2022-04-17T06:51:23.000Z</time>
      </trkpt>
      <trkpt lat="43.28224" lon="2.31471">
        <ele>195.4</ele>
        <time>2022-04-17T06:51:24.000Z</time>
      </trkpt>
      <trkpt lat="43.28225" lon="2.31468">
        <ele>195.4</ele>
        <time>2022-04-17T06:51:25.000Z</time>
      </trkpt>
      <trkpt lat="43.28226" lon="2.31465">
        <ele>195.4</ele>
        <time>2022-04-17T06:51:26.000Z</time>
      </trkpt>
      <trkpt lat="43.28227" lon="2.31462">
        <ele>195.3</ele>
        <time>2022-04-17T06:51:27.000Z</time>
      </trkpt>
      <trkpt lat="43.28228" lon="2.31459">
        <ele>195.3</ele>
        <time>2022-04-17T06:51:28.000Z</time>
      </trkpt>
      <trkpt lat="43.28229" lon="2.31456">
        <ele>195.3</ele>
        <time>2022-04-17T06:51:29.000Z</time>
      </trkpt>
      <trkpt lat="43.2823" lon="2.31453">
        <ele>195.3</ele>
        <time>2022-04-17T06:51:30.000Z</time>
      </trkpt>
      <trkpt lat="43.28232" lon="2.31452">
        <ele>195.3</ele>
        <time>2022-04-17T06:51:31.000Z</time>
      </trkpt>
      <trkpt lat="43.28234" lon="2.31452">
        <ele>195.4</ele>
        <time>2022-04-17T06:51:32.000Z</time>
      </trkpt>
      <trkpt lat="43.28236" lon="2.31453">
        <ele>195.6</ele>
        <time>2022-04-17T06:51:33.000Z</time>
      </trkpt>
      <trkpt lat="43.28238" lon="2.31454">
        <ele>195.7</ele>
        <time>2022-04-17T06:51:34.000Z</time>
      </trkpt>
      <trkpt lat="43.2824" lon="2.31457">
        <ele>195.9</ele>
        <time>2022-04-17T06:51:35.000Z</time>
      </trkpt>
      <trkpt lat="43.28241" lon="2.31459">
        <ele>196</ele>
        <time>2022-04-17T06:51:36.000Z</time>
      </trkpt>
      <trkpt lat="43.28242" lon="2.31462">
        <ele>196.2</ele>
        <time>2022-04-17T06:51:37.000Z</time>
      </trkpt>
      <trkpt lat="43.28243" lon="2.31465">
        <ele>196.3</ele>
        <time>2022-04-17T06:51:38.000Z</time>
      </trkpt>
      <trkpt lat="43.28243" lon="2.31467">
        <ele>196.4</ele>
        <time>2022-04-17T06:51:39.000Z</time>
      </trkpt>
      <trkpt lat="43.28244" lon="2.3147">
        <ele>196.5</ele>
        <time>2022-04-17T06:51:40.000Z</time>
      </trkpt>
      <trkpt lat="43.28244" lon="2.31472">
        <ele>196.6</ele>
        <time>2022-04-17T06:51:41.000Z</time>
      </trkpt>
      <trkpt lat="43.28245" lon="2.31474">
        <ele>196.8</ele>
        <time>2022-04-17T06:51:42.000Z</time>
      </trkpt>
      <trkpt lat="43.28246" lon="2.31476">
        <ele>196.9</ele>
        <time>2022-04-17T06:51:43.000Z</time>
      </trkpt>
      <trkpt lat="43.28247" lon="2.31478">
        <ele>197.1</ele>
        <time>2022-04-17T06:51:44.000Z</time>
      </trkpt>
      <trkpt lat="43.28249" lon="2.31481">
        <ele>197.2</ele>
        <time>2022-04-17T06:51:45.000Z</time>
      </trkpt>
      <trkpt lat="43.2825" lon="2.31482">
        <ele>197.4</ele>
        <time>2022-04-17T06:51:46.000Z</time>
      </trkpt>
      <trkpt lat="43.28251" lon="2.31484">
        <ele>197.5</ele>
        <time>2022-04-17T06:51:47.000Z</time>
      </trkpt>
      <trkpt lat="43.28252" lon="2.31486">
        <ele>197.6</ele>
        <time>2022-04-17T06:51:48.000Z</time>
      </trkpt>
      <trkpt lat="43.28253" lon="2.31488">
        <ele>197.8</ele>
        <time>2022-04-17T06:51:49.000Z</time>
      </trkpt>
      <trkpt lat="43.28254" lon="2.3149">
        <ele>197.9</ele>
        <time>2022-04-17T06:51:50.000Z</time>
      </trkpt>
      <trkpt lat="43.28255" lon="2.31492">
        <ele>198</ele>
        <time>2022-04-17T06:51:51.000Z</time>
      </trkpt>
      <trkpt lat="43.28256" lon="2.31494">
        <ele>198.2</ele>
        <time>2022-04-17T06:51:52.000Z</time>
      </trkpt>
      <trkpt lat="43.28257" lon="2.31496">
        <ele>198.3</ele>
        <time>2022-04-17T06:51:53.000Z</time>
      </trkpt>
      <trkpt lat="43.28257" lon="2.31498">
        <ele>198.3</ele>
        <time>2022-04-17T06:51:54.000Z</time>
      </trkpt>
      <trkpt lat="43.28257" lon="2.315">
        <ele>198.4</ele>
        <time>2022-04-17T06:51:55.000Z</time>
      </trkpt>
      <trkpt lat="43.28257" lon="2.31502">
        <ele>198.4</ele>
        <time>2022-04-17T06:51:56.000Z</time>
      </trkpt>
      <trkpt lat="43.28257" lon="2.31505">
        <ele>198.3</ele>
        <time>2022-04-17T06:51:57.000Z</time>
      </trkpt>
      <trkpt lat="43.28256" lon="2.31507">
        <ele>198.3</ele>
        <time>2022-04-17T06:51:58.000Z</time>
      </trkpt>
      <trkpt lat="43.28256" lon="2.31509">
        <ele>198.3</ele>
        <time>2022-04-17T06:51:59.000Z</time>
      </trkpt>
      <trkpt lat="43.28256" lon="2.31511">
        <ele>198.2</ele>
        <time>2022-04-17T06:52:00.000Z</time>
      </trkpt>
      <trkpt lat="43.28255" lon="2.31514">
        <ele>198.2</ele>
        <time>2022-04-17T06:52:01.000Z</time>
      </trkpt>
      <trkpt lat="43.28255" lon="2.31516">
        <ele>198.1</ele>
        <time>2022-04-17T06:52:02.000Z</time>
      </trkpt>
      <trkpt lat="43.28255" lon="2.31518">
        <ele>198.1</ele>
        <time>2022-04-17T06:52:03.000Z</time>
      </trkpt>
      <trkpt lat="43.28255" lon="2.31521">
        <ele>198.1</ele>
        <time>2022-04-17T06:52:04.000Z</time>
      </trkpt>
      <trkpt lat="43.28256" lon="2.31523">
        <ele>198.1</ele>
        <time>2022-04-17T06:52:05.000Z</time>
      </trkpt>
      <trkpt lat="43.28257" lon="2.31526">
        <ele>198.1</ele>
        <time>2022-04-17T06:52:06.000Z</time>
      </trkpt>
      <trkpt lat="43.28258" lon="2.31528">
        <ele>198.1</ele>
        <time>2022-04-17T06:52:07.000Z</time>
      </trkpt>
      <trkpt lat="43.28259" lon="2.31531">
        <ele>198.2</ele>
        <time>2022-04-17T06:52:08.000Z</time>
      </trkpt>
      <trkpt lat="43.2826" lon="2.31533">
        <ele>198.3</ele>
        <time>2022-04-17T06:52:09.000Z</time>
      </trkpt>
      <trkpt lat="43.28262" lon="2.31536">
        <ele>198.4</ele>
        <time>2022-04-17T06:52:10.000Z</time>
      </trkpt>
      <trkpt lat="43.28264" lon="2.31538">
        <ele>198.5</ele>
        <time>2022-04-17T06:52:11.000Z</time>
      </trkpt>
      <trkpt lat="43.28266" lon="2.3154">
        <ele>198.6</ele>
        <time>2022-04-17T06:52:12.000Z</time>
      </trkpt>
      <trkpt lat="43.28268" lon="2.31542">
        <ele>198.7</ele>
        <time>2022-04-17T06:52:13.000Z</time>
      </trkpt>
      <trkpt lat="43.2827" lon="2.31543">
        <ele>198.8</ele>
        <time>2022-04-17T06:52:14.000Z</time>
      </trkpt>
      <trkpt lat="43.28272" lon="2.31544">
        <ele>198.9</ele>
        <time>2022-04-17T06:52:15.000Z</time>
      </trkpt>
      <trkpt lat="43.28274" lon="2.31544">
        <ele>199.1</ele>
        <time>2022-04-17T06:52:16.000Z</time>
      </trkpt>
      <trkpt lat="43.28276" lon="2.31544">
        <ele>199.2</ele>
        <time>2022-04-17T06:52:17.000Z</time>
      </trkpt>
      <trkpt lat="43.28278" lon="2.31544">
        <ele>199.3</ele>
        <time>2022-04-17T06:52:18.000Z</time>
      </trkpt>
      <trkpt lat="43.2828" lon="2.31544">
        <ele>199.4</ele>
        <time>2022-04-17T06:52:19.000Z</time>
      </trkpt>
      <trkpt lat="43.28282" lon="2.31543">
        <ele>199.6</ele>
        <time>2022-04-17T06:52:20.000Z</time>
      </trkpt>
      <trkpt lat="43.28284" lon="2.31542">
        <ele>199.7</ele>
        <time>2022-04-17T06:52:21.000Z</time>
      </trkpt>
      <trkpt lat="43.28286" lon="2.31542">
        <ele>199.9</ele>
        <time>2022-04-17T06:52:22.000Z</time>
      </trkpt>
      <trkpt lat="43.28288" lon="2.31541">
        <ele>200</ele>
        <time>2022-04-17T06:52:23.000Z</time>
      </trkpt>
      <trkpt lat="43.28291" lon="2.3154">
        <ele>200.2</ele>
        <time>2022-04-17T06:52:24.000Z</time>
      </trkpt>
      <trkpt lat="43.28293" lon="2.31539">
        <ele>200.4</ele>
        <time>2022-04-17T06:52:25.000Z</time>
      </trkpt>
      <trkpt lat="43.28296" lon="2.31539">
        <ele>200.5</ele>
        <time>2022-04-17T06:52:26.000Z</time>
      </trkpt>
      <trkpt lat="43.28298" lon="2.31538">
        <ele>200.7</ele>
        <time>2022-04-17T06:52:27.000Z</time>
      </trkpt>
      <trkpt lat="43.283" lon="2.31537">
        <ele>200.8</ele>
        <time>2022-04-17T06:52:28.000Z</time>
      </trkpt>
      <trkpt lat="43.28303" lon="2.31536">
        <ele>201</ele>
        <time>2022-04-17T06:52:29.000Z</time>
      </trkpt>
      <trkpt lat="43.28305" lon="2.31536">
        <ele>201.2</ele>
        <time>2022-04-17T06:52:30.000Z</time>
      </trkpt>
      <trkpt lat="43.28308" lon="2.31535">
        <ele>201.3</ele>
        <time>2022-04-17T06:52:31.000Z</time>
      </trkpt>
      <trkpt lat="43.2831" lon="2.31534">
        <ele>201.5</ele>
        <time>2022-04-17T06:52:32.000Z</time>
      </trkpt>
      <trkpt lat="43.28312" lon="2.31534">
        <ele>201.6</ele>
        <time>2022-04-17T06:52:33.000Z</time>
      </trkpt>
      <trkpt lat="43.28315" lon="2.31534">
        <ele>201.8</ele>
        <time>2022-04-17T06:52:34.000Z</time>
      </trkpt>
      <trkpt lat="43.28317" lon="2.31534">
        <ele>201.9</ele>
        <time>2022-04-17T06:52:35.000Z</time>
      </trkpt>
      <trkpt lat="43.28319" lon="2.31533">
        <ele>202.1</ele>
        <time>2022-04-17T06:52:36.000Z</time>
      </trkpt>
      <trkpt lat="43.28321" lon="2.31533">
        <ele>202.2</ele>
        <time>2022-04-17T06:52:37.000Z</time>
      </trkpt>
      <trkpt lat="43.28323" lon="2.31533">
        <ele>202.4</ele>
        <time>2022-04-17T06:52:38.000Z</time>
      </trkpt>
      <trkpt lat="43.28326" lon="2.31534">
        <ele>202.5</ele>
        <time>2022-04-17T06:52:39.000Z</time>
      </trkpt>
      <trkpt lat="43.28328" lon="2.31534">
        <ele>202.6</ele>
        <time>2022-04-17T06:52:40.000Z</time>
      </trkpt>
      <trkpt lat="43.2833" lon="2.31534">
        <ele>202.8</ele>
        <time>2022-04-17T06:52:41.000Z</time>
      </trkpt>
      <trkpt lat="43.28332" lon="2.31533">
        <ele>202.9</ele>
        <time>2022-04-17T06:52:42.000Z</time>
      </trkpt>
      <trkpt lat="43.28334" lon="2.31533">
        <ele>203</ele>
        <time>2022-04-17T06:52:43.000Z</time>
      </trkpt>
      <trkpt lat="43.28336" lon="2.31533">
        <ele>203.1</ele>
        <time>2022-04-17T06:52:44.000Z</time>
      </trkpt>
      <trkpt lat="43.28338" lon="2.31533">
        <ele>203.2</ele>
        <time>2022-04-17T06:52:45.000Z</time>
      </trkpt>
      <trkpt lat="43.2834" lon="2.31532">
        <ele>203.2</ele>
        <time>2022-04-17T06:52:46.000Z</time>
      </trkpt>
      <trkpt lat="43.28342" lon="2.31531">
        <ele>203.3</ele>
        <time>2022-04-17T06:52:47.000Z</time>
      </trkpt>
      <trkpt lat="43.28344" lon="2.31531">
        <ele>203.4</ele>
        <time>2022-04-17T06:52:48.000Z</time>
      </trkpt>
      <trkpt lat="43.28346" lon="2.3153">
        <ele>203.5</ele>
        <time>2022-04-17T06:52:49.000Z</time>
      </trkpt>
      <trkpt lat="43.28348" lon="2.31529">
        <ele>203.6</ele>
        <time>2022-04-17T06:52:50.000Z</time>
      </trkpt>
      <trkpt lat="43.2835" lon="2.31528">
        <ele>203.7</ele>
        <time>2022-04-17T06:52:51.000Z</time>
      </trkpt>
      <trkpt lat="43.28352" lon="2.31527">
        <ele>203.7</ele>
        <time>2022-04-17T06:52:52.000Z</time>
      </trkpt>
      <trkpt lat="43.28354" lon="2.31526">
        <ele>203.8</ele>
        <time>2022-04-17T06:52:53.000Z</time>
      </trkpt>
      <trkpt lat="43.28356" lon="2.31525">
        <ele>203.9</ele>
        <time>2022-04-17T06:52:54.000Z</time>
      </trkpt>
      <trkpt lat="43.28358" lon="2.31524">
        <ele>204</ele>
        <time>2022-04-17T06:52:55.000Z</time>
      </trkpt>
      <trkpt lat="43.2836" lon="2.31523">
        <ele>204.1</ele>
        <time>2022-04-17T06:52:56.000Z</time>
      </trkpt>
      <trkpt lat="43.28362" lon="2.31522">
        <ele>204.2</ele>
        <time>2022-04-17T06:52:57.000Z</time>
      </trkpt>
      <trkpt lat="43.28364" lon="2.31522">
        <ele>204.3</ele>
        <time>2022-04-17T06:52:58.000Z</time>
      </trkpt>
      <trkpt lat="43.28366" lon="2.31521">
        <ele>204.4</ele>
        <time>2022-04-17T06:52:59.000Z</time>
      </trkpt>
      <trkpt lat="43.28368" lon="2.31519">
        <ele>204.5</ele>
        <time>2022-04-17T06:53:00.000Z</time>
      </trkpt>
      <trkpt lat="43.2837" lon="2.31518">
        <ele>204.6</ele>
        <time>2022-04-17T06:53:01.000Z</time>
      </trkpt>
      <trkpt lat="43.28371" lon="2.31517">
        <ele>204.6</ele>
        <time>2022-04-17T06:53:02.000Z</time>
      </trkpt>
      <trkpt lat="43.28373" lon="2.31515">
        <ele>204.7</ele>
        <time>2022-04-17T06:53:03.000Z</time>
      </trkpt>
      <trkpt lat="43.28375" lon="2.31513">
        <ele>204.8</ele>
        <time>2022-04-17T06:53:04.000Z</time>
      </trkpt>
      <trkpt lat="43.28376" lon="2.31512">
        <ele>204.9</ele>
        <time>2022-04-17T06:53:05.000Z</time>
      </trkpt>
      <trkpt lat="43.28378" lon="2.3151">
        <ele>205</ele>
        <time>2022-04-17T06:53:06.000Z</time>
      </trkpt>
      <trkpt lat="43.2838" lon="2.31507">
        <ele>205.1</ele>
        <time>2022-04-17T06:53:07.000Z</time>
      </trkpt>
      <trkpt lat="43.28381" lon="2.31505">
        <ele>205.2</ele>
        <time>2022-04-17T06:53:08.000Z</time>
      </trkpt>
      <trkpt lat="43.28383" lon="2.31503">
        <ele>205.4</ele>
        <time>2022-04-17T06:53:09.000Z</time>
      </trkpt>
      <trkpt lat="43.28385" lon="2.31501">
        <ele>205.5</ele>
        <time>2022-04-17T06:53:10.000Z</time>
      </trkpt>
      <trkpt lat="43.28387" lon="2.31498">
        <ele>205.6</ele>
        <time>2022-04-17T06:53:11.000Z</time>
      </trkpt>
      <trkpt lat="43.28389" lon="2.31496">
        <ele>205.6</ele>
        <time>2022-04-17T06:53:12.000Z</time>
      </trkpt>
      <trkpt lat="43.28391" lon="2.31495">
        <ele>205.7</ele>
        <time>2022-04-17T06:53:13.000Z</time>
      </trkpt>
      <trkpt lat="43.28393" lon="2.31493">
        <ele>205.8</ele>
        <time>2022-04-17T06:53:14.000Z</time>
      </trkpt>
      <trkpt lat="43.28395" lon="2.31492">
        <ele>205.9</ele>
        <time>2022-04-17T06:53:15.000Z</time>
      </trkpt>
      <trkpt lat="43.28397" lon="2.3149">
        <ele>206</ele>
        <time>2022-04-17T06:53:16.000Z</time>
      </trkpt>
      <trkpt lat="43.28399" lon="2.31489">
        <ele>206.1</ele>
        <time>2022-04-17T06:53:17.000Z</time>
      </trkpt>
      <trkpt lat="43.28401" lon="2.31488">
        <ele>206.2</ele>
        <time>2022-04-17T06:53:18.000Z</time>
      </trkpt>
      <trkpt lat="43.28403" lon="2.31486">
        <ele>206.3</ele>
        <time>2022-04-17T06:53:19.000Z</time>
      </trkpt>
      <trkpt lat="43.28405" lon="2.31485">
        <ele>206.4</ele>
        <time>2022-04-17T06:53:20.000Z</time>
      </trkpt>
      <trkpt lat="43.28407" lon="2.31484">
        <ele>206.5</ele>
        <time>2022-04-17T06:53:21.000Z</time>
      </trkpt>
      <trkpt lat="43.28409" lon="2.31482">
        <ele>206.6</ele>
        <time>2022-04-17T06:53:22.000Z</time>
      </trkpt>
      <trkpt lat="43.2841" lon="2.31481">
        <ele>206.7</ele>
        <time>2022-04-17T06:53:23.000Z</time>
      </trkpt>
      <trkpt lat="43.28412" lon="2.31479">
        <ele>206.7</ele>
        <time>2022-04-17T06:53:24.000Z</time>
      </trkpt>
      <trkpt lat="43.28414" lon="2.31477">
        <ele>206.8</ele>
        <time>2022-04-17T06:53:25.000Z</time>
      </trkpt>
      <trkpt lat="43.28415" lon="2.31475">
        <ele>206.9</ele>
        <time>2022-04-17T06:53:26.000Z</time>
      </trkpt>
      <trkpt lat="43.28417" lon="2.31472">
        <ele>207</ele>
        <time>2022-04-17T06:53:27.000Z</time>
      </trkpt>
      <trkpt lat="43.28418" lon="2.3147">
        <ele>207</ele>
        <time>2022-04-17T06:53:28.000Z</time>
      </trkpt>
      <trkpt lat="43.28419" lon="2.31468">
        <ele>207</ele>
        <time>2022-04-17T06:53:29.000Z</time>
      </trkpt>
      <trkpt lat="43.2842" lon="2.31466">
        <ele>207</ele>
        <time>2022-04-17T06:53:30.000Z</time>
      </trkpt>
      <trkpt lat="43.28422" lon="2.31465">
        <ele>207</ele>
        <time>2022-04-17T06:53:31.000Z</time>
      </trkpt>
      <trkpt lat="43.28423" lon="2.31464">
        <ele>207</ele>
        <time>2022-04-17T06:53:32.000Z</time>
      </trkpt>
      <trkpt lat="43.28425" lon="2.31464">
        <ele>207</ele>
        <time>2022-04-17T06:53:33.000Z</time>
      </trkpt>
      <trkpt lat="43.28426" lon="2.31465">
        <ele>207</ele>
        <time>2022-04-17T06:53:34.000Z</time>
      </trkpt>
      <trkpt lat="43.28427" lon="2.31466">
        <ele>207.1</ele>
        <time>2022-04-17T06:53:35.000Z</time>
      </trkpt>
      <trkpt lat="43.28429" lon="2.31468">
        <ele>207.1</ele>
        <time>2022-04-17T06:53:36.000Z</time>
      </trkpt>
      <trkpt lat="43.2843" lon="2.3147">
        <ele>207.1</ele>
        <time>2022-04-17T06:53:37.000Z</time>
      </trkpt>
      <trkpt lat="43.28431" lon="2.31472">
        <ele>207.1</ele>
        <time>2022-04-17T06:53:38.000Z</time>
      </trkpt>
      <trkpt lat="43.28432" lon="2.31475">
        <ele>207.1</ele>
        <time>2022-04-17T06:53:39.000Z</time>
      </trkpt>
      <trkpt lat="43.28433" lon="2.31477">
        <ele>207.1</ele>
        <time>2022-04-17T06:53:40.000Z</time>
      </trkpt>
      <trkpt lat="43.28434" lon="2.3148">
        <ele>207.1</ele>
        <time>2022-04-17T06:53:41.000Z</time>
      </trkpt>
      <trkpt lat="43.28435" lon="2.31483">
        <ele>207</ele>
        <time>2022-04-17T06:53:42.000Z</time>
      </trkpt>
      <trkpt lat="43.28436" lon="2.31485">
        <ele>207</ele>
        <time>2022-04-17T06:53:43.000Z</time>
      </trkpt>
      <trkpt lat="43.28437" lon="2.31488">
        <ele>207</ele>
        <time>2022-04-17T06:53:44.000Z</time>
      </trkpt>
      <trkpt lat="43.28437" lon="2.3149">
        <ele>207</ele>
        <time>2022-04-17T06:53:45.000Z</time>
      </trkpt>
      <trkpt lat="43.28438" lon="2.31493">
        <ele>207</ele>
        <time>2022-04-17T06:53:46.000Z</time>
      </trkpt>
      <trkpt lat="43.28439" lon="2.31495">
        <ele>207</ele>
        <time>2022-04-17T06:53:47.000Z</time>
      </trkpt>
      <trkpt lat="43.2844" lon="2.31497">
        <ele>207</ele>
        <time>2022-04-17T06:53:48.000Z</time>
      </trkpt>
      <trkpt lat="43.28441" lon="2.31499">
        <ele>207</ele>
        <time>2022-04-17T06:53:49.000Z</time>
      </trkpt>
      <trkpt lat="43.28441" lon="2.31501">
        <ele>207</ele>
        <time>2022-04-17T06:53:50.000Z</time>
      </trkpt>
      <trkpt lat="43.28441" lon="2.31503">
        <ele>207</ele>
        <time>2022-04-17T06:53:51.000Z</time>
      </trkpt>
      <trkpt lat="43.2844" lon="2.31504">
        <ele>206.9</ele>
        <time>2022-04-17T06:53:52.000Z</time>
      </trkpt>
      <trkpt lat="43.28439" lon="2.31505">
        <ele>206.9</ele>
        <time>2022-04-17T06:53:53.000Z</time>
      </trkpt>
      <trkpt lat="43.28437" lon="2.31507">
        <ele>206.9</ele>
        <time>2022-04-17T06:53:54.000Z</time>
      </trkpt>
      <trkpt lat="43.28436" lon="2.31509">
        <ele>206.8</ele>
        <time>2022-04-17T06:53:55.000Z</time>
      </trkpt>
      <trkpt lat="43.28435" lon="2.31512">
        <ele>206.8</ele>
        <time>2022-04-17T06:53:56.000Z</time>
      </trkpt>
      <trkpt lat="43.28434" lon="2.31516">
        <ele>206.7</ele>
        <time>2022-04-17T06:53:57.000Z</time>
      </trkpt>
      <trkpt lat="43.28434" lon="2.31519">
        <ele>206.6</ele>
        <time>2022-04-17T06:53:58.000Z</time>
      </trkpt>
      <trkpt lat="43.28434" lon="2.31523">
        <ele>206.6</ele>
        <time>2022-04-17T06:53:59.000Z</time>
      </trkpt>
      <trkpt lat="43.28433" lon="2.31526">
        <ele>206.5</ele>
        <time>2022-04-17T06:54:00.000Z</time>
      </trkpt>
      <trkpt lat="43.28433" lon="2.31529">
        <ele>206.4</ele>
        <time>2022-04-17T06:54:01.000Z</time>
      </trkpt>
      <trkpt lat="43.28431" lon="2.31531">
        <ele>206.4</ele>
        <time>2022-04-17T06:54:02.000Z</time>
      </trkpt>
      <trkpt lat="43.28429" lon="2.31533">
        <ele>206.3</ele>
        <time>2022-04-17T06:54:03.000Z</time>
      </trkpt>
      <trkpt lat="43.28427" lon="2.31535">
        <ele>206.3</ele>
        <time>2022-04-17T06:54:04.000Z</time>
      </trkpt>
      <trkpt lat="43.28425" lon="2.31537">
        <ele>206.2</ele>
        <time>2022-04-17T06:54:05.000Z</time>
      </trkpt>
      <trkpt lat="43.28423" lon="2.31539">
        <ele>206.1</ele>
        <time>2022-04-17T06:54:06.000Z</time>
      </trkpt>
      <trkpt lat="43.28422" lon="2.31542">
        <ele>206.1</ele>
        <time>2022-04-17T06:54:07.000Z</time>
      </trkpt>
      <trkpt lat="43.28421" lon="2.31545">
        <ele>206</ele>
        <time>2022-04-17T06:54:08.000Z</time>
      </trkpt>
      <trkpt lat="43.2842" lon="2.31548">
        <ele>205.9</ele>
        <time>2022-04-17T06:54:09.000Z</time>
      </trkpt>
      <trkpt lat="43.2842" lon="2.31551">
        <ele>205.8</ele>
        <time>2022-04-17T06:54:10.000Z</time>
      </trkpt>
      <trkpt lat="43.28419" lon="2.31555">
        <ele>205.7</ele>
        <time>2022-04-17T06:54:11.000Z</time>
      </trkpt>
      <trkpt lat="43.28419" lon="2.31558">
        <ele>205.6</ele>
        <time>2022-04-17T06:54:12.000Z</time>
      </trkpt>
      <trkpt lat="43.28419" lon="2.31562">
        <ele>205.5</ele>
        <time>2022-04-17T06:54:13.000Z</time>
      </trkpt>
      <trkpt lat="43.28418" lon="2.31566">
        <ele>205.5</ele>
        <time>2022-04-17T06:54:14.000Z</time>
      </trkpt>
      <trkpt lat="43.28417" lon="2.31569">
        <ele>205.4</ele>
        <time>2022-04-17T06:54:15.000Z</time>
      </trkpt>
      <trkpt lat="43.28417" lon="2.31573">
        <ele>205.3</ele>
        <time>2022-04-17T06:54:16.000Z</time>
      </trkpt>
      <trkpt lat="43.28416" lon="2.31576">
        <ele>205.1</ele>
        <time>2022-04-17T06:54:17.000Z</time>
      </trkpt>
      <trkpt lat="43.28415" lon="2.3158">
        <ele>205</ele>
        <time>2022-04-17T06:54:18.000Z</time>
      </trkpt>
      <trkpt lat="43.28414" lon="2.31583">
        <ele>204.9</ele>
        <time>2022-04-17T06:54:19.000Z</time>
      </trkpt>
      <trkpt lat="43.28412" lon="2.31586">
        <ele>204.8</ele>
        <time>2022-04-17T06:54:20.000Z</time>
      </trkpt>
      <trkpt lat="43.28411" lon="2.31589">
        <ele>204.6</ele>
        <time>2022-04-17T06:54:21.000Z</time>
      </trkpt>
      <trkpt lat="43.28409" lon="2.31592">
        <ele>204.4</ele>
        <time>2022-04-17T06:54:22.000Z</time>
      </trkpt>
      <trkpt lat="43.28408" lon="2.31595">
        <ele>204.3</ele>
        <time>2022-04-17T06:54:23.000Z</time>
      </trkpt>
      <trkpt lat="43.28406" lon="2.31597">
        <ele>204.1</ele>
        <time>2022-04-17T06:54:24.000Z</time>
      </trkpt>
      <trkpt lat="43.28405" lon="2.316">
        <ele>204</ele>
        <time>2022-04-17T06:54:25.000Z</time>
      </trkpt>
      <trkpt lat="43.28404" lon="2.31603">
        <ele>203.8</ele>
        <time>2022-04-17T06:54:26.000Z</time>
      </trkpt>
      <trkpt lat="43.28403" lon="2.31605">
        <ele>203.7</ele>
        <time>2022-04-17T06:54:27.000Z</time>
      </trkpt>
      <trkpt lat="43.28402" lon="2.31608">
        <ele>203.6</ele>
        <time>2022-04-17T06:54:28.000Z</time>
      </trkpt>
      <trkpt lat="43.28401" lon="2.31611">
        <ele>203.4</ele>
        <time>2022-04-17T06:54:29.000Z</time>
      </trkpt>
      <trkpt lat="43.284" lon="2.31614">
        <ele>203.3</ele>
        <time>2022-04-17T06:54:30.000Z</time>
      </trkpt>
      <trkpt lat="43.28399" lon="2.31617">
        <ele>203.1</ele>
        <time>2022-04-17T06:54:31.000Z</time>
      </trkpt>
      <trkpt lat="43.28399" lon="2.31621">
        <ele>203</ele>
        <time>2022-04-17T06:54:32.000Z</time>
      </trkpt>
      <trkpt lat="43.28399" lon="2.31625">
        <ele>202.8</ele>
        <time>2022-04-17T06:54:33.000Z</time>
      </trkpt>
      <trkpt lat="43.28398" lon="2.31628">
        <ele>202.6</ele>
        <time>2022-04-17T06:54:34.000Z</time>
      </trkpt>
      <trkpt lat="43.28398" lon="2.31632">
        <ele>202.5</ele>
        <time>2022-04-17T06:54:35.000Z</time>
      </trkpt>
      <trkpt lat="43.28398" lon="2.31636">
        <ele>202.3</ele>
        <time>2022-04-17T06:54:36.000Z</time>
      </trkpt>
      <trkpt lat="43.28399" lon="2.3164">
        <ele>202.1</ele>
        <time>2022-04-17T06:54:37.000Z</time>
      </trkpt>
      <trkpt lat="43.28399" lon="2.31644">
        <ele>202</ele>
        <time>2022-04-17T06:54:38.000Z</time>
      </trkpt>
      <trkpt lat="43.28399" lon="2.31648">
        <ele>201.8</ele>
        <time>2022-04-17T06:54:39.000Z</time>
      </trkpt>
      <trkpt lat="43.28399" lon="2.31651">
        <ele>201.7</ele>
        <time>2022-04-17T06:54:40.000Z</time>
      </trkpt>
      <trkpt lat="43.28399" lon="2.31655">
        <ele>201.5</ele>
        <time>2022-04-17T06:54:41.000Z</time>
      </trkpt>
      <trkpt lat="43.284" lon="2.31658">
        <ele>201.4</ele>
        <time>2022-04-17T06:54:42.000Z</time>
      </trkpt>
      <trkpt lat="43.284" lon="2.31662">
        <ele>201.2</ele>
        <time>2022-04-17T06:54:43.000Z</time>
      </trkpt>
      <trkpt lat="43.28399" lon="2.31666">
        <ele>201</ele>
        <time>2022-04-17T06:54:44.000Z</time>
      </trkpt>
      <trkpt lat="43.28399" lon="2.31669">
        <ele>200.9</ele>
        <time>2022-04-17T06:54:45.000Z</time>
      </trkpt>
      <trkpt lat="43.28398" lon="2.31673">
        <ele>200.7</ele>
        <time>2022-04-17T06:54:46.000Z</time>
      </trkpt>
      <trkpt lat="43.28398" lon="2.31677">
        <ele>200.6</ele>
        <time>2022-04-17T06:54:47.000Z</time>
      </trkpt>
      <trkpt lat="43.28397" lon="2.3168">
        <ele>200.4</ele>
        <time>2022-04-17T06:54:48.000Z</time>
      </trkpt>
      <trkpt lat="43.28396" lon="2.31684">
        <ele>200.3</ele>
        <time>2022-04-17T06:54:49.000Z</time>
      </trkpt>
      <trkpt lat="43.28395" lon="2.31687">
        <ele>200.2</ele>
        <time>2022-04-17T06:54:50.000Z</time>
      </trkpt>
      <trkpt lat="43.28394" lon="2.3169">
        <ele>200</ele>
        <time>2022-04-17T06:54:51.000Z</time>
      </trkpt>
      <trkpt lat="43.28394" lon="2.31692">
        <ele>199.9</ele>
        <time>2022-04-17T06:54:52.000Z</time>
      </trkpt>
      <trkpt lat="43.28393" lon="2.31694">
        <ele>199.8</ele>
        <time>2022-04-17T06:54:53.000Z</time>
      </trkpt>
      <trkpt lat="43.28392" lon="2.31696">
        <ele>199.7</ele>
        <time>2022-04-17T06:54:54.000Z</time>
      </trkpt>
      <trkpt lat="43.28392" lon="2.31697">
        <ele>199.7</ele>
        <time>2022-04-17T06:54:55.000Z</time>
      </trkpt>
      <trkpt lat="43.28392" lon="2.31698">
        <ele>199.6</ele>
        <time>2022-04-17T06:54:56.000Z</time>
      </trkpt>
      <trkpt lat="43.28391" lon="2.31699">
        <ele>199.6</ele>
        <time>2022-04-17T06:54:57.000Z</time>
      </trkpt>
      <trkpt lat="43.28391" lon="2.317">
        <ele>199.6</ele>
        <time>2022-04-17T06:54:58.000Z</time>
      </trkpt>
      <trkpt lat="43.28391" lon="2.317">
        <ele>199.6</ele>
        <time>2022-04-17T06:54:59.000Z</time>
      </trkpt>
      <trkpt lat="43.28391" lon="2.317">
        <ele>199.5</ele>
        <time>2022-04-17T06:55:00.000Z</time>
      </trkpt>
      <trkpt lat="43.28391" lon="2.317">
        <ele>199.5</ele>
        <time>2022-04-17T06:55:01.000Z</time>
      </trkpt>
      <trkpt lat="43.28391" lon="2.317">
        <ele>199.5</ele>
        <time>2022-04-17T06:55:02.000Z</time>
      </trkpt>
      <trkpt lat="43.28391" lon="2.317">
        <ele>199.5</ele>
        <time>2022-04-17T06:55:03.000Z</time>
      </trkpt>
      <trkpt lat="43.28391" lon="2.317">
        <ele>199.5</ele>
        <time>2022-04-17T06:55:04.000Z</time>
      </trkpt>
      <trkpt lat="43.28391" lon="2.317">
        <ele>199.5</ele>
        <time>2022-04-17T06:55:05.000Z</time>
      </trkpt>
      <trkpt lat="43.28391" lon="2.317">
        <ele>199.5</ele>
        <time>2022-04-17T06:55:06.000Z</time>
      </trkpt>
      <trkpt lat="43.28391" lon="2.317">
        <ele>199.5</ele>
        <time>2022-04-17T06:55:07.000Z</time>
      </trkpt>
      <trkpt lat="43.28391" lon="2.31701">
        <ele>199.5</ele>
        <time>2022-04-17T06:55:08.000Z</time>
      </trkpt>
      <trkpt lat="43.28391" lon="2.31701">
        <ele>199.5</ele>
        <time>2022-04-17T06:55:09.000Z</time>
      </trkpt>
      <trkpt lat="43.28391" lon="2.31701">
        <ele>199.5</ele>
        <time>2022-04-17T06:55:10.000Z</time>
      </trkpt>
      <trkpt lat="43.28392" lon="2.31701">
        <ele>199.5</ele>
        <time>2022-04-17T06:55:11.000Z</time>
      </trkpt>
      <trkpt lat="43.28393" lon="2.31702">
        <ele>199.5</ele>
        <time>2022-04-17T06:55:12.000Z</time>
      </trkpt>
      <trkpt lat="43.28394" lon="2.31702">
        <ele>199.5</ele>
        <time>2022-04-17T06:55:13.000Z</time>
      </trkpt>
      <trkpt lat="43.28395" lon="2.31702">
        <ele>199.5</ele>
        <time>2022-04-17T06:55:14.000Z</time>
      </trkpt>
      <trkpt lat="43.28397" lon="2.31703">
        <ele>199.5</ele>
        <time>2022-04-17T06:55:15.000Z</time>
      </trkpt>
      <trkpt lat="43.28398" lon="2.31703">
        <ele>199.5</ele>
        <time>2022-04-17T06:55:16.000Z</time>
      </trkpt>
      <trkpt lat="43.284" lon="2.31704">
        <ele>199.5</ele>
        <time>2022-04-17T06:55:17.000Z</time>
      </trkpt>
      <trkpt lat="43.28402" lon="2.31704">
        <ele>199.5</ele>
        <time>2022-04-17T06:55:18.000Z</time>
      </trkpt>
      <trkpt lat="43.28404" lon="2.31704">
        <ele>199.5</ele>
        <time>2022-04-17T06:55:19.000Z</time>
      </trkpt>
      <trkpt lat="43.28406" lon="2.31705">
        <ele>199.5</ele>
        <time>2022-04-17T06:55:20.000Z</time>
      </trkpt>
      <trkpt lat="43.28408" lon="2.31705">
        <ele>199.5</ele>
        <time>2022-04-17T06:55:21.000Z</time>
      </trkpt>
      <trkpt lat="43.28411" lon="2.31706">
        <ele>199.5</ele>
        <time>2022-04-17T06:55:22.000Z</time>
      </trkpt>
      <trkpt lat="43.28413" lon="2.31706">
        <ele>199.5</ele>
        <time>2022-04-17T06:55:23.000Z</time>
      </trkpt>
      <trkpt lat="43.28415" lon="2.31706">
        <ele>199.6</ele>
        <time>2022-04-17T06:55:24.000Z</time>
      </trkpt>
      <trkpt lat="43.28418" lon="2.31707">
        <ele>199.6</ele>
        <time>2022-04-17T06:55:25.000Z</time>
      </trkpt>
      <trkpt lat="43.2842" lon="2.31707">
        <ele>199.7</ele>
        <time>2022-04-17T06:55:26.000Z</time>
      </trkpt>
      <trkpt lat="43.28423" lon="2.31707">
        <ele>199.8</ele>
        <time>2022-04-17T06:55:27.000Z</time>
      </trkpt>
      <trkpt lat="43.28425" lon="2.31707">
        <ele>199.9</ele>
        <time>2022-04-17T06:55:28.000Z</time>
      </trkpt>
      <trkpt lat="43.28428" lon="2.31708">
        <ele>200</ele>
        <time>2022-04-17T06:55:29.000Z</time>
      </trkpt>
      <trkpt lat="43.2843" lon="2.31708">
        <ele>200.1</ele>
        <time>2022-04-17T06:55:30.000Z</time>
      </trkpt>
      <trkpt lat="43.28433" lon="2.31708">
        <ele>200.2</ele>
        <time>2022-04-17T06:55:31.000Z</time>
      </trkpt>
      <trkpt lat="43.28435" lon="2.31708">
        <ele>200.3</ele>
        <time>2022-04-17T06:55:32.000Z</time>
      </trkpt>
      <trkpt lat="43.28438" lon="2.31708">
        <ele>200.4</ele>
        <time>2022-04-17T06:55:33.000Z</time>
      </trkpt>
      <trkpt lat="43.2844" lon="2.31708">
        <ele>200.5</ele>
        <time>2022-04-17T06:55:34.000Z</time>
      </trkpt>
      <trkpt lat="43.28443" lon="2.31709">
        <ele>200.6</ele>
        <time>2022-04-17T06:55:35.000Z</time>
      </trkpt>
      <trkpt lat="43.28445" lon="2.31709">
        <ele>200.7</ele>
        <time>2022-04-17T06:55:36.000Z</time>
      </trkpt>
      <trkpt lat="43.28448" lon="2.31709">
        <ele>200.8</ele>
        <time>2022-04-17T06:55:37.000Z</time>
      </trkpt>
      <trkpt lat="43.2845" lon="2.31709">
        <ele>200.9</ele>
        <time>2022-04-17T06:55:38.000Z</time>
      </trkpt>
      <trkpt lat="43.28452" lon="2.3171">
        <ele>200.9</ele>
        <time>2022-04-17T06:55:39.000Z</time>
      </trkpt>
      <trkpt lat="43.28455" lon="2.3171">
        <ele>201</ele>
        <time>2022-04-17T06:55:40.000Z</time>
      </trkpt>
      <trkpt lat="43.28457" lon="2.3171">
        <ele>201.1</ele>
        <time>2022-04-17T06:55:41.000Z</time>
      </trkpt>
      <trkpt lat="43.28459" lon="2.31711">
        <ele>201.2</ele>
        <time>2022-04-17T06:55:42.000Z</time>
      </trkpt>
      <trkpt lat="43.28462" lon="2.31711">
        <ele>201.3</ele>
        <time>2022-04-17T06:55:43.000Z</time>
      </trkpt>
      <trkpt lat="43.28464" lon="2.31711">
        <ele>201.4</ele>
        <time>2022-04-17T06:55:44.000Z</time>
      </trkpt>
      <trkpt lat="43.28467" lon="2.31712">
        <ele>201.5</ele>
        <time>2022-04-17T06:55:45.000Z</time>
      </trkpt>
      <trkpt lat="43.28469" lon="2.31712">
        <ele>201.6</ele>
        <time>2022-04-17T06:55:46.000Z</time>
      </trkpt>
      <trkpt lat="43.28472" lon="2.31712">
        <ele>201.6</ele>
        <time>2022-04-17T06:55:47.000Z</time>
      </trkpt>
      <trkpt lat="43.28475" lon="2.31713">
        <ele>201.7</ele>
        <time>2022-04-17T06:55:48.000Z</time>
      </trkpt>
      <trkpt lat="43.28477" lon="2.31713">
        <ele>201.8</ele>
        <time>2022-04-17T06:55:49.000Z</time>
      </trkpt>
      <trkpt lat="43.2848" lon="2.31713">
        <ele>201.9</ele>
        <time>2022-04-17T06:55:50.000Z</time>
      </trkpt>
      <trkpt lat="43.28482" lon="2.31714">
        <ele>202</ele>
        <time>2022-04-17T06:55:51.000Z</time>
      </trkpt>
      <trkpt lat="43.28484" lon="2.31714">
        <ele>202.1</ele>
        <time>2022-04-17T06:55:52.000Z</time>
      </trkpt>
      <trkpt lat="43.28487" lon="2.31714">
        <ele>202.2</ele>
        <time>2022-04-17T06:55:53.000Z</time>
      </trkpt>
      <trkpt lat="43.28489" lon="2.31714">
        <ele>202.3</ele>
        <time>2022-04-17T06:55:54.000Z</time>
      </trkpt>
      <trkpt lat="43.28491" lon="2.31714">
        <ele>202.4</ele>
        <time>2022-04-17T06:55:55.000Z</time>
      </trkpt>
      <trkpt lat="43.28493" lon="2.31714">
        <ele>202.4</ele>
        <time>2022-04-17T06:55:56.000Z</time>
      </trkpt>
      <trkpt lat="43.28495" lon="2.31714">
        <ele>202.5</ele>
        <time>2022-04-17T06:55:57.000Z</time>
      </trkpt>
      <trkpt lat="43.28497" lon="2.31714">
        <ele>202.6</ele>
        <time>2022-04-17T06:55:58.000Z</time>
      </trkpt>
      <trkpt lat="43.285" lon="2.31713">
        <ele>202.7</ele>
        <time>2022-04-17T06:55:59.000Z</time>
      </trkpt>
      <trkpt lat="43.28502" lon="2.31713">
        <ele>202.9</ele>
        <time>2022-04-17T06:56:00.000Z</time>
      </trkpt>
      <trkpt lat="43.28504" lon="2.31713">
        <ele>203</ele>
        <time>2022-04-17T06:56:01.000Z</time>
      </trkpt>
      <trkpt lat="43.28506" lon="2.31713">
        <ele>203.2</ele>
        <time>2022-04-17T06:56:02.000Z</time>
      </trkpt>
      <trkpt lat="43.28508" lon="2.31712">
        <ele>203.3</ele>
        <time>2022-04-17T06:56:03.000Z</time>
      </trkpt>
      <trkpt lat="43.28511" lon="2.31712">
        <ele>203.5</ele>
        <time>2022-04-17T06:56:04.000Z</time>
      </trkpt>
      <trkpt lat="43.28513" lon="2.31712">
        <ele>203.6</ele>
        <time>2022-04-17T06:56:05.000Z</time>
      </trkpt>
      <trkpt lat="43.28515" lon="2.31711">
        <ele>203.8</ele>
        <time>2022-04-17T06:56:06.000Z</time>
      </trkpt>
      <trkpt lat="43.28518" lon="2.31711">
        <ele>204</ele>
        <time>2022-04-17T06:56:07.000Z</time>
      </trkpt>
      <trkpt lat="43.2852" lon="2.3171">
        <ele>204.1</ele>
        <time>2022-04-17T06:56:08.000Z</time>
      </trkpt>
      <trkpt lat="43.28523" lon="2.3171">
        <ele>204.3</ele>
        <time>2022-04-17T06:56:09.000Z</time>
      </trkpt>
      <trkpt lat="43.28525" lon="2.3171">
        <ele>204.5</ele>
        <time>2022-04-17T06:56:10.000Z</time>
      </trkpt>
      <trkpt lat="43.28528" lon="2.31709">
        <ele>204.6</ele>
        <time>2022-04-17T06:56:11.000Z</time>
      </trkpt>
      <trkpt lat="43.2853" lon="2.31709">
        <ele>204.8</ele>
        <time>2022-04-17T06:56:12.000Z</time>
      </trkpt>
      <trkpt lat="43.28533" lon="2.31709">
        <ele>204.9</ele>
        <time>2022-04-17T06:56:13.000Z</time>
      </trkpt>
      <trkpt lat="43.28535" lon="2.31708">
        <ele>205.1</ele>
        <time>2022-04-17T06:56:14.000Z</time>
      </trkpt>
      <trkpt lat="43.28537" lon="2.31708">
        <ele>205.3</ele>
        <time>2022-04-17T06:56:15.000Z</time>
      </trkpt>
      <trkpt lat="43.2854" lon="2.31708">
        <ele>205.4</ele>
        <time>2022-04-17T06:56:16.000Z</time>
      </trkpt>
      <trkpt lat="43.28542" lon="2.31708">
        <ele>205.5</ele>
        <time>2022-04-17T06:56:17.000Z</time>
      </trkpt>
      <trkpt lat="43.28544" lon="2.31708">
        <ele>205.7</ele>
        <time>2022-04-17T06:56:18.000Z</time>
      </trkpt>
      <trkpt lat="43.28546" lon="2.31708">
        <ele>205.8</ele>
        <time>2022-04-17T06:56:19.000Z</time>
      </trkpt>
      <trkpt lat="43.28548" lon="2.31708">
        <ele>205.9</ele>
        <time>2022-04-17T06:56:20.000Z</time>
      </trkpt>
      <trkpt lat="43.28551" lon="2.31708">
        <ele>206.1</ele>
        <time>2022-04-17T06:56:21.000Z</time>
      </trkpt>
      <trkpt lat="43.28553" lon="2.31708">
        <ele>206.2</ele>
        <time>2022-04-17T06:56:22.000Z</time>
      </trkpt>
      <trkpt lat="43.28555" lon="2.31708">
        <ele>206.3</ele>
        <time>2022-04-17T06:56:23.000Z</time>
      </trkpt>
      <trkpt lat="43.28557" lon="2.31708">
        <ele>206.4</ele>
        <time>2022-04-17T06:56:24.000Z</time>
      </trkpt>
      <trkpt lat="43.28559" lon="2.31708">
        <ele>206.5</ele>
        <time>2022-04-17T06:56:25.000Z</time>
      </trkpt>
      <trkpt lat="43.28561" lon="2.31709">
        <ele>206.6</ele>
        <time>2022-04-17T06:56:26.000Z</time>
      </trkpt>
      <trkpt lat="43.28563" lon="2.31709">
        <ele>206.8</ele>
        <time>2022-04-17T06:56:27.000Z</time>
      </trkpt>
      <trkpt lat="43.28565" lon="2.31709">
        <ele>206.9</ele>
        <time>2022-04-17T06:56:28.000Z</time>
      </trkpt>
      <trkpt lat="43.28568" lon="2.3171">
        <ele>207</ele>
        <time>2022-04-17T06:56:29.000Z</time>
      </trkpt>
      <trkpt lat="43.2857" lon="2.3171">
        <ele>207.1</ele>
        <time>2022-04-17T06:56:30.000Z</time>
      </trkpt>
      <trkpt lat="43.28572" lon="2.3171">
        <ele>207.3</ele>
        <time>2022-04-17T06:56:31.000Z</time>
      </trkpt>
      <trkpt lat="43.28575" lon="2.3171">
        <ele>207.4</ele>
        <time>2022-04-17T06:56:32.000Z</time>
      </trkpt>
      <trkpt lat="43.28577" lon="2.31711">
        <ele>207.6</ele>
        <time>2022-04-17T06:56:33.000Z</time>
      </trkpt>
      <trkpt lat="43.2858" lon="2.31711">
        <ele>207.7</ele>
        <time>2022-04-17T06:56:34.000Z</time>
      </trkpt>
      <trkpt lat="43.28583" lon="2.31711">
        <ele>207.9</ele>
        <time>2022-04-17T06:56:35.000Z</time>
      </trkpt>
      <trkpt lat="43.28585" lon="2.31712">
        <ele>208</ele>
        <time>2022-04-17T06:56:36.000Z</time>
      </trkpt>
      <trkpt lat="43.28588" lon="2.31712">
        <ele>208.2</ele>
        <time>2022-04-17T06:56:37.000Z</time>
      </trkpt>
      <trkpt lat="43.28591" lon="2.31712">
        <ele>208.4</ele>
        <time>2022-04-17T06:56:38.000Z</time>
      </trkpt>
      <trkpt lat="43.28594" lon="2.31713">
        <ele>208.5</ele>
        <time>2022-04-17T06:56:39.000Z</time>
      </trkpt>
      <trkpt lat="43.28596" lon="2.31714">
        <ele>208.7</ele>
        <time>2022-04-17T06:56:40.000Z</time>
      </trkpt>
      <trkpt lat="43.28598" lon="2.31715">
        <ele>208.8</ele>
        <time>2022-04-17T06:56:41.000Z</time>
      </trkpt>
      <trkpt lat="43.28601" lon="2.31715">
        <ele>208.9</ele>
        <time>2022-04-17T06:56:42.000Z</time>
      </trkpt>
      <trkpt lat="43.28603" lon="2.31716">
        <ele>209</ele>
        <time>2022-04-17T06:56:43.000Z</time>
      </trkpt>
      <trkpt lat="43.28605" lon="2.31716">
        <ele>209.2</ele>
        <time>2022-04-17T06:56:44.000Z</time>
      </trkpt>
      <trkpt lat="43.28607" lon="2.31716">
        <ele>209.3</ele>
        <time>2022-04-17T06:56:45.000Z</time>
      </trkpt>
      <trkpt lat="43.28609" lon="2.31716">
        <ele>209.4</ele>
        <time>2022-04-17T06:56:46.000Z</time>
      </trkpt>
      <trkpt lat="43.28611" lon="2.31716">
        <ele>209.6</ele>
        <time>2022-04-17T06:56:47.000Z</time>
      </trkpt>
      <trkpt lat="43.28614" lon="2.31716">
        <ele>209.7</ele>
        <time>2022-04-17T06:56:48.000Z</time>
      </trkpt>
      <trkpt lat="43.28616" lon="2.31716">
        <ele>209.8</ele>
        <time>2022-04-17T06:56:49.000Z</time>
      </trkpt>
      <trkpt lat="43.28618" lon="2.31716">
        <ele>210</ele>
        <time>2022-04-17T06:56:50.000Z</time>
      </trkpt>
      <trkpt lat="43.2862" lon="2.31716">
        <ele>210.1</ele>
        <time>2022-04-17T06:56:51.000Z</time>
      </trkpt>
      <trkpt lat="43.28622" lon="2.31716">
        <ele>210.2</ele>
        <time>2022-04-17T06:56:52.000Z</time>
      </trkpt>
      <trkpt lat="43.28625" lon="2.31716">
        <ele>210.4</ele>
        <time>2022-04-17T06:56:53.000Z</time>
      </trkpt>
      <trkpt lat="43.28627" lon="2.31716">
        <ele>210.5</ele>
        <time>2022-04-17T06:56:54.000Z</time>
      </trkpt>
      <trkpt lat="43.28629" lon="2.31716">
        <ele>210.7</ele>
        <time>2022-04-17T06:56:55.000Z</time>
      </trkpt>
      <trkpt lat="43.28632" lon="2.31716">
        <ele>210.8</ele>
        <time>2022-04-17T06:56:56.000Z</time>
      </trkpt>
      <trkpt lat="43.28634" lon="2.31716">
        <ele>211</ele>
        <time>2022-04-17T06:56:57.000Z</time>
      </trkpt>
      <trkpt lat="43.28637" lon="2.31715">
        <ele>211.1</ele>
        <time>2022-04-17T06:56:58.000Z</time>
      </trkpt>
      <trkpt lat="43.28639" lon="2.31715">
        <ele>211.3</ele>
        <time>2022-04-17T06:56:59.000Z</time>
      </trkpt>
      <trkpt lat="43.28642" lon="2.31715">
        <ele>211.4</ele>
        <time>2022-04-17T06:57:00.000Z</time>
      </trkpt>
      <trkpt lat="43.28644" lon="2.31715">
        <ele>211.6</ele>
        <time>2022-04-17T06:57:01.000Z</time>
      </trkpt>
      <trkpt lat="43.28647" lon="2.31714">
        <ele>211.8</ele>
        <time>2022-04-17T06:57:02.000Z</time>
      </trkpt>
      <trkpt lat="43.28649" lon="2.31714">
        <ele>211.9</ele>
        <time>2022-04-17T06:57:03.000Z</time>
      </trkpt>
      <trkpt lat="43.28652" lon="2.31714">
        <ele>212.1</ele>
        <time>2022-04-17T06:57:04.000Z</time>
      </trkpt>
      <trkpt lat="43.28654" lon="2.31713">
        <ele>212.2</ele>
        <time>2022-04-17T06:57:05.000Z</time>
      </trkpt>
      <trkpt lat="43.28657" lon="2.31713">
        <ele>212.4</ele>
        <time>2022-04-17T06:57:06.000Z</time>
      </trkpt>
      <trkpt lat="43.28659" lon="2.31712">
        <ele>212.5</ele>
        <time>2022-04-17T06:57:07.000Z</time>
      </trkpt>
      <trkpt lat="43.28662" lon="2.31712">
        <ele>212.7</ele>
        <time>2022-04-17T06:57:08.000Z</time>
      </trkpt>
      <trkpt lat="43.28664" lon="2.31711">
        <ele>212.8</ele>
        <time>2022-04-17T06:57:09.000Z</time>
      </trkpt>
      <trkpt lat="43.28666" lon="2.31711">
        <ele>213</ele>
        <time>2022-04-17T06:57:10.000Z</time>
      </trkpt>
      <trkpt lat="43.28669" lon="2.31711">
        <ele>213.1</ele>
        <time>2022-04-17T06:57:11.000Z</time>
      </trkpt>
      <trkpt lat="43.28671" lon="2.3171">
        <ele>213.2</ele>
        <time>2022-04-17T06:57:12.000Z</time>
      </trkpt>
      <trkpt lat="43.28674" lon="2.3171">
        <ele>213.3</ele>
        <time>2022-04-17T06:57:13.000Z</time>
      </trkpt>
      <trkpt lat="43.28676" lon="2.3171">
        <ele>213.4</ele>
        <time>2022-04-17T06:57:14.000Z</time>
      </trkpt>
      <trkpt lat="43.28678" lon="2.31709">
        <ele>213.6</ele>
        <time>2022-04-17T06:57:15.000Z</time>
      </trkpt>
      <trkpt lat="43.28681" lon="2.31709">
        <ele>213.7</ele>
        <time>2022-04-17T06:57:16.000Z</time>
      </trkpt>
      <trkpt lat="43.28683" lon="2.31708">
        <ele>213.8</ele>
        <time>2022-04-17T06:57:17.000Z</time>
      </trkpt>
      <trkpt lat="43.28685" lon="2.31708">
        <ele>213.9</ele>
        <time>2022-04-17T06:57:18.000Z</time>
      </trkpt>
      <trkpt lat="43.28688" lon="2.31708">
        <ele>214</ele>
        <time>2022-04-17T06:57:19.000Z</time>
      </trkpt>
      <trkpt lat="43.2869" lon="2.31707">
        <ele>214.1</ele>
        <time>2022-04-17T06:57:20.000Z</time>
      </trkpt>
      <trkpt lat="43.28692" lon="2.31707">
        <ele>214.2</ele>
        <time>2022-04-17T06:57:21.000Z</time>
      </trkpt>
      <trkpt lat="43.28695" lon="2.31706">
        <ele>214.3</ele>
        <time>2022-04-17T06:57:22.000Z</time>
      </trkpt>
      <trkpt lat="43.28697" lon="2.31706">
        <ele>214.5</ele>
        <time>2022-04-17T06:57:23.000Z</time>
      </trkpt>
      <trkpt lat="43.28699" lon="2.31706">
        <ele>214.6</ele>
        <time>2022-04-17T06:57:24.000Z</time>
      </trkpt>
      <trkpt lat="43.28702" lon="2.31705">
        <ele>214.7</ele>
        <time>2022-04-17T06:57:25.000Z</time>
      </trkpt>
      <trkpt lat="43.28704" lon="2.31705">
        <ele>214.8</ele>
        <time>2022-04-17T06:57:26.000Z</time>
      </trkpt>
      <trkpt lat="43.28707" lon="2.31704">
        <ele>214.9</ele>
        <time>2022-04-17T06:57:27.000Z</time>
      </trkpt>
      <trkpt lat="43.28709" lon="2.31704">
        <ele>215</ele>
        <time>2022-04-17T06:57:28.000Z</time>
      </trkpt>
      <trkpt lat="43.28712" lon="2.31704">
        <ele>215.2</ele>
        <time>2022-04-17T06:57:29.000Z</time>
      </trkpt>
      <trkpt lat="43.28714" lon="2.31703">
        <ele>215.3</ele>
        <time>2022-04-17T06:57:30.000Z</time>
      </trkpt>
      <trkpt lat="43.28716" lon="2.31703">
        <ele>215.4</ele>
        <time>2022-04-17T06:57:31.000Z</time>
      </trkpt>
      <trkpt lat="43.28719" lon="2.31702">
        <ele>215.5</ele>
        <time>2022-04-17T06:57:32.000Z</time>
      </trkpt>
      <trkpt lat="43.28721" lon="2.31702">
        <ele>215.6</ele>
        <time>2022-04-17T06:57:33.000Z</time>
      </trkpt>
      <trkpt lat="43.28724" lon="2.31701">
        <ele>215.7</ele>
        <time>2022-04-17T06:57:34.000Z</time>
      </trkpt>
      <trkpt lat="43.28726" lon="2.31701">
        <ele>215.9</ele>
        <time>2022-04-17T06:57:35.000Z</time>
      </trkpt>
      <trkpt lat="43.28729" lon="2.31701">
        <ele>216</ele>
        <time>2022-04-17T06:57:36.000Z</time>
      </trkpt>
      <trkpt lat="43.28731" lon="2.317">
        <ele>216.1</ele>
        <time>2022-04-17T06:57:37.000Z</time>
      </trkpt>
      <trkpt lat="43.28734" lon="2.317">
        <ele>216.2</ele>
        <time>2022-04-17T06:57:38.000Z</time>
      </trkpt>
      <trkpt lat="43.28736" lon="2.31699">
        <ele>216.3</ele>
        <time>2022-04-17T06:57:39.000Z</time>
      </trkpt>
      <trkpt lat="43.28738" lon="2.31699">
        <ele>216.4</ele>
        <time>2022-04-17T06:57:40.000Z</time>
      </trkpt>
      <trkpt lat="43.28741" lon="2.31699">
        <ele>216.5</ele>
        <time>2022-04-17T06:57:41.000Z</time>
      </trkpt>
      <trkpt lat="43.28743" lon="2.31698">
        <ele>216.6</ele>
        <time>2022-04-17T06:57:42.000Z</time>
      </trkpt>
      <trkpt lat="43.28744" lon="2.31698">
        <ele>216.7</ele>
        <time>2022-04-17T06:57:43.000Z</time>
      </trkpt>
      <trkpt lat="43.28746" lon="2.31698">
        <ele>216.8</ele>
        <time>2022-04-17T06:57:44.000Z</time>
      </trkpt>
      <trkpt lat="43.28748" lon="2.31697">
        <ele>216.9</ele>
        <time>2022-04-17T06:57:45.000Z</time>
      </trkpt>
      <trkpt lat="43.2875" lon="2.31697">
        <ele>217</ele>
        <time>2022-04-17T06:57:46.000Z</time>
      </trkpt>
      <trkpt lat="43.28751" lon="2.31697">
        <ele>217.1</ele>
        <time>2022-04-17T06:57:47.000Z</time>
      </trkpt>
      <trkpt lat="43.28753" lon="2.31697">
        <ele>217.2</ele>
        <time>2022-04-17T06:57:48.000Z</time>
      </trkpt>
      <trkpt lat="43.28755" lon="2.31697">
        <ele>217.3</ele>
        <time>2022-04-17T06:57:49.000Z</time>
      </trkpt>
      <trkpt lat="43.28757" lon="2.31696">
        <ele>217.4</ele>
        <time>2022-04-17T06:57:50.000Z</time>
      </trkpt>
      <trkpt lat="43.28759" lon="2.31697">
        <ele>217.5</ele>
        <time>2022-04-17T06:57:51.000Z</time>
      </trkpt>
      <trkpt lat="43.28761" lon="2.31697">
        <ele>217.6</ele>
        <time>2022-04-17T06:57:52.000Z</time>
      </trkpt>
      <trkpt lat="43.28763" lon="2.31697">
        <ele>217.7</ele>
        <time>2022-04-17T06:57:53.000Z</time>
      </trkpt>
      <trkpt lat="43.28765" lon="2.31697">
        <ele>217.8</ele>
        <time>2022-04-17T06:57:54.000Z</time>
      </trkpt>
      <trkpt lat="43.28767" lon="2.31697">
        <ele>217.9</ele>
        <time>2022-04-17T06:57:55.000Z</time>
      </trkpt>
      <trkpt lat="43.28769" lon="2.31697">
        <ele>218</ele>
        <time>2022-04-17T06:57:56.000Z</time>
      </trkpt>
      <trkpt lat="43.28772" lon="2.31697">
        <ele>218.1</ele>
        <time>2022-04-17T06:57:57.000Z</time>
      </trkpt>
      <trkpt lat="43.28774" lon="2.31697">
        <ele>218.2</ele>
        <time>2022-04-17T06:57:58.000Z</time>
      </trkpt>
      <trkpt lat="43.28776" lon="2.31697">
        <ele>218.4</ele>
        <time>2022-04-17T06:57:59.000Z</time>
      </trkpt>
      <trkpt lat="43.28778" lon="2.31697">
        <ele>218.5</ele>
        <time>2022-04-17T06:58:00.000Z</time>
      </trkpt>
      <trkpt lat="43.2878" lon="2.31697">
        <ele>218.6</ele>
        <time>2022-04-17T06:58:01.000Z</time>
      </trkpt>
      <trkpt lat="43.28783" lon="2.31696">
        <ele>218.7</ele>
        <time>2022-04-17T06:58:02.000Z</time>
      </trkpt>
      <trkpt lat="43.28785" lon="2.31696">
        <ele>218.8</ele>
        <time>2022-04-17T06:58:03.000Z</time>
      </trkpt>
      <trkpt lat="43.28787" lon="2.31696">
        <ele>218.9</ele>
        <time>2022-04-17T06:58:04.000Z</time>
      </trkpt>
      <trkpt lat="43.28789" lon="2.31695">
        <ele>219.1</ele>
        <time>2022-04-17T06:58:05.000Z</time>
      </trkpt>
      <trkpt lat="43.28792" lon="2.31695">
        <ele>219.2</ele>
        <time>2022-04-17T06:58:06.000Z</time>
      </trkpt>
      <trkpt lat="43.28794" lon="2.31694">
        <ele>219.3</ele>
        <time>2022-04-17T06:58:07.000Z</time>
      </trkpt>
      <trkpt lat="43.28796" lon="2.31694">
        <ele>219.4</ele>
        <time>2022-04-17T06:58:08.000Z</time>
      </trkpt>
      <trkpt lat="43.28798" lon="2.31693">
        <ele>219.5</ele>
        <time>2022-04-17T06:58:09.000Z</time>
      </trkpt>
      <trkpt lat="43.288" lon="2.31692">
        <ele>219.6</ele>
        <time>2022-04-17T06:58:10.000Z</time>
      </trkpt>
      <trkpt lat="43.28803" lon="2.31692">
        <ele>219.7</ele>
        <time>2022-04-17T06:58:11.000Z</time>
      </trkpt>
      <trkpt lat="43.28805" lon="2.31691">
        <ele>219.8</ele>
        <time>2022-04-17T06:58:12.000Z</time>
      </trkpt>
      <trkpt lat="43.28807" lon="2.3169">
        <ele>219.9</ele>
        <time>2022-04-17T06:58:13.000Z</time>
      </trkpt>
      <trkpt lat="43.28809" lon="2.31689">
        <ele>220</ele>
        <time>2022-04-17T06:58:14.000Z</time>
      </trkpt>
      <trkpt lat="43.28811" lon="2.31688">
        <ele>220.1</ele>
        <time>2022-04-17T06:58:15.000Z</time>
      </trkpt>
      <trkpt lat="43.28814" lon="2.31687">
        <ele>220.2</ele>
        <time>2022-04-17T06:58:16.000Z</time>
      </trkpt>
      <trkpt lat="43.28816" lon="2.31686">
        <ele>220.3</ele>
        <time>2022-04-17T06:58:17.000Z</time>
      </trkpt>
      <trkpt lat="43.28818" lon="2.31685">
        <ele>220.4</ele>
        <time>2022-04-17T06:58:18.000Z</time>
      </trkpt>
      <trkpt lat="43.2882" lon="2.31683">
        <ele>220.5</ele>
        <time>2022-04-17T06:58:19.000Z</time>
      </trkpt>
      <trkpt lat="43.28822" lon="2.31682">
        <ele>220.6</ele>
        <time>2022-04-17T06:58:20.000Z</time>
      </trkpt>
      <trkpt lat="43.28825" lon="2.31681">
        <ele>220.7</ele>
        <time>2022-04-17T06:58:21.000Z</time>
      </trkpt>
      <trkpt lat="43.28827" lon="2.31679">
        <ele>220.8</ele>
        <time>2022-04-17T06:58:22.000Z</time>
      </trkpt>
      <trkpt lat="43.28829" lon="2.31678">
        <ele>220.9</ele>
        <time>2022-04-17T06:58:23.000Z</time>
      </trkpt>
      <trkpt lat="43.28831" lon="2.31676">
        <ele>221</ele>
        <time>2022-04-17T06:58:24.000Z</time>
      </trkpt>
      <trkpt lat="43.28833" lon="2.31675">
        <ele>221.1</ele>
        <time>2022-04-17T06:58:25.000Z</time>
      </trkpt>
      <trkpt lat="43.28836" lon="2.31673">
        <ele>221.1</ele>
        <time>2022-04-17T06:58:26.000Z</time>
      </trkpt>
      <trkpt lat="43.28838" lon="2.31671">
        <ele>221.2</ele>
        <time>2022-04-17T06:58:27.000Z</time>
      </trkpt>
      <trkpt lat="43.2884" lon="2.3167">
        <ele>221.2</ele>
        <time>2022-04-17T06:58:28.000Z</time>
      </trkpt>
      <trkpt lat="43.28842" lon="2.31668">
        <ele>221.2</ele>
        <time>2022-04-17T06:58:29.000Z</time>
      </trkpt>
      <trkpt lat="43.28844" lon="2.31666">
        <ele>221.3</ele>
        <time>2022-04-17T06:58:30.000Z</time>
      </trkpt>
      <trkpt lat="43.28846" lon="2.31664">
        <ele>221.3</ele>
        <time>2022-04-17T06:58:31.000Z</time>
      </trkpt>
      <trkpt lat="43.28848" lon="2.31663">
        <ele>221.3</ele>
        <time>2022-04-17T06:58:32.000Z</time>
      </trkpt>
      <trkpt lat="43.2885" lon="2.31661">
        <ele>221.3</ele>
        <time>2022-04-17T06:58:33.000Z</time>
      </trkpt>
      <trkpt lat="43.28852" lon="2.31659">
        <ele>221.3</ele>
        <time>2022-04-17T06:58:34.000Z</time>
      </trkpt>
      <trkpt lat="43.28855" lon="2.31657">
        <ele>221.4</ele>
        <time>2022-04-17T06:58:35.000Z</time>
      </trkpt>
      <trkpt lat="43.28857" lon="2.31655">
        <ele>221.4</ele>
        <time>2022-04-17T06:58:36.000Z</time>
      </trkpt>
      <trkpt lat="43.28859" lon="2.31653">
        <ele>221.4</ele>
        <time>2022-04-17T06:58:37.000Z</time>
      </trkpt>
      <trkpt lat="43.28861" lon="2.31651">
        <ele>221.4</ele>
        <time>2022-04-17T06:58:38.000Z</time>
      </trkpt>
      <trkpt lat="43.28863" lon="2.31649">
        <ele>221.4</ele>
        <time>2022-04-17T06:58:39.000Z</time>
      </trkpt>
      <trkpt lat="43.28865" lon="2.31647">
        <ele>221.4</ele>
        <time>2022-04-17T06:58:40.000Z</time>
      </trkpt>
      <trkpt lat="43.28866" lon="2.31644">
        <ele>221.4</ele>
        <time>2022-04-17T06:58:41.000Z</time>
      </trkpt>
      <trkpt lat="43.28868" lon="2.31642">
        <ele>221.4</ele>
        <time>2022-04-17T06:58:42.000Z</time>
      </trkpt>
      <trkpt lat="43.2887" lon="2.3164">
        <ele>221.4</ele>
        <time>2022-04-17T06:58:43.000Z</time>
      </trkpt>
      <trkpt lat="43.28872" lon="2.31638">
        <ele>221.4</ele>
        <time>2022-04-17T06:58:44.000Z</time>
      </trkpt>
      <trkpt lat="43.28874" lon="2.31636">
        <ele>221.4</ele>
        <time>2022-04-17T06:58:45.000Z</time>
      </trkpt>
      <trkpt lat="43.28876" lon="2.31633">
        <ele>221.4</ele>
        <time>2022-04-17T06:58:46.000Z</time>
      </trkpt>
      <trkpt lat="43.28877" lon="2.31631">
        <ele>221.4</ele>
        <time>2022-04-17T06:58:47.000Z</time>
      </trkpt>
      <trkpt lat="43.28879" lon="2.31629">
        <ele>221.4</ele>
        <time>2022-04-17T06:58:48.000Z</time>
      </trkpt>
      <trkpt lat="43.28881" lon="2.31627">
        <ele>221.4</ele>
        <time>2022-04-17T06:58:49.000Z</time>
      </trkpt>
      <trkpt lat="43.28882" lon="2.31625">
        <ele>221.4</ele>
        <time>2022-04-17T06:58:50.000Z</time>
      </trkpt>
      <trkpt lat="43.28884" lon="2.31622">
        <ele>221.4</ele>
        <time>2022-04-17T06:58:51.000Z</time>
      </trkpt>
      <trkpt lat="43.28886" lon="2.3162">
        <ele>221.4</ele>
        <time>2022-04-17T06:58:52.000Z</time>
      </trkpt>
      <trkpt lat="43.28888" lon="2.31618">
        <ele>221.4</ele>
        <time>2022-04-17T06:58:53.000Z</time>
      </trkpt>
      <trkpt lat="43.2889" lon="2.31616">
        <ele>221.3</ele>
        <time>2022-04-17T06:58:54.000Z</time>
      </trkpt>
      <trkpt lat="43.28893" lon="2.31614">
        <ele>221.4</ele>
        <time>2022-04-17T06:58:55.000Z</time>
      </trkpt>
      <trkpt lat="43.28895" lon="2.31613">
        <ele>221.4</ele>
        <time>2022-04-17T06:58:56.000Z</time>
      </trkpt>
      <trkpt lat="43.28898" lon="2.31611">
        <ele>221.4</ele>
        <time>2022-04-17T06:58:57.000Z</time>
      </trkpt>
      <trkpt lat="43.289" lon="2.3161">
        <ele>221.4</ele>
        <time>2022-04-17T06:58:58.000Z</time>
      </trkpt>
      <trkpt lat="43.28902" lon="2.31609">
        <ele>221.4</ele>
        <time>2022-04-17T06:58:59.000Z</time>
      </trkpt>
      <trkpt lat="43.28904" lon="2.31608">
        <ele>221.4</ele>
        <time>2022-04-17T06:59:00.000Z</time>
      </trkpt>
      <trkpt lat="43.28906" lon="2.31607">
        <ele>221.4</ele>
        <time>2022-04-17T06:59:01.000Z</time>
      </trkpt>
      <trkpt lat="43.28907" lon="2.31607">
        <ele>221.4</ele>
        <time>2022-04-17T06:59:02.000Z</time>
      </trkpt>
      <trkpt lat="43.28908" lon="2.31607">
        <ele>221.4</ele>
        <time>2022-04-17T06:59:03.000Z</time>
      </trkpt>
      <trkpt lat="43.28909" lon="2.31607">
        <ele>221.4</ele>
        <time>2022-04-17T06:59:04.000Z</time>
      </trkpt>
      <trkpt lat="43.2891" lon="2.31607">
        <ele>221.5</ele>
        <time>2022-04-17T06:59:05.000Z</time>
      </trkpt>
      <trkpt lat="43.28911" lon="2.31606">
        <ele>221.5</ele>
        <time>2022-04-17T06:59:06.000Z</time>
      </trkpt>
      <trkpt lat="43.28912" lon="2.31606">
        <ele>221.5</ele>
        <time>2022-04-17T06:59:07.000Z</time>
      </trkpt>
      <trkpt lat="43.28913" lon="2.31605">
        <ele>221.5</ele>
        <time>2022-04-17T06:59:08.000Z</time>
      </trkpt>
      <trkpt lat="43.28914" lon="2.31605">
        <ele>221.5</ele>
        <time>2022-04-17T06:59:09.000Z</time>
      </trkpt>
      <trkpt lat="43.28915" lon="2.31604">
        <ele>221.5</ele>
        <time>2022-04-17T06:59:10.000Z</time>
      </trkpt>
      <trkpt lat="43.28916" lon="2.31603">
        <ele>221.5</ele>
        <time>2022-04-17T06:59:11.000Z</time>
      </trkpt>
      <trkpt lat="43.28917" lon="2.31602">
        <ele>221.5</ele>
        <time>2022-04-17T06:59:12.000Z</time>
      </trkpt>
      <trkpt lat="43.28917" lon="2.31602">
        <ele>221.4</ele>
        <time>2022-04-17T06:59:13.000Z</time>
      </trkpt>
      <trkpt lat="43.28918" lon="2.31601">
        <ele>221.4</ele>
        <time>2022-04-17T06:59:14.000Z</time>
      </trkpt>
      <trkpt lat="43.28919" lon="2.31601">
        <ele>221.3</ele>
        <time>2022-04-17T06:59:15.000Z</time>
      </trkpt>
      <trkpt lat="43.2892" lon="2.31601">
        <ele>221.3</ele>
        <time>2022-04-17T06:59:16.000Z</time>
      </trkpt>
      <trkpt lat="43.2892" lon="2.31601">
        <ele>221.3</ele>
        <time>2022-04-17T06:59:17.000Z</time>
      </trkpt>
      <trkpt lat="43.28921" lon="2.31601">
        <ele>221.2</ele>
        <time>2022-04-17T06:59:18.000Z</time>
      </trkpt>
      <trkpt lat="43.28922" lon="2.31601">
        <ele>221.2</ele>
        <time>2022-04-17T06:59:19.000Z</time>
      </trkpt>
      <trkpt lat="43.28922" lon="2.31601">
        <ele>221.2</ele>
        <time>2022-04-17T06:59:20.000Z</time>
      </trkpt>
      <trkpt lat="43.28923" lon="2.31601">
        <ele>221.2</ele>
        <time>2022-04-17T06:59:21.000Z</time>
      </trkpt>
      <trkpt lat="43.28923" lon="2.31602">
        <ele>221.2</ele>
        <time>2022-04-17T06:59:22.000Z</time>
      </trkpt>
      <trkpt lat="43.28923" lon="2.31602">
        <ele>221.1</ele>
        <time>2022-04-17T06:59:23.000Z</time>
      </trkpt>
      <trkpt lat="43.28924" lon="2.31602">
        <ele>221.1</ele>
        <time>2022-04-17T06:59:24.000Z</time>
      </trkpt>
      <trkpt lat="43.28924" lon="2.31602">
        <ele>221.1</ele>
        <time>2022-04-17T06:59:25.000Z</time>
      </trkpt>
      <trkpt lat="43.28924" lon="2.31602">
        <ele>221.1</ele>
        <time>2022-04-17T06:59:26.000Z</time>
      </trkpt>
      <trkpt lat="43.28924" lon="2.31602">
        <ele>221.1</ele>
        <time>2022-04-17T06:59:27.000Z</time>
      </trkpt>
      <trkpt lat="43.28925" lon="2.31602">
        <ele>221.1</ele>
        <time>2022-04-17T06:59:28.000Z</time>
      </trkpt>
      <trkpt lat="43.28925" lon="2.31602">
        <ele>221.1</ele>
        <time>2022-04-17T06:59:29.000Z</time>
      </trkpt>
      <trkpt lat="43.28925" lon="2.31602">
        <ele>221.1</ele>
        <time>2022-04-17T06:59:30.000Z</time>
      </trkpt>
      <trkpt lat="43.28925" lon="2.31602">
        <ele>221.1</ele>
        <time>2022-04-17T06:59:31.000Z</time>
      </trkpt>
      <trkpt lat="43.28925" lon="2.31602">
        <ele>221.1</ele>
        <time>2022-04-17T06:59:32.000Z</time>
      </trkpt>
      <trkpt lat="43.28925" lon="2.31602">
        <ele>221.1</ele>
        <time>2022-04-17T06:59:33.000Z</time>
      </trkpt>
      <trkpt lat="43.28925" lon="2.31602">
        <ele>221.1</ele>
        <time>2022-04-17T06:59:34.000Z</time>
      </trkpt>
      <trkpt lat="43.28925" lon="2.31602">
        <ele>221.1</ele>
        <time>2022-04-17T06:59:35.000Z</time>
      </trkpt>
      <trkpt lat="43.28925" lon="2.31602">
        <ele>221.1</ele>
        <time>2022-04-17T06:59:36.000Z</time>
      </trkpt>
      <trkpt lat="43.28925" lon="2.31602">
        <ele>221.1</ele>
        <time>2022-04-17T06:59:37.000Z</time>
      </trkpt>
      <trkpt lat="43.28925" lon="2.31602">
        <ele>221.1</ele>
        <time>2022-04-17T06:59:38.000Z</time>
      </trkpt>
      <trkpt lat="43.28925" lon="2.31602">
        <ele>221.1</ele>
        <time>2022-04-17T06:59:39.000Z</time>
      </trkpt>
      <trkpt lat="43.28925" lon="2.31602">
        <ele>221.1</ele>
        <time>2022-04-17T06:59:40.000Z</time>
      </trkpt>
      <trkpt lat="43.28925" lon="2.31602">
        <ele>221.1</ele>
        <time>2022-04-17T06:59:41.000Z</time>
      </trkpt>
      <trkpt lat="43.28925" lon="2.31602">
        <ele>221.1</ele>
        <time>2022-04-17T06:59:42.000Z</time>
      </trkpt>
      <trkpt lat="43.28925" lon="2.31601">
        <ele>221.1</ele>
        <time>2022-04-17T06:59:43.000Z</time>
      </trkpt>
      <trkpt lat="43.28925" lon="2.31601">
        <ele>221.1</ele>
        <time>2022-04-17T06:59:44.000Z</time>
      </trkpt>
      <trkpt lat="43.28925" lon="2.31601">
        <ele>221</ele>
        <time>2022-04-17T06:59:45.000Z</time>
      </trkpt>
      <trkpt lat="43.28925" lon="2.31601">
        <ele>221</ele>
        <time>2022-04-17T06:59:46.000Z</time>
      </trkpt>
      <trkpt lat="43.28925" lon="2.31601">
        <ele>221</ele>
        <time>2022-04-17T06:59:47.000Z</time>
      </trkpt>
      <trkpt lat="43.28926" lon="2.316">
        <ele>221</ele>
        <time>2022-04-17T06:59:48.000Z</time>
      </trkpt>
      <trkpt lat="43.28926" lon="2.316">
        <ele>221</ele>
        <time>2022-04-17T06:59:49.000Z</time>
      </trkpt>
      <trkpt lat="43.28926" lon="2.316">
        <ele>221</ele>
        <time>2022-04-17T06:59:50.000Z</time>
      </trkpt>
      <trkpt lat="43.28926" lon="2.31599">
        <ele>220.9</ele>
        <time>2022-04-17T06:59:51.000Z</time>
      </trkpt>
      <trkpt lat="43.28927" lon="2.31599">
        <ele>220.9</ele>
        <time>2022-04-17T06:59:52.000Z</time>
      </trkpt>
      <trkpt lat="43.28928" lon="2.31598">
        <ele>220.8</ele>
        <time>2022-04-17T06:59:53.000Z</time>
      </trkpt>
      <trkpt lat="43.28928" lon="2.31597">
        <ele>220.8</ele>
        <time>2022-04-17T06:59:54.000Z</time>
      </trkpt>
      <trkpt lat="43.28929" lon="2.31597">
        <ele>220.7</ele>
        <time>2022-04-17T06:59:55.000Z</time>
      </trkpt>
      <trkpt lat="43.2893" lon="2.31596">
        <ele>220.6</ele>
        <time>2022-04-17T06:59:56.000Z</time>
      </trkpt>
      <trkpt lat="43.28931" lon="2.31595">
        <ele>220.6</ele>
        <time>2022-04-17T06:59:57.000Z</time>
      </trkpt>
      <trkpt lat="43.28932" lon="2.31595">
        <ele>220.5</ele>
        <time>2022-04-17T06:59:58.000Z</time>
      </trkpt>
      <trkpt lat="43.28933" lon="2.31594">
        <ele>220.4</ele>
        <time>2022-04-17T06:59:59.000Z</time>
      </trkpt>
      <trkpt lat="43.28934" lon="2.31594">
        <ele>220.4</ele>
        <time>2022-04-17T07:00:00.000Z</time>
      </trkpt>
      <trkpt lat="43.28935" lon="2.31593">
        <ele>220.3</ele>
        <time>2022-04-17T07:00:01.000Z</time>
      </trkpt>
      <trkpt lat="43.28935" lon="2.31593">
        <ele>220.3</ele>
        <time>2022-04-17T07:00:02.000Z</time>
      </trkpt>
      <trkpt lat="43.28936" lon="2.31592">
        <ele>220.2</ele>
        <time>2022-04-17T07:00:03.000Z</time>
      </trkpt>
      <trkpt lat="43.28937" lon="2.31592">
        <ele>220.1</ele>
        <time>2022-04-17T07:00:04.000Z</time>
      </trkpt>
      <trkpt lat="43.28939" lon="2.31591">
        <ele>220</ele>
        <time>2022-04-17T07:00:05.000Z</time>
      </trkpt>
      <trkpt lat="43.2894" lon="2.31591">
        <ele>219.9</ele>
        <time>2022-04-17T07:00:06.000Z</time>
      </trkpt>
      <trkpt lat="43.28942" lon="2.3159">
        <ele>219.8</ele>
        <time>2022-04-17T07:00:07.000Z</time>
      </trkpt>
      <trkpt lat="43.28944" lon="2.31589">
        <ele>219.6</ele>
        <time>2022-04-17T07:00:08.000Z</time>
      </trkpt>
      <trkpt lat="43.28946" lon="2.31588">
        <ele>219.5</ele>
        <time>2022-04-17T07:00:09.000Z</time>
      </trkpt>
      <trkpt lat="43.28948" lon="2.31586">
        <ele>219.3</ele>
        <time>2022-04-17T07:00:10.000Z</time>
      </trkpt>
      <trkpt lat="43.28951" lon="2.31585">
        <ele>219.1</ele>
        <time>2022-04-17T07:00:11.000Z</time>
      </trkpt>
      <trkpt lat="43.28953" lon="2.31584">
        <ele>218.8</ele>
        <time>2022-04-17T07:00:12.000Z</time>
      </trkpt>
      <trkpt lat="43.28955" lon="2.31582">
        <ele>218.7</ele>
        <time>2022-04-17T07:00:13.000Z</time>
      </trkpt>
      <trkpt lat="43.28958" lon="2.3158">
        <ele>218.6</ele>
        <time>2022-04-17T07:00:14.000Z</time>
      </trkpt>
      <trkpt lat="43.2896" lon="2.31579">
        <ele>218.4</ele>
        <time>2022-04-17T07:00:15.000Z</time>
      </trkpt>
      <trkpt lat="43.28962" lon="2.31577">
        <ele>218.3</ele>
        <time>2022-04-17T07:00:16.000Z</time>
      </trkpt>
      <trkpt lat="43.28965" lon="2.31576">
        <ele>218.2</ele>
        <time>2022-04-17T07:00:17.000Z</time>
      </trkpt>
      <trkpt lat="43.28967" lon="2.31574">
        <ele>218</ele>
        <time>2022-04-17T07:00:18.000Z</time>
      </trkpt>
      <trkpt lat="43.2897" lon="2.31573">
        <ele>217.9</ele>
        <time>2022-04-17T07:00:19.000Z</time>
      </trkpt>
      <trkpt lat="43.28972" lon="2.31572">
        <ele>217.7</ele>
        <time>2022-04-17T07:00:20.000Z</time>
      </trkpt>
      <trkpt lat="43.28975" lon="2.3157">
        <ele>217.6</ele>
        <time>2022-04-17T07:00:21.000Z</time>
      </trkpt>
      <trkpt lat="43.28978" lon="2.31569">
        <ele>217.4</ele>
        <time>2022-04-17T07:00:22.000Z</time>
      </trkpt>
      <trkpt lat="43.28981" lon="2.31568">
        <ele>217.2</ele>
        <time>2022-04-17T07:00:23.000Z</time>
      </trkpt>
      <trkpt lat="43.28983" lon="2.31567">
        <ele>217</ele>
        <time>2022-04-17T07:00:24.000Z</time>
      </trkpt>
      <trkpt lat="43.28986" lon="2.31566">
        <ele>216.9</ele>
        <time>2022-04-17T07:00:25.000Z</time>
      </trkpt>
      <trkpt lat="43.28989" lon="2.31565">
        <ele>216.7</ele>
        <time>2022-04-17T07:00:26.000Z</time>
      </trkpt>
      <trkpt lat="43.28992" lon="2.31564">
        <ele>216.5</ele>
        <time>2022-04-17T07:00:27.000Z</time>
      </trkpt>
      <trkpt lat="43.28994" lon="2.31562">
        <ele>216.4</ele>
        <time>2022-04-17T07:00:28.000Z</time>
      </trkpt>
      <trkpt lat="43.28997" lon="2.31561">
        <ele>216.2</ele>
        <time>2022-04-17T07:00:29.000Z</time>
      </trkpt>
      <trkpt lat="43.28999" lon="2.31559">
        <ele>216</ele>
        <time>2022-04-17T07:00:30.000Z</time>
      </trkpt>
      <trkpt lat="43.29002" lon="2.31558">
        <ele>215.8</ele>
        <time>2022-04-17T07:00:31.000Z</time>
      </trkpt>
      <trkpt lat="43.29004" lon="2.31556">
        <ele>215.5</ele>
        <time>2022-04-17T07:00:32.000Z</time>
      </trkpt>
      <trkpt lat="43.29007" lon="2.31555">
        <ele>215.2</ele>
        <time>2022-04-17T07:00:33.000Z</time>
      </trkpt>
      <trkpt lat="43.29009" lon="2.31553">
        <ele>214.9</ele>
        <time>2022-04-17T07:00:34.000Z</time>
      </trkpt>
      <trkpt lat="43.29012" lon="2.31552">
        <ele>214.6</ele>
        <time>2022-04-17T07:00:35.000Z</time>
      </trkpt>
      <trkpt lat="43.29014" lon="2.3155">
        <ele>214.4</ele>
        <time>2022-04-17T07:00:36.000Z</time>
      </trkpt>
      <trkpt lat="43.29017" lon="2.31548">
        <ele>214.1</ele>
        <time>2022-04-17T07:00:37.000Z</time>
      </trkpt>
      <trkpt lat="43.29019" lon="2.31547">
        <ele>213.8</ele>
        <time>2022-04-17T07:00:38.000Z</time>
      </trkpt>
      <trkpt lat="43.29022" lon="2.31545">
        <ele>213.5</ele>
        <time>2022-04-17T07:00:39.000Z</time>
      </trkpt>
      <trkpt lat="43.29025" lon="2.31543">
        <ele>213.2</ele>
        <time>2022-04-17T07:00:40.000Z</time>
      </trkpt>
      <trkpt lat="43.29027" lon="2.31542">
        <ele>212.9</ele>
        <time>2022-04-17T07:00:41.000Z</time>
      </trkpt>
      <trkpt lat="43.2903" lon="2.3154">
        <ele>212.6</ele>
        <time>2022-04-17T07:00:42.000Z</time>
      </trkpt>
      <trkpt lat="43.29032" lon="2.31539">
        <ele>212.3</ele>
        <time>2022-04-17T07:00:43.000Z</time>
      </trkpt>
      <trkpt lat="43.29035" lon="2.31537">
        <ele>212</ele>
        <time>2022-04-17T07:00:44.000Z</time>
      </trkpt>
      <trkpt lat="43.29038" lon="2.31535">
        <ele>211.7</ele>
        <time>2022-04-17T07:00:45.000Z</time>
      </trkpt>
      <trkpt lat="43.29041" lon="2.31534">
        <ele>211.4</ele>
        <time>2022-04-17T07:00:46.000Z</time>
      </trkpt>
      <trkpt lat="43.29043" lon="2.31532">
        <ele>211.1</ele>
        <time>2022-04-17T07:00:47.000Z</time>
      </trkpt>
      <trkpt lat="43.29046" lon="2.31531">
        <ele>210.8</ele>
        <time>2022-04-17T07:00:48.000Z</time>
      </trkpt>
      <trkpt lat="43.29049" lon="2.31529">
        <ele>210.5</ele>
        <time>2022-04-17T07:00:49.000Z</time>
      </trkpt>
      <trkpt lat="43.29051" lon="2.31528">
        <ele>210.3</ele>
        <time>2022-04-17T07:00:50.000Z</time>
      </trkpt>
      <trkpt lat="43.29054" lon="2.31527">
        <ele>210</ele>
        <time>2022-04-17T07:00:51.000Z</time>
      </trkpt>
      <trkpt lat="43.29057" lon="2.31525">
        <ele>209.7</ele>
        <time>2022-04-17T07:00:52.000Z</time>
      </trkpt>
      <trkpt lat="43.2906" lon="2.31524">
        <ele>209.4</ele>
        <time>2022-04-17T07:00:53.000Z</time>
      </trkpt>
      <trkpt lat="43.29062" lon="2.31523">
        <ele>209.1</ele>
        <time>2022-04-17T07:00:54.000Z</time>
      </trkpt>
      <trkpt lat="43.29065" lon="2.31522">
        <ele>208.8</ele>
        <time>2022-04-17T07:00:55.000Z</time>
      </trkpt>
      <trkpt lat="43.29068" lon="2.3152">
        <ele>208.5</ele>
        <time>2022-04-17T07:00:56.000Z</time>
      </trkpt>
      <trkpt lat="43.2907" lon="2.31519">
        <ele>208.2</ele>
        <time>2022-04-17T07:00:57.000Z</time>
      </trkpt>
      <trkpt lat="43.29073" lon="2.31518">
        <ele>207.9</ele>
        <time>2022-04-17T07:00:58.000Z</time>
      </trkpt>
      <trkpt lat="43.29076" lon="2.31517">
        <ele>207.7</ele>
        <time>2022-04-17T07:00:59.000Z</time>
      </trkpt>
      <trkpt lat="43.29078" lon="2.31515">
        <ele>207.4</ele>
        <time>2022-04-17T07:01:00.000Z</time>
      </trkpt>
      <trkpt lat="43.29081" lon="2.31514">
        <ele>207.1</ele>
        <time>2022-04-17T07:01:01.000Z</time>
      </trkpt>
      <trkpt lat="43.29084" lon="2.31513">
        <ele>206.8</ele>
        <time>2022-04-17T07:01:02.000Z</time>
      </trkpt>
      <trkpt lat="43.29086" lon="2.31511">
        <ele>206.7</ele>
        <time>2022-04-17T07:01:03.000Z</time>
      </trkpt>
      <trkpt lat="43.29089" lon="2.3151">
        <ele>206.6</ele>
        <time>2022-04-17T07:01:04.000Z</time>
      </trkpt>
      <trkpt lat="43.29092" lon="2.31508">
        <ele>206.5</ele>
        <time>2022-04-17T07:01:05.000Z</time>
      </trkpt>
      <trkpt lat="43.29094" lon="2.31507">
        <ele>206.4</ele>
        <time>2022-04-17T07:01:06.000Z</time>
      </trkpt>
      <trkpt lat="43.29097" lon="2.31505">
        <ele>206.3</ele>
        <time>2022-04-17T07:01:07.000Z</time>
      </trkpt>
      <trkpt lat="43.29099" lon="2.31503">
        <ele>206.2</ele>
        <time>2022-04-17T07:01:08.000Z</time>
      </trkpt>
      <trkpt lat="43.29102" lon="2.31502">
        <ele>206.1</ele>
        <time>2022-04-17T07:01:09.000Z</time>
      </trkpt>
      <trkpt lat="43.29105" lon="2.315">
        <ele>206</ele>
        <time>2022-04-17T07:01:10.000Z</time>
      </trkpt>
      <trkpt lat="43.29107" lon="2.31498">
        <ele>205.9</ele>
        <time>2022-04-17T07:01:11.000Z</time>
      </trkpt>
      <trkpt lat="43.2911" lon="2.31497">
        <ele>205.8</ele>
        <time>2022-04-17T07:01:12.000Z</time>
      </trkpt>
      <trkpt lat="43.29112" lon="2.31495">
        <ele>205.7</ele>
        <time>2022-04-17T07:01:13.000Z</time>
      </trkpt>
      <trkpt lat="43.29115" lon="2.31494">
        <ele>205.6</ele>
        <time>2022-04-17T07:01:14.000Z</time>
      </trkpt>
      <trkpt lat="43.29117" lon="2.31493">
        <ele>205.5</ele>
        <time>2022-04-17T07:01:15.000Z</time>
      </trkpt>
      <trkpt lat="43.2912" lon="2.31492">
        <ele>205.4</ele>
        <time>2022-04-17T07:01:16.000Z</time>
      </trkpt>
      <trkpt lat="43.29122" lon="2.31491">
        <ele>205.3</ele>
        <time>2022-04-17T07:01:17.000Z</time>
      </trkpt>
      <trkpt lat="43.29125" lon="2.3149">
        <ele>205.2</ele>
        <time>2022-04-17T07:01:18.000Z</time>
      </trkpt>
      <trkpt lat="43.29128" lon="2.31489">
        <ele>205.1</ele>
        <time>2022-04-17T07:01:19.000Z</time>
      </trkpt>
      <trkpt lat="43.2913" lon="2.31488">
        <ele>205</ele>
        <time>2022-04-17T07:01:20.000Z</time>
      </trkpt>
      <trkpt lat="43.29133" lon="2.31487">
        <ele>204.8</ele>
        <time>2022-04-17T07:01:21.000Z</time>
      </trkpt>
      <trkpt lat="43.29136" lon="2.31487">
        <ele>204.7</ele>
        <time>2022-04-17T07:01:22.000Z</time>
      </trkpt>
      <trkpt lat="43.29139" lon="2.31486">
        <ele>204.6</ele>
        <time>2022-04-17T07:01:23.000Z</time>
      </trkpt>
      <trkpt lat="43.29142" lon="2.31485">
        <ele>204.5</ele>
        <time>2022-04-17T07:01:24.000Z</time>
      </trkpt>
      <trkpt lat="43.29145" lon="2.31485">
        <ele>204.4</ele>
        <time>2022-04-17T07:01:25.000Z</time>
      </trkpt>
      <trkpt lat="43.29148" lon="2.31484">
        <ele>204.2</ele>
        <time>2022-04-17T07:01:26.000Z</time>
      </trkpt>
      <trkpt lat="43.29151" lon="2.31484">
        <ele>204.1</ele>
        <time>2022-04-17T07:01:27.000Z</time>
      </trkpt>
      <trkpt lat="43.29154" lon="2.31483">
        <ele>204</ele>
        <time>2022-04-17T07:01:28.000Z</time>
      </trkpt>
      <trkpt lat="43.29157" lon="2.31483">
        <ele>203.9</ele>
        <time>2022-04-17T07:01:29.000Z</time>
      </trkpt>
      <trkpt lat="43.2916" lon="2.31482">
        <ele>203.7</ele>
        <time>2022-04-17T07:01:30.000Z</time>
      </trkpt>
      <trkpt lat="43.29163" lon="2.31482">
        <ele>203.6</ele>
        <time>2022-04-17T07:01:31.000Z</time>
      </trkpt>
      <trkpt lat="43.29165" lon="2.31481">
        <ele>203.5</ele>
        <time>2022-04-17T07:01:32.000Z</time>
      </trkpt>
      <trkpt lat="43.29168" lon="2.31481">
        <ele>203.5</ele>
        <time>2022-04-17T07:01:33.000Z</time>
      </trkpt>
      <trkpt lat="43.29171" lon="2.3148">
        <ele>203.5</ele>
        <time>2022-04-17T07:01:34.000Z</time>
      </trkpt>
      <trkpt lat="43.29174" lon="2.3148">
        <ele>203.5</ele>
        <time>2022-04-17T07:01:35.000Z</time>
      </trkpt>
      <trkpt lat="43.29177" lon="2.3148">
        <ele>203.5</ele>
        <time>2022-04-17T07:01:36.000Z</time>
      </trkpt>
      <trkpt lat="43.2918" lon="2.31479">
        <ele>203.5</ele>
        <time>2022-04-17T07:01:37.000Z</time>
      </trkpt>
      <trkpt lat="43.29182" lon="2.31479">
        <ele>203.5</ele>
        <time>2022-04-17T07:01:38.000Z</time>
      </trkpt>
      <trkpt lat="43.29185" lon="2.31478">
        <ele>203.5</ele>
        <time>2022-04-17T07:01:39.000Z</time>
      </trkpt>
      <trkpt lat="43.29188" lon="2.31478">
        <ele>203.5</ele>
        <time>2022-04-17T07:01:40.000Z</time>
      </trkpt>
      <trkpt lat="43.2919" lon="2.31478">
        <ele>203.5</ele>
        <time>2022-04-17T07:01:41.000Z</time>
      </trkpt>
      <trkpt lat="43.29193" lon="2.31477">
        <ele>203.5</ele>
        <time>2022-04-17T07:01:42.000Z</time>
      </trkpt>
      <trkpt lat="43.29196" lon="2.31477">
        <ele>203.6</ele>
        <time>2022-04-17T07:01:43.000Z</time>
      </trkpt>
      <trkpt lat="43.29199" lon="2.31477">
        <ele>203.6</ele>
        <time>2022-04-17T07:01:44.000Z</time>
      </trkpt>
      <trkpt lat="43.29202" lon="2.31476">
        <ele>203.6</ele>
        <time>2022-04-17T07:01:45.000Z</time>
      </trkpt>
      <trkpt lat="43.29204" lon="2.31476">
        <ele>203.6</ele>
        <time>2022-04-17T07:01:46.000Z</time>
      </trkpt>
      <trkpt lat="43.29207" lon="2.31476">
        <ele>203.6</ele>
        <time>2022-04-17T07:01:47.000Z</time>
      </trkpt>
      <trkpt lat="43.2921" lon="2.31475">
        <ele>203.6</ele>
        <time>2022-04-17T07:01:48.000Z</time>
      </trkpt>
      <trkpt lat="43.29212" lon="2.31475">
        <ele>203.6</ele>
        <time>2022-04-17T07:01:49.000Z</time>
      </trkpt>
      <trkpt lat="43.29215" lon="2.31475">
        <ele>203.6</ele>
        <time>2022-04-17T07:01:50.000Z</time>
      </trkpt>
      <trkpt lat="43.29217" lon="2.31474">
        <ele>203.6</ele>
        <time>2022-04-17T07:01:51.000Z</time>
      </trkpt>
      <trkpt lat="43.29219" lon="2.31474">
        <ele>203.6</ele>
        <time>2022-04-17T07:01:52.000Z</time>
      </trkpt>
      <trkpt lat="43.2922" lon="2.31474">
        <ele>203.6</ele>
        <time>2022-04-17T07:01:53.000Z</time>
      </trkpt>
      <trkpt lat="43.29222" lon="2.31474">
        <ele>203.6</ele>
        <time>2022-04-17T07:01:54.000Z</time>
      </trkpt>
      <trkpt lat="43.29223" lon="2.31474">
        <ele>203.6</ele>
        <time>2022-04-17T07:01:55.000Z</time>
      </trkpt>
      <trkpt lat="43.29225" lon="2.31473">
        <ele>203.6</ele>
        <time>2022-04-17T07:01:56.000Z</time>
      </trkpt>
      <trkpt lat="43.29227" lon="2.31473">
        <ele>203.6</ele>
        <time>2022-04-17T07:01:57.000Z</time>
      </trkpt>
      <trkpt lat="43.29229" lon="2.31473">
        <ele>203.7</ele>
        <time>2022-04-17T07:01:58.000Z</time>
      </trkpt>
      <trkpt lat="43.29231" lon="2.31473">
        <ele>203.7</ele>
        <time>2022-04-17T07:01:59.000Z</time>
      </trkpt>
      <trkpt lat="43.29233" lon="2.31472">
        <ele>203.7</ele>
        <time>2022-04-17T07:02:00.000Z</time>
      </trkpt>
      <trkpt lat="43.29236" lon="2.31472">
        <ele>203.7</ele>
        <time>2022-04-17T07:02:01.000Z</time>
      </trkpt>
      <trkpt lat="43.29238" lon="2.31472">
        <ele>203.7</ele>
        <time>2022-04-17T07:02:02.000Z</time>
      </trkpt>
      <trkpt lat="43.2924" lon="2.31472">
        <ele>203.7</ele>
        <time>2022-04-17T07:02:03.000Z</time>
      </trkpt>
      <trkpt lat="43.29241" lon="2.31472">
        <ele>203.7</ele>
        <time>2022-04-17T07:02:04.000Z</time>
      </trkpt>
      <trkpt lat="43.29242" lon="2.31472">
        <ele>203.7</ele>
        <time>2022-04-17T07:02:05.000Z</time>
      </trkpt>
      <trkpt lat="43.29243" lon="2.31472">
        <ele>203.7</ele>
        <time>2022-04-17T07:02:06.000Z</time>
      </trkpt>
      <trkpt lat="43.29243" lon="2.31471">
        <ele>203.7</ele>
        <time>2022-04-17T07:02:07.000Z</time>
      </trkpt>
      <trkpt lat="43.29243" lon="2.31471">
        <ele>203.7</ele>
        <time>2022-04-17T07:02:08.000Z</time>
      </trkpt>
      <trkpt lat="43.29244" lon="2.31471">
        <ele>203.7</ele>
        <time>2022-04-17T07:02:09.000Z</time>
      </trkpt>
      <trkpt lat="43.29244" lon="2.31471">
        <ele>203.7</ele>
        <time>2022-04-17T07:02:10.000Z</time>
      </trkpt>
      <trkpt lat="43.29244" lon="2.3147">
        <ele>203.7</ele>
        <time>2022-04-17T07:02:11.000Z</time>
      </trkpt>
      <trkpt lat="43.29245" lon="2.3147">
        <ele>203.7</ele>
        <time>2022-04-17T07:02:12.000Z</time>
      </trkpt>
      <trkpt lat="43.29245" lon="2.31469">
        <ele>203.7</ele>
        <time>2022-04-17T07:02:13.000Z</time>
      </trkpt>
      <trkpt lat="43.29246" lon="2.31469">
        <ele>203.8</ele>
        <time>2022-04-17T07:02:14.000Z</time>
      </trkpt>
      <trkpt lat="43.29247" lon="2.31468">
        <ele>203.8</ele>
        <time>2022-04-17T07:02:15.000Z</time>
      </trkpt>
      <trkpt lat="43.29248" lon="2.31468">
        <ele>203.8</ele>
        <time>2022-04-17T07:02:16.000Z</time>
      </trkpt>
      <trkpt lat="43.29249" lon="2.31467">
        <ele>203.8</ele>
        <time>2022-04-17T07:02:17.000Z</time>
      </trkpt>
      <trkpt lat="43.2925" lon="2.31467">
        <ele>203.8</ele>
        <time>2022-04-17T07:02:18.000Z</time>
      </trkpt>
      <trkpt lat="43.29251" lon="2.31467">
        <ele>203.8</ele>
        <time>2022-04-17T07:02:19.000Z</time>
      </trkpt>
      <trkpt lat="43.29252" lon="2.31467">
        <ele>203.8</ele>
        <time>2022-04-17T07:02:20.000Z</time>
      </trkpt>
      <trkpt lat="43.29253" lon="2.31467">
        <ele>203.9</ele>
        <time>2022-04-17T07:02:21.000Z</time>
      </trkpt>
      <trkpt lat="43.29254" lon="2.31467">
        <ele>203.9</ele>
        <time>2022-04-17T07:02:22.000Z</time>
      </trkpt>
      <trkpt lat="43.29255" lon="2.31467">
        <ele>203.9</ele>
        <time>2022-04-17T07:02:23.000Z</time>
      </trkpt>
      <trkpt lat="43.29256" lon="2.31467">
        <ele>203.9</ele>
        <time>2022-04-17T07:02:24.000Z</time>
      </trkpt>
      <trkpt lat="43.29257" lon="2.31467">
        <ele>204</ele>
        <time>2022-04-17T07:02:25.000Z</time>
      </trkpt>
      <trkpt lat="43.29258" lon="2.31467">
        <ele>204</ele>
        <time>2022-04-17T07:02:26.000Z</time>
      </trkpt>
      <trkpt lat="43.29258" lon="2.31467">
        <ele>204</ele>
        <time>2022-04-17T07:02:27.000Z</time>
      </trkpt>
      <trkpt lat="43.29259" lon="2.31466">
        <ele>204</ele>
        <time>2022-04-17T07:02:28.000Z</time>
      </trkpt>
      <trkpt lat="43.2926" lon="2.31466">
        <ele>204.1</ele>
        <time>2022-04-17T07:02:29.000Z</time>
      </trkpt>
      <trkpt lat="43.29261" lon="2.31466">
        <ele>204.1</ele>
        <time>2022-04-17T07:02:30.000Z</time>
      </trkpt>
      <trkpt lat="43.29262" lon="2.31466">
        <ele>204.1</ele>
        <time>2022-04-17T07:02:31.000Z</time>
      </trkpt>
      <trkpt lat="43.29263" lon="2.31465">
        <ele>204.1</ele>
        <time>2022-04-17T07:02:32.000Z</time>
      </trkpt>
      <trkpt lat="43.29263" lon="2.31465">
        <ele>204.2</ele>
        <time>2022-04-17T07:02:33.000Z</time>
      </trkpt>
      <trkpt lat="43.29264" lon="2.31465">
        <ele>204.2</ele>
        <time>2022-04-17T07:02:34.000Z</time>
      </trkpt>
      <trkpt lat="43.29265" lon="2.31465">
        <ele>204.2</ele>
        <time>2022-04-17T07:02:35.000Z</time>
      </trkpt>
      <trkpt lat="43.29266" lon="2.31465">
        <ele>204.2</ele>
        <time>2022-04-17T07:02:36.000Z</time>
      </trkpt>
      <trkpt lat="43.29267" lon="2.31464">
        <ele>204.3</ele>
        <time>2022-04-17T07:02:37.000Z</time>
      </trkpt>
      <trkpt lat="43.29268" lon="2.31464">
        <ele>204.3</ele>
        <time>2022-04-17T07:02:38.000Z</time>
      </trkpt>
      <trkpt lat="43.29269" lon="2.31464">
        <ele>204.3</ele>
        <time>2022-04-17T07:02:39.000Z</time>
      </trkpt>
      <trkpt lat="43.2927" lon="2.31463">
        <ele>204.4</ele>
        <time>2022-04-17T07:02:40.000Z</time>
      </trkpt>
      <trkpt lat="43.29271" lon="2.31463">
        <ele>204.4</ele>
        <time>2022-04-17T07:02:41.000Z</time>
      </trkpt>
      <trkpt lat="43.29272" lon="2.31462">
        <ele>204.4</ele>
        <time>2022-04-17T07:02:42.000Z</time>
      </trkpt>
      <trkpt lat="43.29273" lon="2.31462">
        <ele>204.5</ele>
        <time>2022-04-17T07:02:43.000Z</time>
      </trkpt>
      <trkpt lat="43.29275" lon="2.31462">
        <ele>204.5</ele>
        <time>2022-04-17T07:02:44.000Z</time>
      </trkpt>
      <trkpt lat="43.29276" lon="2.31461">
        <ele>204.6</ele>
        <time>2022-04-17T07:02:45.000Z</time>
      </trkpt>
      <trkpt lat="43.29277" lon="2.31461">
        <ele>204.6</ele>
        <time>2022-04-17T07:02:46.000Z</time>
      </trkpt>
      <trkpt lat="43.29279" lon="2.3146">
        <ele>204.6</ele>
        <time>2022-04-17T07:02:47.000Z</time>
      </trkpt>
      <trkpt lat="43.2928" lon="2.3146">
        <ele>204.7</ele>
        <time>2022-04-17T07:02:48.000Z</time>
      </trkpt>
      <trkpt lat="43.29281" lon="2.31459">
        <ele>204.7</ele>
        <time>2022-04-17T07:02:49.000Z</time>
      </trkpt>
      <trkpt lat="43.29283" lon="2.31458">
        <ele>204.8</ele>
        <time>2022-04-17T07:02:50.000Z</time>
      </trkpt>
      <trkpt lat="43.29284" lon="2.31458">
        <ele>204.8</ele>
        <time>2022-04-17T07:02:51.000Z</time>
      </trkpt>
      <trkpt lat="43.29285" lon="2.31457">
        <ele>204.9</ele>
        <time>2022-04-17T07:02:52.000Z</time>
      </trkpt>
      <trkpt lat="43.29287" lon="2.31456">
        <ele>204.9</ele>
        <time>2022-04-17T07:02:53.000Z</time>
      </trkpt>
      <trkpt lat="43.29288" lon="2.31456">
        <ele>205</ele>
        <time>2022-04-17T07:02:54.000Z</time>
      </trkpt>
      <trkpt lat="43.29289" lon="2.31455">
        <ele>205</ele>
        <time>2022-04-17T07:02:55.000Z</time>
      </trkpt>
      <trkpt lat="43.29291" lon="2.31454">
        <ele>205.1</ele>
        <time>2022-04-17T07:02:56.000Z</time>
      </trkpt>
      <trkpt lat="43.29292" lon="2.31454">
        <ele>205.1</ele>
        <time>2022-04-17T07:02:57.000Z</time>
      </trkpt>
      <trkpt lat="43.29293" lon="2.31453">
        <ele>205.2</ele>
        <time>2022-04-17T07:02:58.000Z</time>
      </trkpt>
      <trkpt lat="43.29295" lon="2.31452">
        <ele>205.2</ele>
        <time>2022-04-17T07:02:59.000Z</time>
      </trkpt>
      <trkpt lat="43.29296" lon="2.31452">
        <ele>205.3</ele>
        <time>2022-04-17T07:03:00.000Z</time>
      </trkpt>
      <trkpt lat="43.29297" lon="2.31451">
        <ele>205.3</ele>
        <time>2022-04-17T07:03:01.000Z</time>
      </trkpt>
      <trkpt lat="43.29298" lon="2.31451">
        <ele>205.3</ele>
        <time>2022-04-17T07:03:02.000Z</time>
      </trkpt>
      <trkpt lat="43.293" lon="2.3145">
        <ele>205.4</ele>
        <time>2022-04-17T07:03:03.000Z</time>
      </trkpt>
      <trkpt lat="43.29301" lon="2.3145">
        <ele>205.4</ele>
        <time>2022-04-17T07:03:04.000Z</time>
      </trkpt>
      <trkpt lat="43.29303" lon="2.31449">
        <ele>205.5</ele>
        <time>2022-04-17T07:03:05.000Z</time>
      </trkpt>
      <trkpt lat="43.29304" lon="2.31449">
        <ele>205.5</ele>
        <time>2022-04-17T07:03:06.000Z</time>
      </trkpt>
      <trkpt lat="43.29305" lon="2.31449">
        <ele>205.6</ele>
        <time>2022-04-17T07:03:07.000Z</time>
      </trkpt>
      <trkpt lat="43.29307" lon="2.31449">
        <ele>205.6</ele>
        <time>2022-04-17T07:03:08.000Z</time>
      </trkpt>
      <trkpt lat="43.29308" lon="2.31448">
        <ele>205.6</ele>
        <time>2022-04-17T07:03:09.000Z</time>
      </trkpt>
      <trkpt lat="43.2931" lon="2.31448">
        <ele>205.7</ele>
        <time>2022-04-17T07:03:10.000Z</time>
      </trkpt>
      <trkpt lat="43.29311" lon="2.31448">
        <ele>205.7</ele>
        <time>2022-04-17T07:03:11.000Z</time>
      </trkpt>
      <trkpt lat="43.29312" lon="2.31449">
        <ele>205.7</ele>
        <time>2022-04-17T07:03:12.000Z</time>
      </trkpt>
      <trkpt lat="43.29314" lon="2.31449">
        <ele>205.8</ele>
        <time>2022-04-17T07:03:13.000Z</time>
      </trkpt>
      <trkpt lat="43.29315" lon="2.31449">
        <ele>205.8</ele>
        <time>2022-04-17T07:03:14.000Z</time>
      </trkpt>
      <trkpt lat="43.29317" lon="2.31449">
        <ele>205.8</ele>
        <time>2022-04-17T07:03:15.000Z</time>
      </trkpt>
      <trkpt lat="43.29318" lon="2.3145">
        <ele>205.8</ele>
        <time>2022-04-17T07:03:16.000Z</time>
      </trkpt>
      <trkpt lat="43.29319" lon="2.3145">
        <ele>205.8</ele>
        <time>2022-04-17T07:03:17.000Z</time>
      </trkpt>
      <trkpt lat="43.2932" lon="2.31451">
        <ele>205.9</ele>
        <time>2022-04-17T07:03:18.000Z</time>
      </trkpt>
      <trkpt lat="43.29321" lon="2.31452">
        <ele>205.9</ele>
        <time>2022-04-17T07:03:19.000Z</time>
      </trkpt>
      <trkpt lat="43.29323" lon="2.31453">
        <ele>205.9</ele>
        <time>2022-04-17T07:03:20.000Z</time>
      </trkpt>
      <trkpt lat="43.29324" lon="2.31453">
        <ele>205.9</ele>
        <time>2022-04-17T07:03:21.000Z</time>
      </trkpt>
      <trkpt lat="43.29325" lon="2.31454">
        <ele>205.9</ele>
        <time>2022-04-17T07:03:22.000Z</time>
      </trkpt>
      <trkpt lat="43.29326" lon="2.31455">
        <ele>205.9</ele>
        <time>2022-04-17T07:03:23.000Z</time>
      </trkpt>
      <trkpt lat="43.29327" lon="2.31456">
        <ele>205.9</ele>
        <time>2022-04-17T07:03:24.000Z</time>
      </trkpt>
      <trkpt lat="43.29328" lon="2.31456">
        <ele>205.9</ele>
        <time>2022-04-17T07:03:25.000Z</time>
      </trkpt>
      <trkpt lat="43.29329" lon="2.31457">
        <ele>205.9</ele>
        <time>2022-04-17T07:03:26.000Z</time>
      </trkpt>
      <trkpt lat="43.29331" lon="2.31458">
        <ele>205.9</ele>
        <time>2022-04-17T07:03:27.000Z</time>
      </trkpt>
      <trkpt lat="43.29332" lon="2.31458">
        <ele>206</ele>
        <time>2022-04-17T07:03:28.000Z</time>
      </trkpt>
      <trkpt lat="43.29333" lon="2.31459">
        <ele>206</ele>
        <time>2022-04-17T07:03:29.000Z</time>
      </trkpt>
      <trkpt lat="43.29334" lon="2.31459">
        <ele>206</ele>
        <time>2022-04-17T07:03:30.000Z</time>
      </trkpt>
      <trkpt lat="43.29335" lon="2.31459">
        <ele>206</ele>
        <time>2022-04-17T07:03:31.000Z</time>
      </trkpt>
      <trkpt lat="43.29337" lon="2.31459">
        <ele>206</ele>
        <time>2022-04-17T07:03:32.000Z</time>
      </trkpt>
      <trkpt lat="43.29338" lon="2.31459">
        <ele>206</ele>
        <time>2022-04-17T07:03:33.000Z</time>
      </trkpt>
      <trkpt lat="43.29339" lon="2.31459">
        <ele>206</ele>
        <time>2022-04-17T07:03:34.000Z</time>
      </trkpt>
      <trkpt lat="43.29341" lon="2.31459">
        <ele>206</ele>
        <time>2022-04-17T07:03:35.000Z</time>
      </trkpt>
      <trkpt lat="43.29342" lon="2.31458">
        <ele>206</ele>
        <time>2022-04-17T07:03:36.000Z</time>
      </trkpt>
      <trkpt lat="43.29343" lon="2.31458">
        <ele>206</ele>
        <time>2022-04-17T07:03:37.000Z</time>
      </trkpt>
      <trkpt lat="43.29344" lon="2.31457">
        <ele>206</ele>
        <time>2022-04-17T07:03:38.000Z</time>
      </trkpt>
      <trkpt lat="43.29346" lon="2.31456">
        <ele>206</ele>
        <time>2022-04-17T07:03:39.000Z</time>
      </trkpt>
      <trkpt lat="43.29347" lon="2.31456">
        <ele>206</ele>
        <time>2022-04-17T07:03:40.000Z</time>
      </trkpt>
      <trkpt lat="43.29348" lon="2.31455">
        <ele>206</ele>
        <time>2022-04-17T07:03:41.000Z</time>
      </trkpt>
      <trkpt lat="43.29349" lon="2.31455">
        <ele>206</ele>
        <time>2022-04-17T07:03:42.000Z</time>
      </trkpt>
      <trkpt lat="43.2935" lon="2.31454">
        <ele>206</ele>
        <time>2022-04-17T07:03:43.000Z</time>
      </trkpt>
      <trkpt lat="43.29351" lon="2.31454">
        <ele>206</ele>
        <time>2022-04-17T07:03:44.000Z</time>
      </trkpt>
      <trkpt lat="43.29352" lon="2.31454">
        <ele>206</ele>
        <time>2022-04-17T07:03:45.000Z</time>
      </trkpt>
      <trkpt lat="43.29353" lon="2.31454">
        <ele>206</ele>
        <time>2022-04-17T07:03:46.000Z</time>
      </trkpt>
      <trkpt lat="43.29354" lon="2.31454">
        <ele>206</ele>
        <time>2022-04-17T07:03:47.000Z</time>
      </trkpt>
      <trkpt lat="43.29355" lon="2.31453">
        <ele>206</ele>
        <time>2022-04-17T07:03:48.000Z</time>
      </trkpt>
      <trkpt lat="43.29356" lon="2.31453">
        <ele>206</ele>
        <time>2022-04-17T07:03:49.000Z</time>
      </trkpt>
      <trkpt lat="43.29357" lon="2.31452">
        <ele>206</ele>
        <time>2022-04-17T07:03:50.000Z</time>
      </trkpt>
      <trkpt lat="43.29358" lon="2.31452">
        <ele>206</ele>
        <time>2022-04-17T07:03:51.000Z</time>
      </trkpt>
      <trkpt lat="43.29359" lon="2.31451">
        <ele>206</ele>
        <time>2022-04-17T07:03:52.000Z</time>
      </trkpt>
      <trkpt lat="43.2936" lon="2.3145">
        <ele>206</ele>
        <time>2022-04-17T07:03:53.000Z</time>
      </trkpt>
      <trkpt lat="43.29361" lon="2.31449">
        <ele>206</ele>
        <time>2022-04-17T07:03:54.000Z</time>
      </trkpt>
      <trkpt lat="43.29362" lon="2.31448">
        <ele>206</ele>
        <time>2022-04-17T07:03:55.000Z</time>
      </trkpt>
      <trkpt lat="43.29363" lon="2.31448">
        <ele>206</ele>
        <time>2022-04-17T07:03:56.000Z</time>
      </trkpt>
      <trkpt lat="43.29364" lon="2.31447">
        <ele>206</ele>
        <time>2022-04-17T07:03:57.000Z</time>
      </trkpt>
      <trkpt lat="43.29365" lon="2.31447">
        <ele>206</ele>
        <time>2022-04-17T07:03:58.000Z</time>
      </trkpt>
      <trkpt lat="43.29366" lon="2.31447">
        <ele>206</ele>
        <time>2022-04-17T07:03:59.000Z</time>
      </trkpt>
      <trkpt lat="43.29368" lon="2.31447">
        <ele>206</ele>
        <time>2022-04-17T07:04:00.000Z</time>
      </trkpt>
      <trkpt lat="43.29369" lon="2.31447">
        <ele>206</ele>
        <time>2022-04-17T07:04:01.000Z</time>
      </trkpt>
      <trkpt lat="43.2937" lon="2.31446">
        <ele>206</ele>
        <time>2022-04-17T07:04:02.000Z</time>
      </trkpt>
      <trkpt lat="43.29371" lon="2.31446">
        <ele>206</ele>
        <time>2022-04-17T07:04:03.000Z</time>
      </trkpt>
      <trkpt lat="43.29373" lon="2.31446">
        <ele>206</ele>
        <time>2022-04-17T07:04:04.000Z</time>
      </trkpt>
      <trkpt lat="43.29374" lon="2.31446">
        <ele>206</ele>
        <time>2022-04-17T07:04:05.000Z</time>
      </trkpt>
      <trkpt lat="43.29375" lon="2.31446">
        <ele>206</ele>
        <time>2022-04-17T07:04:06.000Z</time>
      </trkpt>
      <trkpt lat="43.29376" lon="2.31445">
        <ele>206</ele>
        <time>2022-04-17T07:04:07.000Z</time>
      </trkpt>
      <trkpt lat="43.29377" lon="2.31445">
        <ele>206</ele>
        <time>2022-04-17T07:04:08.000Z</time>
      </trkpt>
      <trkpt lat="43.29379" lon="2.31444">
        <ele>206</ele>
        <time>2022-04-17T07:04:09.000Z</time>
      </trkpt>
      <trkpt lat="43.2938" lon="2.31443">
        <ele>206</ele>
        <time>2022-04-17T07:04:10.000Z</time>
      </trkpt>
      <trkpt lat="43.29381" lon="2.31443">
        <ele>206</ele>
        <time>2022-04-17T07:04:11.000Z</time>
      </trkpt>
      <trkpt lat="43.29382" lon="2.31442">
        <ele>206</ele>
        <time>2022-04-17T07:04:12.000Z</time>
      </trkpt>
      <trkpt lat="43.29383" lon="2.31442">
        <ele>206</ele>
        <time>2022-04-17T07:04:13.000Z</time>
      </trkpt>
      <trkpt lat="43.29384" lon="2.31442">
        <ele>206</ele>
        <time>2022-04-17T07:04:14.000Z</time>
      </trkpt>
      <trkpt lat="43.29386" lon="2.31442">
        <ele>206</ele>
        <time>2022-04-17T07:04:15.000Z</time>
      </trkpt>
      <trkpt lat="43.29387" lon="2.31442">
        <ele>206</ele>
        <time>2022-04-17T07:04:16.000Z</time>
      </trkpt>
      <trkpt lat="43.29388" lon="2.31442">
        <ele>205.9</ele>
        <time>2022-04-17T07:04:17.000Z</time>
      </trkpt>
      <trkpt lat="43.29389" lon="2.31442">
        <ele>205.9</ele>
        <time>2022-04-17T07:04:18.000Z</time>
      </trkpt>
      <trkpt lat="43.2939" lon="2.31442">
        <ele>205.9</ele>
        <time>2022-04-17T07:04:19.000Z</time>
      </trkpt>
      <trkpt lat="43.29391" lon="2.31442">
        <ele>205.9</ele>
        <time>2022-04-17T07:04:20.000Z</time>
      </trkpt>
      <trkpt lat="43.29393" lon="2.31442">
        <ele>205.9</ele>
        <time>2022-04-17T07:04:21.000Z</time>
      </trkpt>
      <trkpt lat="43.29394" lon="2.31442">
        <ele>205.9</ele>
        <time>2022-04-17T07:04:22.000Z</time>
      </trkpt>
      <trkpt lat="43.29395" lon="2.31441">
        <ele>205.9</ele>
        <time>2022-04-17T07:04:23.000Z</time>
      </trkpt>
      <trkpt lat="43.29396" lon="2.31441">
        <ele>205.9</ele>
        <time>2022-04-17T07:04:24.000Z</time>
      </trkpt>
      <trkpt lat="43.29398" lon="2.3144">
        <ele>205.9</ele>
        <time>2022-04-17T07:04:25.000Z</time>
      </trkpt>
      <trkpt lat="43.29399" lon="2.31439">
        <ele>205.9</ele>
        <time>2022-04-17T07:04:26.000Z</time>
      </trkpt>
      <trkpt lat="43.294" lon="2.31439">
        <ele>205.9</ele>
        <time>2022-04-17T07:04:27.000Z</time>
      </trkpt>
      <trkpt lat="43.29401" lon="2.31438">
        <ele>205.9</ele>
        <time>2022-04-17T07:04:28.000Z</time>
      </trkpt>
      <trkpt lat="43.29402" lon="2.31438">
        <ele>205.9</ele>
        <time>2022-04-17T07:04:29.000Z</time>
      </trkpt>
      <trkpt lat="43.29403" lon="2.31437">
        <ele>205.9</ele>
        <time>2022-04-17T07:04:30.000Z</time>
      </trkpt>
      <trkpt lat="43.29404" lon="2.31437">
        <ele>205.9</ele>
        <time>2022-04-17T07:04:31.000Z</time>
      </trkpt>
      <trkpt lat="43.29405" lon="2.31436">
        <ele>205.9</ele>
        <time>2022-04-17T07:04:32.000Z</time>
      </trkpt>
      <trkpt lat="43.29406" lon="2.31436">
        <ele>205.9</ele>
        <time>2022-04-17T07:04:33.000Z</time>
      </trkpt>
      <trkpt lat="43.29407" lon="2.31436">
        <ele>205.9</ele>
        <time>2022-04-17T07:04:34.000Z</time>
      </trkpt>
      <trkpt lat="43.29408" lon="2.31435">
        <ele>205.9</ele>
        <time>2022-04-17T07:04:35.000Z</time>
      </trkpt>
      <trkpt lat="43.29409" lon="2.31435">
        <ele>205.9</ele>
        <time>2022-04-17T07:04:36.000Z</time>
      </trkpt>
      <trkpt lat="43.2941" lon="2.31435">
        <ele>205.8</ele>
        <time>2022-04-17T07:04:37.000Z</time>
      </trkpt>
      <trkpt lat="43.29411" lon="2.31435">
        <ele>205.8</ele>
        <time>2022-04-17T07:04:38.000Z</time>
      </trkpt>
      <trkpt lat="43.29412" lon="2.31435">
        <ele>205.8</ele>
        <time>2022-04-17T07:04:39.000Z</time>
      </trkpt>
      <trkpt lat="43.29413" lon="2.31434">
        <ele>205.8</ele>
        <time>2022-04-17T07:04:40.000Z</time>
      </trkpt>
      <trkpt lat="43.29414" lon="2.31434">
        <ele>205.8</ele>
        <time>2022-04-17T07:04:41.000Z</time>
      </trkpt>
      <trkpt lat="43.29416" lon="2.31434">
        <ele>205.8</ele>
        <time>2022-04-17T07:04:42.000Z</time>
      </trkpt>
      <trkpt lat="43.29417" lon="2.31433">
        <ele>205.8</ele>
        <time>2022-04-17T07:04:43.000Z</time>
      </trkpt>
      <trkpt lat="43.29418" lon="2.31433">
        <ele>205.6</ele>
        <time>2022-04-17T07:04:44.000Z</time>
      </trkpt>
      <trkpt lat="43.29419" lon="2.31432">
        <ele>205.4</ele>
        <time>2022-04-17T07:04:45.000Z</time>
      </trkpt>
      <trkpt lat="43.2942" lon="2.31432">
        <ele>205.2</ele>
        <time>2022-04-17T07:04:46.000Z</time>
      </trkpt>
      <trkpt lat="43.29421" lon="2.31431">
        <ele>205</ele>
        <time>2022-04-17T07:04:47.000Z</time>
      </trkpt>
      <trkpt lat="43.29422" lon="2.31431">
        <ele>204.9</ele>
        <time>2022-04-17T07:04:48.000Z</time>
      </trkpt>
      <trkpt lat="43.29422" lon="2.31431">
        <ele>204.7</ele>
        <time>2022-04-17T07:04:49.000Z</time>
      </trkpt>
      <trkpt lat="43.29423" lon="2.3143">
        <ele>204.7</ele>
        <time>2022-04-17T07:04:50.000Z</time>
      </trkpt>
      <trkpt lat="43.29423" lon="2.3143">
        <ele>204.6</ele>
        <time>2022-04-17T07:04:51.000Z</time>
      </trkpt>
      <trkpt lat="43.29423" lon="2.3143">
        <ele>204.6</ele>
        <time>2022-04-17T07:04:52.000Z</time>
      </trkpt>
      <trkpt lat="43.29422" lon="2.3143">
        <ele>204.7</ele>
        <time>2022-04-17T07:04:53.000Z</time>
      </trkpt>
      <trkpt lat="43.29422" lon="2.3143">
        <ele>204.8</ele>
        <time>2022-04-17T07:04:54.000Z</time>
      </trkpt>
      <trkpt lat="43.29421" lon="2.3143">
        <ele>204.9</ele>
        <time>2022-04-17T07:04:55.000Z</time>
      </trkpt>
      <trkpt lat="43.29421" lon="2.31431">
        <ele>204.9</ele>
        <time>2022-04-17T07:04:56.000Z</time>
      </trkpt>
      <trkpt lat="43.29421" lon="2.31431">
        <ele>204.9</ele>
        <time>2022-04-17T07:04:57.000Z</time>
      </trkpt>
      <trkpt lat="43.29422" lon="2.31431">
        <ele>204.8</ele>
        <time>2022-04-17T07:04:58.000Z</time>
      </trkpt>
      <trkpt lat="43.29422" lon="2.31431">
        <ele>204.7</ele>
        <time>2022-04-17T07:04:59.000Z</time>
      </trkpt>
      <trkpt lat="43.29423" lon="2.31431">
        <ele>204.6</ele>
        <time>2022-04-17T07:05:00.000Z</time>
      </trkpt>
      <trkpt lat="43.29424" lon="2.3143">
        <ele>204.4</ele>
        <time>2022-04-17T07:05:01.000Z</time>
      </trkpt>
      <trkpt lat="43.29424" lon="2.3143">
        <ele>204.3</ele>
        <time>2022-04-17T07:05:02.000Z</time>
      </trkpt>
      <trkpt lat="43.29425" lon="2.31429">
        <ele>204.2</ele>
        <time>2022-04-17T07:05:03.000Z</time>
      </trkpt>
      <trkpt lat="43.29425" lon="2.31429">
        <ele>204.2</ele>
        <time>2022-04-17T07:05:04.000Z</time>
      </trkpt>
      <trkpt lat="43.29425" lon="2.31429">
        <ele>204.2</ele>
        <time>2022-04-17T07:05:05.000Z</time>
      </trkpt>
      <trkpt lat="43.29425" lon="2.31428">
        <ele>204.2</ele>
        <time>2022-04-17T07:05:06.000Z</time>
      </trkpt>
      <trkpt lat="43.29425" lon="2.31428">
        <ele>204.2</ele>
        <time>2022-04-17T07:05:07.000Z</time>
      </trkpt>
      <trkpt lat="43.29425" lon="2.31428">
        <ele>204.2</ele>
        <time>2022-04-17T07:05:08.000Z</time>
      </trkpt>
      <trkpt lat="43.29425" lon="2.31428">
        <ele>204.2</ele>
        <time>2022-04-17T07:05:09.000Z</time>
      </trkpt>
      <trkpt lat="43.29425" lon="2.31428">
        <ele>204.2</ele>
        <time>2022-04-17T07:05:10.000Z</time>
      </trkpt>
      <trkpt lat="43.29425" lon="2.31428">
        <ele>204.2</ele>
        <time>2022-04-17T07:05:11.000Z</time>
      </trkpt>
      <trkpt lat="43.29425" lon="2.31428">
        <ele>204.2</ele>
        <time>2022-04-17T07:05:12.000Z</time>
      </trkpt>
      <trkpt lat="43.29425" lon="2.31428">
        <ele>204.2</ele>
        <time>2022-04-17T07:05:13.000Z</time>
      </trkpt>
      <trkpt lat="43.29425" lon="2.31428">
        <ele>204.2</ele>
        <time>2022-04-17T07:05:14.000Z</time>
      </trkpt>
      <trkpt lat="43.29425" lon="2.31428">
        <ele>204.2</ele>
        <time>2022-04-17T07:05:15.000Z</time>
      </trkpt>
      <trkpt lat="43.29425" lon="2.31428">
        <ele>204.2</ele>
        <time>2022-04-17T07:05:16.000Z</time>
      </trkpt>
      <trkpt lat="43.29425" lon="2.31428">
        <ele>204.2</ele>
        <time>2022-04-17T07:05:17.000Z</time>
      </trkpt>
      <trkpt lat="43.29425" lon="2.31427">
        <ele>204.2</ele>
        <time>2022-04-17T07:05:18.000Z</time>
      </trkpt>
      <trkpt lat="43.29425" lon="2.31427">
        <ele>204.2</ele>
        <time>2022-04-17T07:05:19.000Z</time>
      </trkpt>
      <trkpt lat="43.29425" lon="2.31426">
        <ele>204.2</ele>
        <time>2022-04-17T07:05:20.000Z</time>
      </trkpt>
      <trkpt lat="43.29425" lon="2.31425">
        <ele>204.3</ele>
        <time>2022-04-17T07:05:21.000Z</time>
      </trkpt>
      <trkpt lat="43.29425" lon="2.31424">
        <ele>204.3</ele>
        <time>2022-04-17T07:05:22.000Z</time>
      </trkpt>
      <trkpt lat="43.29425" lon="2.31424">
        <ele>204.3</ele>
        <time>2022-04-17T07:05:23.000Z</time>
      </trkpt>
      <trkpt lat="43.29425" lon="2.31424">
        <ele>204.4</ele>
        <time>2022-04-17T07:05:24.000Z</time>
      </trkpt>
      <trkpt lat="43.29424" lon="2.31423">
        <ele>204.4</ele>
        <time>2022-04-17T07:05:25.000Z</time>
      </trkpt>
      <trkpt lat="43.29424" lon="2.31423">
        <ele>204.5</ele>
        <time>2022-04-17T07:05:26.000Z</time>
      </trkpt>
      <trkpt lat="43.29424" lon="2.31423">
        <ele>204.5</ele>
        <time>2022-04-17T07:05:27.000Z</time>
      </trkpt>
      <trkpt lat="43.29424" lon="2.31423">
        <ele>204.5</ele>
        <time>2022-04-17T07:05:28.000Z</time>
      </trkpt>
      <trkpt lat="43.29424" lon="2.31423">
        <ele>204.5</ele>
        <time>2022-04-17T07:05:29.000Z</time>
      </trkpt>
      <trkpt lat="43.29424" lon="2.31423">
        <ele>204.5</ele>
        <time>2022-04-17T07:05:30.000Z</time>
      </trkpt>
      <trkpt lat="43.29424" lon="2.31423">
        <ele>204.6</ele>
        <time>2022-04-17T07:05:31.000Z</time>
      </trkpt>
      <trkpt lat="43.29424" lon="2.31423">
        <ele>204.6</ele>
        <time>2022-04-17T07:05:32.000Z</time>
      </trkpt>
      <trkpt lat="43.29424" lon="2.31423">
        <ele>204.6</ele>
        <time>2022-04-17T07:05:33.000Z</time>
      </trkpt>
      <trkpt lat="43.29424" lon="2.31423">
        <ele>204.5</ele>
        <time>2022-04-17T07:05:34.000Z</time>
      </trkpt>
      <trkpt lat="43.29424" lon="2.31423">
        <ele>204.5</ele>
        <time>2022-04-17T07:05:35.000Z</time>
      </trkpt>
      <trkpt lat="43.29424" lon="2.31423">
        <ele>204.5</ele>
        <time>2022-04-17T07:05:36.000Z</time>
      </trkpt>
      <trkpt lat="43.29424" lon="2.31423">
        <ele>204.5</ele>
        <time>2022-04-17T07:05:37.000Z</time>
      </trkpt>
      <trkpt lat="43.29424" lon="2.31423">
        <ele>204.5</ele>
        <time>2022-04-17T07:05:38.000Z</time>
      </trkpt>
      <trkpt lat="43.29424" lon="2.31423">
        <ele>204.5</ele>
        <time>2022-04-17T07:05:39.000Z</time>
      </trkpt>
      <trkpt lat="43.29424" lon="2.31423">
        <ele>204.4</ele>
        <time>2022-04-17T07:05:40.000Z</time>
      </trkpt>
      <trkpt lat="43.29425" lon="2.31423">
        <ele>204.4</ele>
        <time>2022-04-17T07:05:41.000Z</time>
      </trkpt>
      <trkpt lat="43.29425" lon="2.31423">
        <ele>204.3</ele>
        <time>2022-04-17T07:05:42.000Z</time>
      </trkpt>
      <trkpt lat="43.29425" lon="2.31422">
        <ele>204.3</ele>
        <time>2022-04-17T07:05:43.000Z</time>
      </trkpt>
      <trkpt lat="43.29426" lon="2.31422">
        <ele>204.1</ele>
        <time>2022-04-17T07:05:44.000Z</time>
      </trkpt>
      <trkpt lat="43.29427" lon="2.31422">
        <ele>203.9</ele>
        <time>2022-04-17T07:05:45.000Z</time>
      </trkpt>
      <trkpt lat="43.29428" lon="2.31421">
        <ele>203.7</ele>
        <time>2022-04-17T07:05:46.000Z</time>
      </trkpt>
      <trkpt lat="43.29429" lon="2.31421">
        <ele>203.5</ele>
        <time>2022-04-17T07:05:47.000Z</time>
      </trkpt>
      <trkpt lat="43.2943" lon="2.31421">
        <ele>203.3</ele>
        <time>2022-04-17T07:05:48.000Z</time>
      </trkpt>
      <trkpt lat="43.29431" lon="2.31421">
        <ele>203.2</ele>
        <time>2022-04-17T07:05:49.000Z</time>
      </trkpt>
      <trkpt lat="43.29431" lon="2.31422">
        <ele>203.1</ele>
        <time>2022-04-17T07:05:50.000Z</time>
      </trkpt>
      <trkpt lat="43.29432" lon="2.31422">
        <ele>203.1</ele>
        <time>2022-04-17T07:05:51.000Z</time>
      </trkpt>
      <trkpt lat="43.29432" lon="2.31422">
        <ele>203</ele>
        <time>2022-04-17T07:05:52.000Z</time>
      </trkpt>
      <trkpt lat="43.29432" lon="2.31422">
        <ele>203</ele>
        <time>2022-04-17T07:05:53.000Z</time>
      </trkpt>
      <trkpt lat="43.29432" lon="2.31422">
        <ele>203</ele>
        <time>2022-04-17T07:05:54.000Z</time>
      </trkpt>
      <trkpt lat="43.29432" lon="2.31422">
        <ele>203.1</ele>
        <time>2022-04-17T07:05:55.000Z</time>
      </trkpt>
      <trkpt lat="43.29432" lon="2.31422">
        <ele>203.1</ele>
        <time>2022-04-17T07:05:56.000Z</time>
      </trkpt>
      <trkpt lat="43.29432" lon="2.31422">
        <ele>203.1</ele>
        <time>2022-04-17T07:05:57.000Z</time>
      </trkpt>
      <trkpt lat="43.29432" lon="2.31422">
        <ele>203.1</ele>
        <time>2022-04-17T07:05:58.000Z</time>
      </trkpt>
      <trkpt lat="43.29432" lon="2.31422">
        <ele>203.1</ele>
        <time>2022-04-17T07:05:59.000Z</time>
      </trkpt>
      <trkpt lat="43.29432" lon="2.31422">
        <ele>203.1</ele>
        <time>2022-04-17T07:06:00.000Z</time>
      </trkpt>
      <trkpt lat="43.29432" lon="2.31422">
        <ele>203</ele>
        <time>2022-04-17T07:06:01.000Z</time>
      </trkpt>
      <trkpt lat="43.29432" lon="2.31422">
        <ele>203</ele>
        <time>2022-04-17T07:06:02.000Z</time>
      </trkpt>
      <trkpt lat="43.29432" lon="2.31422">
        <ele>202.9</ele>
        <time>2022-04-17T07:06:03.000Z</time>
      </trkpt>
      <trkpt lat="43.29433" lon="2.31422">
        <ele>202.8</ele>
        <time>2022-04-17T07:06:04.000Z</time>
      </trkpt>
      <trkpt lat="43.29433" lon="2.31423">
        <ele>202.7</ele>
        <time>2022-04-17T07:06:05.000Z</time>
      </trkpt>
      <trkpt lat="43.29435" lon="2.31423">
        <ele>202.4</ele>
        <time>2022-04-17T07:06:06.000Z</time>
      </trkpt>
      <trkpt lat="43.29436" lon="2.31424">
        <ele>202.1</ele>
        <time>2022-04-17T07:06:07.000Z</time>
      </trkpt>
      <trkpt lat="43.29438" lon="2.31425">
        <ele>201.8</ele>
        <time>2022-04-17T07:06:08.000Z</time>
      </trkpt>
      <trkpt lat="43.2944" lon="2.31426">
        <ele>201.4</ele>
        <time>2022-04-17T07:06:09.000Z</time>
      </trkpt>
      <trkpt lat="43.29441" lon="2.31427">
        <ele>201</ele>
        <time>2022-04-17T07:06:10.000Z</time>
      </trkpt>
      <trkpt lat="43.29443" lon="2.31428">
        <ele>200.7</ele>
        <time>2022-04-17T07:06:11.000Z</time>
      </trkpt>
      <trkpt lat="43.29444" lon="2.31429">
        <ele>200.5</ele>
        <time>2022-04-17T07:06:12.000Z</time>
      </trkpt>
      <trkpt lat="43.29445" lon="2.3143">
        <ele>200.3</ele>
        <time>2022-04-17T07:06:13.000Z</time>
      </trkpt>
      <trkpt lat="43.29446" lon="2.3143">
        <ele>200.1</ele>
        <time>2022-04-17T07:06:14.000Z</time>
      </trkpt>
      <trkpt lat="43.29446" lon="2.31431">
        <ele>200</ele>
        <time>2022-04-17T07:06:15.000Z</time>
      </trkpt>
      <trkpt lat="43.29447" lon="2.31431">
        <ele>199.9</ele>
        <time>2022-04-17T07:06:16.000Z</time>
      </trkpt>
      <trkpt lat="43.29447" lon="2.31431">
        <ele>199.9</ele>
        <time>2022-04-17T07:06:17.000Z</time>
      </trkpt>
      <trkpt lat="43.29447" lon="2.31431">
        <ele>199.9</ele>
        <time>2022-04-17T07:06:18.000Z</time>
      </trkpt>
      <trkpt lat="43.29447" lon="2.31431">
        <ele>199.9</ele>
        <time>2022-04-17T07:06:19.000Z</time>
      </trkpt>
      <trkpt lat="43.29446" lon="2.31431">
        <ele>200</ele>
        <time>2022-04-17T07:06:20.000Z</time>
      </trkpt>
      <trkpt lat="43.29446" lon="2.31431">
        <ele>200.1</ele>
        <time>2022-04-17T07:06:21.000Z</time>
      </trkpt>
      <trkpt lat="43.29445" lon="2.3143">
        <ele>200.2</ele>
        <time>2022-04-17T07:06:22.000Z</time>
      </trkpt>
      <trkpt lat="43.29444" lon="2.3143">
        <ele>200.4</ele>
        <time>2022-04-17T07:06:23.000Z</time>
      </trkpt>
      <trkpt lat="43.29444" lon="2.31429">
        <ele>200.6</ele>
        <time>2022-04-17T07:06:24.000Z</time>
      </trkpt>
      <trkpt lat="43.29443" lon="2.31428">
        <ele>200.7</ele>
        <time>2022-04-17T07:06:25.000Z</time>
      </trkpt>
      <trkpt lat="43.29442" lon="2.31428">
        <ele>200.9</ele>
        <time>2022-04-17T07:06:26.000Z</time>
      </trkpt>
      <trkpt lat="43.29441" lon="2.31427">
        <ele>201.1</ele>
        <time>2022-04-17T07:06:27.000Z</time>
      </trkpt>
      <trkpt lat="43.2944" lon="2.31427">
        <ele>201.3</ele>
        <time>2022-04-17T07:06:28.000Z</time>
      </trkpt>
      <trkpt lat="43.29439" lon="2.31426">
        <ele>201.5</ele>
        <time>2022-04-17T07:06:29.000Z</time>
      </trkpt>
      <trkpt lat="43.29439" lon="2.31425">
        <ele>201.6</ele>
        <time>2022-04-17T07:06:30.000Z</time>
      </trkpt>
      <trkpt lat="43.29438" lon="2.31425">
        <ele>201.8</ele>
        <time>2022-04-17T07:06:31.000Z</time>
      </trkpt>
      <trkpt lat="43.29437" lon="2.31424">
        <ele>202</ele>
        <time>2022-04-17T07:06:32.000Z</time>
      </trkpt>
      <trkpt lat="43.29436" lon="2.31424">
        <ele>202.1</ele>
        <time>2022-04-17T07:06:33.000Z</time>
      </trkpt>
      <trkpt lat="43.29435" lon="2.31423">
        <ele>202.4</ele>
        <time>2022-04-17T07:06:34.000Z</time>
      </trkpt>
      <trkpt lat="43.29434" lon="2.31422">
        <ele>202.6</ele>
        <time>2022-04-17T07:06:35.000Z</time>
      </trkpt>
      <trkpt lat="43.29433" lon="2.31422">
        <ele>202.8</ele>
        <time>2022-04-17T07:06:36.000Z</time>
      </trkpt>
      <trkpt lat="43.29432" lon="2.31421">
        <ele>203</ele>
        <time>2022-04-17T07:06:37.000Z</time>
      </trkpt>
      <trkpt lat="43.2943" lon="2.31421">
        <ele>203.3</ele>
        <time>2022-04-17T07:06:38.000Z</time>
      </trkpt>
      <trkpt lat="43.29429" lon="2.3142">
        <ele>203.5</ele>
        <time>2022-04-17T07:06:39.000Z</time>
      </trkpt>
      <trkpt lat="43.29428" lon="2.3142">
        <ele>203.8</ele>
        <time>2022-04-17T07:06:40.000Z</time>
      </trkpt>
      <trkpt lat="43.29427" lon="2.3142">
        <ele>204</ele>
        <time>2022-04-17T07:06:41.000Z</time>
      </trkpt>
      <trkpt lat="43.29426" lon="2.31419">
        <ele>204.2</ele>
        <time>2022-04-17T07:06:42.000Z</time>
      </trkpt>
      <trkpt lat="43.29425" lon="2.31419">
        <ele>204.4</ele>
        <time>2022-04-17T07:06:43.000Z</time>
      </trkpt>
      <trkpt lat="43.29424" lon="2.31418">
        <ele>204.7</ele>
        <time>2022-04-17T07:06:44.000Z</time>
      </trkpt>
      <trkpt lat="43.29423" lon="2.31417">
        <ele>204.9</ele>
        <time>2022-04-17T07:06:45.000Z</time>
      </trkpt>
      <trkpt lat="43.29422" lon="2.31415">
        <ele>205</ele>
        <time>2022-04-17T07:06:46.000Z</time>
      </trkpt>
      <trkpt lat="43.29421" lon="2.31413">
        <ele>205.2</ele>
        <time>2022-04-17T07:06:47.000Z</time>
      </trkpt>
      <trkpt lat="43.2942" lon="2.3141">
        <ele>205.3</ele>
        <time>2022-04-17T07:06:48.000Z</time>
      </trkpt>
      <trkpt lat="43.2942" lon="2.31407">
        <ele>205.5</ele>
        <time>2022-04-17T07:06:49.000Z</time>
      </trkpt>
      <trkpt lat="43.29419" lon="2.31404">
        <ele>205.6</ele>
        <time>2022-04-17T07:06:50.000Z</time>
      </trkpt>
      <trkpt lat="43.29418" lon="2.314">
        <ele>205.8</ele>
        <time>2022-04-17T07:06:51.000Z</time>
      </trkpt>
      <trkpt lat="43.29417" lon="2.31397">
        <ele>205.9</ele>
        <time>2022-04-17T07:06:52.000Z</time>
      </trkpt>
      <trkpt lat="43.29416" lon="2.31393">
        <ele>206</ele>
        <time>2022-04-17T07:06:53.000Z</time>
      </trkpt>
      <trkpt lat="43.29415" lon="2.3139">
        <ele>206</ele>
        <time>2022-04-17T07:06:54.000Z</time>
      </trkpt>
      <trkpt lat="43.29414" lon="2.31387">
        <ele>206</ele>
        <time>2022-04-17T07:06:55.000Z</time>
      </trkpt>
      <trkpt lat="43.29413" lon="2.31383">
        <ele>206</ele>
        <time>2022-04-17T07:06:56.000Z</time>
      </trkpt>
      <trkpt lat="43.29413" lon="2.3138">
        <ele>206</ele>
        <time>2022-04-17T07:06:57.000Z</time>
      </trkpt>
      <trkpt lat="43.29413" lon="2.31376">
        <ele>206</ele>
        <time>2022-04-17T07:06:58.000Z</time>
      </trkpt>
      <trkpt lat="43.29414" lon="2.31372">
        <ele>206</ele>
        <time>2022-04-17T07:06:59.000Z</time>
      </trkpt>
      <trkpt lat="43.29416" lon="2.31368">
        <ele>206</ele>
        <time>2022-04-17T07:07:00.000Z</time>
      </trkpt>
      <trkpt lat="43.29417" lon="2.31364">
        <ele>205.9</ele>
        <time>2022-04-17T07:07:01.000Z</time>
      </trkpt>
      <trkpt lat="43.2942" lon="2.31361">
        <ele>205.6</ele>
        <time>2022-04-17T07:07:02.000Z</time>
      </trkpt>
      <trkpt lat="43.29422" lon="2.31357">
        <ele>205.3</ele>
        <time>2022-04-17T07:07:03.000Z</time>
      </trkpt>
      <trkpt lat="43.29425" lon="2.31354">
        <ele>205</ele>
        <time>2022-04-17T07:07:04.000Z</time>
      </trkpt>
      <trkpt lat="43.29428" lon="2.31351">
        <ele>204.6</ele>
        <time>2022-04-17T07:07:05.000Z</time>
      </trkpt>
      <trkpt lat="43.2943" lon="2.31348">
        <ele>204.3</ele>
        <time>2022-04-17T07:07:06.000Z</time>
      </trkpt>
      <trkpt lat="43.29433" lon="2.31345">
        <ele>204.1</ele>
        <time>2022-04-17T07:07:07.000Z</time>
      </trkpt>
      <trkpt lat="43.29435" lon="2.31342">
        <ele>203.8</ele>
        <time>2022-04-17T07:07:08.000Z</time>
      </trkpt>
      <trkpt lat="43.29438" lon="2.3134">
        <ele>203.6</ele>
        <time>2022-04-17T07:07:09.000Z</time>
      </trkpt>
      <trkpt lat="43.2944" lon="2.31337">
        <ele>203.3</ele>
        <time>2022-04-17T07:07:10.000Z</time>
      </trkpt>
      <trkpt lat="43.29443" lon="2.31335">
        <ele>203.1</ele>
        <time>2022-04-17T07:07:11.000Z</time>
      </trkpt>
      <trkpt lat="43.29445" lon="2.31333">
        <ele>203</ele>
        <time>2022-04-17T07:07:12.000Z</time>
      </trkpt>
      <trkpt lat="43.29447" lon="2.3133">
        <ele>202.8</ele>
        <time>2022-04-17T07:07:13.000Z</time>
      </trkpt>
      <trkpt lat="43.29449" lon="2.31328">
        <ele>202.7</ele>
        <time>2022-04-17T07:07:14.000Z</time>
      </trkpt>
      <trkpt lat="43.29451" lon="2.31325">
        <ele>202.6</ele>
        <time>2022-04-17T07:07:15.000Z</time>
      </trkpt>
      <trkpt lat="43.29453" lon="2.31323">
        <ele>202.5</ele>
        <time>2022-04-17T07:07:16.000Z</time>
      </trkpt>
      <trkpt lat="43.29455" lon="2.3132">
        <ele>202.4</ele>
        <time>2022-04-17T07:07:17.000Z</time>
      </trkpt>
      <trkpt lat="43.29457" lon="2.31318">
        <ele>202.3</ele>
        <time>2022-04-17T07:07:18.000Z</time>
      </trkpt>
      <trkpt lat="43.29459" lon="2.31315">
        <ele>202.2</ele>
        <time>2022-04-17T07:07:19.000Z</time>
      </trkpt>
      <trkpt lat="43.29461" lon="2.31313">
        <ele>202.1</ele>
        <time>2022-04-17T07:07:20.000Z</time>
      </trkpt>
      <trkpt lat="43.29463" lon="2.31311">
        <ele>202</ele>
        <time>2022-04-17T07:07:21.000Z</time>
      </trkpt>
      <trkpt lat="43.29465" lon="2.31309">
        <ele>201.8</ele>
        <time>2022-04-17T07:07:22.000Z</time>
      </trkpt>
      <trkpt lat="43.29468" lon="2.31307">
        <ele>201.7</ele>
        <time>2022-04-17T07:07:23.000Z</time>
      </trkpt>
      <trkpt lat="43.2947" lon="2.31305">
        <ele>201.6</ele>
        <time>2022-04-17T07:07:24.000Z</time>
      </trkpt>
      <trkpt lat="43.29472" lon="2.31303">
        <ele>201.5</ele>
        <time>2022-04-17T07:07:25.000Z</time>
      </trkpt>
      <trkpt lat="43.29474" lon="2.31301">
        <ele>201.4</ele>
        <time>2022-04-17T07:07:26.000Z</time>
      </trkpt>
      <trkpt lat="43.29476" lon="2.31299">
        <ele>201.3</ele>
        <time>2022-04-17T07:07:27.000Z</time>
      </trkpt>
      <trkpt lat="43.29478" lon="2.31297">
        <ele>201.2</ele>
        <time>2022-04-17T07:07:28.000Z</time>
      </trkpt>
      <trkpt lat="43.2948" lon="2.31295">
        <ele>201.2</ele>
        <time>2022-04-17T07:07:29.000Z</time>
      </trkpt>
      <trkpt lat="43.29482" lon="2.31293">
        <ele>201.1</ele>
        <time>2022-04-17T07:07:30.000Z</time>
      </trkpt>
      <trkpt lat="43.29484" lon="2.31291">
        <ele>201</ele>
        <time>2022-04-17T07:07:31.000Z</time>
      </trkpt>
      <trkpt lat="43.29486" lon="2.31289">
        <ele>200.9</ele>
        <time>2022-04-17T07:07:32.000Z</time>
      </trkpt>
      <trkpt lat="43.29488" lon="2.31287">
        <ele>200.8</ele>
        <time>2022-04-17T07:07:33.000Z</time>
      </trkpt>
      <trkpt lat="43.29491" lon="2.31285">
        <ele>200.7</ele>
        <time>2022-04-17T07:07:34.000Z</time>
      </trkpt>
      <trkpt lat="43.29492" lon="2.31285">
        <ele>200.6</ele>
        <time>2022-04-17T07:07:35.000Z</time>
      </trkpt>
      <trkpt lat="43.29493" lon="2.31286">
        <ele>200.5</ele>
        <time>2022-04-17T07:07:36.000Z</time>
      </trkpt>
      <trkpt lat="43.29493" lon="2.31288">
        <ele>200.4</ele>
        <time>2022-04-17T07:07:37.000Z</time>
      </trkpt>
      <trkpt lat="43.29492" lon="2.31291">
        <ele>200.3</ele>
        <time>2022-04-17T07:07:38.000Z</time>
      </trkpt>
      <trkpt lat="43.2949" lon="2.31292">
        <ele>200.4</ele>
        <time>2022-04-17T07:07:39.000Z</time>
      </trkpt>
      <trkpt lat="43.29488" lon="2.31293">
        <ele>200.5</ele>
        <time>2022-04-17T07:07:40.000Z</time>
      </trkpt>
      <trkpt lat="43.29486" lon="2.31293">
        <ele>200.7</ele>
        <time>2022-04-17T07:07:41.000Z</time>
      </trkpt>
      <trkpt lat="43.29484" lon="2.31294">
        <ele>200.8</ele>
        <time>2022-04-17T07:07:42.000Z</time>
      </trkpt>
      <trkpt lat="43.29482" lon="2.31294">
        <ele>201</ele>
        <time>2022-04-17T07:07:43.000Z</time>
      </trkpt>
      <trkpt lat="43.2948" lon="2.31295">
        <ele>201.1</ele>
        <time>2022-04-17T07:07:44.000Z</time>
      </trkpt>
      <trkpt lat="43.29479" lon="2.31296">
        <ele>201.2</ele>
        <time>2022-04-17T07:07:45.000Z</time>
      </trkpt>
      <trkpt lat="43.29477" lon="2.31297">
        <ele>201.3</ele>
        <time>2022-04-17T07:07:46.000Z</time>
      </trkpt>
      <trkpt lat="43.29476" lon="2.31297">
        <ele>201.4</ele>
        <time>2022-04-17T07:07:47.000Z</time>
      </trkpt>
      <trkpt lat="43.29475" lon="2.31298">
        <ele>201.5</ele>
        <time>2022-04-17T07:07:48.000Z</time>
      </trkpt>
      <trkpt lat="43.29473" lon="2.313">
        <ele>201.5</ele>
        <time>2022-04-17T07:07:49.000Z</time>
      </trkpt>
      <trkpt lat="43.29472" lon="2.31301">
        <ele>201.6</ele>
        <time>2022-04-17T07:07:50.000Z</time>
      </trkpt>
      <trkpt lat="43.29471" lon="2.31302">
        <ele>201.6</ele>
        <time>2022-04-17T07:07:51.000Z</time>
      </trkpt>
      <trkpt lat="43.29469" lon="2.31303">
        <ele>201.7</ele>
        <time>2022-04-17T07:07:52.000Z</time>
      </trkpt>
      <trkpt lat="43.29468" lon="2.31305">
        <ele>201.7</ele>
        <time>2022-04-17T07:07:53.000Z</time>
      </trkpt>
      <trkpt lat="43.29467" lon="2.31307">
        <ele>201.8</ele>
        <time>2022-04-17T07:07:54.000Z</time>
      </trkpt>
      <trkpt lat="43.29466" lon="2.31308">
        <ele>201.8</ele>
        <time>2022-04-17T07:07:55.000Z</time>
      </trkpt>
      <trkpt lat="43.29464" lon="2.3131">
        <ele>201.9</ele>
        <time>2022-04-17T07:07:56.000Z</time>
      </trkpt>
      <trkpt lat="43.29463" lon="2.31312">
        <ele>201.9</ele>
        <time>2022-04-17T07:07:57.000Z</time>
      </trkpt>
      <trkpt lat="43.29462" lon="2.31312">
        <ele>202</ele>
        <time>2022-04-17T07:07:58.000Z</time>
      </trkpt>
      <trkpt lat="43.29461" lon="2.31312">
        <ele>202.2</ele>
        <time>2022-04-17T07:07:59.000Z</time>
      </trkpt>
      <trkpt lat="43.2946" lon="2.3131">
        <ele>202.3</ele>
        <time>2022-04-17T07:08:00.000Z</time>
      </trkpt>
      <trkpt lat="43.2946" lon="2.31308">
        <ele>202.4</ele>
        <time>2022-04-17T07:08:01.000Z</time>
      </trkpt>
      <trkpt lat="43.2946" lon="2.31306">
        <ele>202.4</ele>
        <time>2022-04-17T07:08:02.000Z</time>
      </trkpt>
      <trkpt lat="43.29462" lon="2.31305">
        <ele>202.4</ele>
        <time>2022-04-17T07:08:03.000Z</time>
      </trkpt>
      <trkpt lat="43.29464" lon="2.31303">
        <ele>202.3</ele>
        <time>2022-04-17T07:08:04.000Z</time>
      </trkpt>
      <trkpt lat="43.29466" lon="2.31302">
        <ele>202.1</ele>
        <time>2022-04-17T07:08:05.000Z</time>
      </trkpt>
      <trkpt lat="43.29468" lon="2.313">
        <ele>202</ele>
        <time>2022-04-17T07:08:06.000Z</time>
      </trkpt>
      <trkpt lat="43.2947" lon="2.31298">
        <ele>201.9</ele>
        <time>2022-04-17T07:08:07.000Z</time>
      </trkpt>
      <trkpt lat="43.29472" lon="2.31296">
        <ele>201.8</ele>
        <time>2022-04-17T07:08:08.000Z</time>
      </trkpt>
      <trkpt lat="43.29473" lon="2.31294">
        <ele>201.8</ele>
        <time>2022-04-17T07:08:09.000Z</time>
      </trkpt>
      <trkpt lat="43.29475" lon="2.31291">
        <ele>201.8</ele>
        <time>2022-04-17T07:08:10.000Z</time>
      </trkpt>
      <trkpt lat="43.29476" lon="2.31289">
        <ele>201.8</ele>
        <time>2022-04-17T07:08:11.000Z</time>
      </trkpt>
      <trkpt lat="43.29477" lon="2.31286">
        <ele>201.8</ele>
        <time>2022-04-17T07:08:12.000Z</time>
      </trkpt>
      <trkpt lat="43.29478" lon="2.31283">
        <ele>201.9</ele>
        <time>2022-04-17T07:08:13.000Z</time>
      </trkpt>
      <trkpt lat="43.29479" lon="2.3128">
        <ele>202</ele>
        <time>2022-04-17T07:08:14.000Z</time>
      </trkpt>
      <trkpt lat="43.29479" lon="2.31277">
        <ele>202.1</ele>
        <time>2022-04-17T07:08:15.000Z</time>
      </trkpt>
      <trkpt lat="43.2948" lon="2.31274">
        <ele>202.2</ele>
        <time>2022-04-17T07:08:16.000Z</time>
      </trkpt>
      <trkpt lat="43.2948" lon="2.31271">
        <ele>202.4</ele>
        <time>2022-04-17T07:08:17.000Z</time>
      </trkpt>
      <trkpt lat="43.2948" lon="2.31269">
        <ele>202.5</ele>
        <time>2022-04-17T07:08:18.000Z</time>
      </trkpt>
      <trkpt lat="43.29479" lon="2.31266">
        <ele>202.7</ele>
        <time>2022-04-17T07:08:19.000Z</time>
      </trkpt>
      <trkpt lat="43.29479" lon="2.31263">
        <ele>202.8</ele>
        <time>2022-04-17T07:08:20.000Z</time>
      </trkpt>
      <trkpt lat="43.29479" lon="2.31261">
        <ele>203</ele>
        <time>2022-04-17T07:08:21.000Z</time>
      </trkpt>
      <trkpt lat="43.29478" lon="2.31258">
        <ele>203.2</ele>
        <time>2022-04-17T07:08:22.000Z</time>
      </trkpt>
      <trkpt lat="43.29477" lon="2.31256">
        <ele>203.4</ele>
        <time>2022-04-17T07:08:23.000Z</time>
      </trkpt>
      <trkpt lat="43.29477" lon="2.31253">
        <ele>203.5</ele>
        <time>2022-04-17T07:08:24.000Z</time>
      </trkpt>
      <trkpt lat="43.29476" lon="2.31251">
        <ele>203.7</ele>
        <time>2022-04-17T07:08:25.000Z</time>
      </trkpt>
      <trkpt lat="43.29475" lon="2.31248">
        <ele>203.9</ele>
        <time>2022-04-17T07:08:26.000Z</time>
      </trkpt>
      <trkpt lat="43.29474" lon="2.31246">
        <ele>204.1</ele>
        <time>2022-04-17T07:08:27.000Z</time>
      </trkpt>
      <trkpt lat="43.29473" lon="2.31244">
        <ele>204.3</ele>
        <time>2022-04-17T07:08:28.000Z</time>
      </trkpt>
      <trkpt lat="43.29473" lon="2.31242">
        <ele>204.5</ele>
        <time>2022-04-17T07:08:29.000Z</time>
      </trkpt>
      <trkpt lat="43.29472" lon="2.3124">
        <ele>204.7</ele>
        <time>2022-04-17T07:08:30.000Z</time>
      </trkpt>
      <trkpt lat="43.29471" lon="2.31238">
        <ele>204.9</ele>
        <time>2022-04-17T07:08:31.000Z</time>
      </trkpt>
      <trkpt lat="43.2947" lon="2.31236">
        <ele>205.1</ele>
        <time>2022-04-17T07:08:32.000Z</time>
      </trkpt>
      <trkpt lat="43.29469" lon="2.31234">
        <ele>205.2</ele>
        <time>2022-04-17T07:08:33.000Z</time>
      </trkpt>
      <trkpt lat="43.29469" lon="2.31232">
        <ele>205.4</ele>
        <time>2022-04-17T07:08:34.000Z</time>
      </trkpt>
      <trkpt lat="43.29468" lon="2.3123">
        <ele>205.6</ele>
        <time>2022-04-17T07:08:35.000Z</time>
      </trkpt>
      <trkpt lat="43.29467" lon="2.31228">
        <ele>205.8</ele>
        <time>2022-04-17T07:08:36.000Z</time>
      </trkpt>
      <trkpt lat="43.29467" lon="2.31226">
        <ele>206</ele>
        <time>2022-04-17T07:08:37.000Z</time>
      </trkpt>
      <trkpt lat="43.29466" lon="2.31223">
        <ele>206.2</ele>
        <time>2022-04-17T07:08:38.000Z</time>
      </trkpt>
      <trkpt lat="43.29465" lon="2.31221">
        <ele>206.4</ele>
        <time>2022-04-17T07:08:39.000Z</time>
      </trkpt>
      <trkpt lat="43.29465" lon="2.31218">
        <ele>206.6</ele>
        <time>2022-04-17T07:08:40.000Z</time>
      </trkpt>
      <trkpt lat="43.29464" lon="2.31215">
        <ele>206.9</ele>
        <time>2022-04-17T07:08:41.000Z</time>
      </trkpt>
      <trkpt lat="43.29464" lon="2.31212">
        <ele>207.1</ele>
        <time>2022-04-17T07:08:42.000Z</time>
      </trkpt>
      <trkpt lat="43.29463" lon="2.31208">
        <ele>207.4</ele>
        <time>2022-04-17T07:08:43.000Z</time>
      </trkpt>
      <trkpt lat="43.29462" lon="2.31205">
        <ele>207.6</ele>
        <time>2022-04-17T07:08:44.000Z</time>
      </trkpt>
      <trkpt lat="43.29461" lon="2.31202">
        <ele>207.9</ele>
        <time>2022-04-17T07:08:45.000Z</time>
      </trkpt>
      <trkpt lat="43.2946" lon="2.31199">
        <ele>208.2</ele>
        <time>2022-04-17T07:08:46.000Z</time>
      </trkpt>
      <trkpt lat="43.29459" lon="2.31196">
        <ele>208.5</ele>
        <time>2022-04-17T07:08:47.000Z</time>
      </trkpt>
      <trkpt lat="43.29458" lon="2.31193">
        <ele>208.8</ele>
        <time>2022-04-17T07:08:48.000Z</time>
      </trkpt>
      <trkpt lat="43.29457" lon="2.3119">
        <ele>209.1</ele>
        <time>2022-04-17T07:08:49.000Z</time>
      </trkpt>
      <trkpt lat="43.29455" lon="2.31187">
        <ele>209.4</ele>
        <time>2022-04-17T07:08:50.000Z</time>
      </trkpt>
      <trkpt lat="43.29454" lon="2.31185">
        <ele>209.7</ele>
        <time>2022-04-17T07:08:51.000Z</time>
      </trkpt>
      <trkpt lat="43.29453" lon="2.31182">
        <ele>209.9</ele>
        <time>2022-04-17T07:08:52.000Z</time>
      </trkpt>
      <trkpt lat="43.29452" lon="2.3118">
        <ele>210.1</ele>
        <time>2022-04-17T07:08:53.000Z</time>
      </trkpt>
      <trkpt lat="43.29451" lon="2.31178">
        <ele>210.3</ele>
        <time>2022-04-17T07:08:54.000Z</time>
      </trkpt>
      <trkpt lat="43.2945" lon="2.31176">
        <ele>210.6</ele>
        <time>2022-04-17T07:08:55.000Z</time>
      </trkpt>
      <trkpt lat="43.29449" lon="2.31175">
        <ele>210.8</ele>
        <time>2022-04-17T07:08:56.000Z</time>
      </trkpt>
      <trkpt lat="43.29448" lon="2.31173">
        <ele>211</ele>
        <time>2022-04-17T07:08:57.000Z</time>
      </trkpt>
      <trkpt lat="43.29447" lon="2.31171">
        <ele>211.2</ele>
        <time>2022-04-17T07:08:58.000Z</time>
      </trkpt>
      <trkpt lat="43.29446" lon="2.31169">
        <ele>211.4</ele>
        <time>2022-04-17T07:08:59.000Z</time>
      </trkpt>
      <trkpt lat="43.29445" lon="2.31168">
        <ele>211.6</ele>
        <time>2022-04-17T07:09:00.000Z</time>
      </trkpt>
      <trkpt lat="43.29444" lon="2.31166">
        <ele>211.8</ele>
        <time>2022-04-17T07:09:01.000Z</time>
      </trkpt>
      <trkpt lat="43.29443" lon="2.31164">
        <ele>212.1</ele>
        <time>2022-04-17T07:09:02.000Z</time>
      </trkpt>
      <trkpt lat="43.29442" lon="2.31162">
        <ele>212.4</ele>
        <time>2022-04-17T07:09:03.000Z</time>
      </trkpt>
      <trkpt lat="43.29441" lon="2.3116">
        <ele>212.7</ele>
        <time>2022-04-17T07:09:04.000Z</time>
      </trkpt>
      <trkpt lat="43.2944" lon="2.31158">
        <ele>213</ele>
        <time>2022-04-17T07:09:05.000Z</time>
      </trkpt>
      <trkpt lat="43.29439" lon="2.31156">
        <ele>213.3</ele>
        <time>2022-04-17T07:09:06.000Z</time>
      </trkpt>
      <trkpt lat="43.29438" lon="2.31154">
        <ele>213.6</ele>
        <time>2022-04-17T07:09:07.000Z</time>
      </trkpt>
      <trkpt lat="43.29437" lon="2.31152">
        <ele>213.9</ele>
        <time>2022-04-17T07:09:08.000Z</time>
      </trkpt>
      <trkpt lat="43.29437" lon="2.31149">
        <ele>214.2</ele>
        <time>2022-04-17T07:09:09.000Z</time>
      </trkpt>
      <trkpt lat="43.29436" lon="2.31147">
        <ele>214.5</ele>
        <time>2022-04-17T07:09:10.000Z</time>
      </trkpt>
      <trkpt lat="43.29435" lon="2.31145">
        <ele>214.8</ele>
        <time>2022-04-17T07:09:11.000Z</time>
      </trkpt>
      <trkpt lat="43.29434" lon="2.31142">
        <ele>215.2</ele>
        <time>2022-04-17T07:09:12.000Z</time>
      </trkpt>
      <trkpt lat="43.29434" lon="2.3114">
        <ele>215.5</ele>
        <time>2022-04-17T07:09:13.000Z</time>
      </trkpt>
      <trkpt lat="43.29433" lon="2.31137">
        <ele>215.8</ele>
        <time>2022-04-17T07:09:14.000Z</time>
      </trkpt>
      <trkpt lat="43.29432" lon="2.31135">
        <ele>216.1</ele>
        <time>2022-04-17T07:09:15.000Z</time>
      </trkpt>
      <trkpt lat="43.29432" lon="2.31133">
        <ele>216.4</ele>
        <time>2022-04-17T07:09:16.000Z</time>
      </trkpt>
      <trkpt lat="43.29431" lon="2.31131">
        <ele>216.7</ele>
        <time>2022-04-17T07:09:17.000Z</time>
      </trkpt>
      <trkpt lat="43.2943" lon="2.31129">
        <ele>216.9</ele>
        <time>2022-04-17T07:09:18.000Z</time>
      </trkpt>
      <trkpt lat="43.2943" lon="2.31128">
        <ele>217.1</ele>
        <time>2022-04-17T07:09:19.000Z</time>
      </trkpt>
      <trkpt lat="43.29429" lon="2.31126">
        <ele>217.4</ele>
        <time>2022-04-17T07:09:20.000Z</time>
      </trkpt>
      <trkpt lat="43.29429" lon="2.31125">
        <ele>217.5</ele>
        <time>2022-04-17T07:09:21.000Z</time>
      </trkpt>
      <trkpt lat="43.29428" lon="2.31124">
        <ele>217.7</ele>
        <time>2022-04-17T07:09:22.000Z</time>
      </trkpt>
      <trkpt lat="43.29428" lon="2.31123">
        <ele>217.8</ele>
        <time>2022-04-17T07:09:23.000Z</time>
      </trkpt>
      <trkpt lat="43.29428" lon="2.31122">
        <ele>217.9</ele>
        <time>2022-04-17T07:09:24.000Z</time>
      </trkpt>
      <trkpt lat="43.29428" lon="2.31122">
        <ele>218</ele>
        <time>2022-04-17T07:09:25.000Z</time>
      </trkpt>
      <trkpt lat="43.29428" lon="2.31121">
        <ele>218</ele>
        <time>2022-04-17T07:09:26.000Z</time>
      </trkpt>
      <trkpt lat="43.29428" lon="2.3112">
        <ele>218.1</ele>
        <time>2022-04-17T07:09:27.000Z</time>
      </trkpt>
      <trkpt lat="43.29428" lon="2.31119">
        <ele>218.2</ele>
        <time>2022-04-17T07:09:28.000Z</time>
      </trkpt>
      <trkpt lat="43.29428" lon="2.31118">
        <ele>218.4</ele>
        <time>2022-04-17T07:09:29.000Z</time>
      </trkpt>
      <trkpt lat="43.29428" lon="2.31116">
        <ele>218.5</ele>
        <time>2022-04-17T07:09:30.000Z</time>
      </trkpt>
      <trkpt lat="43.29428" lon="2.31115">
        <ele>218.6</ele>
        <time>2022-04-17T07:09:31.000Z</time>
      </trkpt>
      <trkpt lat="43.29428" lon="2.31114">
        <ele>218.7</ele>
        <time>2022-04-17T07:09:32.000Z</time>
      </trkpt>
      <trkpt lat="43.29429" lon="2.31113">
        <ele>218.8</ele>
        <time>2022-04-17T07:09:33.000Z</time>
      </trkpt>
      <trkpt lat="43.29429" lon="2.31112">
        <ele>218.9</ele>
        <time>2022-04-17T07:09:34.000Z</time>
      </trkpt>
      <trkpt lat="43.2943" lon="2.31111">
        <ele>218.9</ele>
        <time>2022-04-17T07:09:35.000Z</time>
      </trkpt>
      <trkpt lat="43.29431" lon="2.31111">
        <ele>218.8</ele>
        <time>2022-04-17T07:09:36.000Z</time>
      </trkpt>
      <trkpt lat="43.29432" lon="2.31111">
        <ele>218.8</ele>
        <time>2022-04-17T07:09:37.000Z</time>
      </trkpt>
      <trkpt lat="43.29432" lon="2.31111">
        <ele>218.7</ele>
        <time>2022-04-17T07:09:38.000Z</time>
      </trkpt>
      <trkpt lat="43.29433" lon="2.31111">
        <ele>218.6</ele>
        <time>2022-04-17T07:09:39.000Z</time>
      </trkpt>
      <trkpt lat="43.29434" lon="2.31111">
        <ele>218.5</ele>
        <time>2022-04-17T07:09:40.000Z</time>
      </trkpt>
      <trkpt lat="43.29435" lon="2.31111">
        <ele>218.4</ele>
        <time>2022-04-17T07:09:41.000Z</time>
      </trkpt>
      <trkpt lat="43.29436" lon="2.31112">
        <ele>218.3</ele>
        <time>2022-04-17T07:09:42.000Z</time>
      </trkpt>
      <trkpt lat="43.29438" lon="2.31112">
        <ele>218.2</ele>
        <time>2022-04-17T07:09:43.000Z</time>
      </trkpt>
      <trkpt lat="43.29439" lon="2.31112">
        <ele>218.1</ele>
        <time>2022-04-17T07:09:44.000Z</time>
      </trkpt>
      <trkpt lat="43.29441" lon="2.31111">
        <ele>217.9</ele>
        <time>2022-04-17T07:09:45.000Z</time>
      </trkpt>
      <trkpt lat="43.29443" lon="2.31111">
        <ele>217.8</ele>
        <time>2022-04-17T07:09:46.000Z</time>
      </trkpt>
      <trkpt lat="43.29445" lon="2.31111">
        <ele>217.7</ele>
        <time>2022-04-17T07:09:47.000Z</time>
      </trkpt>
      <trkpt lat="43.29447" lon="2.3111">
        <ele>217.5</ele>
        <time>2022-04-17T07:09:48.000Z</time>
      </trkpt>
      <trkpt lat="43.2945" lon="2.31109">
        <ele>217.4</ele>
        <time>2022-04-17T07:09:49.000Z</time>
      </trkpt>
      <trkpt lat="43.29452" lon="2.31108">
        <ele>217.3</ele>
        <time>2022-04-17T07:09:50.000Z</time>
      </trkpt>
      <trkpt lat="43.29455" lon="2.31108">
        <ele>217.2</ele>
        <time>2022-04-17T07:09:51.000Z</time>
      </trkpt>
      <trkpt lat="43.29457" lon="2.31107">
        <ele>217.1</ele>
        <time>2022-04-17T07:09:52.000Z</time>
      </trkpt>
      <trkpt lat="43.29459" lon="2.31106">
        <ele>217</ele>
        <time>2022-04-17T07:09:53.000Z</time>
      </trkpt>
      <trkpt lat="43.29462" lon="2.31106">
        <ele>216.8</ele>
        <time>2022-04-17T07:09:54.000Z</time>
      </trkpt>
      <trkpt lat="43.29464" lon="2.31105">
        <ele>216.7</ele>
        <time>2022-04-17T07:09:55.000Z</time>
      </trkpt>
      <trkpt lat="43.29466" lon="2.31105">
        <ele>216.5</ele>
        <time>2022-04-17T07:09:56.000Z</time>
      </trkpt>
      <trkpt lat="43.29468" lon="2.31104">
        <ele>216.5</ele>
        <time>2022-04-17T07:09:57.000Z</time>
      </trkpt>
      <trkpt lat="43.29469" lon="2.31103">
        <ele>216.4</ele>
        <time>2022-04-17T07:09:58.000Z</time>
      </trkpt>
      <trkpt lat="43.2947" lon="2.31102">
        <ele>216.5</ele>
        <time>2022-04-17T07:09:59.000Z</time>
      </trkpt>
      <trkpt lat="43.29471" lon="2.311">
        <ele>216.6</ele>
        <time>2022-04-17T07:10:00.000Z</time>
      </trkpt>
      <trkpt lat="43.29471" lon="2.31098">
        <ele>216.9</ele>
        <time>2022-04-17T07:10:01.000Z</time>
      </trkpt>
      <trkpt lat="43.2947" lon="2.31097">
        <ele>217</ele>
        <time>2022-04-17T07:10:02.000Z</time>
      </trkpt>
      <trkpt lat="43.2947" lon="2.31096">
        <ele>217.2</ele>
        <time>2022-04-17T07:10:03.000Z</time>
      </trkpt>
      <trkpt lat="43.2947" lon="2.31095">
        <ele>217.4</ele>
        <time>2022-04-17T07:10:04.000Z</time>
      </trkpt>
      <trkpt lat="43.29469" lon="2.31094">
        <ele>217.5</ele>
        <time>2022-04-17T07:10:05.000Z</time>
      </trkpt>
      <trkpt lat="43.29469" lon="2.31093">
        <ele>217.6</ele>
        <time>2022-04-17T07:10:06.000Z</time>
      </trkpt>
      <trkpt lat="43.29468" lon="2.31093">
        <ele>217.7</ele>
        <time>2022-04-17T07:10:07.000Z</time>
      </trkpt>
      <trkpt lat="43.29467" lon="2.31092">
        <ele>217.8</ele>
        <time>2022-04-17T07:10:08.000Z</time>
      </trkpt>
      <trkpt lat="43.29467" lon="2.31092">
        <ele>217.9</ele>
        <time>2022-04-17T07:10:09.000Z</time>
      </trkpt>
      <trkpt lat="43.29466" lon="2.31091">
        <ele>218.1</ele>
        <time>2022-04-17T07:10:10.000Z</time>
      </trkpt>
      <trkpt lat="43.29465" lon="2.3109">
        <ele>218.2</ele>
        <time>2022-04-17T07:10:11.000Z</time>
      </trkpt>
      <trkpt lat="43.29464" lon="2.31089">
        <ele>218.4</ele>
        <time>2022-04-17T07:10:12.000Z</time>
      </trkpt>
      <trkpt lat="43.29463" lon="2.31088">
        <ele>218.6</ele>
        <time>2022-04-17T07:10:13.000Z</time>
      </trkpt>
      <trkpt lat="43.29462" lon="2.31087">
        <ele>218.8</ele>
        <time>2022-04-17T07:10:14.000Z</time>
      </trkpt>
      <trkpt lat="43.29461" lon="2.31086">
        <ele>219</ele>
        <time>2022-04-17T07:10:15.000Z</time>
      </trkpt>
      <trkpt lat="43.2946" lon="2.31085">
        <ele>219.2</ele>
        <time>2022-04-17T07:10:16.000Z</time>
      </trkpt>
      <trkpt lat="43.29459" lon="2.31084">
        <ele>219.3</ele>
        <time>2022-04-17T07:10:17.000Z</time>
      </trkpt>
      <trkpt lat="43.29458" lon="2.31084">
        <ele>219.5</ele>
        <time>2022-04-17T07:10:18.000Z</time>
      </trkpt>
      <trkpt lat="43.29458" lon="2.31083">
        <ele>219.6</ele>
        <time>2022-04-17T07:10:19.000Z</time>
      </trkpt>
      <trkpt lat="43.29457" lon="2.31082">
        <ele>219.7</ele>
        <time>2022-04-17T07:10:20.000Z</time>
      </trkpt>
      <trkpt lat="43.29456" lon="2.31082">
        <ele>219.7</ele>
        <time>2022-04-17T07:10:21.000Z</time>
      </trkpt>
      <trkpt lat="43.29456" lon="2.31081">
        <ele>219.8</ele>
        <time>2022-04-17T07:10:22.000Z</time>
      </trkpt>
      <trkpt lat="43.29456" lon="2.31081">
        <ele>219.8</ele>
        <time>2022-04-17T07:10:23.000Z</time>
      </trkpt>
      <trkpt lat="43.29456" lon="2.31081">
        <ele>219.9</ele>
        <time>2022-04-17T07:10:24.000Z</time>
      </trkpt>
      <trkpt lat="43.29456" lon="2.31081">
        <ele>219.9</ele>
        <time>2022-04-17T07:10:25.000Z</time>
      </trkpt>
      <trkpt lat="43.29455" lon="2.3108">
        <ele>219.9</ele>
        <time>2022-04-17T07:10:26.000Z</time>
      </trkpt>
      <trkpt lat="43.29455" lon="2.3108">
        <ele>219.9</ele>
        <time>2022-04-17T07:10:27.000Z</time>
      </trkpt>
      <trkpt lat="43.29455" lon="2.3108">
        <ele>219.9</ele>
        <time>2022-04-17T07:10:28.000Z</time>
      </trkpt>
      <trkpt lat="43.29455" lon="2.3108">
        <ele>220</ele>
        <time>2022-04-17T07:10:29.000Z</time>
      </trkpt>
      <trkpt lat="43.29455" lon="2.31079">
        <ele>220</ele>
        <time>2022-04-17T07:10:30.000Z</time>
      </trkpt>
      <trkpt lat="43.29454" lon="2.31079">
        <ele>220.1</ele>
        <time>2022-04-17T07:10:31.000Z</time>
      </trkpt>
      <trkpt lat="43.29454" lon="2.31078">
        <ele>220.1</ele>
        <time>2022-04-17T07:10:32.000Z</time>
      </trkpt>
      <trkpt lat="43.29453" lon="2.31078">
        <ele>220.2</ele>
        <time>2022-04-17T07:10:33.000Z</time>
      </trkpt>
      <trkpt lat="43.29453" lon="2.31077">
        <ele>220.3</ele>
        <time>2022-04-17T07:10:34.000Z</time>
      </trkpt>
      <trkpt lat="43.29453" lon="2.31076">
        <ele>220.3</ele>
        <time>2022-04-17T07:10:35.000Z</time>
      </trkpt>
      <trkpt lat="43.29452" lon="2.31076">
        <ele>220.4</ele>
        <time>2022-04-17T07:10:36.000Z</time>
      </trkpt>
      <trkpt lat="43.29452" lon="2.31076">
        <ele>220.4</ele>
        <time>2022-04-17T07:10:37.000Z</time>
      </trkpt>
      <trkpt lat="43.29452" lon="2.31076">
        <ele>220.4</ele>
        <time>2022-04-17T07:10:38.000Z</time>
      </trkpt>
      <trkpt lat="43.29452" lon="2.31076">
        <ele>220.4</ele>
        <time>2022-04-17T07:10:39.000Z</time>
      </trkpt>
      <trkpt lat="43.29452" lon="2.31077">
        <ele>220.3</ele>
        <time>2022-04-17T07:10:40.000Z</time>
      </trkpt>
      <trkpt lat="43.29453" lon="2.31077">
        <ele>220.3</ele>
        <time>2022-04-17T07:10:41.000Z</time>
      </trkpt>
      <trkpt lat="43.29453" lon="2.31077">
        <ele>220.3</ele>
        <time>2022-04-17T07:10:42.000Z</time>
      </trkpt>
      <trkpt lat="43.29453" lon="2.31077">
        <ele>220.2</ele>
        <time>2022-04-17T07:10:43.000Z</time>
      </trkpt>
      <trkpt lat="43.29454" lon="2.31078">
        <ele>220.1</ele>
        <time>2022-04-17T07:10:44.000Z</time>
      </trkpt>
      <trkpt lat="43.29455" lon="2.31078">
        <ele>220.1</ele>
        <time>2022-04-17T07:10:45.000Z</time>
      </trkpt>
      <trkpt lat="43.29455" lon="2.31079">
        <ele>220</ele>
        <time>2022-04-17T07:10:46.000Z</time>
      </trkpt>
      <trkpt lat="43.29456" lon="2.31079">
        <ele>219.9</ele>
        <time>2022-04-17T07:10:47.000Z</time>
      </trkpt>
      <trkpt lat="43.29457" lon="2.3108">
        <ele>219.8</ele>
        <time>2022-04-17T07:10:48.000Z</time>
      </trkpt>
      <trkpt lat="43.29458" lon="2.31081">
        <ele>219.6</ele>
        <time>2022-04-17T07:10:49.000Z</time>
      </trkpt>
      <trkpt lat="43.29459" lon="2.31082">
        <ele>219.5</ele>
        <time>2022-04-17T07:10:50.000Z</time>
      </trkpt>
      <trkpt lat="43.29461" lon="2.31083">
        <ele>219.3</ele>
        <time>2022-04-17T07:10:51.000Z</time>
      </trkpt>
      <trkpt lat="43.29462" lon="2.31085">
        <ele>219.1</ele>
        <time>2022-04-17T07:10:52.000Z</time>
      </trkpt>
      <trkpt lat="43.29463" lon="2.31086">
        <ele>218.8</ele>
        <time>2022-04-17T07:10:53.000Z</time>
      </trkpt>
      <trkpt lat="43.29464" lon="2.31087">
        <ele>218.6</ele>
        <time>2022-04-17T07:10:54.000Z</time>
      </trkpt>
      <trkpt lat="43.29466" lon="2.31088">
        <ele>218.4</ele>
        <time>2022-04-17T07:10:55.000Z</time>
      </trkpt>
      <trkpt lat="43.29467" lon="2.31089">
        <ele>218.3</ele>
        <time>2022-04-17T07:10:56.000Z</time>
      </trkpt>
      <trkpt lat="43.29467" lon="2.31089">
        <ele>218.1</ele>
        <time>2022-04-17T07:10:57.000Z</time>
      </trkpt>
      <trkpt lat="43.29468" lon="2.3109">
        <ele>218</ele>
        <time>2022-04-17T07:10:58.000Z</time>
      </trkpt>
      <trkpt lat="43.29469" lon="2.3109">
        <ele>217.9</ele>
        <time>2022-04-17T07:10:59.000Z</time>
      </trkpt>
      <trkpt lat="43.29469" lon="2.31091">
        <ele>217.8</ele>
        <time>2022-04-17T07:11:00.000Z</time>
      </trkpt>
      <trkpt lat="43.2947" lon="2.31092">
        <ele>217.6</ele>
        <time>2022-04-17T07:11:01.000Z</time>
      </trkpt>
      <trkpt lat="43.2947" lon="2.31093">
        <ele>217.5</ele>
        <time>2022-04-17T07:11:02.000Z</time>
      </trkpt>
      <trkpt lat="43.29471" lon="2.31093">
        <ele>217.4</ele>
        <time>2022-04-17T07:11:03.000Z</time>
      </trkpt>
      <trkpt lat="43.29471" lon="2.31094">
        <ele>217.3</ele>
        <time>2022-04-17T07:11:04.000Z</time>
      </trkpt>
      <trkpt lat="43.29472" lon="2.31095">
        <ele>217.1</ele>
        <time>2022-04-17T07:11:05.000Z</time>
      </trkpt>
      <trkpt lat="43.29472" lon="2.31096">
        <ele>217</ele>
        <time>2022-04-17T07:11:06.000Z</time>
      </trkpt>
      <trkpt lat="43.29473" lon="2.31096">
        <ele>216.9</ele>
        <time>2022-04-17T07:11:07.000Z</time>
      </trkpt>
      <trkpt lat="43.29473" lon="2.31097">
        <ele>216.8</ele>
        <time>2022-04-17T07:11:08.000Z</time>
      </trkpt>
      <trkpt lat="43.29473" lon="2.31097">
        <ele>216.8</ele>
        <time>2022-04-17T07:11:09.000Z</time>
      </trkpt>
      <trkpt lat="43.29474" lon="2.31097">
        <ele>216.7</ele>
        <time>2022-04-17T07:11:10.000Z</time>
      </trkpt>
      <trkpt lat="43.29474" lon="2.31097">
        <ele>216.7</ele>
        <time>2022-04-17T07:11:11.000Z</time>
      </trkpt>
      <trkpt lat="43.29474" lon="2.31098">
        <ele>216.7</ele>
        <time>2022-04-17T07:11:12.000Z</time>
      </trkpt>
      <trkpt lat="43.29474" lon="2.31098">
        <ele>216.7</ele>
        <time>2022-04-17T07:11:13.000Z</time>
      </trkpt>
      <trkpt lat="43.29474" lon="2.31098">
        <ele>216.7</ele>
        <time>2022-04-17T07:11:14.000Z</time>
      </trkpt>
      <trkpt lat="43.29474" lon="2.31098">
        <ele>216.7</ele>
        <time>2022-04-17T07:11:15.000Z</time>
      </trkpt>
      <trkpt lat="43.29474" lon="2.31098">
        <ele>216.7</ele>
        <time>2022-04-17T07:11:16.000Z</time>
      </trkpt>
      <trkpt lat="43.29474" lon="2.31098">
        <ele>216.7</ele>
        <time>2022-04-17T07:11:17.000Z</time>
      </trkpt>
      <trkpt lat="43.29474" lon="2.31098">
        <ele>216.7</ele>
        <time>2022-04-17T07:11:18.000Z</time>
      </trkpt>
      <trkpt lat="43.29474" lon="2.31098">
        <ele>216.7</ele>
        <time>2022-04-17T07:11:19.000Z</time>
      </trkpt>
      <trkpt lat="43.29474" lon="2.31098">
        <ele>216.6</ele>
        <time>2022-04-17T07:11:20.000Z</time>
      </trkpt>
      <trkpt lat="43.29474" lon="2.31098">
        <ele>216.6</ele>
        <time>2022-04-17T07:11:21.000Z</time>
      </trkpt>
      <trkpt lat="43.29475" lon="2.31098">
        <ele>216.6</ele>
        <time>2022-04-17T07:11:22.000Z</time>
      </trkpt>
      <trkpt lat="43.29475" lon="2.31098">
        <ele>216.6</ele>
        <time>2022-04-17T07:11:23.000Z</time>
      </trkpt>
      <trkpt lat="43.29475" lon="2.31098">
        <ele>216.5</ele>
        <time>2022-04-17T07:11:24.000Z</time>
      </trkpt>
      <trkpt lat="43.29476" lon="2.31098">
        <ele>216.5</ele>
        <time>2022-04-17T07:11:25.000Z</time>
      </trkpt>
      <trkpt lat="43.29476" lon="2.31098">
        <ele>216.4</ele>
        <time>2022-04-17T07:11:26.000Z</time>
      </trkpt>
      <trkpt lat="43.29477" lon="2.31098">
        <ele>216.4</ele>
        <time>2022-04-17T07:11:27.000Z</time>
      </trkpt>
      <trkpt lat="43.29477" lon="2.31098">
        <ele>216.4</ele>
        <time>2022-04-17T07:11:28.000Z</time>
      </trkpt>
      <trkpt lat="43.29477" lon="2.31098">
        <ele>216.4</ele>
        <time>2022-04-17T07:11:29.000Z</time>
      </trkpt>
      <trkpt lat="43.29477" lon="2.31097">
        <ele>216.4</ele>
        <time>2022-04-17T07:11:30.000Z</time>
      </trkpt>
      <trkpt lat="43.29478" lon="2.31097">
        <ele>216.4</ele>
        <time>2022-04-17T07:11:31.000Z</time>
      </trkpt>
      <trkpt lat="43.29478" lon="2.31097">
        <ele>216.4</ele>
        <time>2022-04-17T07:11:32.000Z</time>
      </trkpt>
      <trkpt lat="43.29478" lon="2.31097">
        <ele>216.4</ele>
        <time>2022-04-17T07:11:33.000Z</time>
      </trkpt>
      <trkpt lat="43.29478" lon="2.31097">
        <ele>216.3</ele>
        <time>2022-04-17T07:11:34.000Z</time>
      </trkpt>
      <trkpt lat="43.29478" lon="2.31097">
        <ele>216.3</ele>
        <time>2022-04-17T07:11:35.000Z</time>
      </trkpt>
      <trkpt lat="43.29478" lon="2.31097">
        <ele>216.3</ele>
        <time>2022-04-17T07:11:36.000Z</time>
      </trkpt>
      <trkpt lat="43.29479" lon="2.31097">
        <ele>216.3</ele>
        <time>2022-04-17T07:11:37.000Z</time>
      </trkpt>
      <trkpt lat="43.29479" lon="2.31097">
        <ele>216.3</ele>
        <time>2022-04-17T07:11:38.000Z</time>
      </trkpt>
      <trkpt lat="43.29479" lon="2.31097">
        <ele>216.3</ele>
        <time>2022-04-17T07:11:39.000Z</time>
      </trkpt>
      <trkpt lat="43.29479" lon="2.31097">
        <ele>216.3</ele>
        <time>2022-04-17T07:11:40.000Z</time>
      </trkpt>
      <trkpt lat="43.29479" lon="2.31097">
        <ele>216.3</ele>
        <time>2022-04-17T07:11:41.000Z</time>
      </trkpt>
      <trkpt lat="43.2948" lon="2.31097">
        <ele>216.2</ele>
        <time>2022-04-17T07:11:42.000Z</time>
      </trkpt>
      <trkpt lat="43.2948" lon="2.31097">
        <ele>216.2</ele>
        <time>2022-04-17T07:11:43.000Z</time>
      </trkpt>
      <trkpt lat="43.29481" lon="2.31097">
        <ele>216.1</ele>
        <time>2022-04-17T07:11:44.000Z</time>
      </trkpt>
      <trkpt lat="43.29481" lon="2.31097">
        <ele>216.1</ele>
        <time>2022-04-17T07:11:45.000Z</time>
      </trkpt>
      <trkpt lat="43.29481" lon="2.31097">
        <ele>216.1</ele>
        <time>2022-04-17T07:11:46.000Z</time>
      </trkpt>
      <trkpt lat="43.29482" lon="2.31097">
        <ele>216</ele>
        <time>2022-04-17T07:11:47.000Z</time>
      </trkpt>
      <trkpt lat="43.29482" lon="2.31097">
        <ele>216</ele>
        <time>2022-04-17T07:11:48.000Z</time>
      </trkpt>
      <trkpt lat="43.29483" lon="2.31097">
        <ele>216</ele>
        <time>2022-04-17T07:11:49.000Z</time>
      </trkpt>
      <trkpt lat="43.29483" lon="2.31097">
        <ele>216</ele>
        <time>2022-04-17T07:11:50.000Z</time>
      </trkpt>
      <trkpt lat="43.29484" lon="2.31097">
        <ele>215.9</ele>
        <time>2022-04-17T07:11:51.000Z</time>
      </trkpt>
      <trkpt lat="43.29484" lon="2.31097">
        <ele>215.9</ele>
        <time>2022-04-17T07:11:52.000Z</time>
      </trkpt>
      <trkpt lat="43.29485" lon="2.31096">
        <ele>215.9</ele>
        <time>2022-04-17T07:11:53.000Z</time>
      </trkpt>
      <trkpt lat="43.29485" lon="2.31096">
        <ele>215.8</ele>
        <time>2022-04-17T07:11:54.000Z</time>
      </trkpt>
      <trkpt lat="43.29486" lon="2.31096">
        <ele>215.8</ele>
        <time>2022-04-17T07:11:55.000Z</time>
      </trkpt>
      <trkpt lat="43.29487" lon="2.31096">
        <ele>215.8</ele>
        <time>2022-04-17T07:11:56.000Z</time>
      </trkpt>
      <trkpt lat="43.29487" lon="2.31096">
        <ele>215.7</ele>
        <time>2022-04-17T07:11:57.000Z</time>
      </trkpt>
      <trkpt lat="43.29488" lon="2.31096">
        <ele>215.7</ele>
        <time>2022-04-17T07:11:58.000Z</time>
      </trkpt>
      <trkpt lat="43.29489" lon="2.31096">
        <ele>215.6</ele>
        <time>2022-04-17T07:11:59.000Z</time>
      </trkpt>
      <trkpt lat="43.29489" lon="2.31096">
        <ele>215.6</ele>
        <time>2022-04-17T07:12:00.000Z</time>
      </trkpt>
      <trkpt lat="43.2949" lon="2.31096">
        <ele>215.5</ele>
        <time>2022-04-17T07:12:01.000Z</time>
      </trkpt>
      <trkpt lat="43.29491" lon="2.31096">
        <ele>215.5</ele>
        <time>2022-04-17T07:12:02.000Z</time>
      </trkpt>
      <trkpt lat="43.29492" lon="2.31096">
        <ele>215.4</ele>
        <time>2022-04-17T07:12:03.000Z</time>
      </trkpt>
      <trkpt lat="43.29492" lon="2.31096">
        <ele>215.3</ele>
        <time>2022-04-17T07:12:04.000Z</time>
      </trkpt>
      <trkpt lat="43.29493" lon="2.31096">
        <ele>215.3</ele>
        <time>2022-04-17T07:12:05.000Z</time>
      </trkpt>
      <trkpt lat="43.29494" lon="2.31096">
        <ele>215.2</ele>
        <time>2022-04-17T07:12:06.000Z</time>
      </trkpt>
      <trkpt lat="43.29495" lon="2.31096">
        <ele>215.1</ele>
        <time>2022-04-17T07:12:07.000Z</time>
      </trkpt>
      <trkpt lat="43.29495" lon="2.31096">
        <ele>215</ele>
        <time>2022-04-17T07:12:08.000Z</time>
      </trkpt>
      <trkpt lat="43.29496" lon="2.31096">
        <ele>214.9</ele>
        <time>2022-04-17T07:12:09.000Z</time>
      </trkpt>
      <trkpt lat="43.29497" lon="2.31097">
        <ele>214.9</ele>
        <time>2022-04-17T07:12:10.000Z</time>
      </trkpt>
      <trkpt lat="43.29497" lon="2.31097">
        <ele>214.8</ele>
        <time>2022-04-17T07:12:11.000Z</time>
      </trkpt>
      <trkpt lat="43.29498" lon="2.31097">
        <ele>214.7</ele>
        <time>2022-04-17T07:12:12.000Z</time>
      </trkpt>
      <trkpt lat="43.29499" lon="2.31097">
        <ele>214.6</ele>
        <time>2022-04-17T07:12:13.000Z</time>
      </trkpt>
      <trkpt lat="43.295" lon="2.31097">
        <ele>214.5</ele>
        <time>2022-04-17T07:12:14.000Z</time>
      </trkpt>
      <trkpt lat="43.29501" lon="2.31097">
        <ele>214.4</ele>
        <time>2022-04-17T07:12:15.000Z</time>
      </trkpt>
      <trkpt lat="43.29502" lon="2.31097">
        <ele>214.1</ele>
        <time>2022-04-17T07:12:16.000Z</time>
      </trkpt>
      <trkpt lat="43.29503" lon="2.31097">
        <ele>213.8</ele>
        <time>2022-04-17T07:12:17.000Z</time>
      </trkpt>
      <trkpt lat="43.29504" lon="2.31097">
        <ele>213.5</ele>
        <time>2022-04-17T07:12:18.000Z</time>
      </trkpt>
      <trkpt lat="43.29505" lon="2.31097">
        <ele>213.2</ele>
        <time>2022-04-17T07:12:19.000Z</time>
      </trkpt>
      <trkpt lat="43.29506" lon="2.31097">
        <ele>212.8</ele>
        <time>2022-04-17T07:12:20.000Z</time>
      </trkpt>
      <trkpt lat="43.29508" lon="2.31097">
        <ele>212.5</ele>
        <time>2022-04-17T07:12:21.000Z</time>
      </trkpt>
      <trkpt lat="43.29509" lon="2.31098">
        <ele>212</ele>
        <time>2022-04-17T07:12:22.000Z</time>
      </trkpt>
      <trkpt lat="43.29511" lon="2.31098">
        <ele>211.6</ele>
        <time>2022-04-17T07:12:23.000Z</time>
      </trkpt>
      <trkpt lat="43.29512" lon="2.31098">
        <ele>211.2</ele>
        <time>2022-04-17T07:12:24.000Z</time>
      </trkpt>
      <trkpt lat="43.29514" lon="2.31098">
        <ele>210.8</ele>
        <time>2022-04-17T07:12:25.000Z</time>
      </trkpt>
      <trkpt lat="43.29516" lon="2.31097">
        <ele>210.5</ele>
        <time>2022-04-17T07:12:26.000Z</time>
      </trkpt>
      <trkpt lat="43.29517" lon="2.31097">
        <ele>210.1</ele>
        <time>2022-04-17T07:12:27.000Z</time>
      </trkpt>
      <trkpt lat="43.29519" lon="2.31096">
        <ele>209.8</ele>
        <time>2022-04-17T07:12:28.000Z</time>
      </trkpt>
      <trkpt lat="43.2952" lon="2.31094">
        <ele>209.5</ele>
        <time>2022-04-17T07:12:29.000Z</time>
      </trkpt>
      <trkpt lat="43.29522" lon="2.31093">
        <ele>209.2</ele>
        <time>2022-04-17T07:12:30.000Z</time>
      </trkpt>
      <trkpt lat="43.29523" lon="2.31091">
        <ele>209</ele>
        <time>2022-04-17T07:12:31.000Z</time>
      </trkpt>
      <trkpt lat="43.29524" lon="2.3109">
        <ele>208.8</ele>
        <time>2022-04-17T07:12:32.000Z</time>
      </trkpt>
      <trkpt lat="43.29526" lon="2.31088">
        <ele>208.6</ele>
        <time>2022-04-17T07:12:33.000Z</time>
      </trkpt>
      <trkpt lat="43.29527" lon="2.31086">
        <ele>208.4</ele>
        <time>2022-04-17T07:12:34.000Z</time>
      </trkpt>
      <trkpt lat="43.29528" lon="2.31084">
        <ele>208.3</ele>
        <time>2022-04-17T07:12:35.000Z</time>
      </trkpt>
      <trkpt lat="43.29529" lon="2.31082">
        <ele>208.1</ele>
        <time>2022-04-17T07:12:36.000Z</time>
      </trkpt>
      <trkpt lat="43.2953" lon="2.3108">
        <ele>208</ele>
        <time>2022-04-17T07:12:37.000Z</time>
      </trkpt>
      <trkpt lat="43.2953" lon="2.31078">
        <ele>207.9</ele>
        <time>2022-04-17T07:12:38.000Z</time>
      </trkpt>
      <trkpt lat="43.29531" lon="2.31077">
        <ele>207.8</ele>
        <time>2022-04-17T07:12:39.000Z</time>
      </trkpt>
      <trkpt lat="43.29531" lon="2.31075">
        <ele>207.8</ele>
        <time>2022-04-17T07:12:40.000Z</time>
      </trkpt>
      <trkpt lat="43.29531" lon="2.31074">
        <ele>207.8</ele>
        <time>2022-04-17T07:12:41.000Z</time>
      </trkpt>
      <trkpt lat="43.29531" lon="2.31072">
        <ele>207.8</ele>
        <time>2022-04-17T07:12:42.000Z</time>
      </trkpt>
      <trkpt lat="43.29531" lon="2.31071">
        <ele>207.9</ele>
        <time>2022-04-17T07:12:43.000Z</time>
      </trkpt>
      <trkpt lat="43.29531" lon="2.31069">
        <ele>207.9</ele>
        <time>2022-04-17T07:12:44.000Z</time>
      </trkpt>
      <trkpt lat="43.29531" lon="2.31067">
        <ele>208</ele>
        <time>2022-04-17T07:12:45.000Z</time>
      </trkpt>
      <trkpt lat="43.29531" lon="2.31065">
        <ele>208.2</ele>
        <time>2022-04-17T07:12:46.000Z</time>
      </trkpt>
      <trkpt lat="43.29531" lon="2.31063">
        <ele>208.3</ele>
        <time>2022-04-17T07:12:47.000Z</time>
      </trkpt>
      <trkpt lat="43.29531" lon="2.31061">
        <ele>208.4</ele>
        <time>2022-04-17T07:12:48.000Z</time>
      </trkpt>
      <trkpt lat="43.29531" lon="2.31058">
        <ele>208.5</ele>
        <time>2022-04-17T07:12:49.000Z</time>
      </trkpt>
      <trkpt lat="43.29531" lon="2.31056">
        <ele>208.6</ele>
        <time>2022-04-17T07:12:50.000Z</time>
      </trkpt>
      <trkpt lat="43.29531" lon="2.31054">
        <ele>208.6</ele>
        <time>2022-04-17T07:12:51.000Z</time>
      </trkpt>
      <trkpt lat="43.29532" lon="2.31052">
        <ele>208.6</ele>
        <time>2022-04-17T07:12:52.000Z</time>
      </trkpt>
      <trkpt lat="43.29532" lon="2.3105">
        <ele>208.5</ele>
        <time>2022-04-17T07:12:53.000Z</time>
      </trkpt>
      <trkpt lat="43.29533" lon="2.31048">
        <ele>208.4</ele>
        <time>2022-04-17T07:12:54.000Z</time>
      </trkpt>
      <trkpt lat="43.29533" lon="2.31047">
        <ele>208.3</ele>
        <time>2022-04-17T07:12:55.000Z</time>
      </trkpt>
      <trkpt lat="43.29534" lon="2.31046">
        <ele>208.1</ele>
        <time>2022-04-17T07:12:56.000Z</time>
      </trkpt>
      <trkpt lat="43.29535" lon="2.31044">
        <ele>207.9</ele>
        <time>2022-04-17T07:12:57.000Z</time>
      </trkpt>
      <trkpt lat="43.29537" lon="2.31042">
        <ele>207.6</ele>
        <time>2022-04-17T07:12:58.000Z</time>
      </trkpt>
      <trkpt lat="43.29538" lon="2.31039">
        <ele>207.4</ele>
        <time>2022-04-17T07:12:59.000Z</time>
      </trkpt>
      <trkpt lat="43.29539" lon="2.31036">
        <ele>207.1</ele>
        <time>2022-04-17T07:13:00.000Z</time>
      </trkpt>
      <trkpt lat="43.2954" lon="2.31033">
        <ele>207</ele>
        <time>2022-04-17T07:13:01.000Z</time>
      </trkpt>
      <trkpt lat="43.29541" lon="2.3103">
        <ele>206.9</ele>
        <time>2022-04-17T07:13:02.000Z</time>
      </trkpt>
      <trkpt lat="43.29542" lon="2.31027">
        <ele>206.9</ele>
        <time>2022-04-17T07:13:03.000Z</time>
      </trkpt>
      <trkpt lat="43.29542" lon="2.31024">
        <ele>207</ele>
        <time>2022-04-17T07:13:04.000Z</time>
      </trkpt>
      <trkpt lat="43.29541" lon="2.31022">
        <ele>207.2</ele>
        <time>2022-04-17T07:13:05.000Z</time>
      </trkpt>
      <trkpt lat="43.29541" lon="2.31019">
        <ele>207.3</ele>
        <time>2022-04-17T07:13:06.000Z</time>
      </trkpt>
      <trkpt lat="43.29541" lon="2.31017">
        <ele>207.4</ele>
        <time>2022-04-17T07:13:07.000Z</time>
      </trkpt>
      <trkpt lat="43.29542" lon="2.31014">
        <ele>207.4</ele>
        <time>2022-04-17T07:13:08.000Z</time>
      </trkpt>
      <trkpt lat="43.29542" lon="2.31012">
        <ele>207.4</ele>
        <time>2022-04-17T07:13:09.000Z</time>
      </trkpt>
      <trkpt lat="43.29543" lon="2.3101">
        <ele>207.3</ele>
        <time>2022-04-17T07:13:10.000Z</time>
      </trkpt>
      <trkpt lat="43.29544" lon="2.31009">
        <ele>207.2</ele>
        <time>2022-04-17T07:13:11.000Z</time>
      </trkpt>
      <trkpt lat="43.29545" lon="2.31007">
        <ele>206.9</ele>
        <time>2022-04-17T07:13:12.000Z</time>
      </trkpt>
      <trkpt lat="43.29546" lon="2.31007">
        <ele>206.6</ele>
        <time>2022-04-17T07:13:13.000Z</time>
      </trkpt>
      <trkpt lat="43.29548" lon="2.31006">
        <ele>206.2</ele>
        <time>2022-04-17T07:13:14.000Z</time>
      </trkpt>
      <trkpt lat="43.29549" lon="2.31006">
        <ele>205.8</ele>
        <time>2022-04-17T07:13:15.000Z</time>
      </trkpt>
      <trkpt lat="43.29551" lon="2.31006">
        <ele>205.3</ele>
        <time>2022-04-17T07:13:16.000Z</time>
      </trkpt>
      <trkpt lat="43.29552" lon="2.31005">
        <ele>204.9</ele>
        <time>2022-04-17T07:13:17.000Z</time>
      </trkpt>
      <trkpt lat="43.29554" lon="2.31005">
        <ele>204.6</ele>
        <time>2022-04-17T07:13:18.000Z</time>
      </trkpt>
      <trkpt lat="43.29555" lon="2.31003">
        <ele>204.3</ele>
        <time>2022-04-17T07:13:19.000Z</time>
      </trkpt>
      <trkpt lat="43.29557" lon="2.31001">
        <ele>204</ele>
        <time>2022-04-17T07:13:20.000Z</time>
      </trkpt>
      <trkpt lat="43.29558" lon="2.30998">
        <ele>203.8</ele>
        <time>2022-04-17T07:13:21.000Z</time>
      </trkpt>
      <trkpt lat="43.29558" lon="2.30995">
        <ele>203.6</ele>
        <time>2022-04-17T07:13:22.000Z</time>
      </trkpt>
      <trkpt lat="43.29559" lon="2.30992">
        <ele>203.5</ele>
        <time>2022-04-17T07:13:23.000Z</time>
      </trkpt>
      <trkpt lat="43.29559" lon="2.3099">
        <ele>203.5</ele>
        <time>2022-04-17T07:13:24.000Z</time>
      </trkpt>
      <trkpt lat="43.29559" lon="2.30987">
        <ele>203.6</ele>
        <time>2022-04-17T07:13:25.000Z</time>
      </trkpt>
      <trkpt lat="43.29558" lon="2.30985">
        <ele>203.7</ele>
        <time>2022-04-17T07:13:26.000Z</time>
      </trkpt>
      <trkpt lat="43.29557" lon="2.30983">
        <ele>203.9</ele>
        <time>2022-04-17T07:13:27.000Z</time>
      </trkpt>
      <trkpt lat="43.29556" lon="2.30981">
        <ele>204.1</ele>
        <time>2022-04-17T07:13:28.000Z</time>
      </trkpt>
      <trkpt lat="43.29555" lon="2.30979">
        <ele>204.4</ele>
        <time>2022-04-17T07:13:29.000Z</time>
      </trkpt>
      <trkpt lat="43.29554" lon="2.30977">
        <ele>204.7</ele>
        <time>2022-04-17T07:13:30.000Z</time>
      </trkpt>
      <trkpt lat="43.29552" lon="2.30975">
        <ele>205</ele>
        <time>2022-04-17T07:13:31.000Z</time>
      </trkpt>
      <trkpt lat="43.29551" lon="2.30973">
        <ele>205.3</ele>
        <time>2022-04-17T07:13:32.000Z</time>
      </trkpt>
      <trkpt lat="43.29549" lon="2.30971">
        <ele>205.5</ele>
        <time>2022-04-17T07:13:33.000Z</time>
      </trkpt>
      <trkpt lat="43.29548" lon="2.30969">
        <ele>205.8</ele>
        <time>2022-04-17T07:13:34.000Z</time>
      </trkpt>
      <trkpt lat="43.29546" lon="2.30966">
        <ele>206.1</ele>
        <time>2022-04-17T07:13:35.000Z</time>
      </trkpt>
      <trkpt lat="43.29545" lon="2.30964">
        <ele>206.3</ele>
        <time>2022-04-17T07:13:36.000Z</time>
      </trkpt>
      <trkpt lat="43.29543" lon="2.30962">
        <ele>206.6</ele>
        <time>2022-04-17T07:13:37.000Z</time>
      </trkpt>
      <trkpt lat="43.29542" lon="2.30959">
        <ele>206.8</ele>
        <time>2022-04-17T07:13:38.000Z</time>
      </trkpt>
      <trkpt lat="43.2954" lon="2.30957">
        <ele>207</ele>
        <time>2022-04-17T07:13:39.000Z</time>
      </trkpt>
      <trkpt lat="43.29538" lon="2.30955">
        <ele>207.2</ele>
        <time>2022-04-17T07:13:40.000Z</time>
      </trkpt>
      <trkpt lat="43.29537" lon="2.30952">
        <ele>207.4</ele>
        <time>2022-04-17T07:13:41.000Z</time>
      </trkpt>
      <trkpt lat="43.29535" lon="2.3095">
        <ele>207.6</ele>
        <time>2022-04-17T07:13:42.000Z</time>
      </trkpt>
      <trkpt lat="43.29534" lon="2.30948">
        <ele>207.8</ele>
        <time>2022-04-17T07:13:43.000Z</time>
      </trkpt>
      <trkpt lat="43.29532" lon="2.30945">
        <ele>207.9</ele>
        <time>2022-04-17T07:13:44.000Z</time>
      </trkpt>
      <trkpt lat="43.2953" lon="2.30943">
        <ele>208.1</ele>
        <time>2022-04-17T07:13:45.000Z</time>
      </trkpt>
      <trkpt lat="43.29529" lon="2.30941">
        <ele>208.2</ele>
        <time>2022-04-17T07:13:46.000Z</time>
      </trkpt>
      <trkpt lat="43.29527" lon="2.30939">
        <ele>208.4</ele>
        <time>2022-04-17T07:13:47.000Z</time>
      </trkpt>
      <trkpt lat="43.29525" lon="2.30937">
        <ele>208.5</ele>
        <time>2022-04-17T07:13:48.000Z</time>
      </trkpt>
      <trkpt lat="43.29524" lon="2.30935">
        <ele>208.6</ele>
        <time>2022-04-17T07:13:49.000Z</time>
      </trkpt>
      <trkpt lat="43.29522" lon="2.30933">
        <ele>208.7</ele>
        <time>2022-04-17T07:13:50.000Z</time>
      </trkpt>
      <trkpt lat="43.2952" lon="2.30931">
        <ele>208.8</ele>
        <time>2022-04-17T07:13:51.000Z</time>
      </trkpt>
      <trkpt lat="43.29518" lon="2.30929">
        <ele>208.9</ele>
        <time>2022-04-17T07:13:52.000Z</time>
      </trkpt>
      <trkpt lat="43.29517" lon="2.30928">
        <ele>209</ele>
        <time>2022-04-17T07:13:53.000Z</time>
      </trkpt>
      <trkpt lat="43.29515" lon="2.30926">
        <ele>209.1</ele>
        <time>2022-04-17T07:13:54.000Z</time>
      </trkpt>
      <trkpt lat="43.29513" lon="2.30924">
        <ele>209.2</ele>
        <time>2022-04-17T07:13:55.000Z</time>
      </trkpt>
      <trkpt lat="43.29511" lon="2.30923">
        <ele>209.3</ele>
        <time>2022-04-17T07:13:56.000Z</time>
      </trkpt>
      <trkpt lat="43.2951" lon="2.30921">
        <ele>209.4</ele>
        <time>2022-04-17T07:13:57.000Z</time>
      </trkpt>
      <trkpt lat="43.29508" lon="2.3092">
        <ele>209.5</ele>
        <time>2022-04-17T07:13:58.000Z</time>
      </trkpt>
      <trkpt lat="43.29506" lon="2.30919">
        <ele>209.6</ele>
        <time>2022-04-17T07:13:59.000Z</time>
      </trkpt>
      <trkpt lat="43.29504" lon="2.30918">
        <ele>209.7</ele>
        <time>2022-04-17T07:14:00.000Z</time>
      </trkpt>
      <trkpt lat="43.29502" lon="2.30917">
        <ele>209.8</ele>
        <time>2022-04-17T07:14:01.000Z</time>
      </trkpt>
      <trkpt lat="43.295" lon="2.30916">
        <ele>210</ele>
        <time>2022-04-17T07:14:02.000Z</time>
      </trkpt>
      <trkpt lat="43.29498" lon="2.30916">
        <ele>210.3</ele>
        <time>2022-04-17T07:14:03.000Z</time>
      </trkpt>
      <trkpt lat="43.29496" lon="2.30916">
        <ele>210.6</ele>
        <time>2022-04-17T07:14:04.000Z</time>
      </trkpt>
      <trkpt lat="43.29494" lon="2.30916">
        <ele>210.9</ele>
        <time>2022-04-17T07:14:05.000Z</time>
      </trkpt>
      <trkpt lat="43.29492" lon="2.30916">
        <ele>211.1</ele>
        <time>2022-04-17T07:14:06.000Z</time>
      </trkpt>
      <trkpt lat="43.2949" lon="2.30916">
        <ele>211.4</ele>
        <time>2022-04-17T07:14:07.000Z</time>
      </trkpt>
      <trkpt lat="43.29488" lon="2.30916">
        <ele>211.6</ele>
        <time>2022-04-17T07:14:08.000Z</time>
      </trkpt>
      <trkpt lat="43.29487" lon="2.30915">
        <ele>211.9</ele>
        <time>2022-04-17T07:14:09.000Z</time>
      </trkpt>
      <trkpt lat="43.29485" lon="2.30915">
        <ele>212.1</ele>
        <time>2022-04-17T07:14:10.000Z</time>
      </trkpt>
      <trkpt lat="43.29483" lon="2.30915">
        <ele>212.4</ele>
        <time>2022-04-17T07:14:11.000Z</time>
      </trkpt>
      <trkpt lat="43.29481" lon="2.30915">
        <ele>212.6</ele>
        <time>2022-04-17T07:14:12.000Z</time>
      </trkpt>
      <trkpt lat="43.2948" lon="2.30915">
        <ele>212.8</ele>
        <time>2022-04-17T07:14:13.000Z</time>
      </trkpt>
      <trkpt lat="43.29478" lon="2.30915">
        <ele>213</ele>
        <time>2022-04-17T07:14:14.000Z</time>
      </trkpt>
      <trkpt lat="43.29476" lon="2.30915">
        <ele>213.2</ele>
        <time>2022-04-17T07:14:15.000Z</time>
      </trkpt>
      <trkpt lat="43.29475" lon="2.30915">
        <ele>213.4</ele>
        <time>2022-04-17T07:14:16.000Z</time>
      </trkpt>
      <trkpt lat="43.29473" lon="2.30915">
        <ele>213.7</ele>
        <time>2022-04-17T07:14:17.000Z</time>
      </trkpt>
      <trkpt lat="43.29472" lon="2.30915">
        <ele>213.9</ele>
        <time>2022-04-17T07:14:18.000Z</time>
      </trkpt>
      <trkpt lat="43.2947" lon="2.30915">
        <ele>214.1</ele>
        <time>2022-04-17T07:14:19.000Z</time>
      </trkpt>
      <trkpt lat="43.29469" lon="2.30915">
        <ele>214.3</ele>
        <time>2022-04-17T07:14:20.000Z</time>
      </trkpt>
      <trkpt lat="43.29467" lon="2.30915">
        <ele>214.5</ele>
        <time>2022-04-17T07:14:21.000Z</time>
      </trkpt>
      <trkpt lat="43.29465" lon="2.30915">
        <ele>214.7</ele>
        <time>2022-04-17T07:14:22.000Z</time>
      </trkpt>
      <trkpt lat="43.29464" lon="2.30915">
        <ele>214.9</ele>
        <time>2022-04-17T07:14:23.000Z</time>
      </trkpt>
      <trkpt lat="43.29462" lon="2.30916">
        <ele>215.1</ele>
        <time>2022-04-17T07:14:24.000Z</time>
      </trkpt>
      <trkpt lat="43.29461" lon="2.30916">
        <ele>215.3</ele>
        <time>2022-04-17T07:14:25.000Z</time>
      </trkpt>
      <trkpt lat="43.29459" lon="2.30916">
        <ele>215.5</ele>
        <time>2022-04-17T07:14:26.000Z</time>
      </trkpt>
      <trkpt lat="43.29458" lon="2.30916">
        <ele>215.7</ele>
        <time>2022-04-17T07:14:27.000Z</time>
      </trkpt>
      <trkpt lat="43.29456" lon="2.30916">
        <ele>215.9</ele>
        <time>2022-04-17T07:14:28.000Z</time>
      </trkpt>
      <trkpt lat="43.29454" lon="2.30916">
        <ele>216.1</ele>
        <time>2022-04-17T07:14:29.000Z</time>
      </trkpt>
      <trkpt lat="43.29453" lon="2.30916">
        <ele>216.3</ele>
        <time>2022-04-17T07:14:30.000Z</time>
      </trkpt>
      <trkpt lat="43.29451" lon="2.30916">
        <ele>216.5</ele>
        <time>2022-04-17T07:14:31.000Z</time>
      </trkpt>
      <trkpt lat="43.2945" lon="2.30916">
        <ele>216.7</ele>
        <time>2022-04-17T07:14:32.000Z</time>
      </trkpt>
      <trkpt lat="43.29448" lon="2.30916">
        <ele>216.9</ele>
        <time>2022-04-17T07:14:33.000Z</time>
      </trkpt>
      <trkpt lat="43.29447" lon="2.30916">
        <ele>217.1</ele>
        <time>2022-04-17T07:14:34.000Z</time>
      </trkpt>
      <trkpt lat="43.29445" lon="2.30917">
        <ele>217.3</ele>
        <time>2022-04-17T07:14:35.000Z</time>
      </trkpt>
      <trkpt lat="43.29444" lon="2.30917">
        <ele>217.5</ele>
        <time>2022-04-17T07:14:36.000Z</time>
      </trkpt>
      <trkpt lat="43.29442" lon="2.30917">
        <ele>217.7</ele>
        <time>2022-04-17T07:14:37.000Z</time>
      </trkpt>
      <trkpt lat="43.29441" lon="2.30917">
        <ele>217.9</ele>
        <time>2022-04-17T07:14:38.000Z</time>
      </trkpt>
      <trkpt lat="43.29439" lon="2.30917">
        <ele>218.1</ele>
        <time>2022-04-17T07:14:39.000Z</time>
      </trkpt>
      <trkpt lat="43.29438" lon="2.30917">
        <ele>218.2</ele>
        <time>2022-04-17T07:14:40.000Z</time>
      </trkpt>
      <trkpt lat="43.29436" lon="2.30917">
        <ele>218.4</ele>
        <time>2022-04-17T07:14:41.000Z</time>
      </trkpt>
      <trkpt lat="43.29435" lon="2.30917">
        <ele>218.6</ele>
        <time>2022-04-17T07:14:42.000Z</time>
      </trkpt>
      <trkpt lat="43.29433" lon="2.30917">
        <ele>218.8</ele>
        <time>2022-04-17T07:14:43.000Z</time>
      </trkpt>
      <trkpt lat="43.29432" lon="2.30917">
        <ele>219</ele>
        <time>2022-04-17T07:14:44.000Z</time>
      </trkpt>
      <trkpt lat="43.2943" lon="2.30917">
        <ele>219.2</ele>
        <time>2022-04-17T07:14:45.000Z</time>
      </trkpt>
      <trkpt lat="43.29429" lon="2.30917">
        <ele>219.4</ele>
        <time>2022-04-17T07:14:46.000Z</time>
      </trkpt>
      <trkpt lat="43.29427" lon="2.30917">
        <ele>219.6</ele>
        <time>2022-04-17T07:14:47.000Z</time>
      </trkpt>
      <trkpt lat="43.29426" lon="2.30917">
        <ele>219.8</ele>
        <time>2022-04-17T07:14:48.000Z</time>
      </trkpt>
      <trkpt lat="43.29424" lon="2.30917">
        <ele>220</ele>
        <time>2022-04-17T07:14:49.000Z</time>
      </trkpt>
      <trkpt lat="43.29422" lon="2.30917">
        <ele>220.3</ele>
        <time>2022-04-17T07:14:50.000Z</time>
      </trkpt>
      <trkpt lat="43.2942" lon="2.30916">
        <ele>220.6</ele>
        <time>2022-04-17T07:14:51.000Z</time>
      </trkpt>
      <trkpt lat="43.29418" lon="2.30916">
        <ele>220.8</ele>
        <time>2022-04-17T07:14:52.000Z</time>
      </trkpt>
      <trkpt lat="43.29417" lon="2.30916">
        <ele>221.1</ele>
        <time>2022-04-17T07:14:53.000Z</time>
      </trkpt>
      <trkpt lat="43.29415" lon="2.30916">
        <ele>221.2</ele>
        <time>2022-04-17T07:14:54.000Z</time>
      </trkpt>
      <trkpt lat="43.29414" lon="2.30916">
        <ele>221.3</ele>
        <time>2022-04-17T07:14:55.000Z</time>
      </trkpt>
      <trkpt lat="43.29413" lon="2.30916">
        <ele>221.4</ele>
        <time>2022-04-17T07:14:56.000Z</time>
      </trkpt>
      <trkpt lat="43.29412" lon="2.30916">
        <ele>221.5</ele>
        <time>2022-04-17T07:14:57.000Z</time>
      </trkpt>
      <trkpt lat="43.2941" lon="2.30916">
        <ele>221.6</ele>
        <time>2022-04-17T07:14:58.000Z</time>
      </trkpt>
      <trkpt lat="43.29409" lon="2.30916">
        <ele>221.7</ele>
        <time>2022-04-17T07:14:59.000Z</time>
      </trkpt>
      <trkpt lat="43.29408" lon="2.30916">
        <ele>221.8</ele>
        <time>2022-04-17T07:15:00.000Z</time>
      </trkpt>
      <trkpt lat="43.29406" lon="2.30916">
        <ele>221.9</ele>
        <time>2022-04-17T07:15:01.000Z</time>
      </trkpt>
      <trkpt lat="43.29405" lon="2.30916">
        <ele>222</ele>
        <time>2022-04-17T07:15:02.000Z</time>
      </trkpt>
      <trkpt lat="43.29404" lon="2.30916">
        <ele>222.1</ele>
        <time>2022-04-17T07:15:03.000Z</time>
      </trkpt>
      <trkpt lat="43.29403" lon="2.30916">
        <ele>222.2</ele>
        <time>2022-04-17T07:15:04.000Z</time>
      </trkpt>
      <trkpt lat="43.29401" lon="2.30916">
        <ele>222.3</ele>
        <time>2022-04-17T07:15:05.000Z</time>
      </trkpt>
      <trkpt lat="43.294" lon="2.30916">
        <ele>222.4</ele>
        <time>2022-04-17T07:15:06.000Z</time>
      </trkpt>
      <trkpt lat="43.29398" lon="2.30916">
        <ele>222.6</ele>
        <time>2022-04-17T07:15:07.000Z</time>
      </trkpt>
      <trkpt lat="43.29397" lon="2.30917">
        <ele>222.7</ele>
        <time>2022-04-17T07:15:08.000Z</time>
      </trkpt>
      <trkpt lat="43.29395" lon="2.30917">
        <ele>222.8</ele>
        <time>2022-04-17T07:15:09.000Z</time>
      </trkpt>
      <trkpt lat="43.29394" lon="2.30917">
        <ele>222.9</ele>
        <time>2022-04-17T07:15:10.000Z</time>
      </trkpt>
      <trkpt lat="43.29393" lon="2.30917">
        <ele>223</ele>
        <time>2022-04-17T07:15:11.000Z</time>
      </trkpt>
      <trkpt lat="43.29392" lon="2.30917">
        <ele>223.1</ele>
        <time>2022-04-17T07:15:12.000Z</time>
      </trkpt>
      <trkpt lat="43.29391" lon="2.30917">
        <ele>223.2</ele>
        <time>2022-04-17T07:15:13.000Z</time>
      </trkpt>
      <trkpt lat="43.2939" lon="2.30916">
        <ele>223.2</ele>
        <time>2022-04-17T07:15:14.000Z</time>
      </trkpt>
      <trkpt lat="43.2939" lon="2.30915">
        <ele>223.3</ele>
        <time>2022-04-17T07:15:15.000Z</time>
      </trkpt>
      <trkpt lat="43.2939" lon="2.30915">
        <ele>223.4</ele>
        <time>2022-04-17T07:15:16.000Z</time>
      </trkpt>
      <trkpt lat="43.2939" lon="2.30914">
        <ele>223.4</ele>
        <time>2022-04-17T07:15:17.000Z</time>
      </trkpt>
      <trkpt lat="43.2939" lon="2.30913">
        <ele>223.4</ele>
        <time>2022-04-17T07:15:18.000Z</time>
      </trkpt>
      <trkpt lat="43.29391" lon="2.30912">
        <ele>223.5</ele>
        <time>2022-04-17T07:15:19.000Z</time>
      </trkpt>
      <trkpt lat="43.29391" lon="2.3091">
        <ele>223.5</ele>
        <time>2022-04-17T07:15:20.000Z</time>
      </trkpt>
      <trkpt lat="43.29392" lon="2.30909">
        <ele>223.5</ele>
        <time>2022-04-17T07:15:21.000Z</time>
      </trkpt>
      <trkpt lat="43.29393" lon="2.30908">
        <ele>223.5</ele>
        <time>2022-04-17T07:15:22.000Z</time>
      </trkpt>
      <trkpt lat="43.29394" lon="2.30907">
        <ele>223.5</ele>
        <time>2022-04-17T07:15:23.000Z</time>
      </trkpt>
      <trkpt lat="43.29395" lon="2.30905">
        <ele>223.5</ele>
        <time>2022-04-17T07:15:24.000Z</time>
      </trkpt>
      <trkpt lat="43.29395" lon="2.30904">
        <ele>223.6</ele>
        <time>2022-04-17T07:15:25.000Z</time>
      </trkpt>
      <trkpt lat="43.29396" lon="2.30902">
        <ele>223.6</ele>
        <time>2022-04-17T07:15:26.000Z</time>
      </trkpt>
      <trkpt lat="43.29397" lon="2.30901">
        <ele>223.6</ele>
        <time>2022-04-17T07:15:27.000Z</time>
      </trkpt>
      <trkpt lat="43.29398" lon="2.309">
        <ele>223.6</ele>
        <time>2022-04-17T07:15:28.000Z</time>
      </trkpt>
      <trkpt lat="43.29398" lon="2.30899">
        <ele>223.6</ele>
        <time>2022-04-17T07:15:29.000Z</time>
      </trkpt>
      <trkpt lat="43.29399" lon="2.30899">
        <ele>223.5</ele>
        <time>2022-04-17T07:15:30.000Z</time>
      </trkpt>
      <trkpt lat="43.29401" lon="2.30899">
        <ele>223.4</ele>
        <time>2022-04-17T07:15:31.000Z</time>
      </trkpt>
      <trkpt lat="43.29402" lon="2.30899">
        <ele>223.3</ele>
        <time>2022-04-17T07:15:32.000Z</time>
      </trkpt>
      <trkpt lat="43.29403" lon="2.30899">
        <ele>223.2</ele>
        <time>2022-04-17T07:15:33.000Z</time>
      </trkpt>
      <trkpt lat="43.29405" lon="2.30899">
        <ele>223.2</ele>
        <time>2022-04-17T07:15:34.000Z</time>
      </trkpt>
      <trkpt lat="43.29407" lon="2.30897">
        <ele>223.1</ele>
        <time>2022-04-17T07:15:35.000Z</time>
      </trkpt>
      <trkpt lat="43.29409" lon="2.30895">
        <ele>223.2</ele>
        <time>2022-04-17T07:15:36.000Z</time>
      </trkpt>
      <trkpt lat="43.2941" lon="2.30893">
        <ele>223.2</ele>
        <time>2022-04-17T07:15:37.000Z</time>
      </trkpt>
      <trkpt lat="43.29412" lon="2.30891">
        <ele>223.2</ele>
        <time>2022-04-17T07:15:38.000Z</time>
      </trkpt>
      <trkpt lat="43.29413" lon="2.30889">
        <ele>223.2</ele>
        <time>2022-04-17T07:15:39.000Z</time>
      </trkpt>
      <trkpt lat="43.29415" lon="2.30888">
        <ele>223.2</ele>
        <time>2022-04-17T07:15:40.000Z</time>
      </trkpt>
      <trkpt lat="43.29416" lon="2.30887">
        <ele>223.2</ele>
        <time>2022-04-17T07:15:41.000Z</time>
      </trkpt>
      <trkpt lat="43.29417" lon="2.30885">
        <ele>223.2</ele>
        <time>2022-04-17T07:15:42.000Z</time>
      </trkpt>
      <trkpt lat="43.29418" lon="2.30884">
        <ele>223.1</ele>
        <time>2022-04-17T07:15:43.000Z</time>
      </trkpt>
      <trkpt lat="43.2942" lon="2.30883">
        <ele>223.1</ele>
        <time>2022-04-17T07:15:44.000Z</time>
      </trkpt>
      <trkpt lat="43.29421" lon="2.30881">
        <ele>223</ele>
        <time>2022-04-17T07:15:45.000Z</time>
      </trkpt>
      <trkpt lat="43.29422" lon="2.30879">
        <ele>223</ele>
        <time>2022-04-17T07:15:46.000Z</time>
      </trkpt>
      <trkpt lat="43.29424" lon="2.30878">
        <ele>222.9</ele>
        <time>2022-04-17T07:15:47.000Z</time>
      </trkpt>
      <trkpt lat="43.29425" lon="2.30875">
        <ele>222.9</ele>
        <time>2022-04-17T07:15:48.000Z</time>
      </trkpt>
      <trkpt lat="43.29427" lon="2.30873">
        <ele>222.9</ele>
        <time>2022-04-17T07:15:49.000Z</time>
      </trkpt>
      <trkpt lat="43.29428" lon="2.30871">
        <ele>222.8</ele>
        <time>2022-04-17T07:15:50.000Z</time>
      </trkpt>
      <trkpt lat="43.2943" lon="2.30869">
        <ele>222.8</ele>
        <time>2022-04-17T07:15:51.000Z</time>
      </trkpt>
      <trkpt lat="43.29431" lon="2.30866">
        <ele>222.8</ele>
        <time>2022-04-17T07:15:52.000Z</time>
      </trkpt>
      <trkpt lat="43.29433" lon="2.30864">
        <ele>222.8</ele>
        <time>2022-04-17T07:15:53.000Z</time>
      </trkpt>
      <trkpt lat="43.29434" lon="2.30861">
        <ele>222.8</ele>
        <time>2022-04-17T07:15:54.000Z</time>
      </trkpt>
      <trkpt lat="43.29436" lon="2.30859">
        <ele>222.8</ele>
        <time>2022-04-17T07:15:55.000Z</time>
      </trkpt>
      <trkpt lat="43.29437" lon="2.30856">
        <ele>222.8</ele>
        <time>2022-04-17T07:15:56.000Z</time>
      </trkpt>
      <trkpt lat="43.29439" lon="2.30854">
        <ele>222.8</ele>
        <time>2022-04-17T07:15:57.000Z</time>
      </trkpt>
      <trkpt lat="43.29441" lon="2.30851">
        <ele>222.8</ele>
        <time>2022-04-17T07:15:58.000Z</time>
      </trkpt>
      <trkpt lat="43.29442" lon="2.30849">
        <ele>222.8</ele>
        <time>2022-04-17T07:15:59.000Z</time>
      </trkpt>
      <trkpt lat="43.29444" lon="2.30846">
        <ele>222.8</ele>
        <time>2022-04-17T07:16:00.000Z</time>
      </trkpt>
      <trkpt lat="43.29445" lon="2.30844">
        <ele>222.8</ele>
        <time>2022-04-17T07:16:01.000Z</time>
      </trkpt>
      <trkpt lat="43.29446" lon="2.30842">
        <ele>222.8</ele>
        <time>2022-04-17T07:16:02.000Z</time>
      </trkpt>
      <trkpt lat="43.29447" lon="2.3084">
        <ele>222.8</ele>
        <time>2022-04-17T07:16:03.000Z</time>
      </trkpt>
      <trkpt lat="43.29448" lon="2.30838">
        <ele>222.9</ele>
        <time>2022-04-17T07:16:04.000Z</time>
      </trkpt>
      <trkpt lat="43.29449" lon="2.30836">
        <ele>222.9</ele>
        <time>2022-04-17T07:16:05.000Z</time>
      </trkpt>
      <trkpt lat="43.2945" lon="2.30833">
        <ele>223</ele>
        <time>2022-04-17T07:16:06.000Z</time>
      </trkpt>
      <trkpt lat="43.29452" lon="2.30831">
        <ele>223.1</ele>
        <time>2022-04-17T07:16:07.000Z</time>
      </trkpt>
      <trkpt lat="43.29454" lon="2.30829">
        <ele>223.2</ele>
        <time>2022-04-17T07:16:08.000Z</time>
      </trkpt>
      <trkpt lat="43.29455" lon="2.30827">
        <ele>223.3</ele>
        <time>2022-04-17T07:16:09.000Z</time>
      </trkpt>
      <trkpt lat="43.29457" lon="2.30825">
        <ele>223.3</ele>
        <time>2022-04-17T07:16:10.000Z</time>
      </trkpt>
      <trkpt lat="43.29458" lon="2.30824">
        <ele>223.3</ele>
        <time>2022-04-17T07:16:11.000Z</time>
      </trkpt>
      <trkpt lat="43.2946" lon="2.30823">
        <ele>223.2</ele>
        <time>2022-04-17T07:16:12.000Z</time>
      </trkpt>
      <trkpt lat="43.29462" lon="2.30823">
        <ele>223.1</ele>
        <time>2022-04-17T07:16:13.000Z</time>
      </trkpt>
      <trkpt lat="43.29464" lon="2.30823">
        <ele>222.9</ele>
        <time>2022-04-17T07:16:14.000Z</time>
      </trkpt>
      <trkpt lat="43.29466" lon="2.30823">
        <ele>222.6</ele>
        <time>2022-04-17T07:16:15.000Z</time>
      </trkpt>
      <trkpt lat="43.29468" lon="2.30824">
        <ele>222.3</ele>
        <time>2022-04-17T07:16:16.000Z</time>
      </trkpt>
      <trkpt lat="43.29469" lon="2.30824">
        <ele>222.1</ele>
        <time>2022-04-17T07:16:17.000Z</time>
      </trkpt>
      <trkpt lat="43.29471" lon="2.30824">
        <ele>221.9</ele>
        <time>2022-04-17T07:16:18.000Z</time>
      </trkpt>
      <trkpt lat="43.29472" lon="2.30824">
        <ele>221.8</ele>
        <time>2022-04-17T07:16:19.000Z</time>
      </trkpt>
      <trkpt lat="43.29474" lon="2.30824">
        <ele>221.7</ele>
        <time>2022-04-17T07:16:20.000Z</time>
      </trkpt>
      <trkpt lat="43.29475" lon="2.30823">
        <ele>221.6</ele>
        <time>2022-04-17T07:16:21.000Z</time>
      </trkpt>
      <trkpt lat="43.29477" lon="2.30823">
        <ele>221.5</ele>
        <time>2022-04-17T07:16:22.000Z</time>
      </trkpt>
      <trkpt lat="43.29478" lon="2.30822">
        <ele>221.5</ele>
        <time>2022-04-17T07:16:23.000Z</time>
      </trkpt>
      <trkpt lat="43.2948" lon="2.30822">
        <ele>221.4</ele>
        <time>2022-04-17T07:16:24.000Z</time>
      </trkpt>
      <trkpt lat="43.29481" lon="2.30821">
        <ele>221.4</ele>
        <time>2022-04-17T07:16:25.000Z</time>
      </trkpt>
      <trkpt lat="43.29483" lon="2.3082">
        <ele>221.3</ele>
        <time>2022-04-17T07:16:26.000Z</time>
      </trkpt>
      <trkpt lat="43.29484" lon="2.30819">
        <ele>221.3</ele>
        <time>2022-04-17T07:16:27.000Z</time>
      </trkpt>
      <trkpt lat="43.29486" lon="2.30819">
        <ele>221.3</ele>
        <time>2022-04-17T07:16:28.000Z</time>
      </trkpt>
      <trkpt lat="43.29488" lon="2.30818">
        <ele>221.2</ele>
        <time>2022-04-17T07:16:29.000Z</time>
      </trkpt>
      <trkpt lat="43.2949" lon="2.30817">
        <ele>221.2</ele>
        <time>2022-04-17T07:16:30.000Z</time>
      </trkpt>
      <trkpt lat="43.29491" lon="2.30816">
        <ele>221.2</ele>
        <time>2022-04-17T07:16:31.000Z</time>
      </trkpt>
      <trkpt lat="43.29493" lon="2.30815">
        <ele>221.1</ele>
        <time>2022-04-17T07:16:32.000Z</time>
      </trkpt>
      <trkpt lat="43.29495" lon="2.30814">
        <ele>221.1</ele>
        <time>2022-04-17T07:16:33.000Z</time>
      </trkpt>
      <trkpt lat="43.29497" lon="2.30814">
        <ele>221.1</ele>
        <time>2022-04-17T07:16:34.000Z</time>
      </trkpt>
      <trkpt lat="43.29499" lon="2.30813">
        <ele>221.1</ele>
        <time>2022-04-17T07:16:35.000Z</time>
      </trkpt>
      <trkpt lat="43.29501" lon="2.30812">
        <ele>221.1</ele>
        <time>2022-04-17T07:16:36.000Z</time>
      </trkpt>
      <trkpt lat="43.29503" lon="2.30811">
        <ele>221.2</ele>
        <time>2022-04-17T07:16:37.000Z</time>
      </trkpt>
      <trkpt lat="43.29505" lon="2.3081">
        <ele>221.2</ele>
        <time>2022-04-17T07:16:38.000Z</time>
      </trkpt>
      <trkpt lat="43.29507" lon="2.30809">
        <ele>221.3</ele>
        <time>2022-04-17T07:16:39.000Z</time>
      </trkpt>
      <trkpt lat="43.29508" lon="2.30809">
        <ele>221.4</ele>
        <time>2022-04-17T07:16:40.000Z</time>
      </trkpt>
      <trkpt lat="43.2951" lon="2.30808">
        <ele>221.6</ele>
        <time>2022-04-17T07:16:41.000Z</time>
      </trkpt>
      <trkpt lat="43.29512" lon="2.30806">
        <ele>221.7</ele>
        <time>2022-04-17T07:16:42.000Z</time>
      </trkpt>
      <trkpt lat="43.29513" lon="2.30805">
        <ele>221.9</ele>
        <time>2022-04-17T07:16:43.000Z</time>
      </trkpt>
      <trkpt lat="43.29514" lon="2.30804">
        <ele>222.1</ele>
        <time>2022-04-17T07:16:44.000Z</time>
      </trkpt>
      <trkpt lat="43.29515" lon="2.30802">
        <ele>222.3</ele>
        <time>2022-04-17T07:16:45.000Z</time>
      </trkpt>
      <trkpt lat="43.29516" lon="2.30801">
        <ele>222.6</ele>
        <time>2022-04-17T07:16:46.000Z</time>
      </trkpt>
      <trkpt lat="43.29518" lon="2.30799">
        <ele>222.8</ele>
        <time>2022-04-17T07:16:47.000Z</time>
      </trkpt>
      <trkpt lat="43.29519" lon="2.30798">
        <ele>223.1</ele>
        <time>2022-04-17T07:16:48.000Z</time>
      </trkpt>
      <trkpt lat="43.2952" lon="2.30796">
        <ele>223.3</ele>
        <time>2022-04-17T07:16:49.000Z</time>
      </trkpt>
      <trkpt lat="43.29521" lon="2.30795">
        <ele>223.6</ele>
        <time>2022-04-17T07:16:50.000Z</time>
      </trkpt>
      <trkpt lat="43.29523" lon="2.30793">
        <ele>223.8</ele>
        <time>2022-04-17T07:16:51.000Z</time>
      </trkpt>
      <trkpt lat="43.29524" lon="2.30792">
        <ele>224</ele>
        <time>2022-04-17T07:16:52.000Z</time>
      </trkpt>
      <trkpt lat="43.29525" lon="2.3079">
        <ele>224.3</ele>
        <time>2022-04-17T07:16:53.000Z</time>
      </trkpt>
      <trkpt lat="43.29527" lon="2.30788">
        <ele>224.5</ele>
        <time>2022-04-17T07:16:54.000Z</time>
      </trkpt>
      <trkpt lat="43.29528" lon="2.30787">
        <ele>224.7</ele>
        <time>2022-04-17T07:16:55.000Z</time>
      </trkpt>
      <trkpt lat="43.29529" lon="2.30785">
        <ele>225</ele>
        <time>2022-04-17T07:16:56.000Z</time>
      </trkpt>
      <trkpt lat="43.29531" lon="2.30784">
        <ele>225.2</ele>
        <time>2022-04-17T07:16:57.000Z</time>
      </trkpt>
      <trkpt lat="43.29532" lon="2.30782">
        <ele>225.4</ele>
        <time>2022-04-17T07:16:58.000Z</time>
      </trkpt>
      <trkpt lat="43.29533" lon="2.30781">
        <ele>225.6</ele>
        <time>2022-04-17T07:16:59.000Z</time>
      </trkpt>
      <trkpt lat="43.29534" lon="2.3078">
        <ele>225.7</ele>
        <time>2022-04-17T07:17:00.000Z</time>
      </trkpt>
      <trkpt lat="43.29535" lon="2.3078">
        <ele>225.7</ele>
        <time>2022-04-17T07:17:01.000Z</time>
      </trkpt>
      <trkpt lat="43.29536" lon="2.30781">
        <ele>225.6</ele>
        <time>2022-04-17T07:17:02.000Z</time>
      </trkpt>
      <trkpt lat="43.29538" lon="2.30782">
        <ele>225.3</ele>
        <time>2022-04-17T07:17:03.000Z</time>
      </trkpt>
      <trkpt lat="43.29539" lon="2.30784">
        <ele>224.9</ele>
        <time>2022-04-17T07:17:04.000Z</time>
      </trkpt>
      <trkpt lat="43.2954" lon="2.30786">
        <ele>224.4</ele>
        <time>2022-04-17T07:17:05.000Z</time>
      </trkpt>
      <trkpt lat="43.29541" lon="2.30789">
        <ele>223.8</ele>
        <time>2022-04-17T07:17:06.000Z</time>
      </trkpt>
      <trkpt lat="43.29543" lon="2.30792">
        <ele>223.2</ele>
        <time>2022-04-17T07:17:07.000Z</time>
      </trkpt>
      <trkpt lat="43.29544" lon="2.30794">
        <ele>222.7</ele>
        <time>2022-04-17T07:17:08.000Z</time>
      </trkpt>
      <trkpt lat="43.29545" lon="2.30797">
        <ele>222.1</ele>
        <time>2022-04-17T07:17:09.000Z</time>
      </trkpt>
      <trkpt lat="43.29547" lon="2.30799">
        <ele>221.6</ele>
        <time>2022-04-17T07:17:10.000Z</time>
      </trkpt>
      <trkpt lat="43.29548" lon="2.30801">
        <ele>221.2</ele>
        <time>2022-04-17T07:17:11.000Z</time>
      </trkpt>
      <trkpt lat="43.29549" lon="2.30803">
        <ele>220.8</ele>
        <time>2022-04-17T07:17:12.000Z</time>
      </trkpt>
      <trkpt lat="43.2955" lon="2.30805">
        <ele>220.4</ele>
        <time>2022-04-17T07:17:13.000Z</time>
      </trkpt>
      <trkpt lat="43.29552" lon="2.30807">
        <ele>220</ele>
        <time>2022-04-17T07:17:14.000Z</time>
      </trkpt>
      <trkpt lat="43.29553" lon="2.30809">
        <ele>219.6</ele>
        <time>2022-04-17T07:17:15.000Z</time>
      </trkpt>
      <trkpt lat="43.29554" lon="2.30811">
        <ele>219.2</ele>
        <time>2022-04-17T07:17:16.000Z</time>
      </trkpt>
      <trkpt lat="43.29556" lon="2.30813">
        <ele>218.7</ele>
        <time>2022-04-17T07:17:17.000Z</time>
      </trkpt>
      <trkpt lat="43.29557" lon="2.30815">
        <ele>218.3</ele>
        <time>2022-04-17T07:17:18.000Z</time>
      </trkpt>
      <trkpt lat="43.29558" lon="2.30818">
        <ele>217.8</ele>
        <time>2022-04-17T07:17:19.000Z</time>
      </trkpt>
      <trkpt lat="43.2956" lon="2.3082">
        <ele>217.4</ele>
        <time>2022-04-17T07:17:20.000Z</time>
      </trkpt>
      <trkpt lat="43.29561" lon="2.30821">
        <ele>217</ele>
        <time>2022-04-17T07:17:21.000Z</time>
      </trkpt>
      <trkpt lat="43.29562" lon="2.30823">
        <ele>216.8</ele>
        <time>2022-04-17T07:17:22.000Z</time>
      </trkpt>
      <trkpt lat="43.29562" lon="2.30824">
        <ele>216.5</ele>
        <time>2022-04-17T07:17:23.000Z</time>
      </trkpt>
      <trkpt lat="43.29563" lon="2.30824">
        <ele>216.4</ele>
        <time>2022-04-17T07:17:24.000Z</time>
      </trkpt>
      <trkpt lat="43.29563" lon="2.30825">
        <ele>216.3</ele>
        <time>2022-04-17T07:17:25.000Z</time>
      </trkpt>
      <trkpt lat="43.29563" lon="2.30825">
        <ele>216.3</ele>
        <time>2022-04-17T07:17:26.000Z</time>
      </trkpt>
      <trkpt lat="43.29563" lon="2.30825">
        <ele>216.2</ele>
        <time>2022-04-17T07:17:27.000Z</time>
      </trkpt>
      <trkpt lat="43.29563" lon="2.30825">
        <ele>216.2</ele>
        <time>2022-04-17T07:17:28.000Z</time>
      </trkpt>
      <trkpt lat="43.29563" lon="2.30825">
        <ele>216.2</ele>
        <time>2022-04-17T07:17:29.000Z</time>
      </trkpt>
      <trkpt lat="43.29563" lon="2.30825">
        <ele>216.2</ele>
        <time>2022-04-17T07:17:30.000Z</time>
      </trkpt>
      <trkpt lat="43.29563" lon="2.30825">
        <ele>216.2</ele>
        <time>2022-04-17T07:17:31.000Z</time>
      </trkpt>
      <trkpt lat="43.29563" lon="2.30825">
        <ele>216.2</ele>
        <time>2022-04-17T07:17:32.000Z</time>
      </trkpt>
      <trkpt lat="43.29563" lon="2.30825">
        <ele>216.2</ele>
        <time>2022-04-17T07:17:33.000Z</time>
      </trkpt>
      <trkpt lat="43.29563" lon="2.30825">
        <ele>216.2</ele>
        <time>2022-04-17T07:17:34.000Z</time>
      </trkpt>
      <trkpt lat="43.29563" lon="2.30825">
        <ele>216.2</ele>
        <time>2022-04-17T07:17:35.000Z</time>
      </trkpt>
      <trkpt lat="43.29563" lon="2.30825">
        <ele>216.2</ele>
        <time>2022-04-17T07:17:36.000Z</time>
      </trkpt>
      <trkpt lat="43.29563" lon="2.30825">
        <ele>216.2</ele>
        <time>2022-04-17T07:17:37.000Z</time>
      </trkpt>
      <trkpt lat="43.29563" lon="2.30825">
        <ele>216.2</ele>
        <time>2022-04-17T07:17:38.000Z</time>
      </trkpt>
      <trkpt lat="43.29563" lon="2.30825">
        <ele>216.2</ele>
        <time>2022-04-17T07:17:39.000Z</time>
      </trkpt>
      <trkpt lat="43.29563" lon="2.30825">
        <ele>216.2</ele>
        <time>2022-04-17T07:17:40.000Z</time>
      </trkpt>
      <trkpt lat="43.29563" lon="2.30825">
        <ele>216.2</ele>
        <time>2022-04-17T07:17:41.000Z</time>
      </trkpt>
      <trkpt lat="43.29563" lon="2.30825">
        <ele>216.2</ele>
        <time>2022-04-17T07:17:42.000Z</time>
      </trkpt>
      <trkpt lat="43.29563" lon="2.30825">
        <ele>216.2</ele>
        <time>2022-04-17T07:17:43.000Z</time>
      </trkpt>
      <trkpt lat="43.29564" lon="2.30826">
        <ele>216.1</ele>
        <time>2022-04-17T07:17:44.000Z</time>
      </trkpt>
      <trkpt lat="43.29564" lon="2.30827">
        <ele>215.9</ele>
        <time>2022-04-17T07:17:45.000Z</time>
      </trkpt>
      <trkpt lat="43.29565" lon="2.30827">
        <ele>215.8</ele>
        <time>2022-04-17T07:17:46.000Z</time>
      </trkpt>
      <trkpt lat="43.29566" lon="2.30828">
        <ele>215.7</ele>
        <time>2022-04-17T07:17:47.000Z</time>
      </trkpt>
      <trkpt lat="43.29567" lon="2.30828">
        <ele>215.6</ele>
        <time>2022-04-17T07:17:48.000Z</time>
      </trkpt>
      <trkpt lat="43.29568" lon="2.30828">
        <ele>215.5</ele>
        <time>2022-04-17T07:17:49.000Z</time>
      </trkpt>
      <trkpt lat="43.29568" lon="2.30828">
        <ele>215.5</ele>
        <time>2022-04-17T07:17:50.000Z</time>
      </trkpt>
      <trkpt lat="43.29569" lon="2.30828">
        <ele>215.6</ele>
        <time>2022-04-17T07:17:51.000Z</time>
      </trkpt>
      <trkpt lat="43.2957" lon="2.30827">
        <ele>215.6</ele>
        <time>2022-04-17T07:17:52.000Z</time>
      </trkpt>
      <trkpt lat="43.29571" lon="2.30826">
        <ele>215.7</ele>
        <time>2022-04-17T07:17:53.000Z</time>
      </trkpt>
      <trkpt lat="43.29572" lon="2.30825">
        <ele>215.9</ele>
        <time>2022-04-17T07:17:54.000Z</time>
      </trkpt>
      <trkpt lat="43.29573" lon="2.30824">
        <ele>216.1</ele>
        <time>2022-04-17T07:17:55.000Z</time>
      </trkpt>
      <trkpt lat="43.29574" lon="2.30823">
        <ele>216.3</ele>
        <time>2022-04-17T07:17:56.000Z</time>
      </trkpt>
      <trkpt lat="43.29575" lon="2.30821">
        <ele>216.5</ele>
        <time>2022-04-17T07:17:57.000Z</time>
      </trkpt>
      <trkpt lat="43.29576" lon="2.3082">
        <ele>216.8</ele>
        <time>2022-04-17T07:17:58.000Z</time>
      </trkpt>
      <trkpt lat="43.29576" lon="2.30818">
        <ele>217.1</ele>
        <time>2022-04-17T07:17:59.000Z</time>
      </trkpt>
      <trkpt lat="43.29577" lon="2.30816">
        <ele>217.4</ele>
        <time>2022-04-17T07:18:00.000Z</time>
      </trkpt>
      <trkpt lat="43.29578" lon="2.30814">
        <ele>217.7</ele>
        <time>2022-04-17T07:18:01.000Z</time>
      </trkpt>
      <trkpt lat="43.29579" lon="2.30812">
        <ele>218</ele>
        <time>2022-04-17T07:18:02.000Z</time>
      </trkpt>
      <trkpt lat="43.2958" lon="2.3081">
        <ele>218.3</ele>
        <time>2022-04-17T07:18:03.000Z</time>
      </trkpt>
      <trkpt lat="43.29581" lon="2.30808">
        <ele>218.7</ele>
        <time>2022-04-17T07:18:04.000Z</time>
      </trkpt>
      <trkpt lat="43.29581" lon="2.30806">
        <ele>219</ele>
        <time>2022-04-17T07:18:05.000Z</time>
      </trkpt>
      <trkpt lat="43.29582" lon="2.30804">
        <ele>219.3</ele>
        <time>2022-04-17T07:18:06.000Z</time>
      </trkpt>
      <trkpt lat="43.29582" lon="2.30802">
        <ele>219.6</ele>
        <time>2022-04-17T07:18:07.000Z</time>
      </trkpt>
      <trkpt lat="43.29583" lon="2.30801">
        <ele>219.9</ele>
        <time>2022-04-17T07:18:08.000Z</time>
      </trkpt>
      <trkpt lat="43.29583" lon="2.30799">
        <ele>220.2</ele>
        <time>2022-04-17T07:18:09.000Z</time>
      </trkpt>
      <trkpt lat="43.29583" lon="2.30797">
        <ele>220.5</ele>
        <time>2022-04-17T07:18:10.000Z</time>
      </trkpt>
      <trkpt lat="43.29583" lon="2.30796">
        <ele>220.8</ele>
        <time>2022-04-17T07:18:11.000Z</time>
      </trkpt>
      <trkpt lat="43.29583" lon="2.30794">
        <ele>221</ele>
        <time>2022-04-17T07:18:12.000Z</time>
      </trkpt>
      <trkpt lat="43.29583" lon="2.30793">
        <ele>221.3</ele>
        <time>2022-04-17T07:18:13.000Z</time>
      </trkpt>
      <trkpt lat="43.29583" lon="2.30791">
        <ele>221.6</ele>
        <time>2022-04-17T07:18:14.000Z</time>
      </trkpt>
      <trkpt lat="43.29583" lon="2.3079">
        <ele>221.8</ele>
        <time>2022-04-17T07:18:15.000Z</time>
      </trkpt>
      <trkpt lat="43.29583" lon="2.30788">
        <ele>222.1</ele>
        <time>2022-04-17T07:18:16.000Z</time>
      </trkpt>
      <trkpt lat="43.29583" lon="2.30787">
        <ele>222.3</ele>
        <time>2022-04-17T07:18:17.000Z</time>
      </trkpt>
      <trkpt lat="43.29583" lon="2.30786">
        <ele>222.6</ele>
        <time>2022-04-17T07:18:18.000Z</time>
      </trkpt>
      <trkpt lat="43.29583" lon="2.30784">
        <ele>222.8</ele>
        <time>2022-04-17T07:18:19.000Z</time>
      </trkpt>
      <trkpt lat="43.29583" lon="2.30783">
        <ele>223.1</ele>
        <time>2022-04-17T07:18:20.000Z</time>
      </trkpt>
      <trkpt lat="43.29583" lon="2.30781">
        <ele>223.4</ele>
        <time>2022-04-17T07:18:21.000Z</time>
      </trkpt>
      <trkpt lat="43.29583" lon="2.3078">
        <ele>223.6</ele>
        <time>2022-04-17T07:18:22.000Z</time>
      </trkpt>
      <trkpt lat="43.29583" lon="2.30778">
        <ele>223.9</ele>
        <time>2022-04-17T07:18:23.000Z</time>
      </trkpt>
      <trkpt lat="43.29583" lon="2.30777">
        <ele>224.2</ele>
        <time>2022-04-17T07:18:24.000Z</time>
      </trkpt>
      <trkpt lat="43.29583" lon="2.30775">
        <ele>224.4</ele>
        <time>2022-04-17T07:18:25.000Z</time>
      </trkpt>
      <trkpt lat="43.29583" lon="2.30774">
        <ele>224.7</ele>
        <time>2022-04-17T07:18:26.000Z</time>
      </trkpt>
      <trkpt lat="43.29583" lon="2.30772">
        <ele>225</ele>
        <time>2022-04-17T07:18:27.000Z</time>
      </trkpt>
      <trkpt lat="43.29583" lon="2.30771">
        <ele>225.2</ele>
        <time>2022-04-17T07:18:28.000Z</time>
      </trkpt>
      <trkpt lat="43.29583" lon="2.3077">
        <ele>225.5</ele>
        <time>2022-04-17T07:18:29.000Z</time>
      </trkpt>
      <trkpt lat="43.29583" lon="2.30768">
        <ele>225.7</ele>
        <time>2022-04-17T07:18:30.000Z</time>
      </trkpt>
      <trkpt lat="43.29583" lon="2.30767">
        <ele>226</ele>
        <time>2022-04-17T07:18:31.000Z</time>
      </trkpt>
      <trkpt lat="43.29584" lon="2.30766">
        <ele>226.1</ele>
        <time>2022-04-17T07:18:32.000Z</time>
      </trkpt>
      <trkpt lat="43.29584" lon="2.30764">
        <ele>226.4</ele>
        <time>2022-04-17T07:18:33.000Z</time>
      </trkpt>
      <trkpt lat="43.29584" lon="2.30763">
        <ele>226.6</ele>
        <time>2022-04-17T07:18:34.000Z</time>
      </trkpt>
      <trkpt lat="43.29584" lon="2.30762">
        <ele>226.7</ele>
        <time>2022-04-17T07:18:35.000Z</time>
      </trkpt>
      <trkpt lat="43.29584" lon="2.30761">
        <ele>226.9</ele>
        <time>2022-04-17T07:18:36.000Z</time>
      </trkpt>
      <trkpt lat="43.29584" lon="2.30761">
        <ele>227</ele>
        <time>2022-04-17T07:18:37.000Z</time>
      </trkpt>
      <trkpt lat="43.29584" lon="2.3076">
        <ele>227.2</ele>
        <time>2022-04-17T07:18:38.000Z</time>
      </trkpt>
      <trkpt lat="43.29583" lon="2.30759">
        <ele>227.4</ele>
        <time>2022-04-17T07:18:39.000Z</time>
      </trkpt>
      <trkpt lat="43.29583" lon="2.30758">
        <ele>227.6</ele>
        <time>2022-04-17T07:18:40.000Z</time>
      </trkpt>
      <trkpt lat="43.29583" lon="2.30757">
        <ele>227.7</ele>
        <time>2022-04-17T07:18:41.000Z</time>
      </trkpt>
      <trkpt lat="43.29582" lon="2.30757">
        <ele>227.9</ele>
        <time>2022-04-17T07:18:42.000Z</time>
      </trkpt>
      <trkpt lat="43.29581" lon="2.30756">
        <ele>228.1</ele>
        <time>2022-04-17T07:18:43.000Z</time>
      </trkpt>
      <trkpt lat="43.2958" lon="2.30755">
        <ele>228.3</ele>
        <time>2022-04-17T07:18:44.000Z</time>
      </trkpt>
      <trkpt lat="43.29579" lon="2.30754">
        <ele>228.5</ele>
        <time>2022-04-17T07:18:45.000Z</time>
      </trkpt>
      <trkpt lat="43.29579" lon="2.30753">
        <ele>228.8</ele>
        <time>2022-04-17T07:18:46.000Z</time>
      </trkpt>
      <trkpt lat="43.29578" lon="2.30751">
        <ele>229</ele>
        <time>2022-04-17T07:18:47.000Z</time>
      </trkpt>
      <trkpt lat="43.29578" lon="2.3075">
        <ele>229.3</ele>
        <time>2022-04-17T07:18:48.000Z</time>
      </trkpt>
      <trkpt lat="43.29578" lon="2.30749">
        <ele>229.4</ele>
        <time>2022-04-17T07:18:49.000Z</time>
      </trkpt>
      <trkpt lat="43.29578" lon="2.30747">
        <ele>229.5</ele>
        <time>2022-04-17T07:18:50.000Z</time>
      </trkpt>
      <trkpt lat="43.29578" lon="2.30745">
        <ele>229.7</ele>
        <time>2022-04-17T07:18:51.000Z</time>
      </trkpt>
      <trkpt lat="43.29578" lon="2.30743">
        <ele>229.8</ele>
        <time>2022-04-17T07:18:52.000Z</time>
      </trkpt>
      <trkpt lat="43.29579" lon="2.30742">
        <ele>229.9</ele>
        <time>2022-04-17T07:18:53.000Z</time>
      </trkpt>
      <trkpt lat="43.29579" lon="2.3074">
        <ele>230.1</ele>
        <time>2022-04-17T07:18:54.000Z</time>
      </trkpt>
      <trkpt lat="43.2958" lon="2.30738">
        <ele>230.2</ele>
        <time>2022-04-17T07:18:55.000Z</time>
      </trkpt>
      <trkpt lat="43.29581" lon="2.30736">
        <ele>230.3</ele>
        <time>2022-04-17T07:18:56.000Z</time>
      </trkpt>
      <trkpt lat="43.29581" lon="2.30734">
        <ele>230.5</ele>
        <time>2022-04-17T07:18:57.000Z</time>
      </trkpt>
      <trkpt lat="43.29582" lon="2.30732">
        <ele>230.6</ele>
        <time>2022-04-17T07:18:58.000Z</time>
      </trkpt>
      <trkpt lat="43.29582" lon="2.3073">
        <ele>230.7</ele>
        <time>2022-04-17T07:18:59.000Z</time>
      </trkpt>
      <trkpt lat="43.29583" lon="2.30728">
        <ele>230.9</ele>
        <time>2022-04-17T07:19:00.000Z</time>
      </trkpt>
      <trkpt lat="43.29583" lon="2.30726">
        <ele>231</ele>
        <time>2022-04-17T07:19:01.000Z</time>
      </trkpt>
      <trkpt lat="43.29584" lon="2.30724">
        <ele>231.1</ele>
        <time>2022-04-17T07:19:02.000Z</time>
      </trkpt>
      <trkpt lat="43.29584" lon="2.30722">
        <ele>231.2</ele>
        <time>2022-04-17T07:19:03.000Z</time>
      </trkpt>
      <trkpt lat="43.29584" lon="2.30721">
        <ele>231.3</ele>
        <time>2022-04-17T07:19:04.000Z</time>
      </trkpt>
      <trkpt lat="43.29584" lon="2.30719">
        <ele>231.3</ele>
        <time>2022-04-17T07:19:05.000Z</time>
      </trkpt>
      <trkpt lat="43.29585" lon="2.30717">
        <ele>231.4</ele>
        <time>2022-04-17T07:19:06.000Z</time>
      </trkpt>
      <trkpt lat="43.29585" lon="2.30716">
        <ele>231.4</ele>
        <time>2022-04-17T07:19:07.000Z</time>
      </trkpt>
      <trkpt lat="43.29586" lon="2.30714">
        <ele>231.4</ele>
        <time>2022-04-17T07:19:08.000Z</time>
      </trkpt>
      <trkpt lat="43.29586" lon="2.30713">
        <ele>231.5</ele>
        <time>2022-04-17T07:19:09.000Z</time>
      </trkpt>
      <trkpt lat="43.29587" lon="2.30711">
        <ele>231.4</ele>
        <time>2022-04-17T07:19:10.000Z</time>
      </trkpt>
      <trkpt lat="43.29587" lon="2.3071">
        <ele>231.4</ele>
        <time>2022-04-17T07:19:11.000Z</time>
      </trkpt>
      <trkpt lat="43.29588" lon="2.30708">
        <ele>231.4</ele>
        <time>2022-04-17T07:19:12.000Z</time>
      </trkpt>
      <trkpt lat="43.29589" lon="2.30707">
        <ele>231.4</ele>
        <time>2022-04-17T07:19:13.000Z</time>
      </trkpt>
      <trkpt lat="43.29589" lon="2.30706">
        <ele>231.4</ele>
        <time>2022-04-17T07:19:14.000Z</time>
      </trkpt>
      <trkpt lat="43.2959" lon="2.30704">
        <ele>231.4</ele>
        <time>2022-04-17T07:19:15.000Z</time>
      </trkpt>
      <trkpt lat="43.2959" lon="2.30703">
        <ele>231.4</ele>
        <time>2022-04-17T07:19:16.000Z</time>
      </trkpt>
      <trkpt lat="43.2959" lon="2.30702">
        <ele>231.4</ele>
        <time>2022-04-17T07:19:17.000Z</time>
      </trkpt>
      <trkpt lat="43.29591" lon="2.307">
        <ele>231.5</ele>
        <time>2022-04-17T07:19:18.000Z</time>
      </trkpt>
      <trkpt lat="43.29591" lon="2.30699">
        <ele>231.5</ele>
        <time>2022-04-17T07:19:19.000Z</time>
      </trkpt>
      <trkpt lat="43.29592" lon="2.30697">
        <ele>231.6</ele>
        <time>2022-04-17T07:19:20.000Z</time>
      </trkpt>
      <trkpt lat="43.29592" lon="2.30695">
        <ele>231.7</ele>
        <time>2022-04-17T07:19:21.000Z</time>
      </trkpt>
      <trkpt lat="43.29592" lon="2.30693">
        <ele>231.8</ele>
        <time>2022-04-17T07:19:22.000Z</time>
      </trkpt>
      <trkpt lat="43.29593" lon="2.30691">
        <ele>231.8</ele>
        <time>2022-04-17T07:19:23.000Z</time>
      </trkpt>
      <trkpt lat="43.29594" lon="2.30689">
        <ele>231.9</ele>
        <time>2022-04-17T07:19:24.000Z</time>
      </trkpt>
      <trkpt lat="43.29594" lon="2.30687">
        <ele>232</ele>
        <time>2022-04-17T07:19:25.000Z</time>
      </trkpt>
      <trkpt lat="43.29595" lon="2.30685">
        <ele>231.9</ele>
        <time>2022-04-17T07:19:26.000Z</time>
      </trkpt>
      <trkpt lat="43.29596" lon="2.30684">
        <ele>231.9</ele>
        <time>2022-04-17T07:19:27.000Z</time>
      </trkpt>
      <trkpt lat="43.29597" lon="2.30682">
        <ele>231.8</ele>
        <time>2022-04-17T07:19:28.000Z</time>
      </trkpt>
      <trkpt lat="43.29599" lon="2.30681">
        <ele>231.7</ele>
        <time>2022-04-17T07:19:29.000Z</time>
      </trkpt>
      <trkpt lat="43.296" lon="2.30679">
        <ele>231.5</ele>
        <time>2022-04-17T07:19:30.000Z</time>
      </trkpt>
      <trkpt lat="43.29601" lon="2.30678">
        <ele>231.4</ele>
        <time>2022-04-17T07:19:31.000Z</time>
      </trkpt>
      <trkpt lat="43.29603" lon="2.30677">
        <ele>231.2</ele>
        <time>2022-04-17T07:19:32.000Z</time>
      </trkpt>
      <trkpt lat="43.29604" lon="2.30676">
        <ele>231.1</ele>
        <time>2022-04-17T07:19:33.000Z</time>
      </trkpt>
      <trkpt lat="43.29605" lon="2.30674">
        <ele>231.1</ele>
        <time>2022-04-17T07:19:34.000Z</time>
      </trkpt>
      <trkpt lat="43.29606" lon="2.30673">
        <ele>231</ele>
        <time>2022-04-17T07:19:35.000Z</time>
      </trkpt>
      <trkpt lat="43.29607" lon="2.30671">
        <ele>231.1</ele>
        <time>2022-04-17T07:19:36.000Z</time>
      </trkpt>
      <trkpt lat="43.29607" lon="2.3067">
        <ele>231.1</ele>
        <time>2022-04-17T07:19:37.000Z</time>
      </trkpt>
      <trkpt lat="43.29608" lon="2.30668">
        <ele>231.1</ele>
        <time>2022-04-17T07:19:38.000Z</time>
      </trkpt>
      <trkpt lat="43.29609" lon="2.30667">
        <ele>231.1</ele>
        <time>2022-04-17T07:19:39.000Z</time>
      </trkpt>
      <trkpt lat="43.29609" lon="2.30665">
        <ele>231.2</ele>
        <time>2022-04-17T07:19:40.000Z</time>
      </trkpt>
      <trkpt lat="43.2961" lon="2.30664">
        <ele>231.2</ele>
        <time>2022-04-17T07:19:41.000Z</time>
      </trkpt>
      <trkpt lat="43.29611" lon="2.30663">
        <ele>231.2</ele>
        <time>2022-04-17T07:19:42.000Z</time>
      </trkpt>
      <trkpt lat="43.29611" lon="2.30661">
        <ele>231.2</ele>
        <time>2022-04-17T07:19:43.000Z</time>
      </trkpt>
      <trkpt lat="43.29612" lon="2.3066">
        <ele>231.2</ele>
        <time>2022-04-17T07:19:44.000Z</time>
      </trkpt>
      <trkpt lat="43.29613" lon="2.30658">
        <ele>231.3</ele>
        <time>2022-04-17T07:19:45.000Z</time>
      </trkpt>
      <trkpt lat="43.29614" lon="2.30656">
        <ele>231.4</ele>
        <time>2022-04-17T07:19:46.000Z</time>
      </trkpt>
      <trkpt lat="43.29614" lon="2.30654">
        <ele>231.5</ele>
        <time>2022-04-17T07:19:47.000Z</time>
      </trkpt>
      <trkpt lat="43.29615" lon="2.30652">
        <ele>231.7</ele>
        <time>2022-04-17T07:19:48.000Z</time>
      </trkpt>
      <trkpt lat="43.29615" lon="2.30649">
        <ele>231.9</ele>
        <time>2022-04-17T07:19:49.000Z</time>
      </trkpt>
      <trkpt lat="43.29615" lon="2.30647">
        <ele>232.2</ele>
        <time>2022-04-17T07:19:50.000Z</time>
      </trkpt>
      <trkpt lat="43.29615" lon="2.30645">
        <ele>232.4</ele>
        <time>2022-04-17T07:19:51.000Z</time>
      </trkpt>
      <trkpt lat="43.29616" lon="2.30642">
        <ele>232.7</ele>
        <time>2022-04-17T07:19:52.000Z</time>
      </trkpt>
      <trkpt lat="43.29616" lon="2.3064">
        <ele>232.9</ele>
        <time>2022-04-17T07:19:53.000Z</time>
      </trkpt>
      <trkpt lat="43.29616" lon="2.30638">
        <ele>233.1</ele>
        <time>2022-04-17T07:19:54.000Z</time>
      </trkpt>
      <trkpt lat="43.29616" lon="2.30635">
        <ele>233.3</ele>
        <time>2022-04-17T07:19:55.000Z</time>
      </trkpt>
      <trkpt lat="43.29617" lon="2.30633">
        <ele>233.5</ele>
        <time>2022-04-17T07:19:56.000Z</time>
      </trkpt>
      <trkpt lat="43.29617" lon="2.30631">
        <ele>233.7</ele>
        <time>2022-04-17T07:19:57.000Z</time>
      </trkpt>
      <trkpt lat="43.29618" lon="2.30629">
        <ele>233.9</ele>
        <time>2022-04-17T07:19:58.000Z</time>
      </trkpt>
      <trkpt lat="43.29619" lon="2.30626">
        <ele>234</ele>
        <time>2022-04-17T07:19:59.000Z</time>
      </trkpt>
      <trkpt lat="43.2962" lon="2.30624">
        <ele>234.1</ele>
        <time>2022-04-17T07:20:00.000Z</time>
      </trkpt>
      <trkpt lat="43.29621" lon="2.30621">
        <ele>234.3</ele>
        <time>2022-04-17T07:20:01.000Z</time>
      </trkpt>
      <trkpt lat="43.29623" lon="2.30618">
        <ele>234.5</ele>
        <time>2022-04-17T07:20:02.000Z</time>
      </trkpt>
      <trkpt lat="43.29624" lon="2.30616">
        <ele>234.6</ele>
        <time>2022-04-17T07:20:03.000Z</time>
      </trkpt>
      <trkpt lat="43.29625" lon="2.30613">
        <ele>234.9</ele>
        <time>2022-04-17T07:20:04.000Z</time>
      </trkpt>
      <trkpt lat="43.29626" lon="2.3061">
        <ele>235.1</ele>
        <time>2022-04-17T07:20:05.000Z</time>
      </trkpt>
      <trkpt lat="43.29626" lon="2.30607">
        <ele>235.4</ele>
        <time>2022-04-17T07:20:06.000Z</time>
      </trkpt>
      <trkpt lat="43.29627" lon="2.30604">
        <ele>235.7</ele>
        <time>2022-04-17T07:20:07.000Z</time>
      </trkpt>
      <trkpt lat="43.29627" lon="2.30601">
        <ele>236.1</ele>
        <time>2022-04-17T07:20:08.000Z</time>
      </trkpt>
      <trkpt lat="43.29627" lon="2.30598">
        <ele>236.4</ele>
        <time>2022-04-17T07:20:09.000Z</time>
      </trkpt>
      <trkpt lat="43.29627" lon="2.30595">
        <ele>236.7</ele>
        <time>2022-04-17T07:20:10.000Z</time>
      </trkpt>
      <trkpt lat="43.29627" lon="2.30593">
        <ele>237</ele>
        <time>2022-04-17T07:20:11.000Z</time>
      </trkpt>
      <trkpt lat="43.29627" lon="2.30592">
        <ele>237.2</ele>
        <time>2022-04-17T07:20:12.000Z</time>
      </trkpt>
      <trkpt lat="43.29627" lon="2.30591">
        <ele>237.4</ele>
        <time>2022-04-17T07:20:13.000Z</time>
      </trkpt>
      <trkpt lat="43.29626" lon="2.3059">
        <ele>237.5</ele>
        <time>2022-04-17T07:20:14.000Z</time>
      </trkpt>
      <trkpt lat="43.29626" lon="2.30589">
        <ele>237.6</ele>
        <time>2022-04-17T07:20:15.000Z</time>
      </trkpt>
      <trkpt lat="43.29626" lon="2.30589">
        <ele>237.7</ele>
        <time>2022-04-17T07:20:16.000Z</time>
      </trkpt>
      <trkpt lat="43.29626" lon="2.30587">
        <ele>237.9</ele>
        <time>2022-04-17T07:20:17.000Z</time>
      </trkpt>
      <trkpt lat="43.29627" lon="2.30586">
        <ele>238</ele>
        <time>2022-04-17T07:20:18.000Z</time>
      </trkpt>
      <trkpt lat="43.29627" lon="2.30584">
        <ele>238.2</ele>
        <time>2022-04-17T07:20:19.000Z</time>
      </trkpt>
      <trkpt lat="43.29627" lon="2.30583">
        <ele>238.3</ele>
        <time>2022-04-17T07:20:20.000Z</time>
      </trkpt>
      <trkpt lat="43.29627" lon="2.30582">
        <ele>238.4</ele>
        <time>2022-04-17T07:20:21.000Z</time>
      </trkpt>
      <trkpt lat="43.29627" lon="2.30581">
        <ele>238.4</ele>
        <time>2022-04-17T07:20:22.000Z</time>
      </trkpt>
      <trkpt lat="43.29627" lon="2.30581">
        <ele>238.4</ele>
        <time>2022-04-17T07:20:23.000Z</time>
      </trkpt>
      <trkpt lat="43.29627" lon="2.3058">
        <ele>238.5</ele>
        <time>2022-04-17T07:20:24.000Z</time>
      </trkpt>
      <trkpt lat="43.29627" lon="2.3058">
        <ele>238.5</ele>
        <time>2022-04-17T07:20:25.000Z</time>
      </trkpt>
      <trkpt lat="43.29627" lon="2.3058">
        <ele>238.5</ele>
        <time>2022-04-17T07:20:26.000Z</time>
      </trkpt>
      <trkpt lat="43.29626" lon="2.3058">
        <ele>238.6</ele>
        <time>2022-04-17T07:20:27.000Z</time>
      </trkpt>
      <trkpt lat="43.29626" lon="2.3058">
        <ele>238.6</ele>
        <time>2022-04-17T07:20:28.000Z</time>
      </trkpt>
      <trkpt lat="43.29626" lon="2.3058">
        <ele>238.7</ele>
        <time>2022-04-17T07:20:29.000Z</time>
      </trkpt>
      <trkpt lat="43.29625" lon="2.3058">
        <ele>238.7</ele>
        <time>2022-04-17T07:20:30.000Z</time>
      </trkpt>
      <trkpt lat="43.29625" lon="2.30579">
        <ele>238.7</ele>
        <time>2022-04-17T07:20:31.000Z</time>
      </trkpt>
      <trkpt lat="43.29626" lon="2.30579">
        <ele>238.7</ele>
        <time>2022-04-17T07:20:32.000Z</time>
      </trkpt>
      <trkpt lat="43.29626" lon="2.30578">
        <ele>238.7</ele>
        <time>2022-04-17T07:20:33.000Z</time>
      </trkpt>
      <trkpt lat="43.29628" lon="2.30576">
        <ele>238.7</ele>
        <time>2022-04-17T07:20:34.000Z</time>
      </trkpt>
      <trkpt lat="43.29629" lon="2.30574">
        <ele>238.7</ele>
        <time>2022-04-17T07:20:35.000Z</time>
      </trkpt>
      <trkpt lat="43.2963" lon="2.30572">
        <ele>238.7</ele>
        <time>2022-04-17T07:20:36.000Z</time>
      </trkpt>
      <trkpt lat="43.29632" lon="2.3057">
        <ele>238.7</ele>
        <time>2022-04-17T07:20:37.000Z</time>
      </trkpt>
      <trkpt lat="43.29634" lon="2.30568">
        <ele>238.7</ele>
        <time>2022-04-17T07:20:38.000Z</time>
      </trkpt>
      <trkpt lat="43.29635" lon="2.30565">
        <ele>238.8</ele>
        <time>2022-04-17T07:20:39.000Z</time>
      </trkpt>
      <trkpt lat="43.29637" lon="2.30563">
        <ele>238.8</ele>
        <time>2022-04-17T07:20:40.000Z</time>
      </trkpt>
      <trkpt lat="43.29639" lon="2.3056">
        <ele>238.9</ele>
        <time>2022-04-17T07:20:41.000Z</time>
      </trkpt>
      <trkpt lat="43.2964" lon="2.30558">
        <ele>238.9</ele>
        <time>2022-04-17T07:20:42.000Z</time>
      </trkpt>
      <trkpt lat="43.29641" lon="2.30555">
        <ele>239</ele>
        <time>2022-04-17T07:20:43.000Z</time>
      </trkpt>
      <trkpt lat="43.29643" lon="2.30553">
        <ele>239.1</ele>
        <time>2022-04-17T07:20:44.000Z</time>
      </trkpt>
      <trkpt lat="43.29644" lon="2.3055">
        <ele>239.2</ele>
        <time>2022-04-17T07:20:45.000Z</time>
      </trkpt>
      <trkpt lat="43.29646" lon="2.30548">
        <ele>239.4</ele>
        <time>2022-04-17T07:20:46.000Z</time>
      </trkpt>
      <trkpt lat="43.29647" lon="2.30545">
        <ele>239.5</ele>
        <time>2022-04-17T07:20:47.000Z</time>
      </trkpt>
      <trkpt lat="43.29648" lon="2.30542">
        <ele>239.7</ele>
        <time>2022-04-17T07:20:48.000Z</time>
      </trkpt>
      <trkpt lat="43.29649" lon="2.3054">
        <ele>239.8</ele>
        <time>2022-04-17T07:20:49.000Z</time>
      </trkpt>
      <trkpt lat="43.29651" lon="2.30537">
        <ele>240</ele>
        <time>2022-04-17T07:20:50.000Z</time>
      </trkpt>
      <trkpt lat="43.29652" lon="2.30534">
        <ele>240.2</ele>
        <time>2022-04-17T07:20:51.000Z</time>
      </trkpt>
      <trkpt lat="43.29653" lon="2.30531">
        <ele>240.4</ele>
        <time>2022-04-17T07:20:52.000Z</time>
      </trkpt>
      <trkpt lat="43.29655" lon="2.30529">
        <ele>240.5</ele>
        <time>2022-04-17T07:20:53.000Z</time>
      </trkpt>
      <trkpt lat="43.29656" lon="2.30526">
        <ele>240.7</ele>
        <time>2022-04-17T07:20:54.000Z</time>
      </trkpt>
      <trkpt lat="43.29657" lon="2.30523">
        <ele>240.9</ele>
        <time>2022-04-17T07:20:55.000Z</time>
      </trkpt>
      <trkpt lat="43.29659" lon="2.30521">
        <ele>241.1</ele>
        <time>2022-04-17T07:20:56.000Z</time>
      </trkpt>
      <trkpt lat="43.2966" lon="2.30518">
        <ele>241.3</ele>
        <time>2022-04-17T07:20:57.000Z</time>
      </trkpt>
      <trkpt lat="43.29662" lon="2.30516">
        <ele>241.5</ele>
        <time>2022-04-17T07:20:58.000Z</time>
      </trkpt>
      <trkpt lat="43.29664" lon="2.30513">
        <ele>241.7</ele>
        <time>2022-04-17T07:20:59.000Z</time>
      </trkpt>
      <trkpt lat="43.29665" lon="2.30511">
        <ele>241.9</ele>
        <time>2022-04-17T07:21:00.000Z</time>
      </trkpt>
      <trkpt lat="43.29667" lon="2.30508">
        <ele>242</ele>
        <time>2022-04-17T07:21:01.000Z</time>
      </trkpt>
      <trkpt lat="43.29669" lon="2.30506">
        <ele>241.7</ele>
        <time>2022-04-17T07:21:02.000Z</time>
      </trkpt>
      <trkpt lat="43.29671" lon="2.30504">
        <ele>241.4</ele>
        <time>2022-04-17T07:21:03.000Z</time>
      </trkpt>
      <trkpt lat="43.29672" lon="2.30502">
        <ele>241.2</ele>
        <time>2022-04-17T07:21:04.000Z</time>
      </trkpt>
      <trkpt lat="43.29674" lon="2.30499">
        <ele>240.9</ele>
        <time>2022-04-17T07:21:05.000Z</time>
      </trkpt>
      <trkpt lat="43.29676" lon="2.30497">
        <ele>240.5</ele>
        <time>2022-04-17T07:21:06.000Z</time>
      </trkpt>
      <trkpt lat="43.29678" lon="2.30495">
        <ele>240.2</ele>
        <time>2022-04-17T07:21:07.000Z</time>
      </trkpt>
      <trkpt lat="43.29679" lon="2.30493">
        <ele>239.9</ele>
        <time>2022-04-17T07:21:08.000Z</time>
      </trkpt>
      <trkpt lat="43.29681" lon="2.3049">
        <ele>239.6</ele>
        <time>2022-04-17T07:21:09.000Z</time>
      </trkpt>
      <trkpt lat="43.29682" lon="2.30488">
        <ele>239.4</ele>
        <time>2022-04-17T07:21:10.000Z</time>
      </trkpt>
      <trkpt lat="43.29684" lon="2.30486">
        <ele>239.2</ele>
        <time>2022-04-17T07:21:11.000Z</time>
      </trkpt>
      <trkpt lat="43.29685" lon="2.30484">
        <ele>239</ele>
        <time>2022-04-17T07:21:12.000Z</time>
      </trkpt>
      <trkpt lat="43.29686" lon="2.30481">
        <ele>238.9</ele>
        <time>2022-04-17T07:21:13.000Z</time>
      </trkpt>
      <trkpt lat="43.29687" lon="2.30479">
        <ele>238.8</ele>
        <time>2022-04-17T07:21:14.000Z</time>
      </trkpt>
      <trkpt lat="43.29688" lon="2.30476">
        <ele>238.8</ele>
        <time>2022-04-17T07:21:15.000Z</time>
      </trkpt>
      <trkpt lat="43.29689" lon="2.30474">
        <ele>238.8</ele>
        <time>2022-04-17T07:21:16.000Z</time>
      </trkpt>
      <trkpt lat="43.2969" lon="2.30472">
        <ele>238.7</ele>
        <time>2022-04-17T07:21:17.000Z</time>
      </trkpt>
      <trkpt lat="43.29691" lon="2.30469">
        <ele>238.8</ele>
        <time>2022-04-17T07:21:18.000Z</time>
      </trkpt>
      <trkpt lat="43.29692" lon="2.30466">
        <ele>238.8</ele>
        <time>2022-04-17T07:21:19.000Z</time>
      </trkpt>
      <trkpt lat="43.29693" lon="2.30464">
        <ele>238.8</ele>
        <time>2022-04-17T07:21:20.000Z</time>
      </trkpt>
      <trkpt lat="43.29694" lon="2.30461">
        <ele>238.9</ele>
        <time>2022-04-17T07:21:21.000Z</time>
      </trkpt>
      <trkpt lat="43.29695" lon="2.30459">
        <ele>238.9</ele>
        <time>2022-04-17T07:21:22.000Z</time>
      </trkpt>
      <trkpt lat="43.29696" lon="2.30456">
        <ele>239</ele>
        <time>2022-04-17T07:21:23.000Z</time>
      </trkpt>
      <trkpt lat="43.29697" lon="2.30453">
        <ele>239</ele>
        <time>2022-04-17T07:21:24.000Z</time>
      </trkpt>
      <trkpt lat="43.29698" lon="2.3045">
        <ele>239.1</ele>
        <time>2022-04-17T07:21:25.000Z</time>
      </trkpt>
      <trkpt lat="43.29699" lon="2.30447">
        <ele>239.1</ele>
        <time>2022-04-17T07:21:26.000Z</time>
      </trkpt>
      <trkpt lat="43.297" lon="2.30444">
        <ele>239.2</ele>
        <time>2022-04-17T07:21:27.000Z</time>
      </trkpt>
      <trkpt lat="43.29702" lon="2.30441">
        <ele>239.3</ele>
        <time>2022-04-17T07:21:28.000Z</time>
      </trkpt>
      <trkpt lat="43.29703" lon="2.30438">
        <ele>239.4</ele>
        <time>2022-04-17T07:21:29.000Z</time>
      </trkpt>
      <trkpt lat="43.29704" lon="2.30435">
        <ele>239.5</ele>
        <time>2022-04-17T07:21:30.000Z</time>
      </trkpt>
      <trkpt lat="43.29705" lon="2.30432">
        <ele>239.7</ele>
        <time>2022-04-17T07:21:31.000Z</time>
      </trkpt>
      <trkpt lat="43.29706" lon="2.30429">
        <ele>239.8</ele>
        <time>2022-04-17T07:21:32.000Z</time>
      </trkpt>
      <trkpt lat="43.29707" lon="2.30426">
        <ele>240</ele>
        <time>2022-04-17T07:21:33.000Z</time>
      </trkpt>
      <trkpt lat="43.29708" lon="2.30423">
        <ele>240.2</ele>
        <time>2022-04-17T07:21:34.000Z</time>
      </trkpt>
      <trkpt lat="43.29709" lon="2.30421">
        <ele>240.4</ele>
        <time>2022-04-17T07:21:35.000Z</time>
      </trkpt>
      <trkpt lat="43.29711" lon="2.30418">
        <ele>240.5</ele>
        <time>2022-04-17T07:21:36.000Z</time>
      </trkpt>
      <trkpt lat="43.29712" lon="2.30416">
        <ele>240.6</ele>
        <time>2022-04-17T07:21:37.000Z</time>
      </trkpt>
      <trkpt lat="43.29713" lon="2.30413">
        <ele>240.6</ele>
        <time>2022-04-17T07:21:38.000Z</time>
      </trkpt>
      <trkpt lat="43.29715" lon="2.30411">
        <ele>240.5</ele>
        <time>2022-04-17T07:21:39.000Z</time>
      </trkpt>
      <trkpt lat="43.29717" lon="2.30409">
        <ele>240.5</ele>
        <time>2022-04-17T07:21:40.000Z</time>
      </trkpt>
      <trkpt lat="43.29718" lon="2.30406">
        <ele>240.6</ele>
        <time>2022-04-17T07:21:41.000Z</time>
      </trkpt>
      <trkpt lat="43.29719" lon="2.30403">
        <ele>240.8</ele>
        <time>2022-04-17T07:21:42.000Z</time>
      </trkpt>
      <trkpt lat="43.29719" lon="2.30399">
        <ele>241.1</ele>
        <time>2022-04-17T07:21:43.000Z</time>
      </trkpt>
      <trkpt lat="43.2972" lon="2.30396">
        <ele>241.3</ele>
        <time>2022-04-17T07:21:44.000Z</time>
      </trkpt>
      <trkpt lat="43.2972" lon="2.30392">
        <ele>241.6</ele>
        <time>2022-04-17T07:21:45.000Z</time>
      </trkpt>
      <trkpt lat="43.29721" lon="2.30389">
        <ele>241.7</ele>
        <time>2022-04-17T07:21:46.000Z</time>
      </trkpt>
      <trkpt lat="43.29722" lon="2.30387">
        <ele>241.9</ele>
        <time>2022-04-17T07:21:47.000Z</time>
      </trkpt>
      <trkpt lat="43.29724" lon="2.30384">
        <ele>242</ele>
        <time>2022-04-17T07:21:48.000Z</time>
      </trkpt>
      <trkpt lat="43.29725" lon="2.30382">
        <ele>242.1</ele>
        <time>2022-04-17T07:21:49.000Z</time>
      </trkpt>
      <trkpt lat="43.29726" lon="2.30379">
        <ele>242.2</ele>
        <time>2022-04-17T07:21:50.000Z</time>
      </trkpt>
      <trkpt lat="43.29728" lon="2.30377">
        <ele>242.3</ele>
        <time>2022-04-17T07:21:51.000Z</time>
      </trkpt>
      <trkpt lat="43.29729" lon="2.30375">
        <ele>242.4</ele>
        <time>2022-04-17T07:21:52.000Z</time>
      </trkpt>
      <trkpt lat="43.29731" lon="2.30372">
        <ele>242.5</ele>
        <time>2022-04-17T07:21:53.000Z</time>
      </trkpt>
      <trkpt lat="43.29732" lon="2.3037">
        <ele>242.6</ele>
        <time>2022-04-17T07:21:54.000Z</time>
      </trkpt>
      <trkpt lat="43.29734" lon="2.30368">
        <ele>242.8</ele>
        <time>2022-04-17T07:21:55.000Z</time>
      </trkpt>
      <trkpt lat="43.29735" lon="2.30365">
        <ele>242.9</ele>
        <time>2022-04-17T07:21:56.000Z</time>
      </trkpt>
      <trkpt lat="43.29737" lon="2.30363">
        <ele>243.1</ele>
        <time>2022-04-17T07:21:57.000Z</time>
      </trkpt>
      <trkpt lat="43.29738" lon="2.3036">
        <ele>243.3</ele>
        <time>2022-04-17T07:21:58.000Z</time>
      </trkpt>
      <trkpt lat="43.29739" lon="2.30358">
        <ele>243.5</ele>
        <time>2022-04-17T07:21:59.000Z</time>
      </trkpt>
      <trkpt lat="43.2974" lon="2.30355">
        <ele>243.8</ele>
        <time>2022-04-17T07:22:00.000Z</time>
      </trkpt>
      <trkpt lat="43.29741" lon="2.30353">
        <ele>244</ele>
        <time>2022-04-17T07:22:01.000Z</time>
      </trkpt>
      <trkpt lat="43.29742" lon="2.3035">
        <ele>244.3</ele>
        <time>2022-04-17T07:22:02.000Z</time>
      </trkpt>
      <trkpt lat="43.29742" lon="2.30347">
        <ele>244.6</ele>
        <time>2022-04-17T07:22:03.000Z</time>
      </trkpt>
      <trkpt lat="43.29743" lon="2.30345">
        <ele>244.9</ele>
        <time>2022-04-17T07:22:04.000Z</time>
      </trkpt>
      <trkpt lat="43.29744" lon="2.30342">
        <ele>245.2</ele>
        <time>2022-04-17T07:22:05.000Z</time>
      </trkpt>
      <trkpt lat="43.29744" lon="2.30339">
        <ele>245.5</ele>
        <time>2022-04-17T07:22:06.000Z</time>
      </trkpt>
      <trkpt lat="43.29745" lon="2.30336">
        <ele>245.9</ele>
        <time>2022-04-17T07:22:07.000Z</time>
      </trkpt>
      <trkpt lat="43.29746" lon="2.30333">
        <ele>246.2</ele>
        <time>2022-04-17T07:22:08.000Z</time>
      </trkpt>
      <trkpt lat="43.29747" lon="2.3033">
        <ele>246.3</ele>
        <time>2022-04-17T07:22:09.000Z</time>
      </trkpt>
      <trkpt lat="43.29747" lon="2.30327">
        <ele>246.5</ele>
        <time>2022-04-17T07:22:10.000Z</time>
      </trkpt>
      <trkpt lat="43.29748" lon="2.30324">
        <ele>246.6</ele>
        <time>2022-04-17T07:22:11.000Z</time>
      </trkpt>
      <trkpt lat="43.29749" lon="2.30321">
        <ele>246.8</ele>
        <time>2022-04-17T07:22:12.000Z</time>
      </trkpt>
      <trkpt lat="43.2975" lon="2.30318">
        <ele>246.9</ele>
        <time>2022-04-17T07:22:13.000Z</time>
      </trkpt>
      <trkpt lat="43.29751" lon="2.30315">
        <ele>246.8</ele>
        <time>2022-04-17T07:22:14.000Z</time>
      </trkpt>
      <trkpt lat="43.29752" lon="2.30312">
        <ele>246.7</ele>
        <time>2022-04-17T07:22:15.000Z</time>
      </trkpt>
      <trkpt lat="43.29753" lon="2.30309">
        <ele>246.6</ele>
        <time>2022-04-17T07:22:16.000Z</time>
      </trkpt>
      <trkpt lat="43.29755" lon="2.30306">
        <ele>246.5</ele>
        <time>2022-04-17T07:22:17.000Z</time>
      </trkpt>
      <trkpt lat="43.29756" lon="2.30304">
        <ele>246.4</ele>
        <time>2022-04-17T07:22:18.000Z</time>
      </trkpt>
      <trkpt lat="43.29757" lon="2.30301">
        <ele>246.2</ele>
        <time>2022-04-17T07:22:19.000Z</time>
      </trkpt>
      <trkpt lat="43.29759" lon="2.30298">
        <ele>246.1</ele>
        <time>2022-04-17T07:22:20.000Z</time>
      </trkpt>
      <trkpt lat="43.2976" lon="2.30295">
        <ele>245.9</ele>
        <time>2022-04-17T07:22:21.000Z</time>
      </trkpt>
      <trkpt lat="43.29761" lon="2.30293">
        <ele>245.8</ele>
        <time>2022-04-17T07:22:22.000Z</time>
      </trkpt>
      <trkpt lat="43.29763" lon="2.3029">
        <ele>245.7</ele>
        <time>2022-04-17T07:22:23.000Z</time>
      </trkpt>
      <trkpt lat="43.29764" lon="2.30287">
        <ele>245.6</ele>
        <time>2022-04-17T07:22:24.000Z</time>
      </trkpt>
      <trkpt lat="43.29765" lon="2.30284">
        <ele>245.5</ele>
        <time>2022-04-17T07:22:25.000Z</time>
      </trkpt>
      <trkpt lat="43.29766" lon="2.30282">
        <ele>245.5</ele>
        <time>2022-04-17T07:22:26.000Z</time>
      </trkpt>
      <trkpt lat="43.29767" lon="2.30279">
        <ele>245.4</ele>
        <time>2022-04-17T07:22:27.000Z</time>
      </trkpt>
      <trkpt lat="43.29768" lon="2.30276">
        <ele>245.5</ele>
        <time>2022-04-17T07:22:28.000Z</time>
      </trkpt>
      <trkpt lat="43.29769" lon="2.30273">
        <ele>245.6</ele>
        <time>2022-04-17T07:22:29.000Z</time>
      </trkpt>
      <trkpt lat="43.29769" lon="2.3027">
        <ele>245.8</ele>
        <time>2022-04-17T07:22:30.000Z</time>
      </trkpt>
      <trkpt lat="43.29769" lon="2.30266">
        <ele>246</ele>
        <time>2022-04-17T07:22:31.000Z</time>
      </trkpt>
      <trkpt lat="43.29769" lon="2.30263">
        <ele>246.3</ele>
        <time>2022-04-17T07:22:32.000Z</time>
      </trkpt>
      <trkpt lat="43.29769" lon="2.3026">
        <ele>246.6</ele>
        <time>2022-04-17T07:22:33.000Z</time>
      </trkpt>
      <trkpt lat="43.29769" lon="2.30257">
        <ele>246.9</ele>
        <time>2022-04-17T07:22:34.000Z</time>
      </trkpt>
      <trkpt lat="43.29769" lon="2.30253">
        <ele>247.2</ele>
        <time>2022-04-17T07:22:35.000Z</time>
      </trkpt>
      <trkpt lat="43.29769" lon="2.3025">
        <ele>247.4</ele>
        <time>2022-04-17T07:22:36.000Z</time>
      </trkpt>
      <trkpt lat="43.29769" lon="2.30247">
        <ele>247.5</ele>
        <time>2022-04-17T07:22:37.000Z</time>
      </trkpt>
      <trkpt lat="43.2977" lon="2.30244">
        <ele>247.5</ele>
        <time>2022-04-17T07:22:38.000Z</time>
      </trkpt>
      <trkpt lat="43.2977" lon="2.30241">
        <ele>247.5</ele>
        <time>2022-04-17T07:22:39.000Z</time>
      </trkpt>
      <trkpt lat="43.29771" lon="2.30238">
        <ele>247.5</ele>
        <time>2022-04-17T07:22:40.000Z</time>
      </trkpt>
      <trkpt lat="43.29772" lon="2.30235">
        <ele>247.5</ele>
        <time>2022-04-17T07:22:41.000Z</time>
      </trkpt>
      <trkpt lat="43.29773" lon="2.30232">
        <ele>247.5</ele>
        <time>2022-04-17T07:22:42.000Z</time>
      </trkpt>
      <trkpt lat="43.29773" lon="2.30229">
        <ele>247.6</ele>
        <time>2022-04-17T07:22:43.000Z</time>
      </trkpt>
      <trkpt lat="43.29773" lon="2.30226">
        <ele>247.7</ele>
        <time>2022-04-17T07:22:44.000Z</time>
      </trkpt>
      <trkpt lat="43.29773" lon="2.30223">
        <ele>247.8</ele>
        <time>2022-04-17T07:22:45.000Z</time>
      </trkpt>
      <trkpt lat="43.29773" lon="2.30219">
        <ele>248</ele>
        <time>2022-04-17T07:22:46.000Z</time>
      </trkpt>
      <trkpt lat="43.29773" lon="2.30216">
        <ele>248.2</ele>
        <time>2022-04-17T07:22:47.000Z</time>
      </trkpt>
      <trkpt lat="43.29773" lon="2.30213">
        <ele>248.3</ele>
        <time>2022-04-17T07:22:48.000Z</time>
      </trkpt>
      <trkpt lat="43.29774" lon="2.3021">
        <ele>248.4</ele>
        <time>2022-04-17T07:22:49.000Z</time>
      </trkpt>
      <trkpt lat="43.29775" lon="2.30207">
        <ele>248.4</ele>
        <time>2022-04-17T07:22:50.000Z</time>
      </trkpt>
      <trkpt lat="43.29776" lon="2.30205">
        <ele>248.3</ele>
        <time>2022-04-17T07:22:51.000Z</time>
      </trkpt>
      <trkpt lat="43.29777" lon="2.30203">
        <ele>248.2</ele>
        <time>2022-04-17T07:22:52.000Z</time>
      </trkpt>
      <trkpt lat="43.29779" lon="2.30201">
        <ele>248</ele>
        <time>2022-04-17T07:22:53.000Z</time>
      </trkpt>
      <trkpt lat="43.29781" lon="2.30198">
        <ele>247.8</ele>
        <time>2022-04-17T07:22:54.000Z</time>
      </trkpt>
      <trkpt lat="43.29784" lon="2.30196">
        <ele>247.7</ele>
        <time>2022-04-17T07:22:55.000Z</time>
      </trkpt>
      <trkpt lat="43.29785" lon="2.30194">
        <ele>247.6</ele>
        <time>2022-04-17T07:22:56.000Z</time>
      </trkpt>
      <trkpt lat="43.29787" lon="2.30191">
        <ele>247.5</ele>
        <time>2022-04-17T07:22:57.000Z</time>
      </trkpt>
      <trkpt lat="43.29788" lon="2.30188">
        <ele>247.5</ele>
        <time>2022-04-17T07:22:58.000Z</time>
      </trkpt>
      <trkpt lat="43.2979" lon="2.30184">
        <ele>247.6</ele>
        <time>2022-04-17T07:22:59.000Z</time>
      </trkpt>
      <trkpt lat="43.29791" lon="2.30181">
        <ele>247.7</ele>
        <time>2022-04-17T07:23:00.000Z</time>
      </trkpt>
      <trkpt lat="43.29791" lon="2.30177">
        <ele>247.8</ele>
        <time>2022-04-17T07:23:01.000Z</time>
      </trkpt>
      <trkpt lat="43.29792" lon="2.30174">
        <ele>248</ele>
        <time>2022-04-17T07:23:02.000Z</time>
      </trkpt>
      <trkpt lat="43.29793" lon="2.30171">
        <ele>248.1</ele>
        <time>2022-04-17T07:23:03.000Z</time>
      </trkpt>
      <trkpt lat="43.29793" lon="2.30168">
        <ele>248.2</ele>
        <time>2022-04-17T07:23:04.000Z</time>
      </trkpt>
      <trkpt lat="43.29794" lon="2.30166">
        <ele>248.3</ele>
        <time>2022-04-17T07:23:05.000Z</time>
      </trkpt>
      <trkpt lat="43.29794" lon="2.30163">
        <ele>248.2</ele>
        <time>2022-04-17T07:23:06.000Z</time>
      </trkpt>
      <trkpt lat="43.29795" lon="2.30161">
        <ele>248.2</ele>
        <time>2022-04-17T07:23:07.000Z</time>
      </trkpt>
      <trkpt lat="43.29795" lon="2.30158">
        <ele>248.1</ele>
        <time>2022-04-17T07:23:08.000Z</time>
      </trkpt>
      <trkpt lat="43.29796" lon="2.30156">
        <ele>248</ele>
        <time>2022-04-17T07:23:09.000Z</time>
      </trkpt>
      <trkpt lat="43.29797" lon="2.30153">
        <ele>247.9</ele>
        <time>2022-04-17T07:23:10.000Z</time>
      </trkpt>
      <trkpt lat="43.29798" lon="2.3015">
        <ele>247.8</ele>
        <time>2022-04-17T07:23:11.000Z</time>
      </trkpt>
      <trkpt lat="43.29799" lon="2.30147">
        <ele>247.7</ele>
        <time>2022-04-17T07:23:12.000Z</time>
      </trkpt>
      <trkpt lat="43.298" lon="2.30143">
        <ele>247.5</ele>
        <time>2022-04-17T07:23:13.000Z</time>
      </trkpt>
      <trkpt lat="43.298" lon="2.3014">
        <ele>247.4</ele>
        <time>2022-04-17T07:23:14.000Z</time>
      </trkpt>
      <trkpt lat="43.29801" lon="2.30137">
        <ele>247.3</ele>
        <time>2022-04-17T07:23:15.000Z</time>
      </trkpt>
      <trkpt lat="43.29802" lon="2.30133">
        <ele>247.2</ele>
        <time>2022-04-17T07:23:16.000Z</time>
      </trkpt>
      <trkpt lat="43.29802" lon="2.3013">
        <ele>247.2</ele>
        <time>2022-04-17T07:23:17.000Z</time>
      </trkpt>
      <trkpt lat="43.29802" lon="2.30127">
        <ele>247.1</ele>
        <time>2022-04-17T07:23:18.000Z</time>
      </trkpt>
      <trkpt lat="43.29802" lon="2.30124">
        <ele>247.1</ele>
        <time>2022-04-17T07:23:19.000Z</time>
      </trkpt>
      <trkpt lat="43.29802" lon="2.30121">
        <ele>247.1</ele>
        <time>2022-04-17T07:23:20.000Z</time>
      </trkpt>
      <trkpt lat="43.29802" lon="2.30118">
        <ele>247.1</ele>
        <time>2022-04-17T07:23:21.000Z</time>
      </trkpt>
      <trkpt lat="43.29802" lon="2.30114">
        <ele>247.1</ele>
        <time>2022-04-17T07:23:22.000Z</time>
      </trkpt>
      <trkpt lat="43.29801" lon="2.30111">
        <ele>247.2</ele>
        <time>2022-04-17T07:23:23.000Z</time>
      </trkpt>
      <trkpt lat="43.29801" lon="2.30108">
        <ele>247.2</ele>
        <time>2022-04-17T07:23:24.000Z</time>
      </trkpt>
      <trkpt lat="43.29801" lon="2.30104">
        <ele>247.2</ele>
        <time>2022-04-17T07:23:25.000Z</time>
      </trkpt>
      <trkpt lat="43.29801" lon="2.30101">
        <ele>247.2</ele>
        <time>2022-04-17T07:23:26.000Z</time>
      </trkpt>
      <trkpt lat="43.298" lon="2.30097">
        <ele>247.2</ele>
        <time>2022-04-17T07:23:27.000Z</time>
      </trkpt>
      <trkpt lat="43.298" lon="2.30094">
        <ele>247.3</ele>
        <time>2022-04-17T07:23:28.000Z</time>
      </trkpt>
      <trkpt lat="43.298" lon="2.3009">
        <ele>247.3</ele>
        <time>2022-04-17T07:23:29.000Z</time>
      </trkpt>
      <trkpt lat="43.29799" lon="2.30087">
        <ele>247.3</ele>
        <time>2022-04-17T07:23:30.000Z</time>
      </trkpt>
      <trkpt lat="43.29799" lon="2.30083">
        <ele>247.3</ele>
        <time>2022-04-17T07:23:31.000Z</time>
      </trkpt>
      <trkpt lat="43.29799" lon="2.3008">
        <ele>247.2</ele>
        <time>2022-04-17T07:23:32.000Z</time>
      </trkpt>
      <trkpt lat="43.29799" lon="2.30076">
        <ele>247.1</ele>
        <time>2022-04-17T07:23:33.000Z</time>
      </trkpt>
      <trkpt lat="43.29798" lon="2.30073">
        <ele>246.9</ele>
        <time>2022-04-17T07:23:34.000Z</time>
      </trkpt>
      <trkpt lat="43.29798" lon="2.3007">
        <ele>246.8</ele>
        <time>2022-04-17T07:23:35.000Z</time>
      </trkpt>
      <trkpt lat="43.29798" lon="2.30066">
        <ele>246.7</ele>
        <time>2022-04-17T07:23:36.000Z</time>
      </trkpt>
      <trkpt lat="43.29797" lon="2.30063">
        <ele>246.6</ele>
        <time>2022-04-17T07:23:37.000Z</time>
      </trkpt>
      <trkpt lat="43.29797" lon="2.30059">
        <ele>246.4</ele>
        <time>2022-04-17T07:23:38.000Z</time>
      </trkpt>
      <trkpt lat="43.29797" lon="2.30056">
        <ele>246.4</ele>
        <time>2022-04-17T07:23:39.000Z</time>
      </trkpt>
      <trkpt lat="43.29796" lon="2.30053">
        <ele>246.3</ele>
        <time>2022-04-17T07:23:40.000Z</time>
      </trkpt>
      <trkpt lat="43.29796" lon="2.3005">
        <ele>246.2</ele>
        <time>2022-04-17T07:23:41.000Z</time>
      </trkpt>
      <trkpt lat="43.29795" lon="2.30047">
        <ele>246.2</ele>
        <time>2022-04-17T07:23:42.000Z</time>
      </trkpt>
      <trkpt lat="43.29794" lon="2.30044">
        <ele>246.2</ele>
        <time>2022-04-17T07:23:43.000Z</time>
      </trkpt>
      <trkpt lat="43.29793" lon="2.30041">
        <ele>246.2</ele>
        <time>2022-04-17T07:23:44.000Z</time>
      </trkpt>
      <trkpt lat="43.29792" lon="2.30039">
        <ele>246.2</ele>
        <time>2022-04-17T07:23:45.000Z</time>
      </trkpt>
      <trkpt lat="43.29791" lon="2.30036">
        <ele>246.3</ele>
        <time>2022-04-17T07:23:46.000Z</time>
      </trkpt>
      <trkpt lat="43.2979" lon="2.30034">
        <ele>246.4</ele>
        <time>2022-04-17T07:23:47.000Z</time>
      </trkpt>
      <trkpt lat="43.29789" lon="2.30032">
        <ele>246.6</ele>
        <time>2022-04-17T07:23:48.000Z</time>
      </trkpt>
      <trkpt lat="43.29787" lon="2.30029">
        <ele>246.8</ele>
        <time>2022-04-17T07:23:49.000Z</time>
      </trkpt>
      <trkpt lat="43.29785" lon="2.30027">
        <ele>247.1</ele>
        <time>2022-04-17T07:23:50.000Z</time>
      </trkpt>
      <trkpt lat="43.29783" lon="2.30025">
        <ele>247.4</ele>
        <time>2022-04-17T07:23:51.000Z</time>
      </trkpt>
      <trkpt lat="43.2978" lon="2.30023">
        <ele>247.8</ele>
        <time>2022-04-17T07:23:52.000Z</time>
      </trkpt>
      <trkpt lat="43.29778" lon="2.30022">
        <ele>248.2</ele>
        <time>2022-04-17T07:23:53.000Z</time>
      </trkpt>
      <trkpt lat="43.29775" lon="2.30021">
        <ele>248.6</ele>
        <time>2022-04-17T07:23:54.000Z</time>
      </trkpt>
      <trkpt lat="43.29773" lon="2.30021">
        <ele>249.2</ele>
        <time>2022-04-17T07:23:55.000Z</time>
      </trkpt>
      <trkpt lat="43.2977" lon="2.30021">
        <ele>249.7</ele>
        <time>2022-04-17T07:23:56.000Z</time>
      </trkpt>
      <trkpt lat="43.29767" lon="2.30021">
        <ele>250.3</ele>
        <time>2022-04-17T07:23:57.000Z</time>
      </trkpt>
      <trkpt lat="43.29764" lon="2.30023">
        <ele>250.8</ele>
        <time>2022-04-17T07:23:58.000Z</time>
      </trkpt>
      <trkpt lat="43.29761" lon="2.30024">
        <ele>251.4</ele>
        <time>2022-04-17T07:23:59.000Z</time>
      </trkpt>
      <trkpt lat="43.29759" lon="2.30025">
        <ele>251.9</ele>
        <time>2022-04-17T07:24:00.000Z</time>
      </trkpt>
      <trkpt lat="43.29756" lon="2.30025">
        <ele>252.4</ele>
        <time>2022-04-17T07:24:01.000Z</time>
      </trkpt>
      <trkpt lat="43.29754" lon="2.30025">
        <ele>252.9</ele>
        <time>2022-04-17T07:24:02.000Z</time>
      </trkpt>
      <trkpt lat="43.29752" lon="2.30023">
        <ele>253.2</ele>
        <time>2022-04-17T07:24:03.000Z</time>
      </trkpt>
      <trkpt lat="43.2975" lon="2.3002">
        <ele>253.5</ele>
        <time>2022-04-17T07:24:04.000Z</time>
      </trkpt>
      <trkpt lat="43.29748" lon="2.30017">
        <ele>253.4</ele>
        <time>2022-04-17T07:24:05.000Z</time>
      </trkpt>
      <trkpt lat="43.29747" lon="2.30014">
        <ele>253.3</ele>
        <time>2022-04-17T07:24:06.000Z</time>
      </trkpt>
      <trkpt lat="43.29745" lon="2.3001">
        <ele>253.2</ele>
        <time>2022-04-17T07:24:07.000Z</time>
      </trkpt>
      <trkpt lat="43.29744" lon="2.30007">
        <ele>253.2</ele>
        <time>2022-04-17T07:24:08.000Z</time>
      </trkpt>
      <trkpt lat="43.29742" lon="2.30005">
        <ele>253.1</ele>
        <time>2022-04-17T07:24:09.000Z</time>
      </trkpt>
      <trkpt lat="43.2974" lon="2.30004">
        <ele>253.1</ele>
        <time>2022-04-17T07:24:10.000Z</time>
      </trkpt>
      <trkpt lat="43.29738" lon="2.30004">
        <ele>253.1</ele>
        <time>2022-04-17T07:24:11.000Z</time>
      </trkpt>
      <trkpt lat="43.29735" lon="2.30004">
        <ele>253.1</ele>
        <time>2022-04-17T07:24:12.000Z</time>
      </trkpt>
      <trkpt lat="43.29732" lon="2.30005">
        <ele>253.1</ele>
        <time>2022-04-17T07:24:13.000Z</time>
      </trkpt>
      <trkpt lat="43.29729" lon="2.30007">
        <ele>253.1</ele>
        <time>2022-04-17T07:24:14.000Z</time>
      </trkpt>
      <trkpt lat="43.29726" lon="2.30008">
        <ele>253.1</ele>
        <time>2022-04-17T07:24:15.000Z</time>
      </trkpt>
      <trkpt lat="43.29723" lon="2.30009">
        <ele>253.1</ele>
        <time>2022-04-17T07:24:16.000Z</time>
      </trkpt>
      <trkpt lat="43.2972" lon="2.30011">
        <ele>253.1</ele>
        <time>2022-04-17T07:24:17.000Z</time>
      </trkpt>
      <trkpt lat="43.29718" lon="2.30012">
        <ele>253.1</ele>
        <time>2022-04-17T07:24:18.000Z</time>
      </trkpt>
      <trkpt lat="43.29715" lon="2.30013">
        <ele>253</ele>
        <time>2022-04-17T07:24:19.000Z</time>
      </trkpt>
      <trkpt lat="43.29712" lon="2.30014">
        <ele>253</ele>
        <time>2022-04-17T07:24:20.000Z</time>
      </trkpt>
      <trkpt lat="43.29709" lon="2.30014">
        <ele>253</ele>
        <time>2022-04-17T07:24:21.000Z</time>
      </trkpt>
      <trkpt lat="43.29706" lon="2.30015">
        <ele>253</ele>
        <time>2022-04-17T07:24:22.000Z</time>
      </trkpt>
      <trkpt lat="43.29703" lon="2.30016">
        <ele>252.9</ele>
        <time>2022-04-17T07:24:23.000Z</time>
      </trkpt>
      <trkpt lat="43.297" lon="2.30016">
        <ele>252.9</ele>
        <time>2022-04-17T07:24:24.000Z</time>
      </trkpt>
      <trkpt lat="43.29697" lon="2.30017">
        <ele>252.9</ele>
        <time>2022-04-17T07:24:25.000Z</time>
      </trkpt>
      <trkpt lat="43.29695" lon="2.30017">
        <ele>252.9</ele>
        <time>2022-04-17T07:24:26.000Z</time>
      </trkpt>
      <trkpt lat="43.29692" lon="2.30017">
        <ele>252.8</ele>
        <time>2022-04-17T07:24:27.000Z</time>
      </trkpt>
      <trkpt lat="43.29691" lon="2.30018">
        <ele>252.8</ele>
        <time>2022-04-17T07:24:28.000Z</time>
      </trkpt>
      <trkpt lat="43.29689" lon="2.30018">
        <ele>252.8</ele>
        <time>2022-04-17T07:24:29.000Z</time>
      </trkpt>
      <trkpt lat="43.29688" lon="2.30018">
        <ele>252.8</ele>
        <time>2022-04-17T07:24:30.000Z</time>
      </trkpt>
      <trkpt lat="43.29688" lon="2.30018">
        <ele>252.8</ele>
        <time>2022-04-17T07:24:31.000Z</time>
      </trkpt>
      <trkpt lat="43.29687" lon="2.30018">
        <ele>252.8</ele>
        <time>2022-04-17T07:24:32.000Z</time>
      </trkpt>
      <trkpt lat="43.29687" lon="2.30018">
        <ele>252.8</ele>
        <time>2022-04-17T07:24:33.000Z</time>
      </trkpt>
      <trkpt lat="43.29687" lon="2.30018">
        <ele>252.8</ele>
        <time>2022-04-17T07:24:34.000Z</time>
      </trkpt>
      <trkpt lat="43.29687" lon="2.30018">
        <ele>252.8</ele>
        <time>2022-04-17T07:24:35.000Z</time>
      </trkpt>
      <trkpt lat="43.29687" lon="2.30018">
        <ele>252.8</ele>
        <time>2022-04-17T07:24:36.000Z</time>
      </trkpt>
      <trkpt lat="43.29687" lon="2.30018">
        <ele>252.8</ele>
        <time>2022-04-17T07:24:37.000Z</time>
      </trkpt>
      <trkpt lat="43.29687" lon="2.30018">
        <ele>252.8</ele>
        <time>2022-04-17T07:24:38.000Z</time>
      </trkpt>
      <trkpt lat="43.29687" lon="2.30018">
        <ele>252.8</ele>
        <time>2022-04-17T07:24:39.000Z</time>
      </trkpt>
      <trkpt lat="43.29687" lon="2.30018">
        <ele>252.8</ele>
        <time>2022-04-17T07:24:40.000Z</time>
      </trkpt>
      <trkpt lat="43.29687" lon="2.30018">
        <ele>252.8</ele>
        <time>2022-04-17T07:24:41.000Z</time>
      </trkpt>
      <trkpt lat="43.29687" lon="2.30018">
        <ele>252.8</ele>
        <time>2022-04-17T07:24:42.000Z</time>
      </trkpt>
      <trkpt lat="43.29687" lon="2.30018">
        <ele>252.8</ele>
        <time>2022-04-17T07:24:43.000Z</time>
      </trkpt>
      <trkpt lat="43.29687" lon="2.30018">
        <ele>252.8</ele>
        <time>2022-04-17T07:24:44.000Z</time>
      </trkpt>
      <trkpt lat="43.29687" lon="2.30018">
        <ele>252.8</ele>
        <time>2022-04-17T07:24:45.000Z</time>
      </trkpt>
      <trkpt lat="43.29687" lon="2.30018">
        <ele>252.8</ele>
        <time>2022-04-17T07:24:46.000Z</time>
      </trkpt>
      <trkpt lat="43.29687" lon="2.30018">
        <ele>252.8</ele>
        <time>2022-04-17T07:24:47.000Z</time>
      </trkpt>
      <trkpt lat="43.29687" lon="2.30018">
        <ele>252.8</ele>
        <time>2022-04-17T07:24:48.000Z</time>
      </trkpt>
      <trkpt lat="43.29687" lon="2.30018">
        <ele>252.8</ele>
        <time>2022-04-17T07:24:49.000Z</time>
      </trkpt>
      <trkpt lat="43.29686" lon="2.30018">
        <ele>252.8</ele>
        <time>2022-04-17T07:24:50.000Z</time>
      </trkpt>
      <trkpt lat="43.29686" lon="2.30018">
        <ele>252.8</ele>
        <time>2022-04-17T07:24:51.000Z</time>
      </trkpt>
      <trkpt lat="43.29685" lon="2.30018">
        <ele>252.8</ele>
        <time>2022-04-17T07:24:52.000Z</time>
      </trkpt>
      <trkpt lat="43.29685" lon="2.30018">
        <ele>252.8</ele>
        <time>2022-04-17T07:24:53.000Z</time>
      </trkpt>
      <trkpt lat="43.29684" lon="2.30018">
        <ele>252.7</ele>
        <time>2022-04-17T07:24:54.000Z</time>
      </trkpt>
      <trkpt lat="43.29683" lon="2.30018">
        <ele>252.7</ele>
        <time>2022-04-17T07:24:55.000Z</time>
      </trkpt>
      <trkpt lat="43.29682" lon="2.30018">
        <ele>252.7</ele>
        <time>2022-04-17T07:24:56.000Z</time>
      </trkpt>
      <trkpt lat="43.29681" lon="2.30018">
        <ele>252.7</ele>
        <time>2022-04-17T07:24:57.000Z</time>
      </trkpt>
      <trkpt lat="43.29679" lon="2.30018">
        <ele>252.7</ele>
        <time>2022-04-17T07:24:58.000Z</time>
      </trkpt>
      <trkpt lat="43.29678" lon="2.30018">
        <ele>252.7</ele>
        <time>2022-04-17T07:24:59.000Z</time>
      </trkpt>
      <trkpt lat="43.29677" lon="2.30018">
        <ele>252.7</ele>
        <time>2022-04-17T07:25:00.000Z</time>
      </trkpt>
      <trkpt lat="43.29676" lon="2.30018">
        <ele>252.7</ele>
        <time>2022-04-17T07:25:01.000Z</time>
      </trkpt>
      <trkpt lat="43.29674" lon="2.30018">
        <ele>252.6</ele>
        <time>2022-04-17T07:25:02.000Z</time>
      </trkpt>
      <trkpt lat="43.29673" lon="2.30018">
        <ele>252.6</ele>
        <time>2022-04-17T07:25:03.000Z</time>
      </trkpt>
      <trkpt lat="43.29672" lon="2.30019">
        <ele>252.6</ele>
        <time>2022-04-17T07:25:04.000Z</time>
      </trkpt>
      <trkpt lat="43.29671" lon="2.30019">
        <ele>252.6</ele>
        <time>2022-04-17T07:25:05.000Z</time>
      </trkpt>
      <trkpt lat="43.29669" lon="2.30019">
        <ele>252.6</ele>
        <time>2022-04-17T07:25:06.000Z</time>
      </trkpt>
      <trkpt lat="43.29668" lon="2.30019">
        <ele>252.6</ele>
        <time>2022-04-17T07:25:07.000Z</time>
      </trkpt>
      <trkpt lat="43.29666" lon="2.30019">
        <ele>252.5</ele>
        <time>2022-04-17T07:25:08.000Z</time>
      </trkpt>
      <trkpt lat="43.29665" lon="2.30019">
        <ele>252.4</ele>
        <time>2022-04-17T07:25:09.000Z</time>
      </trkpt>
      <trkpt lat="43.29663" lon="2.30019">
        <ele>252.3</ele>
        <time>2022-04-17T07:25:10.000Z</time>
      </trkpt>
      <trkpt lat="43.29661" lon="2.30019">
        <ele>252.2</ele>
        <time>2022-04-17T07:25:11.000Z</time>
      </trkpt>
      <trkpt lat="43.29659" lon="2.30019">
        <ele>252.1</ele>
        <time>2022-04-17T07:25:12.000Z</time>
      </trkpt>
      <trkpt lat="43.29657" lon="2.3002">
        <ele>252</ele>
        <time>2022-04-17T07:25:13.000Z</time>
      </trkpt>
      <trkpt lat="43.29655" lon="2.3002">
        <ele>251.9</ele>
        <time>2022-04-17T07:25:14.000Z</time>
      </trkpt>
      <trkpt lat="43.29653" lon="2.3002">
        <ele>251.8</ele>
        <time>2022-04-17T07:25:15.000Z</time>
      </trkpt>
      <trkpt lat="43.2965" lon="2.3002">
        <ele>251.6</ele>
        <time>2022-04-17T07:25:16.000Z</time>
      </trkpt>
      <trkpt lat="43.29648" lon="2.3002">
        <ele>251.5</ele>
        <time>2022-04-17T07:25:17.000Z</time>
      </trkpt>
      <trkpt lat="43.29645" lon="2.30021">
        <ele>251.4</ele>
        <time>2022-04-17T07:25:18.000Z</time>
      </trkpt>
      <trkpt lat="43.29643" lon="2.30021">
        <ele>251.2</ele>
        <time>2022-04-17T07:25:19.000Z</time>
      </trkpt>
      <trkpt lat="43.2964" lon="2.30021">
        <ele>251.1</ele>
        <time>2022-04-17T07:25:20.000Z</time>
      </trkpt>
      <trkpt lat="43.29638" lon="2.30021">
        <ele>250.9</ele>
        <time>2022-04-17T07:25:21.000Z</time>
      </trkpt>
      <trkpt lat="43.29635" lon="2.30021">
        <ele>250.8</ele>
        <time>2022-04-17T07:25:22.000Z</time>
      </trkpt>
      <trkpt lat="43.29633" lon="2.30021">
        <ele>250.7</ele>
        <time>2022-04-17T07:25:23.000Z</time>
      </trkpt>
      <trkpt lat="43.2963" lon="2.3002">
        <ele>250.5</ele>
        <time>2022-04-17T07:25:24.000Z</time>
      </trkpt>
      <trkpt lat="43.29627" lon="2.3002">
        <ele>250.4</ele>
        <time>2022-04-17T07:25:25.000Z</time>
      </trkpt>
      <trkpt lat="43.29625" lon="2.30019">
        <ele>250.2</ele>
        <time>2022-04-17T07:25:26.000Z</time>
      </trkpt>
      <trkpt lat="43.29622" lon="2.30019">
        <ele>250.1</ele>
        <time>2022-04-17T07:25:27.000Z</time>
      </trkpt>
      <trkpt lat="43.29619" lon="2.30018">
        <ele>250</ele>
        <time>2022-04-17T07:25:28.000Z</time>
      </trkpt>
      <trkpt lat="43.29617" lon="2.30017">
        <ele>249.8</ele>
        <time>2022-04-17T07:25:29.000Z</time>
      </trkpt>
      <trkpt lat="43.29614" lon="2.30016">
        <ele>249.7</ele>
        <time>2022-04-17T07:25:30.000Z</time>
      </trkpt>
      <trkpt lat="43.29611" lon="2.30015">
        <ele>249.6</ele>
        <time>2022-04-17T07:25:31.000Z</time>
      </trkpt>
      <trkpt lat="43.29609" lon="2.30013">
        <ele>249.4</ele>
        <time>2022-04-17T07:25:32.000Z</time>
      </trkpt>
      <trkpt lat="43.29606" lon="2.30012">
        <ele>249.3</ele>
        <time>2022-04-17T07:25:33.000Z</time>
      </trkpt>
      <trkpt lat="43.29604" lon="2.3001">
        <ele>249.2</ele>
        <time>2022-04-17T07:25:34.000Z</time>
      </trkpt>
      <trkpt lat="43.29601" lon="2.30008">
        <ele>249</ele>
        <time>2022-04-17T07:25:35.000Z</time>
      </trkpt>
      <trkpt lat="43.29599" lon="2.30006">
        <ele>248.9</ele>
        <time>2022-04-17T07:25:36.000Z</time>
      </trkpt>
      <trkpt lat="43.29596" lon="2.30004">
        <ele>248.8</ele>
        <time>2022-04-17T07:25:37.000Z</time>
      </trkpt>
      <trkpt lat="43.29594" lon="2.30002">
        <ele>248.6</ele>
        <time>2022-04-17T07:25:38.000Z</time>
      </trkpt>
      <trkpt lat="43.29591" lon="2.3">
        <ele>248.5</ele>
        <time>2022-04-17T07:25:39.000Z</time>
      </trkpt>
      <trkpt lat="43.29589" lon="2.29997">
        <ele>248.3</ele>
        <time>2022-04-17T07:25:40.000Z</time>
      </trkpt>
      <trkpt lat="43.29586" lon="2.29995">
        <ele>248.2</ele>
        <time>2022-04-17T07:25:41.000Z</time>
      </trkpt>
      <trkpt lat="43.29584" lon="2.29993">
        <ele>248.1</ele>
        <time>2022-04-17T07:25:42.000Z</time>
      </trkpt>
      <trkpt lat="43.29581" lon="2.29991">
        <ele>248.1</ele>
        <time>2022-04-17T07:25:43.000Z</time>
      </trkpt>
      <trkpt lat="43.29579" lon="2.29989">
        <ele>248</ele>
        <time>2022-04-17T07:25:44.000Z</time>
      </trkpt>
      <trkpt lat="43.29576" lon="2.29987">
        <ele>248</ele>
        <time>2022-04-17T07:25:45.000Z</time>
      </trkpt>
      <trkpt lat="43.29574" lon="2.29985">
        <ele>247.9</ele>
        <time>2022-04-17T07:25:46.000Z</time>
      </trkpt>
      <trkpt lat="43.29571" lon="2.29983">
        <ele>247.9</ele>
        <time>2022-04-17T07:25:47.000Z</time>
      </trkpt>
      <trkpt lat="43.29569" lon="2.29981">
        <ele>247.8</ele>
        <time>2022-04-17T07:25:48.000Z</time>
      </trkpt>
      <trkpt lat="43.29567" lon="2.29978">
        <ele>247.8</ele>
        <time>2022-04-17T07:25:49.000Z</time>
      </trkpt>
      <trkpt lat="43.29565" lon="2.29976">
        <ele>247.7</ele>
        <time>2022-04-17T07:25:50.000Z</time>
      </trkpt>
      <trkpt lat="43.29562" lon="2.29973">
        <ele>247.7</ele>
        <time>2022-04-17T07:25:51.000Z</time>
      </trkpt>
      <trkpt lat="43.29561" lon="2.2997">
        <ele>247.6</ele>
        <time>2022-04-17T07:25:52.000Z</time>
      </trkpt>
      <trkpt lat="43.29559" lon="2.29967">
        <ele>247.6</ele>
        <time>2022-04-17T07:25:53.000Z</time>
      </trkpt>
      <trkpt lat="43.29557" lon="2.29964">
        <ele>247.5</ele>
        <time>2022-04-17T07:25:54.000Z</time>
      </trkpt>
      <trkpt lat="43.29556" lon="2.2996">
        <ele>247.5</ele>
        <time>2022-04-17T07:25:55.000Z</time>
      </trkpt>
      <trkpt lat="43.29555" lon="2.29957">
        <ele>247.5</ele>
        <time>2022-04-17T07:25:56.000Z</time>
      </trkpt>
      <trkpt lat="43.29553" lon="2.29953">
        <ele>247.4</ele>
        <time>2022-04-17T07:25:57.000Z</time>
      </trkpt>
      <trkpt lat="43.29553" lon="2.29949">
        <ele>247.4</ele>
        <time>2022-04-17T07:25:58.000Z</time>
      </trkpt>
      <trkpt lat="43.29552" lon="2.29946">
        <ele>247.4</ele>
        <time>2022-04-17T07:25:59.000Z</time>
      </trkpt>
      <trkpt lat="43.29551" lon="2.29942">
        <ele>247.4</ele>
        <time>2022-04-17T07:26:00.000Z</time>
      </trkpt>
      <trkpt lat="43.29551" lon="2.29938">
        <ele>247.4</ele>
        <time>2022-04-17T07:26:01.000Z</time>
      </trkpt>
      <trkpt lat="43.2955" lon="2.29935">
        <ele>247.4</ele>
        <time>2022-04-17T07:26:02.000Z</time>
      </trkpt>
      <trkpt lat="43.2955" lon="2.29932">
        <ele>247.4</ele>
        <time>2022-04-17T07:26:03.000Z</time>
      </trkpt>
      <trkpt lat="43.2955" lon="2.29928">
        <ele>247.4</ele>
        <time>2022-04-17T07:26:04.000Z</time>
      </trkpt>
      <trkpt lat="43.29549" lon="2.29925">
        <ele>247.3</ele>
        <time>2022-04-17T07:26:05.000Z</time>
      </trkpt>
      <trkpt lat="43.29549" lon="2.29921">
        <ele>247.3</ele>
        <time>2022-04-17T07:26:06.000Z</time>
      </trkpt>
      <trkpt lat="43.29548" lon="2.29918">
        <ele>247.3</ele>
        <time>2022-04-17T07:26:07.000Z</time>
      </trkpt>
      <trkpt lat="43.29548" lon="2.29915">
        <ele>247.3</ele>
        <time>2022-04-17T07:26:08.000Z</time>
      </trkpt>
      <trkpt lat="43.29547" lon="2.29911">
        <ele>247.3</ele>
        <time>2022-04-17T07:26:09.000Z</time>
      </trkpt>
      <trkpt lat="43.29546" lon="2.29908">
        <ele>247.3</ele>
        <time>2022-04-17T07:26:10.000Z</time>
      </trkpt>
      <trkpt lat="43.29545" lon="2.29904">
        <ele>247.3</ele>
        <time>2022-04-17T07:26:11.000Z</time>
      </trkpt>
      <trkpt lat="43.29544" lon="2.29901">
        <ele>247.3</ele>
        <time>2022-04-17T07:26:12.000Z</time>
      </trkpt>
      <trkpt lat="43.29543" lon="2.29897">
        <ele>247.3</ele>
        <time>2022-04-17T07:26:13.000Z</time>
      </trkpt>
      <trkpt lat="43.29541" lon="2.29894">
        <ele>247.3</ele>
        <time>2022-04-17T07:26:14.000Z</time>
      </trkpt>
      <trkpt lat="43.2954" lon="2.2989">
        <ele>247.3</ele>
        <time>2022-04-17T07:26:15.000Z</time>
      </trkpt>
      <trkpt lat="43.29539" lon="2.29887">
        <ele>247.3</ele>
        <time>2022-04-17T07:26:16.000Z</time>
      </trkpt>
      <trkpt lat="43.29538" lon="2.29883">
        <ele>247.3</ele>
        <time>2022-04-17T07:26:17.000Z</time>
      </trkpt>
      <trkpt lat="43.29536" lon="2.2988">
        <ele>247.3</ele>
        <time>2022-04-17T07:26:18.000Z</time>
      </trkpt>
      <trkpt lat="43.29535" lon="2.29877">
        <ele>247.3</ele>
        <time>2022-04-17T07:26:19.000Z</time>
      </trkpt>
      <trkpt lat="43.29534" lon="2.29873">
        <ele>247.3</ele>
        <time>2022-04-17T07:26:20.000Z</time>
      </trkpt>
      <trkpt lat="43.29532" lon="2.2987">
        <ele>247.4</ele>
        <time>2022-04-17T07:26:21.000Z</time>
      </trkpt>
      <trkpt lat="43.29531" lon="2.29867">
        <ele>247.4</ele>
        <time>2022-04-17T07:26:22.000Z</time>
      </trkpt>
      <trkpt lat="43.2953" lon="2.29863">
        <ele>247.4</ele>
        <time>2022-04-17T07:26:23.000Z</time>
      </trkpt>
      <trkpt lat="43.29528" lon="2.2986">
        <ele>247.5</ele>
        <time>2022-04-17T07:26:24.000Z</time>
      </trkpt>
      <trkpt lat="43.29527" lon="2.29857">
        <ele>247.5</ele>
        <time>2022-04-17T07:26:25.000Z</time>
      </trkpt>
      <trkpt lat="43.29526" lon="2.29853">
        <ele>247.6</ele>
        <time>2022-04-17T07:26:26.000Z</time>
      </trkpt>
      <trkpt lat="43.29524" lon="2.2985">
        <ele>247.6</ele>
        <time>2022-04-17T07:26:27.000Z</time>
      </trkpt>
      <trkpt lat="43.29523" lon="2.29847">
        <ele>247.7</ele>
        <time>2022-04-17T07:26:28.000Z</time>
      </trkpt>
      <trkpt lat="43.29522" lon="2.29844">
        <ele>247.8</ele>
        <time>2022-04-17T07:26:29.000Z</time>
      </trkpt>
      <trkpt lat="43.29521" lon="2.2984">
        <ele>247.8</ele>
        <time>2022-04-17T07:26:30.000Z</time>
      </trkpt>
      <trkpt lat="43.29519" lon="2.29837">
        <ele>247.9</ele>
        <time>2022-04-17T07:26:31.000Z</time>
      </trkpt>
      <trkpt lat="43.29518" lon="2.29834">
        <ele>248</ele>
        <time>2022-04-17T07:26:32.000Z</time>
      </trkpt>
      <trkpt lat="43.29517" lon="2.29831">
        <ele>248</ele>
        <time>2022-04-17T07:26:33.000Z</time>
      </trkpt>
      <trkpt lat="43.29516" lon="2.29827">
        <ele>248.1</ele>
        <time>2022-04-17T07:26:34.000Z</time>
      </trkpt>
      <trkpt lat="43.29515" lon="2.29824">
        <ele>248.1</ele>
        <time>2022-04-17T07:26:35.000Z</time>
      </trkpt>
      <trkpt lat="43.29513" lon="2.29821">
        <ele>248.1</ele>
        <time>2022-04-17T07:26:36.000Z</time>
      </trkpt>
      <trkpt lat="43.29512" lon="2.29818">
        <ele>248.2</ele>
        <time>2022-04-17T07:26:37.000Z</time>
      </trkpt>
      <trkpt lat="43.29511" lon="2.29815">
        <ele>248.2</ele>
        <time>2022-04-17T07:26:38.000Z</time>
      </trkpt>
      <trkpt lat="43.2951" lon="2.29812">
        <ele>248.2</ele>
        <time>2022-04-17T07:26:39.000Z</time>
      </trkpt>
      <trkpt lat="43.29509" lon="2.29809">
        <ele>248.3</ele>
        <time>2022-04-17T07:26:40.000Z</time>
      </trkpt>
      <trkpt lat="43.29508" lon="2.29806">
        <ele>248.3</ele>
        <time>2022-04-17T07:26:41.000Z</time>
      </trkpt>
      <trkpt lat="43.29508" lon="2.29802">
        <ele>248.3</ele>
        <time>2022-04-17T07:26:42.000Z</time>
      </trkpt>
      <trkpt lat="43.29507" lon="2.29799">
        <ele>248.4</ele>
        <time>2022-04-17T07:26:43.000Z</time>
      </trkpt>
      <trkpt lat="43.29506" lon="2.29796">
        <ele>248.4</ele>
        <time>2022-04-17T07:26:44.000Z</time>
      </trkpt>
      <trkpt lat="43.29505" lon="2.29793">
        <ele>248.5</ele>
        <time>2022-04-17T07:26:45.000Z</time>
      </trkpt>
      <trkpt lat="43.29504" lon="2.2979">
        <ele>248.5</ele>
        <time>2022-04-17T07:26:46.000Z</time>
      </trkpt>
      <trkpt lat="43.29503" lon="2.29787">
        <ele>248.5</ele>
        <time>2022-04-17T07:26:47.000Z</time>
      </trkpt>
      <trkpt lat="43.29501" lon="2.29784">
        <ele>248.6</ele>
        <time>2022-04-17T07:26:48.000Z</time>
      </trkpt>
      <trkpt lat="43.295" lon="2.29781">
        <ele>248.6</ele>
        <time>2022-04-17T07:26:49.000Z</time>
      </trkpt>
      <trkpt lat="43.29499" lon="2.29778">
        <ele>248.6</ele>
        <time>2022-04-17T07:26:50.000Z</time>
      </trkpt>
      <trkpt lat="43.29498" lon="2.29775">
        <ele>248.6</ele>
        <time>2022-04-17T07:26:51.000Z</time>
      </trkpt>
      <trkpt lat="43.29496" lon="2.29772">
        <ele>248.6</ele>
        <time>2022-04-17T07:26:52.000Z</time>
      </trkpt>
      <trkpt lat="43.29494" lon="2.29769">
        <ele>248.5</ele>
        <time>2022-04-17T07:26:53.000Z</time>
      </trkpt>
      <trkpt lat="43.29493" lon="2.29767">
        <ele>248.5</ele>
        <time>2022-04-17T07:26:54.000Z</time>
      </trkpt>
      <trkpt lat="43.29491" lon="2.29764">
        <ele>248.5</ele>
        <time>2022-04-17T07:26:55.000Z</time>
      </trkpt>
      <trkpt lat="43.2949" lon="2.2976">
        <ele>248.4</ele>
        <time>2022-04-17T07:26:56.000Z</time>
      </trkpt>
      <trkpt lat="43.29489" lon="2.29757">
        <ele>248.4</ele>
        <time>2022-04-17T07:26:57.000Z</time>
      </trkpt>
      <trkpt lat="43.29487" lon="2.29754">
        <ele>248.4</ele>
        <time>2022-04-17T07:26:58.000Z</time>
      </trkpt>
      <trkpt lat="43.29487" lon="2.29751">
        <ele>248.3</ele>
        <time>2022-04-17T07:26:59.000Z</time>
      </trkpt>
      <trkpt lat="43.29486" lon="2.29748">
        <ele>248.3</ele>
        <time>2022-04-17T07:27:00.000Z</time>
      </trkpt>
      <trkpt lat="43.29486" lon="2.29744">
        <ele>248.1</ele>
        <time>2022-04-17T07:27:01.000Z</time>
      </trkpt>
      <trkpt lat="43.29486" lon="2.29741">
        <ele>248</ele>
        <time>2022-04-17T07:27:02.000Z</time>
      </trkpt>
      <trkpt lat="43.29486" lon="2.29737">
        <ele>247.9</ele>
        <time>2022-04-17T07:27:03.000Z</time>
      </trkpt>
      <trkpt lat="43.29486" lon="2.29734">
        <ele>247.9</ele>
        <time>2022-04-17T07:27:04.000Z</time>
      </trkpt>
      <trkpt lat="43.29487" lon="2.29731">
        <ele>247.8</ele>
        <time>2022-04-17T07:27:05.000Z</time>
      </trkpt>
      <trkpt lat="43.29487" lon="2.29728">
        <ele>247.7</ele>
        <time>2022-04-17T07:27:06.000Z</time>
      </trkpt>
      <trkpt lat="43.29488" lon="2.29725">
        <ele>247.7</ele>
        <time>2022-04-17T07:27:07.000Z</time>
      </trkpt>
      <trkpt lat="43.29489" lon="2.29722">
        <ele>247.6</ele>
        <time>2022-04-17T07:27:08.000Z</time>
      </trkpt>
      <trkpt lat="43.29489" lon="2.29719">
        <ele>247.5</ele>
        <time>2022-04-17T07:27:09.000Z</time>
      </trkpt>
      <trkpt lat="43.2949" lon="2.29717">
        <ele>247.5</ele>
        <time>2022-04-17T07:27:10.000Z</time>
      </trkpt>
      <trkpt lat="43.29491" lon="2.29714">
        <ele>247.4</ele>
        <time>2022-04-17T07:27:11.000Z</time>
      </trkpt>
      <trkpt lat="43.29491" lon="2.29712">
        <ele>247.3</ele>
        <time>2022-04-17T07:27:12.000Z</time>
      </trkpt>
      <trkpt lat="43.29492" lon="2.29709">
        <ele>247.3</ele>
        <time>2022-04-17T07:27:13.000Z</time>
      </trkpt>
      <trkpt lat="43.29493" lon="2.29707">
        <ele>247.2</ele>
        <time>2022-04-17T07:27:14.000Z</time>
      </trkpt>
      <trkpt lat="43.29493" lon="2.29704">
        <ele>247.2</ele>
        <time>2022-04-17T07:27:15.000Z</time>
      </trkpt>
      <trkpt lat="43.29493" lon="2.29702">
        <ele>247.1</ele>
        <time>2022-04-17T07:27:16.000Z</time>
      </trkpt>
      <trkpt lat="43.29493" lon="2.29699">
        <ele>247</ele>
        <time>2022-04-17T07:27:17.000Z</time>
      </trkpt>
      <trkpt lat="43.29493" lon="2.29696">
        <ele>246.9</ele>
        <time>2022-04-17T07:27:18.000Z</time>
      </trkpt>
      <trkpt lat="43.29493" lon="2.29694">
        <ele>246.8</ele>
        <time>2022-04-17T07:27:19.000Z</time>
      </trkpt>
      <trkpt lat="43.29493" lon="2.29691">
        <ele>246.7</ele>
        <time>2022-04-17T07:27:20.000Z</time>
      </trkpt>
      <trkpt lat="43.29492" lon="2.29688">
        <ele>246.6</ele>
        <time>2022-04-17T07:27:21.000Z</time>
      </trkpt>
      <trkpt lat="43.29492" lon="2.29685">
        <ele>246.5</ele>
        <time>2022-04-17T07:27:22.000Z</time>
      </trkpt>
      <trkpt lat="43.29491" lon="2.29681">
        <ele>246.4</ele>
        <time>2022-04-17T07:27:23.000Z</time>
      </trkpt>
      <trkpt lat="43.29491" lon="2.29678">
        <ele>246.3</ele>
        <time>2022-04-17T07:27:24.000Z</time>
      </trkpt>
      <trkpt lat="43.29491" lon="2.29675">
        <ele>246.2</ele>
        <time>2022-04-17T07:27:25.000Z</time>
      </trkpt>
      <trkpt lat="43.29491" lon="2.29672">
        <ele>246.1</ele>
        <time>2022-04-17T07:27:26.000Z</time>
      </trkpt>
      <trkpt lat="43.29492" lon="2.29668">
        <ele>246</ele>
        <time>2022-04-17T07:27:27.000Z</time>
      </trkpt>
      <trkpt lat="43.29493" lon="2.29665">
        <ele>245.9</ele>
        <time>2022-04-17T07:27:28.000Z</time>
      </trkpt>
      <trkpt lat="43.29494" lon="2.29661">
        <ele>245.9</ele>
        <time>2022-04-17T07:27:29.000Z</time>
      </trkpt>
      <trkpt lat="43.29496" lon="2.29658">
        <ele>245.8</ele>
        <time>2022-04-17T07:27:30.000Z</time>
      </trkpt>
      <trkpt lat="43.29497" lon="2.29655">
        <ele>245.8</ele>
        <time>2022-04-17T07:27:31.000Z</time>
      </trkpt>
      <trkpt lat="43.29498" lon="2.29652">
        <ele>245.8</ele>
        <time>2022-04-17T07:27:32.000Z</time>
      </trkpt>
      <trkpt lat="43.29499" lon="2.29649">
        <ele>245.8</ele>
        <time>2022-04-17T07:27:33.000Z</time>
      </trkpt>
      <trkpt lat="43.29499" lon="2.29645">
        <ele>245.7</ele>
        <time>2022-04-17T07:27:34.000Z</time>
      </trkpt>
      <trkpt lat="43.29499" lon="2.29642">
        <ele>245.7</ele>
        <time>2022-04-17T07:27:35.000Z</time>
      </trkpt>
      <trkpt lat="43.29498" lon="2.29639">
        <ele>245.6</ele>
        <time>2022-04-17T07:27:36.000Z</time>
      </trkpt>
      <trkpt lat="43.29498" lon="2.29636">
        <ele>245.6</ele>
        <time>2022-04-17T07:27:37.000Z</time>
      </trkpt>
      <trkpt lat="43.29498" lon="2.29633">
        <ele>245.5</ele>
        <time>2022-04-17T07:27:38.000Z</time>
      </trkpt>
      <trkpt lat="43.29497" lon="2.29629">
        <ele>245.5</ele>
        <time>2022-04-17T07:27:39.000Z</time>
      </trkpt>
      <trkpt lat="43.29497" lon="2.29626">
        <ele>245.4</ele>
        <time>2022-04-17T07:27:40.000Z</time>
      </trkpt>
      <trkpt lat="43.29496" lon="2.29622">
        <ele>245.4</ele>
        <time>2022-04-17T07:27:41.000Z</time>
      </trkpt>
      <trkpt lat="43.29496" lon="2.29618">
        <ele>245.3</ele>
        <time>2022-04-17T07:27:42.000Z</time>
      </trkpt>
      <trkpt lat="43.29495" lon="2.29614">
        <ele>245.3</ele>
        <time>2022-04-17T07:27:43.000Z</time>
      </trkpt>
      <trkpt lat="43.29495" lon="2.29611">
        <ele>245.2</ele>
        <time>2022-04-17T07:27:44.000Z</time>
      </trkpt>
      <trkpt lat="43.29495" lon="2.29607">
        <ele>245.2</ele>
        <time>2022-04-17T07:27:45.000Z</time>
      </trkpt>
      <trkpt lat="43.29495" lon="2.29603">
        <ele>245.1</ele>
        <time>2022-04-17T07:27:46.000Z</time>
      </trkpt>
      <trkpt lat="43.29495" lon="2.296">
        <ele>245.1</ele>
        <time>2022-04-17T07:27:47.000Z</time>
      </trkpt>
      <trkpt lat="43.29495" lon="2.29597">
        <ele>245.1</ele>
        <time>2022-04-17T07:27:48.000Z</time>
      </trkpt>
      <trkpt lat="43.29496" lon="2.29593">
        <ele>245</ele>
        <time>2022-04-17T07:27:49.000Z</time>
      </trkpt>
      <trkpt lat="43.29496" lon="2.2959">
        <ele>245</ele>
        <time>2022-04-17T07:27:50.000Z</time>
      </trkpt>
      <trkpt lat="43.29496" lon="2.29587">
        <ele>245</ele>
        <time>2022-04-17T07:27:51.000Z</time>
      </trkpt>
      <trkpt lat="43.29497" lon="2.29583">
        <ele>244.9</ele>
        <time>2022-04-17T07:27:52.000Z</time>
      </trkpt>
      <trkpt lat="43.29497" lon="2.2958">
        <ele>244.9</ele>
        <time>2022-04-17T07:27:53.000Z</time>
      </trkpt>
      <trkpt lat="43.29498" lon="2.29577">
        <ele>245</ele>
        <time>2022-04-17T07:27:54.000Z</time>
      </trkpt>
      <trkpt lat="43.29499" lon="2.29573">
        <ele>245</ele>
        <time>2022-04-17T07:27:55.000Z</time>
      </trkpt>
      <trkpt lat="43.295" lon="2.2957">
        <ele>245</ele>
        <time>2022-04-17T07:27:56.000Z</time>
      </trkpt>
      <trkpt lat="43.295" lon="2.29567">
        <ele>245</ele>
        <time>2022-04-17T07:27:57.000Z</time>
      </trkpt>
      <trkpt lat="43.29501" lon="2.29563">
        <ele>245</ele>
        <time>2022-04-17T07:27:58.000Z</time>
      </trkpt>
      <trkpt lat="43.29502" lon="2.2956">
        <ele>245</ele>
        <time>2022-04-17T07:27:59.000Z</time>
      </trkpt>
      <trkpt lat="43.29503" lon="2.29557">
        <ele>245.1</ele>
        <time>2022-04-17T07:28:00.000Z</time>
      </trkpt>
      <trkpt lat="43.29504" lon="2.29554">
        <ele>245.1</ele>
        <time>2022-04-17T07:28:01.000Z</time>
      </trkpt>
      <trkpt lat="43.29505" lon="2.29551">
        <ele>245.1</ele>
        <time>2022-04-17T07:28:02.000Z</time>
      </trkpt>
      <trkpt lat="43.29507" lon="2.29548">
        <ele>245.1</ele>
        <time>2022-04-17T07:28:03.000Z</time>
      </trkpt>
      <trkpt lat="43.29508" lon="2.29545">
        <ele>245.1</ele>
        <time>2022-04-17T07:28:04.000Z</time>
      </trkpt>
      <trkpt lat="43.29509" lon="2.29542">
        <ele>245.2</ele>
        <time>2022-04-17T07:28:05.000Z</time>
      </trkpt>
      <trkpt lat="43.2951" lon="2.29538">
        <ele>245.2</ele>
        <time>2022-04-17T07:28:06.000Z</time>
      </trkpt>
      <trkpt lat="43.29511" lon="2.29535">
        <ele>245.2</ele>
        <time>2022-04-17T07:28:07.000Z</time>
      </trkpt>
      <trkpt lat="43.29512" lon="2.29532">
        <ele>245.2</ele>
        <time>2022-04-17T07:28:08.000Z</time>
      </trkpt>
      <trkpt lat="43.29513" lon="2.29529">
        <ele>245.2</ele>
        <time>2022-04-17T07:28:09.000Z</time>
      </trkpt>
      <trkpt lat="43.29514" lon="2.29526">
        <ele>245.2</ele>
        <time>2022-04-17T07:28:10.000Z</time>
      </trkpt>
      <trkpt lat="43.29515" lon="2.29522">
        <ele>245.2</ele>
        <time>2022-04-17T07:28:11.000Z</time>
      </trkpt>
      <trkpt lat="43.29515" lon="2.29519">
        <ele>245.2</ele>
        <time>2022-04-17T07:28:12.000Z</time>
      </trkpt>
      <trkpt lat="43.29516" lon="2.29516">
        <ele>245.2</ele>
        <time>2022-04-17T07:28:13.000Z</time>
      </trkpt>
      <trkpt lat="43.29516" lon="2.29512">
        <ele>245.2</ele>
        <time>2022-04-17T07:28:14.000Z</time>
      </trkpt>
      <trkpt lat="43.29517" lon="2.29509">
        <ele>245.2</ele>
        <time>2022-04-17T07:28:15.000Z</time>
      </trkpt>
      <trkpt lat="43.29517" lon="2.29505">
        <ele>245.2</ele>
        <time>2022-04-17T07:28:16.000Z</time>
      </trkpt>
      <trkpt lat="43.29517" lon="2.29502">
        <ele>245.2</ele>
        <time>2022-04-17T07:28:17.000Z</time>
      </trkpt>
      <trkpt lat="43.29517" lon="2.29499">
        <ele>245.2</ele>
        <time>2022-04-17T07:28:18.000Z</time>
      </trkpt>
      <trkpt lat="43.29516" lon="2.29497">
        <ele>245.2</ele>
        <time>2022-04-17T07:28:19.000Z</time>
      </trkpt>
      <trkpt lat="43.29516" lon="2.29494">
        <ele>245.1</ele>
        <time>2022-04-17T07:28:20.000Z</time>
      </trkpt>
      <trkpt lat="43.29515" lon="2.29491">
        <ele>245.1</ele>
        <time>2022-04-17T07:28:21.000Z</time>
      </trkpt>
      <trkpt lat="43.29514" lon="2.29489">
        <ele>245</ele>
        <time>2022-04-17T07:28:22.000Z</time>
      </trkpt>
      <trkpt lat="43.29514" lon="2.29486">
        <ele>245</ele>
        <time>2022-04-17T07:28:23.000Z</time>
      </trkpt>
      <trkpt lat="43.29512" lon="2.29484">
        <ele>245</ele>
        <time>2022-04-17T07:28:24.000Z</time>
      </trkpt>
      <trkpt lat="43.29511" lon="2.29481">
        <ele>244.9</ele>
        <time>2022-04-17T07:28:25.000Z</time>
      </trkpt>
      <trkpt lat="43.2951" lon="2.29478">
        <ele>244.9</ele>
        <time>2022-04-17T07:28:26.000Z</time>
      </trkpt>
      <trkpt lat="43.29509" lon="2.29475">
        <ele>244.8</ele>
        <time>2022-04-17T07:28:27.000Z</time>
      </trkpt>
      <trkpt lat="43.29508" lon="2.29471">
        <ele>244.7</ele>
        <time>2022-04-17T07:28:28.000Z</time>
      </trkpt>
      <trkpt lat="43.29507" lon="2.29467">
        <ele>244.7</ele>
        <time>2022-04-17T07:28:29.000Z</time>
      </trkpt>
      <trkpt lat="43.29506" lon="2.29463">
        <ele>244.6</ele>
        <time>2022-04-17T07:28:30.000Z</time>
      </trkpt>
      <trkpt lat="43.29506" lon="2.29459">
        <ele>244.6</ele>
        <time>2022-04-17T07:28:31.000Z</time>
      </trkpt>
      <trkpt lat="43.29507" lon="2.29455">
        <ele>244.5</ele>
        <time>2022-04-17T07:28:32.000Z</time>
      </trkpt>
      <trkpt lat="43.29507" lon="2.29452">
        <ele>244.5</ele>
        <time>2022-04-17T07:28:33.000Z</time>
      </trkpt>
      <trkpt lat="43.29508" lon="2.29449">
        <ele>244.5</ele>
        <time>2022-04-17T07:28:34.000Z</time>
      </trkpt>
      <trkpt lat="43.2951" lon="2.29447">
        <ele>244.5</ele>
        <time>2022-04-17T07:28:35.000Z</time>
      </trkpt>
      <trkpt lat="43.29511" lon="2.29445">
        <ele>244.5</ele>
        <time>2022-04-17T07:28:36.000Z</time>
      </trkpt>
      <trkpt lat="43.29513" lon="2.29443">
        <ele>244.5</ele>
        <time>2022-04-17T07:28:37.000Z</time>
      </trkpt>
      <trkpt lat="43.29515" lon="2.29442">
        <ele>244.5</ele>
        <time>2022-04-17T07:28:38.000Z</time>
      </trkpt>
      <trkpt lat="43.29516" lon="2.29441">
        <ele>244.5</ele>
        <time>2022-04-17T07:28:39.000Z</time>
      </trkpt>
      <trkpt lat="43.29518" lon="2.2944">
        <ele>244.5</ele>
        <time>2022-04-17T07:28:40.000Z</time>
      </trkpt>
      <trkpt lat="43.2952" lon="2.29438">
        <ele>244.5</ele>
        <time>2022-04-17T07:28:41.000Z</time>
      </trkpt>
      <trkpt lat="43.29522" lon="2.29437">
        <ele>244.5</ele>
        <time>2022-04-17T07:28:42.000Z</time>
      </trkpt>
      <trkpt lat="43.29525" lon="2.29435">
        <ele>244.5</ele>
        <time>2022-04-17T07:28:43.000Z</time>
      </trkpt>
      <trkpt lat="43.29527" lon="2.29433">
        <ele>244.5</ele>
        <time>2022-04-17T07:28:44.000Z</time>
      </trkpt>
      <trkpt lat="43.29529" lon="2.29431">
        <ele>244.5</ele>
        <time>2022-04-17T07:28:45.000Z</time>
      </trkpt>
      <trkpt lat="43.29531" lon="2.29429">
        <ele>244.5</ele>
        <time>2022-04-17T07:28:46.000Z</time>
      </trkpt>
      <trkpt lat="43.29533" lon="2.29427">
        <ele>244.5</ele>
        <time>2022-04-17T07:28:47.000Z</time>
      </trkpt>
      <trkpt lat="43.29536" lon="2.29425">
        <ele>244.5</ele>
        <time>2022-04-17T07:28:48.000Z</time>
      </trkpt>
      <trkpt lat="43.29538" lon="2.29423">
        <ele>244.5</ele>
        <time>2022-04-17T07:28:49.000Z</time>
      </trkpt>
      <trkpt lat="43.2954" lon="2.2942">
        <ele>244.5</ele>
        <time>2022-04-17T07:28:50.000Z</time>
      </trkpt>
      <trkpt lat="43.29542" lon="2.29418">
        <ele>244.5</ele>
        <time>2022-04-17T07:28:51.000Z</time>
      </trkpt>
      <trkpt lat="43.29543" lon="2.29416">
        <ele>244.5</ele>
        <time>2022-04-17T07:28:52.000Z</time>
      </trkpt>
      <trkpt lat="43.29545" lon="2.29413">
        <ele>244.5</ele>
        <time>2022-04-17T07:28:53.000Z</time>
      </trkpt>
      <trkpt lat="43.29546" lon="2.29411">
        <ele>244.5</ele>
        <time>2022-04-17T07:28:54.000Z</time>
      </trkpt>
      <trkpt lat="43.29546" lon="2.29408">
        <ele>244.5</ele>
        <time>2022-04-17T07:28:55.000Z</time>
      </trkpt>
      <trkpt lat="43.29546" lon="2.29405">
        <ele>244.5</ele>
        <time>2022-04-17T07:28:56.000Z</time>
      </trkpt>
      <trkpt lat="43.29545" lon="2.29402">
        <ele>244.4</ele>
        <time>2022-04-17T07:28:57.000Z</time>
      </trkpt>
      <trkpt lat="43.29544" lon="2.29399">
        <ele>244.4</ele>
        <time>2022-04-17T07:28:58.000Z</time>
      </trkpt>
      <trkpt lat="43.29544" lon="2.29395">
        <ele>244.4</ele>
        <time>2022-04-17T07:28:59.000Z</time>
      </trkpt>
      <trkpt lat="43.29543" lon="2.29392">
        <ele>244.4</ele>
        <time>2022-04-17T07:29:00.000Z</time>
      </trkpt>
      <trkpt lat="43.29542" lon="2.29388">
        <ele>244.3</ele>
        <time>2022-04-17T07:29:01.000Z</time>
      </trkpt>
      <trkpt lat="43.29542" lon="2.29385">
        <ele>244.3</ele>
        <time>2022-04-17T07:29:02.000Z</time>
      </trkpt>
      <trkpt lat="43.29541" lon="2.29381">
        <ele>244.3</ele>
        <time>2022-04-17T07:29:03.000Z</time>
      </trkpt>
      <trkpt lat="43.29541" lon="2.29378">
        <ele>244.3</ele>
        <time>2022-04-17T07:29:04.000Z</time>
      </trkpt>
      <trkpt lat="43.29541" lon="2.29374">
        <ele>244.2</ele>
        <time>2022-04-17T07:29:05.000Z</time>
      </trkpt>
      <trkpt lat="43.29542" lon="2.29371">
        <ele>244.2</ele>
        <time>2022-04-17T07:29:06.000Z</time>
      </trkpt>
      <trkpt lat="43.29542" lon="2.29368">
        <ele>244.2</ele>
        <time>2022-04-17T07:29:07.000Z</time>
      </trkpt>
      <trkpt lat="43.29543" lon="2.29364">
        <ele>244.2</ele>
        <time>2022-04-17T07:29:08.000Z</time>
      </trkpt>
      <trkpt lat="43.29544" lon="2.29361">
        <ele>244.2</ele>
        <time>2022-04-17T07:29:09.000Z</time>
      </trkpt>
      <trkpt lat="43.29545" lon="2.29358">
        <ele>244.2</ele>
        <time>2022-04-17T07:29:10.000Z</time>
      </trkpt>
      <trkpt lat="43.29547" lon="2.29355">
        <ele>244.1</ele>
        <time>2022-04-17T07:29:11.000Z</time>
      </trkpt>
      <trkpt lat="43.29548" lon="2.29352">
        <ele>244.1</ele>
        <time>2022-04-17T07:29:12.000Z</time>
      </trkpt>
      <trkpt lat="43.29549" lon="2.29349">
        <ele>244.1</ele>
        <time>2022-04-17T07:29:13.000Z</time>
      </trkpt>
      <trkpt lat="43.29551" lon="2.29346">
        <ele>244.1</ele>
        <time>2022-04-17T07:29:14.000Z</time>
      </trkpt>
      <trkpt lat="43.29552" lon="2.29343">
        <ele>244.1</ele>
        <time>2022-04-17T07:29:15.000Z</time>
      </trkpt>
      <trkpt lat="43.29554" lon="2.29341">
        <ele>244.1</ele>
        <time>2022-04-17T07:29:16.000Z</time>
      </trkpt>
      <trkpt lat="43.29555" lon="2.29338">
        <ele>244</ele>
        <time>2022-04-17T07:29:17.000Z</time>
      </trkpt>
      <trkpt lat="43.29556" lon="2.29335">
        <ele>244</ele>
        <time>2022-04-17T07:29:18.000Z</time>
      </trkpt>
      <trkpt lat="43.29557" lon="2.29332">
        <ele>244</ele>
        <time>2022-04-17T07:29:19.000Z</time>
      </trkpt>
      <trkpt lat="43.29558" lon="2.29329">
        <ele>244</ele>
        <time>2022-04-17T07:29:20.000Z</time>
      </trkpt>
      <trkpt lat="43.29559" lon="2.29326">
        <ele>243.9</ele>
        <time>2022-04-17T07:29:21.000Z</time>
      </trkpt>
      <trkpt lat="43.2956" lon="2.29324">
        <ele>243.9</ele>
        <time>2022-04-17T07:29:22.000Z</time>
      </trkpt>
      <trkpt lat="43.29561" lon="2.29321">
        <ele>243.9</ele>
        <time>2022-04-17T07:29:23.000Z</time>
      </trkpt>
      <trkpt lat="43.29562" lon="2.29318">
        <ele>243.9</ele>
        <time>2022-04-17T07:29:24.000Z</time>
      </trkpt>
      <trkpt lat="43.29562" lon="2.29315">
        <ele>243.8</ele>
        <time>2022-04-17T07:29:25.000Z</time>
      </trkpt>
      <trkpt lat="43.29563" lon="2.29312">
        <ele>243.8</ele>
        <time>2022-04-17T07:29:26.000Z</time>
      </trkpt>
      <trkpt lat="43.29564" lon="2.29309">
        <ele>243.8</ele>
        <time>2022-04-17T07:29:27.000Z</time>
      </trkpt>
      <trkpt lat="43.29565" lon="2.29306">
        <ele>243.7</ele>
        <time>2022-04-17T07:29:28.000Z</time>
      </trkpt>
      <trkpt lat="43.29565" lon="2.29303">
        <ele>243.7</ele>
        <time>2022-04-17T07:29:29.000Z</time>
      </trkpt>
      <trkpt lat="43.29566" lon="2.293">
        <ele>243.7</ele>
        <time>2022-04-17T07:29:30.000Z</time>
      </trkpt>
      <trkpt lat="43.29567" lon="2.29297">
        <ele>243.6</ele>
        <time>2022-04-17T07:29:31.000Z</time>
      </trkpt>
      <trkpt lat="43.29568" lon="2.29294">
        <ele>243.6</ele>
        <time>2022-04-17T07:29:32.000Z</time>
      </trkpt>
      <trkpt lat="43.29569" lon="2.2929">
        <ele>243.6</ele>
        <time>2022-04-17T07:29:33.000Z</time>
      </trkpt>
      <trkpt lat="43.29569" lon="2.29287">
        <ele>243.5</ele>
        <time>2022-04-17T07:29:34.000Z</time>
      </trkpt>
      <trkpt lat="43.2957" lon="2.29284">
        <ele>243.5</ele>
        <time>2022-04-17T07:29:35.000Z</time>
      </trkpt>
      <trkpt lat="43.29571" lon="2.29281">
        <ele>243.5</ele>
        <time>2022-04-17T07:29:36.000Z</time>
      </trkpt>
      <trkpt lat="43.29572" lon="2.29278">
        <ele>243.4</ele>
        <time>2022-04-17T07:29:37.000Z</time>
      </trkpt>
      <trkpt lat="43.29573" lon="2.29274">
        <ele>243.4</ele>
        <time>2022-04-17T07:29:38.000Z</time>
      </trkpt>
      <trkpt lat="43.29574" lon="2.29271">
        <ele>243.3</ele>
        <time>2022-04-17T07:29:39.000Z</time>
      </trkpt>
      <trkpt lat="43.29575" lon="2.29268">
        <ele>243.3</ele>
        <time>2022-04-17T07:29:40.000Z</time>
      </trkpt>
      <trkpt lat="43.29576" lon="2.29265">
        <ele>243.2</ele>
        <time>2022-04-17T07:29:41.000Z</time>
      </trkpt>
      <trkpt lat="43.29577" lon="2.29262">
        <ele>243.2</ele>
        <time>2022-04-17T07:29:42.000Z</time>
      </trkpt>
      <trkpt lat="43.29578" lon="2.29258">
        <ele>243.2</ele>
        <time>2022-04-17T07:29:43.000Z</time>
      </trkpt>
      <trkpt lat="43.29578" lon="2.29255">
        <ele>243.1</ele>
        <time>2022-04-17T07:29:44.000Z</time>
      </trkpt>
      <trkpt lat="43.29579" lon="2.29252">
        <ele>243.1</ele>
        <time>2022-04-17T07:29:45.000Z</time>
      </trkpt>
      <trkpt lat="43.2958" lon="2.29249">
        <ele>243</ele>
        <time>2022-04-17T07:29:46.000Z</time>
      </trkpt>
      <trkpt lat="43.2958" lon="2.29246">
        <ele>243</ele>
        <time>2022-04-17T07:29:47.000Z</time>
      </trkpt>
      <trkpt lat="43.29581" lon="2.29243">
        <ele>243</ele>
        <time>2022-04-17T07:29:48.000Z</time>
      </trkpt>
      <trkpt lat="43.29582" lon="2.2924">
        <ele>243</ele>
        <time>2022-04-17T07:29:49.000Z</time>
      </trkpt>
      <trkpt lat="43.29583" lon="2.29237">
        <ele>243</ele>
        <time>2022-04-17T07:29:50.000Z</time>
      </trkpt>
      <trkpt lat="43.29584" lon="2.29234">
        <ele>243</ele>
        <time>2022-04-17T07:29:51.000Z</time>
      </trkpt>
      <trkpt lat="43.29585" lon="2.29231">
        <ele>243.1</ele>
        <time>2022-04-17T07:29:52.000Z</time>
      </trkpt>
      <trkpt lat="43.29586" lon="2.29228">
        <ele>243.1</ele>
        <time>2022-04-17T07:29:53.000Z</time>
      </trkpt>
      <trkpt lat="43.29587" lon="2.29224">
        <ele>243.1</ele>
        <time>2022-04-17T07:29:54.000Z</time>
      </trkpt>
      <trkpt lat="43.29588" lon="2.29221">
        <ele>243.2</ele>
        <time>2022-04-17T07:29:55.000Z</time>
      </trkpt>
      <trkpt lat="43.29589" lon="2.29218">
        <ele>243.2</ele>
        <time>2022-04-17T07:29:56.000Z</time>
      </trkpt>
      <trkpt lat="43.29591" lon="2.29215">
        <ele>243.3</ele>
        <time>2022-04-17T07:29:57.000Z</time>
      </trkpt>
      <trkpt lat="43.29592" lon="2.29211">
        <ele>243.3</ele>
        <time>2022-04-17T07:29:58.000Z</time>
      </trkpt>
      <trkpt lat="43.29593" lon="2.29208">
        <ele>243.3</ele>
        <time>2022-04-17T07:29:59.000Z</time>
      </trkpt>
      <trkpt lat="43.29594" lon="2.29205">
        <ele>243.4</ele>
        <time>2022-04-17T07:30:00.000Z</time>
      </trkpt>
      <trkpt lat="43.29595" lon="2.29202">
        <ele>243.4</ele>
        <time>2022-04-17T07:30:01.000Z</time>
      </trkpt>
      <trkpt lat="43.29596" lon="2.29199">
        <ele>243.4</ele>
        <time>2022-04-17T07:30:02.000Z</time>
      </trkpt>
      <trkpt lat="43.29597" lon="2.29195">
        <ele>243.4</ele>
        <time>2022-04-17T07:30:03.000Z</time>
      </trkpt>
      <trkpt lat="43.29598" lon="2.29192">
        <ele>243.4</ele>
        <time>2022-04-17T07:30:04.000Z</time>
      </trkpt>
      <trkpt lat="43.29598" lon="2.29189">
        <ele>243.5</ele>
        <time>2022-04-17T07:30:05.000Z</time>
      </trkpt>
      <trkpt lat="43.29599" lon="2.29186">
        <ele>243.5</ele>
        <time>2022-04-17T07:30:06.000Z</time>
      </trkpt>
      <trkpt lat="43.296" lon="2.29183">
        <ele>243.5</ele>
        <time>2022-04-17T07:30:07.000Z</time>
      </trkpt>
      <trkpt lat="43.29601" lon="2.2918">
        <ele>243.5</ele>
        <time>2022-04-17T07:30:08.000Z</time>
      </trkpt>
      <trkpt lat="43.29602" lon="2.29177">
        <ele>243.5</ele>
        <time>2022-04-17T07:30:09.000Z</time>
      </trkpt>
      <trkpt lat="43.29603" lon="2.29173">
        <ele>243.5</ele>
        <time>2022-04-17T07:30:10.000Z</time>
      </trkpt>
      <trkpt lat="43.29604" lon="2.2917">
        <ele>243.5</ele>
        <time>2022-04-17T07:30:11.000Z</time>
      </trkpt>
      <trkpt lat="43.29605" lon="2.29167">
        <ele>243.5</ele>
        <time>2022-04-17T07:30:12.000Z</time>
      </trkpt>
      <trkpt lat="43.29606" lon="2.29164">
        <ele>243.5</ele>
        <time>2022-04-17T07:30:13.000Z</time>
      </trkpt>
      <trkpt lat="43.29607" lon="2.29161">
        <ele>243.5</ele>
        <time>2022-04-17T07:30:14.000Z</time>
      </trkpt>
      <trkpt lat="43.29608" lon="2.29158">
        <ele>243.5</ele>
        <time>2022-04-17T07:30:15.000Z</time>
      </trkpt>
      <trkpt lat="43.29609" lon="2.29156">
        <ele>243.5</ele>
        <time>2022-04-17T07:30:16.000Z</time>
      </trkpt>
      <trkpt lat="43.2961" lon="2.29153">
        <ele>243.5</ele>
        <time>2022-04-17T07:30:17.000Z</time>
      </trkpt>
      <trkpt lat="43.29611" lon="2.29151">
        <ele>243.5</ele>
        <time>2022-04-17T07:30:18.000Z</time>
      </trkpt>
      <trkpt lat="43.29612" lon="2.29149">
        <ele>243.5</ele>
        <time>2022-04-17T07:30:19.000Z</time>
      </trkpt>
      <trkpt lat="43.29613" lon="2.29146">
        <ele>243.5</ele>
        <time>2022-04-17T07:30:20.000Z</time>
      </trkpt>
      <trkpt lat="43.29614" lon="2.29144">
        <ele>243.5</ele>
        <time>2022-04-17T07:30:21.000Z</time>
      </trkpt>
      <trkpt lat="43.29616" lon="2.29142">
        <ele>243.5</ele>
        <time>2022-04-17T07:30:22.000Z</time>
      </trkpt>
      <trkpt lat="43.29617" lon="2.29139">
        <ele>243.5</ele>
        <time>2022-04-17T07:30:23.000Z</time>
      </trkpt>
      <trkpt lat="43.29618" lon="2.29137">
        <ele>243.5</ele>
        <time>2022-04-17T07:30:24.000Z</time>
      </trkpt>
      <trkpt lat="43.29619" lon="2.29134">
        <ele>243.6</ele>
        <time>2022-04-17T07:30:25.000Z</time>
      </trkpt>
      <trkpt lat="43.2962" lon="2.29131">
        <ele>243.6</ele>
        <time>2022-04-17T07:30:26.000Z</time>
      </trkpt>
      <trkpt lat="43.29621" lon="2.29128">
        <ele>243.6</ele>
        <time>2022-04-17T07:30:27.000Z</time>
      </trkpt>
      <trkpt lat="43.29622" lon="2.29125">
        <ele>243.6</ele>
        <time>2022-04-17T07:30:28.000Z</time>
      </trkpt>
      <trkpt lat="43.29623" lon="2.29122">
        <ele>243.7</ele>
        <time>2022-04-17T07:30:29.000Z</time>
      </trkpt>
      <trkpt lat="43.29625" lon="2.29119">
        <ele>243.7</ele>
        <time>2022-04-17T07:30:30.000Z</time>
      </trkpt>
      <trkpt lat="43.29626" lon="2.29116">
        <ele>243.7</ele>
        <time>2022-04-17T07:30:31.000Z</time>
      </trkpt>
      <trkpt lat="43.29627" lon="2.29113">
        <ele>243.8</ele>
        <time>2022-04-17T07:30:32.000Z</time>
      </trkpt>
      <trkpt lat="43.29628" lon="2.2911">
        <ele>243.8</ele>
        <time>2022-04-17T07:30:33.000Z</time>
      </trkpt>
      <trkpt lat="43.2963" lon="2.29107">
        <ele>243.9</ele>
        <time>2022-04-17T07:30:34.000Z</time>
      </trkpt>
      <trkpt lat="43.29631" lon="2.29104">
        <ele>243.9</ele>
        <time>2022-04-17T07:30:35.000Z</time>
      </trkpt>
      <trkpt lat="43.29632" lon="2.29101">
        <ele>244</ele>
        <time>2022-04-17T07:30:36.000Z</time>
      </trkpt>
      <trkpt lat="43.29633" lon="2.29098">
        <ele>244</ele>
        <time>2022-04-17T07:30:37.000Z</time>
      </trkpt>
      <trkpt lat="43.29634" lon="2.29095">
        <ele>244.1</ele>
        <time>2022-04-17T07:30:38.000Z</time>
      </trkpt>
      <trkpt lat="43.29635" lon="2.29092">
        <ele>244.1</ele>
        <time>2022-04-17T07:30:39.000Z</time>
      </trkpt>
      <trkpt lat="43.29636" lon="2.29089">
        <ele>244.2</ele>
        <time>2022-04-17T07:30:40.000Z</time>
      </trkpt>
      <trkpt lat="43.29637" lon="2.29087">
        <ele>244.2</ele>
        <time>2022-04-17T07:30:41.000Z</time>
      </trkpt>
      <trkpt lat="43.29639" lon="2.29084">
        <ele>244.3</ele>
        <time>2022-04-17T07:30:42.000Z</time>
      </trkpt>
      <trkpt lat="43.2964" lon="2.29082">
        <ele>244.4</ele>
        <time>2022-04-17T07:30:43.000Z</time>
      </trkpt>
      <trkpt lat="43.29641" lon="2.29079">
        <ele>244.5</ele>
        <time>2022-04-17T07:30:44.000Z</time>
      </trkpt>
      <trkpt lat="43.29643" lon="2.29077">
        <ele>244.7</ele>
        <time>2022-04-17T07:30:45.000Z</time>
      </trkpt>
      <trkpt lat="43.29644" lon="2.29075">
        <ele>244.8</ele>
        <time>2022-04-17T07:30:46.000Z</time>
      </trkpt>
      <trkpt lat="43.29645" lon="2.29073">
        <ele>244.8</ele>
        <time>2022-04-17T07:30:47.000Z</time>
      </trkpt>
      <trkpt lat="43.29646" lon="2.29071">
        <ele>244.9</ele>
        <time>2022-04-17T07:30:48.000Z</time>
      </trkpt>
      <trkpt lat="43.29646" lon="2.29069">
        <ele>245</ele>
        <time>2022-04-17T07:30:49.000Z</time>
      </trkpt>
      <trkpt lat="43.29646" lon="2.29068">
        <ele>245</ele>
        <time>2022-04-17T07:30:50.000Z</time>
      </trkpt>
      <trkpt lat="43.29646" lon="2.29066">
        <ele>245</ele>
        <time>2022-04-17T07:30:51.000Z</time>
      </trkpt>
      <trkpt lat="43.29646" lon="2.29065">
        <ele>245</ele>
        <time>2022-04-17T07:30:52.000Z</time>
      </trkpt>
      <trkpt lat="43.29645" lon="2.29064">
        <ele>245</ele>
        <time>2022-04-17T07:30:53.000Z</time>
      </trkpt>
      <trkpt lat="43.29644" lon="2.29063">
        <ele>245</ele>
        <time>2022-04-17T07:30:54.000Z</time>
      </trkpt>
      <trkpt lat="43.29644" lon="2.29062">
        <ele>244.9</ele>
        <time>2022-04-17T07:30:55.000Z</time>
      </trkpt>
      <trkpt lat="43.29643" lon="2.29062">
        <ele>244.9</ele>
        <time>2022-04-17T07:30:56.000Z</time>
      </trkpt>
      <trkpt lat="43.29642" lon="2.29062">
        <ele>244.9</ele>
        <time>2022-04-17T07:30:57.000Z</time>
      </trkpt>
      <trkpt lat="43.29642" lon="2.29062">
        <ele>244.8</ele>
        <time>2022-04-17T07:30:58.000Z</time>
      </trkpt>
      <trkpt lat="43.29641" lon="2.29062">
        <ele>244.8</ele>
        <time>2022-04-17T07:30:59.000Z</time>
      </trkpt>
      <trkpt lat="43.29641" lon="2.29062">
        <ele>244.8</ele>
        <time>2022-04-17T07:31:00.000Z</time>
      </trkpt>
      <trkpt lat="43.29641" lon="2.29061">
        <ele>244.8</ele>
        <time>2022-04-17T07:31:01.000Z</time>
      </trkpt>
      <trkpt lat="43.29642" lon="2.29059">
        <ele>244.9</ele>
        <time>2022-04-17T07:31:02.000Z</time>
      </trkpt>
      <trkpt lat="43.29642" lon="2.29058">
        <ele>244.9</ele>
        <time>2022-04-17T07:31:03.000Z</time>
      </trkpt>
      <trkpt lat="43.29643" lon="2.29056">
        <ele>245</ele>
        <time>2022-04-17T07:31:04.000Z</time>
      </trkpt>
      <trkpt lat="43.29644" lon="2.29055">
        <ele>245.1</ele>
        <time>2022-04-17T07:31:05.000Z</time>
      </trkpt>
      <trkpt lat="43.29646" lon="2.29053">
        <ele>245.2</ele>
        <time>2022-04-17T07:31:06.000Z</time>
      </trkpt>
      <trkpt lat="43.29648" lon="2.29051">
        <ele>245.3</ele>
        <time>2022-04-17T07:31:07.000Z</time>
      </trkpt>
      <trkpt lat="43.29649" lon="2.29049">
        <ele>245.5</ele>
        <time>2022-04-17T07:31:08.000Z</time>
      </trkpt>
      <trkpt lat="43.29651" lon="2.29048">
        <ele>245.6</ele>
        <time>2022-04-17T07:31:09.000Z</time>
      </trkpt>
      <trkpt lat="43.29653" lon="2.29046">
        <ele>245.7</ele>
        <time>2022-04-17T07:31:10.000Z</time>
      </trkpt>
      <trkpt lat="43.29656" lon="2.29044">
        <ele>245.9</ele>
        <time>2022-04-17T07:31:11.000Z</time>
      </trkpt>
      <trkpt lat="43.29658" lon="2.29043">
        <ele>246</ele>
        <time>2022-04-17T07:31:12.000Z</time>
      </trkpt>
      <trkpt lat="43.2966" lon="2.29041">
        <ele>246.1</ele>
        <time>2022-04-17T07:31:13.000Z</time>
      </trkpt>
      <trkpt lat="43.29661" lon="2.29039">
        <ele>246.2</ele>
        <time>2022-04-17T07:31:14.000Z</time>
      </trkpt>
      <trkpt lat="43.29663" lon="2.29037">
        <ele>246.4</ele>
        <time>2022-04-17T07:31:15.000Z</time>
      </trkpt>
      <trkpt lat="43.29664" lon="2.29035">
        <ele>246.5</ele>
        <time>2022-04-17T07:31:16.000Z</time>
      </trkpt>
      <trkpt lat="43.29665" lon="2.29032">
        <ele>246.5</ele>
        <time>2022-04-17T07:31:17.000Z</time>
      </trkpt>
      <trkpt lat="43.29666" lon="2.29029">
        <ele>246.6</ele>
        <time>2022-04-17T07:31:18.000Z</time>
      </trkpt>
      <trkpt lat="43.29667" lon="2.29026">
        <ele>246.7</ele>
        <time>2022-04-17T07:31:19.000Z</time>
      </trkpt>
      <trkpt lat="43.29668" lon="2.29023">
        <ele>246.7</ele>
        <time>2022-04-17T07:31:20.000Z</time>
      </trkpt>
      <trkpt lat="43.29668" lon="2.2902">
        <ele>246.8</ele>
        <time>2022-04-17T07:31:21.000Z</time>
      </trkpt>
      <trkpt lat="43.29669" lon="2.29017">
        <ele>246.8</ele>
        <time>2022-04-17T07:31:22.000Z</time>
      </trkpt>
      <trkpt lat="43.2967" lon="2.29015">
        <ele>246.9</ele>
        <time>2022-04-17T07:31:23.000Z</time>
      </trkpt>
      <trkpt lat="43.29671" lon="2.29012">
        <ele>246.9</ele>
        <time>2022-04-17T07:31:24.000Z</time>
      </trkpt>
      <trkpt lat="43.29673" lon="2.29009">
        <ele>247</ele>
        <time>2022-04-17T07:31:25.000Z</time>
      </trkpt>
      <trkpt lat="43.29674" lon="2.29007">
        <ele>247</ele>
        <time>2022-04-17T07:31:26.000Z</time>
      </trkpt>
      <trkpt lat="43.29675" lon="2.29004">
        <ele>247.1</ele>
        <time>2022-04-17T07:31:27.000Z</time>
      </trkpt>
      <trkpt lat="43.29677" lon="2.29002">
        <ele>247.1</ele>
        <time>2022-04-17T07:31:28.000Z</time>
      </trkpt>
      <trkpt lat="43.29678" lon="2.28999">
        <ele>247.1</ele>
        <time>2022-04-17T07:31:29.000Z</time>
      </trkpt>
      <trkpt lat="43.2968" lon="2.28997">
        <ele>247</ele>
        <time>2022-04-17T07:31:30.000Z</time>
      </trkpt>
      <trkpt lat="43.29681" lon="2.28994">
        <ele>247</ele>
        <time>2022-04-17T07:31:31.000Z</time>
      </trkpt>
      <trkpt lat="43.29683" lon="2.28991">
        <ele>246.9</ele>
        <time>2022-04-17T07:31:32.000Z</time>
      </trkpt>
      <trkpt lat="43.29684" lon="2.28988">
        <ele>246.8</ele>
        <time>2022-04-17T07:31:33.000Z</time>
      </trkpt>
      <trkpt lat="43.29686" lon="2.28985">
        <ele>246.8</ele>
        <time>2022-04-17T07:31:34.000Z</time>
      </trkpt>
      <trkpt lat="43.29687" lon="2.28982">
        <ele>246.7</ele>
        <time>2022-04-17T07:31:35.000Z</time>
      </trkpt>
      <trkpt lat="43.29688" lon="2.28979">
        <ele>246.6</ele>
        <time>2022-04-17T07:31:36.000Z</time>
      </trkpt>
      <trkpt lat="43.29689" lon="2.28976">
        <ele>246.6</ele>
        <time>2022-04-17T07:31:37.000Z</time>
      </trkpt>
      <trkpt lat="43.2969" lon="2.28973">
        <ele>246.5</ele>
        <time>2022-04-17T07:31:38.000Z</time>
      </trkpt>
      <trkpt lat="43.29691" lon="2.2897">
        <ele>246.4</ele>
        <time>2022-04-17T07:31:39.000Z</time>
      </trkpt>
      <trkpt lat="43.29692" lon="2.28967">
        <ele>246.3</ele>
        <time>2022-04-17T07:31:40.000Z</time>
      </trkpt>
      <trkpt lat="43.29692" lon="2.28964">
        <ele>246.3</ele>
        <time>2022-04-17T07:31:41.000Z</time>
      </trkpt>
      <trkpt lat="43.29693" lon="2.28961">
        <ele>246.2</ele>
        <time>2022-04-17T07:31:42.000Z</time>
      </trkpt>
      <trkpt lat="43.29693" lon="2.28958">
        <ele>246.1</ele>
        <time>2022-04-17T07:31:43.000Z</time>
      </trkpt>
      <trkpt lat="43.29693" lon="2.28955">
        <ele>246</ele>
        <time>2022-04-17T07:31:44.000Z</time>
      </trkpt>
      <trkpt lat="43.29693" lon="2.28952">
        <ele>245.9</ele>
        <time>2022-04-17T07:31:45.000Z</time>
      </trkpt>
      <trkpt lat="43.29692" lon="2.28949">
        <ele>245.8</ele>
        <time>2022-04-17T07:31:46.000Z</time>
      </trkpt>
      <trkpt lat="43.29692" lon="2.28946">
        <ele>245.7</ele>
        <time>2022-04-17T07:31:47.000Z</time>
      </trkpt>
      <trkpt lat="43.29691" lon="2.28942">
        <ele>245.6</ele>
        <time>2022-04-17T07:31:48.000Z</time>
      </trkpt>
      <trkpt lat="43.2969" lon="2.28939">
        <ele>245.5</ele>
        <time>2022-04-17T07:31:49.000Z</time>
      </trkpt>
      <trkpt lat="43.29689" lon="2.28936">
        <ele>245.4</ele>
        <time>2022-04-17T07:31:50.000Z</time>
      </trkpt>
      <trkpt lat="43.29688" lon="2.28933">
        <ele>245.2</ele>
        <time>2022-04-17T07:31:51.000Z</time>
      </trkpt>
      <trkpt lat="43.29687" lon="2.28929">
        <ele>245.1</ele>
        <time>2022-04-17T07:31:52.000Z</time>
      </trkpt>
      <trkpt lat="43.29685" lon="2.28926">
        <ele>245</ele>
        <time>2022-04-17T07:31:53.000Z</time>
      </trkpt>
      <trkpt lat="43.29683" lon="2.28923">
        <ele>244.8</ele>
        <time>2022-04-17T07:31:54.000Z</time>
      </trkpt>
      <trkpt lat="43.29681" lon="2.28921">
        <ele>244.7</ele>
        <time>2022-04-17T07:31:55.000Z</time>
      </trkpt>
      <trkpt lat="43.2968" lon="2.28918">
        <ele>244.5</ele>
        <time>2022-04-17T07:31:56.000Z</time>
      </trkpt>
      <trkpt lat="43.29677" lon="2.28916">
        <ele>244.4</ele>
        <time>2022-04-17T07:31:57.000Z</time>
      </trkpt>
      <trkpt lat="43.29675" lon="2.28914">
        <ele>244.3</ele>
        <time>2022-04-17T07:31:58.000Z</time>
      </trkpt>
      <trkpt lat="43.29673" lon="2.28912">
        <ele>244.2</ele>
        <time>2022-04-17T07:31:59.000Z</time>
      </trkpt>
      <trkpt lat="43.2967" lon="2.2891">
        <ele>244.1</ele>
        <time>2022-04-17T07:32:00.000Z</time>
      </trkpt>
      <trkpt lat="43.29668" lon="2.28908">
        <ele>244</ele>
        <time>2022-04-17T07:32:01.000Z</time>
      </trkpt>
      <trkpt lat="43.29665" lon="2.28906">
        <ele>243.9</ele>
        <time>2022-04-17T07:32:02.000Z</time>
      </trkpt>
      <trkpt lat="43.29663" lon="2.28905">
        <ele>243.8</ele>
        <time>2022-04-17T07:32:03.000Z</time>
      </trkpt>
      <trkpt lat="43.2966" lon="2.28903">
        <ele>243.7</ele>
        <time>2022-04-17T07:32:04.000Z</time>
      </trkpt>
      <trkpt lat="43.29657" lon="2.28902">
        <ele>243.6</ele>
        <time>2022-04-17T07:32:05.000Z</time>
      </trkpt>
      <trkpt lat="43.29654" lon="2.28901">
        <ele>243.5</ele>
        <time>2022-04-17T07:32:06.000Z</time>
      </trkpt>
      <trkpt lat="43.29652" lon="2.28899">
        <ele>243.4</ele>
        <time>2022-04-17T07:32:07.000Z</time>
      </trkpt>
      <trkpt lat="43.29649" lon="2.28898">
        <ele>243.3</ele>
        <time>2022-04-17T07:32:08.000Z</time>
      </trkpt>
      <trkpt lat="43.29646" lon="2.28897">
        <ele>243.1</ele>
        <time>2022-04-17T07:32:09.000Z</time>
      </trkpt>
      <trkpt lat="43.29643" lon="2.28896">
        <ele>243</ele>
        <time>2022-04-17T07:32:10.000Z</time>
      </trkpt>
      <trkpt lat="43.29641" lon="2.28895">
        <ele>242.9</ele>
        <time>2022-04-17T07:32:11.000Z</time>
      </trkpt>
      <trkpt lat="43.29638" lon="2.28893">
        <ele>242.8</ele>
        <time>2022-04-17T07:32:12.000Z</time>
      </trkpt>
      <trkpt lat="43.29635" lon="2.28892">
        <ele>242.6</ele>
        <time>2022-04-17T07:32:13.000Z</time>
      </trkpt>
      <trkpt lat="43.29633" lon="2.28891">
        <ele>242.5</ele>
        <time>2022-04-17T07:32:14.000Z</time>
      </trkpt>
      <trkpt lat="43.2963" lon="2.28889">
        <ele>242.4</ele>
        <time>2022-04-17T07:32:15.000Z</time>
      </trkpt>
      <trkpt lat="43.29628" lon="2.28888">
        <ele>242.3</ele>
        <time>2022-04-17T07:32:16.000Z</time>
      </trkpt>
      <trkpt lat="43.29625" lon="2.28886">
        <ele>242.1</ele>
        <time>2022-04-17T07:32:17.000Z</time>
      </trkpt>
      <trkpt lat="43.29623" lon="2.28885">
        <ele>242</ele>
        <time>2022-04-17T07:32:18.000Z</time>
      </trkpt>
      <trkpt lat="43.29621" lon="2.28883">
        <ele>241.9</ele>
        <time>2022-04-17T07:32:19.000Z</time>
      </trkpt>
      <trkpt lat="43.29618" lon="2.28881">
        <ele>241.8</ele>
        <time>2022-04-17T07:32:20.000Z</time>
      </trkpt>
      <trkpt lat="43.29616" lon="2.28879">
        <ele>241.6</ele>
        <time>2022-04-17T07:32:21.000Z</time>
      </trkpt>
      <trkpt lat="43.29614" lon="2.28876">
        <ele>241.5</ele>
        <time>2022-04-17T07:32:22.000Z</time>
      </trkpt>
      <trkpt lat="43.29612" lon="2.28874">
        <ele>241.4</ele>
        <time>2022-04-17T07:32:23.000Z</time>
      </trkpt>
      <trkpt lat="43.2961" lon="2.28872">
        <ele>241.2</ele>
        <time>2022-04-17T07:32:24.000Z</time>
      </trkpt>
      <trkpt lat="43.29609" lon="2.28869">
        <ele>241.1</ele>
        <time>2022-04-17T07:32:25.000Z</time>
      </trkpt>
      <trkpt lat="43.29607" lon="2.28867">
        <ele>241</ele>
        <time>2022-04-17T07:32:26.000Z</time>
      </trkpt>
      <trkpt lat="43.29605" lon="2.28864">
        <ele>240.9</ele>
        <time>2022-04-17T07:32:27.000Z</time>
      </trkpt>
      <trkpt lat="43.29604" lon="2.28862">
        <ele>240.8</ele>
        <time>2022-04-17T07:32:28.000Z</time>
      </trkpt>
      <trkpt lat="43.29603" lon="2.2886">
        <ele>240.6</ele>
        <time>2022-04-17T07:32:29.000Z</time>
      </trkpt>
      <trkpt lat="43.29601" lon="2.28857">
        <ele>240.5</ele>
        <time>2022-04-17T07:32:30.000Z</time>
      </trkpt>
      <trkpt lat="43.296" lon="2.28855">
        <ele>240.4</ele>
        <time>2022-04-17T07:32:31.000Z</time>
      </trkpt>
      <trkpt lat="43.29599" lon="2.28853">
        <ele>240.3</ele>
        <time>2022-04-17T07:32:32.000Z</time>
      </trkpt>
      <trkpt lat="43.29597" lon="2.28851">
        <ele>240.2</ele>
        <time>2022-04-17T07:32:33.000Z</time>
      </trkpt>
      <trkpt lat="43.29596" lon="2.28849">
        <ele>240</ele>
        <time>2022-04-17T07:32:34.000Z</time>
      </trkpt>
      <trkpt lat="43.29594" lon="2.28847">
        <ele>239.9</ele>
        <time>2022-04-17T07:32:35.000Z</time>
      </trkpt>
      <trkpt lat="43.29592" lon="2.28845">
        <ele>239.8</ele>
        <time>2022-04-17T07:32:36.000Z</time>
      </trkpt>
      <trkpt lat="43.2959" lon="2.28843">
        <ele>239.6</ele>
        <time>2022-04-17T07:32:37.000Z</time>
      </trkpt>
      <trkpt lat="43.29588" lon="2.28841">
        <ele>239.4</ele>
        <time>2022-04-17T07:32:38.000Z</time>
      </trkpt>
      <trkpt lat="43.29585" lon="2.28839">
        <ele>239.3</ele>
        <time>2022-04-17T07:32:39.000Z</time>
      </trkpt>
      <trkpt lat="43.29583" lon="2.28838">
        <ele>239.1</ele>
        <time>2022-04-17T07:32:40.000Z</time>
      </trkpt>
      <trkpt lat="43.2958" lon="2.28836">
        <ele>239</ele>
        <time>2022-04-17T07:32:41.000Z</time>
      </trkpt>
      <trkpt lat="43.29577" lon="2.28835">
        <ele>238.9</ele>
        <time>2022-04-17T07:32:42.000Z</time>
      </trkpt>
      <trkpt lat="43.29575" lon="2.28834">
        <ele>238.8</ele>
        <time>2022-04-17T07:32:43.000Z</time>
      </trkpt>
      <trkpt lat="43.29572" lon="2.28834">
        <ele>238.7</ele>
        <time>2022-04-17T07:32:44.000Z</time>
      </trkpt>
      <trkpt lat="43.29569" lon="2.28834">
        <ele>238.7</ele>
        <time>2022-04-17T07:32:45.000Z</time>
      </trkpt>
      <trkpt lat="43.29566" lon="2.28834">
        <ele>238.6</ele>
        <time>2022-04-17T07:32:46.000Z</time>
      </trkpt>
      <trkpt lat="43.29564" lon="2.28835">
        <ele>238.6</ele>
        <time>2022-04-17T07:32:47.000Z</time>
      </trkpt>
      <trkpt lat="43.29561" lon="2.28836">
        <ele>238.5</ele>
        <time>2022-04-17T07:32:48.000Z</time>
      </trkpt>
      <trkpt lat="43.29559" lon="2.28837">
        <ele>238.5</ele>
        <time>2022-04-17T07:32:49.000Z</time>
      </trkpt>
      <trkpt lat="43.29557" lon="2.28839">
        <ele>238.5</ele>
        <time>2022-04-17T07:32:50.000Z</time>
      </trkpt>
      <trkpt lat="43.29555" lon="2.28841">
        <ele>238.5</ele>
        <time>2022-04-17T07:32:51.000Z</time>
      </trkpt>
      <trkpt lat="43.29553" lon="2.28843">
        <ele>238.5</ele>
        <time>2022-04-17T07:32:52.000Z</time>
      </trkpt>
      <trkpt lat="43.29551" lon="2.28845">
        <ele>238.5</ele>
        <time>2022-04-17T07:32:53.000Z</time>
      </trkpt>
      <trkpt lat="43.29549" lon="2.28846">
        <ele>238.5</ele>
        <time>2022-04-17T07:32:54.000Z</time>
      </trkpt>
      <trkpt lat="43.29547" lon="2.28847">
        <ele>238.4</ele>
        <time>2022-04-17T07:32:55.000Z</time>
      </trkpt>
      <trkpt lat="43.29544" lon="2.28847">
        <ele>238.4</ele>
        <time>2022-04-17T07:32:56.000Z</time>
      </trkpt>
      <trkpt lat="43.29541" lon="2.28848">
        <ele>238.3</ele>
        <time>2022-04-17T07:32:57.000Z</time>
      </trkpt>
      <trkpt lat="43.29539" lon="2.28848">
        <ele>238.3</ele>
        <time>2022-04-17T07:32:58.000Z</time>
      </trkpt>
      <trkpt lat="43.29536" lon="2.28848">
        <ele>238.2</ele>
        <time>2022-04-17T07:32:59.000Z</time>
      </trkpt>
      <trkpt lat="43.29533" lon="2.28848">
        <ele>238.1</ele>
        <time>2022-04-17T07:33:00.000Z</time>
      </trkpt>
      <trkpt lat="43.2953" lon="2.28848">
        <ele>238.1</ele>
        <time>2022-04-17T07:33:01.000Z</time>
      </trkpt>
      <trkpt lat="43.29528" lon="2.28848">
        <ele>238</ele>
        <time>2022-04-17T07:33:02.000Z</time>
      </trkpt>
      <trkpt lat="43.29525" lon="2.28848">
        <ele>237.9</ele>
        <time>2022-04-17T07:33:03.000Z</time>
      </trkpt>
      <trkpt lat="43.29522" lon="2.28847">
        <ele>237.9</ele>
        <time>2022-04-17T07:33:04.000Z</time>
      </trkpt>
      <trkpt lat="43.2952" lon="2.28847">
        <ele>237.8</ele>
        <time>2022-04-17T07:33:05.000Z</time>
      </trkpt>
      <trkpt lat="43.29518" lon="2.28846">
        <ele>237.7</ele>
        <time>2022-04-17T07:33:06.000Z</time>
      </trkpt>
      <trkpt lat="43.29515" lon="2.28845">
        <ele>237.7</ele>
        <time>2022-04-17T07:33:07.000Z</time>
      </trkpt>
      <trkpt lat="43.29513" lon="2.28845">
        <ele>237.6</ele>
        <time>2022-04-17T07:33:08.000Z</time>
      </trkpt>
      <trkpt lat="43.2951" lon="2.28844">
        <ele>237.5</ele>
        <time>2022-04-17T07:33:09.000Z</time>
      </trkpt>
      <trkpt lat="43.29508" lon="2.28843">
        <ele>237.4</ele>
        <time>2022-04-17T07:33:10.000Z</time>
      </trkpt>
      <trkpt lat="43.29505" lon="2.28841">
        <ele>237.3</ele>
        <time>2022-04-17T07:33:11.000Z</time>
      </trkpt>
      <trkpt lat="43.29503" lon="2.28839">
        <ele>237.2</ele>
        <time>2022-04-17T07:33:12.000Z</time>
      </trkpt>
      <trkpt lat="43.29501" lon="2.28837">
        <ele>237.1</ele>
        <time>2022-04-17T07:33:13.000Z</time>
      </trkpt>
      <trkpt lat="43.29498" lon="2.28835">
        <ele>236.9</ele>
        <time>2022-04-17T07:33:14.000Z</time>
      </trkpt>
      <trkpt lat="43.29495" lon="2.28833">
        <ele>236.8</ele>
        <time>2022-04-17T07:33:15.000Z</time>
      </trkpt>
      <trkpt lat="43.29493" lon="2.28831">
        <ele>236.7</ele>
        <time>2022-04-17T07:33:16.000Z</time>
      </trkpt>
      <trkpt lat="43.2949" lon="2.2883">
        <ele>236.5</ele>
        <time>2022-04-17T07:33:17.000Z</time>
      </trkpt>
      <trkpt lat="43.29488" lon="2.28829">
        <ele>236.4</ele>
        <time>2022-04-17T07:33:18.000Z</time>
      </trkpt>
      <trkpt lat="43.29485" lon="2.28828">
        <ele>236.3</ele>
        <time>2022-04-17T07:33:19.000Z</time>
      </trkpt>
      <trkpt lat="43.29483" lon="2.28828">
        <ele>236.2</ele>
        <time>2022-04-17T07:33:20.000Z</time>
      </trkpt>
      <trkpt lat="43.29481" lon="2.28827">
        <ele>236.1</ele>
        <time>2022-04-17T07:33:21.000Z</time>
      </trkpt>
      <trkpt lat="43.29479" lon="2.28827">
        <ele>235.9</ele>
        <time>2022-04-17T07:33:22.000Z</time>
      </trkpt>
      <trkpt lat="43.29477" lon="2.28828">
        <ele>235.9</ele>
        <time>2022-04-17T07:33:23.000Z</time>
      </trkpt>
      <trkpt lat="43.29475" lon="2.28828">
        <ele>235.8</ele>
        <time>2022-04-17T07:33:24.000Z</time>
      </trkpt>
      <trkpt lat="43.29473" lon="2.28829">
        <ele>235.7</ele>
        <time>2022-04-17T07:33:25.000Z</time>
      </trkpt>
      <trkpt lat="43.29471" lon="2.28829">
        <ele>235.6</ele>
        <time>2022-04-17T07:33:26.000Z</time>
      </trkpt>
      <trkpt lat="43.29468" lon="2.2883">
        <ele>235.5</ele>
        <time>2022-04-17T07:33:27.000Z</time>
      </trkpt>
      <trkpt lat="43.29466" lon="2.28831">
        <ele>235.4</ele>
        <time>2022-04-17T07:33:28.000Z</time>
      </trkpt>
      <trkpt lat="43.29464" lon="2.28831">
        <ele>235.2</ele>
        <time>2022-04-17T07:33:29.000Z</time>
      </trkpt>
      <trkpt lat="43.29461" lon="2.28832">
        <ele>235.1</ele>
        <time>2022-04-17T07:33:30.000Z</time>
      </trkpt>
      <trkpt lat="43.29458" lon="2.28832">
        <ele>235</ele>
        <time>2022-04-17T07:33:31.000Z</time>
      </trkpt>
      <trkpt lat="43.29455" lon="2.28832">
        <ele>234.8</ele>
        <time>2022-04-17T07:33:32.000Z</time>
      </trkpt>
      <trkpt lat="43.29452" lon="2.28832">
        <ele>234.7</ele>
        <time>2022-04-17T07:33:33.000Z</time>
      </trkpt>
      <trkpt lat="43.29449" lon="2.28832">
        <ele>234.6</ele>
        <time>2022-04-17T07:33:34.000Z</time>
      </trkpt>
      <trkpt lat="43.29446" lon="2.28832">
        <ele>234.4</ele>
        <time>2022-04-17T07:33:35.000Z</time>
      </trkpt>
      <trkpt lat="43.29443" lon="2.28831">
        <ele>234.2</ele>
        <time>2022-04-17T07:33:36.000Z</time>
      </trkpt>
      <trkpt lat="43.2944" lon="2.2883">
        <ele>234.1</ele>
        <time>2022-04-17T07:33:37.000Z</time>
      </trkpt>
      <trkpt lat="43.29437" lon="2.28829">
        <ele>233.9</ele>
        <time>2022-04-17T07:33:38.000Z</time>
      </trkpt>
      <trkpt lat="43.29434" lon="2.28828">
        <ele>233.8</ele>
        <time>2022-04-17T07:33:39.000Z</time>
      </trkpt>
      <trkpt lat="43.29431" lon="2.28826">
        <ele>233.6</ele>
        <time>2022-04-17T07:33:40.000Z</time>
      </trkpt>
      <trkpt lat="43.29428" lon="2.28824">
        <ele>233.5</ele>
        <time>2022-04-17T07:33:41.000Z</time>
      </trkpt>
      <trkpt lat="43.29426" lon="2.28822">
        <ele>233.3</ele>
        <time>2022-04-17T07:33:42.000Z</time>
      </trkpt>
      <trkpt lat="43.29424" lon="2.2882">
        <ele>233.2</ele>
        <time>2022-04-17T07:33:43.000Z</time>
      </trkpt>
      <trkpt lat="43.29421" lon="2.28818">
        <ele>233</ele>
        <time>2022-04-17T07:33:44.000Z</time>
      </trkpt>
      <trkpt lat="43.29419" lon="2.28816">
        <ele>232.9</ele>
        <time>2022-04-17T07:33:45.000Z</time>
      </trkpt>
      <trkpt lat="43.29417" lon="2.28814">
        <ele>232.8</ele>
        <time>2022-04-17T07:33:46.000Z</time>
      </trkpt>
      <trkpt lat="43.29414" lon="2.28811">
        <ele>232.7</ele>
        <time>2022-04-17T07:33:47.000Z</time>
      </trkpt>
      <trkpt lat="43.29412" lon="2.28809">
        <ele>232.6</ele>
        <time>2022-04-17T07:33:48.000Z</time>
      </trkpt>
      <trkpt lat="43.2941" lon="2.28807">
        <ele>232.5</ele>
        <time>2022-04-17T07:33:49.000Z</time>
      </trkpt>
      <trkpt lat="43.29408" lon="2.28805">
        <ele>232.4</ele>
        <time>2022-04-17T07:33:50.000Z</time>
      </trkpt>
      <trkpt lat="43.29406" lon="2.28803">
        <ele>232.3</ele>
        <time>2022-04-17T07:33:51.000Z</time>
      </trkpt>
      <trkpt lat="43.29404" lon="2.28802">
        <ele>232.2</ele>
        <time>2022-04-17T07:33:52.000Z</time>
      </trkpt>
      <trkpt lat="43.29401" lon="2.28801">
        <ele>232.2</ele>
        <time>2022-04-17T07:33:53.000Z</time>
      </trkpt>
      <trkpt lat="43.29399" lon="2.288">
        <ele>232.1</ele>
        <time>2022-04-17T07:33:54.000Z</time>
      </trkpt>
      <trkpt lat="43.29397" lon="2.288">
        <ele>232</ele>
        <time>2022-04-17T07:33:55.000Z</time>
      </trkpt>
      <trkpt lat="43.29395" lon="2.28799">
        <ele>232</ele>
        <time>2022-04-17T07:33:56.000Z</time>
      </trkpt>
      <trkpt lat="43.29393" lon="2.28798">
        <ele>231.9</ele>
        <time>2022-04-17T07:33:57.000Z</time>
      </trkpt>
      <trkpt lat="43.29391" lon="2.28796">
        <ele>231.8</ele>
        <time>2022-04-17T07:33:58.000Z</time>
      </trkpt>
      <trkpt lat="43.29389" lon="2.28794">
        <ele>231.7</ele>
        <time>2022-04-17T07:33:59.000Z</time>
      </trkpt>
      <trkpt lat="43.29387" lon="2.28792">
        <ele>231.6</ele>
        <time>2022-04-17T07:34:00.000Z</time>
      </trkpt>
      <trkpt lat="43.29385" lon="2.2879">
        <ele>231.5</ele>
        <time>2022-04-17T07:34:01.000Z</time>
      </trkpt>
      <trkpt lat="43.29383" lon="2.28787">
        <ele>231.4</ele>
        <time>2022-04-17T07:34:02.000Z</time>
      </trkpt>
      <trkpt lat="43.29381" lon="2.28785">
        <ele>231.3</ele>
        <time>2022-04-17T07:34:03.000Z</time>
      </trkpt>
      <trkpt lat="43.29379" lon="2.28782">
        <ele>231.2</ele>
        <time>2022-04-17T07:34:04.000Z</time>
      </trkpt>
      <trkpt lat="43.29377" lon="2.28779">
        <ele>231.1</ele>
        <time>2022-04-17T07:34:05.000Z</time>
      </trkpt>
      <trkpt lat="43.29374" lon="2.28777">
        <ele>231</ele>
        <time>2022-04-17T07:34:06.000Z</time>
      </trkpt>
      <trkpt lat="43.29372" lon="2.28774">
        <ele>230.8</ele>
        <time>2022-04-17T07:34:07.000Z</time>
      </trkpt>
      <trkpt lat="43.2937" lon="2.28772">
        <ele>230.7</ele>
        <time>2022-04-17T07:34:08.000Z</time>
      </trkpt>
      <trkpt lat="43.29368" lon="2.28769">
        <ele>230.6</ele>
        <time>2022-04-17T07:34:09.000Z</time>
      </trkpt>
      <trkpt lat="43.29366" lon="2.28767">
        <ele>230.5</ele>
        <time>2022-04-17T07:34:10.000Z</time>
      </trkpt>
      <trkpt lat="43.29364" lon="2.28765">
        <ele>230.4</ele>
        <time>2022-04-17T07:34:11.000Z</time>
      </trkpt>
      <trkpt lat="43.29363" lon="2.28764">
        <ele>230.3</ele>
        <time>2022-04-17T07:34:12.000Z</time>
      </trkpt>
      <trkpt lat="43.29362" lon="2.28763">
        <ele>230.3</ele>
        <time>2022-04-17T07:34:13.000Z</time>
      </trkpt>
      <trkpt lat="43.29361" lon="2.28763">
        <ele>230.2</ele>
        <time>2022-04-17T07:34:14.000Z</time>
      </trkpt>
      <trkpt lat="43.2936" lon="2.28762">
        <ele>230.2</ele>
        <time>2022-04-17T07:34:15.000Z</time>
      </trkpt>
      <trkpt lat="43.2936" lon="2.28762">
        <ele>230.2</ele>
        <time>2022-04-17T07:34:16.000Z</time>
      </trkpt>
      <trkpt lat="43.29359" lon="2.28762">
        <ele>230.2</ele>
        <time>2022-04-17T07:34:17.000Z</time>
      </trkpt>
      <trkpt lat="43.29359" lon="2.28762">
        <ele>230.2</ele>
        <time>2022-04-17T07:34:18.000Z</time>
      </trkpt>
      <trkpt lat="43.29359" lon="2.28762">
        <ele>230.1</ele>
        <time>2022-04-17T07:34:19.000Z</time>
      </trkpt>
      <trkpt lat="43.29358" lon="2.28762">
        <ele>230.1</ele>
        <time>2022-04-17T07:34:20.000Z</time>
      </trkpt>
      <trkpt lat="43.29358" lon="2.28761">
        <ele>230.1</ele>
        <time>2022-04-17T07:34:21.000Z</time>
      </trkpt>
      <trkpt lat="43.29358" lon="2.28761">
        <ele>230.1</ele>
        <time>2022-04-17T07:34:22.000Z</time>
      </trkpt>
      <trkpt lat="43.29358" lon="2.28761">
        <ele>230.1</ele>
        <time>2022-04-17T07:34:23.000Z</time>
      </trkpt>
      <trkpt lat="43.29358" lon="2.28761">
        <ele>230.1</ele>
        <time>2022-04-17T07:34:24.000Z</time>
      </trkpt>
      <trkpt lat="43.29358" lon="2.28761">
        <ele>230.1</ele>
        <time>2022-04-17T07:34:25.000Z</time>
      </trkpt>
      <trkpt lat="43.29358" lon="2.28761">
        <ele>230.1</ele>
        <time>2022-04-17T07:34:26.000Z</time>
      </trkpt>
      <trkpt lat="43.29358" lon="2.28761">
        <ele>230.1</ele>
        <time>2022-04-17T07:34:27.000Z</time>
      </trkpt>
      <trkpt lat="43.29358" lon="2.28761">
        <ele>230.1</ele>
        <time>2022-04-17T07:34:28.000Z</time>
      </trkpt>
      <trkpt lat="43.29358" lon="2.28761">
        <ele>230.1</ele>
        <time>2022-04-17T07:34:29.000Z</time>
      </trkpt>
      <trkpt lat="43.29358" lon="2.28761">
        <ele>230.1</ele>
        <time>2022-04-17T07:34:30.000Z</time>
      </trkpt>
      <trkpt lat="43.29358" lon="2.28761">
        <ele>230.1</ele>
        <time>2022-04-17T07:34:31.000Z</time>
      </trkpt>
      <trkpt lat="43.29358" lon="2.28761">
        <ele>230.1</ele>
        <time>2022-04-17T07:34:32.000Z</time>
      </trkpt>
      <trkpt lat="43.29358" lon="2.28761">
        <ele>230.1</ele>
        <time>2022-04-17T07:34:33.000Z</time>
      </trkpt>
      <trkpt lat="43.29358" lon="2.28761">
        <ele>230.1</ele>
        <time>2022-04-17T07:34:34.000Z</time>
      </trkpt>
      <trkpt lat="43.29358" lon="2.28761">
        <ele>230.1</ele>
        <time>2022-04-17T07:34:35.000Z</time>
      </trkpt>
      <trkpt lat="43.29358" lon="2.28761">
        <ele>230.1</ele>
        <time>2022-04-17T07:34:36.000Z</time>
      </trkpt>
      <trkpt lat="43.29358" lon="2.28761">
        <ele>230.1</ele>
        <time>2022-04-17T07:34:37.000Z</time>
      </trkpt>
      <trkpt lat="43.29358" lon="2.28761">
        <ele>230.1</ele>
        <time>2022-04-17T07:34:38.000Z</time>
      </trkpt>
      <trkpt lat="43.29358" lon="2.28761">
        <ele>230.1</ele>
        <time>2022-04-17T07:34:39.000Z</time>
      </trkpt>
      <trkpt lat="43.29358" lon="2.28761">
        <ele>230.1</ele>
        <time>2022-04-17T07:34:40.000Z</time>
      </trkpt>
      <trkpt lat="43.29358" lon="2.28762">
        <ele>230.1</ele>
        <time>2022-04-17T07:34:41.000Z</time>
      </trkpt>
      <trkpt lat="43.29358" lon="2.28762">
        <ele>230.1</ele>
        <time>2022-04-17T07:34:42.000Z</time>
      </trkpt>
      <trkpt lat="43.29357" lon="2.28762">
        <ele>230.1</ele>
        <time>2022-04-17T07:34:43.000Z</time>
      </trkpt>
      <trkpt lat="43.29356" lon="2.28762">
        <ele>230.1</ele>
        <time>2022-04-17T07:34:44.000Z</time>
      </trkpt>
      <trkpt lat="43.29355" lon="2.28763">
        <ele>230.1</ele>
        <time>2022-04-17T07:34:45.000Z</time>
      </trkpt>
      <trkpt lat="43.29354" lon="2.28763">
        <ele>230</ele>
        <time>2022-04-17T07:34:46.000Z</time>
      </trkpt>
      <trkpt lat="43.29353" lon="2.28763">
        <ele>230</ele>
        <time>2022-04-17T07:34:47.000Z</time>
      </trkpt>
      <trkpt lat="43.29352" lon="2.28763">
        <ele>230</ele>
        <time>2022-04-17T07:34:48.000Z</time>
      </trkpt>
      <trkpt lat="43.29351" lon="2.28763">
        <ele>229.9</ele>
        <time>2022-04-17T07:34:49.000Z</time>
      </trkpt>
      <trkpt lat="43.29351" lon="2.28762">
        <ele>229.9</ele>
        <time>2022-04-17T07:34:50.000Z</time>
      </trkpt>
      <trkpt lat="43.2935" lon="2.28762">
        <ele>229.9</ele>
        <time>2022-04-17T07:34:51.000Z</time>
      </trkpt>
      <trkpt lat="43.2935" lon="2.28762">
        <ele>229.8</ele>
        <time>2022-04-17T07:34:52.000Z</time>
      </trkpt>
      <trkpt lat="43.29349" lon="2.28761">
        <ele>229.8</ele>
        <time>2022-04-17T07:34:53.000Z</time>
      </trkpt>
      <trkpt lat="43.29348" lon="2.28761">
        <ele>229.8</ele>
        <time>2022-04-17T07:34:54.000Z</time>
      </trkpt>
      <trkpt lat="43.29347" lon="2.28761">
        <ele>229.7</ele>
        <time>2022-04-17T07:34:55.000Z</time>
      </trkpt>
      <trkpt lat="43.29346" lon="2.28761">
        <ele>229.7</ele>
        <time>2022-04-17T07:34:56.000Z</time>
      </trkpt>
      <trkpt lat="43.29345" lon="2.28761">
        <ele>229.6</ele>
        <time>2022-04-17T07:34:57.000Z</time>
      </trkpt>
      <trkpt lat="43.29344" lon="2.28761">
        <ele>229.6</ele>
        <time>2022-04-17T07:34:58.000Z</time>
      </trkpt>
      <trkpt lat="43.29343" lon="2.28761">
        <ele>229.6</ele>
        <time>2022-04-17T07:34:59.000Z</time>
      </trkpt>
      <trkpt lat="43.29342" lon="2.28761">
        <ele>229.6</ele>
        <time>2022-04-17T07:35:00.000Z</time>
      </trkpt>
      <trkpt lat="43.29341" lon="2.28761">
        <ele>229.5</ele>
        <time>2022-04-17T07:35:01.000Z</time>
      </trkpt>
      <trkpt lat="43.2934" lon="2.28761">
        <ele>229.5</ele>
        <time>2022-04-17T07:35:02.000Z</time>
      </trkpt>
      <trkpt lat="43.2934" lon="2.28761">
        <ele>229.5</ele>
        <time>2022-04-17T07:35:03.000Z</time>
      </trkpt>
      <trkpt lat="43.29339" lon="2.28762">
        <ele>229.5</ele>
        <time>2022-04-17T07:35:04.000Z</time>
      </trkpt>
      <trkpt lat="43.29338" lon="2.28762">
        <ele>229.4</ele>
        <time>2022-04-17T07:35:05.000Z</time>
      </trkpt>
      <trkpt lat="43.29337" lon="2.28762">
        <ele>229.4</ele>
        <time>2022-04-17T07:35:06.000Z</time>
      </trkpt>
      <trkpt lat="43.29337" lon="2.28762">
        <ele>229.4</ele>
        <time>2022-04-17T07:35:07.000Z</time>
      </trkpt>
      <trkpt lat="43.29336" lon="2.28762">
        <ele>229.4</ele>
        <time>2022-04-17T07:35:08.000Z</time>
      </trkpt>
      <trkpt lat="43.29335" lon="2.28763">
        <ele>229.4</ele>
        <time>2022-04-17T07:35:09.000Z</time>
      </trkpt>
      <trkpt lat="43.29335" lon="2.28763">
        <ele>229.3</ele>
        <time>2022-04-17T07:35:10.000Z</time>
      </trkpt>
      <trkpt lat="43.29334" lon="2.28763">
        <ele>229.3</ele>
        <time>2022-04-17T07:35:11.000Z</time>
      </trkpt>
      <trkpt lat="43.29333" lon="2.28763">
        <ele>229.3</ele>
        <time>2022-04-17T07:35:12.000Z</time>
      </trkpt>
      <trkpt lat="43.29332" lon="2.28763">
        <ele>229.2</ele>
        <time>2022-04-17T07:35:13.000Z</time>
      </trkpt>
      <trkpt lat="43.29331" lon="2.28763">
        <ele>229.2</ele>
        <time>2022-04-17T07:35:14.000Z</time>
      </trkpt>
      <trkpt lat="43.2933" lon="2.28763">
        <ele>229.2</ele>
        <time>2022-04-17T07:35:15.000Z</time>
      </trkpt>
      <trkpt lat="43.29329" lon="2.28763">
        <ele>229.1</ele>
        <time>2022-04-17T07:35:16.000Z</time>
      </trkpt>
      <trkpt lat="43.29328" lon="2.28763">
        <ele>229.1</ele>
        <time>2022-04-17T07:35:17.000Z</time>
      </trkpt>
      <trkpt lat="43.29327" lon="2.28763">
        <ele>229</ele>
        <time>2022-04-17T07:35:18.000Z</time>
      </trkpt>
      <trkpt lat="43.29326" lon="2.28763">
        <ele>229</ele>
        <time>2022-04-17T07:35:19.000Z</time>
      </trkpt>
      <trkpt lat="43.29325" lon="2.28764">
        <ele>229</ele>
        <time>2022-04-17T07:35:20.000Z</time>
      </trkpt>
      <trkpt lat="43.29324" lon="2.28764">
        <ele>228.9</ele>
        <time>2022-04-17T07:35:21.000Z</time>
      </trkpt>
      <trkpt lat="43.29323" lon="2.28764">
        <ele>228.9</ele>
        <time>2022-04-17T07:35:22.000Z</time>
      </trkpt>
      <trkpt lat="43.29322" lon="2.28764">
        <ele>228.8</ele>
        <time>2022-04-17T07:35:23.000Z</time>
      </trkpt>
      <trkpt lat="43.2932" lon="2.28764">
        <ele>228.8</ele>
        <time>2022-04-17T07:35:24.000Z</time>
      </trkpt>
      <trkpt lat="43.29319" lon="2.28764">
        <ele>228.7</ele>
        <time>2022-04-17T07:35:25.000Z</time>
      </trkpt>
      <trkpt lat="43.29318" lon="2.28764">
        <ele>228.7</ele>
        <time>2022-04-17T07:35:26.000Z</time>
      </trkpt>
      <trkpt lat="43.29317" lon="2.28764">
        <ele>228.6</ele>
        <time>2022-04-17T07:35:27.000Z</time>
      </trkpt>
      <trkpt lat="43.29315" lon="2.28764">
        <ele>228.6</ele>
        <time>2022-04-17T07:35:28.000Z</time>
      </trkpt>
      <trkpt lat="43.29314" lon="2.28764">
        <ele>228.5</ele>
        <time>2022-04-17T07:35:29.000Z</time>
      </trkpt>
      <trkpt lat="43.29312" lon="2.28763">
        <ele>228.4</ele>
        <time>2022-04-17T07:35:30.000Z</time>
      </trkpt>
      <trkpt lat="43.29311" lon="2.28763">
        <ele>228.4</ele>
        <time>2022-04-17T07:35:31.000Z</time>
      </trkpt>
      <trkpt lat="43.29309" lon="2.28763">
        <ele>228.3</ele>
        <time>2022-04-17T07:35:32.000Z</time>
      </trkpt>
      <trkpt lat="43.29308" lon="2.28762">
        <ele>228.2</ele>
        <time>2022-04-17T07:35:33.000Z</time>
      </trkpt>
      <trkpt lat="43.29306" lon="2.28762">
        <ele>228.2</ele>
        <time>2022-04-17T07:35:34.000Z</time>
      </trkpt>
      <trkpt lat="43.29305" lon="2.28762">
        <ele>228.1</ele>
        <time>2022-04-17T07:35:35.000Z</time>
      </trkpt>
      <trkpt lat="43.29304" lon="2.28762">
        <ele>228.1</ele>
        <time>2022-04-17T07:35:36.000Z</time>
      </trkpt>
      <trkpt lat="43.29302" lon="2.28762">
        <ele>228</ele>
        <time>2022-04-17T07:35:37.000Z</time>
      </trkpt>
      <trkpt lat="43.29301" lon="2.28762">
        <ele>228</ele>
        <time>2022-04-17T07:35:38.000Z</time>
      </trkpt>
      <trkpt lat="43.293" lon="2.28762">
        <ele>227.9</ele>
        <time>2022-04-17T07:35:39.000Z</time>
      </trkpt>
      <trkpt lat="43.29299" lon="2.28762">
        <ele>227.9</ele>
        <time>2022-04-17T07:35:40.000Z</time>
      </trkpt>
      <trkpt lat="43.29298" lon="2.28762">
        <ele>227.8</ele>
        <time>2022-04-17T07:35:41.000Z</time>
      </trkpt>
      <trkpt lat="43.29297" lon="2.28762">
        <ele>227.8</ele>
        <time>2022-04-17T07:35:42.000Z</time>
      </trkpt>
      <trkpt lat="43.29296" lon="2.28762">
        <ele>227.7</ele>
        <time>2022-04-17T07:35:43.000Z</time>
      </trkpt>
      <trkpt lat="43.29295" lon="2.28762">
        <ele>227.7</ele>
        <time>2022-04-17T07:35:44.000Z</time>
      </trkpt>
      <trkpt lat="43.29294" lon="2.28763">
        <ele>227.7</ele>
        <time>2022-04-17T07:35:45.000Z</time>
      </trkpt>
      <trkpt lat="43.29292" lon="2.28763">
        <ele>227.6</ele>
        <time>2022-04-17T07:35:46.000Z</time>
      </trkpt>
      <trkpt lat="43.29291" lon="2.28763">
        <ele>227.6</ele>
        <time>2022-04-17T07:35:47.000Z</time>
      </trkpt>
      <trkpt lat="43.2929" lon="2.28763">
        <ele>227.5</ele>
        <time>2022-04-17T07:35:48.000Z</time>
      </trkpt>
      <trkpt lat="43.29288" lon="2.28764">
        <ele>227.4</ele>
        <time>2022-04-17T07:35:49.000Z</time>
      </trkpt>
      <trkpt lat="43.29286" lon="2.28764">
        <ele>227.3</ele>
        <time>2022-04-17T07:35:50.000Z</time>
      </trkpt>
      <trkpt lat="43.29284" lon="2.28764">
        <ele>227.3</ele>
        <time>2022-04-17T07:35:51.000Z</time>
      </trkpt>
      <trkpt lat="43.29281" lon="2.28764">
        <ele>227.2</ele>
        <time>2022-04-17T07:35:52.000Z</time>
      </trkpt>
      <trkpt lat="43.29279" lon="2.28765">
        <ele>227</ele>
        <time>2022-04-17T07:35:53.000Z</time>
      </trkpt>
      <trkpt lat="43.29276" lon="2.28765">
        <ele>226.9</ele>
        <time>2022-04-17T07:35:54.000Z</time>
      </trkpt>
      <trkpt lat="43.29273" lon="2.28765">
        <ele>226.8</ele>
        <time>2022-04-17T07:35:55.000Z</time>
      </trkpt>
      <trkpt lat="43.2927" lon="2.28765">
        <ele>226.7</ele>
        <time>2022-04-17T07:35:56.000Z</time>
      </trkpt>
      <trkpt lat="43.29268" lon="2.28766">
        <ele>226.6</ele>
        <time>2022-04-17T07:35:57.000Z</time>
      </trkpt>
      <trkpt lat="43.29265" lon="2.28766">
        <ele>226.4</ele>
        <time>2022-04-17T07:35:58.000Z</time>
      </trkpt>
      <trkpt lat="43.29262" lon="2.28767">
        <ele>226.3</ele>
        <time>2022-04-17T07:35:59.000Z</time>
      </trkpt>
      <trkpt lat="43.2926" lon="2.28767">
        <ele>226.2</ele>
        <time>2022-04-17T07:36:00.000Z</time>
      </trkpt>
      <trkpt lat="43.29257" lon="2.28767">
        <ele>226.1</ele>
        <time>2022-04-17T07:36:01.000Z</time>
      </trkpt>
      <trkpt lat="43.29255" lon="2.28768">
        <ele>226</ele>
        <time>2022-04-17T07:36:02.000Z</time>
      </trkpt>
      <trkpt lat="43.29252" lon="2.28768">
        <ele>225.9</ele>
        <time>2022-04-17T07:36:03.000Z</time>
      </trkpt>
      <trkpt lat="43.2925" lon="2.28769">
        <ele>225.8</ele>
        <time>2022-04-17T07:36:04.000Z</time>
      </trkpt>
      <trkpt lat="43.29247" lon="2.28769">
        <ele>225.6</ele>
        <time>2022-04-17T07:36:05.000Z</time>
      </trkpt>
      <trkpt lat="43.29245" lon="2.28769">
        <ele>225.5</ele>
        <time>2022-04-17T07:36:06.000Z</time>
      </trkpt>
      <trkpt lat="43.29242" lon="2.2877">
        <ele>225.4</ele>
        <time>2022-04-17T07:36:07.000Z</time>
      </trkpt>
      <trkpt lat="43.2924" lon="2.2877">
        <ele>225.3</ele>
        <time>2022-04-17T07:36:08.000Z</time>
      </trkpt>
      <trkpt lat="43.29237" lon="2.2877">
        <ele>225.1</ele>
        <time>2022-04-17T07:36:09.000Z</time>
      </trkpt>
      <trkpt lat="43.29234" lon="2.2877">
        <ele>225</ele>
        <time>2022-04-17T07:36:10.000Z</time>
      </trkpt>
      <trkpt lat="43.29232" lon="2.2877">
        <ele>224.9</ele>
        <time>2022-04-17T07:36:11.000Z</time>
      </trkpt>
      <trkpt lat="43.29229" lon="2.2877">
        <ele>224.7</ele>
        <time>2022-04-17T07:36:12.000Z</time>
      </trkpt>
      <trkpt lat="43.29226" lon="2.28771">
        <ele>224.6</ele>
        <time>2022-04-17T07:36:13.000Z</time>
      </trkpt>
      <trkpt lat="43.29224" lon="2.28771">
        <ele>224.5</ele>
        <time>2022-04-17T07:36:14.000Z</time>
      </trkpt>
      <trkpt lat="43.29221" lon="2.28771">
        <ele>224.4</ele>
        <time>2022-04-17T07:36:15.000Z</time>
      </trkpt>
      <trkpt lat="43.29218" lon="2.28771">
        <ele>224.2</ele>
        <time>2022-04-17T07:36:16.000Z</time>
      </trkpt>
      <trkpt lat="43.29216" lon="2.28771">
        <ele>224.1</ele>
        <time>2022-04-17T07:36:17.000Z</time>
      </trkpt>
      <trkpt lat="43.29213" lon="2.28771">
        <ele>224</ele>
        <time>2022-04-17T07:36:18.000Z</time>
      </trkpt>
      <trkpt lat="43.2921" lon="2.28771">
        <ele>223.8</ele>
        <time>2022-04-17T07:36:19.000Z</time>
      </trkpt>
      <trkpt lat="43.29208" lon="2.28771">
        <ele>223.7</ele>
        <time>2022-04-17T07:36:20.000Z</time>
      </trkpt>
      <trkpt lat="43.29205" lon="2.28771">
        <ele>223.6</ele>
        <time>2022-04-17T07:36:21.000Z</time>
      </trkpt>
      <trkpt lat="43.29202" lon="2.28771">
        <ele>223.5</ele>
        <time>2022-04-17T07:36:22.000Z</time>
      </trkpt>
      <trkpt lat="43.292" lon="2.28771">
        <ele>223.3</ele>
        <time>2022-04-17T07:36:23.000Z</time>
      </trkpt>
      <trkpt lat="43.29197" lon="2.28772">
        <ele>223.2</ele>
        <time>2022-04-17T07:36:24.000Z</time>
      </trkpt>
      <trkpt lat="43.29194" lon="2.28772">
        <ele>223.1</ele>
        <time>2022-04-17T07:36:25.000Z</time>
      </trkpt>
      <trkpt lat="43.29191" lon="2.28772">
        <ele>222.9</ele>
        <time>2022-04-17T07:36:26.000Z</time>
      </trkpt>
      <trkpt lat="43.29189" lon="2.28773">
        <ele>222.8</ele>
        <time>2022-04-17T07:36:27.000Z</time>
      </trkpt>
      <trkpt lat="43.29186" lon="2.28773">
        <ele>222.7</ele>
        <time>2022-04-17T07:36:28.000Z</time>
      </trkpt>
      <trkpt lat="43.29184" lon="2.28773">
        <ele>222.5</ele>
        <time>2022-04-17T07:36:29.000Z</time>
      </trkpt>
      <trkpt lat="43.29181" lon="2.28774">
        <ele>222.4</ele>
        <time>2022-04-17T07:36:30.000Z</time>
      </trkpt>
      <trkpt lat="43.29178" lon="2.28775">
        <ele>222.3</ele>
        <time>2022-04-17T07:36:31.000Z</time>
      </trkpt>
      <trkpt lat="43.29176" lon="2.28775">
        <ele>222.1</ele>
        <time>2022-04-17T07:36:32.000Z</time>
      </trkpt>
      <trkpt lat="43.29173" lon="2.28776">
        <ele>222</ele>
        <time>2022-04-17T07:36:33.000Z</time>
      </trkpt>
      <trkpt lat="43.2917" lon="2.28777">
        <ele>221.9</ele>
        <time>2022-04-17T07:36:34.000Z</time>
      </trkpt>
      <trkpt lat="43.29168" lon="2.28778">
        <ele>221.7</ele>
        <time>2022-04-17T07:36:35.000Z</time>
      </trkpt>
      <trkpt lat="43.29165" lon="2.28779">
        <ele>221.6</ele>
        <time>2022-04-17T07:36:36.000Z</time>
      </trkpt>
      <trkpt lat="43.29163" lon="2.2878">
        <ele>221.5</ele>
        <time>2022-04-17T07:36:37.000Z</time>
      </trkpt>
      <trkpt lat="43.2916" lon="2.28781">
        <ele>221.4</ele>
        <time>2022-04-17T07:36:38.000Z</time>
      </trkpt>
      <trkpt lat="43.29158" lon="2.28782">
        <ele>221.3</ele>
        <time>2022-04-17T07:36:39.000Z</time>
      </trkpt>
      <trkpt lat="43.29155" lon="2.28783">
        <ele>221.2</ele>
        <time>2022-04-17T07:36:40.000Z</time>
      </trkpt>
      <trkpt lat="43.29153" lon="2.28784">
        <ele>221.1</ele>
        <time>2022-04-17T07:36:41.000Z</time>
      </trkpt>
      <trkpt lat="43.2915" lon="2.28785">
        <ele>221</ele>
        <time>2022-04-17T07:36:42.000Z</time>
      </trkpt>
      <trkpt lat="43.29148" lon="2.28786">
        <ele>220.9</ele>
        <time>2022-04-17T07:36:43.000Z</time>
      </trkpt>
      <trkpt lat="43.29145" lon="2.28787">
        <ele>220.8</ele>
        <time>2022-04-17T07:36:44.000Z</time>
      </trkpt>
      <trkpt lat="43.29143" lon="2.28788">
        <ele>220.7</ele>
        <time>2022-04-17T07:36:45.000Z</time>
      </trkpt>
      <trkpt lat="43.29141" lon="2.28789">
        <ele>220.6</ele>
        <time>2022-04-17T07:36:46.000Z</time>
      </trkpt>
      <trkpt lat="43.29138" lon="2.2879">
        <ele>220.5</ele>
        <time>2022-04-17T07:36:47.000Z</time>
      </trkpt>
      <trkpt lat="43.29136" lon="2.28792">
        <ele>220.4</ele>
        <time>2022-04-17T07:36:48.000Z</time>
      </trkpt>
      <trkpt lat="43.29134" lon="2.28793">
        <ele>220.3</ele>
        <time>2022-04-17T07:36:49.000Z</time>
      </trkpt>
      <trkpt lat="43.29131" lon="2.28794">
        <ele>220.2</ele>
        <time>2022-04-17T07:36:50.000Z</time>
      </trkpt>
      <trkpt lat="43.29129" lon="2.28795">
        <ele>220.1</ele>
        <time>2022-04-17T07:36:51.000Z</time>
      </trkpt>
      <trkpt lat="43.29127" lon="2.28796">
        <ele>220</ele>
        <time>2022-04-17T07:36:52.000Z</time>
      </trkpt>
      <trkpt lat="43.29124" lon="2.28797">
        <ele>219.9</ele>
        <time>2022-04-17T07:36:53.000Z</time>
      </trkpt>
      <trkpt lat="43.29122" lon="2.28798">
        <ele>219.8</ele>
        <time>2022-04-17T07:36:54.000Z</time>
      </trkpt>
      <trkpt lat="43.2912" lon="2.28798">
        <ele>219.7</ele>
        <time>2022-04-17T07:36:55.000Z</time>
      </trkpt>
      <trkpt lat="43.29117" lon="2.28799">
        <ele>219.6</ele>
        <time>2022-04-17T07:36:56.000Z</time>
      </trkpt>
      <trkpt lat="43.29115" lon="2.288">
        <ele>219.5</ele>
        <time>2022-04-17T07:36:57.000Z</time>
      </trkpt>
      <trkpt lat="43.29113" lon="2.28801">
        <ele>219.5</ele>
        <time>2022-04-17T07:36:58.000Z</time>
      </trkpt>
      <trkpt lat="43.29111" lon="2.28802">
        <ele>219.4</ele>
        <time>2022-04-17T07:36:59.000Z</time>
      </trkpt>
      <trkpt lat="43.29108" lon="2.28802">
        <ele>219.3</ele>
        <time>2022-04-17T07:37:00.000Z</time>
      </trkpt>
      <trkpt lat="43.29106" lon="2.28803">
        <ele>219.2</ele>
        <time>2022-04-17T07:37:01.000Z</time>
      </trkpt>
      <trkpt lat="43.29104" lon="2.28804">
        <ele>219.1</ele>
        <time>2022-04-17T07:37:02.000Z</time>
      </trkpt>
      <trkpt lat="43.29101" lon="2.28805">
        <ele>219</ele>
        <time>2022-04-17T07:37:03.000Z</time>
      </trkpt>
      <trkpt lat="43.29099" lon="2.28806">
        <ele>218.9</ele>
        <time>2022-04-17T07:37:04.000Z</time>
      </trkpt>
      <trkpt lat="43.29097" lon="2.28807">
        <ele>218.8</ele>
        <time>2022-04-17T07:37:05.000Z</time>
      </trkpt>
      <trkpt lat="43.29094" lon="2.28808">
        <ele>218.7</ele>
        <time>2022-04-17T07:37:06.000Z</time>
      </trkpt>
      <trkpt lat="43.29092" lon="2.28809">
        <ele>218.6</ele>
        <time>2022-04-17T07:37:07.000Z</time>
      </trkpt>
      <trkpt lat="43.2909" lon="2.2881">
        <ele>218.5</ele>
        <time>2022-04-17T07:37:08.000Z</time>
      </trkpt>
      <trkpt lat="43.29087" lon="2.28811">
        <ele>218.4</ele>
        <time>2022-04-17T07:37:09.000Z</time>
      </trkpt>
      <trkpt lat="43.29085" lon="2.28812">
        <ele>218.3</ele>
        <time>2022-04-17T07:37:10.000Z</time>
      </trkpt>
      <trkpt lat="43.29082" lon="2.28814">
        <ele>218.2</ele>
        <time>2022-04-17T07:37:11.000Z</time>
      </trkpt>
      <trkpt lat="43.2908" lon="2.28815">
        <ele>218</ele>
        <time>2022-04-17T07:37:12.000Z</time>
      </trkpt>
      <trkpt lat="43.29077" lon="2.28816">
        <ele>217.9</ele>
        <time>2022-04-17T07:37:13.000Z</time>
      </trkpt>
      <trkpt lat="43.29074" lon="2.28818">
        <ele>217.7</ele>
        <time>2022-04-17T07:37:14.000Z</time>
      </trkpt>
      <trkpt lat="43.29072" lon="2.28819">
        <ele>217.6</ele>
        <time>2022-04-17T07:37:15.000Z</time>
      </trkpt>
      <trkpt lat="43.29069" lon="2.2882">
        <ele>217.4</ele>
        <time>2022-04-17T07:37:16.000Z</time>
      </trkpt>
      <trkpt lat="43.29066" lon="2.2882">
        <ele>217.3</ele>
        <time>2022-04-17T07:37:17.000Z</time>
      </trkpt>
      <trkpt lat="43.29063" lon="2.28821">
        <ele>217.1</ele>
        <time>2022-04-17T07:37:18.000Z</time>
      </trkpt>
      <trkpt lat="43.2906" lon="2.28821">
        <ele>217</ele>
        <time>2022-04-17T07:37:19.000Z</time>
      </trkpt>
      <trkpt lat="43.29057" lon="2.28821">
        <ele>216.8</ele>
        <time>2022-04-17T07:37:20.000Z</time>
      </trkpt>
      <trkpt lat="43.29054" lon="2.28821">
        <ele>216.7</ele>
        <time>2022-04-17T07:37:21.000Z</time>
      </trkpt>
      <trkpt lat="43.29051" lon="2.2882">
        <ele>216.5</ele>
        <time>2022-04-17T07:37:22.000Z</time>
      </trkpt>
      <trkpt lat="43.29048" lon="2.2882">
        <ele>216.4</ele>
        <time>2022-04-17T07:37:23.000Z</time>
      </trkpt>
      <trkpt lat="43.29046" lon="2.28819">
        <ele>216.3</ele>
        <time>2022-04-17T07:37:24.000Z</time>
      </trkpt>
      <trkpt lat="43.29044" lon="2.28818">
        <ele>216.2</ele>
        <time>2022-04-17T07:37:25.000Z</time>
      </trkpt>
      <trkpt lat="43.29041" lon="2.28816">
        <ele>216.1</ele>
        <time>2022-04-17T07:37:26.000Z</time>
      </trkpt>
      <trkpt lat="43.29039" lon="2.28815">
        <ele>216</ele>
        <time>2022-04-17T07:37:27.000Z</time>
      </trkpt>
      <trkpt lat="43.29037" lon="2.28814">
        <ele>215.9</ele>
        <time>2022-04-17T07:37:28.000Z</time>
      </trkpt>
      <trkpt lat="43.29034" lon="2.28813">
        <ele>215.8</ele>
        <time>2022-04-17T07:37:29.000Z</time>
      </trkpt>
      <trkpt lat="43.29032" lon="2.28812">
        <ele>215.6</ele>
        <time>2022-04-17T07:37:30.000Z</time>
      </trkpt>
      <trkpt lat="43.29029" lon="2.28811">
        <ele>215.5</ele>
        <time>2022-04-17T07:37:31.000Z</time>
      </trkpt>
      <trkpt lat="43.29027" lon="2.2881">
        <ele>215.4</ele>
        <time>2022-04-17T07:37:32.000Z</time>
      </trkpt>
      <trkpt lat="43.29024" lon="2.2881">
        <ele>215.2</ele>
        <time>2022-04-17T07:37:33.000Z</time>
      </trkpt>
      <trkpt lat="43.29022" lon="2.28809">
        <ele>215.1</ele>
        <time>2022-04-17T07:37:34.000Z</time>
      </trkpt>
      <trkpt lat="43.29019" lon="2.28809">
        <ele>215</ele>
        <time>2022-04-17T07:37:35.000Z</time>
      </trkpt>
      <trkpt lat="43.29017" lon="2.28809">
        <ele>214.9</ele>
        <time>2022-04-17T07:37:36.000Z</time>
      </trkpt>
      <trkpt lat="43.29014" lon="2.28809">
        <ele>214.7</ele>
        <time>2022-04-17T07:37:37.000Z</time>
      </trkpt>
      <trkpt lat="43.29012" lon="2.28809">
        <ele>214.6</ele>
        <time>2022-04-17T07:37:38.000Z</time>
      </trkpt>
      <trkpt lat="43.29009" lon="2.28809">
        <ele>214.5</ele>
        <time>2022-04-17T07:37:39.000Z</time>
      </trkpt>
      <trkpt lat="43.29007" lon="2.28809">
        <ele>214.3</ele>
        <time>2022-04-17T07:37:40.000Z</time>
      </trkpt>
      <trkpt lat="43.29004" lon="2.28809">
        <ele>214.2</ele>
        <time>2022-04-17T07:37:41.000Z</time>
      </trkpt>
      <trkpt lat="43.29001" lon="2.2881">
        <ele>214.1</ele>
        <time>2022-04-17T07:37:42.000Z</time>
      </trkpt>
      <trkpt lat="43.28999" lon="2.2881">
        <ele>213.9</ele>
        <time>2022-04-17T07:37:43.000Z</time>
      </trkpt>
      <trkpt lat="43.28996" lon="2.28811">
        <ele>213.8</ele>
        <time>2022-04-17T07:37:44.000Z</time>
      </trkpt>
      <trkpt lat="43.28993" lon="2.28812">
        <ele>213.7</ele>
        <time>2022-04-17T07:37:45.000Z</time>
      </trkpt>
      <trkpt lat="43.28991" lon="2.28813">
        <ele>213.5</ele>
        <time>2022-04-17T07:37:46.000Z</time>
      </trkpt>
      <trkpt lat="43.28988" lon="2.28814">
        <ele>213.4</ele>
        <time>2022-04-17T07:37:47.000Z</time>
      </trkpt>
      <trkpt lat="43.28985" lon="2.28815">
        <ele>213.3</ele>
        <time>2022-04-17T07:37:48.000Z</time>
      </trkpt>
      <trkpt lat="43.28983" lon="2.28815">
        <ele>213.1</ele>
        <time>2022-04-17T07:37:49.000Z</time>
      </trkpt>
      <trkpt lat="43.28981" lon="2.28816">
        <ele>213</ele>
        <time>2022-04-17T07:37:50.000Z</time>
      </trkpt>
      <trkpt lat="43.28978" lon="2.28817">
        <ele>212.9</ele>
        <time>2022-04-17T07:37:51.000Z</time>
      </trkpt>
      <trkpt lat="43.28976" lon="2.28818">
        <ele>212.8</ele>
        <time>2022-04-17T07:37:52.000Z</time>
      </trkpt>
      <trkpt lat="43.28974" lon="2.28818">
        <ele>212.7</ele>
        <time>2022-04-17T07:37:53.000Z</time>
      </trkpt>
      <trkpt lat="43.28971" lon="2.28819">
        <ele>212.6</ele>
        <time>2022-04-17T07:37:54.000Z</time>
      </trkpt>
      <trkpt lat="43.28969" lon="2.2882">
        <ele>212.4</ele>
        <time>2022-04-17T07:37:55.000Z</time>
      </trkpt>
      <trkpt lat="43.28966" lon="2.2882">
        <ele>212.3</ele>
        <time>2022-04-17T07:37:56.000Z</time>
      </trkpt>
      <trkpt lat="43.28963" lon="2.28821">
        <ele>212.1</ele>
        <time>2022-04-17T07:37:57.000Z</time>
      </trkpt>
      <trkpt lat="43.2896" lon="2.28821">
        <ele>212</ele>
        <time>2022-04-17T07:37:58.000Z</time>
      </trkpt>
      <trkpt lat="43.28957" lon="2.28821">
        <ele>211.9</ele>
        <time>2022-04-17T07:37:59.000Z</time>
      </trkpt>
      <trkpt lat="43.28954" lon="2.28822">
        <ele>211.7</ele>
        <time>2022-04-17T07:38:00.000Z</time>
      </trkpt>
      <trkpt lat="43.28951" lon="2.28822">
        <ele>211.6</ele>
        <time>2022-04-17T07:38:01.000Z</time>
      </trkpt>
      <trkpt lat="43.28948" lon="2.28821">
        <ele>211.4</ele>
        <time>2022-04-17T07:38:02.000Z</time>
      </trkpt>
      <trkpt lat="43.28945" lon="2.28821">
        <ele>211.3</ele>
        <time>2022-04-17T07:38:03.000Z</time>
      </trkpt>
      <trkpt lat="43.28942" lon="2.28821">
        <ele>211.1</ele>
        <time>2022-04-17T07:38:04.000Z</time>
      </trkpt>
      <trkpt lat="43.2894" lon="2.2882">
        <ele>211</ele>
        <time>2022-04-17T07:38:05.000Z</time>
      </trkpt>
      <trkpt lat="43.28937" lon="2.2882">
        <ele>210.9</ele>
        <time>2022-04-17T07:38:06.000Z</time>
      </trkpt>
      <trkpt lat="43.28935" lon="2.28819">
        <ele>210.7</ele>
        <time>2022-04-17T07:38:07.000Z</time>
      </trkpt>
      <trkpt lat="43.28933" lon="2.28819">
        <ele>210.6</ele>
        <time>2022-04-17T07:38:08.000Z</time>
      </trkpt>
      <trkpt lat="43.28931" lon="2.28819">
        <ele>210.5</ele>
        <time>2022-04-17T07:38:09.000Z</time>
      </trkpt>
      <trkpt lat="43.28928" lon="2.28819">
        <ele>210.4</ele>
        <time>2022-04-17T07:38:10.000Z</time>
      </trkpt>
      <trkpt lat="43.28926" lon="2.28819">
        <ele>210.3</ele>
        <time>2022-04-17T07:38:11.000Z</time>
      </trkpt>
      <trkpt lat="43.28924" lon="2.28819">
        <ele>210.2</ele>
        <time>2022-04-17T07:38:12.000Z</time>
      </trkpt>
      <trkpt lat="43.28922" lon="2.28819">
        <ele>210.1</ele>
        <time>2022-04-17T07:38:13.000Z</time>
      </trkpt>
      <trkpt lat="43.28921" lon="2.28819">
        <ele>210</ele>
        <time>2022-04-17T07:38:14.000Z</time>
      </trkpt>
      <trkpt lat="43.28919" lon="2.28819">
        <ele>209.9</ele>
        <time>2022-04-17T07:38:15.000Z</time>
      </trkpt>
      <trkpt lat="43.28917" lon="2.28819">
        <ele>209.8</ele>
        <time>2022-04-17T07:38:16.000Z</time>
      </trkpt>
      <trkpt lat="43.28915" lon="2.28819">
        <ele>209.8</ele>
        <time>2022-04-17T07:38:17.000Z</time>
      </trkpt>
      <trkpt lat="43.28913" lon="2.2882">
        <ele>209.7</ele>
        <time>2022-04-17T07:38:18.000Z</time>
      </trkpt>
      <trkpt lat="43.28912" lon="2.2882">
        <ele>209.6</ele>
        <time>2022-04-17T07:38:19.000Z</time>
      </trkpt>
      <trkpt lat="43.2891" lon="2.28821">
        <ele>209.5</ele>
        <time>2022-04-17T07:38:20.000Z</time>
      </trkpt>
      <trkpt lat="43.28908" lon="2.28821">
        <ele>209.4</ele>
        <time>2022-04-17T07:38:21.000Z</time>
      </trkpt>
      <trkpt lat="43.28906" lon="2.28822">
        <ele>209.3</ele>
        <time>2022-04-17T07:38:22.000Z</time>
      </trkpt>
      <trkpt lat="43.28904" lon="2.28823">
        <ele>209.2</ele>
        <time>2022-04-17T07:38:23.000Z</time>
      </trkpt>
      <trkpt lat="43.28902" lon="2.28823">
        <ele>209.2</ele>
        <time>2022-04-17T07:38:24.000Z</time>
      </trkpt>
      <trkpt lat="43.289" lon="2.28824">
        <ele>209.1</ele>
        <time>2022-04-17T07:38:25.000Z</time>
      </trkpt>
      <trkpt lat="43.28898" lon="2.28825">
        <ele>209</ele>
        <time>2022-04-17T07:38:26.000Z</time>
      </trkpt>
      <trkpt lat="43.28896" lon="2.28826">
        <ele>208.9</ele>
        <time>2022-04-17T07:38:27.000Z</time>
      </trkpt>
      <trkpt lat="43.28893" lon="2.28827">
        <ele>208.8</ele>
        <time>2022-04-17T07:38:28.000Z</time>
      </trkpt>
      <trkpt lat="43.28891" lon="2.28828">
        <ele>208.7</ele>
        <time>2022-04-17T07:38:29.000Z</time>
      </trkpt>
      <trkpt lat="43.28889" lon="2.28829">
        <ele>208.6</ele>
        <time>2022-04-17T07:38:30.000Z</time>
      </trkpt>
      <trkpt lat="43.28886" lon="2.2883">
        <ele>208.5</ele>
        <time>2022-04-17T07:38:31.000Z</time>
      </trkpt>
      <trkpt lat="43.28884" lon="2.28831">
        <ele>208.4</ele>
        <time>2022-04-17T07:38:32.000Z</time>
      </trkpt>
      <trkpt lat="43.28881" lon="2.28832">
        <ele>208.3</ele>
        <time>2022-04-17T07:38:33.000Z</time>
      </trkpt>
      <trkpt lat="43.28879" lon="2.28833">
        <ele>208.2</ele>
        <time>2022-04-17T07:38:34.000Z</time>
      </trkpt>
      <trkpt lat="43.28876" lon="2.28834">
        <ele>208.1</ele>
        <time>2022-04-17T07:38:35.000Z</time>
      </trkpt>
      <trkpt lat="43.28874" lon="2.28836">
        <ele>208</ele>
        <time>2022-04-17T07:38:36.000Z</time>
      </trkpt>
      <trkpt lat="43.28871" lon="2.28837">
        <ele>207.9</ele>
        <time>2022-04-17T07:38:37.000Z</time>
      </trkpt>
      <trkpt lat="43.28868" lon="2.28838">
        <ele>207.8</ele>
        <time>2022-04-17T07:38:38.000Z</time>
      </trkpt>
      <trkpt lat="43.28866" lon="2.28839">
        <ele>207.7</ele>
        <time>2022-04-17T07:38:39.000Z</time>
      </trkpt>
      <trkpt lat="43.28863" lon="2.2884">
        <ele>207.6</ele>
        <time>2022-04-17T07:38:40.000Z</time>
      </trkpt>
      <trkpt lat="43.28861" lon="2.28842">
        <ele>207.5</ele>
        <time>2022-04-17T07:38:41.000Z</time>
      </trkpt>
      <trkpt lat="43.28859" lon="2.28843">
        <ele>207.4</ele>
        <time>2022-04-17T07:38:42.000Z</time>
      </trkpt>
      <trkpt lat="43.28856" lon="2.28844">
        <ele>207.3</ele>
        <time>2022-04-17T07:38:43.000Z</time>
      </trkpt>
      <trkpt lat="43.28854" lon="2.28845">
        <ele>207.2</ele>
        <time>2022-04-17T07:38:44.000Z</time>
      </trkpt>
      <trkpt lat="43.28852" lon="2.28847">
        <ele>207.1</ele>
        <time>2022-04-17T07:38:45.000Z</time>
      </trkpt>
      <trkpt lat="43.2885" lon="2.28848">
        <ele>207</ele>
        <time>2022-04-17T07:38:46.000Z</time>
      </trkpt>
      <trkpt lat="43.28848" lon="2.28849">
        <ele>207</ele>
        <time>2022-04-17T07:38:47.000Z</time>
      </trkpt>
      <trkpt lat="43.28846" lon="2.28849">
        <ele>206.9</ele>
        <time>2022-04-17T07:38:48.000Z</time>
      </trkpt>
      <trkpt lat="43.28844" lon="2.2885">
        <ele>206.8</ele>
        <time>2022-04-17T07:38:49.000Z</time>
      </trkpt>
      <trkpt lat="43.28842" lon="2.28851">
        <ele>206.7</ele>
        <time>2022-04-17T07:38:50.000Z</time>
      </trkpt>
      <trkpt lat="43.2884" lon="2.28851">
        <ele>206.6</ele>
        <time>2022-04-17T07:38:51.000Z</time>
      </trkpt>
      <trkpt lat="43.28838" lon="2.28852">
        <ele>206.5</ele>
        <time>2022-04-17T07:38:52.000Z</time>
      </trkpt>
      <trkpt lat="43.28836" lon="2.28853">
        <ele>206.4</ele>
        <time>2022-04-17T07:38:53.000Z</time>
      </trkpt>
      <trkpt lat="43.28834" lon="2.28853">
        <ele>206.2</ele>
        <time>2022-04-17T07:38:54.000Z</time>
      </trkpt>
      <trkpt lat="43.28831" lon="2.28854">
        <ele>206.1</ele>
        <time>2022-04-17T07:38:55.000Z</time>
      </trkpt>
      <trkpt lat="43.28828" lon="2.28855">
        <ele>206</ele>
        <time>2022-04-17T07:38:56.000Z</time>
      </trkpt>
      <trkpt lat="43.28825" lon="2.28856">
        <ele>205.9</ele>
        <time>2022-04-17T07:38:57.000Z</time>
      </trkpt>
      <trkpt lat="43.28822" lon="2.28857">
        <ele>205.8</ele>
        <time>2022-04-17T07:38:58.000Z</time>
      </trkpt>
      <trkpt lat="43.28819" lon="2.28858">
        <ele>205.7</ele>
        <time>2022-04-17T07:38:59.000Z</time>
      </trkpt>
      <trkpt lat="43.28817" lon="2.28859">
        <ele>205.6</ele>
        <time>2022-04-17T07:39:00.000Z</time>
      </trkpt>
      <trkpt lat="43.28814" lon="2.28859">
        <ele>205.5</ele>
        <time>2022-04-17T07:39:01.000Z</time>
      </trkpt>
      <trkpt lat="43.28811" lon="2.2886">
        <ele>205.4</ele>
        <time>2022-04-17T07:39:02.000Z</time>
      </trkpt>
      <trkpt lat="43.28809" lon="2.28861">
        <ele>205.3</ele>
        <time>2022-04-17T07:39:03.000Z</time>
      </trkpt>
      <trkpt lat="43.28807" lon="2.28861">
        <ele>205.3</ele>
        <time>2022-04-17T07:39:04.000Z</time>
      </trkpt>
      <trkpt lat="43.28804" lon="2.28862">
        <ele>205.2</ele>
        <time>2022-04-17T07:39:05.000Z</time>
      </trkpt>
      <trkpt lat="43.28801" lon="2.28862">
        <ele>205.1</ele>
        <time>2022-04-17T07:39:06.000Z</time>
      </trkpt>
      <trkpt lat="43.28799" lon="2.28862">
        <ele>205</ele>
        <time>2022-04-17T07:39:07.000Z</time>
      </trkpt>
      <trkpt lat="43.28796" lon="2.28863">
        <ele>204.9</ele>
        <time>2022-04-17T07:39:08.000Z</time>
      </trkpt>
      <trkpt lat="43.28793" lon="2.28863">
        <ele>204.8</ele>
        <time>2022-04-17T07:39:09.000Z</time>
      </trkpt>
      <trkpt lat="43.2879" lon="2.28863">
        <ele>204.7</ele>
        <time>2022-04-17T07:39:10.000Z</time>
      </trkpt>
      <trkpt lat="43.28787" lon="2.28864">
        <ele>204.5</ele>
        <time>2022-04-17T07:39:11.000Z</time>
      </trkpt>
      <trkpt lat="43.28784" lon="2.28864">
        <ele>204.4</ele>
        <time>2022-04-17T07:39:12.000Z</time>
      </trkpt>
      <trkpt lat="43.28781" lon="2.28864">
        <ele>204.3</ele>
        <time>2022-04-17T07:39:13.000Z</time>
      </trkpt>
      <trkpt lat="43.28778" lon="2.28864">
        <ele>204.2</ele>
        <time>2022-04-17T07:39:14.000Z</time>
      </trkpt>
      <trkpt lat="43.28775" lon="2.28864">
        <ele>204.1</ele>
        <time>2022-04-17T07:39:15.000Z</time>
      </trkpt>
      <trkpt lat="43.28772" lon="2.28865">
        <ele>204</ele>
        <time>2022-04-17T07:39:16.000Z</time>
      </trkpt>
      <trkpt lat="43.28769" lon="2.28865">
        <ele>203.9</ele>
        <time>2022-04-17T07:39:17.000Z</time>
      </trkpt>
      <trkpt lat="43.28766" lon="2.28864">
        <ele>203.7</ele>
        <time>2022-04-17T07:39:18.000Z</time>
      </trkpt>
      <trkpt lat="43.28763" lon="2.28864">
        <ele>203.6</ele>
        <time>2022-04-17T07:39:19.000Z</time>
      </trkpt>
      <trkpt lat="43.2876" lon="2.28864">
        <ele>203.5</ele>
        <time>2022-04-17T07:39:20.000Z</time>
      </trkpt>
      <trkpt lat="43.28758" lon="2.28864">
        <ele>203.4</ele>
        <time>2022-04-17T07:39:21.000Z</time>
      </trkpt>
      <trkpt lat="43.28755" lon="2.28863">
        <ele>203.3</ele>
        <time>2022-04-17T07:39:22.000Z</time>
      </trkpt>
      <trkpt lat="43.28752" lon="2.28863">
        <ele>203.2</ele>
        <time>2022-04-17T07:39:23.000Z</time>
      </trkpt>
      <trkpt lat="43.2875" lon="2.28863">
        <ele>203</ele>
        <time>2022-04-17T07:39:24.000Z</time>
      </trkpt>
      <trkpt lat="43.28747" lon="2.28862">
        <ele>202.9</ele>
        <time>2022-04-17T07:39:25.000Z</time>
      </trkpt>
      <trkpt lat="43.28744" lon="2.28862">
        <ele>202.8</ele>
        <time>2022-04-17T07:39:26.000Z</time>
      </trkpt>
      <trkpt lat="43.28742" lon="2.28861">
        <ele>202.6</ele>
        <time>2022-04-17T07:39:27.000Z</time>
      </trkpt>
      <trkpt lat="43.28739" lon="2.28861">
        <ele>202.5</ele>
        <time>2022-04-17T07:39:28.000Z</time>
      </trkpt>
      <trkpt lat="43.28736" lon="2.2886">
        <ele>202.4</ele>
        <time>2022-04-17T07:39:29.000Z</time>
      </trkpt>
      <trkpt lat="43.28734" lon="2.2886">
        <ele>202.2</ele>
        <time>2022-04-17T07:39:30.000Z</time>
      </trkpt>
      <trkpt lat="43.28731" lon="2.28859">
        <ele>202.1</ele>
        <time>2022-04-17T07:39:31.000Z</time>
      </trkpt>
      <trkpt lat="43.28728" lon="2.28859">
        <ele>202</ele>
        <time>2022-04-17T07:39:32.000Z</time>
      </trkpt>
      <trkpt lat="43.28726" lon="2.28858">
        <ele>201.8</ele>
        <time>2022-04-17T07:39:33.000Z</time>
      </trkpt>
      <trkpt lat="43.28723" lon="2.28858">
        <ele>201.7</ele>
        <time>2022-04-17T07:39:34.000Z</time>
      </trkpt>
      <trkpt lat="43.2872" lon="2.28857">
        <ele>201.6</ele>
        <time>2022-04-17T07:39:35.000Z</time>
      </trkpt>
      <trkpt lat="43.28718" lon="2.28857">
        <ele>201.5</ele>
        <time>2022-04-17T07:39:36.000Z</time>
      </trkpt>
      <trkpt lat="43.28715" lon="2.28856">
        <ele>201.3</ele>
        <time>2022-04-17T07:39:37.000Z</time>
      </trkpt>
      <trkpt lat="43.28713" lon="2.28856">
        <ele>201.2</ele>
        <time>2022-04-17T07:39:38.000Z</time>
      </trkpt>
      <trkpt lat="43.2871" lon="2.28856">
        <ele>201.1</ele>
        <time>2022-04-17T07:39:39.000Z</time>
      </trkpt>
      <trkpt lat="43.28707" lon="2.28855">
        <ele>201</ele>
        <time>2022-04-17T07:39:40.000Z</time>
      </trkpt>
      <trkpt lat="43.28705" lon="2.28855">
        <ele>200.9</ele>
        <time>2022-04-17T07:39:41.000Z</time>
      </trkpt>
      <trkpt lat="43.28702" lon="2.28854">
        <ele>200.8</ele>
        <time>2022-04-17T07:39:42.000Z</time>
      </trkpt>
      <trkpt lat="43.287" lon="2.28854">
        <ele>200.6</ele>
        <time>2022-04-17T07:39:43.000Z</time>
      </trkpt>
      <trkpt lat="43.28697" lon="2.28853">
        <ele>200.5</ele>
        <time>2022-04-17T07:39:44.000Z</time>
      </trkpt>
      <trkpt lat="43.28695" lon="2.28852">
        <ele>200.4</ele>
        <time>2022-04-17T07:39:45.000Z</time>
      </trkpt>
      <trkpt lat="43.28692" lon="2.28852">
        <ele>200.3</ele>
        <time>2022-04-17T07:39:46.000Z</time>
      </trkpt>
      <trkpt lat="43.2869" lon="2.28851">
        <ele>200.2</ele>
        <time>2022-04-17T07:39:47.000Z</time>
      </trkpt>
      <trkpt lat="43.28687" lon="2.2885">
        <ele>200</ele>
        <time>2022-04-17T07:39:48.000Z</time>
      </trkpt>
      <trkpt lat="43.28684" lon="2.28849">
        <ele>199.9</ele>
        <time>2022-04-17T07:39:49.000Z</time>
      </trkpt>
      <trkpt lat="43.28682" lon="2.28849">
        <ele>199.8</ele>
        <time>2022-04-17T07:39:50.000Z</time>
      </trkpt>
      <trkpt lat="43.28679" lon="2.28848">
        <ele>199.7</ele>
        <time>2022-04-17T07:39:51.000Z</time>
      </trkpt>
      <trkpt lat="43.28677" lon="2.28847">
        <ele>199.6</ele>
        <time>2022-04-17T07:39:52.000Z</time>
      </trkpt>
      <trkpt lat="43.28674" lon="2.28847">
        <ele>199.5</ele>
        <time>2022-04-17T07:39:53.000Z</time>
      </trkpt>
      <trkpt lat="43.28672" lon="2.28846">
        <ele>199.4</ele>
        <time>2022-04-17T07:39:54.000Z</time>
      </trkpt>
      <trkpt lat="43.2867" lon="2.28846">
        <ele>199.3</ele>
        <time>2022-04-17T07:39:55.000Z</time>
      </trkpt>
      <trkpt lat="43.28667" lon="2.28845">
        <ele>199.2</ele>
        <time>2022-04-17T07:39:56.000Z</time>
      </trkpt>
      <trkpt lat="43.28665" lon="2.28845">
        <ele>199</ele>
        <time>2022-04-17T07:39:57.000Z</time>
      </trkpt>
      <trkpt lat="43.28663" lon="2.28845">
        <ele>198.9</ele>
        <time>2022-04-17T07:39:58.000Z</time>
      </trkpt>
      <trkpt lat="43.2866" lon="2.28844">
        <ele>198.7</ele>
        <time>2022-04-17T07:39:59.000Z</time>
      </trkpt>
      <trkpt lat="43.28658" lon="2.28844">
        <ele>198.6</ele>
        <time>2022-04-17T07:40:00.000Z</time>
      </trkpt>
      <trkpt lat="43.28655" lon="2.28843">
        <ele>198.4</ele>
        <time>2022-04-17T07:40:01.000Z</time>
      </trkpt>
      <trkpt lat="43.28653" lon="2.28843">
        <ele>198.3</ele>
        <time>2022-04-17T07:40:02.000Z</time>
      </trkpt>
      <trkpt lat="43.2865" lon="2.28842">
        <ele>198.1</ele>
        <time>2022-04-17T07:40:03.000Z</time>
      </trkpt>
      <trkpt lat="43.28647" lon="2.28841">
        <ele>197.9</ele>
        <time>2022-04-17T07:40:04.000Z</time>
      </trkpt>
      <trkpt lat="43.28645" lon="2.2884">
        <ele>197.8</ele>
        <time>2022-04-17T07:40:05.000Z</time>
      </trkpt>
      <trkpt lat="43.28642" lon="2.28839">
        <ele>197.6</ele>
        <time>2022-04-17T07:40:06.000Z</time>
      </trkpt>
      <trkpt lat="43.28639" lon="2.28838">
        <ele>197.4</ele>
        <time>2022-04-17T07:40:07.000Z</time>
      </trkpt>
      <trkpt lat="43.28637" lon="2.28837">
        <ele>197.2</ele>
        <time>2022-04-17T07:40:08.000Z</time>
      </trkpt>
      <trkpt lat="43.28634" lon="2.28836">
        <ele>197.1</ele>
        <time>2022-04-17T07:40:09.000Z</time>
      </trkpt>
      <trkpt lat="43.28631" lon="2.28835">
        <ele>196.9</ele>
        <time>2022-04-17T07:40:10.000Z</time>
      </trkpt>
      <trkpt lat="43.28628" lon="2.28834">
        <ele>196.7</ele>
        <time>2022-04-17T07:40:11.000Z</time>
      </trkpt>
      <trkpt lat="43.28626" lon="2.28832">
        <ele>196.5</ele>
        <time>2022-04-17T07:40:12.000Z</time>
      </trkpt>
      <trkpt lat="43.28623" lon="2.28831">
        <ele>196.4</ele>
        <time>2022-04-17T07:40:13.000Z</time>
      </trkpt>
      <trkpt lat="43.28621" lon="2.2883">
        <ele>196.2</ele>
        <time>2022-04-17T07:40:14.000Z</time>
      </trkpt>
      <trkpt lat="43.28618" lon="2.28828">
        <ele>196</ele>
        <time>2022-04-17T07:40:15.000Z</time>
      </trkpt>
      <trkpt lat="43.28615" lon="2.28827">
        <ele>195.8</ele>
        <time>2022-04-17T07:40:16.000Z</time>
      </trkpt>
      <trkpt lat="43.28613" lon="2.28825">
        <ele>195.7</ele>
        <time>2022-04-17T07:40:17.000Z</time>
      </trkpt>
      <trkpt lat="43.2861" lon="2.28824">
        <ele>195.5</ele>
        <time>2022-04-17T07:40:18.000Z</time>
      </trkpt>
      <trkpt lat="43.28608" lon="2.28822">
        <ele>195.3</ele>
        <time>2022-04-17T07:40:19.000Z</time>
      </trkpt>
      <trkpt lat="43.28605" lon="2.28821">
        <ele>195.2</ele>
        <time>2022-04-17T07:40:20.000Z</time>
      </trkpt>
      <trkpt lat="43.28603" lon="2.28819">
        <ele>195</ele>
        <time>2022-04-17T07:40:21.000Z</time>
      </trkpt>
      <trkpt lat="43.286" lon="2.28818">
        <ele>194.8</ele>
        <time>2022-04-17T07:40:22.000Z</time>
      </trkpt>
      <trkpt lat="43.28598" lon="2.28816">
        <ele>194.7</ele>
        <time>2022-04-17T07:40:23.000Z</time>
      </trkpt>
      <trkpt lat="43.28595" lon="2.28815">
        <ele>194.5</ele>
        <time>2022-04-17T07:40:24.000Z</time>
      </trkpt>
      <trkpt lat="43.28593" lon="2.28814">
        <ele>194.3</ele>
        <time>2022-04-17T07:40:25.000Z</time>
      </trkpt>
      <trkpt lat="43.2859" lon="2.28812">
        <ele>194.2</ele>
        <time>2022-04-17T07:40:26.000Z</time>
      </trkpt>
      <trkpt lat="43.28588" lon="2.28811">
        <ele>194</ele>
        <time>2022-04-17T07:40:27.000Z</time>
      </trkpt>
      <trkpt lat="43.28585" lon="2.2881">
        <ele>193.8</ele>
        <time>2022-04-17T07:40:28.000Z</time>
      </trkpt>
      <trkpt lat="43.28583" lon="2.28809">
        <ele>193.7</ele>
        <time>2022-04-17T07:40:29.000Z</time>
      </trkpt>
      <trkpt lat="43.2858" lon="2.28808">
        <ele>193.5</ele>
        <time>2022-04-17T07:40:30.000Z</time>
      </trkpt>
      <trkpt lat="43.28578" lon="2.28806">
        <ele>193.4</ele>
        <time>2022-04-17T07:40:31.000Z</time>
      </trkpt>
      <trkpt lat="43.28575" lon="2.28805">
        <ele>193.2</ele>
        <time>2022-04-17T07:40:32.000Z</time>
      </trkpt>
      <trkpt lat="43.28572" lon="2.28804">
        <ele>193.1</ele>
        <time>2022-04-17T07:40:33.000Z</time>
      </trkpt>
      <trkpt lat="43.2857" lon="2.28803">
        <ele>192.9</ele>
        <time>2022-04-17T07:40:34.000Z</time>
      </trkpt>
      <trkpt lat="43.28567" lon="2.28803">
        <ele>192.8</ele>
        <time>2022-04-17T07:40:35.000Z</time>
      </trkpt>
      <trkpt lat="43.28564" lon="2.28802">
        <ele>192.6</ele>
        <time>2022-04-17T07:40:36.000Z</time>
      </trkpt>
      <trkpt lat="43.28561" lon="2.28801">
        <ele>192.4</ele>
        <time>2022-04-17T07:40:37.000Z</time>
      </trkpt>
      <trkpt lat="43.28558" lon="2.288">
        <ele>192.3</ele>
        <time>2022-04-17T07:40:38.000Z</time>
      </trkpt>
      <trkpt lat="43.28555" lon="2.28799">
        <ele>192.1</ele>
        <time>2022-04-17T07:40:39.000Z</time>
      </trkpt>
      <trkpt lat="43.28552" lon="2.28798">
        <ele>191.9</ele>
        <time>2022-04-17T07:40:40.000Z</time>
      </trkpt>
      <trkpt lat="43.28549" lon="2.28798">
        <ele>191.8</ele>
        <time>2022-04-17T07:40:41.000Z</time>
      </trkpt>
      <trkpt lat="43.28546" lon="2.28797">
        <ele>191.6</ele>
        <time>2022-04-17T07:40:42.000Z</time>
      </trkpt>
      <trkpt lat="43.28543" lon="2.28796">
        <ele>191.4</ele>
        <time>2022-04-17T07:40:43.000Z</time>
      </trkpt>
      <trkpt lat="43.2854" lon="2.28796">
        <ele>191.2</ele>
        <time>2022-04-17T07:40:44.000Z</time>
      </trkpt>
      <trkpt lat="43.28537" lon="2.28795">
        <ele>191.1</ele>
        <time>2022-04-17T07:40:45.000Z</time>
      </trkpt>
      <trkpt lat="43.28534" lon="2.28794">
        <ele>190.9</ele>
        <time>2022-04-17T07:40:46.000Z</time>
      </trkpt>
      <trkpt lat="43.28531" lon="2.28794">
        <ele>190.7</ele>
        <time>2022-04-17T07:40:47.000Z</time>
      </trkpt>
      <trkpt lat="43.28528" lon="2.28793">
        <ele>190.5</ele>
        <time>2022-04-17T07:40:48.000Z</time>
      </trkpt>
      <trkpt lat="43.28525" lon="2.28793">
        <ele>190.4</ele>
        <time>2022-04-17T07:40:49.000Z</time>
      </trkpt>
      <trkpt lat="43.28522" lon="2.28792">
        <ele>190.2</ele>
        <time>2022-04-17T07:40:50.000Z</time>
      </trkpt>
      <trkpt lat="43.28519" lon="2.28791">
        <ele>190</ele>
        <time>2022-04-17T07:40:51.000Z</time>
      </trkpt>
      <trkpt lat="43.28516" lon="2.28791">
        <ele>189.9</ele>
        <time>2022-04-17T07:40:52.000Z</time>
      </trkpt>
      <trkpt lat="43.28514" lon="2.2879">
        <ele>189.7</ele>
        <time>2022-04-17T07:40:53.000Z</time>
      </trkpt>
      <trkpt lat="43.28511" lon="2.2879">
        <ele>189.5</ele>
        <time>2022-04-17T07:40:54.000Z</time>
      </trkpt>
      <trkpt lat="43.28508" lon="2.2879">
        <ele>189.4</ele>
        <time>2022-04-17T07:40:55.000Z</time>
      </trkpt>
      <trkpt lat="43.28505" lon="2.28789">
        <ele>189.2</ele>
        <time>2022-04-17T07:40:56.000Z</time>
      </trkpt>
      <trkpt lat="43.28502" lon="2.28789">
        <ele>189.1</ele>
        <time>2022-04-17T07:40:57.000Z</time>
      </trkpt>
      <trkpt lat="43.285" lon="2.28788">
        <ele>188.9</ele>
        <time>2022-04-17T07:40:58.000Z</time>
      </trkpt>
      <trkpt lat="43.28497" lon="2.28788">
        <ele>188.8</ele>
        <time>2022-04-17T07:40:59.000Z</time>
      </trkpt>
      <trkpt lat="43.28494" lon="2.28787">
        <ele>188.7</ele>
        <time>2022-04-17T07:41:00.000Z</time>
      </trkpt>
      <trkpt lat="43.28491" lon="2.28787">
        <ele>188.6</ele>
        <time>2022-04-17T07:41:01.000Z</time>
      </trkpt>
      <trkpt lat="43.28488" lon="2.28787">
        <ele>188.4</ele>
        <time>2022-04-17T07:41:02.000Z</time>
      </trkpt>
      <trkpt lat="43.28485" lon="2.28786">
        <ele>188.3</ele>
        <time>2022-04-17T07:41:03.000Z</time>
      </trkpt>
      <trkpt lat="43.28482" lon="2.28786">
        <ele>188.2</ele>
        <time>2022-04-17T07:41:04.000Z</time>
      </trkpt>
      <trkpt lat="43.28479" lon="2.28785">
        <ele>188.1</ele>
        <time>2022-04-17T07:41:05.000Z</time>
      </trkpt>
      <trkpt lat="43.28476" lon="2.28785">
        <ele>188</ele>
        <time>2022-04-17T07:41:06.000Z</time>
      </trkpt>
      <trkpt lat="43.28473" lon="2.28784">
        <ele>187.8</ele>
        <time>2022-04-17T07:41:07.000Z</time>
      </trkpt>
      <trkpt lat="43.28469" lon="2.28784">
        <ele>187.7</ele>
        <time>2022-04-17T07:41:08.000Z</time>
      </trkpt>
      <trkpt lat="43.28466" lon="2.28784">
        <ele>187.6</ele>
        <time>2022-04-17T07:41:09.000Z</time>
      </trkpt>
      <trkpt lat="43.28463" lon="2.28783">
        <ele>187.5</ele>
        <time>2022-04-17T07:41:10.000Z</time>
      </trkpt>
      <trkpt lat="43.2846" lon="2.28783">
        <ele>187.3</ele>
        <time>2022-04-17T07:41:11.000Z</time>
      </trkpt>
      <trkpt lat="43.28457" lon="2.28782">
        <ele>187.2</ele>
        <time>2022-04-17T07:41:12.000Z</time>
      </trkpt>
      <trkpt lat="43.28455" lon="2.28782">
        <ele>187.1</ele>
        <time>2022-04-17T07:41:13.000Z</time>
      </trkpt>
      <trkpt lat="43.28452" lon="2.28781">
        <ele>187</ele>
        <time>2022-04-17T07:41:14.000Z</time>
      </trkpt>
      <trkpt lat="43.2845" lon="2.28781">
        <ele>186.9</ele>
        <time>2022-04-17T07:41:15.000Z</time>
      </trkpt>
      <trkpt lat="43.28447" lon="2.28781">
        <ele>186.8</ele>
        <time>2022-04-17T07:41:16.000Z</time>
      </trkpt>
      <trkpt lat="43.28445" lon="2.28781">
        <ele>186.8</ele>
        <time>2022-04-17T07:41:17.000Z</time>
      </trkpt>
      <trkpt lat="43.28443" lon="2.28782">
        <ele>186.7</ele>
        <time>2022-04-17T07:41:18.000Z</time>
      </trkpt>
      <trkpt lat="43.2844" lon="2.28783">
        <ele>186.6</ele>
        <time>2022-04-17T07:41:19.000Z</time>
      </trkpt>
      <trkpt lat="43.28438" lon="2.28784">
        <ele>186.6</ele>
        <time>2022-04-17T07:41:20.000Z</time>
      </trkpt>
      <trkpt lat="43.28436" lon="2.28786">
        <ele>186.6</ele>
        <time>2022-04-17T07:41:21.000Z</time>
      </trkpt>
      <trkpt lat="43.28434" lon="2.28788">
        <ele>186.5</ele>
        <time>2022-04-17T07:41:22.000Z</time>
      </trkpt>
      <trkpt lat="43.28432" lon="2.2879">
        <ele>186.5</ele>
        <time>2022-04-17T07:41:23.000Z</time>
      </trkpt>
      <trkpt lat="43.2843" lon="2.28792">
        <ele>186.5</ele>
        <time>2022-04-17T07:41:24.000Z</time>
      </trkpt>
      <trkpt lat="43.28428" lon="2.28795">
        <ele>186.5</ele>
        <time>2022-04-17T07:41:25.000Z</time>
      </trkpt>
      <trkpt lat="43.28426" lon="2.28796">
        <ele>186.4</ele>
        <time>2022-04-17T07:41:26.000Z</time>
      </trkpt>
      <trkpt lat="43.28424" lon="2.28798">
        <ele>186.4</ele>
        <time>2022-04-17T07:41:27.000Z</time>
      </trkpt>
      <trkpt lat="43.28422" lon="2.288">
        <ele>186.4</ele>
        <time>2022-04-17T07:41:28.000Z</time>
      </trkpt>
      <trkpt lat="43.2842" lon="2.28802">
        <ele>186.4</ele>
        <time>2022-04-17T07:41:29.000Z</time>
      </trkpt>
      <trkpt lat="43.28418" lon="2.28803">
        <ele>186.3</ele>
        <time>2022-04-17T07:41:30.000Z</time>
      </trkpt>
      <trkpt lat="43.28416" lon="2.28804">
        <ele>186.2</ele>
        <time>2022-04-17T07:41:31.000Z</time>
      </trkpt>
      <trkpt lat="43.28413" lon="2.28806">
        <ele>186.1</ele>
        <time>2022-04-17T07:41:32.000Z</time>
      </trkpt>
      <trkpt lat="43.28411" lon="2.28807">
        <ele>186</ele>
        <time>2022-04-17T07:41:33.000Z</time>
      </trkpt>
      <trkpt lat="43.28408" lon="2.28808">
        <ele>185.9</ele>
        <time>2022-04-17T07:41:34.000Z</time>
      </trkpt>
      <trkpt lat="43.28406" lon="2.28809">
        <ele>185.8</ele>
        <time>2022-04-17T07:41:35.000Z</time>
      </trkpt>
      <trkpt lat="43.28403" lon="2.2881">
        <ele>185.6</ele>
        <time>2022-04-17T07:41:36.000Z</time>
      </trkpt>
      <trkpt lat="43.28401" lon="2.28811">
        <ele>185.5</ele>
        <time>2022-04-17T07:41:37.000Z</time>
      </trkpt>
      <trkpt lat="43.28398" lon="2.28811">
        <ele>185.4</ele>
        <time>2022-04-17T07:41:38.000Z</time>
      </trkpt>
      <trkpt lat="43.28395" lon="2.28812">
        <ele>185.3</ele>
        <time>2022-04-17T07:41:39.000Z</time>
      </trkpt>
      <trkpt lat="43.28393" lon="2.28813">
        <ele>185.2</ele>
        <time>2022-04-17T07:41:40.000Z</time>
      </trkpt>
      <trkpt lat="43.2839" lon="2.28814">
        <ele>185</ele>
        <time>2022-04-17T07:41:41.000Z</time>
      </trkpt>
      <trkpt lat="43.28388" lon="2.28815">
        <ele>184.9</ele>
        <time>2022-04-17T07:41:42.000Z</time>
      </trkpt>
      <trkpt lat="43.28385" lon="2.28815">
        <ele>184.8</ele>
        <time>2022-04-17T07:41:43.000Z</time>
      </trkpt>
      <trkpt lat="43.28383" lon="2.28816">
        <ele>184.7</ele>
        <time>2022-04-17T07:41:44.000Z</time>
      </trkpt>
      <trkpt lat="43.2838" lon="2.28816">
        <ele>184.6</ele>
        <time>2022-04-17T07:41:45.000Z</time>
      </trkpt>
      <trkpt lat="43.28377" lon="2.28817">
        <ele>184.4</ele>
        <time>2022-04-17T07:41:46.000Z</time>
      </trkpt>
      <trkpt lat="43.28374" lon="2.28817">
        <ele>184.3</ele>
        <time>2022-04-17T07:41:47.000Z</time>
      </trkpt>
      <trkpt lat="43.28372" lon="2.28818">
        <ele>184.2</ele>
        <time>2022-04-17T07:41:48.000Z</time>
      </trkpt>
      <trkpt lat="43.28369" lon="2.28818">
        <ele>184</ele>
        <time>2022-04-17T07:41:49.000Z</time>
      </trkpt>
      <trkpt lat="43.28366" lon="2.28818">
        <ele>183.9</ele>
        <time>2022-04-17T07:41:50.000Z</time>
      </trkpt>
      <trkpt lat="43.28363" lon="2.28818">
        <ele>183.7</ele>
        <time>2022-04-17T07:41:51.000Z</time>
      </trkpt>
      <trkpt lat="43.2836" lon="2.28818">
        <ele>183.5</ele>
        <time>2022-04-17T07:41:52.000Z</time>
      </trkpt>
      <trkpt lat="43.28357" lon="2.28818">
        <ele>183.4</ele>
        <time>2022-04-17T07:41:53.000Z</time>
      </trkpt>
      <trkpt lat="43.28355" lon="2.28817">
        <ele>183.2</ele>
        <time>2022-04-17T07:41:54.000Z</time>
      </trkpt>
      <trkpt lat="43.28352" lon="2.28817">
        <ele>183</ele>
        <time>2022-04-17T07:41:55.000Z</time>
      </trkpt>
      <trkpt lat="43.28349" lon="2.28816">
        <ele>182.8</ele>
        <time>2022-04-17T07:41:56.000Z</time>
      </trkpt>
      <trkpt lat="43.28346" lon="2.28816">
        <ele>182.7</ele>
        <time>2022-04-17T07:41:57.000Z</time>
      </trkpt>
      <trkpt lat="43.28344" lon="2.28815">
        <ele>182.5</ele>
        <time>2022-04-17T07:41:58.000Z</time>
      </trkpt>
      <trkpt lat="43.28341" lon="2.28815">
        <ele>182.3</ele>
        <time>2022-04-17T07:41:59.000Z</time>
      </trkpt>
      <trkpt lat="43.28338" lon="2.28815">
        <ele>182.2</ele>
        <time>2022-04-17T07:42:00.000Z</time>
      </trkpt>
      <trkpt lat="43.28336" lon="2.28814">
        <ele>182</ele>
        <time>2022-04-17T07:42:01.000Z</time>
      </trkpt>
      <trkpt lat="43.28333" lon="2.28814">
        <ele>181.8</ele>
        <time>2022-04-17T07:42:02.000Z</time>
      </trkpt>
      <trkpt lat="43.28331" lon="2.28814">
        <ele>181.7</ele>
        <time>2022-04-17T07:42:03.000Z</time>
      </trkpt>
      <trkpt lat="43.28328" lon="2.28814">
        <ele>181.6</ele>
        <time>2022-04-17T07:42:04.000Z</time>
      </trkpt>
      <trkpt lat="43.28325" lon="2.28814">
        <ele>181.5</ele>
        <time>2022-04-17T07:42:05.000Z</time>
      </trkpt>
      <trkpt lat="43.28322" lon="2.28815">
        <ele>181.4</ele>
        <time>2022-04-17T07:42:06.000Z</time>
      </trkpt>
      <trkpt lat="43.28319" lon="2.28815">
        <ele>181.3</ele>
        <time>2022-04-17T07:42:07.000Z</time>
      </trkpt>
      <trkpt lat="43.28316" lon="2.28816">
        <ele>181.2</ele>
        <time>2022-04-17T07:42:08.000Z</time>
      </trkpt>
      <trkpt lat="43.28313" lon="2.28816">
        <ele>181.1</ele>
        <time>2022-04-17T07:42:09.000Z</time>
      </trkpt>
      <trkpt lat="43.2831" lon="2.28816">
        <ele>181</ele>
        <time>2022-04-17T07:42:10.000Z</time>
      </trkpt>
      <trkpt lat="43.28307" lon="2.28816">
        <ele>180.9</ele>
        <time>2022-04-17T07:42:11.000Z</time>
      </trkpt>
      <trkpt lat="43.28305" lon="2.28816">
        <ele>180.8</ele>
        <time>2022-04-17T07:42:12.000Z</time>
      </trkpt>
      <trkpt lat="43.28302" lon="2.28816">
        <ele>180.7</ele>
        <time>2022-04-17T07:42:13.000Z</time>
      </trkpt>
      <trkpt lat="43.28299" lon="2.28815">
        <ele>180.5</ele>
        <time>2022-04-17T07:42:14.000Z</time>
      </trkpt>
      <trkpt lat="43.28296" lon="2.28815">
        <ele>180.4</ele>
        <time>2022-04-17T07:42:15.000Z</time>
      </trkpt>
      <trkpt lat="43.28293" lon="2.28814">
        <ele>180.2</ele>
        <time>2022-04-17T07:42:16.000Z</time>
      </trkpt>
      <trkpt lat="43.2829" lon="2.28813">
        <ele>180.1</ele>
        <time>2022-04-17T07:42:17.000Z</time>
      </trkpt>
      <trkpt lat="43.28287" lon="2.28813">
        <ele>180</ele>
        <time>2022-04-17T07:42:18.000Z</time>
      </trkpt>
      <trkpt lat="43.28284" lon="2.28812">
        <ele>179.8</ele>
        <time>2022-04-17T07:42:19.000Z</time>
      </trkpt>
      <trkpt lat="43.28282" lon="2.28811">
        <ele>179.7</ele>
        <time>2022-04-17T07:42:20.000Z</time>
      </trkpt>
      <trkpt lat="43.28279" lon="2.28811">
        <ele>179.5</ele>
        <time>2022-04-17T07:42:21.000Z</time>
      </trkpt>
      <trkpt lat="43.28276" lon="2.2881">
        <ele>179.4</ele>
        <time>2022-04-17T07:42:22.000Z</time>
      </trkpt>
      <trkpt lat="43.28273" lon="2.28809">
        <ele>179.3</ele>
        <time>2022-04-17T07:42:23.000Z</time>
      </trkpt>
      <trkpt lat="43.2827" lon="2.28809">
        <ele>179.2</ele>
        <time>2022-04-17T07:42:24.000Z</time>
      </trkpt>
      <trkpt lat="43.28267" lon="2.28808">
        <ele>179</ele>
        <time>2022-04-17T07:42:25.000Z</time>
      </trkpt>
      <trkpt lat="43.28264" lon="2.28808">
        <ele>178.9</ele>
        <time>2022-04-17T07:42:26.000Z</time>
      </trkpt>
      <trkpt lat="43.28261" lon="2.28807">
        <ele>178.8</ele>
        <time>2022-04-17T07:42:27.000Z</time>
      </trkpt>
      <trkpt lat="43.28258" lon="2.28807">
        <ele>178.7</ele>
        <time>2022-04-17T07:42:28.000Z</time>
      </trkpt>
      <trkpt lat="43.28255" lon="2.28807">
        <ele>178.5</ele>
        <time>2022-04-17T07:42:29.000Z</time>
      </trkpt>
      <trkpt lat="43.28252" lon="2.28806">
        <ele>178.4</ele>
        <time>2022-04-17T07:42:30.000Z</time>
      </trkpt>
      <trkpt lat="43.28249" lon="2.28806">
        <ele>178.3</ele>
        <time>2022-04-17T07:42:31.000Z</time>
      </trkpt>
      <trkpt lat="43.28246" lon="2.28806">
        <ele>178.1</ele>
        <time>2022-04-17T07:42:32.000Z</time>
      </trkpt>
      <trkpt lat="43.28243" lon="2.28806">
        <ele>177.9</ele>
        <time>2022-04-17T07:42:33.000Z</time>
      </trkpt>
      <trkpt lat="43.2824" lon="2.28805">
        <ele>177.8</ele>
        <time>2022-04-17T07:42:34.000Z</time>
      </trkpt>
      <trkpt lat="43.28237" lon="2.28805">
        <ele>177.6</ele>
        <time>2022-04-17T07:42:35.000Z</time>
      </trkpt>
      <trkpt lat="43.28235" lon="2.28805">
        <ele>177.4</ele>
        <time>2022-04-17T07:42:36.000Z</time>
      </trkpt>
      <trkpt lat="43.28232" lon="2.28805">
        <ele>177.2</ele>
        <time>2022-04-17T07:42:37.000Z</time>
      </trkpt>
      <trkpt lat="43.28229" lon="2.28805">
        <ele>177</ele>
        <time>2022-04-17T07:42:38.000Z</time>
      </trkpt>
      <trkpt lat="43.28226" lon="2.28805">
        <ele>176.8</ele>
        <time>2022-04-17T07:42:39.000Z</time>
      </trkpt>
      <trkpt lat="43.28223" lon="2.28804">
        <ele>176.7</ele>
        <time>2022-04-17T07:42:40.000Z</time>
      </trkpt>
      <trkpt lat="43.2822" lon="2.28804">
        <ele>176.5</ele>
        <time>2022-04-17T07:42:41.000Z</time>
      </trkpt>
      <trkpt lat="43.28217" lon="2.28804">
        <ele>176.3</ele>
        <time>2022-04-17T07:42:42.000Z</time>
      </trkpt>
      <trkpt lat="43.28214" lon="2.28804">
        <ele>176.1</ele>
        <time>2022-04-17T07:42:43.000Z</time>
      </trkpt>
      <trkpt lat="43.28211" lon="2.28804">
        <ele>176</ele>
        <time>2022-04-17T07:42:44.000Z</time>
      </trkpt>
      <trkpt lat="43.28208" lon="2.28804">
        <ele>175.8</ele>
        <time>2022-04-17T07:42:45.000Z</time>
      </trkpt>
      <trkpt lat="43.28205" lon="2.28804">
        <ele>175.6</ele>
        <time>2022-04-17T07:42:46.000Z</time>
      </trkpt>
      <trkpt lat="43.28203" lon="2.28804">
        <ele>175.4</ele>
        <time>2022-04-17T07:42:47.000Z</time>
      </trkpt>
      <trkpt lat="43.282" lon="2.28803">
        <ele>175.3</ele>
        <time>2022-04-17T07:42:48.000Z</time>
      </trkpt>
      <trkpt lat="43.28197" lon="2.28803">
        <ele>175.1</ele>
        <time>2022-04-17T07:42:49.000Z</time>
      </trkpt>
      <trkpt lat="43.28195" lon="2.28803">
        <ele>174.9</ele>
        <time>2022-04-17T07:42:50.000Z</time>
      </trkpt>
      <trkpt lat="43.28192" lon="2.28803">
        <ele>174.8</ele>
        <time>2022-04-17T07:42:51.000Z</time>
      </trkpt>
      <trkpt lat="43.28189" lon="2.28802">
        <ele>174.6</ele>
        <time>2022-04-17T07:42:52.000Z</time>
      </trkpt>
      <trkpt lat="43.28187" lon="2.28802">
        <ele>174.5</ele>
        <time>2022-04-17T07:42:53.000Z</time>
      </trkpt>
      <trkpt lat="43.28184" lon="2.28802">
        <ele>174.3</ele>
        <time>2022-04-17T07:42:54.000Z</time>
      </trkpt>
      <trkpt lat="43.28182" lon="2.28801">
        <ele>174.1</ele>
        <time>2022-04-17T07:42:55.000Z</time>
      </trkpt>
      <trkpt lat="43.28179" lon="2.28801">
        <ele>174</ele>
        <time>2022-04-17T07:42:56.000Z</time>
      </trkpt>
      <trkpt lat="43.28176" lon="2.28801">
        <ele>173.8</ele>
        <time>2022-04-17T07:42:57.000Z</time>
      </trkpt>
      <trkpt lat="43.28173" lon="2.28801">
        <ele>173.6</ele>
        <time>2022-04-17T07:42:58.000Z</time>
      </trkpt>
      <trkpt lat="43.2817" lon="2.288">
        <ele>173.4</ele>
        <time>2022-04-17T07:42:59.000Z</time>
      </trkpt>
      <trkpt lat="43.28168" lon="2.288">
        <ele>173.3</ele>
        <time>2022-04-17T07:43:00.000Z</time>
      </trkpt>
      <trkpt lat="43.28165" lon="2.288">
        <ele>173.2</ele>
        <time>2022-04-17T07:43:01.000Z</time>
      </trkpt>
      <trkpt lat="43.28162" lon="2.288">
        <ele>173.2</ele>
        <time>2022-04-17T07:43:02.000Z</time>
      </trkpt>
      <trkpt lat="43.28159" lon="2.288">
        <ele>173.1</ele>
        <time>2022-04-17T07:43:03.000Z</time>
      </trkpt>
      <trkpt lat="43.28156" lon="2.288">
        <ele>173.1</ele>
        <time>2022-04-17T07:43:04.000Z</time>
      </trkpt>
      <trkpt lat="43.28153" lon="2.28799">
        <ele>173.1</ele>
        <time>2022-04-17T07:43:05.000Z</time>
      </trkpt>
      <trkpt lat="43.2815" lon="2.28799">
        <ele>173</ele>
        <time>2022-04-17T07:43:06.000Z</time>
      </trkpt>
      <trkpt lat="43.28148" lon="2.28799">
        <ele>173</ele>
        <time>2022-04-17T07:43:07.000Z</time>
      </trkpt>
      <trkpt lat="43.28145" lon="2.28798">
        <ele>173</ele>
        <time>2022-04-17T07:43:08.000Z</time>
      </trkpt>
      <trkpt lat="43.28142" lon="2.28797">
        <ele>172.9</ele>
        <time>2022-04-17T07:43:09.000Z</time>
      </trkpt>
      <trkpt lat="43.28139" lon="2.28797">
        <ele>172.9</ele>
        <time>2022-04-17T07:43:10.000Z</time>
      </trkpt>
      <trkpt lat="43.28136" lon="2.28796">
        <ele>172.9</ele>
        <time>2022-04-17T07:43:11.000Z</time>
      </trkpt>
      <trkpt lat="43.28133" lon="2.28795">
        <ele>172.8</ele>
        <time>2022-04-17T07:43:12.000Z</time>
      </trkpt>
      <trkpt lat="43.2813" lon="2.28794">
        <ele>172.8</ele>
        <time>2022-04-17T07:43:13.000Z</time>
      </trkpt>
      <trkpt lat="43.28127" lon="2.28793">
        <ele>172.8</ele>
        <time>2022-04-17T07:43:14.000Z</time>
      </trkpt>
      <trkpt lat="43.28125" lon="2.28792">
        <ele>172.8</ele>
        <time>2022-04-17T07:43:15.000Z</time>
      </trkpt>
      <trkpt lat="43.28123" lon="2.28791">
        <ele>172.7</ele>
        <time>2022-04-17T07:43:16.000Z</time>
      </trkpt>
      <trkpt lat="43.2812" lon="2.2879">
        <ele>172.7</ele>
        <time>2022-04-17T07:43:17.000Z</time>
      </trkpt>
      <trkpt lat="43.28119" lon="2.2879">
        <ele>172.7</ele>
        <time>2022-04-17T07:43:18.000Z</time>
      </trkpt>
      <trkpt lat="43.28117" lon="2.28789">
        <ele>172.7</ele>
        <time>2022-04-17T07:43:19.000Z</time>
      </trkpt>
      <trkpt lat="43.28116" lon="2.28789">
        <ele>172.7</ele>
        <time>2022-04-17T07:43:20.000Z</time>
      </trkpt>
      <trkpt lat="43.28114" lon="2.28789">
        <ele>172.7</ele>
        <time>2022-04-17T07:43:21.000Z</time>
      </trkpt>
      <trkpt lat="43.28113" lon="2.28789">
        <ele>172.7</ele>
        <time>2022-04-17T07:43:22.000Z</time>
      </trkpt>
      <trkpt lat="43.28112" lon="2.2879">
        <ele>172.7</ele>
        <time>2022-04-17T07:43:23.000Z</time>
      </trkpt>
      <trkpt lat="43.2811" lon="2.2879">
        <ele>172.7</ele>
        <time>2022-04-17T07:43:24.000Z</time>
      </trkpt>
      <trkpt lat="43.28109" lon="2.2879">
        <ele>172.7</ele>
        <time>2022-04-17T07:43:25.000Z</time>
      </trkpt>
      <trkpt lat="43.28107" lon="2.2879">
        <ele>172.6</ele>
        <time>2022-04-17T07:43:26.000Z</time>
      </trkpt>
      <trkpt lat="43.28106" lon="2.2879">
        <ele>172.6</ele>
        <time>2022-04-17T07:43:27.000Z</time>
      </trkpt>
      <trkpt lat="43.28105" lon="2.2879">
        <ele>172.6</ele>
        <time>2022-04-17T07:43:28.000Z</time>
      </trkpt>
      <trkpt lat="43.28104" lon="2.2879">
        <ele>172.6</ele>
        <time>2022-04-17T07:43:29.000Z</time>
      </trkpt>
      <trkpt lat="43.28104" lon="2.2879">
        <ele>172.6</ele>
        <time>2022-04-17T07:43:30.000Z</time>
      </trkpt>
      <trkpt lat="43.28103" lon="2.2879">
        <ele>172.6</ele>
        <time>2022-04-17T07:43:31.000Z</time>
      </trkpt>
      <trkpt lat="43.28103" lon="2.2879">
        <ele>172.6</ele>
        <time>2022-04-17T07:43:32.000Z</time>
      </trkpt>
      <trkpt lat="43.28103" lon="2.2879">
        <ele>172.6</ele>
        <time>2022-04-17T07:43:33.000Z</time>
      </trkpt>
      <trkpt lat="43.28103" lon="2.2879">
        <ele>172.6</ele>
        <time>2022-04-17T07:43:34.000Z</time>
      </trkpt>
      <trkpt lat="43.28103" lon="2.2879">
        <ele>172.6</ele>
        <time>2022-04-17T07:43:35.000Z</time>
      </trkpt>
      <trkpt lat="43.28102" lon="2.2879">
        <ele>172.6</ele>
        <time>2022-04-17T07:43:36.000Z</time>
      </trkpt>
      <trkpt lat="43.28102" lon="2.2879">
        <ele>172.6</ele>
        <time>2022-04-17T07:43:37.000Z</time>
      </trkpt>
      <trkpt lat="43.28101" lon="2.28791">
        <ele>172.6</ele>
        <time>2022-04-17T07:43:38.000Z</time>
      </trkpt>
      <trkpt lat="43.281" lon="2.28791">
        <ele>172.6</ele>
        <time>2022-04-17T07:43:39.000Z</time>
      </trkpt>
      <trkpt lat="43.28099" lon="2.28791">
        <ele>172.6</ele>
        <time>2022-04-17T07:43:40.000Z</time>
      </trkpt>
      <trkpt lat="43.28098" lon="2.28791">
        <ele>172.6</ele>
        <time>2022-04-17T07:43:41.000Z</time>
      </trkpt>
      <trkpt lat="43.28097" lon="2.28791">
        <ele>172.6</ele>
        <time>2022-04-17T07:43:42.000Z</time>
      </trkpt>
      <trkpt lat="43.28096" lon="2.28792">
        <ele>172.6</ele>
        <time>2022-04-17T07:43:43.000Z</time>
      </trkpt>
      <trkpt lat="43.28095" lon="2.28792">
        <ele>172.6</ele>
        <time>2022-04-17T07:43:44.000Z</time>
      </trkpt>
      <trkpt lat="43.28094" lon="2.28793">
        <ele>172.6</ele>
        <time>2022-04-17T07:43:45.000Z</time>
      </trkpt>
      <trkpt lat="43.28093" lon="2.28793">
        <ele>172.5</ele>
        <time>2022-04-17T07:43:46.000Z</time>
      </trkpt>
      <trkpt lat="43.28092" lon="2.28793">
        <ele>172.5</ele>
        <time>2022-04-17T07:43:47.000Z</time>
      </trkpt>
      <trkpt lat="43.28091" lon="2.28794">
        <ele>172.5</ele>
        <time>2022-04-17T07:43:48.000Z</time>
      </trkpt>
      <trkpt lat="43.28089" lon="2.28794">
        <ele>172.5</ele>
        <time>2022-04-17T07:43:49.000Z</time>
      </trkpt>
      <trkpt lat="43.28087" lon="2.28794">
        <ele>172.5</ele>
        <time>2022-04-17T07:43:50.000Z</time>
      </trkpt>
      <trkpt lat="43.28085" lon="2.28794">
        <ele>172.5</ele>
        <time>2022-04-17T07:43:51.000Z</time>
      </trkpt>
      <trkpt lat="43.28082" lon="2.28794">
        <ele>172.4</ele>
        <time>2022-04-17T07:43:52.000Z</time>
      </trkpt>
      <trkpt lat="43.2808" lon="2.28795">
        <ele>172.2</ele>
        <time>2022-04-17T07:43:53.000Z</time>
      </trkpt>
      <trkpt lat="43.28078" lon="2.28795">
        <ele>172</ele>
        <time>2022-04-17T07:43:54.000Z</time>
      </trkpt>
      <trkpt lat="43.28076" lon="2.28795">
        <ele>171.9</ele>
        <time>2022-04-17T07:43:55.000Z</time>
      </trkpt>
      <trkpt lat="43.28074" lon="2.28796">
        <ele>171.7</ele>
        <time>2022-04-17T07:43:56.000Z</time>
      </trkpt>
      <trkpt lat="43.28072" lon="2.28796">
        <ele>171.5</ele>
        <time>2022-04-17T07:43:57.000Z</time>
      </trkpt>
      <trkpt lat="43.2807" lon="2.28796">
        <ele>171.3</ele>
        <time>2022-04-17T07:43:58.000Z</time>
      </trkpt>
      <trkpt lat="43.28068" lon="2.28797">
        <ele>171.1</ele>
        <time>2022-04-17T07:43:59.000Z</time>
      </trkpt>
      <trkpt lat="43.28065" lon="2.28798">
        <ele>170.9</ele>
        <time>2022-04-17T07:44:00.000Z</time>
      </trkpt>
      <trkpt lat="43.28062" lon="2.28798">
        <ele>170.6</ele>
        <time>2022-04-17T07:44:01.000Z</time>
      </trkpt>
      <trkpt lat="43.28059" lon="2.28799">
        <ele>170.3</ele>
        <time>2022-04-17T07:44:02.000Z</time>
      </trkpt>
      <trkpt lat="43.28056" lon="2.288">
        <ele>170.1</ele>
        <time>2022-04-17T07:44:03.000Z</time>
      </trkpt>
      <trkpt lat="43.28053" lon="2.28801">
        <ele>169.8</ele>
        <time>2022-04-17T07:44:04.000Z</time>
      </trkpt>
      <trkpt lat="43.2805" lon="2.28802">
        <ele>169.5</ele>
        <time>2022-04-17T07:44:05.000Z</time>
      </trkpt>
      <trkpt lat="43.28047" lon="2.28802">
        <ele>169.2</ele>
        <time>2022-04-17T07:44:06.000Z</time>
      </trkpt>
      <trkpt lat="43.28045" lon="2.28803">
        <ele>169</ele>
        <time>2022-04-17T07:44:07.000Z</time>
      </trkpt>
      <trkpt lat="43.28042" lon="2.28804">
        <ele>168.8</ele>
        <time>2022-04-17T07:44:08.000Z</time>
      </trkpt>
      <trkpt lat="43.2804" lon="2.28804">
        <ele>168.6</ele>
        <time>2022-04-17T07:44:09.000Z</time>
      </trkpt>
      <trkpt lat="43.28038" lon="2.28805">
        <ele>168.4</ele>
        <time>2022-04-17T07:44:10.000Z</time>
      </trkpt>
      <trkpt lat="43.28036" lon="2.28805">
        <ele>168.2</ele>
        <time>2022-04-17T07:44:11.000Z</time>
      </trkpt>
      <trkpt lat="43.28034" lon="2.28806">
        <ele>167.9</ele>
        <time>2022-04-17T07:44:12.000Z</time>
      </trkpt>
      <trkpt lat="43.28031" lon="2.28806">
        <ele>167.7</ele>
        <time>2022-04-17T07:44:13.000Z</time>
      </trkpt>
      <trkpt lat="43.28028" lon="2.28807">
        <ele>167.4</ele>
        <time>2022-04-17T07:44:14.000Z</time>
      </trkpt>
      <trkpt lat="43.28025" lon="2.28808">
        <ele>167.1</ele>
        <time>2022-04-17T07:44:15.000Z</time>
      </trkpt>
      <trkpt lat="43.28022" lon="2.28809">
        <ele>166.8</ele>
        <time>2022-04-17T07:44:16.000Z</time>
      </trkpt>
      <trkpt lat="43.28019" lon="2.28809">
        <ele>166.5</ele>
        <time>2022-04-17T07:44:17.000Z</time>
      </trkpt>
      <trkpt lat="43.28016" lon="2.2881">
        <ele>166.2</ele>
        <time>2022-04-17T07:44:18.000Z</time>
      </trkpt>
      <trkpt lat="43.28013" lon="2.28811">
        <ele>166</ele>
        <time>2022-04-17T07:44:19.000Z</time>
      </trkpt>
      <trkpt lat="43.2801" lon="2.28812">
        <ele>165.7</ele>
        <time>2022-04-17T07:44:20.000Z</time>
      </trkpt>
      <trkpt lat="43.28007" lon="2.28812">
        <ele>165.4</ele>
        <time>2022-04-17T07:44:21.000Z</time>
      </trkpt>
      <trkpt lat="43.28005" lon="2.28812">
        <ele>165.2</ele>
        <time>2022-04-17T07:44:22.000Z</time>
      </trkpt>
      <trkpt lat="43.28002" lon="2.28813">
        <ele>164.9</ele>
        <time>2022-04-17T07:44:23.000Z</time>
      </trkpt>
      <trkpt lat="43.28" lon="2.28813">
        <ele>164.7</ele>
        <time>2022-04-17T07:44:24.000Z</time>
      </trkpt>
      <trkpt lat="43.27998" lon="2.28813">
        <ele>164.6</ele>
        <time>2022-04-17T07:44:25.000Z</time>
      </trkpt>
      <trkpt lat="43.27995" lon="2.28814">
        <ele>164.6</ele>
        <time>2022-04-17T07:44:26.000Z</time>
      </trkpt>
      <trkpt lat="43.27993" lon="2.28814">
        <ele>164.5</ele>
        <time>2022-04-17T07:44:27.000Z</time>
      </trkpt>
      <trkpt lat="43.27991" lon="2.28814">
        <ele>164.4</ele>
        <time>2022-04-17T07:44:28.000Z</time>
      </trkpt>
      <trkpt lat="43.27988" lon="2.28814">
        <ele>164.3</ele>
        <time>2022-04-17T07:44:29.000Z</time>
      </trkpt>
      <trkpt lat="43.27986" lon="2.28814">
        <ele>164.2</ele>
        <time>2022-04-17T07:44:30.000Z</time>
      </trkpt>
      <trkpt lat="43.27983" lon="2.28815">
        <ele>164.1</ele>
        <time>2022-04-17T07:44:31.000Z</time>
      </trkpt>
      <trkpt lat="43.2798" lon="2.28815">
        <ele>164</ele>
        <time>2022-04-17T07:44:32.000Z</time>
      </trkpt>
      <trkpt lat="43.27978" lon="2.28815">
        <ele>163.9</ele>
        <time>2022-04-17T07:44:33.000Z</time>
      </trkpt>
      <trkpt lat="43.27975" lon="2.28815">
        <ele>163.9</ele>
        <time>2022-04-17T07:44:34.000Z</time>
      </trkpt>
      <trkpt lat="43.27972" lon="2.28816">
        <ele>163.8</ele>
        <time>2022-04-17T07:44:35.000Z</time>
      </trkpt>
      <trkpt lat="43.27969" lon="2.28816">
        <ele>163.7</ele>
        <time>2022-04-17T07:44:36.000Z</time>
      </trkpt>
      <trkpt lat="43.27966" lon="2.28816">
        <ele>163.6</ele>
        <time>2022-04-17T07:44:37.000Z</time>
      </trkpt>
      <trkpt lat="43.27964" lon="2.28816">
        <ele>163.5</ele>
        <time>2022-04-17T07:44:38.000Z</time>
      </trkpt>
      <trkpt lat="43.27961" lon="2.28817">
        <ele>163.4</ele>
        <time>2022-04-17T07:44:39.000Z</time>
      </trkpt>
      <trkpt lat="43.27958" lon="2.28817">
        <ele>163.3</ele>
        <time>2022-04-17T07:44:40.000Z</time>
      </trkpt>
      <trkpt lat="43.27955" lon="2.28817">
        <ele>163.2</ele>
        <time>2022-04-17T07:44:41.000Z</time>
      </trkpt>
      <trkpt lat="43.27952" lon="2.28817">
        <ele>163.1</ele>
        <time>2022-04-17T07:44:42.000Z</time>
      </trkpt>
      <trkpt lat="43.27949" lon="2.28818">
        <ele>163</ele>
        <time>2022-04-17T07:44:43.000Z</time>
      </trkpt>
      <trkpt lat="43.27947" lon="2.28818">
        <ele>162.9</ele>
        <time>2022-04-17T07:44:44.000Z</time>
      </trkpt>
      <trkpt lat="43.27944" lon="2.28818">
        <ele>162.8</ele>
        <time>2022-04-17T07:44:45.000Z</time>
      </trkpt>
      <trkpt lat="43.27942" lon="2.28818">
        <ele>162.8</ele>
        <time>2022-04-17T07:44:46.000Z</time>
      </trkpt>
      <trkpt lat="43.27939" lon="2.28818">
        <ele>162.7</ele>
        <time>2022-04-17T07:44:47.000Z</time>
      </trkpt>
      <trkpt lat="43.27937" lon="2.28818">
        <ele>162.6</ele>
        <time>2022-04-17T07:44:48.000Z</time>
      </trkpt>
      <trkpt lat="43.27934" lon="2.28818">
        <ele>162.5</ele>
        <time>2022-04-17T07:44:49.000Z</time>
      </trkpt>
      <trkpt lat="43.27932" lon="2.28817">
        <ele>162.5</ele>
        <time>2022-04-17T07:44:50.000Z</time>
      </trkpt>
      <trkpt lat="43.27929" lon="2.28817">
        <ele>162.4</ele>
        <time>2022-04-17T07:44:51.000Z</time>
      </trkpt>
      <trkpt lat="43.27927" lon="2.28817">
        <ele>162.3</ele>
        <time>2022-04-17T07:44:52.000Z</time>
      </trkpt>
      <trkpt lat="43.27924" lon="2.28816">
        <ele>162.2</ele>
        <time>2022-04-17T07:44:53.000Z</time>
      </trkpt>
      <trkpt lat="43.27922" lon="2.28816">
        <ele>162.2</ele>
        <time>2022-04-17T07:44:54.000Z</time>
      </trkpt>
      <trkpt lat="43.27919" lon="2.28815">
        <ele>162.1</ele>
        <time>2022-04-17T07:44:55.000Z</time>
      </trkpt>
      <trkpt lat="43.27917" lon="2.28814">
        <ele>162</ele>
        <time>2022-04-17T07:44:56.000Z</time>
      </trkpt>
      <trkpt lat="43.27914" lon="2.28814">
        <ele>161.8</ele>
        <time>2022-04-17T07:44:57.000Z</time>
      </trkpt>
      <trkpt lat="43.27911" lon="2.28813">
        <ele>161.7</ele>
        <time>2022-04-17T07:44:58.000Z</time>
      </trkpt>
      <trkpt lat="43.27908" lon="2.28813">
        <ele>161.5</ele>
        <time>2022-04-17T07:44:59.000Z</time>
      </trkpt>
      <trkpt lat="43.27905" lon="2.28812">
        <ele>161.3</ele>
        <time>2022-04-17T07:45:00.000Z</time>
      </trkpt>
      <trkpt lat="43.27902" lon="2.28812">
        <ele>161.1</ele>
        <time>2022-04-17T07:45:01.000Z</time>
      </trkpt>
      <trkpt lat="43.27899" lon="2.28811">
        <ele>160.9</ele>
        <time>2022-04-17T07:45:02.000Z</time>
      </trkpt>
      <trkpt lat="43.27896" lon="2.28811">
        <ele>160.8</ele>
        <time>2022-04-17T07:45:03.000Z</time>
      </trkpt>
      <trkpt lat="43.27892" lon="2.2881">
        <ele>160.6</ele>
        <time>2022-04-17T07:45:04.000Z</time>
      </trkpt>
      <trkpt lat="43.27889" lon="2.2881">
        <ele>160.4</ele>
        <time>2022-04-17T07:45:05.000Z</time>
      </trkpt>
      <trkpt lat="43.27887" lon="2.28809">
        <ele>160.3</ele>
        <time>2022-04-17T07:45:06.000Z</time>
      </trkpt>
      <trkpt lat="43.27885" lon="2.28809">
        <ele>160.1</ele>
        <time>2022-04-17T07:45:07.000Z</time>
      </trkpt>
      <trkpt lat="43.27883" lon="2.28809">
        <ele>160.1</ele>
        <time>2022-04-17T07:45:08.000Z</time>
      </trkpt>
      <trkpt lat="43.27882" lon="2.28809">
        <ele>160</ele>
        <time>2022-04-17T07:45:09.000Z</time>
      </trkpt>
      <trkpt lat="43.27882" lon="2.28809">
        <ele>160</ele>
        <time>2022-04-17T07:45:10.000Z</time>
      </trkpt>
      <trkpt lat="43.27881" lon="2.28808">
        <ele>160</ele>
        <time>2022-04-17T07:45:11.000Z</time>
      </trkpt>
      <trkpt lat="43.2788" lon="2.28808">
        <ele>159.9</ele>
        <time>2022-04-17T07:45:12.000Z</time>
      </trkpt>
      <trkpt lat="43.2788" lon="2.28808">
        <ele>159.9</ele>
        <time>2022-04-17T07:45:13.000Z</time>
      </trkpt>
      <trkpt lat="43.27879" lon="2.28808">
        <ele>159.8</ele>
        <time>2022-04-17T07:45:14.000Z</time>
      </trkpt>
      <trkpt lat="43.27879" lon="2.28809">
        <ele>159.8</ele>
        <time>2022-04-17T07:45:15.000Z</time>
      </trkpt>
      <trkpt lat="43.27878" lon="2.28811">
        <ele>159.7</ele>
        <time>2022-04-17T07:45:16.000Z</time>
      </trkpt>
      <trkpt lat="43.27878" lon="2.28813">
        <ele>159.7</ele>
        <time>2022-04-17T07:45:17.000Z</time>
      </trkpt>
      <trkpt lat="43.27878" lon="2.28815">
        <ele>159.7</ele>
        <time>2022-04-17T07:45:18.000Z</time>
      </trkpt>
      <trkpt lat="43.27878" lon="2.28817">
        <ele>159.6</ele>
        <time>2022-04-17T07:45:19.000Z</time>
      </trkpt>
      <trkpt lat="43.27878" lon="2.2882">
        <ele>159.5</ele>
        <time>2022-04-17T07:45:20.000Z</time>
      </trkpt>
      <trkpt lat="43.27877" lon="2.28822">
        <ele>159.4</ele>
        <time>2022-04-17T07:45:21.000Z</time>
      </trkpt>
      <trkpt lat="43.27877" lon="2.28824">
        <ele>159.3</ele>
        <time>2022-04-17T07:45:22.000Z</time>
      </trkpt>
      <trkpt lat="43.27875" lon="2.28826">
        <ele>159.2</ele>
        <time>2022-04-17T07:45:23.000Z</time>
      </trkpt>
      <trkpt lat="43.27874" lon="2.28828">
        <ele>159</ele>
        <time>2022-04-17T07:45:24.000Z</time>
      </trkpt>
      <trkpt lat="43.27872" lon="2.2883">
        <ele>158.9</ele>
        <time>2022-04-17T07:45:25.000Z</time>
      </trkpt>
      <trkpt lat="43.2787" lon="2.28832">
        <ele>158.7</ele>
        <time>2022-04-17T07:45:26.000Z</time>
      </trkpt>
      <trkpt lat="43.27868" lon="2.28834">
        <ele>158.5</ele>
        <time>2022-04-17T07:45:27.000Z</time>
      </trkpt>
      <trkpt lat="43.27866" lon="2.28836">
        <ele>158.3</ele>
        <time>2022-04-17T07:45:28.000Z</time>
      </trkpt>
      <trkpt lat="43.27864" lon="2.28838">
        <ele>158.2</ele>
        <time>2022-04-17T07:45:29.000Z</time>
      </trkpt>
      <trkpt lat="43.27863" lon="2.2884">
        <ele>158</ele>
        <time>2022-04-17T07:45:30.000Z</time>
      </trkpt>
      <trkpt lat="43.27861" lon="2.28843">
        <ele>157.9</ele>
        <time>2022-04-17T07:45:31.000Z</time>
      </trkpt>
      <trkpt lat="43.2786" lon="2.28846">
        <ele>157.8</ele>
        <time>2022-04-17T07:45:32.000Z</time>
      </trkpt>
      <trkpt lat="43.2786" lon="2.28849">
        <ele>157.7</ele>
        <time>2022-04-17T07:45:33.000Z</time>
      </trkpt>
      <trkpt lat="43.2786" lon="2.28852">
        <ele>157.7</ele>
        <time>2022-04-17T07:45:34.000Z</time>
      </trkpt>
      <trkpt lat="43.2786" lon="2.28855">
        <ele>157.7</ele>
        <time>2022-04-17T07:45:35.000Z</time>
      </trkpt>
      <trkpt lat="43.27861" lon="2.28858">
        <ele>157.7</ele>
        <time>2022-04-17T07:45:36.000Z</time>
      </trkpt>
      <trkpt lat="43.27862" lon="2.28861">
        <ele>157.7</ele>
        <time>2022-04-17T07:45:37.000Z</time>
      </trkpt>
      <trkpt lat="43.27864" lon="2.28865">
        <ele>157.8</ele>
        <time>2022-04-17T07:45:38.000Z</time>
      </trkpt>
      <trkpt lat="43.27865" lon="2.28868">
        <ele>157.8</ele>
        <time>2022-04-17T07:45:39.000Z</time>
      </trkpt>
      <trkpt lat="43.27867" lon="2.28872">
        <ele>157.9</ele>
        <time>2022-04-17T07:45:40.000Z</time>
      </trkpt>
      <trkpt lat="43.27869" lon="2.28875">
        <ele>157.9</ele>
        <time>2022-04-17T07:45:41.000Z</time>
      </trkpt>
      <trkpt lat="43.2787" lon="2.28878">
        <ele>157.9</ele>
        <time>2022-04-17T07:45:42.000Z</time>
      </trkpt>
      <trkpt lat="43.27872" lon="2.28882">
        <ele>158</ele>
        <time>2022-04-17T07:45:43.000Z</time>
      </trkpt>
      <trkpt lat="43.27873" lon="2.28885">
        <ele>158</ele>
        <time>2022-04-17T07:45:44.000Z</time>
      </trkpt>
      <trkpt lat="43.27875" lon="2.28888">
        <ele>158</ele>
        <time>2022-04-17T07:45:45.000Z</time>
      </trkpt>
      <trkpt lat="43.27876" lon="2.28891">
        <ele>158</ele>
        <time>2022-04-17T07:45:46.000Z</time>
      </trkpt>
      <trkpt lat="43.27877" lon="2.28895">
        <ele>158</ele>
        <time>2022-04-17T07:45:47.000Z</time>
      </trkpt>
      <trkpt lat="43.27879" lon="2.28898">
        <ele>158</ele>
        <time>2022-04-17T07:45:48.000Z</time>
      </trkpt>
      <trkpt lat="43.2788" lon="2.28901">
        <ele>158</ele>
        <time>2022-04-17T07:45:49.000Z</time>
      </trkpt>
      <trkpt lat="43.27881" lon="2.28904">
        <ele>158</ele>
        <time>2022-04-17T07:45:50.000Z</time>
      </trkpt>
      <trkpt lat="43.27882" lon="2.28907">
        <ele>158</ele>
        <time>2022-04-17T07:45:51.000Z</time>
      </trkpt>
      <trkpt lat="43.27884" lon="2.2891">
        <ele>157.9</ele>
        <time>2022-04-17T07:45:52.000Z</time>
      </trkpt>
      <trkpt lat="43.27885" lon="2.28914">
        <ele>157.9</ele>
        <time>2022-04-17T07:45:53.000Z</time>
      </trkpt>
      <trkpt lat="43.27886" lon="2.28917">
        <ele>157.9</ele>
        <time>2022-04-17T07:45:54.000Z</time>
      </trkpt>
      <trkpt lat="43.27887" lon="2.2892">
        <ele>158.2</ele>
        <time>2022-04-17T07:45:55.000Z</time>
      </trkpt>
      <trkpt lat="43.27888" lon="2.28923">
        <ele>158.5</ele>
        <time>2022-04-17T07:45:56.000Z</time>
      </trkpt>
      <trkpt lat="43.27889" lon="2.28926">
        <ele>158.8</ele>
        <time>2022-04-17T07:45:57.000Z</time>
      </trkpt>
      <trkpt lat="43.2789" lon="2.2893">
        <ele>159.1</ele>
        <time>2022-04-17T07:45:58.000Z</time>
      </trkpt>
      <trkpt lat="43.27891" lon="2.28933">
        <ele>159.4</ele>
        <time>2022-04-17T07:45:59.000Z</time>
      </trkpt>
      <trkpt lat="43.27892" lon="2.28936">
        <ele>159.6</ele>
        <time>2022-04-17T07:46:00.000Z</time>
      </trkpt>
      <trkpt lat="43.27893" lon="2.28939">
        <ele>159.9</ele>
        <time>2022-04-17T07:46:01.000Z</time>
      </trkpt>
      <trkpt lat="43.27894" lon="2.28942">
        <ele>160.2</ele>
        <time>2022-04-17T07:46:02.000Z</time>
      </trkpt>
      <trkpt lat="43.27895" lon="2.28946">
        <ele>160.5</ele>
        <time>2022-04-17T07:46:03.000Z</time>
      </trkpt>
      <trkpt lat="43.27896" lon="2.28949">
        <ele>160.8</ele>
        <time>2022-04-17T07:46:04.000Z</time>
      </trkpt>
      <trkpt lat="43.27897" lon="2.28952">
        <ele>161</ele>
        <time>2022-04-17T07:46:05.000Z</time>
      </trkpt>
      <trkpt lat="43.27897" lon="2.28956">
        <ele>161.3</ele>
        <time>2022-04-17T07:46:06.000Z</time>
      </trkpt>
      <trkpt lat="43.27898" lon="2.28959">
        <ele>161.6</ele>
        <time>2022-04-17T07:46:07.000Z</time>
      </trkpt>
      <trkpt lat="43.27898" lon="2.28962">
        <ele>161.9</ele>
        <time>2022-04-17T07:46:08.000Z</time>
      </trkpt>
      <trkpt lat="43.27899" lon="2.28966">
        <ele>162.1</ele>
        <time>2022-04-17T07:46:09.000Z</time>
      </trkpt>
      <trkpt lat="43.27899" lon="2.28969">
        <ele>162.4</ele>
        <time>2022-04-17T07:46:10.000Z</time>
      </trkpt>
      <trkpt lat="43.279" lon="2.28972">
        <ele>162.7</ele>
        <time>2022-04-17T07:46:11.000Z</time>
      </trkpt>
      <trkpt lat="43.279" lon="2.28976">
        <ele>162.9</ele>
        <time>2022-04-17T07:46:12.000Z</time>
      </trkpt>
      <trkpt lat="43.279" lon="2.28979">
        <ele>163.2</ele>
        <time>2022-04-17T07:46:13.000Z</time>
      </trkpt>
      <trkpt lat="43.279" lon="2.28982">
        <ele>163.4</ele>
        <time>2022-04-17T07:46:14.000Z</time>
      </trkpt>
      <trkpt lat="43.27901" lon="2.28986">
        <ele>163.7</ele>
        <time>2022-04-17T07:46:15.000Z</time>
      </trkpt>
      <trkpt lat="43.27901" lon="2.28989">
        <ele>163.9</ele>
        <time>2022-04-17T07:46:16.000Z</time>
      </trkpt>
      <trkpt lat="43.27901" lon="2.28992">
        <ele>164.2</ele>
        <time>2022-04-17T07:46:17.000Z</time>
      </trkpt>
      <trkpt lat="43.27901" lon="2.28996">
        <ele>164.5</ele>
        <time>2022-04-17T07:46:18.000Z</time>
      </trkpt>
      <trkpt lat="43.27901" lon="2.28999">
        <ele>164.7</ele>
        <time>2022-04-17T07:46:19.000Z</time>
      </trkpt>
      <trkpt lat="43.27901" lon="2.29002">
        <ele>164.9</ele>
        <time>2022-04-17T07:46:20.000Z</time>
      </trkpt>
      <trkpt lat="43.27901" lon="2.29005">
        <ele>165</ele>
        <time>2022-04-17T07:46:21.000Z</time>
      </trkpt>
      <trkpt lat="43.27901" lon="2.29009">
        <ele>165.2</ele>
        <time>2022-04-17T07:46:22.000Z</time>
      </trkpt>
      <trkpt lat="43.279" lon="2.29012">
        <ele>165.3</ele>
        <time>2022-04-17T07:46:23.000Z</time>
      </trkpt>
      <trkpt lat="43.279" lon="2.29015">
        <ele>165.5</ele>
        <time>2022-04-17T07:46:24.000Z</time>
      </trkpt>
      <trkpt lat="43.279" lon="2.29018">
        <ele>165.6</ele>
        <time>2022-04-17T07:46:25.000Z</time>
      </trkpt>
      <trkpt lat="43.279" lon="2.29022">
        <ele>165.8</ele>
        <time>2022-04-17T07:46:26.000Z</time>
      </trkpt>
      <trkpt lat="43.279" lon="2.29025">
        <ele>165.9</ele>
        <time>2022-04-17T07:46:27.000Z</time>
      </trkpt>
      <trkpt lat="43.27901" lon="2.29028">
        <ele>166.1</ele>
        <time>2022-04-17T07:46:28.000Z</time>
      </trkpt>
      <trkpt lat="43.27901" lon="2.29031">
        <ele>166.2</ele>
        <time>2022-04-17T07:46:29.000Z</time>
      </trkpt>
      <trkpt lat="43.27901" lon="2.29034">
        <ele>166.4</ele>
        <time>2022-04-17T07:46:30.000Z</time>
      </trkpt>
      <trkpt lat="43.27901" lon="2.29038">
        <ele>166.5</ele>
        <time>2022-04-17T07:46:31.000Z</time>
      </trkpt>
      <trkpt lat="43.27901" lon="2.29041">
        <ele>166.7</ele>
        <time>2022-04-17T07:46:32.000Z</time>
      </trkpt>
      <trkpt lat="43.27901" lon="2.29044">
        <ele>166.8</ele>
        <time>2022-04-17T07:46:33.000Z</time>
      </trkpt>
      <trkpt lat="43.27901" lon="2.29048">
        <ele>167</ele>
        <time>2022-04-17T07:46:34.000Z</time>
      </trkpt>
      <trkpt lat="43.27901" lon="2.29051">
        <ele>167.1</ele>
        <time>2022-04-17T07:46:35.000Z</time>
      </trkpt>
      <trkpt lat="43.27901" lon="2.29054">
        <ele>167.3</ele>
        <time>2022-04-17T07:46:36.000Z</time>
      </trkpt>
      <trkpt lat="43.279" lon="2.29058">
        <ele>167.4</ele>
        <time>2022-04-17T07:46:37.000Z</time>
      </trkpt>
      <trkpt lat="43.279" lon="2.29061">
        <ele>167.6</ele>
        <time>2022-04-17T07:46:38.000Z</time>
      </trkpt>
      <trkpt lat="43.279" lon="2.29065">
        <ele>167.7</ele>
        <time>2022-04-17T07:46:39.000Z</time>
      </trkpt>
      <trkpt lat="43.27899" lon="2.29068">
        <ele>167.9</ele>
        <time>2022-04-17T07:46:40.000Z</time>
      </trkpt>
      <trkpt lat="43.27899" lon="2.29071">
        <ele>168</ele>
        <time>2022-04-17T07:46:41.000Z</time>
      </trkpt>
      <trkpt lat="43.27898" lon="2.29075">
        <ele>168.2</ele>
        <time>2022-04-17T07:46:42.000Z</time>
      </trkpt>
      <trkpt lat="43.27898" lon="2.29078">
        <ele>168.3</ele>
        <time>2022-04-17T07:46:43.000Z</time>
      </trkpt>
      <trkpt lat="43.27898" lon="2.29082">
        <ele>168.5</ele>
        <time>2022-04-17T07:46:44.000Z</time>
      </trkpt>
      <trkpt lat="43.27898" lon="2.29086">
        <ele>168.6</ele>
        <time>2022-04-17T07:46:45.000Z</time>
      </trkpt>
      <trkpt lat="43.27897" lon="2.29089">
        <ele>168.6</ele>
        <time>2022-04-17T07:46:46.000Z</time>
      </trkpt>
      <trkpt lat="43.27897" lon="2.29093">
        <ele>168.7</ele>
        <time>2022-04-17T07:46:47.000Z</time>
      </trkpt>
      <trkpt lat="43.27897" lon="2.29096">
        <ele>168.7</ele>
        <time>2022-04-17T07:46:48.000Z</time>
      </trkpt>
      <trkpt lat="43.27897" lon="2.291">
        <ele>168.8</ele>
        <time>2022-04-17T07:46:49.000Z</time>
      </trkpt>
      <trkpt lat="43.27897" lon="2.29103">
        <ele>168.8</ele>
        <time>2022-04-17T07:46:50.000Z</time>
      </trkpt>
      <trkpt lat="43.27898" lon="2.29107">
        <ele>168.9</ele>
        <time>2022-04-17T07:46:51.000Z</time>
      </trkpt>
      <trkpt lat="43.27898" lon="2.2911">
        <ele>168.9</ele>
        <time>2022-04-17T07:46:52.000Z</time>
      </trkpt>
      <trkpt lat="43.27898" lon="2.29113">
        <ele>169</ele>
        <time>2022-04-17T07:46:53.000Z</time>
      </trkpt>
      <trkpt lat="43.27899" lon="2.29117">
        <ele>169.1</ele>
        <time>2022-04-17T07:46:54.000Z</time>
      </trkpt>
      <trkpt lat="43.27899" lon="2.2912">
        <ele>169.1</ele>
        <time>2022-04-17T07:46:55.000Z</time>
      </trkpt>
      <trkpt lat="43.279" lon="2.29124">
        <ele>169.2</ele>
        <time>2022-04-17T07:46:56.000Z</time>
      </trkpt>
      <trkpt lat="43.27901" lon="2.29127">
        <ele>169.2</ele>
        <time>2022-04-17T07:46:57.000Z</time>
      </trkpt>
      <trkpt lat="43.27902" lon="2.2913">
        <ele>169.3</ele>
        <time>2022-04-17T07:46:58.000Z</time>
      </trkpt>
      <trkpt lat="43.27903" lon="2.29133">
        <ele>169.4</ele>
        <time>2022-04-17T07:46:59.000Z</time>
      </trkpt>
      <trkpt lat="43.27904" lon="2.29137">
        <ele>169.4</ele>
        <time>2022-04-17T07:47:00.000Z</time>
      </trkpt>
      <trkpt lat="43.27905" lon="2.2914">
        <ele>169.5</ele>
        <time>2022-04-17T07:47:01.000Z</time>
      </trkpt>
      <trkpt lat="43.27906" lon="2.29143">
        <ele>169.5</ele>
        <time>2022-04-17T07:47:02.000Z</time>
      </trkpt>
      <trkpt lat="43.27907" lon="2.29146">
        <ele>169.6</ele>
        <time>2022-04-17T07:47:03.000Z</time>
      </trkpt>
      <trkpt lat="43.27909" lon="2.29149">
        <ele>169.7</ele>
        <time>2022-04-17T07:47:04.000Z</time>
      </trkpt>
      <trkpt lat="43.2791" lon="2.29152">
        <ele>169.7</ele>
        <time>2022-04-17T07:47:05.000Z</time>
      </trkpt>
      <trkpt lat="43.27911" lon="2.29154">
        <ele>169.8</ele>
        <time>2022-04-17T07:47:06.000Z</time>
      </trkpt>
      <trkpt lat="43.27912" lon="2.29157">
        <ele>169.8</ele>
        <time>2022-04-17T07:47:07.000Z</time>
      </trkpt>
      <trkpt lat="43.27914" lon="2.2916">
        <ele>169.9</ele>
        <time>2022-04-17T07:47:08.000Z</time>
      </trkpt>
      <trkpt lat="43.27915" lon="2.29162">
        <ele>169.9</ele>
        <time>2022-04-17T07:47:09.000Z</time>
      </trkpt>
      <trkpt lat="43.27916" lon="2.29165">
        <ele>170</ele>
        <time>2022-04-17T07:47:10.000Z</time>
      </trkpt>
      <trkpt lat="43.27917" lon="2.29167">
        <ele>170.1</ele>
        <time>2022-04-17T07:47:11.000Z</time>
      </trkpt>
      <trkpt lat="43.27918" lon="2.29169">
        <ele>170.2</ele>
        <time>2022-04-17T07:47:12.000Z</time>
      </trkpt>
      <trkpt lat="43.27919" lon="2.29172">
        <ele>170.4</ele>
        <time>2022-04-17T07:47:13.000Z</time>
      </trkpt>
      <trkpt lat="43.2792" lon="2.29174">
        <ele>170.6</ele>
        <time>2022-04-17T07:47:14.000Z</time>
      </trkpt>
      <trkpt lat="43.2792" lon="2.29175">
        <ele>170.7</ele>
        <time>2022-04-17T07:47:15.000Z</time>
      </trkpt>
      <trkpt lat="43.27921" lon="2.29177">
        <ele>170.8</ele>
        <time>2022-04-17T07:47:16.000Z</time>
      </trkpt>
      <trkpt lat="43.27921" lon="2.29177">
        <ele>170.9</ele>
        <time>2022-04-17T07:47:17.000Z</time>
      </trkpt>
      <trkpt lat="43.27921" lon="2.29178">
        <ele>170.9</ele>
        <time>2022-04-17T07:47:18.000Z</time>
      </trkpt>
      <trkpt lat="43.27921" lon="2.29178">
        <ele>170.9</ele>
        <time>2022-04-17T07:47:19.000Z</time>
      </trkpt>
      <trkpt lat="43.27921" lon="2.29178">
        <ele>170.9</ele>
        <time>2022-04-17T07:47:20.000Z</time>
      </trkpt>
      <trkpt lat="43.27921" lon="2.29179">
        <ele>170.9</ele>
        <time>2022-04-17T07:47:21.000Z</time>
      </trkpt>
      <trkpt lat="43.27921" lon="2.29179">
        <ele>170.9</ele>
        <time>2022-04-17T07:47:22.000Z</time>
      </trkpt>
      <trkpt lat="43.27921" lon="2.29179">
        <ele>170.9</ele>
        <time>2022-04-17T07:47:23.000Z</time>
      </trkpt>
      <trkpt lat="43.27922" lon="2.2918">
        <ele>171</ele>
        <time>2022-04-17T07:47:24.000Z</time>
      </trkpt>
      <trkpt lat="43.27922" lon="2.29181">
        <ele>171.1</ele>
        <time>2022-04-17T07:47:25.000Z</time>
      </trkpt>
      <trkpt lat="43.27923" lon="2.29182">
        <ele>171.2</ele>
        <time>2022-04-17T07:47:26.000Z</time>
      </trkpt>
      <trkpt lat="43.27924" lon="2.29184">
        <ele>171.3</ele>
        <time>2022-04-17T07:47:27.000Z</time>
      </trkpt>
      <trkpt lat="43.27925" lon="2.29186">
        <ele>171.5</ele>
        <time>2022-04-17T07:47:28.000Z</time>
      </trkpt>
      <trkpt lat="43.27926" lon="2.29189">
        <ele>171.7</ele>
        <time>2022-04-17T07:47:29.000Z</time>
      </trkpt>
      <trkpt lat="43.27927" lon="2.29192">
        <ele>172</ele>
        <time>2022-04-17T07:47:30.000Z</time>
      </trkpt>
      <trkpt lat="43.27928" lon="2.29195">
        <ele>172.2</ele>
        <time>2022-04-17T07:47:31.000Z</time>
      </trkpt>
      <trkpt lat="43.27929" lon="2.29199">
        <ele>172.4</ele>
        <time>2022-04-17T07:47:32.000Z</time>
      </trkpt>
      <trkpt lat="43.2793" lon="2.29202">
        <ele>172.5</ele>
        <time>2022-04-17T07:47:33.000Z</time>
      </trkpt>
      <trkpt lat="43.2793" lon="2.29206">
        <ele>172.7</ele>
        <time>2022-04-17T07:47:34.000Z</time>
      </trkpt>
      <trkpt lat="43.2793" lon="2.2921">
        <ele>172.9</ele>
        <time>2022-04-17T07:47:35.000Z</time>
      </trkpt>
      <trkpt lat="43.27931" lon="2.29214">
        <ele>173</ele>
        <time>2022-04-17T07:47:36.000Z</time>
      </trkpt>
      <trkpt lat="43.27931" lon="2.29218">
        <ele>173.1</ele>
        <time>2022-04-17T07:47:37.000Z</time>
      </trkpt>
      <trkpt lat="43.27931" lon="2.29222">
        <ele>173.3</ele>
        <time>2022-04-17T07:47:38.000Z</time>
      </trkpt>
      <trkpt lat="43.27932" lon="2.29225">
        <ele>173.5</ele>
        <time>2022-04-17T07:47:39.000Z</time>
      </trkpt>
      <trkpt lat="43.27932" lon="2.29229">
        <ele>173.7</ele>
        <time>2022-04-17T07:47:40.000Z</time>
      </trkpt>
      <trkpt lat="43.27933" lon="2.29232">
        <ele>173.8</ele>
        <time>2022-04-17T07:47:41.000Z</time>
      </trkpt>
      <trkpt lat="43.27934" lon="2.29236">
        <ele>174</ele>
        <time>2022-04-17T07:47:42.000Z</time>
      </trkpt>
      <trkpt lat="43.27935" lon="2.29239">
        <ele>174.2</ele>
        <time>2022-04-17T07:47:43.000Z</time>
      </trkpt>
      <trkpt lat="43.27937" lon="2.29242">
        <ele>174.4</ele>
        <time>2022-04-17T07:47:44.000Z</time>
      </trkpt>
      <trkpt lat="43.27938" lon="2.29246">
        <ele>174.6</ele>
        <time>2022-04-17T07:47:45.000Z</time>
      </trkpt>
      <trkpt lat="43.27939" lon="2.29249">
        <ele>174.8</ele>
        <time>2022-04-17T07:47:46.000Z</time>
      </trkpt>
      <trkpt lat="43.2794" lon="2.29252">
        <ele>175</ele>
        <time>2022-04-17T07:47:47.000Z</time>
      </trkpt>
      <trkpt lat="43.27941" lon="2.29255">
        <ele>175.2</ele>
        <time>2022-04-17T07:47:48.000Z</time>
      </trkpt>
      <trkpt lat="43.27943" lon="2.29259">
        <ele>175.4</ele>
        <time>2022-04-17T07:47:49.000Z</time>
      </trkpt>
      <trkpt lat="43.27944" lon="2.29262">
        <ele>175.6</ele>
        <time>2022-04-17T07:47:50.000Z</time>
      </trkpt>
      <trkpt lat="43.27945" lon="2.29266">
        <ele>175.9</ele>
        <time>2022-04-17T07:47:51.000Z</time>
      </trkpt>
      <trkpt lat="43.27946" lon="2.29269">
        <ele>176</ele>
        <time>2022-04-17T07:47:52.000Z</time>
      </trkpt>
      <trkpt lat="43.27947" lon="2.29273">
        <ele>176.2</ele>
        <time>2022-04-17T07:47:53.000Z</time>
      </trkpt>
      <trkpt lat="43.27947" lon="2.29276">
        <ele>176.4</ele>
        <time>2022-04-17T07:47:54.000Z</time>
      </trkpt>
      <trkpt lat="43.27948" lon="2.2928">
        <ele>176.6</ele>
        <time>2022-04-17T07:47:55.000Z</time>
      </trkpt>
      <trkpt lat="43.27949" lon="2.29284">
        <ele>176.8</ele>
        <time>2022-04-17T07:47:56.000Z</time>
      </trkpt>
      <trkpt lat="43.2795" lon="2.29287">
        <ele>176.9</ele>
        <time>2022-04-17T07:47:57.000Z</time>
      </trkpt>
      <trkpt lat="43.27951" lon="2.29291">
        <ele>177.1</ele>
        <time>2022-04-17T07:47:58.000Z</time>
      </trkpt>
      <trkpt lat="43.27952" lon="2.29294">
        <ele>177.3</ele>
        <time>2022-04-17T07:47:59.000Z</time>
      </trkpt>
      <trkpt lat="43.27953" lon="2.29298">
        <ele>177.5</ele>
        <time>2022-04-17T07:48:00.000Z</time>
      </trkpt>
      <trkpt lat="43.27954" lon="2.29301">
        <ele>177.7</ele>
        <time>2022-04-17T07:48:01.000Z</time>
      </trkpt>
      <trkpt lat="43.27955" lon="2.29304">
        <ele>177.9</ele>
        <time>2022-04-17T07:48:02.000Z</time>
      </trkpt>
      <trkpt lat="43.27956" lon="2.29307">
        <ele>178.1</ele>
        <time>2022-04-17T07:48:03.000Z</time>
      </trkpt>
      <trkpt lat="43.27957" lon="2.29311">
        <ele>178.2</ele>
        <time>2022-04-17T07:48:04.000Z</time>
      </trkpt>
      <trkpt lat="43.27958" lon="2.29314">
        <ele>178.4</ele>
        <time>2022-04-17T07:48:05.000Z</time>
      </trkpt>
      <trkpt lat="43.27959" lon="2.29318">
        <ele>178.6</ele>
        <time>2022-04-17T07:48:06.000Z</time>
      </trkpt>
      <trkpt lat="43.27959" lon="2.29321">
        <ele>178.7</ele>
        <time>2022-04-17T07:48:07.000Z</time>
      </trkpt>
      <trkpt lat="43.2796" lon="2.29325">
        <ele>178.8</ele>
        <time>2022-04-17T07:48:08.000Z</time>
      </trkpt>
      <trkpt lat="43.2796" lon="2.29327">
        <ele>179</ele>
        <time>2022-04-17T07:48:09.000Z</time>
      </trkpt>
      <trkpt lat="43.27961" lon="2.2933">
        <ele>179.1</ele>
        <time>2022-04-17T07:48:10.000Z</time>
      </trkpt>
      <trkpt lat="43.27961" lon="2.29331">
        <ele>179.1</ele>
        <time>2022-04-17T07:48:11.000Z</time>
      </trkpt>
      <trkpt lat="43.27962" lon="2.29332">
        <ele>179.2</ele>
        <time>2022-04-17T07:48:12.000Z</time>
      </trkpt>
      <trkpt lat="43.27962" lon="2.29333">
        <ele>179.2</ele>
        <time>2022-04-17T07:48:13.000Z</time>
      </trkpt>
      <trkpt lat="43.27962" lon="2.29333">
        <ele>179.3</ele>
        <time>2022-04-17T07:48:14.000Z</time>
      </trkpt>
      <trkpt lat="43.27963" lon="2.29332">
        <ele>179.3</ele>
        <time>2022-04-17T07:48:15.000Z</time>
      </trkpt>
      <trkpt lat="43.27963" lon="2.29331">
        <ele>179.3</ele>
        <time>2022-04-17T07:48:16.000Z</time>
      </trkpt>
      <trkpt lat="43.27963" lon="2.2933">
        <ele>179.2</ele>
        <time>2022-04-17T07:48:17.000Z</time>
      </trkpt>
      <trkpt lat="43.27963" lon="2.29329">
        <ele>179.2</ele>
        <time>2022-04-17T07:48:18.000Z</time>
      </trkpt>
      <trkpt lat="43.27963" lon="2.29327">
        <ele>179.1</ele>
        <time>2022-04-17T07:48:19.000Z</time>
      </trkpt>
      <trkpt lat="43.27962" lon="2.29326">
        <ele>179.1</ele>
        <time>2022-04-17T07:48:20.000Z</time>
      </trkpt>
      <trkpt lat="43.27962" lon="2.29325">
        <ele>179</ele>
        <time>2022-04-17T07:48:21.000Z</time>
      </trkpt>
      <trkpt lat="43.27961" lon="2.29323">
        <ele>178.9</ele>
        <time>2022-04-17T07:48:22.000Z</time>
      </trkpt>
      <trkpt lat="43.27961" lon="2.29322">
        <ele>178.8</ele>
        <time>2022-04-17T07:48:23.000Z</time>
      </trkpt>
      <trkpt lat="43.2796" lon="2.2932">
        <ele>178.7</ele>
        <time>2022-04-17T07:48:24.000Z</time>
      </trkpt>
      <trkpt lat="43.27959" lon="2.29318">
        <ele>178.6</ele>
        <time>2022-04-17T07:48:25.000Z</time>
      </trkpt>
      <trkpt lat="43.27958" lon="2.29316">
        <ele>178.5</ele>
        <time>2022-04-17T07:48:26.000Z</time>
      </trkpt>
      <trkpt lat="43.27957" lon="2.29313">
        <ele>178.3</ele>
        <time>2022-04-17T07:48:27.000Z</time>
      </trkpt>
      <trkpt lat="43.27956" lon="2.2931">
        <ele>178.2</ele>
        <time>2022-04-17T07:48:28.000Z</time>
      </trkpt>
      <trkpt lat="43.27955" lon="2.29307">
        <ele>178</ele>
        <time>2022-04-17T07:48:29.000Z</time>
      </trkpt>
      <trkpt lat="43.27954" lon="2.29304">
        <ele>177.8</ele>
        <time>2022-04-17T07:48:30.000Z</time>
      </trkpt>
      <trkpt lat="43.27953" lon="2.293">
        <ele>177.6</ele>
        <time>2022-04-17T07:48:31.000Z</time>
      </trkpt>
      <trkpt lat="43.27952" lon="2.29297">
        <ele>177.4</ele>
        <time>2022-04-17T07:48:32.000Z</time>
      </trkpt>
      <trkpt lat="43.27951" lon="2.29293">
        <ele>177.2</ele>
        <time>2022-04-17T07:48:33.000Z</time>
      </trkpt>
      <trkpt lat="43.2795" lon="2.29289">
        <ele>177</ele>
        <time>2022-04-17T07:48:34.000Z</time>
      </trkpt>
      <trkpt lat="43.27949" lon="2.29285">
        <ele>176.8</ele>
        <time>2022-04-17T07:48:35.000Z</time>
      </trkpt>
      <trkpt lat="43.27948" lon="2.29281">
        <ele>176.6</ele>
        <time>2022-04-17T07:48:36.000Z</time>
      </trkpt>
      <trkpt lat="43.27947" lon="2.29278">
        <ele>176.4</ele>
        <time>2022-04-17T07:48:37.000Z</time>
      </trkpt>
      <trkpt lat="43.27946" lon="2.29273">
        <ele>176.2</ele>
        <time>2022-04-17T07:48:38.000Z</time>
      </trkpt>
      <trkpt lat="43.27944" lon="2.29269">
        <ele>176</ele>
        <time>2022-04-17T07:48:39.000Z</time>
      </trkpt>
      <trkpt lat="43.27943" lon="2.29265">
        <ele>175.7</ele>
        <time>2022-04-17T07:48:40.000Z</time>
      </trkpt>
      <trkpt lat="43.27942" lon="2.29261">
        <ele>175.5</ele>
        <time>2022-04-17T07:48:41.000Z</time>
      </trkpt>
      <trkpt lat="43.27941" lon="2.29257">
        <ele>175.2</ele>
        <time>2022-04-17T07:48:42.000Z</time>
      </trkpt>
      <trkpt lat="43.27939" lon="2.29253">
        <ele>175</ele>
        <time>2022-04-17T07:48:43.000Z</time>
      </trkpt>
      <trkpt lat="43.27938" lon="2.29249">
        <ele>174.8</ele>
        <time>2022-04-17T07:48:44.000Z</time>
      </trkpt>
      <trkpt lat="43.27937" lon="2.29245">
        <ele>174.5</ele>
        <time>2022-04-17T07:48:45.000Z</time>
      </trkpt>
      <trkpt lat="43.27935" lon="2.29241">
        <ele>174.3</ele>
        <time>2022-04-17T07:48:46.000Z</time>
      </trkpt>
      <trkpt lat="43.27934" lon="2.29237">
        <ele>174.1</ele>
        <time>2022-04-17T07:48:47.000Z</time>
      </trkpt>
      <trkpt lat="43.27933" lon="2.29233">
        <ele>173.8</ele>
        <time>2022-04-17T07:48:48.000Z</time>
      </trkpt>
      <trkpt lat="43.27932" lon="2.29229">
        <ele>173.6</ele>
        <time>2022-04-17T07:48:49.000Z</time>
      </trkpt>
      <trkpt lat="43.2793" lon="2.29225">
        <ele>173.3</ele>
        <time>2022-04-17T07:48:50.000Z</time>
      </trkpt>
      <trkpt lat="43.27929" lon="2.29221">
        <ele>173.1</ele>
        <time>2022-04-17T07:48:51.000Z</time>
      </trkpt>
      <trkpt lat="43.27928" lon="2.29216">
        <ele>172.9</ele>
        <time>2022-04-17T07:48:52.000Z</time>
      </trkpt>
      <trkpt lat="43.27927" lon="2.29212">
        <ele>172.6</ele>
        <time>2022-04-17T07:48:53.000Z</time>
      </trkpt>
      <trkpt lat="43.27926" lon="2.29208">
        <ele>172.4</ele>
        <time>2022-04-17T07:48:54.000Z</time>
      </trkpt>
      <trkpt lat="43.27925" lon="2.29204">
        <ele>172.2</ele>
        <time>2022-04-17T07:48:55.000Z</time>
      </trkpt>
      <trkpt lat="43.27924" lon="2.29201">
        <ele>171.9</ele>
        <time>2022-04-17T07:48:56.000Z</time>
      </trkpt>
      <trkpt lat="43.27922" lon="2.29198">
        <ele>171.7</ele>
        <time>2022-04-17T07:48:57.000Z</time>
      </trkpt>
      <trkpt lat="43.2792" lon="2.29195">
        <ele>171.4</ele>
        <time>2022-04-17T07:48:58.000Z</time>
      </trkpt>
      <trkpt lat="43.27918" lon="2.29192">
        <ele>171.1</ele>
        <time>2022-04-17T07:48:59.000Z</time>
      </trkpt>
      <trkpt lat="43.27916" lon="2.2919">
        <ele>170.8</ele>
        <time>2022-04-17T07:49:00.000Z</time>
      </trkpt>
      <trkpt lat="43.27914" lon="2.29188">
        <ele>170.7</ele>
        <time>2022-04-17T07:49:01.000Z</time>
      </trkpt>
      <trkpt lat="43.27911" lon="2.29187">
        <ele>170.7</ele>
        <time>2022-04-17T07:49:02.000Z</time>
      </trkpt>
      <trkpt lat="43.27908" lon="2.29185">
        <ele>170.6</ele>
        <time>2022-04-17T07:49:03.000Z</time>
      </trkpt>
      <trkpt lat="43.27905" lon="2.29184">
        <ele>170.5</ele>
        <time>2022-04-17T07:49:04.000Z</time>
      </trkpt>
      <trkpt lat="43.27902" lon="2.29183">
        <ele>170.4</ele>
        <time>2022-04-17T07:49:05.000Z</time>
      </trkpt>
      <trkpt lat="43.27899" lon="2.29182">
        <ele>170.4</ele>
        <time>2022-04-17T07:49:06.000Z</time>
      </trkpt>
      <trkpt lat="43.27897" lon="2.29181">
        <ele>170.3</ele>
        <time>2022-04-17T07:49:07.000Z</time>
      </trkpt>
      <trkpt lat="43.27894" lon="2.2918">
        <ele>170.3</ele>
        <time>2022-04-17T07:49:08.000Z</time>
      </trkpt>
      <trkpt lat="43.27891" lon="2.2918">
        <ele>170.2</ele>
        <time>2022-04-17T07:49:09.000Z</time>
      </trkpt>
      <trkpt lat="43.27887" lon="2.2918">
        <ele>170.2</ele>
        <time>2022-04-17T07:49:10.000Z</time>
      </trkpt>
      <trkpt lat="43.27884" lon="2.2918">
        <ele>170.1</ele>
        <time>2022-04-17T07:49:11.000Z</time>
      </trkpt>
      <trkpt lat="43.27881" lon="2.2918">
        <ele>170.1</ele>
        <time>2022-04-17T07:49:12.000Z</time>
      </trkpt>
      <trkpt lat="43.27878" lon="2.29181">
        <ele>170.1</ele>
        <time>2022-04-17T07:49:13.000Z</time>
      </trkpt>
      <trkpt lat="43.27875" lon="2.29182">
        <ele>170.1</ele>
        <time>2022-04-17T07:49:14.000Z</time>
      </trkpt>
      <trkpt lat="43.27871" lon="2.29183">
        <ele>170.2</ele>
        <time>2022-04-17T07:49:15.000Z</time>
      </trkpt>
      <trkpt lat="43.27868" lon="2.29184">
        <ele>170.2</ele>
        <time>2022-04-17T07:49:16.000Z</time>
      </trkpt>
      <trkpt lat="43.27865" lon="2.29185">
        <ele>170.2</ele>
        <time>2022-04-17T07:49:17.000Z</time>
      </trkpt>
      <trkpt lat="43.27861" lon="2.29185">
        <ele>170.1</ele>
        <time>2022-04-17T07:49:18.000Z</time>
      </trkpt>
      <trkpt lat="43.27858" lon="2.29184">
        <ele>170</ele>
        <time>2022-04-17T07:49:19.000Z</time>
      </trkpt>
      <trkpt lat="43.27855" lon="2.29182">
        <ele>169.9</ele>
        <time>2022-04-17T07:49:20.000Z</time>
      </trkpt>
      <trkpt lat="43.27852" lon="2.2918">
        <ele>169.8</ele>
        <time>2022-04-17T07:49:21.000Z</time>
      </trkpt>
      <trkpt lat="43.2785" lon="2.29177">
        <ele>169.7</ele>
        <time>2022-04-17T07:49:22.000Z</time>
      </trkpt>
      <trkpt lat="43.27847" lon="2.29175">
        <ele>169.5</ele>
        <time>2022-04-17T07:49:23.000Z</time>
      </trkpt>
      <trkpt lat="43.27845" lon="2.29172">
        <ele>169.4</ele>
        <time>2022-04-17T07:49:24.000Z</time>
      </trkpt>
      <trkpt lat="43.27843" lon="2.2917">
        <ele>169.3</ele>
        <time>2022-04-17T07:49:25.000Z</time>
      </trkpt>
      <trkpt lat="43.27841" lon="2.29168">
        <ele>169.1</ele>
        <time>2022-04-17T07:49:26.000Z</time>
      </trkpt>
      <trkpt lat="43.27839" lon="2.29165">
        <ele>169</ele>
        <time>2022-04-17T07:49:27.000Z</time>
      </trkpt>
      <trkpt lat="43.27837" lon="2.29163">
        <ele>169</ele>
        <time>2022-04-17T07:49:28.000Z</time>
      </trkpt>
      <trkpt lat="43.27836" lon="2.29162">
        <ele>168.9</ele>
        <time>2022-04-17T07:49:29.000Z</time>
      </trkpt>
      <trkpt lat="43.27834" lon="2.2916">
        <ele>168.8</ele>
        <time>2022-04-17T07:49:30.000Z</time>
      </trkpt>
      <trkpt lat="43.27832" lon="2.29158">
        <ele>168.7</ele>
        <time>2022-04-17T07:49:31.000Z</time>
      </trkpt>
      <trkpt lat="43.2783" lon="2.29156">
        <ele>168.6</ele>
        <time>2022-04-17T07:49:32.000Z</time>
      </trkpt>
      <trkpt lat="43.27827" lon="2.29155">
        <ele>168.4</ele>
        <time>2022-04-17T07:49:33.000Z</time>
      </trkpt>
      <trkpt lat="43.27825" lon="2.29153">
        <ele>168.3</ele>
        <time>2022-04-17T07:49:34.000Z</time>
      </trkpt>
      <trkpt lat="43.27823" lon="2.29152">
        <ele>168.2</ele>
        <time>2022-04-17T07:49:35.000Z</time>
      </trkpt>
      <trkpt lat="43.27821" lon="2.29151">
        <ele>168</ele>
        <time>2022-04-17T07:49:36.000Z</time>
      </trkpt>
      <trkpt lat="43.27819" lon="2.29149">
        <ele>167.9</ele>
        <time>2022-04-17T07:49:37.000Z</time>
      </trkpt>
      <trkpt lat="43.27817" lon="2.29148">
        <ele>167.8</ele>
        <time>2022-04-17T07:49:38.000Z</time>
      </trkpt>
      <trkpt lat="43.27815" lon="2.29147">
        <ele>167.6</ele>
        <time>2022-04-17T07:49:39.000Z</time>
      </trkpt>
      <trkpt lat="43.27813" lon="2.29146">
        <ele>167.5</ele>
        <time>2022-04-17T07:49:40.000Z</time>
      </trkpt>
      <trkpt lat="43.27811" lon="2.29145">
        <ele>167.4</ele>
        <time>2022-04-17T07:49:41.000Z</time>
      </trkpt>
      <trkpt lat="43.27809" lon="2.29144">
        <ele>167.3</ele>
        <time>2022-04-17T07:49:42.000Z</time>
      </trkpt>
      <trkpt lat="43.27807" lon="2.29142">
        <ele>167.2</ele>
        <time>2022-04-17T07:49:43.000Z</time>
      </trkpt>
      <trkpt lat="43.27805" lon="2.29141">
        <ele>167</ele>
        <time>2022-04-17T07:49:44.000Z</time>
      </trkpt>
      <trkpt lat="43.27803" lon="2.2914">
        <ele>166.9</ele>
        <time>2022-04-17T07:49:45.000Z</time>
      </trkpt>
      <trkpt lat="43.27801" lon="2.29139">
        <ele>166.8</ele>
        <time>2022-04-17T07:49:46.000Z</time>
      </trkpt>
      <trkpt lat="43.27799" lon="2.29138">
        <ele>166.7</ele>
        <time>2022-04-17T07:49:47.000Z</time>
      </trkpt>
      <trkpt lat="43.27797" lon="2.29137">
        <ele>166.5</ele>
        <time>2022-04-17T07:49:48.000Z</time>
      </trkpt>
      <trkpt lat="43.27795" lon="2.29135">
        <ele>166.4</ele>
        <time>2022-04-17T07:49:49.000Z</time>
      </trkpt>
      <trkpt lat="43.27793" lon="2.29134">
        <ele>166.3</ele>
        <time>2022-04-17T07:49:50.000Z</time>
      </trkpt>
      <trkpt lat="43.27791" lon="2.29133">
        <ele>166.2</ele>
        <time>2022-04-17T07:49:51.000Z</time>
      </trkpt>
      <trkpt lat="43.27789" lon="2.29131">
        <ele>166</ele>
        <time>2022-04-17T07:49:52.000Z</time>
      </trkpt>
      <trkpt lat="43.27787" lon="2.2913">
        <ele>165.9</ele>
        <time>2022-04-17T07:49:53.000Z</time>
      </trkpt>
      <trkpt lat="43.27785" lon="2.29128">
        <ele>165.8</ele>
        <time>2022-04-17T07:49:54.000Z</time>
      </trkpt>
      <trkpt lat="43.27783" lon="2.29127">
        <ele>165.6</ele>
        <time>2022-04-17T07:49:55.000Z</time>
      </trkpt>
      <trkpt lat="43.2778" lon="2.29126">
        <ele>165.5</ele>
        <time>2022-04-17T07:49:56.000Z</time>
      </trkpt>
      <trkpt lat="43.27778" lon="2.29124">
        <ele>165.3</ele>
        <time>2022-04-17T07:49:57.000Z</time>
      </trkpt>
      <trkpt lat="43.27776" lon="2.29123">
        <ele>165.2</ele>
        <time>2022-04-17T07:49:58.000Z</time>
      </trkpt>
      <trkpt lat="43.27773" lon="2.29121">
        <ele>165</ele>
        <time>2022-04-17T07:49:59.000Z</time>
      </trkpt>
      <trkpt lat="43.27771" lon="2.2912">
        <ele>164.9</ele>
        <time>2022-04-17T07:50:00.000Z</time>
      </trkpt>
      <trkpt lat="43.27769" lon="2.29119">
        <ele>164.7</ele>
        <time>2022-04-17T07:50:01.000Z</time>
      </trkpt>
      <trkpt lat="43.27766" lon="2.29117">
        <ele>164.6</ele>
        <time>2022-04-17T07:50:02.000Z</time>
      </trkpt>
      <trkpt lat="43.27764" lon="2.29116">
        <ele>164.4</ele>
        <time>2022-04-17T07:50:03.000Z</time>
      </trkpt>
      <trkpt lat="43.27761" lon="2.29115">
        <ele>164.3</ele>
        <time>2022-04-17T07:50:04.000Z</time>
      </trkpt>
      <trkpt lat="43.27759" lon="2.29114">
        <ele>164.2</ele>
        <time>2022-04-17T07:50:05.000Z</time>
      </trkpt>
      <trkpt lat="43.27756" lon="2.29113">
        <ele>164</ele>
        <time>2022-04-17T07:50:06.000Z</time>
      </trkpt>
      <trkpt lat="43.27754" lon="2.29112">
        <ele>163.9</ele>
        <time>2022-04-17T07:50:07.000Z</time>
      </trkpt>
      <trkpt lat="43.27751" lon="2.29111">
        <ele>163.7</ele>
        <time>2022-04-17T07:50:08.000Z</time>
      </trkpt>
      <trkpt lat="43.27749" lon="2.29109">
        <ele>163.5</ele>
        <time>2022-04-17T07:50:09.000Z</time>
      </trkpt>
      <trkpt lat="43.27747" lon="2.29108">
        <ele>163.3</ele>
        <time>2022-04-17T07:50:10.000Z</time>
      </trkpt>
      <trkpt lat="43.27744" lon="2.29106">
        <ele>163.1</ele>
        <time>2022-04-17T07:50:11.000Z</time>
      </trkpt>
      <trkpt lat="43.27742" lon="2.29105">
        <ele>162.8</ele>
        <time>2022-04-17T07:50:12.000Z</time>
      </trkpt>
      <trkpt lat="43.2774" lon="2.29103">
        <ele>162.6</ele>
        <time>2022-04-17T07:50:13.000Z</time>
      </trkpt>
      <trkpt lat="43.27737" lon="2.29101">
        <ele>162.4</ele>
        <time>2022-04-17T07:50:14.000Z</time>
      </trkpt>
      <trkpt lat="43.27735" lon="2.291">
        <ele>162.1</ele>
        <time>2022-04-17T07:50:15.000Z</time>
      </trkpt>
      <trkpt lat="43.27732" lon="2.29098">
        <ele>161.9</ele>
        <time>2022-04-17T07:50:16.000Z</time>
      </trkpt>
      <trkpt lat="43.2773" lon="2.29097">
        <ele>161.7</ele>
        <time>2022-04-17T07:50:17.000Z</time>
      </trkpt>
      <trkpt lat="43.27727" lon="2.29095">
        <ele>161.4</ele>
        <time>2022-04-17T07:50:18.000Z</time>
      </trkpt>
      <trkpt lat="43.27725" lon="2.29094">
        <ele>161.2</ele>
        <time>2022-04-17T07:50:19.000Z</time>
      </trkpt>
      <trkpt lat="43.27722" lon="2.29093">
        <ele>160.9</ele>
        <time>2022-04-17T07:50:20.000Z</time>
      </trkpt>
      <trkpt lat="43.27719" lon="2.29092">
        <ele>160.7</ele>
        <time>2022-04-17T07:50:21.000Z</time>
      </trkpt>
      <trkpt lat="43.27717" lon="2.29091">
        <ele>160.4</ele>
        <time>2022-04-17T07:50:22.000Z</time>
      </trkpt>
      <trkpt lat="43.27714" lon="2.2909">
        <ele>160.2</ele>
        <time>2022-04-17T07:50:23.000Z</time>
      </trkpt>
      <trkpt lat="43.27711" lon="2.29089">
        <ele>159.9</ele>
        <time>2022-04-17T07:50:24.000Z</time>
      </trkpt>
      <trkpt lat="43.27708" lon="2.29088">
        <ele>159.6</ele>
        <time>2022-04-17T07:50:25.000Z</time>
      </trkpt>
      <trkpt lat="43.27705" lon="2.29087">
        <ele>159.3</ele>
        <time>2022-04-17T07:50:26.000Z</time>
      </trkpt>
      <trkpt lat="43.27703" lon="2.29085">
        <ele>159.1</ele>
        <time>2022-04-17T07:50:27.000Z</time>
      </trkpt>
      <trkpt lat="43.277" lon="2.29084">
        <ele>158.8</ele>
        <time>2022-04-17T07:50:28.000Z</time>
      </trkpt>
      <trkpt lat="43.27697" lon="2.29083">
        <ele>158.5</ele>
        <time>2022-04-17T07:50:29.000Z</time>
      </trkpt>
      <trkpt lat="43.27695" lon="2.29081">
        <ele>158.3</ele>
        <time>2022-04-17T07:50:30.000Z</time>
      </trkpt>
      <trkpt lat="43.27693" lon="2.2908">
        <ele>158</ele>
        <time>2022-04-17T07:50:31.000Z</time>
      </trkpt>
      <trkpt lat="43.27691" lon="2.29079">
        <ele>157.8</ele>
        <time>2022-04-17T07:50:32.000Z</time>
      </trkpt>
      <trkpt lat="43.27689" lon="2.29078">
        <ele>157.6</ele>
        <time>2022-04-17T07:50:33.000Z</time>
      </trkpt>
      <trkpt lat="43.27687" lon="2.29076">
        <ele>157.3</ele>
        <time>2022-04-17T07:50:34.000Z</time>
      </trkpt>
      <trkpt lat="43.27685" lon="2.29075">
        <ele>157.1</ele>
        <time>2022-04-17T07:50:35.000Z</time>
      </trkpt>
      <trkpt lat="43.27683" lon="2.29073">
        <ele>156.8</ele>
        <time>2022-04-17T07:50:36.000Z</time>
      </trkpt>
      <trkpt lat="43.27681" lon="2.29071">
        <ele>156.5</ele>
        <time>2022-04-17T07:50:37.000Z</time>
      </trkpt>
      <trkpt lat="43.27679" lon="2.29069">
        <ele>156.2</ele>
        <time>2022-04-17T07:50:38.000Z</time>
      </trkpt>
      <trkpt lat="43.27677" lon="2.29067">
        <ele>155.9</ele>
        <time>2022-04-17T07:50:39.000Z</time>
      </trkpt>
      <trkpt lat="43.27675" lon="2.29065">
        <ele>155.6</ele>
        <time>2022-04-17T07:50:40.000Z</time>
      </trkpt>
      <trkpt lat="43.27672" lon="2.29063">
        <ele>155.3</ele>
        <time>2022-04-17T07:50:41.000Z</time>
      </trkpt>
      <trkpt lat="43.2767" lon="2.29061">
        <ele>155</ele>
        <time>2022-04-17T07:50:42.000Z</time>
      </trkpt>
      <trkpt lat="43.27668" lon="2.29059">
        <ele>154.6</ele>
        <time>2022-04-17T07:50:43.000Z</time>
      </trkpt>
      <trkpt lat="43.27665" lon="2.29058">
        <ele>154.5</ele>
        <time>2022-04-17T07:50:44.000Z</time>
      </trkpt>
      <trkpt lat="43.27663" lon="2.29056">
        <ele>154.4</ele>
        <time>2022-04-17T07:50:45.000Z</time>
      </trkpt>
      <trkpt lat="43.27661" lon="2.29055">
        <ele>154.3</ele>
        <time>2022-04-17T07:50:46.000Z</time>
      </trkpt>
      <trkpt lat="43.27658" lon="2.29053">
        <ele>154.3</ele>
        <time>2022-04-17T07:50:47.000Z</time>
      </trkpt>
      <trkpt lat="43.27656" lon="2.29051">
        <ele>154.2</ele>
        <time>2022-04-17T07:50:48.000Z</time>
      </trkpt>
      <trkpt lat="43.27654" lon="2.2905">
        <ele>154.1</ele>
        <time>2022-04-17T07:50:49.000Z</time>
      </trkpt>
      <trkpt lat="43.27651" lon="2.29048">
        <ele>154.1</ele>
        <time>2022-04-17T07:50:50.000Z</time>
      </trkpt>
      <trkpt lat="43.27649" lon="2.29047">
        <ele>154</ele>
        <time>2022-04-17T07:50:51.000Z</time>
      </trkpt>
      <trkpt lat="43.27647" lon="2.29045">
        <ele>154</ele>
        <time>2022-04-17T07:50:52.000Z</time>
      </trkpt>
      <trkpt lat="43.27644" lon="2.29044">
        <ele>153.9</ele>
        <time>2022-04-17T07:50:53.000Z</time>
      </trkpt>
      <trkpt lat="43.27642" lon="2.29042">
        <ele>153.8</ele>
        <time>2022-04-17T07:50:54.000Z</time>
      </trkpt>
      <trkpt lat="43.2764" lon="2.29041">
        <ele>153.8</ele>
        <time>2022-04-17T07:50:55.000Z</time>
      </trkpt>
      <trkpt lat="43.27638" lon="2.2904">
        <ele>153.7</ele>
        <time>2022-04-17T07:50:56.000Z</time>
      </trkpt>
      <trkpt lat="43.27635" lon="2.29039">
        <ele>153.7</ele>
        <time>2022-04-17T07:50:57.000Z</time>
      </trkpt>
      <trkpt lat="43.27633" lon="2.29038">
        <ele>153.7</ele>
        <time>2022-04-17T07:50:58.000Z</time>
      </trkpt>
      <trkpt lat="43.27631" lon="2.29037">
        <ele>153.6</ele>
        <time>2022-04-17T07:50:59.000Z</time>
      </trkpt>
      <trkpt lat="43.27629" lon="2.29036">
        <ele>153.6</ele>
        <time>2022-04-17T07:51:00.000Z</time>
      </trkpt>
      <trkpt lat="43.27626" lon="2.29035">
        <ele>153.6</ele>
        <time>2022-04-17T07:51:01.000Z</time>
      </trkpt>
      <trkpt lat="43.27624" lon="2.29034">
        <ele>153.6</ele>
        <time>2022-04-17T07:51:02.000Z</time>
      </trkpt>
      <trkpt lat="43.27621" lon="2.29034">
        <ele>153.6</ele>
        <time>2022-04-17T07:51:03.000Z</time>
      </trkpt>
      <trkpt lat="43.27619" lon="2.29033">
        <ele>153.5</ele>
        <time>2022-04-17T07:51:04.000Z</time>
      </trkpt>
      <trkpt lat="43.27617" lon="2.29032">
        <ele>153.5</ele>
        <time>2022-04-17T07:51:05.000Z</time>
      </trkpt>
      <trkpt lat="43.27614" lon="2.29032">
        <ele>153.5</ele>
        <time>2022-04-17T07:51:06.000Z</time>
      </trkpt>
      <trkpt lat="43.27612" lon="2.29031">
        <ele>153.5</ele>
        <time>2022-04-17T07:51:07.000Z</time>
      </trkpt>
      <trkpt lat="43.27609" lon="2.2903">
        <ele>153.5</ele>
        <time>2022-04-17T07:51:08.000Z</time>
      </trkpt>
      <trkpt lat="43.27607" lon="2.2903">
        <ele>153.5</ele>
        <time>2022-04-17T07:51:09.000Z</time>
      </trkpt>
      <trkpt lat="43.27604" lon="2.29029">
        <ele>153.5</ele>
        <time>2022-04-17T07:51:10.000Z</time>
      </trkpt>
      <trkpt lat="43.27601" lon="2.29028">
        <ele>153.5</ele>
        <time>2022-04-17T07:51:11.000Z</time>
      </trkpt>
      <trkpt lat="43.27599" lon="2.29028">
        <ele>153.5</ele>
        <time>2022-04-17T07:51:12.000Z</time>
      </trkpt>
      <trkpt lat="43.27596" lon="2.29027">
        <ele>153.5</ele>
        <time>2022-04-17T07:51:13.000Z</time>
      </trkpt>
      <trkpt lat="43.27594" lon="2.29026">
        <ele>153.4</ele>
        <time>2022-04-17T07:51:14.000Z</time>
      </trkpt>
      <trkpt lat="43.27592" lon="2.29025">
        <ele>153.4</ele>
        <time>2022-04-17T07:51:15.000Z</time>
      </trkpt>
      <trkpt lat="43.27589" lon="2.29025">
        <ele>153.4</ele>
        <time>2022-04-17T07:51:16.000Z</time>
      </trkpt>
      <trkpt lat="43.27587" lon="2.29024">
        <ele>153.4</ele>
        <time>2022-04-17T07:51:17.000Z</time>
      </trkpt>
      <trkpt lat="43.27585" lon="2.29023">
        <ele>153.4</ele>
        <time>2022-04-17T07:51:18.000Z</time>
      </trkpt>
      <trkpt lat="43.27583" lon="2.29022">
        <ele>153.3</ele>
        <time>2022-04-17T07:51:19.000Z</time>
      </trkpt>
      <trkpt lat="43.27581" lon="2.29022">
        <ele>153.3</ele>
        <time>2022-04-17T07:51:20.000Z</time>
      </trkpt>
      <trkpt lat="43.27579" lon="2.29022">
        <ele>153.2</ele>
        <time>2022-04-17T07:51:21.000Z</time>
      </trkpt>
      <trkpt lat="43.27577" lon="2.29021">
        <ele>153.2</ele>
        <time>2022-04-17T07:51:22.000Z</time>
      </trkpt>
      <trkpt lat="43.27574" lon="2.29021">
        <ele>153.2</ele>
        <time>2022-04-17T07:51:23.000Z</time>
      </trkpt>
      <trkpt lat="43.27572" lon="2.29022">
        <ele>153.1</ele>
        <time>2022-04-17T07:51:24.000Z</time>
      </trkpt>
      <trkpt lat="43.2757" lon="2.29022">
        <ele>153.1</ele>
        <time>2022-04-17T07:51:25.000Z</time>
      </trkpt>
      <trkpt lat="43.27567" lon="2.29022">
        <ele>153.1</ele>
        <time>2022-04-17T07:51:26.000Z</time>
      </trkpt>
      <trkpt lat="43.27564" lon="2.29022">
        <ele>153</ele>
        <time>2022-04-17T07:51:27.000Z</time>
      </trkpt>
      <trkpt lat="43.27561" lon="2.29021">
        <ele>153</ele>
        <time>2022-04-17T07:51:28.000Z</time>
      </trkpt>
      <trkpt lat="43.27558" lon="2.29021">
        <ele>152.9</ele>
        <time>2022-04-17T07:51:29.000Z</time>
      </trkpt>
      <trkpt lat="43.27555" lon="2.2902">
        <ele>152.8</ele>
        <time>2022-04-17T07:51:30.000Z</time>
      </trkpt>
      <trkpt lat="43.27551" lon="2.29019">
        <ele>152.7</ele>
        <time>2022-04-17T07:51:31.000Z</time>
      </trkpt>
      <trkpt lat="43.27548" lon="2.29018">
        <ele>152.5</ele>
        <time>2022-04-17T07:51:32.000Z</time>
      </trkpt>
      <trkpt lat="43.27544" lon="2.29017">
        <ele>152.4</ele>
        <time>2022-04-17T07:51:33.000Z</time>
      </trkpt>
      <trkpt lat="43.27541" lon="2.29016">
        <ele>152.2</ele>
        <time>2022-04-17T07:51:34.000Z</time>
      </trkpt>
      <trkpt lat="43.27538" lon="2.29014">
        <ele>152</ele>
        <time>2022-04-17T07:51:35.000Z</time>
      </trkpt>
      <trkpt lat="43.27534" lon="2.29013">
        <ele>151.9</ele>
        <time>2022-04-17T07:51:36.000Z</time>
      </trkpt>
      <trkpt lat="43.27531" lon="2.29011">
        <ele>151.7</ele>
        <time>2022-04-17T07:51:37.000Z</time>
      </trkpt>
      <trkpt lat="43.27528" lon="2.2901">
        <ele>151.5</ele>
        <time>2022-04-17T07:51:38.000Z</time>
      </trkpt>
      <trkpt lat="43.27525" lon="2.29008">
        <ele>151.3</ele>
        <time>2022-04-17T07:51:39.000Z</time>
      </trkpt>
      <trkpt lat="43.27522" lon="2.29007">
        <ele>151.1</ele>
        <time>2022-04-17T07:51:40.000Z</time>
      </trkpt>
      <trkpt lat="43.27519" lon="2.29006">
        <ele>150.9</ele>
        <time>2022-04-17T07:51:41.000Z</time>
      </trkpt>
      <trkpt lat="43.27516" lon="2.29004">
        <ele>150.8</ele>
        <time>2022-04-17T07:51:42.000Z</time>
      </trkpt>
      <trkpt lat="43.27513" lon="2.29003">
        <ele>150.6</ele>
        <time>2022-04-17T07:51:43.000Z</time>
      </trkpt>
      <trkpt lat="43.2751" lon="2.29002">
        <ele>150.4</ele>
        <time>2022-04-17T07:51:44.000Z</time>
      </trkpt>
      <trkpt lat="43.27507" lon="2.29001">
        <ele>150.3</ele>
        <time>2022-04-17T07:51:45.000Z</time>
      </trkpt>
      <trkpt lat="43.27505" lon="2.29">
        <ele>150.1</ele>
        <time>2022-04-17T07:51:46.000Z</time>
      </trkpt>
      <trkpt lat="43.27502" lon="2.28999">
        <ele>150</ele>
        <time>2022-04-17T07:51:47.000Z</time>
      </trkpt>
      <trkpt lat="43.27499" lon="2.28998">
        <ele>149.8</ele>
        <time>2022-04-17T07:51:48.000Z</time>
      </trkpt>
      <trkpt lat="43.27497" lon="2.28997">
        <ele>149.7</ele>
        <time>2022-04-17T07:51:49.000Z</time>
      </trkpt>
      <trkpt lat="43.27494" lon="2.28996">
        <ele>149.6</ele>
        <time>2022-04-17T07:51:50.000Z</time>
      </trkpt>
      <trkpt lat="43.27491" lon="2.28995">
        <ele>149.4</ele>
        <time>2022-04-17T07:51:51.000Z</time>
      </trkpt>
      <trkpt lat="43.27488" lon="2.28994">
        <ele>149.3</ele>
        <time>2022-04-17T07:51:52.000Z</time>
      </trkpt>
      <trkpt lat="43.27485" lon="2.28992">
        <ele>149.2</ele>
        <time>2022-04-17T07:51:53.000Z</time>
      </trkpt>
      <trkpt lat="43.27482" lon="2.28991">
        <ele>149</ele>
        <time>2022-04-17T07:51:54.000Z</time>
      </trkpt>
      <trkpt lat="43.2748" lon="2.2899">
        <ele>148.8</ele>
        <time>2022-04-17T07:51:55.000Z</time>
      </trkpt>
      <trkpt lat="43.27477" lon="2.28989">
        <ele>148.7</ele>
        <time>2022-04-17T07:51:56.000Z</time>
      </trkpt>
      <trkpt lat="43.27474" lon="2.28987">
        <ele>148.5</ele>
        <time>2022-04-17T07:51:57.000Z</time>
      </trkpt>
      <trkpt lat="43.27472" lon="2.28986">
        <ele>148.3</ele>
        <time>2022-04-17T07:51:58.000Z</time>
      </trkpt>
      <trkpt lat="43.27469" lon="2.28984">
        <ele>148.2</ele>
        <time>2022-04-17T07:51:59.000Z</time>
      </trkpt>
      <trkpt lat="43.27467" lon="2.28983">
        <ele>148</ele>
        <time>2022-04-17T07:52:00.000Z</time>
      </trkpt>
      <trkpt lat="43.27464" lon="2.28981">
        <ele>147.8</ele>
        <time>2022-04-17T07:52:01.000Z</time>
      </trkpt>
      <trkpt lat="43.27462" lon="2.2898">
        <ele>147.6</ele>
        <time>2022-04-17T07:52:02.000Z</time>
      </trkpt>
      <trkpt lat="43.27459" lon="2.28978">
        <ele>147.5</ele>
        <time>2022-04-17T07:52:03.000Z</time>
      </trkpt>
      <trkpt lat="43.27457" lon="2.28977">
        <ele>147.3</ele>
        <time>2022-04-17T07:52:04.000Z</time>
      </trkpt>
      <trkpt lat="43.27455" lon="2.28976">
        <ele>147.1</ele>
        <time>2022-04-17T07:52:05.000Z</time>
      </trkpt>
      <trkpt lat="43.27452" lon="2.28974">
        <ele>147</ele>
        <time>2022-04-17T07:52:06.000Z</time>
      </trkpt>
      <trkpt lat="43.2745" lon="2.28973">
        <ele>146.8</ele>
        <time>2022-04-17T07:52:07.000Z</time>
      </trkpt>
      <trkpt lat="43.27447" lon="2.28972">
        <ele>146.6</ele>
        <time>2022-04-17T07:52:08.000Z</time>
      </trkpt>
      <trkpt lat="43.27445" lon="2.28971">
        <ele>146.5</ele>
        <time>2022-04-17T07:52:09.000Z</time>
      </trkpt>
      <trkpt lat="43.27442" lon="2.2897">
        <ele>146.3</ele>
        <time>2022-04-17T07:52:10.000Z</time>
      </trkpt>
      <trkpt lat="43.2744" lon="2.28969">
        <ele>146.1</ele>
        <time>2022-04-17T07:52:11.000Z</time>
      </trkpt>
      <trkpt lat="43.27437" lon="2.28968">
        <ele>146</ele>
        <time>2022-04-17T07:52:12.000Z</time>
      </trkpt>
      <trkpt lat="43.27435" lon="2.28967">
        <ele>145.8</ele>
        <time>2022-04-17T07:52:13.000Z</time>
      </trkpt>
      <trkpt lat="43.27432" lon="2.28966">
        <ele>145.6</ele>
        <time>2022-04-17T07:52:14.000Z</time>
      </trkpt>
      <trkpt lat="43.2743" lon="2.28965">
        <ele>145.5</ele>
        <time>2022-04-17T07:52:15.000Z</time>
      </trkpt>
      <trkpt lat="43.27427" lon="2.28964">
        <ele>145.3</ele>
        <time>2022-04-17T07:52:16.000Z</time>
      </trkpt>
      <trkpt lat="43.27424" lon="2.28963">
        <ele>145.1</ele>
        <time>2022-04-17T07:52:17.000Z</time>
      </trkpt>
      <trkpt lat="43.27422" lon="2.28962">
        <ele>145</ele>
        <time>2022-04-17T07:52:18.000Z</time>
      </trkpt>
      <trkpt lat="43.27419" lon="2.28961">
        <ele>144.8</ele>
        <time>2022-04-17T07:52:19.000Z</time>
      </trkpt>
      <trkpt lat="43.27416" lon="2.2896">
        <ele>144.7</ele>
        <time>2022-04-17T07:52:20.000Z</time>
      </trkpt>
      <trkpt lat="43.27413" lon="2.2896">
        <ele>144.7</ele>
        <time>2022-04-17T07:52:21.000Z</time>
      </trkpt>
      <trkpt lat="43.27411" lon="2.28959">
        <ele>144.7</ele>
        <time>2022-04-17T07:52:22.000Z</time>
      </trkpt>
      <trkpt lat="43.27408" lon="2.28958">
        <ele>144.7</ele>
        <time>2022-04-17T07:52:23.000Z</time>
      </trkpt>
      <trkpt lat="43.27405" lon="2.28958">
        <ele>144.7</ele>
        <time>2022-04-17T07:52:24.000Z</time>
      </trkpt>
      <trkpt lat="43.27402" lon="2.28957">
        <ele>144.7</ele>
        <time>2022-04-17T07:52:25.000Z</time>
      </trkpt>
      <trkpt lat="43.274" lon="2.28957">
        <ele>144.8</ele>
        <time>2022-04-17T07:52:26.000Z</time>
      </trkpt>
      <trkpt lat="43.27397" lon="2.28956">
        <ele>144.8</ele>
        <time>2022-04-17T07:52:27.000Z</time>
      </trkpt>
      <trkpt lat="43.27394" lon="2.28955">
        <ele>144.8</ele>
        <time>2022-04-17T07:52:28.000Z</time>
      </trkpt>
      <trkpt lat="43.27392" lon="2.28955">
        <ele>144.8</ele>
        <time>2022-04-17T07:52:29.000Z</time>
      </trkpt>
      <trkpt lat="43.27389" lon="2.28954">
        <ele>144.8</ele>
        <time>2022-04-17T07:52:30.000Z</time>
      </trkpt>
      <trkpt lat="43.27386" lon="2.28954">
        <ele>144.8</ele>
        <time>2022-04-17T07:52:31.000Z</time>
      </trkpt>
      <trkpt lat="43.27384" lon="2.28953">
        <ele>144.8</ele>
        <time>2022-04-17T07:52:32.000Z</time>
      </trkpt>
      <trkpt lat="43.27381" lon="2.28953">
        <ele>144.9</ele>
        <time>2022-04-17T07:52:33.000Z</time>
      </trkpt>
      <trkpt lat="43.27379" lon="2.28952">
        <ele>144.9</ele>
        <time>2022-04-17T07:52:34.000Z</time>
      </trkpt>
      <trkpt lat="43.27376" lon="2.28951">
        <ele>144.9</ele>
        <time>2022-04-17T07:52:35.000Z</time>
      </trkpt>
      <trkpt lat="43.27374" lon="2.28951">
        <ele>144.9</ele>
        <time>2022-04-17T07:52:36.000Z</time>
      </trkpt>
      <trkpt lat="43.27371" lon="2.2895">
        <ele>144.9</ele>
        <time>2022-04-17T07:52:37.000Z</time>
      </trkpt>
      <trkpt lat="43.27368" lon="2.28949">
        <ele>144.9</ele>
        <time>2022-04-17T07:52:38.000Z</time>
      </trkpt>
      <trkpt lat="43.27366" lon="2.28949">
        <ele>144.9</ele>
        <time>2022-04-17T07:52:39.000Z</time>
      </trkpt>
      <trkpt lat="43.27363" lon="2.28948">
        <ele>144.9</ele>
        <time>2022-04-17T07:52:40.000Z</time>
      </trkpt>
      <trkpt lat="43.27361" lon="2.28947">
        <ele>144.9</ele>
        <time>2022-04-17T07:52:41.000Z</time>
      </trkpt>
      <trkpt lat="43.27358" lon="2.28946">
        <ele>144.9</ele>
        <time>2022-04-17T07:52:42.000Z</time>
      </trkpt>
      <trkpt lat="43.27356" lon="2.28945">
        <ele>144.8</ele>
        <time>2022-04-17T07:52:43.000Z</time>
      </trkpt>
      <trkpt lat="43.27353" lon="2.28944">
        <ele>144.8</ele>
        <time>2022-04-17T07:52:44.000Z</time>
      </trkpt>
      <trkpt lat="43.2735" lon="2.28942">
        <ele>144.7</ele>
        <time>2022-04-17T07:52:45.000Z</time>
      </trkpt>
      <trkpt lat="43.27348" lon="2.28941">
        <ele>144.7</ele>
        <time>2022-04-17T07:52:46.000Z</time>
      </trkpt>
      <trkpt lat="43.27345" lon="2.28939">
        <ele>144.6</ele>
        <time>2022-04-17T07:52:47.000Z</time>
      </trkpt>
      <trkpt lat="43.27343" lon="2.28937">
        <ele>144.5</ele>
        <time>2022-04-17T07:52:48.000Z</time>
      </trkpt>
      <trkpt lat="43.27341" lon="2.28935">
        <ele>144.4</ele>
        <time>2022-04-17T07:52:49.000Z</time>
      </trkpt>
      <trkpt lat="43.27338" lon="2.28933">
        <ele>144.3</ele>
        <time>2022-04-17T07:52:50.000Z</time>
      </trkpt>
      <trkpt lat="43.27336" lon="2.28931">
        <ele>144.1</ele>
        <time>2022-04-17T07:52:51.000Z</time>
      </trkpt>
      <trkpt lat="43.27334" lon="2.28929">
        <ele>144</ele>
        <time>2022-04-17T07:52:52.000Z</time>
      </trkpt>
      <trkpt lat="43.27332" lon="2.28926">
        <ele>143.9</ele>
        <time>2022-04-17T07:52:53.000Z</time>
      </trkpt>
      <trkpt lat="43.2733" lon="2.28924">
        <ele>143.7</ele>
        <time>2022-04-17T07:52:54.000Z</time>
      </trkpt>
      <trkpt lat="43.27328" lon="2.28921">
        <ele>143.6</ele>
        <time>2022-04-17T07:52:55.000Z</time>
      </trkpt>
      <trkpt lat="43.27327" lon="2.28919">
        <ele>143.4</ele>
        <time>2022-04-17T07:52:56.000Z</time>
      </trkpt>
      <trkpt lat="43.27326" lon="2.28917">
        <ele>143.3</ele>
        <time>2022-04-17T07:52:57.000Z</time>
      </trkpt>
      <trkpt lat="43.27325" lon="2.28915">
        <ele>143.2</ele>
        <time>2022-04-17T07:52:58.000Z</time>
      </trkpt>
      <trkpt lat="43.27324" lon="2.28914">
        <ele>143.2</ele>
        <time>2022-04-17T07:52:59.000Z</time>
      </trkpt>
      <trkpt lat="43.27324" lon="2.28913">
        <ele>143.1</ele>
        <time>2022-04-17T07:53:00.000Z</time>
      </trkpt>
      <trkpt lat="43.27324" lon="2.28912">
        <ele>143.1</ele>
        <time>2022-04-17T07:53:01.000Z</time>
      </trkpt>
      <trkpt lat="43.27324" lon="2.28912">
        <ele>143.1</ele>
        <time>2022-04-17T07:53:02.000Z</time>
      </trkpt>
      <trkpt lat="43.27324" lon="2.28913">
        <ele>143.1</ele>
        <time>2022-04-17T07:53:03.000Z</time>
      </trkpt>
      <trkpt lat="43.27324" lon="2.28913">
        <ele>143.1</ele>
        <time>2022-04-17T07:53:04.000Z</time>
      </trkpt>
      <trkpt lat="43.27324" lon="2.28913">
        <ele>143.1</ele>
        <time>2022-04-17T07:53:05.000Z</time>
      </trkpt>
      <trkpt lat="43.27324" lon="2.28913">
        <ele>143.1</ele>
        <time>2022-04-17T07:53:06.000Z</time>
      </trkpt>
      <trkpt lat="43.27324" lon="2.28913">
        <ele>143.1</ele>
        <time>2022-04-17T07:53:07.000Z</time>
      </trkpt>
      <trkpt lat="43.27324" lon="2.28913">
        <ele>143.1</ele>
        <time>2022-04-17T07:53:08.000Z</time>
      </trkpt>
      <trkpt lat="43.27324" lon="2.28912">
        <ele>143.1</ele>
        <time>2022-04-17T07:53:09.000Z</time>
      </trkpt>
      <trkpt lat="43.27324" lon="2.28912">
        <ele>143.1</ele>
        <time>2022-04-17T07:53:10.000Z</time>
      </trkpt>
      <trkpt lat="43.27325" lon="2.28913">
        <ele>143.1</ele>
        <time>2022-04-17T07:53:11.000Z</time>
      </trkpt>
      <trkpt lat="43.27325" lon="2.28913">
        <ele>143.1</ele>
        <time>2022-04-17T07:53:12.000Z</time>
      </trkpt>
      <trkpt lat="43.27325" lon="2.28913">
        <ele>143.1</ele>
        <time>2022-04-17T07:53:13.000Z</time>
      </trkpt>
      <trkpt lat="43.27326" lon="2.28914">
        <ele>143.1</ele>
        <time>2022-04-17T07:53:14.000Z</time>
      </trkpt>
      <trkpt lat="43.27327" lon="2.28915">
        <ele>143.1</ele>
        <time>2022-04-17T07:53:15.000Z</time>
      </trkpt>
      <trkpt lat="43.27328" lon="2.28916">
        <ele>143.2</ele>
        <time>2022-04-17T07:53:16.000Z</time>
      </trkpt>
      <trkpt lat="43.27329" lon="2.28917">
        <ele>143.2</ele>
        <time>2022-04-17T07:53:17.000Z</time>
      </trkpt>
      <trkpt lat="43.2733" lon="2.28918">
        <ele>143.3</ele>
        <time>2022-04-17T07:53:18.000Z</time>
      </trkpt>
      <trkpt lat="43.27331" lon="2.2892">
        <ele>143.3</ele>
        <time>2022-04-17T07:53:19.000Z</time>
      </trkpt>
      <trkpt lat="43.27332" lon="2.28921">
        <ele>143.4</ele>
        <time>2022-04-17T07:53:20.000Z</time>
      </trkpt>
      <trkpt lat="43.27332" lon="2.28922">
        <ele>143.5</ele>
        <time>2022-04-17T07:53:21.000Z</time>
      </trkpt>
      <trkpt lat="43.27333" lon="2.28923">
        <ele>143.6</ele>
        <time>2022-04-17T07:53:22.000Z</time>
      </trkpt>
      <trkpt lat="43.27334" lon="2.28925">
        <ele>143.6</ele>
        <time>2022-04-17T07:53:23.000Z</time>
      </trkpt>
      <trkpt lat="43.27335" lon="2.28926">
        <ele>143.7</ele>
        <time>2022-04-17T07:53:24.000Z</time>
      </trkpt>
      <trkpt lat="43.27336" lon="2.28927">
        <ele>143.8</ele>
        <time>2022-04-17T07:53:25.000Z</time>
      </trkpt>
      <trkpt lat="43.27337" lon="2.28928">
        <ele>143.9</ele>
        <time>2022-04-17T07:53:26.000Z</time>
      </trkpt>
      <trkpt lat="43.27338" lon="2.28929">
        <ele>143.9</ele>
        <time>2022-04-17T07:53:27.000Z</time>
      </trkpt>
      <trkpt lat="43.27339" lon="2.2893">
        <ele>144</ele>
        <time>2022-04-17T07:53:28.000Z</time>
      </trkpt>
      <trkpt lat="43.27341" lon="2.28931">
        <ele>144</ele>
        <time>2022-04-17T07:53:29.000Z</time>
      </trkpt>
      <trkpt lat="43.27342" lon="2.28932">
        <ele>144.1</ele>
        <time>2022-04-17T07:53:30.000Z</time>
      </trkpt>
      <trkpt lat="43.27343" lon="2.28933">
        <ele>144.1</ele>
        <time>2022-04-17T07:53:31.000Z</time>
      </trkpt>
      <trkpt lat="43.27345" lon="2.28934">
        <ele>144.2</ele>
        <time>2022-04-17T07:53:32.000Z</time>
      </trkpt>
      <trkpt lat="43.27346" lon="2.28935">
        <ele>144.2</ele>
        <time>2022-04-17T07:53:33.000Z</time>
      </trkpt>
      <trkpt lat="43.27348" lon="2.28935">
        <ele>144.2</ele>
        <time>2022-04-17T07:53:34.000Z</time>
      </trkpt>
      <trkpt lat="43.27349" lon="2.28936">
        <ele>144.2</ele>
        <time>2022-04-17T07:53:35.000Z</time>
      </trkpt>
      <trkpt lat="43.27351" lon="2.28937">
        <ele>144.3</ele>
        <time>2022-04-17T07:53:36.000Z</time>
      </trkpt>
      <trkpt lat="43.27353" lon="2.28938">
        <ele>144.3</ele>
        <time>2022-04-17T07:53:37.000Z</time>
      </trkpt>
      <trkpt lat="43.27355" lon="2.28938">
        <ele>144.3</ele>
        <time>2022-04-17T07:53:38.000Z</time>
      </trkpt>
      <trkpt lat="43.27357" lon="2.28939">
        <ele>144.3</ele>
        <time>2022-04-17T07:53:39.000Z</time>
      </trkpt>
      <trkpt lat="43.27359" lon="2.2894">
        <ele>144.3</ele>
        <time>2022-04-17T07:53:40.000Z</time>
      </trkpt>
      <trkpt lat="43.27362" lon="2.28941">
        <ele>144.3</ele>
        <time>2022-04-17T07:53:41.000Z</time>
      </trkpt>
      <trkpt lat="43.27364" lon="2.28941">
        <ele>144.3</ele>
        <time>2022-04-17T07:53:42.000Z</time>
      </trkpt>
      <trkpt lat="43.27367" lon="2.28942">
        <ele>144.3</ele>
        <time>2022-04-17T07:53:43.000Z</time>
      </trkpt>
      <trkpt lat="43.27369" lon="2.28943">
        <ele>144.3</ele>
        <time>2022-04-17T07:53:44.000Z</time>
      </trkpt>
      <trkpt lat="43.27372" lon="2.28943">
        <ele>144.3</ele>
        <time>2022-04-17T07:53:45.000Z</time>
      </trkpt>
      <trkpt lat="43.27375" lon="2.28944">
        <ele>144.3</ele>
        <time>2022-04-17T07:53:46.000Z</time>
      </trkpt>
      <trkpt lat="43.27377" lon="2.28944">
        <ele>144.3</ele>
        <time>2022-04-17T07:53:47.000Z</time>
      </trkpt>
      <trkpt lat="43.2738" lon="2.28945">
        <ele>144.2</ele>
        <time>2022-04-17T07:53:48.000Z</time>
      </trkpt>
      <trkpt lat="43.27383" lon="2.28945">
        <ele>144.2</ele>
        <time>2022-04-17T07:53:49.000Z</time>
      </trkpt>
      <trkpt lat="43.27385" lon="2.28945">
        <ele>144.1</ele>
        <time>2022-04-17T07:53:50.000Z</time>
      </trkpt>
      <trkpt lat="43.27388" lon="2.28945">
        <ele>144.1</ele>
        <time>2022-04-17T07:53:51.000Z</time>
      </trkpt>
      <trkpt lat="43.27391" lon="2.28946">
        <ele>144.1</ele>
        <time>2022-04-17T07:53:52.000Z</time>
      </trkpt>
      <trkpt lat="43.27393" lon="2.28946">
        <ele>144</ele>
        <time>2022-04-17T07:53:53.000Z</time>
      </trkpt>
      <trkpt lat="43.27396" lon="2.28946">
        <ele>144</ele>
        <time>2022-04-17T07:53:54.000Z</time>
      </trkpt>
      <trkpt lat="43.27399" lon="2.28947">
        <ele>143.9</ele>
        <time>2022-04-17T07:53:55.000Z</time>
      </trkpt>
      <trkpt lat="43.27401" lon="2.28947">
        <ele>143.9</ele>
        <time>2022-04-17T07:53:56.000Z</time>
      </trkpt>
      <trkpt lat="43.27404" lon="2.28947">
        <ele>143.9</ele>
        <time>2022-04-17T07:53:57.000Z</time>
      </trkpt>
      <trkpt lat="43.27406" lon="2.28948">
        <ele>143.9</ele>
        <time>2022-04-17T07:53:58.000Z</time>
      </trkpt>
      <trkpt lat="43.27409" lon="2.28949">
        <ele>143.9</ele>
        <time>2022-04-17T07:53:59.000Z</time>
      </trkpt>
      <trkpt lat="43.27411" lon="2.28949">
        <ele>143.9</ele>
        <time>2022-04-17T07:54:00.000Z</time>
      </trkpt>
      <trkpt lat="43.27413" lon="2.2895">
        <ele>143.9</ele>
        <time>2022-04-17T07:54:01.000Z</time>
      </trkpt>
      <trkpt lat="43.27415" lon="2.28951">
        <ele>143.9</ele>
        <time>2022-04-17T07:54:02.000Z</time>
      </trkpt>
      <trkpt lat="43.27417" lon="2.28951">
        <ele>143.9</ele>
        <time>2022-04-17T07:54:03.000Z</time>
      </trkpt>
      <trkpt lat="43.27419" lon="2.28952">
        <ele>144.1</ele>
        <time>2022-04-17T07:54:04.000Z</time>
      </trkpt>
      <trkpt lat="43.27421" lon="2.28953">
        <ele>144.2</ele>
        <time>2022-04-17T07:54:05.000Z</time>
      </trkpt>
      <trkpt lat="43.27422" lon="2.28954">
        <ele>144.4</ele>
        <time>2022-04-17T07:54:06.000Z</time>
      </trkpt>
      <trkpt lat="43.27423" lon="2.28956">
        <ele>144.5</ele>
        <time>2022-04-17T07:54:07.000Z</time>
      </trkpt>
      <trkpt lat="43.27425" lon="2.28957">
        <ele>144.6</ele>
        <time>2022-04-17T07:54:08.000Z</time>
      </trkpt>
      <trkpt lat="43.27425" lon="2.28958">
        <ele>144.8</ele>
        <time>2022-04-17T07:54:09.000Z</time>
      </trkpt>
      <trkpt lat="43.27426" lon="2.28959">
        <ele>144.9</ele>
        <time>2022-04-17T07:54:10.000Z</time>
      </trkpt>
      <trkpt lat="43.27427" lon="2.28961">
        <ele>145</ele>
        <time>2022-04-17T07:54:11.000Z</time>
      </trkpt>
      <trkpt lat="43.27427" lon="2.28962">
        <ele>145.2</ele>
        <time>2022-04-17T07:54:12.000Z</time>
      </trkpt>
      <trkpt lat="43.27427" lon="2.28964">
        <ele>145.3</ele>
        <time>2022-04-17T07:54:13.000Z</time>
      </trkpt>
      <trkpt lat="43.27427" lon="2.28965">
        <ele>145.4</ele>
        <time>2022-04-17T07:54:14.000Z</time>
      </trkpt>
      <trkpt lat="43.27426" lon="2.28967">
        <ele>145.5</ele>
        <time>2022-04-17T07:54:15.000Z</time>
      </trkpt>
      <trkpt lat="43.27426" lon="2.28969">
        <ele>145.7</ele>
        <time>2022-04-17T07:54:16.000Z</time>
      </trkpt>
      <trkpt lat="43.27425" lon="2.2897">
        <ele>145.8</ele>
        <time>2022-04-17T07:54:17.000Z</time>
      </trkpt>
      <trkpt lat="43.27425" lon="2.28972">
        <ele>145.9</ele>
        <time>2022-04-17T07:54:18.000Z</time>
      </trkpt>
      <trkpt lat="43.27424" lon="2.28973">
        <ele>146</ele>
        <time>2022-04-17T07:54:19.000Z</time>
      </trkpt>
      <trkpt lat="43.27423" lon="2.28975">
        <ele>146.1</ele>
        <time>2022-04-17T07:54:20.000Z</time>
      </trkpt>
      <trkpt lat="43.27422" lon="2.28976">
        <ele>146.2</ele>
        <time>2022-04-17T07:54:21.000Z</time>
      </trkpt>
      <trkpt lat="43.27422" lon="2.28978">
        <ele>146.3</ele>
        <time>2022-04-17T07:54:22.000Z</time>
      </trkpt>
      <trkpt lat="43.27421" lon="2.28979">
        <ele>146.4</ele>
        <time>2022-04-17T07:54:23.000Z</time>
      </trkpt>
      <trkpt lat="43.27421" lon="2.2898">
        <ele>146.4</ele>
        <time>2022-04-17T07:54:24.000Z</time>
      </trkpt>
      <trkpt lat="43.2742" lon="2.28981">
        <ele>146.5</ele>
        <time>2022-04-17T07:54:25.000Z</time>
      </trkpt>
      <trkpt lat="43.2742" lon="2.28982">
        <ele>146.6</ele>
        <time>2022-04-17T07:54:26.000Z</time>
      </trkpt>
      <trkpt lat="43.27419" lon="2.28983">
        <ele>146.6</ele>
        <time>2022-04-17T07:54:27.000Z</time>
      </trkpt>
      <trkpt lat="43.27419" lon="2.28983">
        <ele>146.7</ele>
        <time>2022-04-17T07:54:28.000Z</time>
      </trkpt>
      <trkpt lat="43.27419" lon="2.28984">
        <ele>146.7</ele>
        <time>2022-04-17T07:54:29.000Z</time>
      </trkpt>
      <trkpt lat="43.27419" lon="2.28984">
        <ele>146.7</ele>
        <time>2022-04-17T07:54:30.000Z</time>
      </trkpt>
      <trkpt lat="43.27418" lon="2.28984">
        <ele>146.7</ele>
        <time>2022-04-17T07:54:31.000Z</time>
      </trkpt>
      <trkpt lat="43.27418" lon="2.28985">
        <ele>146.8</ele>
        <time>2022-04-17T07:54:32.000Z</time>
      </trkpt>
      <trkpt lat="43.27418" lon="2.28985">
        <ele>146.8</ele>
        <time>2022-04-17T07:54:33.000Z</time>
      </trkpt>
      <trkpt lat="43.27418" lon="2.28985">
        <ele>146.8</ele>
        <time>2022-04-17T07:54:34.000Z</time>
      </trkpt>
      <trkpt lat="43.27418" lon="2.28985">
        <ele>146.8</ele>
        <time>2022-04-17T07:54:35.000Z</time>
      </trkpt>
      <trkpt lat="43.27418" lon="2.28985">
        <ele>146.8</ele>
        <time>2022-04-17T07:54:36.000Z</time>
      </trkpt>
      <trkpt lat="43.27418" lon="2.28985">
        <ele>146.8</ele>
        <time>2022-04-17T07:54:37.000Z</time>
      </trkpt>
      <trkpt lat="43.27418" lon="2.28985">
        <ele>146.8</ele>
        <time>2022-04-17T07:54:38.000Z</time>
      </trkpt>
      <trkpt lat="43.27418" lon="2.28985">
        <ele>146.8</ele>
        <time>2022-04-17T07:54:39.000Z</time>
      </trkpt>
      <trkpt lat="43.27418" lon="2.28985">
        <ele>146.8</ele>
        <time>2022-04-17T07:54:40.000Z</time>
      </trkpt>
      <trkpt lat="43.27418" lon="2.28985">
        <ele>146.8</ele>
        <time>2022-04-17T07:54:41.000Z</time>
      </trkpt>
      <trkpt lat="43.27418" lon="2.28985">
        <ele>146.8</ele>
        <time>2022-04-17T07:54:42.000Z</time>
      </trkpt>
      <trkpt lat="43.27418" lon="2.28985">
        <ele>146.8</ele>
        <time>2022-04-17T07:54:43.000Z</time>
      </trkpt>
      <trkpt lat="43.27418" lon="2.28985">
        <ele>146.8</ele>
        <time>2022-04-17T07:54:44.000Z</time>
      </trkpt>
      <trkpt lat="43.27418" lon="2.28985">
        <ele>146.8</ele>
        <time>2022-04-17T07:54:45.000Z</time>
      </trkpt>
      <trkpt lat="43.27418" lon="2.28985">
        <ele>146.8</ele>
        <time>2022-04-17T07:54:46.000Z</time>
      </trkpt>
      <trkpt lat="43.27418" lon="2.28985">
        <ele>146.8</ele>
        <time>2022-04-17T07:54:47.000Z</time>
      </trkpt>
      <trkpt lat="43.27418" lon="2.28985">
        <ele>146.8</ele>
        <time>2022-04-17T07:54:48.000Z</time>
      </trkpt>
      <trkpt lat="43.27418" lon="2.28985">
        <ele>146.8</ele>
        <time>2022-04-17T07:54:49.000Z</time>
      </trkpt>
      <trkpt lat="43.27418" lon="2.28985">
        <ele>146.8</ele>
        <time>2022-04-17T07:54:50.000Z</time>
      </trkpt>
      <trkpt lat="43.27418" lon="2.28985">
        <ele>146.8</ele>
        <time>2022-04-17T07:54:51.000Z</time>
      </trkpt>
      <trkpt lat="43.27418" lon="2.28985">
        <ele>146.8</ele>
        <time>2022-04-17T07:54:52.000Z</time>
      </trkpt>
      <trkpt lat="43.27418" lon="2.28985">
        <ele>146.8</ele>
        <time>2022-04-17T07:54:53.000Z</time>
      </trkpt>
      <trkpt lat="43.27418" lon="2.28985">
        <ele>146.8</ele>
        <time>2022-04-17T07:54:54.000Z</time>
      </trkpt>
      <trkpt lat="43.27418" lon="2.28985">
        <ele>146.8</ele>
        <time>2022-04-17T07:54:55.000Z</time>
      </trkpt>
      <trkpt lat="43.27418" lon="2.28985">
        <ele>146.8</ele>
        <time>2022-04-17T07:54:56.000Z</time>
      </trkpt>
      <trkpt lat="43.27418" lon="2.28985">
        <ele>146.8</ele>
        <time>2022-04-17T07:54:57.000Z</time>
      </trkpt>
      <trkpt lat="43.27418" lon="2.28985">
        <ele>146.8</ele>
        <time>2022-04-17T07:54:58.000Z</time>
      </trkpt>
      <trkpt lat="43.27418" lon="2.28985">
        <ele>146.8</ele>
        <time>2022-04-17T07:54:59.000Z</time>
      </trkpt>
      <trkpt lat="43.27418" lon="2.28985">
        <ele>146.8</ele>
        <time>2022-04-17T07:55:00.000Z</time>
      </trkpt>
      <trkpt lat="43.27418" lon="2.28985">
        <ele>146.8</ele>
        <time>2022-04-17T07:55:01.000Z</time>
      </trkpt>
      <trkpt lat="43.27418" lon="2.28985">
        <ele>146.8</ele>
        <time>2022-04-17T07:55:02.000Z</time>
      </trkpt>
      <trkpt lat="43.27418" lon="2.28985">
        <ele>146.8</ele>
        <time>2022-04-17T07:55:03.000Z</time>
      </trkpt>
      <trkpt lat="43.27418" lon="2.28985">
        <ele>146.8</ele>
        <time>2022-04-17T07:55:04.000Z</time>
      </trkpt>
      <trkpt lat="43.27418" lon="2.28985">
        <ele>146.8</ele>
        <time>2022-04-17T07:55:05.000Z</time>
      </trkpt>
      <trkpt lat="43.27418" lon="2.28985">
        <ele>146.8</ele>
        <time>2022-04-17T07:55:06.000Z</time>
      </trkpt>
      <trkpt lat="43.27418" lon="2.28985">
        <ele>146.8</ele>
        <time>2022-04-17T07:55:07.000Z</time>
      </trkpt>
      <trkpt lat="43.27418" lon="2.28985">
        <ele>146.8</ele>
        <time>2022-04-17T07:55:08.000Z</time>
      </trkpt>
      <trkpt lat="43.27418" lon="2.28985">
        <ele>146.8</ele>
        <time>2022-04-17T07:55:09.000Z</time>
      </trkpt>
      <trkpt lat="43.27418" lon="2.28985">
        <ele>146.8</ele>
        <time>2022-04-17T07:55:10.000Z</time>
      </trkpt>
      <trkpt lat="43.27418" lon="2.28985">
        <ele>146.8</ele>
        <time>2022-04-17T07:55:11.000Z</time>
      </trkpt>
      <trkpt lat="43.27418" lon="2.28985">
        <ele>146.8</ele>
        <time>2022-04-17T07:55:12.000Z</time>
      </trkpt>
      <trkpt lat="43.27418" lon="2.28985">
        <ele>146.8</ele>
        <time>2022-04-17T07:55:13.000Z</time>
      </trkpt>
      <trkpt lat="43.27418" lon="2.28985">
        <ele>146.8</ele>
        <time>2022-04-17T07:55:14.000Z</time>
      </trkpt>
      <trkpt lat="43.27418" lon="2.28985">
        <ele>146.8</ele>
        <time>2022-04-17T07:55:15.000Z</time>
      </trkpt>
      <trkpt lat="43.27418" lon="2.28985">
        <ele>146.8</ele>
        <time>2022-04-17T07:55:16.000Z</time>
      </trkpt>
      <trkpt lat="43.27418" lon="2.28985">
        <ele>146.8</ele>
        <time>2022-04-17T07:55:17.000Z</time>
      </trkpt>
      <trkpt lat="43.27418" lon="2.28985">
        <ele>146.8</ele>
        <time>2022-04-17T07:55:18.000Z</time>
      </trkpt>
      <trkpt lat="43.27418" lon="2.28985">
        <ele>146.8</ele>
        <time>2022-04-17T07:55:19.000Z</time>
      </trkpt>
      <trkpt lat="43.27418" lon="2.28985">
        <ele>146.8</ele>
        <time>2022-04-17T07:55:20.000Z</time>
      </trkpt>
      <trkpt lat="43.27418" lon="2.28985">
        <ele>146.8</ele>
        <time>2022-04-17T07:55:21.000Z</time>
      </trkpt>
      <trkpt lat="43.27418" lon="2.28984">
        <ele>146.7</ele>
        <time>2022-04-17T07:55:22.000Z</time>
      </trkpt>
      <trkpt lat="43.27418" lon="2.28984">
        <ele>146.7</ele>
        <time>2022-04-17T07:55:23.000Z</time>
      </trkpt>
      <trkpt lat="43.27418" lon="2.28984">
        <ele>146.7</ele>
        <time>2022-04-17T07:55:24.000Z</time>
      </trkpt>
      <trkpt lat="43.27418" lon="2.28983">
        <ele>146.6</ele>
        <time>2022-04-17T07:55:25.000Z</time>
      </trkpt>
      <trkpt lat="43.27418" lon="2.28983">
        <ele>146.6</ele>
        <time>2022-04-17T07:55:26.000Z</time>
      </trkpt>
      <trkpt lat="43.27418" lon="2.28982">
        <ele>146.6</ele>
        <time>2022-04-17T07:55:27.000Z</time>
      </trkpt>
      <trkpt lat="43.27418" lon="2.28982">
        <ele>146.6</ele>
        <time>2022-04-17T07:55:28.000Z</time>
      </trkpt>
      <trkpt lat="43.27418" lon="2.28982">
        <ele>146.5</ele>
        <time>2022-04-17T07:55:29.000Z</time>
      </trkpt>
      <trkpt lat="43.27418" lon="2.28982">
        <ele>146.5</ele>
        <time>2022-04-17T07:55:30.000Z</time>
      </trkpt>
      <trkpt lat="43.27418" lon="2.28982">
        <ele>146.5</ele>
        <time>2022-04-17T07:55:31.000Z</time>
      </trkpt>
      <trkpt lat="43.27418" lon="2.28982">
        <ele>146.5</ele>
        <time>2022-04-17T07:55:32.000Z</time>
      </trkpt>
      <trkpt lat="43.27418" lon="2.28982">
        <ele>146.5</ele>
        <time>2022-04-17T07:55:33.000Z</time>
      </trkpt>
      <trkpt lat="43.27418" lon="2.28982">
        <ele>146.5</ele>
        <time>2022-04-17T07:55:34.000Z</time>
      </trkpt>
      <trkpt lat="43.27418" lon="2.28982">
        <ele>146.5</ele>
        <time>2022-04-17T07:55:35.000Z</time>
      </trkpt>
      <trkpt lat="43.27418" lon="2.28982">
        <ele>146.5</ele>
        <time>2022-04-17T07:55:36.000Z</time>
      </trkpt>
      <trkpt lat="43.27418" lon="2.28982">
        <ele>146.5</ele>
        <time>2022-04-17T07:55:37.000Z</time>
      </trkpt>
      <trkpt lat="43.27418" lon="2.28982">
        <ele>146.5</ele>
        <time>2022-04-17T07:55:38.000Z</time>
      </trkpt>
      <trkpt lat="43.27418" lon="2.28982">
        <ele>146.5</ele>
        <time>2022-04-17T07:55:39.000Z</time>
      </trkpt>
      <trkpt lat="43.27417" lon="2.28981">
        <ele>146.4</ele>
        <time>2022-04-17T07:55:40.000Z</time>
      </trkpt>
      <trkpt lat="43.27417" lon="2.28981">
        <ele>146.4</ele>
        <time>2022-04-17T07:55:41.000Z</time>
      </trkpt>
      <trkpt lat="43.27417" lon="2.2898">
        <ele>146.3</ele>
        <time>2022-04-17T07:55:42.000Z</time>
      </trkpt>
      <trkpt lat="43.27417" lon="2.28979">
        <ele>146.3</ele>
        <time>2022-04-17T07:55:43.000Z</time>
      </trkpt>
      <trkpt lat="43.27418" lon="2.28978">
        <ele>146.2</ele>
        <time>2022-04-17T07:55:44.000Z</time>
      </trkpt>
      <trkpt lat="43.27418" lon="2.28977">
        <ele>146.1</ele>
        <time>2022-04-17T07:55:45.000Z</time>
      </trkpt>
      <trkpt lat="43.27419" lon="2.28976">
        <ele>146</ele>
        <time>2022-04-17T07:55:46.000Z</time>
      </trkpt>
      <trkpt lat="43.2742" lon="2.28974">
        <ele>145.9</ele>
        <time>2022-04-17T07:55:47.000Z</time>
      </trkpt>
      <trkpt lat="43.27422" lon="2.28972">
        <ele>145.8</ele>
        <time>2022-04-17T07:55:48.000Z</time>
      </trkpt>
      <trkpt lat="43.27423" lon="2.2897">
        <ele>145.7</ele>
        <time>2022-04-17T07:55:49.000Z</time>
      </trkpt>
      <trkpt lat="43.27424" lon="2.28968">
        <ele>145.5</ele>
        <time>2022-04-17T07:55:50.000Z</time>
      </trkpt>
      <trkpt lat="43.27424" lon="2.28965">
        <ele>145.3</ele>
        <time>2022-04-17T07:55:51.000Z</time>
      </trkpt>
      <trkpt lat="43.27424" lon="2.28963">
        <ele>145.1</ele>
        <time>2022-04-17T07:55:52.000Z</time>
      </trkpt>
      <trkpt lat="43.27424" lon="2.2896">
        <ele>144.9</ele>
        <time>2022-04-17T07:55:53.000Z</time>
      </trkpt>
      <trkpt lat="43.27424" lon="2.28958">
        <ele>144.7</ele>
        <time>2022-04-17T07:55:54.000Z</time>
      </trkpt>
      <trkpt lat="43.27423" lon="2.28956">
        <ele>144.5</ele>
        <time>2022-04-17T07:55:55.000Z</time>
      </trkpt>
      <trkpt lat="43.27421" lon="2.28955">
        <ele>144.4</ele>
        <time>2022-04-17T07:55:56.000Z</time>
      </trkpt>
      <trkpt lat="43.27419" lon="2.28954">
        <ele>144.2</ele>
        <time>2022-04-17T07:55:57.000Z</time>
      </trkpt>
      <trkpt lat="43.27417" lon="2.28953">
        <ele>144.1</ele>
        <time>2022-04-17T07:55:58.000Z</time>
      </trkpt>
      <trkpt lat="43.27415" lon="2.28953">
        <ele>144.1</ele>
        <time>2022-04-17T07:55:59.000Z</time>
      </trkpt>
      <trkpt lat="43.27413" lon="2.28952">
        <ele>144.1</ele>
        <time>2022-04-17T07:56:00.000Z</time>
      </trkpt>
      <trkpt lat="43.2741" lon="2.28952">
        <ele>144.1</ele>
        <time>2022-04-17T07:56:01.000Z</time>
      </trkpt>
      <trkpt lat="43.27408" lon="2.28951">
        <ele>144.1</ele>
        <time>2022-04-17T07:56:02.000Z</time>
      </trkpt>
      <trkpt lat="43.27406" lon="2.28951">
        <ele>144.2</ele>
        <time>2022-04-17T07:56:03.000Z</time>
      </trkpt>
      <trkpt lat="43.27403" lon="2.28951">
        <ele>144.2</ele>
        <time>2022-04-17T07:56:04.000Z</time>
      </trkpt>
      <trkpt lat="43.27401" lon="2.28951">
        <ele>144.3</ele>
        <time>2022-04-17T07:56:05.000Z</time>
      </trkpt>
      <trkpt lat="43.27398" lon="2.28951">
        <ele>144.3</ele>
        <time>2022-04-17T07:56:06.000Z</time>
      </trkpt>
      <trkpt lat="43.27395" lon="2.28951">
        <ele>144.4</ele>
        <time>2022-04-17T07:56:07.000Z</time>
      </trkpt>
      <trkpt lat="43.27393" lon="2.28951">
        <ele>144.4</ele>
        <time>2022-04-17T07:56:08.000Z</time>
      </trkpt>
      <trkpt lat="43.2739" lon="2.28951">
        <ele>144.5</ele>
        <time>2022-04-17T07:56:09.000Z</time>
      </trkpt>
      <trkpt lat="43.27388" lon="2.28951">
        <ele>144.5</ele>
        <time>2022-04-17T07:56:10.000Z</time>
      </trkpt>
      <trkpt lat="43.27385" lon="2.2895">
        <ele>144.6</ele>
        <time>2022-04-17T07:56:11.000Z</time>
      </trkpt>
      <trkpt lat="43.27382" lon="2.2895">
        <ele>144.6</ele>
        <time>2022-04-17T07:56:12.000Z</time>
      </trkpt>
      <trkpt lat="43.2738" lon="2.28949">
        <ele>144.6</ele>
        <time>2022-04-17T07:56:13.000Z</time>
      </trkpt>
      <trkpt lat="43.27377" lon="2.28949">
        <ele>144.7</ele>
        <time>2022-04-17T07:56:14.000Z</time>
      </trkpt>
      <trkpt lat="43.27375" lon="2.28948">
        <ele>144.7</ele>
        <time>2022-04-17T07:56:15.000Z</time>
      </trkpt>
      <trkpt lat="43.27372" lon="2.28948">
        <ele>144.7</ele>
        <time>2022-04-17T07:56:16.000Z</time>
      </trkpt>
      <trkpt lat="43.2737" lon="2.28947">
        <ele>144.7</ele>
        <time>2022-04-17T07:56:17.000Z</time>
      </trkpt>
      <trkpt lat="43.27367" lon="2.28946">
        <ele>144.6</ele>
        <time>2022-04-17T07:56:18.000Z</time>
      </trkpt>
      <trkpt lat="43.27365" lon="2.28945">
        <ele>144.6</ele>
        <time>2022-04-17T07:56:19.000Z</time>
      </trkpt>
      <trkpt lat="43.27362" lon="2.28944">
        <ele>144.6</ele>
        <time>2022-04-17T07:56:20.000Z</time>
      </trkpt>
      <trkpt lat="43.27359" lon="2.28943">
        <ele>144.6</ele>
        <time>2022-04-17T07:56:21.000Z</time>
      </trkpt>
      <trkpt lat="43.27357" lon="2.28941">
        <ele>144.5</ele>
        <time>2022-04-17T07:56:22.000Z</time>
      </trkpt>
      <trkpt lat="43.27354" lon="2.2894">
        <ele>144.5</ele>
        <time>2022-04-17T07:56:23.000Z</time>
      </trkpt>
      <trkpt lat="43.27352" lon="2.28939">
        <ele>144.4</ele>
        <time>2022-04-17T07:56:24.000Z</time>
      </trkpt>
      <trkpt lat="43.27349" lon="2.28937">
        <ele>144.3</ele>
        <time>2022-04-17T07:56:25.000Z</time>
      </trkpt>
      <trkpt lat="43.27347" lon="2.28936">
        <ele>144.3</ele>
        <time>2022-04-17T07:56:26.000Z</time>
      </trkpt>
      <trkpt lat="43.27344" lon="2.28934">
        <ele>144.2</ele>
        <time>2022-04-17T07:56:27.000Z</time>
      </trkpt>
      <trkpt lat="43.27342" lon="2.28932">
        <ele>144.1</ele>
        <time>2022-04-17T07:56:28.000Z</time>
      </trkpt>
      <trkpt lat="43.27339" lon="2.2893">
        <ele>144</ele>
        <time>2022-04-17T07:56:29.000Z</time>
      </trkpt>
      <trkpt lat="43.27337" lon="2.28928">
        <ele>143.8</ele>
        <time>2022-04-17T07:56:30.000Z</time>
      </trkpt>
      <trkpt lat="43.27335" lon="2.28925">
        <ele>143.7</ele>
        <time>2022-04-17T07:56:31.000Z</time>
      </trkpt>
      <trkpt lat="43.27333" lon="2.28922">
        <ele>143.5</ele>
        <time>2022-04-17T07:56:32.000Z</time>
      </trkpt>
      <trkpt lat="43.27331" lon="2.2892">
        <ele>143.3</ele>
        <time>2022-04-17T07:56:33.000Z</time>
      </trkpt>
      <trkpt lat="43.27329" lon="2.28917">
        <ele>143.2</ele>
        <time>2022-04-17T07:56:34.000Z</time>
      </trkpt>
      <trkpt lat="43.27327" lon="2.28914">
        <ele>143.1</ele>
        <time>2022-04-17T07:56:35.000Z</time>
      </trkpt>
      <trkpt lat="43.27325" lon="2.28911">
        <ele>143</ele>
        <time>2022-04-17T07:56:36.000Z</time>
      </trkpt>
      <trkpt lat="43.27323" lon="2.28908">
        <ele>142.9</ele>
        <time>2022-04-17T07:56:37.000Z</time>
      </trkpt>
      <trkpt lat="43.27321" lon="2.28905">
        <ele>142.8</ele>
        <time>2022-04-17T07:56:38.000Z</time>
      </trkpt>
      <trkpt lat="43.27319" lon="2.28902">
        <ele>142.6</ele>
        <time>2022-04-17T07:56:39.000Z</time>
      </trkpt>
      <trkpt lat="43.27317" lon="2.28899">
        <ele>142.5</ele>
        <time>2022-04-17T07:56:40.000Z</time>
      </trkpt>
      <trkpt lat="43.27315" lon="2.28895">
        <ele>142.3</ele>
        <time>2022-04-17T07:56:41.000Z</time>
      </trkpt>
      <trkpt lat="43.27313" lon="2.28892">
        <ele>142.1</ele>
        <time>2022-04-17T07:56:42.000Z</time>
      </trkpt>
      <trkpt lat="43.27312" lon="2.28888">
        <ele>141.9</ele>
        <time>2022-04-17T07:56:43.000Z</time>
      </trkpt>
      <trkpt lat="43.2731" lon="2.28884">
        <ele>141.6</ele>
        <time>2022-04-17T07:56:44.000Z</time>
      </trkpt>
      <trkpt lat="43.27308" lon="2.28881">
        <ele>141.4</ele>
        <time>2022-04-17T07:56:45.000Z</time>
      </trkpt>
      <trkpt lat="43.27306" lon="2.28878">
        <ele>141.2</ele>
        <time>2022-04-17T07:56:46.000Z</time>
      </trkpt>
      <trkpt lat="43.27304" lon="2.28876">
        <ele>141</ele>
        <time>2022-04-17T07:56:47.000Z</time>
      </trkpt>
      <trkpt lat="43.27303" lon="2.28873">
        <ele>140.9</ele>
        <time>2022-04-17T07:56:48.000Z</time>
      </trkpt>
      <trkpt lat="43.27301" lon="2.28871">
        <ele>140.7</ele>
        <time>2022-04-17T07:56:49.000Z</time>
      </trkpt>
      <trkpt lat="43.27299" lon="2.28869">
        <ele>140.5</ele>
        <time>2022-04-17T07:56:50.000Z</time>
      </trkpt>
      <trkpt lat="43.27297" lon="2.28867">
        <ele>140.4</ele>
        <time>2022-04-17T07:56:51.000Z</time>
      </trkpt>
      <trkpt lat="43.27294" lon="2.28866">
        <ele>140.2</ele>
        <time>2022-04-17T07:56:52.000Z</time>
      </trkpt>
      <trkpt lat="43.27292" lon="2.28864">
        <ele>140.1</ele>
        <time>2022-04-17T07:56:53.000Z</time>
      </trkpt>
      <trkpt lat="43.2729" lon="2.28863">
        <ele>140</ele>
        <time>2022-04-17T07:56:54.000Z</time>
      </trkpt>
      <trkpt lat="43.27287" lon="2.28862">
        <ele>139.8</ele>
        <time>2022-04-17T07:56:55.000Z</time>
      </trkpt>
      <trkpt lat="43.27285" lon="2.28861">
        <ele>139.7</ele>
        <time>2022-04-17T07:56:56.000Z</time>
      </trkpt>
      <trkpt lat="43.27282" lon="2.2886">
        <ele>139.6</ele>
        <time>2022-04-17T07:56:57.000Z</time>
      </trkpt>
      <trkpt lat="43.27279" lon="2.28859">
        <ele>139.5</ele>
        <time>2022-04-17T07:56:58.000Z</time>
      </trkpt>
      <trkpt lat="43.27277" lon="2.28858">
        <ele>139.3</ele>
        <time>2022-04-17T07:56:59.000Z</time>
      </trkpt>
      <trkpt lat="43.27274" lon="2.28857">
        <ele>139.2</ele>
        <time>2022-04-17T07:57:00.000Z</time>
      </trkpt>
      <trkpt lat="43.27271" lon="2.28856">
        <ele>139.1</ele>
        <time>2022-04-17T07:57:01.000Z</time>
      </trkpt>
      <trkpt lat="43.27268" lon="2.28855">
        <ele>138.9</ele>
        <time>2022-04-17T07:57:02.000Z</time>
      </trkpt>
      <trkpt lat="43.27266" lon="2.28854">
        <ele>138.8</ele>
        <time>2022-04-17T07:57:03.000Z</time>
      </trkpt>
      <trkpt lat="43.27263" lon="2.28853">
        <ele>138.6</ele>
        <time>2022-04-17T07:57:04.000Z</time>
      </trkpt>
      <trkpt lat="43.2726" lon="2.28852">
        <ele>138.4</ele>
        <time>2022-04-17T07:57:05.000Z</time>
      </trkpt>
      <trkpt lat="43.27257" lon="2.28851">
        <ele>138.3</ele>
        <time>2022-04-17T07:57:06.000Z</time>
      </trkpt>
      <trkpt lat="43.27254" lon="2.2885">
        <ele>138.1</ele>
        <time>2022-04-17T07:57:07.000Z</time>
      </trkpt>
      <trkpt lat="43.27252" lon="2.28849">
        <ele>137.9</ele>
        <time>2022-04-17T07:57:08.000Z</time>
      </trkpt>
      <trkpt lat="43.27249" lon="2.28848">
        <ele>137.7</ele>
        <time>2022-04-17T07:57:09.000Z</time>
      </trkpt>
      <trkpt lat="43.27246" lon="2.28846">
        <ele>137.7</ele>
        <time>2022-04-17T07:57:10.000Z</time>
      </trkpt>
      <trkpt lat="43.27244" lon="2.28845">
        <ele>137.6</ele>
        <time>2022-04-17T07:57:11.000Z</time>
      </trkpt>
      <trkpt lat="43.27241" lon="2.28844">
        <ele>137.5</ele>
        <time>2022-04-17T07:57:12.000Z</time>
      </trkpt>
      <trkpt lat="43.27238" lon="2.28843">
        <ele>137.4</ele>
        <time>2022-04-17T07:57:13.000Z</time>
      </trkpt>
      <trkpt lat="43.27236" lon="2.28841">
        <ele>137.3</ele>
        <time>2022-04-17T07:57:14.000Z</time>
      </trkpt>
      <trkpt lat="43.27233" lon="2.2884">
        <ele>137.3</ele>
        <time>2022-04-17T07:57:15.000Z</time>
      </trkpt>
      <trkpt lat="43.2723" lon="2.28839">
        <ele>137.2</ele>
        <time>2022-04-17T07:57:16.000Z</time>
      </trkpt>
      <trkpt lat="43.27228" lon="2.28838">
        <ele>137.1</ele>
        <time>2022-04-17T07:57:17.000Z</time>
      </trkpt>
      <trkpt lat="43.27225" lon="2.28837">
        <ele>137</ele>
        <time>2022-04-17T07:57:18.000Z</time>
      </trkpt>
      <trkpt lat="43.27222" lon="2.28835">
        <ele>136.9</ele>
        <time>2022-04-17T07:57:19.000Z</time>
      </trkpt>
      <trkpt lat="43.2722" lon="2.28834">
        <ele>136.8</ele>
        <time>2022-04-17T07:57:20.000Z</time>
      </trkpt>
      <trkpt lat="43.27217" lon="2.28833">
        <ele>136.8</ele>
        <time>2022-04-17T07:57:21.000Z</time>
      </trkpt>
      <trkpt lat="43.27215" lon="2.28832">
        <ele>136.8</ele>
        <time>2022-04-17T07:57:22.000Z</time>
      </trkpt>
      <trkpt lat="43.27212" lon="2.28831">
        <ele>136.9</ele>
        <time>2022-04-17T07:57:23.000Z</time>
      </trkpt>
      <trkpt lat="43.27209" lon="2.2883">
        <ele>136.9</ele>
        <time>2022-04-17T07:57:24.000Z</time>
      </trkpt>
      <trkpt lat="43.27207" lon="2.28828">
        <ele>137</ele>
        <time>2022-04-17T07:57:25.000Z</time>
      </trkpt>
      <trkpt lat="43.27204" lon="2.28827">
        <ele>137</ele>
        <time>2022-04-17T07:57:26.000Z</time>
      </trkpt>
      <trkpt lat="43.27201" lon="2.28826">
        <ele>137</ele>
        <time>2022-04-17T07:57:27.000Z</time>
      </trkpt>
      <trkpt lat="43.27199" lon="2.28824">
        <ele>137.1</ele>
        <time>2022-04-17T07:57:28.000Z</time>
      </trkpt>
      <trkpt lat="43.27196" lon="2.28822">
        <ele>137.1</ele>
        <time>2022-04-17T07:57:29.000Z</time>
      </trkpt>
      <trkpt lat="43.27194" lon="2.28821">
        <ele>137.1</ele>
        <time>2022-04-17T07:57:30.000Z</time>
      </trkpt>
      <trkpt lat="43.27191" lon="2.28819">
        <ele>137.1</ele>
        <time>2022-04-17T07:57:31.000Z</time>
      </trkpt>
      <trkpt lat="43.27189" lon="2.28817">
        <ele>137.1</ele>
        <time>2022-04-17T07:57:32.000Z</time>
      </trkpt>
      <trkpt lat="43.27186" lon="2.28815">
        <ele>137.1</ele>
        <time>2022-04-17T07:57:33.000Z</time>
      </trkpt>
      <trkpt lat="43.27184" lon="2.28812">
        <ele>137</ele>
        <time>2022-04-17T07:57:34.000Z</time>
      </trkpt>
      <trkpt lat="43.27182" lon="2.2881">
        <ele>137</ele>
        <time>2022-04-17T07:57:35.000Z</time>
      </trkpt>
      <trkpt lat="43.2718" lon="2.28808">
        <ele>137</ele>
        <time>2022-04-17T07:57:36.000Z</time>
      </trkpt>
      <trkpt lat="43.27178" lon="2.28805">
        <ele>136.9</ele>
        <time>2022-04-17T07:57:37.000Z</time>
      </trkpt>
      <trkpt lat="43.27175" lon="2.28803">
        <ele>136.9</ele>
        <time>2022-04-17T07:57:38.000Z</time>
      </trkpt>
      <trkpt lat="43.27173" lon="2.28801">
        <ele>136.8</ele>
        <time>2022-04-17T07:57:39.000Z</time>
      </trkpt>
      <trkpt lat="43.27171" lon="2.28798">
        <ele>136.7</ele>
        <time>2022-04-17T07:57:40.000Z</time>
      </trkpt>
      <trkpt lat="43.27169" lon="2.28796">
        <ele>136.6</ele>
        <time>2022-04-17T07:57:41.000Z</time>
      </trkpt>
      <trkpt lat="43.27166" lon="2.28793">
        <ele>136.5</ele>
        <time>2022-04-17T07:57:42.000Z</time>
      </trkpt>
      <trkpt lat="43.27164" lon="2.28791">
        <ele>136.4</ele>
        <time>2022-04-17T07:57:43.000Z</time>
      </trkpt>
      <trkpt lat="43.27162" lon="2.28788">
        <ele>136.3</ele>
        <time>2022-04-17T07:57:44.000Z</time>
      </trkpt>
      <trkpt lat="43.27159" lon="2.28786">
        <ele>136.1</ele>
        <time>2022-04-17T07:57:45.000Z</time>
      </trkpt>
      <trkpt lat="43.27157" lon="2.28783">
        <ele>136</ele>
        <time>2022-04-17T07:57:46.000Z</time>
      </trkpt>
      <trkpt lat="43.27155" lon="2.28781">
        <ele>135.8</ele>
        <time>2022-04-17T07:57:47.000Z</time>
      </trkpt>
      <trkpt lat="43.27153" lon="2.28779">
        <ele>135.6</ele>
        <time>2022-04-17T07:57:48.000Z</time>
      </trkpt>
      <trkpt lat="43.27151" lon="2.28776">
        <ele>135.5</ele>
        <time>2022-04-17T07:57:49.000Z</time>
      </trkpt>
      <trkpt lat="43.27149" lon="2.28774">
        <ele>135.3</ele>
        <time>2022-04-17T07:57:50.000Z</time>
      </trkpt>
      <trkpt lat="43.27147" lon="2.28771">
        <ele>135.1</ele>
        <time>2022-04-17T07:57:51.000Z</time>
      </trkpt>
      <trkpt lat="43.27146" lon="2.28769">
        <ele>135</ele>
        <time>2022-04-17T07:57:52.000Z</time>
      </trkpt>
      <trkpt lat="43.27145" lon="2.28766">
        <ele>134.8</ele>
        <time>2022-04-17T07:57:53.000Z</time>
      </trkpt>
      <trkpt lat="43.27144" lon="2.28763">
        <ele>134.6</ele>
        <time>2022-04-17T07:57:54.000Z</time>
      </trkpt>
      <trkpt lat="43.27142" lon="2.2876">
        <ele>134.4</ele>
        <time>2022-04-17T07:57:55.000Z</time>
      </trkpt>
      <trkpt lat="43.27142" lon="2.28756">
        <ele>134.1</ele>
        <time>2022-04-17T07:57:56.000Z</time>
      </trkpt>
      <trkpt lat="43.27141" lon="2.28753">
        <ele>133.9</ele>
        <time>2022-04-17T07:57:57.000Z</time>
      </trkpt>
      <trkpt lat="43.2714" lon="2.28749">
        <ele>133.9</ele>
        <time>2022-04-17T07:57:58.000Z</time>
      </trkpt>
      <trkpt lat="43.27139" lon="2.28745">
        <ele>134.2</ele>
        <time>2022-04-17T07:57:59.000Z</time>
      </trkpt>
      <trkpt lat="43.27139" lon="2.28741">
        <ele>134.5</ele>
        <time>2022-04-17T07:58:00.000Z</time>
      </trkpt>
      <trkpt lat="43.27138" lon="2.28737">
        <ele>134.9</ele>
        <time>2022-04-17T07:58:01.000Z</time>
      </trkpt>
      <trkpt lat="43.27138" lon="2.28733">
        <ele>135.2</ele>
        <time>2022-04-17T07:58:02.000Z</time>
      </trkpt>
      <trkpt lat="43.27137" lon="2.2873">
        <ele>135.5</ele>
        <time>2022-04-17T07:58:03.000Z</time>
      </trkpt>
      <trkpt lat="43.27137" lon="2.28727">
        <ele>135.7</ele>
        <time>2022-04-17T07:58:04.000Z</time>
      </trkpt>
      <trkpt lat="43.27136" lon="2.28724">
        <ele>136</ele>
        <time>2022-04-17T07:58:05.000Z</time>
      </trkpt>
      <trkpt lat="43.27136" lon="2.28721">
        <ele>136.2</ele>
        <time>2022-04-17T07:58:06.000Z</time>
      </trkpt>
      <trkpt lat="43.27135" lon="2.28718">
        <ele>136.4</ele>
        <time>2022-04-17T07:58:07.000Z</time>
      </trkpt>
      <trkpt lat="43.27134" lon="2.28715">
        <ele>136.6</ele>
        <time>2022-04-17T07:58:08.000Z</time>
      </trkpt>
      <trkpt lat="43.27133" lon="2.28712">
        <ele>136.8</ele>
        <time>2022-04-17T07:58:09.000Z</time>
      </trkpt>
      <trkpt lat="43.27132" lon="2.2871">
        <ele>137</ele>
        <time>2022-04-17T07:58:10.000Z</time>
      </trkpt>
      <trkpt lat="43.27131" lon="2.28707">
        <ele>137.2</ele>
        <time>2022-04-17T07:58:11.000Z</time>
      </trkpt>
      <trkpt lat="43.27129" lon="2.28704">
        <ele>137.3</ele>
        <time>2022-04-17T07:58:12.000Z</time>
      </trkpt>
      <trkpt lat="43.27128" lon="2.28702">
        <ele>137.5</ele>
        <time>2022-04-17T07:58:13.000Z</time>
      </trkpt>
      <trkpt lat="43.27126" lon="2.287">
        <ele>137.6</ele>
        <time>2022-04-17T07:58:14.000Z</time>
      </trkpt>
      <trkpt lat="43.27124" lon="2.28698">
        <ele>137.6</ele>
        <time>2022-04-17T07:58:15.000Z</time>
      </trkpt>
      <trkpt lat="43.27122" lon="2.28696">
        <ele>137.7</ele>
        <time>2022-04-17T07:58:16.000Z</time>
      </trkpt>
      <trkpt lat="43.2712" lon="2.28695">
        <ele>137.7</ele>
        <time>2022-04-17T07:58:17.000Z</time>
      </trkpt>
      <trkpt lat="43.27118" lon="2.28694">
        <ele>137.6</ele>
        <time>2022-04-17T07:58:18.000Z</time>
      </trkpt>
      <trkpt lat="43.27115" lon="2.28693">
        <ele>137.6</ele>
        <time>2022-04-17T07:58:19.000Z</time>
      </trkpt>
      <trkpt lat="43.27113" lon="2.28692">
        <ele>137.6</ele>
        <time>2022-04-17T07:58:20.000Z</time>
      </trkpt>
      <trkpt lat="43.2711" lon="2.28691">
        <ele>137.5</ele>
        <time>2022-04-17T07:58:21.000Z</time>
      </trkpt>
      <trkpt lat="43.27108" lon="2.2869">
        <ele>137.4</ele>
        <time>2022-04-17T07:58:22.000Z</time>
      </trkpt>
      <trkpt lat="43.27105" lon="2.2869">
        <ele>137.3</ele>
        <time>2022-04-17T07:58:23.000Z</time>
      </trkpt>
      <trkpt lat="43.27102" lon="2.28689">
        <ele>137.2</ele>
        <time>2022-04-17T07:58:24.000Z</time>
      </trkpt>
      <trkpt lat="43.271" lon="2.28689">
        <ele>137.1</ele>
        <time>2022-04-17T07:58:25.000Z</time>
      </trkpt>
      <trkpt lat="43.27097" lon="2.28688">
        <ele>137</ele>
        <time>2022-04-17T07:58:26.000Z</time>
      </trkpt>
      <trkpt lat="43.27094" lon="2.28687">
        <ele>136.9</ele>
        <time>2022-04-17T07:58:27.000Z</time>
      </trkpt>
      <trkpt lat="43.27091" lon="2.28687">
        <ele>136.7</ele>
        <time>2022-04-17T07:58:28.000Z</time>
      </trkpt>
      <trkpt lat="43.27088" lon="2.28686">
        <ele>136.6</ele>
        <time>2022-04-17T07:58:29.000Z</time>
      </trkpt>
      <trkpt lat="43.27085" lon="2.28686">
        <ele>136.5</ele>
        <time>2022-04-17T07:58:30.000Z</time>
      </trkpt>
      <trkpt lat="43.27082" lon="2.28685">
        <ele>136.4</ele>
        <time>2022-04-17T07:58:31.000Z</time>
      </trkpt>
      <trkpt lat="43.27079" lon="2.28684">
        <ele>136.3</ele>
        <time>2022-04-17T07:58:32.000Z</time>
      </trkpt>
      <trkpt lat="43.27076" lon="2.28684">
        <ele>136.2</ele>
        <time>2022-04-17T07:58:33.000Z</time>
      </trkpt>
      <trkpt lat="43.27074" lon="2.28683">
        <ele>136.1</ele>
        <time>2022-04-17T07:58:34.000Z</time>
      </trkpt>
      <trkpt lat="43.27071" lon="2.28682">
        <ele>136.1</ele>
        <time>2022-04-17T07:58:35.000Z</time>
      </trkpt>
      <trkpt lat="43.27068" lon="2.28681">
        <ele>136</ele>
        <time>2022-04-17T07:58:36.000Z</time>
      </trkpt>
      <trkpt lat="43.27065" lon="2.2868">
        <ele>135.9</ele>
        <time>2022-04-17T07:58:37.000Z</time>
      </trkpt>
      <trkpt lat="43.27062" lon="2.28678">
        <ele>135.8</ele>
        <time>2022-04-17T07:58:38.000Z</time>
      </trkpt>
      <trkpt lat="43.2706" lon="2.28677">
        <ele>135.7</ele>
        <time>2022-04-17T07:58:39.000Z</time>
      </trkpt>
      <trkpt lat="43.27057" lon="2.28676">
        <ele>135.7</ele>
        <time>2022-04-17T07:58:40.000Z</time>
      </trkpt>
      <trkpt lat="43.27054" lon="2.28674">
        <ele>135.6</ele>
        <time>2022-04-17T07:58:41.000Z</time>
      </trkpt>
      <trkpt lat="43.27052" lon="2.28672">
        <ele>135.5</ele>
        <time>2022-04-17T07:58:42.000Z</time>
      </trkpt>
      <trkpt lat="43.2705" lon="2.2867">
        <ele>135.4</ele>
        <time>2022-04-17T07:58:43.000Z</time>
      </trkpt>
      <trkpt lat="43.27047" lon="2.28669">
        <ele>135.3</ele>
        <time>2022-04-17T07:58:44.000Z</time>
      </trkpt>
      <trkpt lat="43.27045" lon="2.28667">
        <ele>135.2</ele>
        <time>2022-04-17T07:58:45.000Z</time>
      </trkpt>
      <trkpt lat="43.27043" lon="2.28665">
        <ele>135.2</ele>
        <time>2022-04-17T07:58:46.000Z</time>
      </trkpt>
      <trkpt lat="43.2704" lon="2.28663">
        <ele>135.2</ele>
        <time>2022-04-17T07:58:47.000Z</time>
      </trkpt>
      <trkpt lat="43.27037" lon="2.28662">
        <ele>135.1</ele>
        <time>2022-04-17T07:58:48.000Z</time>
      </trkpt>
      <trkpt lat="43.27035" lon="2.28661">
        <ele>135</ele>
        <time>2022-04-17T07:58:49.000Z</time>
      </trkpt>
      <trkpt lat="43.27032" lon="2.2866">
        <ele>134.9</ele>
        <time>2022-04-17T07:58:50.000Z</time>
      </trkpt>
      <trkpt lat="43.27029" lon="2.28659">
        <ele>134.8</ele>
        <time>2022-04-17T07:58:51.000Z</time>
      </trkpt>
      <trkpt lat="43.27026" lon="2.28658">
        <ele>134.6</ele>
        <time>2022-04-17T07:58:52.000Z</time>
      </trkpt>
      <trkpt lat="43.27024" lon="2.28657">
        <ele>134.5</ele>
        <time>2022-04-17T07:58:53.000Z</time>
      </trkpt>
      <trkpt lat="43.27021" lon="2.28656">
        <ele>134.4</ele>
        <time>2022-04-17T07:58:54.000Z</time>
      </trkpt>
      <trkpt lat="43.27019" lon="2.28656">
        <ele>134.3</ele>
        <time>2022-04-17T07:58:55.000Z</time>
      </trkpt>
      <trkpt lat="43.27017" lon="2.28655">
        <ele>134.2</ele>
        <time>2022-04-17T07:58:56.000Z</time>
      </trkpt>
      <trkpt lat="43.27015" lon="2.28654">
        <ele>134.1</ele>
        <time>2022-04-17T07:58:57.000Z</time>
      </trkpt>
      <trkpt lat="43.27012" lon="2.28654">
        <ele>134</ele>
        <time>2022-04-17T07:58:58.000Z</time>
      </trkpt>
      <trkpt lat="43.2701" lon="2.28653">
        <ele>133.8</ele>
        <time>2022-04-17T07:58:59.000Z</time>
      </trkpt>
      <trkpt lat="43.27007" lon="2.28653">
        <ele>133.7</ele>
        <time>2022-04-17T07:59:00.000Z</time>
      </trkpt>
      <trkpt lat="43.27005" lon="2.28652">
        <ele>133.6</ele>
        <time>2022-04-17T07:59:01.000Z</time>
      </trkpt>
      <trkpt lat="43.27002" lon="2.28651">
        <ele>133.5</ele>
        <time>2022-04-17T07:59:02.000Z</time>
      </trkpt>
      <trkpt lat="43.26999" lon="2.2865">
        <ele>133.4</ele>
        <time>2022-04-17T07:59:03.000Z</time>
      </trkpt>
      <trkpt lat="43.26997" lon="2.28649">
        <ele>133.4</ele>
        <time>2022-04-17T07:59:04.000Z</time>
      </trkpt>
      <trkpt lat="43.26995" lon="2.28648">
        <ele>133.4</ele>
        <time>2022-04-17T07:59:05.000Z</time>
      </trkpt>
      <trkpt lat="43.26992" lon="2.28647">
        <ele>133.4</ele>
        <time>2022-04-17T07:59:06.000Z</time>
      </trkpt>
      <trkpt lat="43.2699" lon="2.28646">
        <ele>133.4</ele>
        <time>2022-04-17T07:59:07.000Z</time>
      </trkpt>
      <trkpt lat="43.26988" lon="2.28645">
        <ele>133.3</ele>
        <time>2022-04-17T07:59:08.000Z</time>
      </trkpt>
      <trkpt lat="43.26985" lon="2.28644">
        <ele>133.3</ele>
        <time>2022-04-17T07:59:09.000Z</time>
      </trkpt>
      <trkpt lat="43.26983" lon="2.28643">
        <ele>133.3</ele>
        <time>2022-04-17T07:59:10.000Z</time>
      </trkpt>
      <trkpt lat="43.26981" lon="2.28643">
        <ele>133.2</ele>
        <time>2022-04-17T07:59:11.000Z</time>
      </trkpt>
      <trkpt lat="43.2698" lon="2.28642">
        <ele>133.2</ele>
        <time>2022-04-17T07:59:12.000Z</time>
      </trkpt>
      <trkpt lat="43.26978" lon="2.28641">
        <ele>133.2</ele>
        <time>2022-04-17T07:59:13.000Z</time>
      </trkpt>
      <trkpt lat="43.26977" lon="2.28641">
        <ele>133.1</ele>
        <time>2022-04-17T07:59:14.000Z</time>
      </trkpt>
      <trkpt lat="43.26976" lon="2.2864">
        <ele>133.1</ele>
        <time>2022-04-17T07:59:15.000Z</time>
      </trkpt>
      <trkpt lat="43.26975" lon="2.2864">
        <ele>133.1</ele>
        <time>2022-04-17T07:59:16.000Z</time>
      </trkpt>
      <trkpt lat="43.26975" lon="2.28639">
        <ele>133.1</ele>
        <time>2022-04-17T07:59:17.000Z</time>
      </trkpt>
      <trkpt lat="43.26974" lon="2.28639">
        <ele>133.1</ele>
        <time>2022-04-17T07:59:18.000Z</time>
      </trkpt>
      <trkpt lat="43.26973" lon="2.28638">
        <ele>133.1</ele>
        <time>2022-04-17T07:59:19.000Z</time>
      </trkpt>
      <trkpt lat="43.26972" lon="2.28638">
        <ele>133</ele>
        <time>2022-04-17T07:59:20.000Z</time>
      </trkpt>
      <trkpt lat="43.26971" lon="2.28638">
        <ele>133</ele>
        <time>2022-04-17T07:59:21.000Z</time>
      </trkpt>
      <trkpt lat="43.26971" lon="2.28637">
        <ele>133</ele>
        <time>2022-04-17T07:59:22.000Z</time>
      </trkpt>
      <trkpt lat="43.2697" lon="2.28637">
        <ele>133</ele>
        <time>2022-04-17T07:59:23.000Z</time>
      </trkpt>
      <trkpt lat="43.2697" lon="2.28637">
        <ele>133</ele>
        <time>2022-04-17T07:59:24.000Z</time>
      </trkpt>
      <trkpt lat="43.26969" lon="2.28637">
        <ele>132.9</ele>
        <time>2022-04-17T07:59:25.000Z</time>
      </trkpt>
      <trkpt lat="43.26969" lon="2.28637">
        <ele>132.9</ele>
        <time>2022-04-17T07:59:26.000Z</time>
      </trkpt>
      <trkpt lat="43.26969" lon="2.28637">
        <ele>132.9</ele>
        <time>2022-04-17T07:59:27.000Z</time>
      </trkpt>
      <trkpt lat="43.26969" lon="2.28636">
        <ele>133</ele>
        <time>2022-04-17T07:59:28.000Z</time>
      </trkpt>
      <trkpt lat="43.26969" lon="2.28635">
        <ele>133</ele>
        <time>2022-04-17T07:59:29.000Z</time>
      </trkpt>
      <trkpt lat="43.26969" lon="2.28634">
        <ele>133</ele>
        <time>2022-04-17T07:59:30.000Z</time>
      </trkpt>
      <trkpt lat="43.26969" lon="2.28633">
        <ele>133.1</ele>
        <time>2022-04-17T07:59:31.000Z</time>
      </trkpt>
      <trkpt lat="43.26969" lon="2.28632">
        <ele>133.1</ele>
        <time>2022-04-17T07:59:32.000Z</time>
      </trkpt>
      <trkpt lat="43.26969" lon="2.28631">
        <ele>133.2</ele>
        <time>2022-04-17T07:59:33.000Z</time>
      </trkpt>
      <trkpt lat="43.26969" lon="2.2863">
        <ele>133.2</ele>
        <time>2022-04-17T07:59:34.000Z</time>
      </trkpt>
      <trkpt lat="43.26969" lon="2.2863">
        <ele>133.2</ele>
        <time>2022-04-17T07:59:35.000Z</time>
      </trkpt>
      <trkpt lat="43.26969" lon="2.2863">
        <ele>133.3</ele>
        <time>2022-04-17T07:59:36.000Z</time>
      </trkpt>
      <trkpt lat="43.26969" lon="2.2863">
        <ele>133.3</ele>
        <time>2022-04-17T07:59:37.000Z</time>
      </trkpt>
      <trkpt lat="43.26969" lon="2.2863">
        <ele>133.3</ele>
        <time>2022-04-17T07:59:38.000Z</time>
      </trkpt>
      <trkpt lat="43.26969" lon="2.2863">
        <ele>133.2</ele>
        <time>2022-04-17T07:59:39.000Z</time>
      </trkpt>
      <trkpt lat="43.26969" lon="2.2863">
        <ele>133.2</ele>
        <time>2022-04-17T07:59:40.000Z</time>
      </trkpt>
      <trkpt lat="43.26969" lon="2.2863">
        <ele>133.2</ele>
        <time>2022-04-17T07:59:41.000Z</time>
      </trkpt>
      <trkpt lat="43.26969" lon="2.28629">
        <ele>133.2</ele>
        <time>2022-04-17T07:59:42.000Z</time>
      </trkpt>
      <trkpt lat="43.26969" lon="2.28629">
        <ele>133.3</ele>
        <time>2022-04-17T07:59:43.000Z</time>
      </trkpt>
      <trkpt lat="43.26969" lon="2.28629">
        <ele>133.3</ele>
        <time>2022-04-17T07:59:44.000Z</time>
      </trkpt>
      <trkpt lat="43.26969" lon="2.28628">
        <ele>133.3</ele>
        <time>2022-04-17T07:59:45.000Z</time>
      </trkpt>
      <trkpt lat="43.26968" lon="2.28628">
        <ele>133.3</ele>
        <time>2022-04-17T07:59:46.000Z</time>
      </trkpt>
      <trkpt lat="43.26968" lon="2.28627">
        <ele>133.3</ele>
        <time>2022-04-17T07:59:47.000Z</time>
      </trkpt>
      <trkpt lat="43.26968" lon="2.28626">
        <ele>133.3</ele>
        <time>2022-04-17T07:59:48.000Z</time>
      </trkpt>
      <trkpt lat="43.26967" lon="2.28625">
        <ele>133.3</ele>
        <time>2022-04-17T07:59:49.000Z</time>
      </trkpt>
      <trkpt lat="43.26967" lon="2.28624">
        <ele>133.3</ele>
        <time>2022-04-17T07:59:50.000Z</time>
      </trkpt>
      <trkpt lat="43.26966" lon="2.28623">
        <ele>133.3</ele>
        <time>2022-04-17T07:59:51.000Z</time>
      </trkpt>
      <trkpt lat="43.26966" lon="2.28622">
        <ele>133.3</ele>
        <time>2022-04-17T07:59:52.000Z</time>
      </trkpt>
      <trkpt lat="43.26965" lon="2.28621">
        <ele>133.3</ele>
        <time>2022-04-17T07:59:53.000Z</time>
      </trkpt>
      <trkpt lat="43.26964" lon="2.2862">
        <ele>133.3</ele>
        <time>2022-04-17T07:59:54.000Z</time>
      </trkpt>
      <trkpt lat="43.26963" lon="2.28619">
        <ele>133.3</ele>
        <time>2022-04-17T07:59:55.000Z</time>
      </trkpt>
      <trkpt lat="43.26962" lon="2.28617">
        <ele>133.3</ele>
        <time>2022-04-17T07:59:56.000Z</time>
      </trkpt>
      <trkpt lat="43.26961" lon="2.28616">
        <ele>133.2</ele>
        <time>2022-04-17T07:59:57.000Z</time>
      </trkpt>
      <trkpt lat="43.2696" lon="2.28615">
        <ele>133.2</ele>
        <time>2022-04-17T07:59:58.000Z</time>
      </trkpt>
      <trkpt lat="43.26959" lon="2.28613">
        <ele>133.2</ele>
        <time>2022-04-17T07:59:59.000Z</time>
      </trkpt>
      <trkpt lat="43.26958" lon="2.28612">
        <ele>133.1</ele>
        <time>2022-04-17T08:00:00.000Z</time>
      </trkpt>
      <trkpt lat="43.26957" lon="2.2861">
        <ele>133.1</ele>
        <time>2022-04-17T08:00:01.000Z</time>
      </trkpt>
      <trkpt lat="43.26956" lon="2.28609">
        <ele>133.1</ele>
        <time>2022-04-17T08:00:02.000Z</time>
      </trkpt>
      <trkpt lat="43.26956" lon="2.28608">
        <ele>133</ele>
        <time>2022-04-17T08:00:03.000Z</time>
      </trkpt>
      <trkpt lat="43.26955" lon="2.28606">
        <ele>133</ele>
        <time>2022-04-17T08:00:04.000Z</time>
      </trkpt>
      <trkpt lat="43.26954" lon="2.28605">
        <ele>132.9</ele>
        <time>2022-04-17T08:00:05.000Z</time>
      </trkpt>
      <trkpt lat="43.26953" lon="2.28603">
        <ele>132.9</ele>
        <time>2022-04-17T08:00:06.000Z</time>
      </trkpt>
      <trkpt lat="43.26952" lon="2.28602">
        <ele>132.9</ele>
        <time>2022-04-17T08:00:07.000Z</time>
      </trkpt>
      <trkpt lat="43.26952" lon="2.286">
        <ele>132.8</ele>
        <time>2022-04-17T08:00:08.000Z</time>
      </trkpt>
      <trkpt lat="43.26951" lon="2.28599">
        <ele>132.8</ele>
        <time>2022-04-17T08:00:09.000Z</time>
      </trkpt>
      <trkpt lat="43.2695" lon="2.28597">
        <ele>132.7</ele>
        <time>2022-04-17T08:00:10.000Z</time>
      </trkpt>
      <trkpt lat="43.26949" lon="2.28596">
        <ele>132.7</ele>
        <time>2022-04-17T08:00:11.000Z</time>
      </trkpt>
      <trkpt lat="43.26948" lon="2.28595">
        <ele>132.6</ele>
        <time>2022-04-17T08:00:12.000Z</time>
      </trkpt>
      <trkpt lat="43.26947" lon="2.28594">
        <ele>132.5</ele>
        <time>2022-04-17T08:00:13.000Z</time>
      </trkpt>
      <trkpt lat="43.26946" lon="2.28592">
        <ele>132.4</ele>
        <time>2022-04-17T08:00:14.000Z</time>
      </trkpt>
      <trkpt lat="43.26945" lon="2.28591">
        <ele>132.3</ele>
        <time>2022-04-17T08:00:15.000Z</time>
      </trkpt>
      <trkpt lat="43.26944" lon="2.2859">
        <ele>132.2</ele>
        <time>2022-04-17T08:00:16.000Z</time>
      </trkpt>
      <trkpt lat="43.26943" lon="2.28589">
        <ele>132.1</ele>
        <time>2022-04-17T08:00:17.000Z</time>
      </trkpt>
      <trkpt lat="43.26942" lon="2.28588">
        <ele>131.9</ele>
        <time>2022-04-17T08:00:18.000Z</time>
      </trkpt>
      <trkpt lat="43.2694" lon="2.28587">
        <ele>131.8</ele>
        <time>2022-04-17T08:00:19.000Z</time>
      </trkpt>
      <trkpt lat="43.26939" lon="2.28586">
        <ele>131.7</ele>
        <time>2022-04-17T08:00:20.000Z</time>
      </trkpt>
      <trkpt lat="43.26938" lon="2.28584">
        <ele>131.6</ele>
        <time>2022-04-17T08:00:21.000Z</time>
      </trkpt>
      <trkpt lat="43.26937" lon="2.28583">
        <ele>131.4</ele>
        <time>2022-04-17T08:00:22.000Z</time>
      </trkpt>
      <trkpt lat="43.26936" lon="2.28582">
        <ele>131.3</ele>
        <time>2022-04-17T08:00:23.000Z</time>
      </trkpt>
      <trkpt lat="43.26935" lon="2.28581">
        <ele>131.1</ele>
        <time>2022-04-17T08:00:24.000Z</time>
      </trkpt>
      <trkpt lat="43.26934" lon="2.2858">
        <ele>131</ele>
        <time>2022-04-17T08:00:25.000Z</time>
      </trkpt>
      <trkpt lat="43.26934" lon="2.28579">
        <ele>130.9</ele>
        <time>2022-04-17T08:00:26.000Z</time>
      </trkpt>
      <trkpt lat="43.26933" lon="2.28578">
        <ele>130.8</ele>
        <time>2022-04-17T08:00:27.000Z</time>
      </trkpt>
      <trkpt lat="43.26932" lon="2.28577">
        <ele>130.7</ele>
        <time>2022-04-17T08:00:28.000Z</time>
      </trkpt>
      <trkpt lat="43.26932" lon="2.28577">
        <ele>130.6</ele>
        <time>2022-04-17T08:00:29.000Z</time>
      </trkpt>
      <trkpt lat="43.26932" lon="2.28576">
        <ele>130.6</ele>
        <time>2022-04-17T08:00:30.000Z</time>
      </trkpt>
      <trkpt lat="43.26931" lon="2.28576">
        <ele>130.5</ele>
        <time>2022-04-17T08:00:31.000Z</time>
      </trkpt>
      <trkpt lat="43.26931" lon="2.28576">
        <ele>130.5</ele>
        <time>2022-04-17T08:00:32.000Z</time>
      </trkpt>
      <trkpt lat="43.26931" lon="2.28576">
        <ele>130.5</ele>
        <time>2022-04-17T08:00:33.000Z</time>
      </trkpt>
      <trkpt lat="43.2693" lon="2.28576">
        <ele>130.4</ele>
        <time>2022-04-17T08:00:34.000Z</time>
      </trkpt>
      <trkpt lat="43.2693" lon="2.28576">
        <ele>130.4</ele>
        <time>2022-04-17T08:00:35.000Z</time>
      </trkpt>
      <trkpt lat="43.2693" lon="2.28576">
        <ele>130.4</ele>
        <time>2022-04-17T08:00:36.000Z</time>
      </trkpt>
      <trkpt lat="43.2693" lon="2.28575">
        <ele>130.4</ele>
        <time>2022-04-17T08:00:37.000Z</time>
      </trkpt>
      <trkpt lat="43.2693" lon="2.28575">
        <ele>130.4</ele>
        <time>2022-04-17T08:00:38.000Z</time>
      </trkpt>
      <trkpt lat="43.2693" lon="2.28575">
        <ele>130.4</ele>
        <time>2022-04-17T08:00:39.000Z</time>
      </trkpt>
      <trkpt lat="43.2693" lon="2.28575">
        <ele>130.4</ele>
        <time>2022-04-17T08:00:40.000Z</time>
      </trkpt>
      <trkpt lat="43.26931" lon="2.28574">
        <ele>130.4</ele>
        <time>2022-04-17T08:00:41.000Z</time>
      </trkpt>
      <trkpt lat="43.26931" lon="2.28574">
        <ele>130.5</ele>
        <time>2022-04-17T08:00:42.000Z</time>
      </trkpt>
      <trkpt lat="43.26932" lon="2.28574">
        <ele>130.5</ele>
        <time>2022-04-17T08:00:43.000Z</time>
      </trkpt>
      <trkpt lat="43.26932" lon="2.28575">
        <ele>130.6</ele>
        <time>2022-04-17T08:00:44.000Z</time>
      </trkpt>
      <trkpt lat="43.26933" lon="2.28575">
        <ele>130.7</ele>
        <time>2022-04-17T08:00:45.000Z</time>
      </trkpt>
      <trkpt lat="43.26934" lon="2.28577">
        <ele>130.8</ele>
        <time>2022-04-17T08:00:46.000Z</time>
      </trkpt>
      <trkpt lat="43.26934" lon="2.28578">
        <ele>130.9</ele>
        <time>2022-04-17T08:00:47.000Z</time>
      </trkpt>
      <trkpt lat="43.26935" lon="2.28579">
        <ele>131</ele>
        <time>2022-04-17T08:00:48.000Z</time>
      </trkpt>
      <trkpt lat="43.26935" lon="2.28581">
        <ele>131.2</ele>
        <time>2022-04-17T08:00:49.000Z</time>
      </trkpt>
      <trkpt lat="43.26936" lon="2.28582">
        <ele>131.3</ele>
        <time>2022-04-17T08:00:50.000Z</time>
      </trkpt>
      <trkpt lat="43.26937" lon="2.28583">
        <ele>131.4</ele>
        <time>2022-04-17T08:00:51.000Z</time>
      </trkpt>
      <trkpt lat="43.26938" lon="2.28583">
        <ele>131.5</ele>
        <time>2022-04-17T08:00:52.000Z</time>
      </trkpt>
      <trkpt lat="43.26938" lon="2.28583">
        <ele>131.6</ele>
        <time>2022-04-17T08:00:53.000Z</time>
      </trkpt>
      <trkpt lat="43.26939" lon="2.28584">
        <ele>131.7</ele>
        <time>2022-04-17T08:00:54.000Z</time>
      </trkpt>
      <trkpt lat="43.2694" lon="2.28584">
        <ele>131.7</ele>
        <time>2022-04-17T08:00:55.000Z</time>
      </trkpt>
      <trkpt lat="43.2694" lon="2.28585">
        <ele>131.8</ele>
        <time>2022-04-17T08:00:56.000Z</time>
      </trkpt>
      <trkpt lat="43.26941" lon="2.28585">
        <ele>131.9</ele>
        <time>2022-04-17T08:00:57.000Z</time>
      </trkpt>
      <trkpt lat="43.26941" lon="2.28586">
        <ele>131.9</ele>
        <time>2022-04-17T08:00:58.000Z</time>
      </trkpt>
      <trkpt lat="43.26942" lon="2.28587">
        <ele>132</ele>
        <time>2022-04-17T08:00:59.000Z</time>
      </trkpt>
      <trkpt lat="43.26943" lon="2.28588">
        <ele>132.2</ele>
        <time>2022-04-17T08:01:00.000Z</time>
      </trkpt>
      <trkpt lat="43.26945" lon="2.28589">
        <ele>132.3</ele>
        <time>2022-04-17T08:01:01.000Z</time>
      </trkpt>
      <trkpt lat="43.26946" lon="2.2859">
        <ele>132.4</ele>
        <time>2022-04-17T08:01:02.000Z</time>
      </trkpt>
      <trkpt lat="43.26947" lon="2.28592">
        <ele>132.5</ele>
        <time>2022-04-17T08:01:03.000Z</time>
      </trkpt>
      <trkpt lat="43.26949" lon="2.28593">
        <ele>132.7</ele>
        <time>2022-04-17T08:01:04.000Z</time>
      </trkpt>
      <trkpt lat="43.2695" lon="2.28595">
        <ele>132.8</ele>
        <time>2022-04-17T08:01:05.000Z</time>
      </trkpt>
      <trkpt lat="43.26952" lon="2.28596">
        <ele>132.9</ele>
        <time>2022-04-17T08:01:06.000Z</time>
      </trkpt>
      <trkpt lat="43.26953" lon="2.28598">
        <ele>133</ele>
        <time>2022-04-17T08:01:07.000Z</time>
      </trkpt>
      <trkpt lat="43.26954" lon="2.28599">
        <ele>133.1</ele>
        <time>2022-04-17T08:01:08.000Z</time>
      </trkpt>
      <trkpt lat="43.26955" lon="2.28601">
        <ele>133.2</ele>
        <time>2022-04-17T08:01:09.000Z</time>
      </trkpt>
      <trkpt lat="43.26956" lon="2.28602">
        <ele>133.2</ele>
        <time>2022-04-17T08:01:10.000Z</time>
      </trkpt>
      <trkpt lat="43.26957" lon="2.28604">
        <ele>133.3</ele>
        <time>2022-04-17T08:01:11.000Z</time>
      </trkpt>
      <trkpt lat="43.26958" lon="2.28605">
        <ele>133.3</ele>
        <time>2022-04-17T08:01:12.000Z</time>
      </trkpt>
      <trkpt lat="43.26959" lon="2.28607">
        <ele>133.4</ele>
        <time>2022-04-17T08:01:13.000Z</time>
      </trkpt>
      <trkpt lat="43.2696" lon="2.28609">
        <ele>133.4</ele>
        <time>2022-04-17T08:01:14.000Z</time>
      </trkpt>
      <trkpt lat="43.26961" lon="2.28611">
        <ele>133.4</ele>
        <time>2022-04-17T08:01:15.000Z</time>
      </trkpt>
      <trkpt lat="43.26963" lon="2.28612">
        <ele>133.5</ele>
        <time>2022-04-17T08:01:16.000Z</time>
      </trkpt>
      <trkpt lat="43.26964" lon="2.28614">
        <ele>133.5</ele>
        <time>2022-04-17T08:01:17.000Z</time>
      </trkpt>
      <trkpt lat="43.26965" lon="2.28616">
        <ele>133.5</ele>
        <time>2022-04-17T08:01:18.000Z</time>
      </trkpt>
      <trkpt lat="43.26966" lon="2.28616">
        <ele>133.6</ele>
        <time>2022-04-17T08:01:19.000Z</time>
      </trkpt>
      <trkpt lat="43.26967" lon="2.28617">
        <ele>133.6</ele>
        <time>2022-04-17T08:01:20.000Z</time>
      </trkpt>
      <trkpt lat="43.26967" lon="2.28616">
        <ele>133.7</ele>
        <time>2022-04-17T08:01:21.000Z</time>
      </trkpt>
      <trkpt lat="43.26968" lon="2.28615">
        <ele>133.8</ele>
        <time>2022-04-17T08:01:22.000Z</time>
      </trkpt>
      <trkpt lat="43.26968" lon="2.28613">
        <ele>133.9</ele>
        <time>2022-04-17T08:01:23.000Z</time>
      </trkpt>
      <trkpt lat="43.26968" lon="2.28612">
        <ele>134</ele>
        <time>2022-04-17T08:01:24.000Z</time>
      </trkpt>
      <trkpt lat="43.26968" lon="2.2861">
        <ele>134</ele>
        <time>2022-04-17T08:01:25.000Z</time>
      </trkpt>
      <trkpt lat="43.26968" lon="2.28608">
        <ele>134.1</ele>
        <time>2022-04-17T08:01:26.000Z</time>
      </trkpt>
      <trkpt lat="43.26967" lon="2.28606">
        <ele>134.1</ele>
        <time>2022-04-17T08:01:27.000Z</time>
      </trkpt>
      <trkpt lat="43.26966" lon="2.28604">
        <ele>134.1</ele>
        <time>2022-04-17T08:01:28.000Z</time>
      </trkpt>
      <trkpt lat="43.26965" lon="2.28602">
        <ele>134.1</ele>
        <time>2022-04-17T08:01:29.000Z</time>
      </trkpt>
      <trkpt lat="43.26965" lon="2.28601">
        <ele>134.1</ele>
        <time>2022-04-17T08:01:30.000Z</time>
      </trkpt>
      <trkpt lat="43.26964" lon="2.28599">
        <ele>134.1</ele>
        <time>2022-04-17T08:01:31.000Z</time>
      </trkpt>
      <trkpt lat="43.26963" lon="2.28598">
        <ele>134.1</ele>
        <time>2022-04-17T08:01:32.000Z</time>
      </trkpt>
      <trkpt lat="43.26963" lon="2.28597">
        <ele>134</ele>
        <time>2022-04-17T08:01:33.000Z</time>
      </trkpt>
      <trkpt lat="43.26962" lon="2.28596">
        <ele>134</ele>
        <time>2022-04-17T08:01:34.000Z</time>
      </trkpt>
      <trkpt lat="43.26962" lon="2.28595">
        <ele>134</ele>
        <time>2022-04-17T08:01:35.000Z</time>
      </trkpt>
      <trkpt lat="43.26961" lon="2.28595">
        <ele>134</ele>
        <time>2022-04-17T08:01:36.000Z</time>
      </trkpt>
      <trkpt lat="43.26961" lon="2.28594">
        <ele>133.9</ele>
        <time>2022-04-17T08:01:37.000Z</time>
      </trkpt>
      <trkpt lat="43.2696" lon="2.28593">
        <ele>133.8</ele>
        <time>2022-04-17T08:01:38.000Z</time>
      </trkpt>
      <trkpt lat="43.26958" lon="2.28592">
        <ele>133.7</ele>
        <time>2022-04-17T08:01:39.000Z</time>
      </trkpt>
      <trkpt lat="43.26957" lon="2.28591">
        <ele>133.6</ele>
        <time>2022-04-17T08:01:40.000Z</time>
      </trkpt>
      <trkpt lat="43.26955" lon="2.2859">
        <ele>133.4</ele>
        <time>2022-04-17T08:01:41.000Z</time>
      </trkpt>
      <trkpt lat="43.26953" lon="2.28589">
        <ele>133.3</ele>
        <time>2022-04-17T08:01:42.000Z</time>
      </trkpt>
      <trkpt lat="43.26951" lon="2.28587">
        <ele>133.1</ele>
        <time>2022-04-17T08:01:43.000Z</time>
      </trkpt>
      <trkpt lat="43.2695" lon="2.28585">
        <ele>132.9</ele>
        <time>2022-04-17T08:01:44.000Z</time>
      </trkpt>
      <trkpt lat="43.26948" lon="2.28584">
        <ele>132.7</ele>
        <time>2022-04-17T08:01:45.000Z</time>
      </trkpt>
      <trkpt lat="43.26946" lon="2.28582">
        <ele>132.5</ele>
        <time>2022-04-17T08:01:46.000Z</time>
      </trkpt>
      <trkpt lat="43.26945" lon="2.2858">
        <ele>132.3</ele>
        <time>2022-04-17T08:01:47.000Z</time>
      </trkpt>
      <trkpt lat="43.26943" lon="2.28577">
        <ele>132</ele>
        <time>2022-04-17T08:01:48.000Z</time>
      </trkpt>
      <trkpt lat="43.26942" lon="2.28575">
        <ele>131.8</ele>
        <time>2022-04-17T08:01:49.000Z</time>
      </trkpt>
      <trkpt lat="43.26941" lon="2.28573">
        <ele>131.6</ele>
        <time>2022-04-17T08:01:50.000Z</time>
      </trkpt>
      <trkpt lat="43.26939" lon="2.28571">
        <ele>131.3</ele>
        <time>2022-04-17T08:01:51.000Z</time>
      </trkpt>
      <trkpt lat="43.26938" lon="2.28569">
        <ele>131.1</ele>
        <time>2022-04-17T08:01:52.000Z</time>
      </trkpt>
      <trkpt lat="43.26936" lon="2.28567">
        <ele>130.9</ele>
        <time>2022-04-17T08:01:53.000Z</time>
      </trkpt>
      <trkpt lat="43.26935" lon="2.28565">
        <ele>130.7</ele>
        <time>2022-04-17T08:01:54.000Z</time>
      </trkpt>
      <trkpt lat="43.26933" lon="2.28564">
        <ele>130.4</ele>
        <time>2022-04-17T08:01:55.000Z</time>
      </trkpt>
      <trkpt lat="43.26932" lon="2.28562">
        <ele>130.2</ele>
        <time>2022-04-17T08:01:56.000Z</time>
      </trkpt>
      <trkpt lat="43.2693" lon="2.2856">
        <ele>130</ele>
        <time>2022-04-17T08:01:57.000Z</time>
      </trkpt>
      <trkpt lat="43.26929" lon="2.28559">
        <ele>129.8</ele>
        <time>2022-04-17T08:01:58.000Z</time>
      </trkpt>
      <trkpt lat="43.26927" lon="2.28557">
        <ele>129.5</ele>
        <time>2022-04-17T08:01:59.000Z</time>
      </trkpt>
      <trkpt lat="43.26926" lon="2.28556">
        <ele>129.3</ele>
        <time>2022-04-17T08:02:00.000Z</time>
      </trkpt>
      <trkpt lat="43.26924" lon="2.28554">
        <ele>129.1</ele>
        <time>2022-04-17T08:02:01.000Z</time>
      </trkpt>
      <trkpt lat="43.26923" lon="2.28552">
        <ele>128.9</ele>
        <time>2022-04-17T08:02:02.000Z</time>
      </trkpt>
      <trkpt lat="43.26921" lon="2.28551">
        <ele>128.7</ele>
        <time>2022-04-17T08:02:03.000Z</time>
      </trkpt>
      <trkpt lat="43.2692" lon="2.28549">
        <ele>128.5</ele>
        <time>2022-04-17T08:02:04.000Z</time>
      </trkpt>
      <trkpt lat="43.26918" lon="2.28548">
        <ele>128.3</ele>
        <time>2022-04-17T08:02:05.000Z</time>
      </trkpt>
      <trkpt lat="43.26917" lon="2.28546">
        <ele>128.1</ele>
        <time>2022-04-17T08:02:06.000Z</time>
      </trkpt>
      <trkpt lat="43.26915" lon="2.28544">
        <ele>128.1</ele>
        <time>2022-04-17T08:02:07.000Z</time>
      </trkpt>
      <trkpt lat="43.26914" lon="2.28542">
        <ele>128</ele>
        <time>2022-04-17T08:02:08.000Z</time>
      </trkpt>
      <trkpt lat="43.26913" lon="2.2854">
        <ele>128</ele>
        <time>2022-04-17T08:02:09.000Z</time>
      </trkpt>
      <trkpt lat="43.26912" lon="2.28538">
        <ele>127.9</ele>
        <time>2022-04-17T08:02:10.000Z</time>
      </trkpt>
      <trkpt lat="43.2691" lon="2.28536">
        <ele>127.9</ele>
        <time>2022-04-17T08:02:11.000Z</time>
      </trkpt>
      <trkpt lat="43.26909" lon="2.28534">
        <ele>127.8</ele>
        <time>2022-04-17T08:02:12.000Z</time>
      </trkpt>
      <trkpt lat="43.26908" lon="2.28531">
        <ele>127.8</ele>
        <time>2022-04-17T08:02:13.000Z</time>
      </trkpt>
      <trkpt lat="43.26907" lon="2.28529">
        <ele>127.7</ele>
        <time>2022-04-17T08:02:14.000Z</time>
      </trkpt>
      <trkpt lat="43.26905" lon="2.28526">
        <ele>127.6</ele>
        <time>2022-04-17T08:02:15.000Z</time>
      </trkpt>
      <trkpt lat="43.26904" lon="2.28524">
        <ele>127.5</ele>
        <time>2022-04-17T08:02:16.000Z</time>
      </trkpt>
      <trkpt lat="43.26903" lon="2.28521">
        <ele>127.5</ele>
        <time>2022-04-17T08:02:17.000Z</time>
      </trkpt>
      <trkpt lat="43.26901" lon="2.28519">
        <ele>127.4</ele>
        <time>2022-04-17T08:02:18.000Z</time>
      </trkpt>
      <trkpt lat="43.269" lon="2.28516">
        <ele>127.3</ele>
        <time>2022-04-17T08:02:19.000Z</time>
      </trkpt>
      <trkpt lat="43.26899" lon="2.28514">
        <ele>127.2</ele>
        <time>2022-04-17T08:02:20.000Z</time>
      </trkpt>
      <trkpt lat="43.26898" lon="2.28512">
        <ele>127.2</ele>
        <time>2022-04-17T08:02:21.000Z</time>
      </trkpt>
      <trkpt lat="43.26896" lon="2.2851">
        <ele>127.1</ele>
        <time>2022-04-17T08:02:22.000Z</time>
      </trkpt>
      <trkpt lat="43.26895" lon="2.28508">
        <ele>127</ele>
        <time>2022-04-17T08:02:23.000Z</time>
      </trkpt>
      <trkpt lat="43.26894" lon="2.28505">
        <ele>126.9</ele>
        <time>2022-04-17T08:02:24.000Z</time>
      </trkpt>
      <trkpt lat="43.26893" lon="2.28503">
        <ele>126.8</ele>
        <time>2022-04-17T08:02:25.000Z</time>
      </trkpt>
      <trkpt lat="43.26891" lon="2.28501">
        <ele>126.7</ele>
        <time>2022-04-17T08:02:26.000Z</time>
      </trkpt>
      <trkpt lat="43.2689" lon="2.28498">
        <ele>126.7</ele>
        <time>2022-04-17T08:02:27.000Z</time>
      </trkpt>
      <trkpt lat="43.26889" lon="2.28496">
        <ele>126.7</ele>
        <time>2022-04-17T08:02:28.000Z</time>
      </trkpt>
      <trkpt lat="43.26888" lon="2.28493">
        <ele>126.6</ele>
        <time>2022-04-17T08:02:29.000Z</time>
      </trkpt>
      <trkpt lat="43.26887" lon="2.28491">
        <ele>126.6</ele>
        <time>2022-04-17T08:02:30.000Z</time>
      </trkpt>
      <trkpt lat="43.26885" lon="2.28488">
        <ele>126.5</ele>
        <time>2022-04-17T08:02:31.000Z</time>
      </trkpt>
      <trkpt lat="43.26884" lon="2.28485">
        <ele>126.5</ele>
        <time>2022-04-17T08:02:32.000Z</time>
      </trkpt>
      <trkpt lat="43.26882" lon="2.28483">
        <ele>126.4</ele>
        <time>2022-04-17T08:02:33.000Z</time>
      </trkpt>
      <trkpt lat="43.26881" lon="2.2848">
        <ele>126.4</ele>
        <time>2022-04-17T08:02:34.000Z</time>
      </trkpt>
      <trkpt lat="43.26879" lon="2.28477">
        <ele>126.3</ele>
        <time>2022-04-17T08:02:35.000Z</time>
      </trkpt>
      <trkpt lat="43.26877" lon="2.28475">
        <ele>126.3</ele>
        <time>2022-04-17T08:02:36.000Z</time>
      </trkpt>
      <trkpt lat="43.26876" lon="2.28472">
        <ele>126.2</ele>
        <time>2022-04-17T08:02:37.000Z</time>
      </trkpt>
      <trkpt lat="43.26874" lon="2.2847">
        <ele>126.1</ele>
        <time>2022-04-17T08:02:38.000Z</time>
      </trkpt>
      <trkpt lat="43.26873" lon="2.28468">
        <ele>126</ele>
        <time>2022-04-17T08:02:39.000Z</time>
      </trkpt>
      <trkpt lat="43.26871" lon="2.28466">
        <ele>126</ele>
        <time>2022-04-17T08:02:40.000Z</time>
      </trkpt>
      <trkpt lat="43.2687" lon="2.28464">
        <ele>125.9</ele>
        <time>2022-04-17T08:02:41.000Z</time>
      </trkpt>
      <trkpt lat="43.26869" lon="2.28463">
        <ele>125.8</ele>
        <time>2022-04-17T08:02:42.000Z</time>
      </trkpt>
      <trkpt lat="43.26867" lon="2.28461">
        <ele>125.8</ele>
        <time>2022-04-17T08:02:43.000Z</time>
      </trkpt>
      <trkpt lat="43.26866" lon="2.28459">
        <ele>125.7</ele>
        <time>2022-04-17T08:02:44.000Z</time>
      </trkpt>
      <trkpt lat="43.26865" lon="2.28457">
        <ele>125.6</ele>
        <time>2022-04-17T08:02:45.000Z</time>
      </trkpt>
      <trkpt lat="43.26864" lon="2.28455">
        <ele>125.5</ele>
        <time>2022-04-17T08:02:46.000Z</time>
      </trkpt>
      <trkpt lat="43.26862" lon="2.28453">
        <ele>125.4</ele>
        <time>2022-04-17T08:02:47.000Z</time>
      </trkpt>
      <trkpt lat="43.26861" lon="2.28451">
        <ele>125.3</ele>
        <time>2022-04-17T08:02:48.000Z</time>
      </trkpt>
      <trkpt lat="43.2686" lon="2.28448">
        <ele>125.3</ele>
        <time>2022-04-17T08:02:49.000Z</time>
      </trkpt>
      <trkpt lat="43.26859" lon="2.28445">
        <ele>125.2</ele>
        <time>2022-04-17T08:02:50.000Z</time>
      </trkpt>
      <trkpt lat="43.26858" lon="2.28443">
        <ele>125</ele>
        <time>2022-04-17T08:02:51.000Z</time>
      </trkpt>
      <trkpt lat="43.26856" lon="2.2844">
        <ele>124.9</ele>
        <time>2022-04-17T08:02:52.000Z</time>
      </trkpt>
      <trkpt lat="43.26855" lon="2.28437">
        <ele>124.8</ele>
        <time>2022-04-17T08:02:53.000Z</time>
      </trkpt>
      <trkpt lat="43.26853" lon="2.28434">
        <ele>124.6</ele>
        <time>2022-04-17T08:02:54.000Z</time>
      </trkpt>
      <trkpt lat="43.26851" lon="2.28431">
        <ele>124.4</ele>
        <time>2022-04-17T08:02:55.000Z</time>
      </trkpt>
      <trkpt lat="43.26849" lon="2.28429">
        <ele>124.2</ele>
        <time>2022-04-17T08:02:56.000Z</time>
      </trkpt>
      <trkpt lat="43.26847" lon="2.28426">
        <ele>124.1</ele>
        <time>2022-04-17T08:02:57.000Z</time>
      </trkpt>
      <trkpt lat="43.26845" lon="2.28423">
        <ele>123.9</ele>
        <time>2022-04-17T08:02:58.000Z</time>
      </trkpt>
      <trkpt lat="43.26844" lon="2.28421">
        <ele>123.8</ele>
        <time>2022-04-17T08:02:59.000Z</time>
      </trkpt>
      <trkpt lat="43.26843" lon="2.28419">
        <ele>123.6</ele>
        <time>2022-04-17T08:03:00.000Z</time>
      </trkpt>
      <trkpt lat="43.26842" lon="2.28417">
        <ele>123.5</ele>
        <time>2022-04-17T08:03:01.000Z</time>
      </trkpt>
      <trkpt lat="43.26841" lon="2.28416">
        <ele>123.5</ele>
        <time>2022-04-17T08:03:02.000Z</time>
      </trkpt>
      <trkpt lat="43.2684" lon="2.28414">
        <ele>123.4</ele>
        <time>2022-04-17T08:03:03.000Z</time>
      </trkpt>
      <trkpt lat="43.26839" lon="2.28413">
        <ele>123.4</ele>
        <time>2022-04-17T08:03:04.000Z</time>
      </trkpt>
      <trkpt lat="43.26838" lon="2.28413">
        <ele>123.3</ele>
        <time>2022-04-17T08:03:05.000Z</time>
      </trkpt>
      <trkpt lat="43.26838" lon="2.28412">
        <ele>123.3</ele>
        <time>2022-04-17T08:03:06.000Z</time>
      </trkpt>
      <trkpt lat="43.26837" lon="2.28412">
        <ele>123.3</ele>
        <time>2022-04-17T08:03:07.000Z</time>
      </trkpt>
      <trkpt lat="43.26837" lon="2.28412">
        <ele>123.2</ele>
        <time>2022-04-17T08:03:08.000Z</time>
      </trkpt>
      <trkpt lat="43.26836" lon="2.28412">
        <ele>123.2</ele>
        <time>2022-04-17T08:03:09.000Z</time>
      </trkpt>
      <trkpt lat="43.26835" lon="2.28411">
        <ele>123.2</ele>
        <time>2022-04-17T08:03:10.000Z</time>
      </trkpt>
      <trkpt lat="43.26835" lon="2.2841">
        <ele>123.2</ele>
        <time>2022-04-17T08:03:11.000Z</time>
      </trkpt>
      <trkpt lat="43.26834" lon="2.28409">
        <ele>123.2</ele>
        <time>2022-04-17T08:03:12.000Z</time>
      </trkpt>
      <trkpt lat="43.26834" lon="2.28407">
        <ele>123.1</ele>
        <time>2022-04-17T08:03:13.000Z</time>
      </trkpt>
      <trkpt lat="43.26833" lon="2.28405">
        <ele>123.1</ele>
        <time>2022-04-17T08:03:14.000Z</time>
      </trkpt>
      <trkpt lat="43.26832" lon="2.28402">
        <ele>123.2</ele>
        <time>2022-04-17T08:03:15.000Z</time>
      </trkpt>
      <trkpt lat="43.26831" lon="2.284">
        <ele>123.2</ele>
        <time>2022-04-17T08:03:16.000Z</time>
      </trkpt>
      <trkpt lat="43.2683" lon="2.28397">
        <ele>123.3</ele>
        <time>2022-04-17T08:03:17.000Z</time>
      </trkpt>
      <trkpt lat="43.26828" lon="2.28394">
        <ele>123.3</ele>
        <time>2022-04-17T08:03:18.000Z</time>
      </trkpt>
      <trkpt lat="43.26827" lon="2.28391">
        <ele>123.3</ele>
        <time>2022-04-17T08:03:19.000Z</time>
      </trkpt>
      <trkpt lat="43.26825" lon="2.28389">
        <ele>123.3</ele>
        <time>2022-04-17T08:03:20.000Z</time>
      </trkpt>
      <trkpt lat="43.26824" lon="2.28386">
        <ele>123.4</ele>
        <time>2022-04-17T08:03:21.000Z</time>
      </trkpt>
      <trkpt lat="43.26822" lon="2.28384">
        <ele>123.4</ele>
        <time>2022-04-17T08:03:22.000Z</time>
      </trkpt>
      <trkpt lat="43.2682" lon="2.28381">
        <ele>123.4</ele>
        <time>2022-04-17T08:03:23.000Z</time>
      </trkpt>
      <trkpt lat="43.26819" lon="2.28378">
        <ele>123.4</ele>
        <time>2022-04-17T08:03:24.000Z</time>
      </trkpt>
      <trkpt lat="43.26818" lon="2.28375">
        <ele>123.4</ele>
        <time>2022-04-17T08:03:25.000Z</time>
      </trkpt>
      <trkpt lat="43.26816" lon="2.28372">
        <ele>123.4</ele>
        <time>2022-04-17T08:03:26.000Z</time>
      </trkpt>
      <trkpt lat="43.26815" lon="2.28369">
        <ele>123.4</ele>
        <time>2022-04-17T08:03:27.000Z</time>
      </trkpt>
      <trkpt lat="43.26814" lon="2.28365">
        <ele>123.4</ele>
        <time>2022-04-17T08:03:28.000Z</time>
      </trkpt>
      <trkpt lat="43.26812" lon="2.28362">
        <ele>123.4</ele>
        <time>2022-04-17T08:03:29.000Z</time>
      </trkpt>
      <trkpt lat="43.26811" lon="2.28359">
        <ele>123.4</ele>
        <time>2022-04-17T08:03:30.000Z</time>
      </trkpt>
      <trkpt lat="43.2681" lon="2.28356">
        <ele>123.4</ele>
        <time>2022-04-17T08:03:31.000Z</time>
      </trkpt>
      <trkpt lat="43.26809" lon="2.28353">
        <ele>123.4</ele>
        <time>2022-04-17T08:03:32.000Z</time>
      </trkpt>
      <trkpt lat="43.26807" lon="2.28349">
        <ele>123.4</ele>
        <time>2022-04-17T08:03:33.000Z</time>
      </trkpt>
      <trkpt lat="43.26805" lon="2.28347">
        <ele>123.3</ele>
        <time>2022-04-17T08:03:34.000Z</time>
      </trkpt>
      <trkpt lat="43.26804" lon="2.28344">
        <ele>123.3</ele>
        <time>2022-04-17T08:03:35.000Z</time>
      </trkpt>
      <trkpt lat="43.26802" lon="2.28341">
        <ele>123.3</ele>
        <time>2022-04-17T08:03:36.000Z</time>
      </trkpt>
      <trkpt lat="43.268" lon="2.28339">
        <ele>123.2</ele>
        <time>2022-04-17T08:03:37.000Z</time>
      </trkpt>
      <trkpt lat="43.26798" lon="2.28337">
        <ele>123.2</ele>
        <time>2022-04-17T08:03:38.000Z</time>
      </trkpt>
      <trkpt lat="43.26796" lon="2.28335">
        <ele>123.1</ele>
        <time>2022-04-17T08:03:39.000Z</time>
      </trkpt>
      <trkpt lat="43.26793" lon="2.28334">
        <ele>123</ele>
        <time>2022-04-17T08:03:40.000Z</time>
      </trkpt>
      <trkpt lat="43.26791" lon="2.28332">
        <ele>122.9</ele>
        <time>2022-04-17T08:03:41.000Z</time>
      </trkpt>
      <trkpt lat="43.26788" lon="2.2833">
        <ele>122.8</ele>
        <time>2022-04-17T08:03:42.000Z</time>
      </trkpt>
      <trkpt lat="43.26786" lon="2.28329">
        <ele>122.7</ele>
        <time>2022-04-17T08:03:43.000Z</time>
      </trkpt>
      <trkpt lat="43.26783" lon="2.28327">
        <ele>122.5</ele>
        <time>2022-04-17T08:03:44.000Z</time>
      </trkpt>
      <trkpt lat="43.26781" lon="2.28326">
        <ele>122.4</ele>
        <time>2022-04-17T08:03:45.000Z</time>
      </trkpt>
      <trkpt lat="43.26778" lon="2.28324">
        <ele>122.3</ele>
        <time>2022-04-17T08:03:46.000Z</time>
      </trkpt>
      <trkpt lat="43.26776" lon="2.28323">
        <ele>122.2</ele>
        <time>2022-04-17T08:03:47.000Z</time>
      </trkpt>
      <trkpt lat="43.26773" lon="2.28323">
        <ele>122.1</ele>
        <time>2022-04-17T08:03:48.000Z</time>
      </trkpt>
      <trkpt lat="43.26771" lon="2.28324">
        <ele>122.1</ele>
        <time>2022-04-17T08:03:49.000Z</time>
      </trkpt>
      <trkpt lat="43.26769" lon="2.28325">
        <ele>122.1</ele>
        <time>2022-04-17T08:03:50.000Z</time>
      </trkpt>
      <trkpt lat="43.26767" lon="2.28327">
        <ele>122.1</ele>
        <time>2022-04-17T08:03:51.000Z</time>
      </trkpt>
      <trkpt lat="43.26766" lon="2.28329">
        <ele>122.2</ele>
        <time>2022-04-17T08:03:52.000Z</time>
      </trkpt>
      <trkpt lat="43.26765" lon="2.28332">
        <ele>122.3</ele>
        <time>2022-04-17T08:03:53.000Z</time>
      </trkpt>
      <trkpt lat="43.26764" lon="2.28335">
        <ele>122.4</ele>
        <time>2022-04-17T08:03:54.000Z</time>
      </trkpt>
      <trkpt lat="43.26764" lon="2.28338">
        <ele>122.4</ele>
        <time>2022-04-17T08:03:55.000Z</time>
      </trkpt>
      <trkpt lat="43.26764" lon="2.28341">
        <ele>122.5</ele>
        <time>2022-04-17T08:03:56.000Z</time>
      </trkpt>
      <trkpt lat="43.26764" lon="2.28344">
        <ele>122.5</ele>
        <time>2022-04-17T08:03:57.000Z</time>
      </trkpt>
      <trkpt lat="43.26764" lon="2.28347">
        <ele>122.6</ele>
        <time>2022-04-17T08:03:58.000Z</time>
      </trkpt>
      <trkpt lat="43.26764" lon="2.2835">
        <ele>122.6</ele>
        <time>2022-04-17T08:03:59.000Z</time>
      </trkpt>
      <trkpt lat="43.26763" lon="2.28353">
        <ele>122.7</ele>
        <time>2022-04-17T08:04:00.000Z</time>
      </trkpt>
      <trkpt lat="43.26763" lon="2.28356">
        <ele>122.7</ele>
        <time>2022-04-17T08:04:01.000Z</time>
      </trkpt>
      <trkpt lat="43.26763" lon="2.28359">
        <ele>122.8</ele>
        <time>2022-04-17T08:04:02.000Z</time>
      </trkpt>
      <trkpt lat="43.26763" lon="2.28362">
        <ele>122.8</ele>
        <time>2022-04-17T08:04:03.000Z</time>
      </trkpt>
      <trkpt lat="43.26762" lon="2.28365">
        <ele>122.9</ele>
        <time>2022-04-17T08:04:04.000Z</time>
      </trkpt>
      <trkpt lat="43.26762" lon="2.28368">
        <ele>122.9</ele>
        <time>2022-04-17T08:04:05.000Z</time>
      </trkpt>
      <trkpt lat="43.26762" lon="2.28372">
        <ele>123</ele>
        <time>2022-04-17T08:04:06.000Z</time>
      </trkpt>
      <trkpt lat="43.26762" lon="2.28375">
        <ele>123.1</ele>
        <time>2022-04-17T08:04:07.000Z</time>
      </trkpt>
      <trkpt lat="43.26762" lon="2.28378">
        <ele>123.1</ele>
        <time>2022-04-17T08:04:08.000Z</time>
      </trkpt>
      <trkpt lat="43.26761" lon="2.28381">
        <ele>123.2</ele>
        <time>2022-04-17T08:04:09.000Z</time>
      </trkpt>
      <trkpt lat="43.26761" lon="2.28384">
        <ele>123.2</ele>
        <time>2022-04-17T08:04:10.000Z</time>
      </trkpt>
      <trkpt lat="43.26761" lon="2.28387">
        <ele>123.3</ele>
        <time>2022-04-17T08:04:11.000Z</time>
      </trkpt>
      <trkpt lat="43.2676" lon="2.2839">
        <ele>123.4</ele>
        <time>2022-04-17T08:04:12.000Z</time>
      </trkpt>
      <trkpt lat="43.26759" lon="2.28393">
        <ele>123.4</ele>
        <time>2022-04-17T08:04:13.000Z</time>
      </trkpt>
      <trkpt lat="43.26758" lon="2.28396">
        <ele>123.5</ele>
        <time>2022-04-17T08:04:14.000Z</time>
      </trkpt>
      <trkpt lat="43.26757" lon="2.28399">
        <ele>123.5</ele>
        <time>2022-04-17T08:04:15.000Z</time>
      </trkpt>
      <trkpt lat="43.26756" lon="2.28402">
        <ele>123.6</ele>
        <time>2022-04-17T08:04:16.000Z</time>
      </trkpt>
      <trkpt lat="43.26754" lon="2.28404">
        <ele>123.7</ele>
        <time>2022-04-17T08:04:17.000Z</time>
      </trkpt>
      <trkpt lat="43.26751" lon="2.28406">
        <ele>123.7</ele>
        <time>2022-04-17T08:04:18.000Z</time>
      </trkpt>
      <trkpt lat="43.26749" lon="2.28407">
        <ele>123.8</ele>
        <time>2022-04-17T08:04:19.000Z</time>
      </trkpt>
      <trkpt lat="43.26746" lon="2.28409">
        <ele>124</ele>
        <time>2022-04-17T08:04:20.000Z</time>
      </trkpt>
      <trkpt lat="43.26743" lon="2.28411">
        <ele>124.1</ele>
        <time>2022-04-17T08:04:21.000Z</time>
      </trkpt>
      <trkpt lat="43.2674" lon="2.28412">
        <ele>124.3</ele>
        <time>2022-04-17T08:04:22.000Z</time>
      </trkpt>
      <trkpt lat="43.26737" lon="2.28413">
        <ele>124.5</ele>
        <time>2022-04-17T08:04:23.000Z</time>
      </trkpt>
      <trkpt lat="43.26735" lon="2.28415">
        <ele>124.7</ele>
        <time>2022-04-17T08:04:24.000Z</time>
      </trkpt>
      <trkpt lat="43.26732" lon="2.28416">
        <ele>124.8</ele>
        <time>2022-04-17T08:04:25.000Z</time>
      </trkpt>
      <trkpt lat="43.26729" lon="2.28417">
        <ele>125</ele>
        <time>2022-04-17T08:04:26.000Z</time>
      </trkpt>
      <trkpt lat="43.26727" lon="2.28418">
        <ele>125.2</ele>
        <time>2022-04-17T08:04:27.000Z</time>
      </trkpt>
      <trkpt lat="43.26724" lon="2.28419">
        <ele>125.4</ele>
        <time>2022-04-17T08:04:28.000Z</time>
      </trkpt>
      <trkpt lat="43.26722" lon="2.2842">
        <ele>125.6</ele>
        <time>2022-04-17T08:04:29.000Z</time>
      </trkpt>
      <trkpt lat="43.26719" lon="2.28421">
        <ele>125.8</ele>
        <time>2022-04-17T08:04:30.000Z</time>
      </trkpt>
      <trkpt lat="43.26717" lon="2.28422">
        <ele>125.9</ele>
        <time>2022-04-17T08:04:31.000Z</time>
      </trkpt>
      <trkpt lat="43.26714" lon="2.28422">
        <ele>126.1</ele>
        <time>2022-04-17T08:04:32.000Z</time>
      </trkpt>
      <trkpt lat="43.26712" lon="2.28423">
        <ele>126.2</ele>
        <time>2022-04-17T08:04:33.000Z</time>
      </trkpt>
      <trkpt lat="43.26709" lon="2.28423">
        <ele>126.3</ele>
        <time>2022-04-17T08:04:34.000Z</time>
      </trkpt>
      <trkpt lat="43.26707" lon="2.28423">
        <ele>126.5</ele>
        <time>2022-04-17T08:04:35.000Z</time>
      </trkpt>
      <trkpt lat="43.26705" lon="2.28423">
        <ele>126.6</ele>
        <time>2022-04-17T08:04:36.000Z</time>
      </trkpt>
      <trkpt lat="43.26702" lon="2.28423">
        <ele>126.7</ele>
        <time>2022-04-17T08:04:37.000Z</time>
      </trkpt>
      <trkpt lat="43.267" lon="2.28423">
        <ele>126.7</ele>
        <time>2022-04-17T08:04:38.000Z</time>
      </trkpt>
      <trkpt lat="43.26698" lon="2.28422">
        <ele>126.8</ele>
        <time>2022-04-17T08:04:39.000Z</time>
      </trkpt>
      <trkpt lat="43.26695" lon="2.28422">
        <ele>126.9</ele>
        <time>2022-04-17T08:04:40.000Z</time>
      </trkpt>
      <trkpt lat="43.26693" lon="2.28421">
        <ele>126.9</ele>
        <time>2022-04-17T08:04:41.000Z</time>
      </trkpt>
      <trkpt lat="43.26691" lon="2.28419">
        <ele>127</ele>
        <time>2022-04-17T08:04:42.000Z</time>
      </trkpt>
      <trkpt lat="43.26689" lon="2.28418">
        <ele>127</ele>
        <time>2022-04-17T08:04:43.000Z</time>
      </trkpt>
      <trkpt lat="43.26687" lon="2.28417">
        <ele>127</ele>
        <time>2022-04-17T08:04:44.000Z</time>
      </trkpt>
      <trkpt lat="43.26685" lon="2.28415">
        <ele>127</ele>
        <time>2022-04-17T08:04:45.000Z</time>
      </trkpt>
      <trkpt lat="43.26683" lon="2.28414">
        <ele>127</ele>
        <time>2022-04-17T08:04:46.000Z</time>
      </trkpt>
      <trkpt lat="43.26681" lon="2.28412">
        <ele>126.9</ele>
        <time>2022-04-17T08:04:47.000Z</time>
      </trkpt>
      <trkpt lat="43.26678" lon="2.2841">
        <ele>126.9</ele>
        <time>2022-04-17T08:04:48.000Z</time>
      </trkpt>
      <trkpt lat="43.26676" lon="2.28409">
        <ele>126.9</ele>
        <time>2022-04-17T08:04:49.000Z</time>
      </trkpt>
      <trkpt lat="43.26674" lon="2.28408">
        <ele>126.8</ele>
        <time>2022-04-17T08:04:50.000Z</time>
      </trkpt>
      <trkpt lat="43.26672" lon="2.28407">
        <ele>126.8</ele>
        <time>2022-04-17T08:04:51.000Z</time>
      </trkpt>
      <trkpt lat="43.2667" lon="2.28406">
        <ele>126.9</ele>
        <time>2022-04-17T08:04:52.000Z</time>
      </trkpt>
      <trkpt lat="43.26668" lon="2.28405">
        <ele>126.9</ele>
        <time>2022-04-17T08:04:53.000Z</time>
      </trkpt>
      <trkpt lat="43.26666" lon="2.28405">
        <ele>126.8</ele>
        <time>2022-04-17T08:04:54.000Z</time>
      </trkpt>
      <trkpt lat="43.26664" lon="2.28405">
        <ele>126.8</ele>
        <time>2022-04-17T08:04:55.000Z</time>
      </trkpt>
      <trkpt lat="43.26662" lon="2.28405">
        <ele>126.7</ele>
        <time>2022-04-17T08:04:56.000Z</time>
      </trkpt>
      <trkpt lat="43.2666" lon="2.28406">
        <ele>126.6</ele>
        <time>2022-04-17T08:04:57.000Z</time>
      </trkpt>
      <trkpt lat="43.26658" lon="2.28407">
        <ele>126.6</ele>
        <time>2022-04-17T08:04:58.000Z</time>
      </trkpt>
      <trkpt lat="43.26656" lon="2.28408">
        <ele>126.7</ele>
        <time>2022-04-17T08:04:59.000Z</time>
      </trkpt>
      <trkpt lat="43.26655" lon="2.2841">
        <ele>126.8</ele>
        <time>2022-04-17T08:05:00.000Z</time>
      </trkpt>
      <trkpt lat="43.26654" lon="2.28412">
        <ele>126.9</ele>
        <time>2022-04-17T08:05:01.000Z</time>
      </trkpt>
      <trkpt lat="43.26652" lon="2.28415">
        <ele>127.1</ele>
        <time>2022-04-17T08:05:02.000Z</time>
      </trkpt>
      <trkpt lat="43.26652" lon="2.28418">
        <ele>127.3</ele>
        <time>2022-04-17T08:05:03.000Z</time>
      </trkpt>
      <trkpt lat="43.26651" lon="2.28422">
        <ele>127.4</ele>
        <time>2022-04-17T08:05:04.000Z</time>
      </trkpt>
      <trkpt lat="43.2665" lon="2.28425">
        <ele>127.5</ele>
        <time>2022-04-17T08:05:05.000Z</time>
      </trkpt>
      <trkpt lat="43.26649" lon="2.28428">
        <ele>127.6</ele>
        <time>2022-04-17T08:05:06.000Z</time>
      </trkpt>
      <trkpt lat="43.26649" lon="2.28432">
        <ele>127.7</ele>
        <time>2022-04-17T08:05:07.000Z</time>
      </trkpt>
      <trkpt lat="43.26648" lon="2.28435">
        <ele>127.7</ele>
        <time>2022-04-17T08:05:08.000Z</time>
      </trkpt>
      <trkpt lat="43.26646" lon="2.28438">
        <ele>127.8</ele>
        <time>2022-04-17T08:05:09.000Z</time>
      </trkpt>
      <trkpt lat="43.26645" lon="2.28442">
        <ele>127.9</ele>
        <time>2022-04-17T08:05:10.000Z</time>
      </trkpt>
      <trkpt lat="43.26644" lon="2.28445">
        <ele>127.9</ele>
        <time>2022-04-17T08:05:11.000Z</time>
      </trkpt>
      <trkpt lat="43.26642" lon="2.28447">
        <ele>127.9</ele>
        <time>2022-04-17T08:05:12.000Z</time>
      </trkpt>
      <trkpt lat="43.26639" lon="2.28448">
        <ele>127.8</ele>
        <time>2022-04-17T08:05:13.000Z</time>
      </trkpt>
      <trkpt lat="43.26636" lon="2.28449">
        <ele>127.7</ele>
        <time>2022-04-17T08:05:14.000Z</time>
      </trkpt>
      <trkpt lat="43.26633" lon="2.2845">
        <ele>127.6</ele>
        <time>2022-04-17T08:05:15.000Z</time>
      </trkpt>
      <trkpt lat="43.26631" lon="2.2845">
        <ele>127.5</ele>
        <time>2022-04-17T08:05:16.000Z</time>
      </trkpt>
      <trkpt lat="43.26628" lon="2.2845">
        <ele>127.3</ele>
        <time>2022-04-17T08:05:17.000Z</time>
      </trkpt>
      <trkpt lat="43.26625" lon="2.2845">
        <ele>127.2</ele>
        <time>2022-04-17T08:05:18.000Z</time>
      </trkpt>
      <trkpt lat="43.26623" lon="2.2845">
        <ele>127.1</ele>
        <time>2022-04-17T08:05:19.000Z</time>
      </trkpt>
      <trkpt lat="43.26621" lon="2.2845">
        <ele>127</ele>
        <time>2022-04-17T08:05:20.000Z</time>
      </trkpt>
      <trkpt lat="43.26618" lon="2.2845">
        <ele>126.9</ele>
        <time>2022-04-17T08:05:21.000Z</time>
      </trkpt>
      <trkpt lat="43.26616" lon="2.28449">
        <ele>126.7</ele>
        <time>2022-04-17T08:05:22.000Z</time>
      </trkpt>
      <trkpt lat="43.26614" lon="2.28449">
        <ele>126.6</ele>
        <time>2022-04-17T08:05:23.000Z</time>
      </trkpt>
      <trkpt lat="43.26611" lon="2.28448">
        <ele>126.5</ele>
        <time>2022-04-17T08:05:24.000Z</time>
      </trkpt>
      <trkpt lat="43.26609" lon="2.28448">
        <ele>126.3</ele>
        <time>2022-04-17T08:05:25.000Z</time>
      </trkpt>
      <trkpt lat="43.26607" lon="2.28447">
        <ele>126.2</ele>
        <time>2022-04-17T08:05:26.000Z</time>
      </trkpt>
      <trkpt lat="43.26604" lon="2.28446">
        <ele>126.1</ele>
        <time>2022-04-17T08:05:27.000Z</time>
      </trkpt>
      <trkpt lat="43.26602" lon="2.28445">
        <ele>125.9</ele>
        <time>2022-04-17T08:05:28.000Z</time>
      </trkpt>
      <trkpt lat="43.266" lon="2.28444">
        <ele>125.8</ele>
        <time>2022-04-17T08:05:29.000Z</time>
      </trkpt>
      <trkpt lat="43.26597" lon="2.28443">
        <ele>125.6</ele>
        <time>2022-04-17T08:05:30.000Z</time>
      </trkpt>
      <trkpt lat="43.26595" lon="2.28442">
        <ele>125.5</ele>
        <time>2022-04-17T08:05:31.000Z</time>
      </trkpt>
      <trkpt lat="43.26593" lon="2.28441">
        <ele>125.3</ele>
        <time>2022-04-17T08:05:32.000Z</time>
      </trkpt>
      <trkpt lat="43.2659" lon="2.28441">
        <ele>125.2</ele>
        <time>2022-04-17T08:05:33.000Z</time>
      </trkpt>
      <trkpt lat="43.26589" lon="2.28442">
        <ele>125.1</ele>
        <time>2022-04-17T08:05:34.000Z</time>
      </trkpt>
      <trkpt lat="43.26587" lon="2.28443">
        <ele>125.1</ele>
        <time>2022-04-17T08:05:35.000Z</time>
      </trkpt>
      <trkpt lat="43.26585" lon="2.28444">
        <ele>125.1</ele>
        <time>2022-04-17T08:05:36.000Z</time>
      </trkpt>
      <trkpt lat="43.26584" lon="2.28446">
        <ele>125.1</ele>
        <time>2022-04-17T08:05:37.000Z</time>
      </trkpt>
      <trkpt lat="43.26583" lon="2.28448">
        <ele>125.1</ele>
        <time>2022-04-17T08:05:38.000Z</time>
      </trkpt>
      <trkpt lat="43.26581" lon="2.2845">
        <ele>125.1</ele>
        <time>2022-04-17T08:05:39.000Z</time>
      </trkpt>
      <trkpt lat="43.2658" lon="2.28452">
        <ele>125</ele>
        <time>2022-04-17T08:05:40.000Z</time>
      </trkpt>
      <trkpt lat="43.26578" lon="2.28454">
        <ele>125</ele>
        <time>2022-04-17T08:05:41.000Z</time>
      </trkpt>
      <trkpt lat="43.26576" lon="2.28455">
        <ele>125</ele>
        <time>2022-04-17T08:05:42.000Z</time>
      </trkpt>
      <trkpt lat="43.26573" lon="2.28457">
        <ele>124.9</ele>
        <time>2022-04-17T08:05:43.000Z</time>
      </trkpt>
      <trkpt lat="43.26571" lon="2.28458">
        <ele>124.8</ele>
        <time>2022-04-17T08:05:44.000Z</time>
      </trkpt>
      <trkpt lat="43.26568" lon="2.28459">
        <ele>124.7</ele>
        <time>2022-04-17T08:05:45.000Z</time>
      </trkpt>
      <trkpt lat="43.26565" lon="2.2846">
        <ele>124.6</ele>
        <time>2022-04-17T08:05:46.000Z</time>
      </trkpt>
      <trkpt lat="43.26563" lon="2.28461">
        <ele>124.5</ele>
        <time>2022-04-17T08:05:47.000Z</time>
      </trkpt>
      <trkpt lat="43.2656" lon="2.28462">
        <ele>124.4</ele>
        <time>2022-04-17T08:05:48.000Z</time>
      </trkpt>
      <trkpt lat="43.26558" lon="2.28463">
        <ele>124.3</ele>
        <time>2022-04-17T08:05:49.000Z</time>
      </trkpt>
      <trkpt lat="43.26556" lon="2.28464">
        <ele>124.3</ele>
        <time>2022-04-17T08:05:50.000Z</time>
      </trkpt>
      <trkpt lat="43.26553" lon="2.28465">
        <ele>124.2</ele>
        <time>2022-04-17T08:05:51.000Z</time>
      </trkpt>
      <trkpt lat="43.26551" lon="2.28466">
        <ele>124.1</ele>
        <time>2022-04-17T08:05:52.000Z</time>
      </trkpt>
      <trkpt lat="43.26549" lon="2.28468">
        <ele>124.1</ele>
        <time>2022-04-17T08:05:53.000Z</time>
      </trkpt>
      <trkpt lat="43.26547" lon="2.28469">
        <ele>124.1</ele>
        <time>2022-04-17T08:05:54.000Z</time>
      </trkpt>
      <trkpt lat="43.26545" lon="2.28471">
        <ele>124.1</ele>
        <time>2022-04-17T08:05:55.000Z</time>
      </trkpt>
      <trkpt lat="43.26543" lon="2.28473">
        <ele>124.1</ele>
        <time>2022-04-17T08:05:56.000Z</time>
      </trkpt>
      <trkpt lat="43.26541" lon="2.28475">
        <ele>124.2</ele>
        <time>2022-04-17T08:05:57.000Z</time>
      </trkpt>
      <trkpt lat="43.2654" lon="2.28478">
        <ele>124.2</ele>
        <time>2022-04-17T08:05:58.000Z</time>
      </trkpt>
      <trkpt lat="43.26538" lon="2.2848">
        <ele>124.3</ele>
        <time>2022-04-17T08:05:59.000Z</time>
      </trkpt>
      <trkpt lat="43.26536" lon="2.28483">
        <ele>124.3</ele>
        <time>2022-04-17T08:06:00.000Z</time>
      </trkpt>
      <trkpt lat="43.26534" lon="2.28486">
        <ele>124.4</ele>
        <time>2022-04-17T08:06:01.000Z</time>
      </trkpt>
      <trkpt lat="43.26533" lon="2.28489">
        <ele>124.5</ele>
        <time>2022-04-17T08:06:02.000Z</time>
      </trkpt>
      <trkpt lat="43.26531" lon="2.28492">
        <ele>124.6</ele>
        <time>2022-04-17T08:06:03.000Z</time>
      </trkpt>
      <trkpt lat="43.26529" lon="2.28494">
        <ele>124.7</ele>
        <time>2022-04-17T08:06:04.000Z</time>
      </trkpt>
      <trkpt lat="43.26528" lon="2.28497">
        <ele>124.8</ele>
        <time>2022-04-17T08:06:05.000Z</time>
      </trkpt>
      <trkpt lat="43.26526" lon="2.285">
        <ele>124.9</ele>
        <time>2022-04-17T08:06:06.000Z</time>
      </trkpt>
      <trkpt lat="43.26524" lon="2.28504">
        <ele>124.9</ele>
        <time>2022-04-17T08:06:07.000Z</time>
      </trkpt>
      <trkpt lat="43.26523" lon="2.28507">
        <ele>124.9</ele>
        <time>2022-04-17T08:06:08.000Z</time>
      </trkpt>
      <trkpt lat="43.26521" lon="2.2851">
        <ele>124.8</ele>
        <time>2022-04-17T08:06:09.000Z</time>
      </trkpt>
      <trkpt lat="43.26519" lon="2.28513">
        <ele>124.8</ele>
        <time>2022-04-17T08:06:10.000Z</time>
      </trkpt>
      <trkpt lat="43.26518" lon="2.28516">
        <ele>124.8</ele>
        <time>2022-04-17T08:06:11.000Z</time>
      </trkpt>
      <trkpt lat="43.26516" lon="2.2852">
        <ele>124.8</ele>
        <time>2022-04-17T08:06:12.000Z</time>
      </trkpt>
      <trkpt lat="43.26514" lon="2.28523">
        <ele>124.7</ele>
        <time>2022-04-17T08:06:13.000Z</time>
      </trkpt>
      <trkpt lat="43.26513" lon="2.28526">
        <ele>124.7</ele>
        <time>2022-04-17T08:06:14.000Z</time>
      </trkpt>
      <trkpt lat="43.26511" lon="2.2853">
        <ele>124.7</ele>
        <time>2022-04-17T08:06:15.000Z</time>
      </trkpt>
      <trkpt lat="43.26509" lon="2.28533">
        <ele>124.7</ele>
        <time>2022-04-17T08:06:16.000Z</time>
      </trkpt>
      <trkpt lat="43.26507" lon="2.28537">
        <ele>124.7</ele>
        <time>2022-04-17T08:06:17.000Z</time>
      </trkpt>
      <trkpt lat="43.26506" lon="2.2854">
        <ele>124.7</ele>
        <time>2022-04-17T08:06:18.000Z</time>
      </trkpt>
      <trkpt lat="43.26504" lon="2.28544">
        <ele>124.6</ele>
        <time>2022-04-17T08:06:19.000Z</time>
      </trkpt>
      <trkpt lat="43.26502" lon="2.28547">
        <ele>124.6</ele>
        <time>2022-04-17T08:06:20.000Z</time>
      </trkpt>
      <trkpt lat="43.265" lon="2.28551">
        <ele>124.6</ele>
        <time>2022-04-17T08:06:21.000Z</time>
      </trkpt>
      <trkpt lat="43.26499" lon="2.28555">
        <ele>124.6</ele>
        <time>2022-04-17T08:06:22.000Z</time>
      </trkpt>
      <trkpt lat="43.26497" lon="2.28558">
        <ele>124.6</ele>
        <time>2022-04-17T08:06:23.000Z</time>
      </trkpt>
      <trkpt lat="43.26495" lon="2.28562">
        <ele>124.5</ele>
        <time>2022-04-17T08:06:24.000Z</time>
      </trkpt>
      <trkpt lat="43.26493" lon="2.28566">
        <ele>124.5</ele>
        <time>2022-04-17T08:06:25.000Z</time>
      </trkpt>
      <trkpt lat="43.26492" lon="2.2857">
        <ele>124.5</ele>
        <time>2022-04-17T08:06:26.000Z</time>
      </trkpt>
      <trkpt lat="43.2649" lon="2.28574">
        <ele>124.5</ele>
        <time>2022-04-17T08:06:27.000Z</time>
      </trkpt>
      <trkpt lat="43.26488" lon="2.28578">
        <ele>124.5</ele>
        <time>2022-04-17T08:06:28.000Z</time>
      </trkpt>
      <trkpt lat="43.26486" lon="2.28583">
        <ele>124.5</ele>
        <time>2022-04-17T08:06:29.000Z</time>
      </trkpt>
      <trkpt lat="43.26485" lon="2.28587">
        <ele>124.5</ele>
        <time>2022-04-17T08:06:30.000Z</time>
      </trkpt>
      <trkpt lat="43.26483" lon="2.28591">
        <ele>124.4</ele>
        <time>2022-04-17T08:06:31.000Z</time>
      </trkpt>
      <trkpt lat="43.26481" lon="2.28596">
        <ele>124.4</ele>
        <time>2022-04-17T08:06:32.000Z</time>
      </trkpt>
      <trkpt lat="43.26479" lon="2.286">
        <ele>124.4</ele>
        <time>2022-04-17T08:06:33.000Z</time>
      </trkpt>
      <trkpt lat="43.26478" lon="2.28605">
        <ele>124.3</ele>
        <time>2022-04-17T08:06:34.000Z</time>
      </trkpt>
      <trkpt lat="43.26476" lon="2.28609">
        <ele>124.3</ele>
        <time>2022-04-17T08:06:35.000Z</time>
      </trkpt>
      <trkpt lat="43.26474" lon="2.28614">
        <ele>124.3</ele>
        <time>2022-04-17T08:06:36.000Z</time>
      </trkpt>
      <trkpt lat="43.26473" lon="2.28618">
        <ele>124.3</ele>
        <time>2022-04-17T08:06:37.000Z</time>
      </trkpt>
      <trkpt lat="43.26471" lon="2.28623">
        <ele>124.3</ele>
        <time>2022-04-17T08:06:38.000Z</time>
      </trkpt>
      <trkpt lat="43.2647" lon="2.28628">
        <ele>124.3</ele>
        <time>2022-04-17T08:06:39.000Z</time>
      </trkpt>
      <trkpt lat="43.26468" lon="2.28632">
        <ele>124.3</ele>
        <time>2022-04-17T08:06:40.000Z</time>
      </trkpt>
      <trkpt lat="43.26466" lon="2.28637">
        <ele>124.3</ele>
        <time>2022-04-17T08:06:41.000Z</time>
      </trkpt>
      <trkpt lat="43.26465" lon="2.28642">
        <ele>124.3</ele>
        <time>2022-04-17T08:06:42.000Z</time>
      </trkpt>
      <trkpt lat="43.26463" lon="2.28646">
        <ele>124.3</ele>
        <time>2022-04-17T08:06:43.000Z</time>
      </trkpt>
      <trkpt lat="43.26462" lon="2.28651">
        <ele>124.4</ele>
        <time>2022-04-17T08:06:44.000Z</time>
      </trkpt>
      <trkpt lat="43.2646" lon="2.28655">
        <ele>124.4</ele>
        <time>2022-04-17T08:06:45.000Z</time>
      </trkpt>
      <trkpt lat="43.26458" lon="2.2866">
        <ele>124.4</ele>
        <time>2022-04-17T08:06:46.000Z</time>
      </trkpt>
      <trkpt lat="43.26456" lon="2.28664">
        <ele>124.4</ele>
        <time>2022-04-17T08:06:47.000Z</time>
      </trkpt>
      <trkpt lat="43.26454" lon="2.28668">
        <ele>124.4</ele>
        <time>2022-04-17T08:06:48.000Z</time>
      </trkpt>
      <trkpt lat="43.26452" lon="2.28671">
        <ele>124.4</ele>
        <time>2022-04-17T08:06:49.000Z</time>
      </trkpt>
      <trkpt lat="43.26449" lon="2.28675">
        <ele>124.4</ele>
        <time>2022-04-17T08:06:50.000Z</time>
      </trkpt>
      <trkpt lat="43.26447" lon="2.28679">
        <ele>124.4</ele>
        <time>2022-04-17T08:06:51.000Z</time>
      </trkpt>
      <trkpt lat="43.26445" lon="2.28683">
        <ele>124.3</ele>
        <time>2022-04-17T08:06:52.000Z</time>
      </trkpt>
      <trkpt lat="43.26443" lon="2.28687">
        <ele>124.3</ele>
        <time>2022-04-17T08:06:53.000Z</time>
      </trkpt>
      <trkpt lat="43.26441" lon="2.28691">
        <ele>124.3</ele>
        <time>2022-04-17T08:06:54.000Z</time>
      </trkpt>
      <trkpt lat="43.26439" lon="2.28696">
        <ele>124.3</ele>
        <time>2022-04-17T08:06:55.000Z</time>
      </trkpt>
      <trkpt lat="43.26437" lon="2.287">
        <ele>124.2</ele>
        <time>2022-04-17T08:06:56.000Z</time>
      </trkpt>
      <trkpt lat="43.26436" lon="2.28704">
        <ele>124.2</ele>
        <time>2022-04-17T08:06:57.000Z</time>
      </trkpt>
      <trkpt lat="43.26434" lon="2.28708">
        <ele>124.2</ele>
        <time>2022-04-17T08:06:58.000Z</time>
      </trkpt>
      <trkpt lat="43.26432" lon="2.28713">
        <ele>124.2</ele>
        <time>2022-04-17T08:06:59.000Z</time>
      </trkpt>
      <trkpt lat="43.26431" lon="2.28717">
        <ele>124.2</ele>
        <time>2022-04-17T08:07:00.000Z</time>
      </trkpt>
      <trkpt lat="43.26429" lon="2.28721">
        <ele>124.1</ele>
        <time>2022-04-17T08:07:01.000Z</time>
      </trkpt>
      <trkpt lat="43.26427" lon="2.28726">
        <ele>124.1</ele>
        <time>2022-04-17T08:07:02.000Z</time>
      </trkpt>
      <trkpt lat="43.26426" lon="2.2873">
        <ele>124.1</ele>
        <time>2022-04-17T08:07:03.000Z</time>
      </trkpt>
      <trkpt lat="43.26424" lon="2.28734">
        <ele>124.1</ele>
        <time>2022-04-17T08:07:04.000Z</time>
      </trkpt>
      <trkpt lat="43.26423" lon="2.28738">
        <ele>124.1</ele>
        <time>2022-04-17T08:07:05.000Z</time>
      </trkpt>
      <trkpt lat="43.26421" lon="2.28742">
        <ele>124.1</ele>
        <time>2022-04-17T08:07:06.000Z</time>
      </trkpt>
      <trkpt lat="43.2642" lon="2.28745">
        <ele>124</ele>
        <time>2022-04-17T08:07:07.000Z</time>
      </trkpt>
      <trkpt lat="43.26419" lon="2.28749">
        <ele>124</ele>
        <time>2022-04-17T08:07:08.000Z</time>
      </trkpt>
      <trkpt lat="43.26417" lon="2.28752">
        <ele>124</ele>
        <time>2022-04-17T08:07:09.000Z</time>
      </trkpt>
      <trkpt lat="43.26416" lon="2.28755">
        <ele>123.9</ele>
        <time>2022-04-17T08:07:10.000Z</time>
      </trkpt>
      <trkpt lat="43.26415" lon="2.28758">
        <ele>123.9</ele>
        <time>2022-04-17T08:07:11.000Z</time>
      </trkpt>
      <trkpt lat="43.26414" lon="2.28761">
        <ele>123.8</ele>
        <time>2022-04-17T08:07:12.000Z</time>
      </trkpt>
      <trkpt lat="43.26413" lon="2.28763">
        <ele>123.8</ele>
        <time>2022-04-17T08:07:13.000Z</time>
      </trkpt>
      <trkpt lat="43.26412" lon="2.28765">
        <ele>123.7</ele>
        <time>2022-04-17T08:07:14.000Z</time>
      </trkpt>
      <trkpt lat="43.26411" lon="2.28767">
        <ele>123.7</ele>
        <time>2022-04-17T08:07:15.000Z</time>
      </trkpt>
      <trkpt lat="43.26411" lon="2.28769">
        <ele>123.7</ele>
        <time>2022-04-17T08:07:16.000Z</time>
      </trkpt>
      <trkpt lat="43.2641" lon="2.28771">
        <ele>123.6</ele>
        <time>2022-04-17T08:07:17.000Z</time>
      </trkpt>
      <trkpt lat="43.2641" lon="2.28772">
        <ele>123.6</ele>
        <time>2022-04-17T08:07:18.000Z</time>
      </trkpt>
    </trkseg>
  </trk>
</gpx>